<?xml version="1.0" encoding="UTF-8" standalone="no" ?>
<gpx xmlns="http://www.topografix.com/GPX/1/1" xmlns:xsi="http://www.w3.org/2001/XMLSchema-instance" xsi:schemaLocation="http://www.topografix.com/GPX/1/1 http://www.topografix.com/GPX/1/1/gpx.xsd" version="1.1" creator="VisuGPX - https://www.visugpx.com">
  <metadata>
    <name>Les Saisies tour du bois de Covetan / Mont Bisanne</name>
    <desc><![CDATA[Belle boucle autour de la réserve naturelle de la Tourbière des Saisies Beaufortain puis par une mini boucle par le Planay.

Un peu technique par moments et un poussage de quelques centaines de mètres au niveau du Planay. Pour vététistes confirmés.]]></desc>
  </metadata>
  <trk>
    <name><![CDATA[Les Saisies tour du bois de Covetan / Mont Bisanne_1]]></name>
    <trkseg>
      <trkpt lat="45.76264" lon="6.53305">
        <ele>1653.6</ele>
        <time>2026-07-12T09:04:28Z</time>
      </trkpt>
      <trkpt lat="45.76262" lon="6.53303">
        <ele>1652.8</ele>
        <time>2026-07-12T09:04:29Z</time>
      </trkpt>
      <trkpt lat="45.7626" lon="6.53301">
        <ele>1652.8</ele>
        <time>2026-07-12T09:04:30Z</time>
      </trkpt>
      <trkpt lat="45.76257" lon="6.53299">
        <ele>1652.8</ele>
        <time>2026-07-12T09:04:31Z</time>
      </trkpt>
      <trkpt lat="45.76255" lon="6.53297">
        <ele>1652.8</ele>
        <time>2026-07-12T09:04:32Z</time>
      </trkpt>
      <trkpt lat="45.76253" lon="6.53296">
        <ele>1652.4</ele>
        <time>2026-07-12T09:04:33Z</time>
      </trkpt>
      <trkpt lat="45.76252" lon="6.53295">
        <ele>1652.4</ele>
        <time>2026-07-12T09:04:34Z</time>
      </trkpt>
      <trkpt lat="45.76251" lon="6.53294">
        <ele>1652.4</ele>
        <time>2026-07-12T09:04:35Z</time>
      </trkpt>
      <trkpt lat="45.76251" lon="6.53294">
        <ele>1652.4</ele>
        <time>2026-07-12T09:04:36Z</time>
      </trkpt>
      <trkpt lat="45.76249" lon="6.53293">
        <ele>1652.4</ele>
        <time>2026-07-12T09:04:37Z</time>
      </trkpt>
      <trkpt lat="45.76248" lon="6.53293">
        <ele>1652.4</ele>
        <time>2026-07-12T09:04:38Z</time>
      </trkpt>
      <trkpt lat="45.76246" lon="6.53292">
        <ele>1652.4</ele>
        <time>2026-07-12T09:04:39Z</time>
      </trkpt>
      <trkpt lat="45.76245" lon="6.53291">
        <ele>1652.8</ele>
        <time>2026-07-12T09:04:40Z</time>
      </trkpt>
      <trkpt lat="45.76243" lon="6.53291">
        <ele>1652.8</ele>
        <time>2026-07-12T09:04:41Z</time>
      </trkpt>
      <trkpt lat="45.76241" lon="6.5329">
        <ele>1652.8</ele>
        <time>2026-07-12T09:04:42Z</time>
      </trkpt>
      <trkpt lat="45.76238" lon="6.53289">
        <ele>1652.8</ele>
        <time>2026-07-12T09:04:43Z</time>
      </trkpt>
      <trkpt lat="45.76236" lon="6.53288">
        <ele>1652.8</ele>
        <time>2026-07-12T09:04:44Z</time>
      </trkpt>
      <trkpt lat="45.76233" lon="6.53287">
        <ele>1652.2</ele>
        <time>2026-07-12T09:04:45Z</time>
      </trkpt>
      <trkpt lat="45.7623" lon="6.53286">
        <ele>1652.2</ele>
        <time>2026-07-12T09:04:46Z</time>
      </trkpt>
      <trkpt lat="45.76228" lon="6.53285">
        <ele>1652.2</ele>
        <time>2026-07-12T09:04:47Z</time>
      </trkpt>
      <trkpt lat="45.76225" lon="6.53284">
        <ele>1652.4</ele>
        <time>2026-07-12T09:04:48Z</time>
      </trkpt>
      <trkpt lat="45.76222" lon="6.53283">
        <ele>1652.4</ele>
        <time>2026-07-12T09:04:49Z</time>
      </trkpt>
      <trkpt lat="45.76219" lon="6.53283">
        <ele>1653.4</ele>
        <time>2026-07-12T09:04:50Z</time>
      </trkpt>
      <trkpt lat="45.76217" lon="6.53283">
        <ele>1653.4</ele>
        <time>2026-07-12T09:04:51Z</time>
      </trkpt>
      <trkpt lat="45.76214" lon="6.53282">
        <ele>1653.4</ele>
        <time>2026-07-12T09:04:52Z</time>
      </trkpt>
      <trkpt lat="45.76211" lon="6.53282">
        <ele>1653</ele>
        <time>2026-07-12T09:04:53Z</time>
      </trkpt>
      <trkpt lat="45.76209" lon="6.53281">
        <ele>1652.8</ele>
        <time>2026-07-12T09:04:54Z</time>
      </trkpt>
      <trkpt lat="45.76206" lon="6.53281">
        <ele>1652.8</ele>
        <time>2026-07-12T09:04:55Z</time>
      </trkpt>
      <trkpt lat="45.76203" lon="6.5328">
        <ele>1652.8</ele>
        <time>2026-07-12T09:04:56Z</time>
      </trkpt>
      <trkpt lat="45.762" lon="6.5328">
        <ele>1653.2</ele>
        <time>2026-07-12T09:04:57Z</time>
      </trkpt>
      <trkpt lat="45.76197" lon="6.53279">
        <ele>1653.4</ele>
        <time>2026-07-12T09:04:58Z</time>
      </trkpt>
      <trkpt lat="45.76194" lon="6.53279">
        <ele>1653.4</ele>
        <time>2026-07-12T09:04:59Z</time>
      </trkpt>
      <trkpt lat="45.76191" lon="6.5328">
        <ele>1653.4</ele>
        <time>2026-07-12T09:05:00Z</time>
      </trkpt>
      <trkpt lat="45.76188" lon="6.53281">
        <ele>1653.2</ele>
        <time>2026-07-12T09:05:01Z</time>
      </trkpt>
      <trkpt lat="45.76185" lon="6.53282">
        <ele>1653</ele>
        <time>2026-07-12T09:05:02Z</time>
      </trkpt>
      <trkpt lat="45.76182" lon="6.53282">
        <ele>1653</ele>
        <time>2026-07-12T09:05:03Z</time>
      </trkpt>
      <trkpt lat="45.76179" lon="6.53283">
        <ele>1653</ele>
        <time>2026-07-12T09:05:04Z</time>
      </trkpt>
      <trkpt lat="45.76176" lon="6.53283">
        <ele>1653</ele>
        <time>2026-07-12T09:05:05Z</time>
      </trkpt>
      <trkpt lat="45.76173" lon="6.53282">
        <ele>1653.2</ele>
        <time>2026-07-12T09:05:06Z</time>
      </trkpt>
      <trkpt lat="45.7617" lon="6.53282">
        <ele>1653.4</ele>
        <time>2026-07-12T09:05:07Z</time>
      </trkpt>
      <trkpt lat="45.76166" lon="6.53282">
        <ele>1653.4</ele>
        <time>2026-07-12T09:05:08Z</time>
      </trkpt>
      <trkpt lat="45.76163" lon="6.53282">
        <ele>1653.4</ele>
        <time>2026-07-12T09:05:09Z</time>
      </trkpt>
      <trkpt lat="45.76159" lon="6.53282">
        <ele>1653.4</ele>
        <time>2026-07-12T09:05:10Z</time>
      </trkpt>
      <trkpt lat="45.76155" lon="6.53282">
        <ele>1653.4</ele>
        <time>2026-07-12T09:05:11Z</time>
      </trkpt>
      <trkpt lat="45.76152" lon="6.53282">
        <ele>1653.4</ele>
        <time>2026-07-12T09:05:12Z</time>
      </trkpt>
      <trkpt lat="45.76148" lon="6.53282">
        <ele>1652.2</ele>
        <time>2026-07-12T09:05:13Z</time>
      </trkpt>
      <trkpt lat="45.76144" lon="6.53283">
        <ele>1652.2</ele>
        <time>2026-07-12T09:05:14Z</time>
      </trkpt>
      <trkpt lat="45.76141" lon="6.53284">
        <ele>1652.2</ele>
        <time>2026-07-12T09:05:15Z</time>
      </trkpt>
      <trkpt lat="45.76137" lon="6.53284">
        <ele>1652.2</ele>
        <time>2026-07-12T09:05:16Z</time>
      </trkpt>
      <trkpt lat="45.76134" lon="6.53285">
        <ele>1652.2</ele>
        <time>2026-07-12T09:05:17Z</time>
      </trkpt>
      <trkpt lat="45.7613" lon="6.53286">
        <ele>1652.2</ele>
        <time>2026-07-12T09:05:18Z</time>
      </trkpt>
      <trkpt lat="45.76126" lon="6.53287">
        <ele>1652</ele>
        <time>2026-07-12T09:05:19Z</time>
      </trkpt>
      <trkpt lat="45.76123" lon="6.53288">
        <ele>1652</ele>
        <time>2026-07-12T09:05:20Z</time>
      </trkpt>
      <trkpt lat="45.7612" lon="6.53288">
        <ele>1652</ele>
        <time>2026-07-12T09:05:21Z</time>
      </trkpt>
      <trkpt lat="45.76117" lon="6.53288">
        <ele>1652.2</ele>
        <time>2026-07-12T09:05:22Z</time>
      </trkpt>
      <trkpt lat="45.76113" lon="6.53289">
        <ele>1652.4</ele>
        <time>2026-07-12T09:05:23Z</time>
      </trkpt>
      <trkpt lat="45.7611" lon="6.53289">
        <ele>1652.4</ele>
        <time>2026-07-12T09:05:24Z</time>
      </trkpt>
      <trkpt lat="45.76107" lon="6.5329">
        <ele>1652.4</ele>
        <time>2026-07-12T09:05:25Z</time>
      </trkpt>
      <trkpt lat="45.76104" lon="6.5329">
        <ele>1652.4</ele>
        <time>2026-07-12T09:05:26Z</time>
      </trkpt>
      <trkpt lat="45.761" lon="6.53291">
        <ele>1652.4</ele>
        <time>2026-07-12T09:05:27Z</time>
      </trkpt>
      <trkpt lat="45.76097" lon="6.53292">
        <ele>1652.4</ele>
        <time>2026-07-12T09:05:28Z</time>
      </trkpt>
      <trkpt lat="45.76094" lon="6.53293">
        <ele>1652.4</ele>
        <time>2026-07-12T09:05:29Z</time>
      </trkpt>
      <trkpt lat="45.76091" lon="6.53293">
        <ele>1652</ele>
        <time>2026-07-12T09:05:30Z</time>
      </trkpt>
      <trkpt lat="45.76088" lon="6.53294">
        <ele>1652</ele>
        <time>2026-07-12T09:05:31Z</time>
      </trkpt>
      <trkpt lat="45.76085" lon="6.53295">
        <ele>1652</ele>
        <time>2026-07-12T09:05:32Z</time>
      </trkpt>
      <trkpt lat="45.76082" lon="6.53296">
        <ele>1652</ele>
        <time>2026-07-12T09:05:33Z</time>
      </trkpt>
      <trkpt lat="45.76079" lon="6.53296">
        <ele>1652</ele>
        <time>2026-07-12T09:05:34Z</time>
      </trkpt>
      <trkpt lat="45.76076" lon="6.53296">
        <ele>1652</ele>
        <time>2026-07-12T09:05:35Z</time>
      </trkpt>
      <trkpt lat="45.76073" lon="6.53296">
        <ele>1652</ele>
        <time>2026-07-12T09:05:36Z</time>
      </trkpt>
      <trkpt lat="45.7607" lon="6.53297">
        <ele>1652</ele>
        <time>2026-07-12T09:05:37Z</time>
      </trkpt>
      <trkpt lat="45.76067" lon="6.53298">
        <ele>1652</ele>
        <time>2026-07-12T09:05:38Z</time>
      </trkpt>
      <trkpt lat="45.76064" lon="6.53299">
        <ele>1651.6</ele>
        <time>2026-07-12T09:05:39Z</time>
      </trkpt>
      <trkpt lat="45.76061" lon="6.53299">
        <ele>1651.6</ele>
        <time>2026-07-12T09:05:40Z</time>
      </trkpt>
      <trkpt lat="45.76058" lon="6.533">
        <ele>1651.6</ele>
        <time>2026-07-12T09:05:41Z</time>
      </trkpt>
      <trkpt lat="45.76054" lon="6.53301">
        <ele>1651.8</ele>
        <time>2026-07-12T09:05:42Z</time>
      </trkpt>
      <trkpt lat="45.76051" lon="6.53302">
        <ele>1652</ele>
        <time>2026-07-12T09:05:43Z</time>
      </trkpt>
      <trkpt lat="45.76048" lon="6.53303">
        <ele>1652</ele>
        <time>2026-07-12T09:05:44Z</time>
      </trkpt>
      <trkpt lat="45.76045" lon="6.53303">
        <ele>1652</ele>
        <time>2026-07-12T09:05:45Z</time>
      </trkpt>
      <trkpt lat="45.76042" lon="6.53304">
        <ele>1651.8</ele>
        <time>2026-07-12T09:05:46Z</time>
      </trkpt>
      <trkpt lat="45.76039" lon="6.53304">
        <ele>1651.8</ele>
        <time>2026-07-12T09:05:47Z</time>
      </trkpt>
      <trkpt lat="45.76037" lon="6.53305">
        <ele>1651.8</ele>
        <time>2026-07-12T09:05:48Z</time>
      </trkpt>
      <trkpt lat="45.76034" lon="6.53306">
        <ele>1651.8</ele>
        <time>2026-07-12T09:05:49Z</time>
      </trkpt>
      <trkpt lat="45.76032" lon="6.53307">
        <ele>1651.8</ele>
        <time>2026-07-12T09:05:50Z</time>
      </trkpt>
      <trkpt lat="45.76029" lon="6.53308">
        <ele>1651.8</ele>
        <time>2026-07-12T09:05:51Z</time>
      </trkpt>
      <trkpt lat="45.76028" lon="6.5331">
        <ele>1651.8</ele>
        <time>2026-07-12T09:05:52Z</time>
      </trkpt>
      <trkpt lat="45.76028" lon="6.53313">
        <ele>1651.8</ele>
        <time>2026-07-12T09:05:53Z</time>
      </trkpt>
      <trkpt lat="45.76028" lon="6.53317">
        <ele>1652</ele>
        <time>2026-07-12T09:05:54Z</time>
      </trkpt>
      <trkpt lat="45.76029" lon="6.5332">
        <ele>1652</ele>
        <time>2026-07-12T09:05:55Z</time>
      </trkpt>
      <trkpt lat="45.7603" lon="6.53324">
        <ele>1651.4</ele>
        <time>2026-07-12T09:05:56Z</time>
      </trkpt>
      <trkpt lat="45.76031" lon="6.53327">
        <ele>1651.4</ele>
        <time>2026-07-12T09:05:57Z</time>
      </trkpt>
      <trkpt lat="45.76031" lon="6.5333">
        <ele>1651.4</ele>
        <time>2026-07-12T09:05:58Z</time>
      </trkpt>
      <trkpt lat="45.76031" lon="6.53333">
        <ele>1651.2</ele>
        <time>2026-07-12T09:05:59Z</time>
      </trkpt>
      <trkpt lat="45.76029" lon="6.53334">
        <ele>1651.2</ele>
        <time>2026-07-12T09:06:00Z</time>
      </trkpt>
      <trkpt lat="45.76029" lon="6.53335">
        <ele>1651.2</ele>
        <time>2026-07-12T09:06:01Z</time>
      </trkpt>
      <trkpt lat="45.76028" lon="6.53337">
        <ele>1651.2</ele>
        <time>2026-07-12T09:06:02Z</time>
      </trkpt>
      <trkpt lat="45.76029" lon="6.5334">
        <ele>1652</ele>
        <time>2026-07-12T09:06:03Z</time>
      </trkpt>
      <trkpt lat="45.76029" lon="6.53342">
        <ele>1652.2</ele>
        <time>2026-07-12T09:06:04Z</time>
      </trkpt>
      <trkpt lat="45.76029" lon="6.53345">
        <ele>1653</ele>
        <time>2026-07-12T09:06:05Z</time>
      </trkpt>
      <trkpt lat="45.7603" lon="6.53348">
        <ele>1653</ele>
        <time>2026-07-12T09:06:06Z</time>
      </trkpt>
      <trkpt lat="45.76031" lon="6.5335">
        <ele>1653</ele>
        <time>2026-07-12T09:06:07Z</time>
      </trkpt>
      <trkpt lat="45.76031" lon="6.5335">
        <ele>1653</ele>
        <time>2026-07-12T09:06:08Z</time>
      </trkpt>
      <trkpt lat="45.76032" lon="6.53352">
        <ele>1653.2</ele>
        <time>2026-07-12T09:06:09Z</time>
      </trkpt>
      <trkpt lat="45.76032" lon="6.53352">
        <ele>1653.4</ele>
        <time>2026-07-12T09:06:10Z</time>
      </trkpt>
      <trkpt lat="45.76032" lon="6.53353">
        <ele>1653.4</ele>
        <time>2026-07-12T09:06:11Z</time>
      </trkpt>
      <trkpt lat="45.76034" lon="6.53361">
        <ele>1653.4</ele>
        <time>2026-07-12T09:06:27Z</time>
      </trkpt>
      <trkpt lat="45.76035" lon="6.53366">
        <ele>1653.6</ele>
        <time>2026-07-12T09:06:28Z</time>
      </trkpt>
      <trkpt lat="45.76036" lon="6.5337">
        <ele>1653.6</ele>
        <time>2026-07-12T09:06:29Z</time>
      </trkpt>
      <trkpt lat="45.76036" lon="6.53374">
        <ele>1653.6</ele>
        <time>2026-07-12T09:06:30Z</time>
      </trkpt>
      <trkpt lat="45.76037" lon="6.53378">
        <ele>1653.6</ele>
        <time>2026-07-12T09:06:31Z</time>
      </trkpt>
      <trkpt lat="45.76036" lon="6.53382">
        <ele>1654.6</ele>
        <time>2026-07-12T09:06:32Z</time>
      </trkpt>
      <trkpt lat="45.76036" lon="6.53386">
        <ele>1654.6</ele>
        <time>2026-07-12T09:06:33Z</time>
      </trkpt>
      <trkpt lat="45.76035" lon="6.53389">
        <ele>1654.6</ele>
        <time>2026-07-12T09:06:34Z</time>
      </trkpt>
      <trkpt lat="45.76033" lon="6.53392">
        <ele>1654.6</ele>
        <time>2026-07-12T09:06:35Z</time>
      </trkpt>
      <trkpt lat="45.76032" lon="6.53394">
        <ele>1655</ele>
        <time>2026-07-12T09:06:36Z</time>
      </trkpt>
      <trkpt lat="45.7603" lon="6.53396">
        <ele>1655.2</ele>
        <time>2026-07-12T09:06:37Z</time>
      </trkpt>
      <trkpt lat="45.76028" lon="6.53398">
        <ele>1655.2</ele>
        <time>2026-07-12T09:06:38Z</time>
      </trkpt>
      <trkpt lat="45.76027" lon="6.534">
        <ele>1655.2</ele>
        <time>2026-07-12T09:06:39Z</time>
      </trkpt>
      <trkpt lat="45.76025" lon="6.53402">
        <ele>1655.2</ele>
        <time>2026-07-12T09:06:40Z</time>
      </trkpt>
      <trkpt lat="45.76024" lon="6.53405">
        <ele>1655.2</ele>
        <time>2026-07-12T09:06:41Z</time>
      </trkpt>
      <trkpt lat="45.76021" lon="6.53407">
        <ele>1655.4</ele>
        <time>2026-07-12T09:06:42Z</time>
      </trkpt>
      <trkpt lat="45.76019" lon="6.53409">
        <ele>1655.4</ele>
        <time>2026-07-12T09:06:43Z</time>
      </trkpt>
      <trkpt lat="45.76016" lon="6.5341">
        <ele>1655.4</ele>
        <time>2026-07-12T09:06:44Z</time>
      </trkpt>
      <trkpt lat="45.76014" lon="6.53411">
        <ele>1655.4</ele>
        <time>2026-07-12T09:06:45Z</time>
      </trkpt>
      <trkpt lat="45.76011" lon="6.53413">
        <ele>1655.6</ele>
        <time>2026-07-12T09:06:46Z</time>
      </trkpt>
      <trkpt lat="45.76009" lon="6.53415">
        <ele>1655.6</ele>
        <time>2026-07-12T09:06:47Z</time>
      </trkpt>
      <trkpt lat="45.76006" lon="6.53417">
        <ele>1655.6</ele>
        <time>2026-07-12T09:06:48Z</time>
      </trkpt>
      <trkpt lat="45.76004" lon="6.5342">
        <ele>1655.6</ele>
        <time>2026-07-12T09:06:49Z</time>
      </trkpt>
      <trkpt lat="45.76002" lon="6.53423">
        <ele>1655.6</ele>
        <time>2026-07-12T09:06:50Z</time>
      </trkpt>
      <trkpt lat="45.75999" lon="6.53426">
        <ele>1656.4</ele>
        <time>2026-07-12T09:06:51Z</time>
      </trkpt>
      <trkpt lat="45.75998" lon="6.5343">
        <ele>1656.4</ele>
        <time>2026-07-12T09:06:52Z</time>
      </trkpt>
      <trkpt lat="45.75996" lon="6.53433">
        <ele>1656.4</ele>
        <time>2026-07-12T09:06:53Z</time>
      </trkpt>
      <trkpt lat="45.75994" lon="6.53437">
        <ele>1656.6</ele>
        <time>2026-07-12T09:06:54Z</time>
      </trkpt>
      <trkpt lat="45.75993" lon="6.5344">
        <ele>1656.8</ele>
        <time>2026-07-12T09:06:55Z</time>
      </trkpt>
      <trkpt lat="45.75991" lon="6.53444">
        <ele>1657</ele>
        <time>2026-07-12T09:06:56Z</time>
      </trkpt>
      <trkpt lat="45.75991" lon="6.53448">
        <ele>1657.4</ele>
        <time>2026-07-12T09:06:57Z</time>
      </trkpt>
      <trkpt lat="45.7599" lon="6.53453">
        <ele>1657.4</ele>
        <time>2026-07-12T09:06:58Z</time>
      </trkpt>
      <trkpt lat="45.75989" lon="6.53457">
        <ele>1657.4</ele>
        <time>2026-07-12T09:06:59Z</time>
      </trkpt>
      <trkpt lat="45.75989" lon="6.53461">
        <ele>1657.4</ele>
        <time>2026-07-12T09:07:00Z</time>
      </trkpt>
      <trkpt lat="45.7599" lon="6.53466">
        <ele>1657.4</ele>
        <time>2026-07-12T09:07:01Z</time>
      </trkpt>
      <trkpt lat="45.7599" lon="6.5347">
        <ele>1657.8</ele>
        <time>2026-07-12T09:07:02Z</time>
      </trkpt>
      <trkpt lat="45.75991" lon="6.53474">
        <ele>1658</ele>
        <time>2026-07-12T09:07:03Z</time>
      </trkpt>
      <trkpt lat="45.75992" lon="6.53478">
        <ele>1658</ele>
        <time>2026-07-12T09:07:04Z</time>
      </trkpt>
      <trkpt lat="45.75993" lon="6.53481">
        <ele>1658</ele>
        <time>2026-07-12T09:07:05Z</time>
      </trkpt>
      <trkpt lat="45.75994" lon="6.53484">
        <ele>1658</ele>
        <time>2026-07-12T09:07:06Z</time>
      </trkpt>
      <trkpt lat="45.75994" lon="6.53486">
        <ele>1658</ele>
        <time>2026-07-12T09:07:07Z</time>
      </trkpt>
      <trkpt lat="45.75992" lon="6.53489">
        <ele>1658</ele>
        <time>2026-07-12T09:07:08Z</time>
      </trkpt>
      <trkpt lat="45.7599" lon="6.5349">
        <ele>1658</ele>
        <time>2026-07-12T09:07:09Z</time>
      </trkpt>
      <trkpt lat="45.75988" lon="6.53492">
        <ele>1658</ele>
        <time>2026-07-12T09:07:10Z</time>
      </trkpt>
      <trkpt lat="45.75985" lon="6.53494">
        <ele>1658</ele>
        <time>2026-07-12T09:07:11Z</time>
      </trkpt>
      <trkpt lat="45.75983" lon="6.53496">
        <ele>1658</ele>
        <time>2026-07-12T09:07:12Z</time>
      </trkpt>
      <trkpt lat="45.75981" lon="6.53498">
        <ele>1658</ele>
        <time>2026-07-12T09:07:13Z</time>
      </trkpt>
      <trkpt lat="45.75979" lon="6.53501">
        <ele>1657.6</ele>
        <time>2026-07-12T09:07:14Z</time>
      </trkpt>
      <trkpt lat="45.75978" lon="6.53504">
        <ele>1657.6</ele>
        <time>2026-07-12T09:07:15Z</time>
      </trkpt>
      <trkpt lat="45.75976" lon="6.53507">
        <ele>1658.8</ele>
        <time>2026-07-12T09:07:16Z</time>
      </trkpt>
      <trkpt lat="45.75974" lon="6.53511">
        <ele>1658.8</ele>
        <time>2026-07-12T09:07:17Z</time>
      </trkpt>
      <trkpt lat="45.75973" lon="6.53515">
        <ele>1658.8</ele>
        <time>2026-07-12T09:07:18Z</time>
      </trkpt>
      <trkpt lat="45.75972" lon="6.53518">
        <ele>1658</ele>
        <time>2026-07-12T09:07:19Z</time>
      </trkpt>
      <trkpt lat="45.7597" lon="6.53521">
        <ele>1658</ele>
        <time>2026-07-12T09:07:20Z</time>
      </trkpt>
      <trkpt lat="45.75969" lon="6.53524">
        <ele>1658</ele>
        <time>2026-07-12T09:07:21Z</time>
      </trkpt>
      <trkpt lat="45.75968" lon="6.53528">
        <ele>1658.2</ele>
        <time>2026-07-12T09:07:22Z</time>
      </trkpt>
      <trkpt lat="45.75967" lon="6.53531">
        <ele>1658.2</ele>
        <time>2026-07-12T09:07:23Z</time>
      </trkpt>
      <trkpt lat="45.75966" lon="6.53535">
        <ele>1658.2</ele>
        <time>2026-07-12T09:07:24Z</time>
      </trkpt>
      <trkpt lat="45.75965" lon="6.53538">
        <ele>1658.2</ele>
        <time>2026-07-12T09:07:25Z</time>
      </trkpt>
      <trkpt lat="45.75963" lon="6.53542">
        <ele>1657.8</ele>
        <time>2026-07-12T09:07:26Z</time>
      </trkpt>
      <trkpt lat="45.75962" lon="6.53544">
        <ele>1657.6</ele>
        <time>2026-07-12T09:07:27Z</time>
      </trkpt>
      <trkpt lat="45.75961" lon="6.53546">
        <ele>1657.4</ele>
        <time>2026-07-12T09:07:28Z</time>
      </trkpt>
      <trkpt lat="45.7596" lon="6.53548">
        <ele>1657.4</ele>
        <time>2026-07-12T09:07:29Z</time>
      </trkpt>
      <trkpt lat="45.75959" lon="6.5355">
        <ele>1657.4</ele>
        <time>2026-07-12T09:07:30Z</time>
      </trkpt>
      <trkpt lat="45.75958" lon="6.53552">
        <ele>1657.4</ele>
        <time>2026-07-12T09:07:31Z</time>
      </trkpt>
      <trkpt lat="45.75957" lon="6.53554">
        <ele>1657</ele>
        <time>2026-07-12T09:07:32Z</time>
      </trkpt>
      <trkpt lat="45.75956" lon="6.53555">
        <ele>1657</ele>
        <time>2026-07-12T09:07:33Z</time>
      </trkpt>
      <trkpt lat="45.75955" lon="6.53556">
        <ele>1657</ele>
        <time>2026-07-12T09:07:34Z</time>
      </trkpt>
      <trkpt lat="45.75955" lon="6.53558">
        <ele>1657</ele>
        <time>2026-07-12T09:07:35Z</time>
      </trkpt>
      <trkpt lat="45.75954" lon="6.53559">
        <ele>1657</ele>
        <time>2026-07-12T09:07:36Z</time>
      </trkpt>
      <trkpt lat="45.75954" lon="6.53561">
        <ele>1657</ele>
        <time>2026-07-12T09:07:37Z</time>
      </trkpt>
      <trkpt lat="45.75953" lon="6.53562">
        <ele>1657</ele>
        <time>2026-07-12T09:07:38Z</time>
      </trkpt>
      <trkpt lat="45.75952" lon="6.53563">
        <ele>1656.8</ele>
        <time>2026-07-12T09:07:39Z</time>
      </trkpt>
      <trkpt lat="45.75943" lon="6.53573">
        <ele>1657</ele>
        <time>2026-07-12T09:07:53Z</time>
      </trkpt>
      <trkpt lat="45.75941" lon="6.53575">
        <ele>1657</ele>
        <time>2026-07-12T09:07:54Z</time>
      </trkpt>
      <trkpt lat="45.7594" lon="6.53577">
        <ele>1657</ele>
        <time>2026-07-12T09:07:55Z</time>
      </trkpt>
      <trkpt lat="45.75937" lon="6.53578">
        <ele>1657</ele>
        <time>2026-07-12T09:07:56Z</time>
      </trkpt>
      <trkpt lat="45.75935" lon="6.53579">
        <ele>1657</ele>
        <time>2026-07-12T09:07:57Z</time>
      </trkpt>
      <trkpt lat="45.75933" lon="6.53582">
        <ele>1657.4</ele>
        <time>2026-07-12T09:07:58Z</time>
      </trkpt>
      <trkpt lat="45.75932" lon="6.53584">
        <ele>1657.4</ele>
        <time>2026-07-12T09:07:59Z</time>
      </trkpt>
      <trkpt lat="45.75931" lon="6.53586">
        <ele>1657.4</ele>
        <time>2026-07-12T09:08:00Z</time>
      </trkpt>
      <trkpt lat="45.7593" lon="6.53588">
        <ele>1657.4</ele>
        <time>2026-07-12T09:08:01Z</time>
      </trkpt>
      <trkpt lat="45.75929" lon="6.5359">
        <ele>1657.4</ele>
        <time>2026-07-12T09:08:02Z</time>
      </trkpt>
      <trkpt lat="45.75929" lon="6.53592">
        <ele>1657.4</ele>
        <time>2026-07-12T09:08:03Z</time>
      </trkpt>
      <trkpt lat="45.75929" lon="6.53596">
        <ele>1657.2</ele>
        <time>2026-07-12T09:08:04Z</time>
      </trkpt>
      <trkpt lat="45.7593" lon="6.53599">
        <ele>1656.8</ele>
        <time>2026-07-12T09:08:05Z</time>
      </trkpt>
      <trkpt lat="45.75931" lon="6.53601">
        <ele>1656.8</ele>
        <time>2026-07-12T09:08:06Z</time>
      </trkpt>
      <trkpt lat="45.75931" lon="6.53604">
        <ele>1656.8</ele>
        <time>2026-07-12T09:08:07Z</time>
      </trkpt>
      <trkpt lat="45.75932" lon="6.53608">
        <ele>1657.4</ele>
        <time>2026-07-12T09:08:08Z</time>
      </trkpt>
      <trkpt lat="45.75932" lon="6.5361">
        <ele>1657.6</ele>
        <time>2026-07-12T09:08:09Z</time>
      </trkpt>
      <trkpt lat="45.75933" lon="6.53614">
        <ele>1658</ele>
        <time>2026-07-12T09:08:10Z</time>
      </trkpt>
      <trkpt lat="45.75933" lon="6.53617">
        <ele>1658</ele>
        <time>2026-07-12T09:08:11Z</time>
      </trkpt>
      <trkpt lat="45.75933" lon="6.5362">
        <ele>1658</ele>
        <time>2026-07-12T09:08:12Z</time>
      </trkpt>
      <trkpt lat="45.75933" lon="6.53623">
        <ele>1658</ele>
        <time>2026-07-12T09:08:13Z</time>
      </trkpt>
      <trkpt lat="45.75934" lon="6.53626">
        <ele>1659</ele>
        <time>2026-07-12T09:08:14Z</time>
      </trkpt>
      <trkpt lat="45.75934" lon="6.53629">
        <ele>1659.6</ele>
        <time>2026-07-12T09:08:15Z</time>
      </trkpt>
      <trkpt lat="45.75934" lon="6.53632">
        <ele>1659.6</ele>
        <time>2026-07-12T09:08:16Z</time>
      </trkpt>
      <trkpt lat="45.75935" lon="6.53636">
        <ele>1659.6</ele>
        <time>2026-07-12T09:08:17Z</time>
      </trkpt>
      <trkpt lat="45.75936" lon="6.53639">
        <ele>1659.6</ele>
        <time>2026-07-12T09:08:18Z</time>
      </trkpt>
      <trkpt lat="45.75937" lon="6.53643">
        <ele>1661.6</ele>
        <time>2026-07-12T09:08:19Z</time>
      </trkpt>
      <trkpt lat="45.75937" lon="6.53646">
        <ele>1662</ele>
        <time>2026-07-12T09:08:20Z</time>
      </trkpt>
      <trkpt lat="45.75937" lon="6.5365">
        <ele>1662</ele>
        <time>2026-07-12T09:08:21Z</time>
      </trkpt>
      <trkpt lat="45.75938" lon="6.53653">
        <ele>1662</ele>
        <time>2026-07-12T09:08:22Z</time>
      </trkpt>
      <trkpt lat="45.75938" lon="6.53656">
        <ele>1662</ele>
        <time>2026-07-12T09:08:23Z</time>
      </trkpt>
      <trkpt lat="45.75938" lon="6.5366">
        <ele>1663</ele>
        <time>2026-07-12T09:08:24Z</time>
      </trkpt>
      <trkpt lat="45.75939" lon="6.53664">
        <ele>1663.6</ele>
        <time>2026-07-12T09:08:25Z</time>
      </trkpt>
      <trkpt lat="45.75939" lon="6.53668">
        <ele>1664</ele>
        <time>2026-07-12T09:08:26Z</time>
      </trkpt>
      <trkpt lat="45.75939" lon="6.53673">
        <ele>1664</ele>
        <time>2026-07-12T09:08:27Z</time>
      </trkpt>
      <trkpt lat="45.75939" lon="6.53677">
        <ele>1664</ele>
        <time>2026-07-12T09:08:28Z</time>
      </trkpt>
      <trkpt lat="45.75939" lon="6.53681">
        <ele>1664</ele>
        <time>2026-07-12T09:08:29Z</time>
      </trkpt>
      <trkpt lat="45.75939" lon="6.53685">
        <ele>1664</ele>
        <time>2026-07-12T09:08:30Z</time>
      </trkpt>
      <trkpt lat="45.75939" lon="6.53689">
        <ele>1665.8</ele>
        <time>2026-07-12T09:08:31Z</time>
      </trkpt>
      <trkpt lat="45.7594" lon="6.53694">
        <ele>1665.8</ele>
        <time>2026-07-12T09:08:32Z</time>
      </trkpt>
      <trkpt lat="45.7594" lon="6.53698">
        <ele>1665.8</ele>
        <time>2026-07-12T09:08:33Z</time>
      </trkpt>
      <trkpt lat="45.75941" lon="6.53702">
        <ele>1665.6</ele>
        <time>2026-07-12T09:08:34Z</time>
      </trkpt>
      <trkpt lat="45.75942" lon="6.53706">
        <ele>1665.4</ele>
        <time>2026-07-12T09:08:35Z</time>
      </trkpt>
      <trkpt lat="45.75944" lon="6.5371">
        <ele>1665.2</ele>
        <time>2026-07-12T09:08:36Z</time>
      </trkpt>
      <trkpt lat="45.75945" lon="6.53714">
        <ele>1665.2</ele>
        <time>2026-07-12T09:08:37Z</time>
      </trkpt>
      <trkpt lat="45.75947" lon="6.53718">
        <ele>1665.2</ele>
        <time>2026-07-12T09:08:38Z</time>
      </trkpt>
      <trkpt lat="45.75948" lon="6.53722">
        <ele>1665.4</ele>
        <time>2026-07-12T09:08:39Z</time>
      </trkpt>
      <trkpt lat="45.75948" lon="6.53726">
        <ele>1666.4</ele>
        <time>2026-07-12T09:08:40Z</time>
      </trkpt>
      <trkpt lat="45.75949" lon="6.53731">
        <ele>1667</ele>
        <time>2026-07-12T09:08:41Z</time>
      </trkpt>
      <trkpt lat="45.75949" lon="6.53734">
        <ele>1668</ele>
        <time>2026-07-12T09:08:42Z</time>
      </trkpt>
      <trkpt lat="45.75949" lon="6.53738">
        <ele>1668.2</ele>
        <time>2026-07-12T09:08:43Z</time>
      </trkpt>
      <trkpt lat="45.75949" lon="6.53741">
        <ele>1668.2</ele>
        <time>2026-07-12T09:08:44Z</time>
      </trkpt>
      <trkpt lat="45.75948" lon="6.53744">
        <ele>1668.2</ele>
        <time>2026-07-12T09:08:45Z</time>
      </trkpt>
      <trkpt lat="45.75948" lon="6.53746">
        <ele>1668.2</ele>
        <time>2026-07-12T09:08:46Z</time>
      </trkpt>
      <trkpt lat="45.75948" lon="6.53748">
        <ele>1668</ele>
        <time>2026-07-12T09:08:47Z</time>
      </trkpt>
      <trkpt lat="45.75948" lon="6.5375">
        <ele>1668</ele>
        <time>2026-07-12T09:08:48Z</time>
      </trkpt>
      <trkpt lat="45.75948" lon="6.53753">
        <ele>1668</ele>
        <time>2026-07-12T09:08:49Z</time>
      </trkpt>
      <trkpt lat="45.75949" lon="6.53757">
        <ele>1668.8</ele>
        <time>2026-07-12T09:08:50Z</time>
      </trkpt>
      <trkpt lat="45.75949" lon="6.53761">
        <ele>1669.8</ele>
        <time>2026-07-12T09:08:51Z</time>
      </trkpt>
      <trkpt lat="45.75949" lon="6.53765">
        <ele>1670</ele>
        <time>2026-07-12T09:08:52Z</time>
      </trkpt>
      <trkpt lat="45.75948" lon="6.53769">
        <ele>1670.6</ele>
        <time>2026-07-12T09:08:53Z</time>
      </trkpt>
      <trkpt lat="45.75948" lon="6.53773">
        <ele>1670.6</ele>
        <time>2026-07-12T09:08:54Z</time>
      </trkpt>
      <trkpt lat="45.75947" lon="6.53777">
        <ele>1670.6</ele>
        <time>2026-07-12T09:08:55Z</time>
      </trkpt>
      <trkpt lat="45.75946" lon="6.53782">
        <ele>1670.6</ele>
        <time>2026-07-12T09:08:56Z</time>
      </trkpt>
      <trkpt lat="45.75946" lon="6.53786">
        <ele>1670.6</ele>
        <time>2026-07-12T09:08:57Z</time>
      </trkpt>
      <trkpt lat="45.75946" lon="6.5379">
        <ele>1671.8</ele>
        <time>2026-07-12T09:08:58Z</time>
      </trkpt>
      <trkpt lat="45.75946" lon="6.53794">
        <ele>1672.6</ele>
        <time>2026-07-12T09:08:59Z</time>
      </trkpt>
      <trkpt lat="45.75946" lon="6.53798">
        <ele>1672.6</ele>
        <time>2026-07-12T09:09:00Z</time>
      </trkpt>
      <trkpt lat="45.75945" lon="6.53803">
        <ele>1672.6</ele>
        <time>2026-07-12T09:09:01Z</time>
      </trkpt>
      <trkpt lat="45.75945" lon="6.53807">
        <ele>1672.6</ele>
        <time>2026-07-12T09:09:02Z</time>
      </trkpt>
      <trkpt lat="45.75945" lon="6.53811">
        <ele>1673.2</ele>
        <time>2026-07-12T09:09:03Z</time>
      </trkpt>
      <trkpt lat="45.75944" lon="6.53816">
        <ele>1673.4</ele>
        <time>2026-07-12T09:09:04Z</time>
      </trkpt>
      <trkpt lat="45.75944" lon="6.5382">
        <ele>1673.4</ele>
        <time>2026-07-12T09:09:05Z</time>
      </trkpt>
      <trkpt lat="45.75943" lon="6.53824">
        <ele>1673.4</ele>
        <time>2026-07-12T09:09:06Z</time>
      </trkpt>
      <trkpt lat="45.75942" lon="6.53828">
        <ele>1673.4</ele>
        <time>2026-07-12T09:09:07Z</time>
      </trkpt>
      <trkpt lat="45.75941" lon="6.53832">
        <ele>1674.4</ele>
        <time>2026-07-12T09:09:08Z</time>
      </trkpt>
      <trkpt lat="45.7594" lon="6.53836">
        <ele>1674.6</ele>
        <time>2026-07-12T09:09:09Z</time>
      </trkpt>
      <trkpt lat="45.7594" lon="6.53841">
        <ele>1674.6</ele>
        <time>2026-07-12T09:09:10Z</time>
      </trkpt>
      <trkpt lat="45.75939" lon="6.53845">
        <ele>1675.6</ele>
        <time>2026-07-12T09:09:11Z</time>
      </trkpt>
      <trkpt lat="45.75937" lon="6.53849">
        <ele>1675.6</ele>
        <time>2026-07-12T09:09:12Z</time>
      </trkpt>
      <trkpt lat="45.75936" lon="6.53852">
        <ele>1675.6</ele>
        <time>2026-07-12T09:09:13Z</time>
      </trkpt>
      <trkpt lat="45.75935" lon="6.53857">
        <ele>1675.6</ele>
        <time>2026-07-12T09:09:14Z</time>
      </trkpt>
      <trkpt lat="45.75934" lon="6.53861">
        <ele>1676.6</ele>
        <time>2026-07-12T09:09:15Z</time>
      </trkpt>
      <trkpt lat="45.75933" lon="6.53865">
        <ele>1676.8</ele>
        <time>2026-07-12T09:09:16Z</time>
      </trkpt>
      <trkpt lat="45.75932" lon="6.53869">
        <ele>1677</ele>
        <time>2026-07-12T09:09:17Z</time>
      </trkpt>
      <trkpt lat="45.75931" lon="6.53874">
        <ele>1677</ele>
        <time>2026-07-12T09:09:18Z</time>
      </trkpt>
      <trkpt lat="45.7593" lon="6.53878">
        <ele>1677</ele>
        <time>2026-07-12T09:09:19Z</time>
      </trkpt>
      <trkpt lat="45.75929" lon="6.53882">
        <ele>1677</ele>
        <time>2026-07-12T09:09:20Z</time>
      </trkpt>
      <trkpt lat="45.75928" lon="6.53886">
        <ele>1677.2</ele>
        <time>2026-07-12T09:09:21Z</time>
      </trkpt>
      <trkpt lat="45.75927" lon="6.5389">
        <ele>1677.6</ele>
        <time>2026-07-12T09:09:22Z</time>
      </trkpt>
      <trkpt lat="45.75926" lon="6.53895">
        <ele>1677.6</ele>
        <time>2026-07-12T09:09:23Z</time>
      </trkpt>
      <trkpt lat="45.75925" lon="6.53899">
        <ele>1677.6</ele>
        <time>2026-07-12T09:09:24Z</time>
      </trkpt>
      <trkpt lat="45.75924" lon="6.53904">
        <ele>1677.6</ele>
        <time>2026-07-12T09:09:25Z</time>
      </trkpt>
      <trkpt lat="45.75923" lon="6.53908">
        <ele>1677.6</ele>
        <time>2026-07-12T09:09:26Z</time>
      </trkpt>
      <trkpt lat="45.75922" lon="6.53912">
        <ele>1677.6</ele>
        <time>2026-07-12T09:09:27Z</time>
      </trkpt>
      <trkpt lat="45.7592" lon="6.53916">
        <ele>1677.6</ele>
        <time>2026-07-12T09:09:28Z</time>
      </trkpt>
      <trkpt lat="45.75919" lon="6.53921">
        <ele>1678.6</ele>
        <time>2026-07-12T09:09:29Z</time>
      </trkpt>
      <trkpt lat="45.75918" lon="6.53925">
        <ele>1679.4</ele>
        <time>2026-07-12T09:09:30Z</time>
      </trkpt>
      <trkpt lat="45.75918" lon="6.53929">
        <ele>1680.2</ele>
        <time>2026-07-12T09:09:31Z</time>
      </trkpt>
      <trkpt lat="45.75918" lon="6.53934">
        <ele>1681.2</ele>
        <time>2026-07-12T09:09:32Z</time>
      </trkpt>
      <trkpt lat="45.75918" lon="6.53938">
        <ele>1681.2</ele>
        <time>2026-07-12T09:09:33Z</time>
      </trkpt>
      <trkpt lat="45.75918" lon="6.53943">
        <ele>1681.2</ele>
        <time>2026-07-12T09:09:34Z</time>
      </trkpt>
      <trkpt lat="45.75918" lon="6.53948">
        <ele>1681.2</ele>
        <time>2026-07-12T09:09:35Z</time>
      </trkpt>
      <trkpt lat="45.75918" lon="6.53952">
        <ele>1681.2</ele>
        <time>2026-07-12T09:09:36Z</time>
      </trkpt>
      <trkpt lat="45.75918" lon="6.53956">
        <ele>1681.2</ele>
        <time>2026-07-12T09:09:37Z</time>
      </trkpt>
      <trkpt lat="45.75918" lon="6.53961">
        <ele>1681.8</ele>
        <time>2026-07-12T09:09:38Z</time>
      </trkpt>
      <trkpt lat="45.75918" lon="6.53965">
        <ele>1682.4</ele>
        <time>2026-07-12T09:09:39Z</time>
      </trkpt>
      <trkpt lat="45.75917" lon="6.53969">
        <ele>1683.4</ele>
        <time>2026-07-12T09:09:40Z</time>
      </trkpt>
      <trkpt lat="45.75917" lon="6.53973">
        <ele>1683.8</ele>
        <time>2026-07-12T09:09:41Z</time>
      </trkpt>
      <trkpt lat="45.75917" lon="6.53977">
        <ele>1684.6</ele>
        <time>2026-07-12T09:09:42Z</time>
      </trkpt>
      <trkpt lat="45.75917" lon="6.53981">
        <ele>1686.4</ele>
        <time>2026-07-12T09:09:43Z</time>
      </trkpt>
      <trkpt lat="45.75917" lon="6.53984">
        <ele>1686.4</ele>
        <time>2026-07-12T09:09:44Z</time>
      </trkpt>
      <trkpt lat="45.75918" lon="6.53988">
        <ele>1686.4</ele>
        <time>2026-07-12T09:09:45Z</time>
      </trkpt>
      <trkpt lat="45.75919" lon="6.53992">
        <ele>1686.4</ele>
        <time>2026-07-12T09:09:46Z</time>
      </trkpt>
      <trkpt lat="45.7592" lon="6.53995">
        <ele>1686.4</ele>
        <time>2026-07-12T09:09:47Z</time>
      </trkpt>
      <trkpt lat="45.75922" lon="6.53999">
        <ele>1686</ele>
        <time>2026-07-12T09:09:48Z</time>
      </trkpt>
      <trkpt lat="45.75923" lon="6.54003">
        <ele>1686</ele>
        <time>2026-07-12T09:09:49Z</time>
      </trkpt>
      <trkpt lat="45.75923" lon="6.54008">
        <ele>1686</ele>
        <time>2026-07-12T09:09:50Z</time>
      </trkpt>
      <trkpt lat="45.75922" lon="6.54012">
        <ele>1687</ele>
        <time>2026-07-12T09:09:51Z</time>
      </trkpt>
      <trkpt lat="45.75922" lon="6.54017">
        <ele>1687</ele>
        <time>2026-07-12T09:09:52Z</time>
      </trkpt>
      <trkpt lat="45.75922" lon="6.54021">
        <ele>1687</ele>
        <time>2026-07-12T09:09:53Z</time>
      </trkpt>
      <trkpt lat="45.75922" lon="6.54025">
        <ele>1687</ele>
        <time>2026-07-12T09:09:54Z</time>
      </trkpt>
      <trkpt lat="45.75923" lon="6.5403">
        <ele>1688</ele>
        <time>2026-07-12T09:09:55Z</time>
      </trkpt>
      <trkpt lat="45.75923" lon="6.54034">
        <ele>1688.8</ele>
        <time>2026-07-12T09:09:56Z</time>
      </trkpt>
      <trkpt lat="45.75923" lon="6.54038">
        <ele>1689.4</ele>
        <time>2026-07-12T09:09:57Z</time>
      </trkpt>
      <trkpt lat="45.75924" lon="6.54042">
        <ele>1690</ele>
        <time>2026-07-12T09:09:58Z</time>
      </trkpt>
      <trkpt lat="45.75925" lon="6.54046">
        <ele>1690.4</ele>
        <time>2026-07-12T09:09:59Z</time>
      </trkpt>
      <trkpt lat="45.75926" lon="6.5405">
        <ele>1690.8</ele>
        <time>2026-07-12T09:10:00Z</time>
      </trkpt>
      <trkpt lat="45.75927" lon="6.54053">
        <ele>1691.6</ele>
        <time>2026-07-12T09:10:01Z</time>
      </trkpt>
      <trkpt lat="45.75928" lon="6.54057">
        <ele>1691.6</ele>
        <time>2026-07-12T09:10:02Z</time>
      </trkpt>
      <trkpt lat="45.75929" lon="6.54061">
        <ele>1691.6</ele>
        <time>2026-07-12T09:10:03Z</time>
      </trkpt>
      <trkpt lat="45.7593" lon="6.54065">
        <ele>1691</ele>
        <time>2026-07-12T09:10:04Z</time>
      </trkpt>
      <trkpt lat="45.75931" lon="6.54069">
        <ele>1691</ele>
        <time>2026-07-12T09:10:05Z</time>
      </trkpt>
      <trkpt lat="45.75932" lon="6.54072">
        <ele>1691</ele>
        <time>2026-07-12T09:10:06Z</time>
      </trkpt>
      <trkpt lat="45.75933" lon="6.54076">
        <ele>1691.8</ele>
        <time>2026-07-12T09:10:07Z</time>
      </trkpt>
      <trkpt lat="45.75934" lon="6.5408">
        <ele>1692.2</ele>
        <time>2026-07-12T09:10:08Z</time>
      </trkpt>
      <trkpt lat="45.75934" lon="6.54084">
        <ele>1694.2</ele>
        <time>2026-07-12T09:10:09Z</time>
      </trkpt>
      <trkpt lat="45.75935" lon="6.54087">
        <ele>1694.2</ele>
        <time>2026-07-12T09:10:10Z</time>
      </trkpt>
      <trkpt lat="45.75936" lon="6.54091">
        <ele>1694.2</ele>
        <time>2026-07-12T09:10:11Z</time>
      </trkpt>
      <trkpt lat="45.75936" lon="6.54095">
        <ele>1694.2</ele>
        <time>2026-07-12T09:10:12Z</time>
      </trkpt>
      <trkpt lat="45.75937" lon="6.54099">
        <ele>1695</ele>
        <time>2026-07-12T09:10:13Z</time>
      </trkpt>
      <trkpt lat="45.75938" lon="6.54102">
        <ele>1695</ele>
        <time>2026-07-12T09:10:14Z</time>
      </trkpt>
      <trkpt lat="45.75939" lon="6.54106">
        <ele>1695.4</ele>
        <time>2026-07-12T09:10:15Z</time>
      </trkpt>
      <trkpt lat="45.75939" lon="6.5411">
        <ele>1696.2</ele>
        <time>2026-07-12T09:10:16Z</time>
      </trkpt>
      <trkpt lat="45.7594" lon="6.54114">
        <ele>1696.2</ele>
        <time>2026-07-12T09:10:17Z</time>
      </trkpt>
      <trkpt lat="45.75941" lon="6.54118">
        <ele>1696.2</ele>
        <time>2026-07-12T09:10:18Z</time>
      </trkpt>
      <trkpt lat="45.75941" lon="6.54122">
        <ele>1696</ele>
        <time>2026-07-12T09:10:19Z</time>
      </trkpt>
      <trkpt lat="45.75942" lon="6.54126">
        <ele>1696</ele>
        <time>2026-07-12T09:10:20Z</time>
      </trkpt>
      <trkpt lat="45.75942" lon="6.5413">
        <ele>1696</ele>
        <time>2026-07-12T09:10:21Z</time>
      </trkpt>
      <trkpt lat="45.75942" lon="6.54134">
        <ele>1696.2</ele>
        <time>2026-07-12T09:10:22Z</time>
      </trkpt>
      <trkpt lat="45.75941" lon="6.54138">
        <ele>1696.4</ele>
        <time>2026-07-12T09:10:23Z</time>
      </trkpt>
      <trkpt lat="45.75941" lon="6.54142">
        <ele>1696.6</ele>
        <time>2026-07-12T09:10:24Z</time>
      </trkpt>
      <trkpt lat="45.75941" lon="6.54146">
        <ele>1697</ele>
        <time>2026-07-12T09:10:25Z</time>
      </trkpt>
      <trkpt lat="45.7594" lon="6.5415">
        <ele>1697</ele>
        <time>2026-07-12T09:10:26Z</time>
      </trkpt>
      <trkpt lat="45.7594" lon="6.54154">
        <ele>1697</ele>
        <time>2026-07-12T09:10:27Z</time>
      </trkpt>
      <trkpt lat="45.7594" lon="6.54158">
        <ele>1697</ele>
        <time>2026-07-12T09:10:28Z</time>
      </trkpt>
      <trkpt lat="45.75939" lon="6.54162">
        <ele>1697.6</ele>
        <time>2026-07-12T09:10:29Z</time>
      </trkpt>
      <trkpt lat="45.75939" lon="6.54166">
        <ele>1698.2</ele>
        <time>2026-07-12T09:10:30Z</time>
      </trkpt>
      <trkpt lat="45.75939" lon="6.5417">
        <ele>1699.2</ele>
        <time>2026-07-12T09:10:31Z</time>
      </trkpt>
      <trkpt lat="45.75939" lon="6.54174">
        <ele>1699.2</ele>
        <time>2026-07-12T09:10:32Z</time>
      </trkpt>
      <trkpt lat="45.75938" lon="6.54178">
        <ele>1699.2</ele>
        <time>2026-07-12T09:10:33Z</time>
      </trkpt>
      <trkpt lat="45.75938" lon="6.54182">
        <ele>1699.2</ele>
        <time>2026-07-12T09:10:34Z</time>
      </trkpt>
      <trkpt lat="45.75938" lon="6.54186">
        <ele>1699.2</ele>
        <time>2026-07-12T09:10:35Z</time>
      </trkpt>
      <trkpt lat="45.75938" lon="6.54189">
        <ele>1699.2</ele>
        <time>2026-07-12T09:10:36Z</time>
      </trkpt>
      <trkpt lat="45.75938" lon="6.54193">
        <ele>1699.2</ele>
        <time>2026-07-12T09:10:37Z</time>
      </trkpt>
      <trkpt lat="45.75938" lon="6.54196">
        <ele>1699.2</ele>
        <time>2026-07-12T09:10:38Z</time>
      </trkpt>
      <trkpt lat="45.75939" lon="6.542">
        <ele>1700.4</ele>
        <time>2026-07-12T09:10:39Z</time>
      </trkpt>
      <trkpt lat="45.75939" lon="6.54203">
        <ele>1700.6</ele>
        <time>2026-07-12T09:10:40Z</time>
      </trkpt>
      <trkpt lat="45.75939" lon="6.54207">
        <ele>1700.6</ele>
        <time>2026-07-12T09:10:41Z</time>
      </trkpt>
      <trkpt lat="45.7594" lon="6.5421">
        <ele>1700.6</ele>
        <time>2026-07-12T09:10:42Z</time>
      </trkpt>
      <trkpt lat="45.7594" lon="6.54214">
        <ele>1700.6</ele>
        <time>2026-07-12T09:10:43Z</time>
      </trkpt>
      <trkpt lat="45.7594" lon="6.54217">
        <ele>1701.4</ele>
        <time>2026-07-12T09:10:44Z</time>
      </trkpt>
      <trkpt lat="45.75941" lon="6.5422">
        <ele>1701.8</ele>
        <time>2026-07-12T09:10:45Z</time>
      </trkpt>
      <trkpt lat="45.75941" lon="6.54224">
        <ele>1702.2</ele>
        <time>2026-07-12T09:10:46Z</time>
      </trkpt>
      <trkpt lat="45.75941" lon="6.54227">
        <ele>1702.2</ele>
        <time>2026-07-12T09:10:47Z</time>
      </trkpt>
      <trkpt lat="45.75941" lon="6.5423">
        <ele>1702.2</ele>
        <time>2026-07-12T09:10:48Z</time>
      </trkpt>
      <trkpt lat="45.75941" lon="6.54233">
        <ele>1701.8</ele>
        <time>2026-07-12T09:10:49Z</time>
      </trkpt>
      <trkpt lat="45.75941" lon="6.54236">
        <ele>1701.8</ele>
        <time>2026-07-12T09:10:50Z</time>
      </trkpt>
      <trkpt lat="45.75941" lon="6.54239">
        <ele>1701.8</ele>
        <time>2026-07-12T09:10:51Z</time>
      </trkpt>
      <trkpt lat="45.75941" lon="6.54242">
        <ele>1702.6</ele>
        <time>2026-07-12T09:10:52Z</time>
      </trkpt>
      <trkpt lat="45.75941" lon="6.54245">
        <ele>1702.6</ele>
        <time>2026-07-12T09:10:53Z</time>
      </trkpt>
      <trkpt lat="45.75941" lon="6.54248">
        <ele>1702.6</ele>
        <time>2026-07-12T09:10:54Z</time>
      </trkpt>
      <trkpt lat="45.7594" lon="6.54251">
        <ele>1702.6</ele>
        <time>2026-07-12T09:10:55Z</time>
      </trkpt>
      <trkpt lat="45.7594" lon="6.54253">
        <ele>1702.6</ele>
        <time>2026-07-12T09:10:56Z</time>
      </trkpt>
      <trkpt lat="45.7594" lon="6.54256">
        <ele>1703</ele>
        <time>2026-07-12T09:10:57Z</time>
      </trkpt>
      <trkpt lat="45.7594" lon="6.54259">
        <ele>1703</ele>
        <time>2026-07-12T09:10:58Z</time>
      </trkpt>
      <trkpt lat="45.7594" lon="6.54261">
        <ele>1703</ele>
        <time>2026-07-12T09:10:59Z</time>
      </trkpt>
      <trkpt lat="45.7594" lon="6.54263">
        <ele>1703</ele>
        <time>2026-07-12T09:11:00Z</time>
      </trkpt>
      <trkpt lat="45.7594" lon="6.54266">
        <ele>1703</ele>
        <time>2026-07-12T09:11:01Z</time>
      </trkpt>
      <trkpt lat="45.75939" lon="6.54268">
        <ele>1703.4</ele>
        <time>2026-07-12T09:11:02Z</time>
      </trkpt>
      <trkpt lat="45.75939" lon="6.5427">
        <ele>1703.8</ele>
        <time>2026-07-12T09:11:03Z</time>
      </trkpt>
      <trkpt lat="45.75939" lon="6.54272">
        <ele>1703.8</ele>
        <time>2026-07-12T09:11:04Z</time>
      </trkpt>
      <trkpt lat="45.75939" lon="6.54275">
        <ele>1703.8</ele>
        <time>2026-07-12T09:11:05Z</time>
      </trkpt>
      <trkpt lat="45.75939" lon="6.54277">
        <ele>1703.8</ele>
        <time>2026-07-12T09:11:06Z</time>
      </trkpt>
      <trkpt lat="45.75939" lon="6.54278">
        <ele>1703.8</ele>
        <time>2026-07-12T09:11:07Z</time>
      </trkpt>
      <trkpt lat="45.75939" lon="6.5428">
        <ele>1703.8</ele>
        <time>2026-07-12T09:11:08Z</time>
      </trkpt>
      <trkpt lat="45.75939" lon="6.54282">
        <ele>1703.8</ele>
        <time>2026-07-12T09:11:09Z</time>
      </trkpt>
      <trkpt lat="45.75939" lon="6.54283">
        <ele>1704</ele>
        <time>2026-07-12T09:11:10Z</time>
      </trkpt>
      <trkpt lat="45.75939" lon="6.54285">
        <ele>1704.2</ele>
        <time>2026-07-12T09:11:11Z</time>
      </trkpt>
      <trkpt lat="45.75939" lon="6.54286">
        <ele>1704.2</ele>
        <time>2026-07-12T09:11:12Z</time>
      </trkpt>
      <trkpt lat="45.75939" lon="6.54287">
        <ele>1704.2</ele>
        <time>2026-07-12T09:11:13Z</time>
      </trkpt>
      <trkpt lat="45.75939" lon="6.54289">
        <ele>1704.2</ele>
        <time>2026-07-12T09:11:14Z</time>
      </trkpt>
      <trkpt lat="45.7594" lon="6.54308">
        <ele>1705</ele>
        <time>2026-07-12T09:11:29Z</time>
      </trkpt>
      <trkpt lat="45.7594" lon="6.54311">
        <ele>1706</ele>
        <time>2026-07-12T09:11:30Z</time>
      </trkpt>
      <trkpt lat="45.75941" lon="6.54315">
        <ele>1706.2</ele>
        <time>2026-07-12T09:11:31Z</time>
      </trkpt>
      <trkpt lat="45.75941" lon="6.54319">
        <ele>1706.4</ele>
        <time>2026-07-12T09:11:32Z</time>
      </trkpt>
      <trkpt lat="45.75941" lon="6.54322">
        <ele>1707</ele>
        <time>2026-07-12T09:11:33Z</time>
      </trkpt>
      <trkpt lat="45.75941" lon="6.54325">
        <ele>1707</ele>
        <time>2026-07-12T09:11:34Z</time>
      </trkpt>
      <trkpt lat="45.75942" lon="6.54327">
        <ele>1707</ele>
        <time>2026-07-12T09:11:35Z</time>
      </trkpt>
      <trkpt lat="45.75941" lon="6.5433">
        <ele>1707</ele>
        <time>2026-07-12T09:11:36Z</time>
      </trkpt>
      <trkpt lat="45.75942" lon="6.54334">
        <ele>1707.8</ele>
        <time>2026-07-12T09:11:37Z</time>
      </trkpt>
      <trkpt lat="45.75942" lon="6.54338">
        <ele>1707.8</ele>
        <time>2026-07-12T09:11:38Z</time>
      </trkpt>
      <trkpt lat="45.75942" lon="6.54341">
        <ele>1707.8</ele>
        <time>2026-07-12T09:11:39Z</time>
      </trkpt>
      <trkpt lat="45.75943" lon="6.54343">
        <ele>1707.8</ele>
        <time>2026-07-12T09:11:40Z</time>
      </trkpt>
      <trkpt lat="45.75943" lon="6.54346">
        <ele>1707.8</ele>
        <time>2026-07-12T09:11:41Z</time>
      </trkpt>
      <trkpt lat="45.75943" lon="6.54349">
        <ele>1708.4</ele>
        <time>2026-07-12T09:11:42Z</time>
      </trkpt>
      <trkpt lat="45.75943" lon="6.54352">
        <ele>1708.6</ele>
        <time>2026-07-12T09:11:43Z</time>
      </trkpt>
      <trkpt lat="45.75944" lon="6.54354">
        <ele>1708.6</ele>
        <time>2026-07-12T09:11:44Z</time>
      </trkpt>
      <trkpt lat="45.75945" lon="6.54356">
        <ele>1709.2</ele>
        <time>2026-07-12T09:11:45Z</time>
      </trkpt>
      <trkpt lat="45.75946" lon="6.54359">
        <ele>1709.2</ele>
        <time>2026-07-12T09:11:46Z</time>
      </trkpt>
      <trkpt lat="45.75946" lon="6.54362">
        <ele>1709.6</ele>
        <time>2026-07-12T09:11:47Z</time>
      </trkpt>
      <trkpt lat="45.75947" lon="6.54364">
        <ele>1709.8</ele>
        <time>2026-07-12T09:11:48Z</time>
      </trkpt>
      <trkpt lat="45.75947" lon="6.54367">
        <ele>1709.8</ele>
        <time>2026-07-12T09:11:49Z</time>
      </trkpt>
      <trkpt lat="45.75947" lon="6.5437">
        <ele>1710</ele>
        <time>2026-07-12T09:11:50Z</time>
      </trkpt>
      <trkpt lat="45.75947" lon="6.54372">
        <ele>1710.2</ele>
        <time>2026-07-12T09:11:51Z</time>
      </trkpt>
      <trkpt lat="45.75947" lon="6.54374">
        <ele>1710.4</ele>
        <time>2026-07-12T09:11:52Z</time>
      </trkpt>
      <trkpt lat="45.75948" lon="6.54375">
        <ele>1711.4</ele>
        <time>2026-07-12T09:11:53Z</time>
      </trkpt>
      <trkpt lat="45.75948" lon="6.54377">
        <ele>1711.4</ele>
        <time>2026-07-12T09:11:54Z</time>
      </trkpt>
      <trkpt lat="45.75948" lon="6.54379">
        <ele>1711.4</ele>
        <time>2026-07-12T09:11:55Z</time>
      </trkpt>
      <trkpt lat="45.75949" lon="6.54382">
        <ele>1711.4</ele>
        <time>2026-07-12T09:11:56Z</time>
      </trkpt>
      <trkpt lat="45.7595" lon="6.54385">
        <ele>1712.4</ele>
        <time>2026-07-12T09:11:57Z</time>
      </trkpt>
      <trkpt lat="45.75951" lon="6.54389">
        <ele>1713.2</ele>
        <time>2026-07-12T09:11:58Z</time>
      </trkpt>
      <trkpt lat="45.75951" lon="6.54393">
        <ele>1713.4</ele>
        <time>2026-07-12T09:11:59Z</time>
      </trkpt>
      <trkpt lat="45.75951" lon="6.54397">
        <ele>1713.4</ele>
        <time>2026-07-12T09:12:00Z</time>
      </trkpt>
      <trkpt lat="45.75953" lon="6.54399">
        <ele>1713.4</ele>
        <time>2026-07-12T09:12:01Z</time>
      </trkpt>
      <trkpt lat="45.75954" lon="6.54401">
        <ele>1713.4</ele>
        <time>2026-07-12T09:12:02Z</time>
      </trkpt>
      <trkpt lat="45.75955" lon="6.54406">
        <ele>1714.4</ele>
        <time>2026-07-12T09:12:03Z</time>
      </trkpt>
      <trkpt lat="45.75956" lon="6.5441">
        <ele>1714.8</ele>
        <time>2026-07-12T09:12:04Z</time>
      </trkpt>
      <trkpt lat="45.75957" lon="6.54413">
        <ele>1714.8</ele>
        <time>2026-07-12T09:12:05Z</time>
      </trkpt>
      <trkpt lat="45.75958" lon="6.54417">
        <ele>1715.4</ele>
        <time>2026-07-12T09:12:06Z</time>
      </trkpt>
      <trkpt lat="45.75958" lon="6.5442">
        <ele>1715.6</ele>
        <time>2026-07-12T09:12:07Z</time>
      </trkpt>
      <trkpt lat="45.75958" lon="6.54423">
        <ele>1715.6</ele>
        <time>2026-07-12T09:12:08Z</time>
      </trkpt>
      <trkpt lat="45.75959" lon="6.54427">
        <ele>1715.6</ele>
        <time>2026-07-12T09:12:09Z</time>
      </trkpt>
      <trkpt lat="45.75959" lon="6.54429">
        <ele>1715.6</ele>
        <time>2026-07-12T09:12:10Z</time>
      </trkpt>
      <trkpt lat="45.75959" lon="6.54433">
        <ele>1715.6</ele>
        <time>2026-07-12T09:12:11Z</time>
      </trkpt>
      <trkpt lat="45.75959" lon="6.54436">
        <ele>1717.2</ele>
        <time>2026-07-12T09:12:12Z</time>
      </trkpt>
      <trkpt lat="45.75959" lon="6.54439">
        <ele>1718.6</ele>
        <time>2026-07-12T09:12:13Z</time>
      </trkpt>
      <trkpt lat="45.75959" lon="6.54443">
        <ele>1718.6</ele>
        <time>2026-07-12T09:12:14Z</time>
      </trkpt>
      <trkpt lat="45.75959" lon="6.54446">
        <ele>1718.6</ele>
        <time>2026-07-12T09:12:15Z</time>
      </trkpt>
      <trkpt lat="45.7596" lon="6.54449">
        <ele>1718.4</ele>
        <time>2026-07-12T09:12:16Z</time>
      </trkpt>
      <trkpt lat="45.7596" lon="6.54453">
        <ele>1718.4</ele>
        <time>2026-07-12T09:12:17Z</time>
      </trkpt>
      <trkpt lat="45.7596" lon="6.54457">
        <ele>1718.4</ele>
        <time>2026-07-12T09:12:18Z</time>
      </trkpt>
      <trkpt lat="45.75961" lon="6.54459">
        <ele>1719.4</ele>
        <time>2026-07-12T09:12:19Z</time>
      </trkpt>
      <trkpt lat="45.75961" lon="6.54463">
        <ele>1719.4</ele>
        <time>2026-07-12T09:12:20Z</time>
      </trkpt>
      <trkpt lat="45.75962" lon="6.54466">
        <ele>1719.4</ele>
        <time>2026-07-12T09:12:21Z</time>
      </trkpt>
      <trkpt lat="45.75962" lon="6.54469">
        <ele>1719.4</ele>
        <time>2026-07-12T09:12:22Z</time>
      </trkpt>
      <trkpt lat="45.75963" lon="6.54473">
        <ele>1721.8</ele>
        <time>2026-07-12T09:12:23Z</time>
      </trkpt>
      <trkpt lat="45.75964" lon="6.54476">
        <ele>1721.8</ele>
        <time>2026-07-12T09:12:24Z</time>
      </trkpt>
      <trkpt lat="45.75964" lon="6.5448">
        <ele>1721.8</ele>
        <time>2026-07-12T09:12:25Z</time>
      </trkpt>
      <trkpt lat="45.75963" lon="6.54483">
        <ele>1721.8</ele>
        <time>2026-07-12T09:12:26Z</time>
      </trkpt>
      <trkpt lat="45.75963" lon="6.54487">
        <ele>1721.8</ele>
        <time>2026-07-12T09:12:27Z</time>
      </trkpt>
      <trkpt lat="45.75962" lon="6.54492">
        <ele>1723</ele>
        <time>2026-07-12T09:12:28Z</time>
      </trkpt>
      <trkpt lat="45.75962" lon="6.54496">
        <ele>1723.4</ele>
        <time>2026-07-12T09:12:29Z</time>
      </trkpt>
      <trkpt lat="45.75962" lon="6.545">
        <ele>1723.6</ele>
        <time>2026-07-12T09:12:30Z</time>
      </trkpt>
      <trkpt lat="45.75961" lon="6.54503">
        <ele>1724</ele>
        <time>2026-07-12T09:12:31Z</time>
      </trkpt>
      <trkpt lat="45.75961" lon="6.54507">
        <ele>1724.4</ele>
        <time>2026-07-12T09:12:32Z</time>
      </trkpt>
      <trkpt lat="45.75962" lon="6.54511">
        <ele>1725</ele>
        <time>2026-07-12T09:12:33Z</time>
      </trkpt>
      <trkpt lat="45.75962" lon="6.54514">
        <ele>1725.2</ele>
        <time>2026-07-12T09:12:34Z</time>
      </trkpt>
      <trkpt lat="45.75962" lon="6.54518">
        <ele>1725.2</ele>
        <time>2026-07-12T09:12:35Z</time>
      </trkpt>
      <trkpt lat="45.75961" lon="6.54522">
        <ele>1725.2</ele>
        <time>2026-07-12T09:12:36Z</time>
      </trkpt>
      <trkpt lat="45.7596" lon="6.54526">
        <ele>1725.2</ele>
        <time>2026-07-12T09:12:37Z</time>
      </trkpt>
      <trkpt lat="45.7596" lon="6.54531">
        <ele>1726.6</ele>
        <time>2026-07-12T09:12:38Z</time>
      </trkpt>
      <trkpt lat="45.7596" lon="6.54535">
        <ele>1726.6</ele>
        <time>2026-07-12T09:12:39Z</time>
      </trkpt>
      <trkpt lat="45.7596" lon="6.54539">
        <ele>1726.6</ele>
        <time>2026-07-12T09:12:40Z</time>
      </trkpt>
      <trkpt lat="45.75959" lon="6.54543">
        <ele>1726.6</ele>
        <time>2026-07-12T09:12:41Z</time>
      </trkpt>
      <trkpt lat="45.75959" lon="6.54547">
        <ele>1727.6</ele>
        <time>2026-07-12T09:12:42Z</time>
      </trkpt>
      <trkpt lat="45.75959" lon="6.5455">
        <ele>1728.2</ele>
        <time>2026-07-12T09:12:43Z</time>
      </trkpt>
      <trkpt lat="45.75959" lon="6.54553">
        <ele>1728.6</ele>
        <time>2026-07-12T09:12:44Z</time>
      </trkpt>
      <trkpt lat="45.75959" lon="6.54556">
        <ele>1729.2</ele>
        <time>2026-07-12T09:12:45Z</time>
      </trkpt>
      <trkpt lat="45.75959" lon="6.54559">
        <ele>1729.2</ele>
        <time>2026-07-12T09:12:46Z</time>
      </trkpt>
      <trkpt lat="45.75959" lon="6.54561">
        <ele>1729.2</ele>
        <time>2026-07-12T09:12:47Z</time>
      </trkpt>
      <trkpt lat="45.75959" lon="6.54564">
        <ele>1729.2</ele>
        <time>2026-07-12T09:12:48Z</time>
      </trkpt>
      <trkpt lat="45.75959" lon="6.54567">
        <ele>1729.8</ele>
        <time>2026-07-12T09:12:49Z</time>
      </trkpt>
      <trkpt lat="45.75959" lon="6.5457">
        <ele>1730</ele>
        <time>2026-07-12T09:12:50Z</time>
      </trkpt>
      <trkpt lat="45.75959" lon="6.54573">
        <ele>1730.6</ele>
        <time>2026-07-12T09:12:51Z</time>
      </trkpt>
      <trkpt lat="45.7596" lon="6.54576">
        <ele>1731</ele>
        <time>2026-07-12T09:12:52Z</time>
      </trkpt>
      <trkpt lat="45.7596" lon="6.5458">
        <ele>1731.4</ele>
        <time>2026-07-12T09:12:53Z</time>
      </trkpt>
      <trkpt lat="45.75959" lon="6.54584">
        <ele>1731.4</ele>
        <time>2026-07-12T09:12:54Z</time>
      </trkpt>
      <trkpt lat="45.75957" lon="6.54587">
        <ele>1731.4</ele>
        <time>2026-07-12T09:12:55Z</time>
      </trkpt>
      <trkpt lat="45.75956" lon="6.5459">
        <ele>1731.4</ele>
        <time>2026-07-12T09:12:56Z</time>
      </trkpt>
      <trkpt lat="45.75956" lon="6.54594">
        <ele>1732.2</ele>
        <time>2026-07-12T09:12:57Z</time>
      </trkpt>
      <trkpt lat="45.75955" lon="6.54597">
        <ele>1732.6</ele>
        <time>2026-07-12T09:12:58Z</time>
      </trkpt>
      <trkpt lat="45.75954" lon="6.54601">
        <ele>1733</ele>
        <time>2026-07-12T09:12:59Z</time>
      </trkpt>
      <trkpt lat="45.75954" lon="6.54604">
        <ele>1733.6</ele>
        <time>2026-07-12T09:13:00Z</time>
      </trkpt>
      <trkpt lat="45.75954" lon="6.54607">
        <ele>1733.8</ele>
        <time>2026-07-12T09:13:01Z</time>
      </trkpt>
      <trkpt lat="45.75953" lon="6.5461">
        <ele>1734.8</ele>
        <time>2026-07-12T09:13:02Z</time>
      </trkpt>
      <trkpt lat="45.75952" lon="6.54613">
        <ele>1734.8</ele>
        <time>2026-07-12T09:13:03Z</time>
      </trkpt>
      <trkpt lat="45.75952" lon="6.54616">
        <ele>1734.8</ele>
        <time>2026-07-12T09:13:04Z</time>
      </trkpt>
      <trkpt lat="45.75952" lon="6.54619">
        <ele>1734.4</ele>
        <time>2026-07-12T09:13:05Z</time>
      </trkpt>
      <trkpt lat="45.75951" lon="6.54621">
        <ele>1735</ele>
        <time>2026-07-12T09:13:06Z</time>
      </trkpt>
      <trkpt lat="45.75951" lon="6.54623">
        <ele>1735.2</ele>
        <time>2026-07-12T09:13:07Z</time>
      </trkpt>
      <trkpt lat="45.75951" lon="6.54626">
        <ele>1735.2</ele>
        <time>2026-07-12T09:13:08Z</time>
      </trkpt>
      <trkpt lat="45.7595" lon="6.54629">
        <ele>1735.8</ele>
        <time>2026-07-12T09:13:09Z</time>
      </trkpt>
      <trkpt lat="45.7595" lon="6.54632">
        <ele>1735.8</ele>
        <time>2026-07-12T09:13:10Z</time>
      </trkpt>
      <trkpt lat="45.7595" lon="6.54633">
        <ele>1735.8</ele>
        <time>2026-07-12T09:13:11Z</time>
      </trkpt>
      <trkpt lat="45.7595" lon="6.54635">
        <ele>1735.8</ele>
        <time>2026-07-12T09:13:12Z</time>
      </trkpt>
      <trkpt lat="45.7595" lon="6.54637">
        <ele>1736.4</ele>
        <time>2026-07-12T09:13:13Z</time>
      </trkpt>
      <trkpt lat="45.7595" lon="6.54639">
        <ele>1736.6</ele>
        <time>2026-07-12T09:13:14Z</time>
      </trkpt>
      <trkpt lat="45.7595" lon="6.5464">
        <ele>1736.6</ele>
        <time>2026-07-12T09:13:15Z</time>
      </trkpt>
      <trkpt lat="45.7595" lon="6.54652">
        <ele>1738.2</ele>
        <time>2026-07-12T09:13:22Z</time>
      </trkpt>
      <trkpt lat="45.7595" lon="6.54654">
        <ele>1738.2</ele>
        <time>2026-07-12T09:13:23Z</time>
      </trkpt>
      <trkpt lat="45.7595" lon="6.54656">
        <ele>1738.2</ele>
        <time>2026-07-12T09:13:24Z</time>
      </trkpt>
      <trkpt lat="45.7595" lon="6.54658">
        <ele>1738.4</ele>
        <time>2026-07-12T09:13:25Z</time>
      </trkpt>
      <trkpt lat="45.75949" lon="6.5466">
        <ele>1738.6</ele>
        <time>2026-07-12T09:13:26Z</time>
      </trkpt>
      <trkpt lat="45.75947" lon="6.54663">
        <ele>1739</ele>
        <time>2026-07-12T09:13:27Z</time>
      </trkpt>
      <trkpt lat="45.75946" lon="6.54666">
        <ele>1739</ele>
        <time>2026-07-12T09:13:28Z</time>
      </trkpt>
      <trkpt lat="45.75944" lon="6.54669">
        <ele>1739</ele>
        <time>2026-07-12T09:13:29Z</time>
      </trkpt>
      <trkpt lat="45.75942" lon="6.54672">
        <ele>1739</ele>
        <time>2026-07-12T09:13:30Z</time>
      </trkpt>
      <trkpt lat="45.75941" lon="6.54675">
        <ele>1740.2</ele>
        <time>2026-07-12T09:13:31Z</time>
      </trkpt>
      <trkpt lat="45.75939" lon="6.54677">
        <ele>1740.2</ele>
        <time>2026-07-12T09:13:32Z</time>
      </trkpt>
      <trkpt lat="45.75938" lon="6.5468">
        <ele>1740.2</ele>
        <time>2026-07-12T09:13:33Z</time>
      </trkpt>
      <trkpt lat="45.75936" lon="6.54683">
        <ele>1740.2</ele>
        <time>2026-07-12T09:13:34Z</time>
      </trkpt>
      <trkpt lat="45.75935" lon="6.54687">
        <ele>1740.2</ele>
        <time>2026-07-12T09:13:35Z</time>
      </trkpt>
      <trkpt lat="45.75934" lon="6.54689">
        <ele>1740.2</ele>
        <time>2026-07-12T09:13:36Z</time>
      </trkpt>
      <trkpt lat="45.75932" lon="6.54693">
        <ele>1741.4</ele>
        <time>2026-07-12T09:13:37Z</time>
      </trkpt>
      <trkpt lat="45.75931" lon="6.54697">
        <ele>1741.4</ele>
        <time>2026-07-12T09:13:38Z</time>
      </trkpt>
      <trkpt lat="45.7593" lon="6.54701">
        <ele>1741.4</ele>
        <time>2026-07-12T09:13:39Z</time>
      </trkpt>
      <trkpt lat="45.7593" lon="6.54706">
        <ele>1743.2</ele>
        <time>2026-07-12T09:13:40Z</time>
      </trkpt>
      <trkpt lat="45.7593" lon="6.5471">
        <ele>1743.2</ele>
        <time>2026-07-12T09:13:41Z</time>
      </trkpt>
      <trkpt lat="45.7593" lon="6.54715">
        <ele>1743.2</ele>
        <time>2026-07-12T09:13:42Z</time>
      </trkpt>
      <trkpt lat="45.75931" lon="6.54719">
        <ele>1742.8</ele>
        <time>2026-07-12T09:13:43Z</time>
      </trkpt>
      <trkpt lat="45.75932" lon="6.54723">
        <ele>1743.4</ele>
        <time>2026-07-12T09:13:44Z</time>
      </trkpt>
      <trkpt lat="45.75933" lon="6.54727">
        <ele>1743.4</ele>
        <time>2026-07-12T09:13:45Z</time>
      </trkpt>
      <trkpt lat="45.75935" lon="6.54731">
        <ele>1743.4</ele>
        <time>2026-07-12T09:13:46Z</time>
      </trkpt>
      <trkpt lat="45.75937" lon="6.54735">
        <ele>1743.4</ele>
        <time>2026-07-12T09:13:47Z</time>
      </trkpt>
      <trkpt lat="45.75939" lon="6.54739">
        <ele>1743.4</ele>
        <time>2026-07-12T09:13:48Z</time>
      </trkpt>
      <trkpt lat="45.75941" lon="6.54742">
        <ele>1743.4</ele>
        <time>2026-07-12T09:13:49Z</time>
      </trkpt>
      <trkpt lat="45.75943" lon="6.54746">
        <ele>1743.6</ele>
        <time>2026-07-12T09:13:50Z</time>
      </trkpt>
      <trkpt lat="45.75945" lon="6.5475">
        <ele>1743.6</ele>
        <time>2026-07-12T09:13:51Z</time>
      </trkpt>
      <trkpt lat="45.75947" lon="6.54753">
        <ele>1743.8</ele>
        <time>2026-07-12T09:13:52Z</time>
      </trkpt>
      <trkpt lat="45.75949" lon="6.54757">
        <ele>1744.2</ele>
        <time>2026-07-12T09:13:53Z</time>
      </trkpt>
      <trkpt lat="45.75951" lon="6.5476">
        <ele>1744.2</ele>
        <time>2026-07-12T09:13:54Z</time>
      </trkpt>
      <trkpt lat="45.75952" lon="6.54764">
        <ele>1744.2</ele>
        <time>2026-07-12T09:13:55Z</time>
      </trkpt>
      <trkpt lat="45.75953" lon="6.54768">
        <ele>1745.4</ele>
        <time>2026-07-12T09:13:56Z</time>
      </trkpt>
      <trkpt lat="45.75954" lon="6.54772">
        <ele>1745.4</ele>
        <time>2026-07-12T09:13:57Z</time>
      </trkpt>
      <trkpt lat="45.75955" lon="6.54776">
        <ele>1745.8</ele>
        <time>2026-07-12T09:13:58Z</time>
      </trkpt>
      <trkpt lat="45.75956" lon="6.5478">
        <ele>1746.4</ele>
        <time>2026-07-12T09:13:59Z</time>
      </trkpt>
      <trkpt lat="45.75957" lon="6.54783">
        <ele>1746.4</ele>
        <time>2026-07-12T09:14:00Z</time>
      </trkpt>
      <trkpt lat="45.75958" lon="6.54787">
        <ele>1746.4</ele>
        <time>2026-07-12T09:14:01Z</time>
      </trkpt>
      <trkpt lat="45.75959" lon="6.54791">
        <ele>1746.4</ele>
        <time>2026-07-12T09:14:02Z</time>
      </trkpt>
      <trkpt lat="45.7596" lon="6.54794">
        <ele>1746.4</ele>
        <time>2026-07-12T09:14:03Z</time>
      </trkpt>
      <trkpt lat="45.75961" lon="6.54798">
        <ele>1747.2</ele>
        <time>2026-07-12T09:14:04Z</time>
      </trkpt>
      <trkpt lat="45.75962" lon="6.54801">
        <ele>1747.6</ele>
        <time>2026-07-12T09:14:05Z</time>
      </trkpt>
      <trkpt lat="45.75964" lon="6.54805">
        <ele>1747.6</ele>
        <time>2026-07-12T09:14:06Z</time>
      </trkpt>
      <trkpt lat="45.75965" lon="6.54808">
        <ele>1748</ele>
        <time>2026-07-12T09:14:07Z</time>
      </trkpt>
      <trkpt lat="45.75967" lon="6.54812">
        <ele>1748.4</ele>
        <time>2026-07-12T09:14:08Z</time>
      </trkpt>
      <trkpt lat="45.75968" lon="6.54816">
        <ele>1748.4</ele>
        <time>2026-07-12T09:14:09Z</time>
      </trkpt>
      <trkpt lat="45.75969" lon="6.54819">
        <ele>1748.4</ele>
        <time>2026-07-12T09:14:10Z</time>
      </trkpt>
      <trkpt lat="45.75971" lon="6.54823">
        <ele>1748.4</ele>
        <time>2026-07-12T09:14:11Z</time>
      </trkpt>
      <trkpt lat="45.75972" lon="6.54827">
        <ele>1748.4</ele>
        <time>2026-07-12T09:14:12Z</time>
      </trkpt>
      <trkpt lat="45.75973" lon="6.54831">
        <ele>1749.2</ele>
        <time>2026-07-12T09:14:13Z</time>
      </trkpt>
      <trkpt lat="45.75974" lon="6.54835">
        <ele>1749.6</ele>
        <time>2026-07-12T09:14:14Z</time>
      </trkpt>
      <trkpt lat="45.75976" lon="6.54839">
        <ele>1749.6</ele>
        <time>2026-07-12T09:14:15Z</time>
      </trkpt>
      <trkpt lat="45.75977" lon="6.54843">
        <ele>1749.8</ele>
        <time>2026-07-12T09:14:16Z</time>
      </trkpt>
      <trkpt lat="45.75979" lon="6.54847">
        <ele>1750.2</ele>
        <time>2026-07-12T09:14:17Z</time>
      </trkpt>
      <trkpt lat="45.7598" lon="6.54851">
        <ele>1750.2</ele>
        <time>2026-07-12T09:14:18Z</time>
      </trkpt>
      <trkpt lat="45.75981" lon="6.54856">
        <ele>1750.2</ele>
        <time>2026-07-12T09:14:19Z</time>
      </trkpt>
      <trkpt lat="45.75983" lon="6.54861">
        <ele>1750.2</ele>
        <time>2026-07-12T09:14:20Z</time>
      </trkpt>
      <trkpt lat="45.75984" lon="6.54865">
        <ele>1751</ele>
        <time>2026-07-12T09:14:21Z</time>
      </trkpt>
      <trkpt lat="45.75985" lon="6.54871">
        <ele>1751.4</ele>
        <time>2026-07-12T09:14:22Z</time>
      </trkpt>
      <trkpt lat="45.75986" lon="6.54876">
        <ele>1752</ele>
        <time>2026-07-12T09:14:23Z</time>
      </trkpt>
      <trkpt lat="45.75986" lon="6.54881">
        <ele>1752</ele>
        <time>2026-07-12T09:14:24Z</time>
      </trkpt>
      <trkpt lat="45.75987" lon="6.54886">
        <ele>1752</ele>
        <time>2026-07-12T09:14:25Z</time>
      </trkpt>
      <trkpt lat="45.75987" lon="6.54891">
        <ele>1752</ele>
        <time>2026-07-12T09:14:26Z</time>
      </trkpt>
      <trkpt lat="45.75988" lon="6.54896">
        <ele>1752.8</ele>
        <time>2026-07-12T09:14:27Z</time>
      </trkpt>
      <trkpt lat="45.75988" lon="6.54901">
        <ele>1753.2</ele>
        <time>2026-07-12T09:14:28Z</time>
      </trkpt>
      <trkpt lat="45.75988" lon="6.54906">
        <ele>1753.2</ele>
        <time>2026-07-12T09:14:29Z</time>
      </trkpt>
      <trkpt lat="45.75988" lon="6.54911">
        <ele>1754</ele>
        <time>2026-07-12T09:14:30Z</time>
      </trkpt>
      <trkpt lat="45.75989" lon="6.54917">
        <ele>1754</ele>
        <time>2026-07-12T09:14:31Z</time>
      </trkpt>
      <trkpt lat="45.75989" lon="6.54922">
        <ele>1754.8</ele>
        <time>2026-07-12T09:14:32Z</time>
      </trkpt>
      <trkpt lat="45.75989" lon="6.54927">
        <ele>1755.2</ele>
        <time>2026-07-12T09:14:33Z</time>
      </trkpt>
      <trkpt lat="45.75988" lon="6.54932">
        <ele>1755.2</ele>
        <time>2026-07-12T09:14:34Z</time>
      </trkpt>
      <trkpt lat="45.75988" lon="6.54936">
        <ele>1755.8</ele>
        <time>2026-07-12T09:14:35Z</time>
      </trkpt>
      <trkpt lat="45.75988" lon="6.54941">
        <ele>1756.4</ele>
        <time>2026-07-12T09:14:36Z</time>
      </trkpt>
      <trkpt lat="45.75988" lon="6.54946">
        <ele>1756.4</ele>
        <time>2026-07-12T09:14:37Z</time>
      </trkpt>
      <trkpt lat="45.75988" lon="6.54951">
        <ele>1756.4</ele>
        <time>2026-07-12T09:14:38Z</time>
      </trkpt>
      <trkpt lat="45.75988" lon="6.54956">
        <ele>1757</ele>
        <time>2026-07-12T09:14:39Z</time>
      </trkpt>
      <trkpt lat="45.75988" lon="6.54961">
        <ele>1757.6</ele>
        <time>2026-07-12T09:14:40Z</time>
      </trkpt>
      <trkpt lat="45.75988" lon="6.54966">
        <ele>1757.6</ele>
        <time>2026-07-12T09:14:41Z</time>
      </trkpt>
      <trkpt lat="45.75988" lon="6.54971">
        <ele>1758</ele>
        <time>2026-07-12T09:14:42Z</time>
      </trkpt>
      <trkpt lat="45.75988" lon="6.54976">
        <ele>1758.4</ele>
        <time>2026-07-12T09:14:43Z</time>
      </trkpt>
      <trkpt lat="45.75989" lon="6.54981">
        <ele>1758.6</ele>
        <time>2026-07-12T09:14:44Z</time>
      </trkpt>
      <trkpt lat="45.75989" lon="6.54986">
        <ele>1758.6</ele>
        <time>2026-07-12T09:14:45Z</time>
      </trkpt>
      <trkpt lat="45.7599" lon="6.54991">
        <ele>1758.8</ele>
        <time>2026-07-12T09:14:46Z</time>
      </trkpt>
      <trkpt lat="45.7599" lon="6.54996">
        <ele>1759.4</ele>
        <time>2026-07-12T09:14:47Z</time>
      </trkpt>
      <trkpt lat="45.75991" lon="6.55001">
        <ele>1759.6</ele>
        <time>2026-07-12T09:14:48Z</time>
      </trkpt>
      <trkpt lat="45.75991" lon="6.55006">
        <ele>1759.8</ele>
        <time>2026-07-12T09:14:49Z</time>
      </trkpt>
      <trkpt lat="45.75992" lon="6.55011">
        <ele>1760.4</ele>
        <time>2026-07-12T09:14:50Z</time>
      </trkpt>
      <trkpt lat="45.75993" lon="6.55018">
        <ele>1760.8</ele>
        <time>2026-07-12T09:14:51Z</time>
      </trkpt>
      <trkpt lat="45.75993" lon="6.55024">
        <ele>1761.2</ele>
        <time>2026-07-12T09:14:52Z</time>
      </trkpt>
      <trkpt lat="45.75993" lon="6.5503">
        <ele>1761.4</ele>
        <time>2026-07-12T09:14:53Z</time>
      </trkpt>
      <trkpt lat="45.75993" lon="6.55036">
        <ele>1761.8</ele>
        <time>2026-07-12T09:14:54Z</time>
      </trkpt>
      <trkpt lat="45.75993" lon="6.55042">
        <ele>1762.2</ele>
        <time>2026-07-12T09:14:55Z</time>
      </trkpt>
      <trkpt lat="45.75993" lon="6.55048">
        <ele>1762.2</ele>
        <time>2026-07-12T09:14:56Z</time>
      </trkpt>
      <trkpt lat="45.75992" lon="6.55053">
        <ele>1763</ele>
        <time>2026-07-12T09:14:57Z</time>
      </trkpt>
      <trkpt lat="45.75992" lon="6.55058">
        <ele>1763</ele>
        <time>2026-07-12T09:14:58Z</time>
      </trkpt>
      <trkpt lat="45.75992" lon="6.55063">
        <ele>1763.4</ele>
        <time>2026-07-12T09:14:59Z</time>
      </trkpt>
      <trkpt lat="45.75992" lon="6.55068">
        <ele>1763.8</ele>
        <time>2026-07-12T09:15:00Z</time>
      </trkpt>
      <trkpt lat="45.75992" lon="6.55073">
        <ele>1764.2</ele>
        <time>2026-07-12T09:15:01Z</time>
      </trkpt>
      <trkpt lat="45.75992" lon="6.55077">
        <ele>1764.8</ele>
        <time>2026-07-12T09:15:02Z</time>
      </trkpt>
      <trkpt lat="45.75992" lon="6.55082">
        <ele>1764.8</ele>
        <time>2026-07-12T09:15:03Z</time>
      </trkpt>
      <trkpt lat="45.75992" lon="6.55086">
        <ele>1764.8</ele>
        <time>2026-07-12T09:15:04Z</time>
      </trkpt>
      <trkpt lat="45.75992" lon="6.55091">
        <ele>1765.4</ele>
        <time>2026-07-12T09:15:05Z</time>
      </trkpt>
      <trkpt lat="45.75992" lon="6.55095">
        <ele>1766</ele>
        <time>2026-07-12T09:15:06Z</time>
      </trkpt>
      <trkpt lat="45.75993" lon="6.55099">
        <ele>1766.4</ele>
        <time>2026-07-12T09:15:07Z</time>
      </trkpt>
      <trkpt lat="45.75993" lon="6.55103">
        <ele>1766.4</ele>
        <time>2026-07-12T09:15:08Z</time>
      </trkpt>
      <trkpt lat="45.75993" lon="6.55108">
        <ele>1767</ele>
        <time>2026-07-12T09:15:09Z</time>
      </trkpt>
      <trkpt lat="45.75994" lon="6.55112">
        <ele>1767</ele>
        <time>2026-07-12T09:15:10Z</time>
      </trkpt>
      <trkpt lat="45.75994" lon="6.55116">
        <ele>1767.4</ele>
        <time>2026-07-12T09:15:11Z</time>
      </trkpt>
      <trkpt lat="45.75994" lon="6.55121">
        <ele>1768</ele>
        <time>2026-07-12T09:15:12Z</time>
      </trkpt>
      <trkpt lat="45.75994" lon="6.55125">
        <ele>1768.2</ele>
        <time>2026-07-12T09:15:13Z</time>
      </trkpt>
      <trkpt lat="45.75994" lon="6.5513">
        <ele>1768.8</ele>
        <time>2026-07-12T09:15:14Z</time>
      </trkpt>
      <trkpt lat="45.75995" lon="6.55135">
        <ele>1769</ele>
        <time>2026-07-12T09:15:15Z</time>
      </trkpt>
      <trkpt lat="45.75995" lon="6.55139">
        <ele>1769.2</ele>
        <time>2026-07-12T09:15:16Z</time>
      </trkpt>
      <trkpt lat="45.75996" lon="6.55144">
        <ele>1769.2</ele>
        <time>2026-07-12T09:15:17Z</time>
      </trkpt>
      <trkpt lat="45.75996" lon="6.55149">
        <ele>1769.2</ele>
        <time>2026-07-12T09:15:18Z</time>
      </trkpt>
      <trkpt lat="45.75997" lon="6.55154">
        <ele>1769.2</ele>
        <time>2026-07-12T09:15:19Z</time>
      </trkpt>
      <trkpt lat="45.75998" lon="6.55159">
        <ele>1770.2</ele>
        <time>2026-07-12T09:15:20Z</time>
      </trkpt>
      <trkpt lat="45.75999" lon="6.55164">
        <ele>1770.2</ele>
        <time>2026-07-12T09:15:21Z</time>
      </trkpt>
      <trkpt lat="45.76" lon="6.55169">
        <ele>1770.2</ele>
        <time>2026-07-12T09:15:22Z</time>
      </trkpt>
      <trkpt lat="45.76002" lon="6.55173">
        <ele>1770.2</ele>
        <time>2026-07-12T09:15:23Z</time>
      </trkpt>
      <trkpt lat="45.76003" lon="6.55178">
        <ele>1771</ele>
        <time>2026-07-12T09:15:24Z</time>
      </trkpt>
      <trkpt lat="45.76005" lon="6.55182">
        <ele>1771.6</ele>
        <time>2026-07-12T09:15:25Z</time>
      </trkpt>
      <trkpt lat="45.76008" lon="6.55186">
        <ele>1771.6</ele>
        <time>2026-07-12T09:15:26Z</time>
      </trkpt>
      <trkpt lat="45.7601" lon="6.5519">
        <ele>1771.6</ele>
        <time>2026-07-12T09:15:27Z</time>
      </trkpt>
      <trkpt lat="45.76012" lon="6.55194">
        <ele>1772.2</ele>
        <time>2026-07-12T09:15:28Z</time>
      </trkpt>
      <trkpt lat="45.76015" lon="6.55197">
        <ele>1772.6</ele>
        <time>2026-07-12T09:15:29Z</time>
      </trkpt>
      <trkpt lat="45.76017" lon="6.55201">
        <ele>1773.2</ele>
        <time>2026-07-12T09:15:30Z</time>
      </trkpt>
      <trkpt lat="45.7602" lon="6.55204">
        <ele>1773.2</ele>
        <time>2026-07-12T09:15:31Z</time>
      </trkpt>
      <trkpt lat="45.76023" lon="6.55207">
        <ele>1773.2</ele>
        <time>2026-07-12T09:15:32Z</time>
      </trkpt>
      <trkpt lat="45.76025" lon="6.5521">
        <ele>1773.2</ele>
        <time>2026-07-12T09:15:33Z</time>
      </trkpt>
      <trkpt lat="45.76028" lon="6.55213">
        <ele>1773.4</ele>
        <time>2026-07-12T09:15:34Z</time>
      </trkpt>
      <trkpt lat="45.76031" lon="6.55216">
        <ele>1773.6</ele>
        <time>2026-07-12T09:15:35Z</time>
      </trkpt>
      <trkpt lat="45.76033" lon="6.55219">
        <ele>1774</ele>
        <time>2026-07-12T09:15:36Z</time>
      </trkpt>
      <trkpt lat="45.76036" lon="6.55222">
        <ele>1774.4</ele>
        <time>2026-07-12T09:15:37Z</time>
      </trkpt>
      <trkpt lat="45.76038" lon="6.55225">
        <ele>1774.6</ele>
        <time>2026-07-12T09:15:38Z</time>
      </trkpt>
      <trkpt lat="45.76041" lon="6.55228">
        <ele>1775</ele>
        <time>2026-07-12T09:15:39Z</time>
      </trkpt>
      <trkpt lat="45.76044" lon="6.5523">
        <ele>1775</ele>
        <time>2026-07-12T09:15:40Z</time>
      </trkpt>
      <trkpt lat="45.76047" lon="6.55232">
        <ele>1775</ele>
        <time>2026-07-12T09:15:41Z</time>
      </trkpt>
      <trkpt lat="45.7605" lon="6.55234">
        <ele>1775</ele>
        <time>2026-07-12T09:15:42Z</time>
      </trkpt>
      <trkpt lat="45.76054" lon="6.55234">
        <ele>1775</ele>
        <time>2026-07-12T09:15:43Z</time>
      </trkpt>
      <trkpt lat="45.76057" lon="6.55234">
        <ele>1775</ele>
        <time>2026-07-12T09:15:44Z</time>
      </trkpt>
      <trkpt lat="45.76061" lon="6.55234">
        <ele>1775</ele>
        <time>2026-07-12T09:15:45Z</time>
      </trkpt>
      <trkpt lat="45.76065" lon="6.55233">
        <ele>1775</ele>
        <time>2026-07-12T09:15:46Z</time>
      </trkpt>
      <trkpt lat="45.76068" lon="6.55231">
        <ele>1775</ele>
        <time>2026-07-12T09:15:47Z</time>
      </trkpt>
      <trkpt lat="45.76071" lon="6.55228">
        <ele>1775</ele>
        <time>2026-07-12T09:15:48Z</time>
      </trkpt>
      <trkpt lat="45.76074" lon="6.55225">
        <ele>1775</ele>
        <time>2026-07-12T09:15:49Z</time>
      </trkpt>
      <trkpt lat="45.76077" lon="6.55221">
        <ele>1776</ele>
        <time>2026-07-12T09:15:50Z</time>
      </trkpt>
      <trkpt lat="45.76079" lon="6.55218">
        <ele>1776.4</ele>
        <time>2026-07-12T09:15:51Z</time>
      </trkpt>
      <trkpt lat="45.76082" lon="6.55214">
        <ele>1776.4</ele>
        <time>2026-07-12T09:15:52Z</time>
      </trkpt>
      <trkpt lat="45.76084" lon="6.5521">
        <ele>1775.8</ele>
        <time>2026-07-12T09:15:53Z</time>
      </trkpt>
      <trkpt lat="45.76086" lon="6.55205">
        <ele>1775.8</ele>
        <time>2026-07-12T09:15:54Z</time>
      </trkpt>
      <trkpt lat="45.76088" lon="6.55201">
        <ele>1775.8</ele>
        <time>2026-07-12T09:15:55Z</time>
      </trkpt>
      <trkpt lat="45.76089" lon="6.55196">
        <ele>1776.4</ele>
        <time>2026-07-12T09:15:56Z</time>
      </trkpt>
      <trkpt lat="45.7609" lon="6.5519">
        <ele>1776.4</ele>
        <time>2026-07-12T09:15:57Z</time>
      </trkpt>
      <trkpt lat="45.76091" lon="6.55185">
        <ele>1776.4</ele>
        <time>2026-07-12T09:15:58Z</time>
      </trkpt>
      <trkpt lat="45.76092" lon="6.5518">
        <ele>1776.4</ele>
        <time>2026-07-12T09:15:59Z</time>
      </trkpt>
      <trkpt lat="45.76094" lon="6.55175">
        <ele>1776.4</ele>
        <time>2026-07-12T09:16:00Z</time>
      </trkpt>
      <trkpt lat="45.76095" lon="6.5517">
        <ele>1776.4</ele>
        <time>2026-07-12T09:16:01Z</time>
      </trkpt>
      <trkpt lat="45.76097" lon="6.55165">
        <ele>1776.4</ele>
        <time>2026-07-12T09:16:02Z</time>
      </trkpt>
      <trkpt lat="45.76099" lon="6.55159">
        <ele>1776.4</ele>
        <time>2026-07-12T09:16:03Z</time>
      </trkpt>
      <trkpt lat="45.76101" lon="6.55153">
        <ele>1776.4</ele>
        <time>2026-07-12T09:16:04Z</time>
      </trkpt>
      <trkpt lat="45.76103" lon="6.55146">
        <ele>1775.2</ele>
        <time>2026-07-12T09:16:05Z</time>
      </trkpt>
      <trkpt lat="45.76105" lon="6.5514">
        <ele>1774.8</ele>
        <time>2026-07-12T09:16:06Z</time>
      </trkpt>
      <trkpt lat="45.76108" lon="6.55133">
        <ele>1774.8</ele>
        <time>2026-07-12T09:16:07Z</time>
      </trkpt>
      <trkpt lat="45.76111" lon="6.55127">
        <ele>1774.8</ele>
        <time>2026-07-12T09:16:08Z</time>
      </trkpt>
      <trkpt lat="45.76114" lon="6.55123">
        <ele>1775.8</ele>
        <time>2026-07-12T09:16:09Z</time>
      </trkpt>
      <trkpt lat="45.76116" lon="6.55118">
        <ele>1775.8</ele>
        <time>2026-07-12T09:16:10Z</time>
      </trkpt>
      <trkpt lat="45.76119" lon="6.55113">
        <ele>1775.8</ele>
        <time>2026-07-12T09:16:11Z</time>
      </trkpt>
      <trkpt lat="45.76123" lon="6.55108">
        <ele>1775.8</ele>
        <time>2026-07-12T09:16:12Z</time>
      </trkpt>
      <trkpt lat="45.76127" lon="6.55104">
        <ele>1775.8</ele>
        <time>2026-07-12T09:16:13Z</time>
      </trkpt>
      <trkpt lat="45.7613" lon="6.55099">
        <ele>1776.8</ele>
        <time>2026-07-12T09:16:14Z</time>
      </trkpt>
      <trkpt lat="45.76134" lon="6.55095">
        <ele>1777.8</ele>
        <time>2026-07-12T09:16:15Z</time>
      </trkpt>
      <trkpt lat="45.76138" lon="6.55092">
        <ele>1778.6</ele>
        <time>2026-07-12T09:16:16Z</time>
      </trkpt>
      <trkpt lat="45.76142" lon="6.55089">
        <ele>1779.6</ele>
        <time>2026-07-12T09:16:17Z</time>
      </trkpt>
      <trkpt lat="45.76145" lon="6.55087">
        <ele>1780</ele>
        <time>2026-07-12T09:16:18Z</time>
      </trkpt>
      <trkpt lat="45.76149" lon="6.55085">
        <ele>1780</ele>
        <time>2026-07-12T09:16:19Z</time>
      </trkpt>
      <trkpt lat="45.76152" lon="6.55082">
        <ele>1780</ele>
        <time>2026-07-12T09:16:20Z</time>
      </trkpt>
      <trkpt lat="45.76155" lon="6.55079">
        <ele>1780</ele>
        <time>2026-07-12T09:16:21Z</time>
      </trkpt>
      <trkpt lat="45.76159" lon="6.55076">
        <ele>1780.8</ele>
        <time>2026-07-12T09:16:22Z</time>
      </trkpt>
      <trkpt lat="45.76162" lon="6.55072">
        <ele>1781.2</ele>
        <time>2026-07-12T09:16:23Z</time>
      </trkpt>
      <trkpt lat="45.76165" lon="6.55067">
        <ele>1782.2</ele>
        <time>2026-07-12T09:16:24Z</time>
      </trkpt>
      <trkpt lat="45.76168" lon="6.55063">
        <ele>1782.2</ele>
        <time>2026-07-12T09:16:25Z</time>
      </trkpt>
      <trkpt lat="45.76171" lon="6.55058">
        <ele>1782.2</ele>
        <time>2026-07-12T09:16:26Z</time>
      </trkpt>
      <trkpt lat="45.76174" lon="6.55053">
        <ele>1782.2</ele>
        <time>2026-07-12T09:16:27Z</time>
      </trkpt>
      <trkpt lat="45.76177" lon="6.55048">
        <ele>1783.4</ele>
        <time>2026-07-12T09:16:28Z</time>
      </trkpt>
      <trkpt lat="45.76179" lon="6.55043">
        <ele>1783.6</ele>
        <time>2026-07-12T09:16:29Z</time>
      </trkpt>
      <trkpt lat="45.76182" lon="6.55037">
        <ele>1783.6</ele>
        <time>2026-07-12T09:16:30Z</time>
      </trkpt>
      <trkpt lat="45.76185" lon="6.55031">
        <ele>1783.6</ele>
        <time>2026-07-12T09:16:31Z</time>
      </trkpt>
      <trkpt lat="45.76187" lon="6.55026">
        <ele>1783.6</ele>
        <time>2026-07-12T09:16:32Z</time>
      </trkpt>
      <trkpt lat="45.76189" lon="6.5502">
        <ele>1783.6</ele>
        <time>2026-07-12T09:16:33Z</time>
      </trkpt>
      <trkpt lat="45.76191" lon="6.55014">
        <ele>1784.4</ele>
        <time>2026-07-12T09:16:34Z</time>
      </trkpt>
      <trkpt lat="45.76193" lon="6.55008">
        <ele>1785.4</ele>
        <time>2026-07-12T09:16:35Z</time>
      </trkpt>
      <trkpt lat="45.76195" lon="6.55002">
        <ele>1785.6</ele>
        <time>2026-07-12T09:16:36Z</time>
      </trkpt>
      <trkpt lat="45.76197" lon="6.54997">
        <ele>1785.6</ele>
        <time>2026-07-12T09:16:37Z</time>
      </trkpt>
      <trkpt lat="45.76199" lon="6.54991">
        <ele>1785.6</ele>
        <time>2026-07-12T09:16:38Z</time>
      </trkpt>
      <trkpt lat="45.76201" lon="6.54984">
        <ele>1785.6</ele>
        <time>2026-07-12T09:16:39Z</time>
      </trkpt>
      <trkpt lat="45.76203" lon="6.54978">
        <ele>1787.8</ele>
        <time>2026-07-12T09:16:40Z</time>
      </trkpt>
      <trkpt lat="45.76205" lon="6.54972">
        <ele>1787.8</ele>
        <time>2026-07-12T09:16:41Z</time>
      </trkpt>
      <trkpt lat="45.76208" lon="6.54966">
        <ele>1787.8</ele>
        <time>2026-07-12T09:16:42Z</time>
      </trkpt>
      <trkpt lat="45.7621" lon="6.54959">
        <ele>1786.8</ele>
        <time>2026-07-12T09:16:43Z</time>
      </trkpt>
      <trkpt lat="45.76212" lon="6.54952">
        <ele>1786.4</ele>
        <time>2026-07-12T09:16:44Z</time>
      </trkpt>
      <trkpt lat="45.76214" lon="6.54946">
        <ele>1786.4</ele>
        <time>2026-07-12T09:16:45Z</time>
      </trkpt>
      <trkpt lat="45.76216" lon="6.54939">
        <ele>1786.4</ele>
        <time>2026-07-12T09:16:46Z</time>
      </trkpt>
      <trkpt lat="45.76218" lon="6.54933">
        <ele>1787</ele>
        <time>2026-07-12T09:16:47Z</time>
      </trkpt>
      <trkpt lat="45.76219" lon="6.54926">
        <ele>1788</ele>
        <time>2026-07-12T09:16:48Z</time>
      </trkpt>
      <trkpt lat="45.76221" lon="6.5492">
        <ele>1789.2</ele>
        <time>2026-07-12T09:16:49Z</time>
      </trkpt>
      <trkpt lat="45.76223" lon="6.54913">
        <ele>1789.2</ele>
        <time>2026-07-12T09:16:50Z</time>
      </trkpt>
      <trkpt lat="45.76225" lon="6.54907">
        <ele>1789.2</ele>
        <time>2026-07-12T09:16:51Z</time>
      </trkpt>
      <trkpt lat="45.76227" lon="6.549">
        <ele>1789.2</ele>
        <time>2026-07-12T09:16:52Z</time>
      </trkpt>
      <trkpt lat="45.76228" lon="6.54893">
        <ele>1789.2</ele>
        <time>2026-07-12T09:16:53Z</time>
      </trkpt>
      <trkpt lat="45.7623" lon="6.54887">
        <ele>1789.2</ele>
        <time>2026-07-12T09:16:54Z</time>
      </trkpt>
      <trkpt lat="45.76232" lon="6.54881">
        <ele>1789.2</ele>
        <time>2026-07-12T09:16:55Z</time>
      </trkpt>
      <trkpt lat="45.76233" lon="6.54875">
        <ele>1791.6</ele>
        <time>2026-07-12T09:16:56Z</time>
      </trkpt>
      <trkpt lat="45.76234" lon="6.54869">
        <ele>1791.6</ele>
        <time>2026-07-12T09:16:57Z</time>
      </trkpt>
      <trkpt lat="45.76235" lon="6.54864">
        <ele>1792.6</ele>
        <time>2026-07-12T09:16:58Z</time>
      </trkpt>
      <trkpt lat="45.76237" lon="6.54859">
        <ele>1792.6</ele>
        <time>2026-07-12T09:16:59Z</time>
      </trkpt>
      <trkpt lat="45.76238" lon="6.54855">
        <ele>1792.6</ele>
        <time>2026-07-12T09:17:00Z</time>
      </trkpt>
      <trkpt lat="45.76239" lon="6.54851">
        <ele>1792.6</ele>
        <time>2026-07-12T09:17:01Z</time>
      </trkpt>
      <trkpt lat="45.76241" lon="6.54847">
        <ele>1793</ele>
        <time>2026-07-12T09:17:02Z</time>
      </trkpt>
      <trkpt lat="45.76242" lon="6.54843">
        <ele>1794</ele>
        <time>2026-07-12T09:17:03Z</time>
      </trkpt>
      <trkpt lat="45.76242" lon="6.54839">
        <ele>1794</ele>
        <time>2026-07-12T09:17:04Z</time>
      </trkpt>
      <trkpt lat="45.76243" lon="6.54834">
        <ele>1794</ele>
        <time>2026-07-12T09:17:05Z</time>
      </trkpt>
      <trkpt lat="45.76244" lon="6.54829">
        <ele>1794</ele>
        <time>2026-07-12T09:17:06Z</time>
      </trkpt>
      <trkpt lat="45.76245" lon="6.54824">
        <ele>1794</ele>
        <time>2026-07-12T09:17:07Z</time>
      </trkpt>
      <trkpt lat="45.76246" lon="6.5482">
        <ele>1794</ele>
        <time>2026-07-12T09:17:08Z</time>
      </trkpt>
      <trkpt lat="45.76248" lon="6.54815">
        <ele>1794</ele>
        <time>2026-07-12T09:17:09Z</time>
      </trkpt>
      <trkpt lat="45.7625" lon="6.54811">
        <ele>1794</ele>
        <time>2026-07-12T09:17:10Z</time>
      </trkpt>
      <trkpt lat="45.76252" lon="6.54807">
        <ele>1794.2</ele>
        <time>2026-07-12T09:17:11Z</time>
      </trkpt>
      <trkpt lat="45.76254" lon="6.54802">
        <ele>1794.4</ele>
        <time>2026-07-12T09:17:12Z</time>
      </trkpt>
      <trkpt lat="45.76256" lon="6.54798">
        <ele>1794.6</ele>
        <time>2026-07-12T09:17:13Z</time>
      </trkpt>
      <trkpt lat="45.76258" lon="6.54793">
        <ele>1795.2</ele>
        <time>2026-07-12T09:17:14Z</time>
      </trkpt>
      <trkpt lat="45.7626" lon="6.54788">
        <ele>1795.2</ele>
        <time>2026-07-12T09:17:15Z</time>
      </trkpt>
      <trkpt lat="45.76262" lon="6.54783">
        <ele>1795.2</ele>
        <time>2026-07-12T09:17:16Z</time>
      </trkpt>
      <trkpt lat="45.76264" lon="6.54779">
        <ele>1795.2</ele>
        <time>2026-07-12T09:17:17Z</time>
      </trkpt>
      <trkpt lat="45.76266" lon="6.54774">
        <ele>1795.2</ele>
        <time>2026-07-12T09:17:18Z</time>
      </trkpt>
      <trkpt lat="45.76268" lon="6.5477">
        <ele>1795.8</ele>
        <time>2026-07-12T09:17:19Z</time>
      </trkpt>
      <trkpt lat="45.7627" lon="6.54766">
        <ele>1796.2</ele>
        <time>2026-07-12T09:17:20Z</time>
      </trkpt>
      <trkpt lat="45.76272" lon="6.54762">
        <ele>1796.2</ele>
        <time>2026-07-12T09:17:21Z</time>
      </trkpt>
      <trkpt lat="45.76275" lon="6.54758">
        <ele>1796.2</ele>
        <time>2026-07-12T09:17:22Z</time>
      </trkpt>
      <trkpt lat="45.76277" lon="6.54754">
        <ele>1796.2</ele>
        <time>2026-07-12T09:17:23Z</time>
      </trkpt>
      <trkpt lat="45.7628" lon="6.54751">
        <ele>1796.2</ele>
        <time>2026-07-12T09:17:24Z</time>
      </trkpt>
      <trkpt lat="45.76283" lon="6.54748">
        <ele>1796.2</ele>
        <time>2026-07-12T09:17:25Z</time>
      </trkpt>
      <trkpt lat="45.76286" lon="6.54746">
        <ele>1797.2</ele>
        <time>2026-07-12T09:17:26Z</time>
      </trkpt>
      <trkpt lat="45.76289" lon="6.54745">
        <ele>1798.2</ele>
        <time>2026-07-12T09:17:27Z</time>
      </trkpt>
      <trkpt lat="45.76292" lon="6.54745">
        <ele>1798.2</ele>
        <time>2026-07-12T09:17:28Z</time>
      </trkpt>
      <trkpt lat="45.76295" lon="6.54746">
        <ele>1798.2</ele>
        <time>2026-07-12T09:17:29Z</time>
      </trkpt>
      <trkpt lat="45.76299" lon="6.54748">
        <ele>1798.2</ele>
        <time>2026-07-12T09:17:30Z</time>
      </trkpt>
      <trkpt lat="45.76302" lon="6.54749">
        <ele>1798.2</ele>
        <time>2026-07-12T09:17:31Z</time>
      </trkpt>
      <trkpt lat="45.76305" lon="6.5475">
        <ele>1798.2</ele>
        <time>2026-07-12T09:17:32Z</time>
      </trkpt>
      <trkpt lat="45.76308" lon="6.54751">
        <ele>1798.2</ele>
        <time>2026-07-12T09:17:33Z</time>
      </trkpt>
      <trkpt lat="45.76312" lon="6.54752">
        <ele>1799.8</ele>
        <time>2026-07-12T09:17:34Z</time>
      </trkpt>
      <trkpt lat="45.76315" lon="6.54753">
        <ele>1800</ele>
        <time>2026-07-12T09:17:35Z</time>
      </trkpt>
      <trkpt lat="45.76319" lon="6.54754">
        <ele>1800</ele>
        <time>2026-07-12T09:17:36Z</time>
      </trkpt>
      <trkpt lat="45.76322" lon="6.54755">
        <ele>1800</ele>
        <time>2026-07-12T09:17:37Z</time>
      </trkpt>
      <trkpt lat="45.76326" lon="6.54755">
        <ele>1799.8</ele>
        <time>2026-07-12T09:17:38Z</time>
      </trkpt>
      <trkpt lat="45.76329" lon="6.54755">
        <ele>1799.4</ele>
        <time>2026-07-12T09:17:39Z</time>
      </trkpt>
      <trkpt lat="45.76333" lon="6.54755">
        <ele>1799.4</ele>
        <time>2026-07-12T09:17:40Z</time>
      </trkpt>
      <trkpt lat="45.76336" lon="6.54755">
        <ele>1799.4</ele>
        <time>2026-07-12T09:17:41Z</time>
      </trkpt>
      <trkpt lat="45.7634" lon="6.54755">
        <ele>1799.4</ele>
        <time>2026-07-12T09:17:42Z</time>
      </trkpt>
      <trkpt lat="45.76344" lon="6.54756">
        <ele>1799.4</ele>
        <time>2026-07-12T09:17:43Z</time>
      </trkpt>
      <trkpt lat="45.76347" lon="6.54758">
        <ele>1800.2</ele>
        <time>2026-07-12T09:17:44Z</time>
      </trkpt>
      <trkpt lat="45.7635" lon="6.54759">
        <ele>1800.2</ele>
        <time>2026-07-12T09:17:45Z</time>
      </trkpt>
      <trkpt lat="45.76354" lon="6.54761">
        <ele>1800.2</ele>
        <time>2026-07-12T09:17:46Z</time>
      </trkpt>
      <trkpt lat="45.76358" lon="6.54763">
        <ele>1800.2</ele>
        <time>2026-07-12T09:17:47Z</time>
      </trkpt>
      <trkpt lat="45.76361" lon="6.54765">
        <ele>1800.2</ele>
        <time>2026-07-12T09:17:48Z</time>
      </trkpt>
      <trkpt lat="45.76364" lon="6.54767">
        <ele>1800.2</ele>
        <time>2026-07-12T09:17:49Z</time>
      </trkpt>
      <trkpt lat="45.76368" lon="6.54769">
        <ele>1800.2</ele>
        <time>2026-07-12T09:17:50Z</time>
      </trkpt>
      <trkpt lat="45.76372" lon="6.5477">
        <ele>1801.2</ele>
        <time>2026-07-12T09:17:51Z</time>
      </trkpt>
      <trkpt lat="45.76375" lon="6.54772">
        <ele>1801.6</ele>
        <time>2026-07-12T09:17:52Z</time>
      </trkpt>
      <trkpt lat="45.76379" lon="6.54773">
        <ele>1801.6</ele>
        <time>2026-07-12T09:17:53Z</time>
      </trkpt>
      <trkpt lat="45.76382" lon="6.54775">
        <ele>1801.6</ele>
        <time>2026-07-12T09:17:54Z</time>
      </trkpt>
      <trkpt lat="45.76386" lon="6.54776">
        <ele>1801.6</ele>
        <time>2026-07-12T09:17:55Z</time>
      </trkpt>
      <trkpt lat="45.76389" lon="6.54777">
        <ele>1801.6</ele>
        <time>2026-07-12T09:17:56Z</time>
      </trkpt>
      <trkpt lat="45.76392" lon="6.54778">
        <ele>1802.4</ele>
        <time>2026-07-12T09:17:57Z</time>
      </trkpt>
      <trkpt lat="45.76395" lon="6.54778">
        <ele>1802.4</ele>
        <time>2026-07-12T09:17:58Z</time>
      </trkpt>
      <trkpt lat="45.76398" lon="6.54779">
        <ele>1802.4</ele>
        <time>2026-07-12T09:17:59Z</time>
      </trkpt>
      <trkpt lat="45.76401" lon="6.5478">
        <ele>1802.4</ele>
        <time>2026-07-12T09:18:00Z</time>
      </trkpt>
      <trkpt lat="45.76404" lon="6.54781">
        <ele>1802.4</ele>
        <time>2026-07-12T09:18:01Z</time>
      </trkpt>
      <trkpt lat="45.76407" lon="6.54782">
        <ele>1802.4</ele>
        <time>2026-07-12T09:18:02Z</time>
      </trkpt>
      <trkpt lat="45.76411" lon="6.54783">
        <ele>1803.8</ele>
        <time>2026-07-12T09:18:03Z</time>
      </trkpt>
      <trkpt lat="45.76414" lon="6.54784">
        <ele>1803.8</ele>
        <time>2026-07-12T09:18:04Z</time>
      </trkpt>
      <trkpt lat="45.76417" lon="6.54785">
        <ele>1803.8</ele>
        <time>2026-07-12T09:18:05Z</time>
      </trkpt>
      <trkpt lat="45.7642" lon="6.54787">
        <ele>1803.8</ele>
        <time>2026-07-12T09:18:06Z</time>
      </trkpt>
      <trkpt lat="45.76423" lon="6.54789">
        <ele>1805.4</ele>
        <time>2026-07-12T09:18:07Z</time>
      </trkpt>
      <trkpt lat="45.76426" lon="6.54791">
        <ele>1805.4</ele>
        <time>2026-07-12T09:18:08Z</time>
      </trkpt>
      <trkpt lat="45.76429" lon="6.54793">
        <ele>1805.4</ele>
        <time>2026-07-12T09:18:09Z</time>
      </trkpt>
      <trkpt lat="45.76432" lon="6.54794">
        <ele>1804.6</ele>
        <time>2026-07-12T09:18:10Z</time>
      </trkpt>
      <trkpt lat="45.76435" lon="6.54795">
        <ele>1804.6</ele>
        <time>2026-07-12T09:18:11Z</time>
      </trkpt>
      <trkpt lat="45.76439" lon="6.54797">
        <ele>1804.6</ele>
        <time>2026-07-12T09:18:12Z</time>
      </trkpt>
      <trkpt lat="45.76442" lon="6.54798">
        <ele>1805.6</ele>
        <time>2026-07-12T09:18:13Z</time>
      </trkpt>
      <trkpt lat="45.76445" lon="6.54799">
        <ele>1805.6</ele>
        <time>2026-07-12T09:18:14Z</time>
      </trkpt>
      <trkpt lat="45.76448" lon="6.54801">
        <ele>1805.6</ele>
        <time>2026-07-12T09:18:15Z</time>
      </trkpt>
      <trkpt lat="45.76451" lon="6.54802">
        <ele>1805.6</ele>
        <time>2026-07-12T09:18:16Z</time>
      </trkpt>
      <trkpt lat="45.76455" lon="6.54803">
        <ele>1806.6</ele>
        <time>2026-07-12T09:18:17Z</time>
      </trkpt>
      <trkpt lat="45.76458" lon="6.54804">
        <ele>1806.8</ele>
        <time>2026-07-12T09:18:18Z</time>
      </trkpt>
      <trkpt lat="45.76461" lon="6.54806">
        <ele>1807.6</ele>
        <time>2026-07-12T09:18:19Z</time>
      </trkpt>
      <trkpt lat="45.76465" lon="6.54807">
        <ele>1807.8</ele>
        <time>2026-07-12T09:18:20Z</time>
      </trkpt>
      <trkpt lat="45.76468" lon="6.54808">
        <ele>1807.8</ele>
        <time>2026-07-12T09:18:21Z</time>
      </trkpt>
      <trkpt lat="45.76471" lon="6.54809">
        <ele>1807.8</ele>
        <time>2026-07-12T09:18:22Z</time>
      </trkpt>
      <trkpt lat="45.76475" lon="6.5481">
        <ele>1807.8</ele>
        <time>2026-07-12T09:18:23Z</time>
      </trkpt>
      <trkpt lat="45.76478" lon="6.54812">
        <ele>1807.8</ele>
        <time>2026-07-12T09:18:24Z</time>
      </trkpt>
      <trkpt lat="45.76482" lon="6.54813">
        <ele>1807.8</ele>
        <time>2026-07-12T09:18:25Z</time>
      </trkpt>
      <trkpt lat="45.76485" lon="6.54815">
        <ele>1808.8</ele>
        <time>2026-07-12T09:18:26Z</time>
      </trkpt>
      <trkpt lat="45.76489" lon="6.54816">
        <ele>1809.8</ele>
        <time>2026-07-12T09:18:27Z</time>
      </trkpt>
      <trkpt lat="45.76492" lon="6.54817">
        <ele>1809.8</ele>
        <time>2026-07-12T09:18:28Z</time>
      </trkpt>
      <trkpt lat="45.76496" lon="6.54818">
        <ele>1809.8</ele>
        <time>2026-07-12T09:18:29Z</time>
      </trkpt>
      <trkpt lat="45.76499" lon="6.5482">
        <ele>1809.8</ele>
        <time>2026-07-12T09:18:30Z</time>
      </trkpt>
      <trkpt lat="45.76502" lon="6.54821">
        <ele>1810.8</ele>
        <time>2026-07-12T09:18:31Z</time>
      </trkpt>
      <trkpt lat="45.76506" lon="6.54823">
        <ele>1810.8</ele>
        <time>2026-07-12T09:18:32Z</time>
      </trkpt>
      <trkpt lat="45.76509" lon="6.54824">
        <ele>1810.8</ele>
        <time>2026-07-12T09:18:33Z</time>
      </trkpt>
      <trkpt lat="45.76513" lon="6.54826">
        <ele>1810.8</ele>
        <time>2026-07-12T09:18:34Z</time>
      </trkpt>
      <trkpt lat="45.76516" lon="6.54828">
        <ele>1811</ele>
        <time>2026-07-12T09:18:35Z</time>
      </trkpt>
      <trkpt lat="45.76519" lon="6.5483">
        <ele>1812</ele>
        <time>2026-07-12T09:18:36Z</time>
      </trkpt>
      <trkpt lat="45.76522" lon="6.54833">
        <ele>1812</ele>
        <time>2026-07-12T09:18:37Z</time>
      </trkpt>
      <trkpt lat="45.76526" lon="6.54835">
        <ele>1812</ele>
        <time>2026-07-12T09:18:38Z</time>
      </trkpt>
      <trkpt lat="45.76529" lon="6.54837">
        <ele>1812</ele>
        <time>2026-07-12T09:18:39Z</time>
      </trkpt>
      <trkpt lat="45.76533" lon="6.54838">
        <ele>1812</ele>
        <time>2026-07-12T09:18:40Z</time>
      </trkpt>
      <trkpt lat="45.76536" lon="6.5484">
        <ele>1813</ele>
        <time>2026-07-12T09:18:41Z</time>
      </trkpt>
      <trkpt lat="45.7654" lon="6.54841">
        <ele>1813.2</ele>
        <time>2026-07-12T09:18:42Z</time>
      </trkpt>
      <trkpt lat="45.76543" lon="6.54843">
        <ele>1813.2</ele>
        <time>2026-07-12T09:18:43Z</time>
      </trkpt>
      <trkpt lat="45.76547" lon="6.54845">
        <ele>1813.2</ele>
        <time>2026-07-12T09:18:44Z</time>
      </trkpt>
      <trkpt lat="45.7655" lon="6.54846">
        <ele>1813.2</ele>
        <time>2026-07-12T09:18:45Z</time>
      </trkpt>
      <trkpt lat="45.76554" lon="6.54848">
        <ele>1813.2</ele>
        <time>2026-07-12T09:18:46Z</time>
      </trkpt>
      <trkpt lat="45.76557" lon="6.54849">
        <ele>1813.2</ele>
        <time>2026-07-12T09:18:47Z</time>
      </trkpt>
      <trkpt lat="45.76561" lon="6.54851">
        <ele>1816.6</ele>
        <time>2026-07-12T09:18:48Z</time>
      </trkpt>
      <trkpt lat="45.76564" lon="6.54852">
        <ele>1816.6</ele>
        <time>2026-07-12T09:18:49Z</time>
      </trkpt>
      <trkpt lat="45.76568" lon="6.54853">
        <ele>1816.6</ele>
        <time>2026-07-12T09:18:50Z</time>
      </trkpt>
      <trkpt lat="45.76572" lon="6.54854">
        <ele>1816.6</ele>
        <time>2026-07-12T09:18:51Z</time>
      </trkpt>
      <trkpt lat="45.76576" lon="6.54855">
        <ele>1817.2</ele>
        <time>2026-07-12T09:18:52Z</time>
      </trkpt>
      <trkpt lat="45.76579" lon="6.54856">
        <ele>1817.4</ele>
        <time>2026-07-12T09:18:53Z</time>
      </trkpt>
      <trkpt lat="45.76583" lon="6.54857">
        <ele>1817.8</ele>
        <time>2026-07-12T09:18:54Z</time>
      </trkpt>
      <trkpt lat="45.76587" lon="6.54857">
        <ele>1817.8</ele>
        <time>2026-07-12T09:18:55Z</time>
      </trkpt>
      <trkpt lat="45.7659" lon="6.54858">
        <ele>1817.8</ele>
        <time>2026-07-12T09:18:56Z</time>
      </trkpt>
      <trkpt lat="45.76594" lon="6.54858">
        <ele>1817.8</ele>
        <time>2026-07-12T09:18:57Z</time>
      </trkpt>
      <trkpt lat="45.76598" lon="6.54858">
        <ele>1819.8</ele>
        <time>2026-07-12T09:18:58Z</time>
      </trkpt>
      <trkpt lat="45.76602" lon="6.54858">
        <ele>1819.8</ele>
        <time>2026-07-12T09:18:59Z</time>
      </trkpt>
      <trkpt lat="45.76605" lon="6.54857">
        <ele>1819.8</ele>
        <time>2026-07-12T09:19:00Z</time>
      </trkpt>
      <trkpt lat="45.76609" lon="6.54856">
        <ele>1819.6</ele>
        <time>2026-07-12T09:19:01Z</time>
      </trkpt>
      <trkpt lat="45.76613" lon="6.54855">
        <ele>1819.6</ele>
        <time>2026-07-12T09:19:02Z</time>
      </trkpt>
      <trkpt lat="45.76616" lon="6.54854">
        <ele>1819.6</ele>
        <time>2026-07-12T09:19:03Z</time>
      </trkpt>
      <trkpt lat="45.7662" lon="6.54852">
        <ele>1822.4</ele>
        <time>2026-07-12T09:19:04Z</time>
      </trkpt>
      <trkpt lat="45.76623" lon="6.54851">
        <ele>1822.4</ele>
        <time>2026-07-12T09:19:05Z</time>
      </trkpt>
      <trkpt lat="45.76626" lon="6.54848">
        <ele>1822.4</ele>
        <time>2026-07-12T09:19:06Z</time>
      </trkpt>
      <trkpt lat="45.76629" lon="6.54846">
        <ele>1822.4</ele>
        <time>2026-07-12T09:19:07Z</time>
      </trkpt>
      <trkpt lat="45.76632" lon="6.54843">
        <ele>1823.8</ele>
        <time>2026-07-12T09:19:08Z</time>
      </trkpt>
      <trkpt lat="45.76635" lon="6.5484">
        <ele>1823.8</ele>
        <time>2026-07-12T09:19:09Z</time>
      </trkpt>
      <trkpt lat="45.76638" lon="6.54837">
        <ele>1823.8</ele>
        <time>2026-07-12T09:19:10Z</time>
      </trkpt>
      <trkpt lat="45.76641" lon="6.54834">
        <ele>1823.8</ele>
        <time>2026-07-12T09:19:11Z</time>
      </trkpt>
      <trkpt lat="45.76644" lon="6.54831">
        <ele>1825.4</ele>
        <time>2026-07-12T09:19:12Z</time>
      </trkpt>
      <trkpt lat="45.76646" lon="6.54828">
        <ele>1826</ele>
        <time>2026-07-12T09:19:13Z</time>
      </trkpt>
      <trkpt lat="45.76649" lon="6.54825">
        <ele>1826</ele>
        <time>2026-07-12T09:19:14Z</time>
      </trkpt>
      <trkpt lat="45.76652" lon="6.54822">
        <ele>1826</ele>
        <time>2026-07-12T09:19:15Z</time>
      </trkpt>
      <trkpt lat="45.76655" lon="6.54819">
        <ele>1825.2</ele>
        <time>2026-07-12T09:19:16Z</time>
      </trkpt>
      <trkpt lat="45.76658" lon="6.54816">
        <ele>1825.2</ele>
        <time>2026-07-12T09:19:17Z</time>
      </trkpt>
      <trkpt lat="45.76662" lon="6.54813">
        <ele>1826.4</ele>
        <time>2026-07-12T09:19:18Z</time>
      </trkpt>
      <trkpt lat="45.76664" lon="6.5481">
        <ele>1827</ele>
        <time>2026-07-12T09:19:19Z</time>
      </trkpt>
      <trkpt lat="45.76668" lon="6.54807">
        <ele>1827</ele>
        <time>2026-07-12T09:19:20Z</time>
      </trkpt>
      <trkpt lat="45.76671" lon="6.54804">
        <ele>1827</ele>
        <time>2026-07-12T09:19:21Z</time>
      </trkpt>
      <trkpt lat="45.76674" lon="6.54802">
        <ele>1827</ele>
        <time>2026-07-12T09:19:22Z</time>
      </trkpt>
      <trkpt lat="45.76677" lon="6.54799">
        <ele>1827.8</ele>
        <time>2026-07-12T09:19:23Z</time>
      </trkpt>
      <trkpt lat="45.76681" lon="6.54796">
        <ele>1828.2</ele>
        <time>2026-07-12T09:19:24Z</time>
      </trkpt>
      <trkpt lat="45.76684" lon="6.54794">
        <ele>1828.2</ele>
        <time>2026-07-12T09:19:25Z</time>
      </trkpt>
      <trkpt lat="45.76687" lon="6.54791">
        <ele>1828.2</ele>
        <time>2026-07-12T09:19:26Z</time>
      </trkpt>
      <trkpt lat="45.7669" lon="6.54789">
        <ele>1828</ele>
        <time>2026-07-12T09:19:27Z</time>
      </trkpt>
      <trkpt lat="45.76693" lon="6.54787">
        <ele>1828.6</ele>
        <time>2026-07-12T09:19:28Z</time>
      </trkpt>
      <trkpt lat="45.76696" lon="6.54786">
        <ele>1828.6</ele>
        <time>2026-07-12T09:19:29Z</time>
      </trkpt>
      <trkpt lat="45.76699" lon="6.54785">
        <ele>1828.6</ele>
        <time>2026-07-12T09:19:30Z</time>
      </trkpt>
      <trkpt lat="45.76702" lon="6.54784">
        <ele>1828.6</ele>
        <time>2026-07-12T09:19:31Z</time>
      </trkpt>
      <trkpt lat="45.76706" lon="6.54782">
        <ele>1830.2</ele>
        <time>2026-07-12T09:19:32Z</time>
      </trkpt>
      <trkpt lat="45.76709" lon="6.54781">
        <ele>1831.2</ele>
        <time>2026-07-12T09:19:33Z</time>
      </trkpt>
      <trkpt lat="45.76712" lon="6.54781">
        <ele>1831.2</ele>
        <time>2026-07-12T09:19:34Z</time>
      </trkpt>
      <trkpt lat="45.76716" lon="6.5478">
        <ele>1831.2</ele>
        <time>2026-07-12T09:19:35Z</time>
      </trkpt>
      <trkpt lat="45.76719" lon="6.54779">
        <ele>1831.2</ele>
        <time>2026-07-12T09:19:36Z</time>
      </trkpt>
      <trkpt lat="45.76722" lon="6.54778">
        <ele>1832.2</ele>
        <time>2026-07-12T09:19:37Z</time>
      </trkpt>
      <trkpt lat="45.76725" lon="6.54778">
        <ele>1832.8</ele>
        <time>2026-07-12T09:19:38Z</time>
      </trkpt>
      <trkpt lat="45.76728" lon="6.54777">
        <ele>1832.8</ele>
        <time>2026-07-12T09:19:39Z</time>
      </trkpt>
      <trkpt lat="45.76731" lon="6.54776">
        <ele>1833.6</ele>
        <time>2026-07-12T09:19:40Z</time>
      </trkpt>
      <trkpt lat="45.76734" lon="6.54776">
        <ele>1835.4</ele>
        <time>2026-07-12T09:19:41Z</time>
      </trkpt>
      <trkpt lat="45.76737" lon="6.54775">
        <ele>1835.4</ele>
        <time>2026-07-12T09:19:42Z</time>
      </trkpt>
      <trkpt lat="45.7674" lon="6.54774">
        <ele>1835.4</ele>
        <time>2026-07-12T09:19:43Z</time>
      </trkpt>
      <trkpt lat="45.76742" lon="6.54773">
        <ele>1834.6</ele>
        <time>2026-07-12T09:19:44Z</time>
      </trkpt>
      <trkpt lat="45.76745" lon="6.54771">
        <ele>1834.6</ele>
        <time>2026-07-12T09:19:45Z</time>
      </trkpt>
      <trkpt lat="45.76747" lon="6.54769">
        <ele>1835.8</ele>
        <time>2026-07-12T09:19:46Z</time>
      </trkpt>
      <trkpt lat="45.7675" lon="6.54766">
        <ele>1837.4</ele>
        <time>2026-07-12T09:19:47Z</time>
      </trkpt>
      <trkpt lat="45.76752" lon="6.54763">
        <ele>1837.4</ele>
        <time>2026-07-12T09:19:48Z</time>
      </trkpt>
      <trkpt lat="45.76754" lon="6.5476">
        <ele>1838</ele>
        <time>2026-07-12T09:19:49Z</time>
      </trkpt>
      <trkpt lat="45.76757" lon="6.54758">
        <ele>1838.4</ele>
        <time>2026-07-12T09:19:50Z</time>
      </trkpt>
      <trkpt lat="45.76759" lon="6.54756">
        <ele>1838.4</ele>
        <time>2026-07-12T09:19:51Z</time>
      </trkpt>
      <trkpt lat="45.76761" lon="6.54753">
        <ele>1838.4</ele>
        <time>2026-07-12T09:19:52Z</time>
      </trkpt>
      <trkpt lat="45.76764" lon="6.54751">
        <ele>1838.4</ele>
        <time>2026-07-12T09:19:53Z</time>
      </trkpt>
      <trkpt lat="45.76766" lon="6.5475">
        <ele>1839.4</ele>
        <time>2026-07-12T09:19:54Z</time>
      </trkpt>
      <trkpt lat="45.76769" lon="6.54748">
        <ele>1840.4</ele>
        <time>2026-07-12T09:19:55Z</time>
      </trkpt>
      <trkpt lat="45.76771" lon="6.54747">
        <ele>1841.4</ele>
        <time>2026-07-12T09:19:56Z</time>
      </trkpt>
      <trkpt lat="45.76774" lon="6.54746">
        <ele>1841.8</ele>
        <time>2026-07-12T09:19:57Z</time>
      </trkpt>
      <trkpt lat="45.76776" lon="6.54745">
        <ele>1842.8</ele>
        <time>2026-07-12T09:19:58Z</time>
      </trkpt>
      <trkpt lat="45.76779" lon="6.54744">
        <ele>1843.2</ele>
        <time>2026-07-12T09:19:59Z</time>
      </trkpt>
      <trkpt lat="45.76781" lon="6.54744">
        <ele>1843.4</ele>
        <time>2026-07-12T09:20:00Z</time>
      </trkpt>
      <trkpt lat="45.76784" lon="6.54744">
        <ele>1843.8</ele>
        <time>2026-07-12T09:20:01Z</time>
      </trkpt>
      <trkpt lat="45.76787" lon="6.54744">
        <ele>1845.2</ele>
        <time>2026-07-12T09:20:02Z</time>
      </trkpt>
      <trkpt lat="45.76789" lon="6.54744">
        <ele>1845.2</ele>
        <time>2026-07-12T09:20:03Z</time>
      </trkpt>
      <trkpt lat="45.76792" lon="6.54743">
        <ele>1845.2</ele>
        <time>2026-07-12T09:20:04Z</time>
      </trkpt>
      <trkpt lat="45.76794" lon="6.54742">
        <ele>1845.2</ele>
        <time>2026-07-12T09:20:05Z</time>
      </trkpt>
      <trkpt lat="45.76796" lon="6.5474">
        <ele>1845.2</ele>
        <time>2026-07-12T09:20:06Z</time>
      </trkpt>
      <trkpt lat="45.76798" lon="6.54738">
        <ele>1845.2</ele>
        <time>2026-07-12T09:20:07Z</time>
      </trkpt>
      <trkpt lat="45.76799" lon="6.54735">
        <ele>1846.2</ele>
        <time>2026-07-12T09:20:08Z</time>
      </trkpt>
      <trkpt lat="45.768" lon="6.54732">
        <ele>1847.2</ele>
        <time>2026-07-12T09:20:09Z</time>
      </trkpt>
      <trkpt lat="45.76801" lon="6.54728">
        <ele>1849</ele>
        <time>2026-07-12T09:20:10Z</time>
      </trkpt>
      <trkpt lat="45.76802" lon="6.54725">
        <ele>1849.2</ele>
        <time>2026-07-12T09:20:11Z</time>
      </trkpt>
      <trkpt lat="45.76802" lon="6.54721">
        <ele>1849.6</ele>
        <time>2026-07-12T09:20:12Z</time>
      </trkpt>
      <trkpt lat="45.76803" lon="6.54718">
        <ele>1850.8</ele>
        <time>2026-07-12T09:20:13Z</time>
      </trkpt>
      <trkpt lat="45.76803" lon="6.54715">
        <ele>1850.8</ele>
        <time>2026-07-12T09:20:14Z</time>
      </trkpt>
      <trkpt lat="45.76803" lon="6.54711">
        <ele>1850.8</ele>
        <time>2026-07-12T09:20:15Z</time>
      </trkpt>
      <trkpt lat="45.76804" lon="6.54708">
        <ele>1849.8</ele>
        <time>2026-07-12T09:20:16Z</time>
      </trkpt>
      <trkpt lat="45.76805" lon="6.54705">
        <ele>1849.8</ele>
        <time>2026-07-12T09:20:17Z</time>
      </trkpt>
      <trkpt lat="45.76805" lon="6.54701">
        <ele>1849.8</ele>
        <time>2026-07-12T09:20:18Z</time>
      </trkpt>
      <trkpt lat="45.76806" lon="6.54697">
        <ele>1850.8</ele>
        <time>2026-07-12T09:20:19Z</time>
      </trkpt>
      <trkpt lat="45.76806" lon="6.54694">
        <ele>1851.8</ele>
        <time>2026-07-12T09:20:20Z</time>
      </trkpt>
      <trkpt lat="45.76807" lon="6.5469">
        <ele>1853</ele>
        <time>2026-07-12T09:20:21Z</time>
      </trkpt>
      <trkpt lat="45.76807" lon="6.54686">
        <ele>1853</ele>
        <time>2026-07-12T09:20:22Z</time>
      </trkpt>
      <trkpt lat="45.76808" lon="6.54682">
        <ele>1853</ele>
        <time>2026-07-12T09:20:23Z</time>
      </trkpt>
      <trkpt lat="45.76808" lon="6.54678">
        <ele>1853</ele>
        <time>2026-07-12T09:20:24Z</time>
      </trkpt>
      <trkpt lat="45.76809" lon="6.54675">
        <ele>1854.4</ele>
        <time>2026-07-12T09:20:25Z</time>
      </trkpt>
      <trkpt lat="45.76809" lon="6.54671">
        <ele>1855.6</ele>
        <time>2026-07-12T09:20:26Z</time>
      </trkpt>
      <trkpt lat="45.76809" lon="6.54667">
        <ele>1855.8</ele>
        <time>2026-07-12T09:20:27Z</time>
      </trkpt>
      <trkpt lat="45.7681" lon="6.54663">
        <ele>1855.8</ele>
        <time>2026-07-12T09:20:28Z</time>
      </trkpt>
      <trkpt lat="45.7681" lon="6.54659">
        <ele>1855.8</ele>
        <time>2026-07-12T09:20:29Z</time>
      </trkpt>
      <trkpt lat="45.76811" lon="6.54655">
        <ele>1855.8</ele>
        <time>2026-07-12T09:20:30Z</time>
      </trkpt>
      <trkpt lat="45.76811" lon="6.54651">
        <ele>1855.8</ele>
        <time>2026-07-12T09:20:31Z</time>
      </trkpt>
      <trkpt lat="45.76812" lon="6.54648">
        <ele>1856.6</ele>
        <time>2026-07-12T09:20:32Z</time>
      </trkpt>
      <trkpt lat="45.76812" lon="6.54644">
        <ele>1857.2</ele>
        <time>2026-07-12T09:20:33Z</time>
      </trkpt>
      <trkpt lat="45.76813" lon="6.54641">
        <ele>1858.2</ele>
        <time>2026-07-12T09:20:34Z</time>
      </trkpt>
      <trkpt lat="45.76814" lon="6.54637">
        <ele>1858.2</ele>
        <time>2026-07-12T09:20:35Z</time>
      </trkpt>
      <trkpt lat="45.76815" lon="6.54633">
        <ele>1858.2</ele>
        <time>2026-07-12T09:20:36Z</time>
      </trkpt>
      <trkpt lat="45.76816" lon="6.5463">
        <ele>1858.2</ele>
        <time>2026-07-12T09:20:37Z</time>
      </trkpt>
      <trkpt lat="45.76817" lon="6.54627">
        <ele>1860</ele>
        <time>2026-07-12T09:20:38Z</time>
      </trkpt>
      <trkpt lat="45.76818" lon="6.54624">
        <ele>1860</ele>
        <time>2026-07-12T09:20:39Z</time>
      </trkpt>
      <trkpt lat="45.7682" lon="6.54621">
        <ele>1860</ele>
        <time>2026-07-12T09:20:40Z</time>
      </trkpt>
      <trkpt lat="45.76821" lon="6.54619">
        <ele>1859</ele>
        <time>2026-07-12T09:20:41Z</time>
      </trkpt>
      <trkpt lat="45.76822" lon="6.54618">
        <ele>1859</ele>
        <time>2026-07-12T09:20:42Z</time>
      </trkpt>
      <trkpt lat="45.76824" lon="6.54617">
        <ele>1859</ele>
        <time>2026-07-12T09:20:43Z</time>
      </trkpt>
      <trkpt lat="45.76826" lon="6.54616">
        <ele>1859.6</ele>
        <time>2026-07-12T09:20:44Z</time>
      </trkpt>
      <trkpt lat="45.76828" lon="6.54616">
        <ele>1859.2</ele>
        <time>2026-07-12T09:20:45Z</time>
      </trkpt>
      <trkpt lat="45.76829" lon="6.54616">
        <ele>1859.2</ele>
        <time>2026-07-12T09:20:46Z</time>
      </trkpt>
      <trkpt lat="45.76831" lon="6.54617">
        <ele>1859.2</ele>
        <time>2026-07-12T09:20:47Z</time>
      </trkpt>
      <trkpt lat="45.76832" lon="6.54618">
        <ele>1859.8</ele>
        <time>2026-07-12T09:20:48Z</time>
      </trkpt>
      <trkpt lat="45.76834" lon="6.54619">
        <ele>1859.8</ele>
        <time>2026-07-12T09:20:49Z</time>
      </trkpt>
      <trkpt lat="45.76835" lon="6.54621">
        <ele>1860.2</ele>
        <time>2026-07-12T09:20:50Z</time>
      </trkpt>
      <trkpt lat="45.76836" lon="6.54622">
        <ele>1860.6</ele>
        <time>2026-07-12T09:20:51Z</time>
      </trkpt>
      <trkpt lat="45.76837" lon="6.54623">
        <ele>1860.6</ele>
        <time>2026-07-12T09:20:52Z</time>
      </trkpt>
      <trkpt lat="45.76838" lon="6.54624">
        <ele>1860.6</ele>
        <time>2026-07-12T09:20:53Z</time>
      </trkpt>
      <trkpt lat="45.76839" lon="6.54625">
        <ele>1860.2</ele>
        <time>2026-07-12T09:20:54Z</time>
      </trkpt>
      <trkpt lat="45.7684" lon="6.54626">
        <ele>1860.4</ele>
        <time>2026-07-12T09:20:55Z</time>
      </trkpt>
      <trkpt lat="45.7684" lon="6.54627">
        <ele>1860.4</ele>
        <time>2026-07-12T09:20:56Z</time>
      </trkpt>
      <trkpt lat="45.76841" lon="6.54627">
        <ele>1860.4</ele>
        <time>2026-07-12T09:20:57Z</time>
      </trkpt>
      <trkpt lat="45.76843" lon="6.54626">
        <ele>1860.4</ele>
        <time>2026-07-12T09:20:58Z</time>
      </trkpt>
      <trkpt lat="45.76844" lon="6.54625">
        <ele>1860.4</ele>
        <time>2026-07-12T09:20:59Z</time>
      </trkpt>
      <trkpt lat="45.76845" lon="6.54625">
        <ele>1859</ele>
        <time>2026-07-12T09:21:00Z</time>
      </trkpt>
      <trkpt lat="45.76847" lon="6.54624">
        <ele>1858.4</ele>
        <time>2026-07-12T09:21:01Z</time>
      </trkpt>
      <trkpt lat="45.76848" lon="6.54624">
        <ele>1858.4</ele>
        <time>2026-07-12T09:21:02Z</time>
      </trkpt>
      <trkpt lat="45.76851" lon="6.54625">
        <ele>1858.4</ele>
        <time>2026-07-12T09:21:03Z</time>
      </trkpt>
      <trkpt lat="45.76852" lon="6.54625">
        <ele>1858.4</ele>
        <time>2026-07-12T09:21:04Z</time>
      </trkpt>
      <trkpt lat="45.76854" lon="6.54625">
        <ele>1857</ele>
        <time>2026-07-12T09:21:05Z</time>
      </trkpt>
      <trkpt lat="45.76857" lon="6.54625">
        <ele>1857</ele>
        <time>2026-07-12T09:21:06Z</time>
      </trkpt>
      <trkpt lat="45.7686" lon="6.54625">
        <ele>1857</ele>
        <time>2026-07-12T09:21:07Z</time>
      </trkpt>
      <trkpt lat="45.76864" lon="6.54626">
        <ele>1857</ele>
        <time>2026-07-12T09:21:08Z</time>
      </trkpt>
      <trkpt lat="45.76867" lon="6.54627">
        <ele>1857</ele>
        <time>2026-07-12T09:21:09Z</time>
      </trkpt>
      <trkpt lat="45.7687" lon="6.54628">
        <ele>1857</ele>
        <time>2026-07-12T09:21:10Z</time>
      </trkpt>
      <trkpt lat="45.76873" lon="6.54628">
        <ele>1857</ele>
        <time>2026-07-12T09:21:11Z</time>
      </trkpt>
      <trkpt lat="45.76877" lon="6.54628">
        <ele>1856</ele>
        <time>2026-07-12T09:21:12Z</time>
      </trkpt>
      <trkpt lat="45.76882" lon="6.54629">
        <ele>1856</ele>
        <time>2026-07-12T09:21:13Z</time>
      </trkpt>
      <trkpt lat="45.76887" lon="6.54629">
        <ele>1856</ele>
        <time>2026-07-12T09:21:14Z</time>
      </trkpt>
      <trkpt lat="45.76892" lon="6.5463">
        <ele>1856</ele>
        <time>2026-07-12T09:21:15Z</time>
      </trkpt>
      <trkpt lat="45.76896" lon="6.5463">
        <ele>1854.8</ele>
        <time>2026-07-12T09:21:16Z</time>
      </trkpt>
      <trkpt lat="45.76902" lon="6.5463">
        <ele>1854.6</ele>
        <time>2026-07-12T09:21:17Z</time>
      </trkpt>
      <trkpt lat="45.76907" lon="6.54632">
        <ele>1854.6</ele>
        <time>2026-07-12T09:21:18Z</time>
      </trkpt>
      <trkpt lat="45.76911" lon="6.54633">
        <ele>1854.6</ele>
        <time>2026-07-12T09:21:19Z</time>
      </trkpt>
      <trkpt lat="45.76916" lon="6.54633">
        <ele>1854.6</ele>
        <time>2026-07-12T09:21:20Z</time>
      </trkpt>
      <trkpt lat="45.76922" lon="6.54633">
        <ele>1853</ele>
        <time>2026-07-12T09:21:21Z</time>
      </trkpt>
      <trkpt lat="45.76926" lon="6.54632">
        <ele>1852.6</ele>
        <time>2026-07-12T09:21:22Z</time>
      </trkpt>
      <trkpt lat="45.76932" lon="6.54632">
        <ele>1852.6</ele>
        <time>2026-07-12T09:21:23Z</time>
      </trkpt>
      <trkpt lat="45.76937" lon="6.54633">
        <ele>1852.6</ele>
        <time>2026-07-12T09:21:24Z</time>
      </trkpt>
      <trkpt lat="45.7694" lon="6.54633">
        <ele>1852.6</ele>
        <time>2026-07-12T09:21:25Z</time>
      </trkpt>
      <trkpt lat="45.76942" lon="6.54633">
        <ele>1851.6</ele>
        <time>2026-07-12T09:21:26Z</time>
      </trkpt>
      <trkpt lat="45.76943" lon="6.54633">
        <ele>1851.6</ele>
        <time>2026-07-12T09:21:27Z</time>
      </trkpt>
      <trkpt lat="45.76945" lon="6.54634">
        <ele>1851.6</ele>
        <time>2026-07-12T09:21:28Z</time>
      </trkpt>
      <trkpt lat="45.76947" lon="6.54634">
        <ele>1851.6</ele>
        <time>2026-07-12T09:21:29Z</time>
      </trkpt>
      <trkpt lat="45.76949" lon="6.54635">
        <ele>1851</ele>
        <time>2026-07-12T09:21:30Z</time>
      </trkpt>
      <trkpt lat="45.76952" lon="6.54635">
        <ele>1851</ele>
        <time>2026-07-12T09:21:31Z</time>
      </trkpt>
      <trkpt lat="45.76955" lon="6.54635">
        <ele>1851</ele>
        <time>2026-07-12T09:21:32Z</time>
      </trkpt>
      <trkpt lat="45.76959" lon="6.54635">
        <ele>1851.2</ele>
        <time>2026-07-12T09:21:33Z</time>
      </trkpt>
      <trkpt lat="45.76962" lon="6.54635">
        <ele>1851.2</ele>
        <time>2026-07-12T09:21:34Z</time>
      </trkpt>
      <trkpt lat="45.76966" lon="6.54636">
        <ele>1851.2</ele>
        <time>2026-07-12T09:21:35Z</time>
      </trkpt>
      <trkpt lat="45.7697" lon="6.54636">
        <ele>1850.2</ele>
        <time>2026-07-12T09:21:36Z</time>
      </trkpt>
      <trkpt lat="45.76973" lon="6.54636">
        <ele>1850.2</ele>
        <time>2026-07-12T09:21:37Z</time>
      </trkpt>
      <trkpt lat="45.76977" lon="6.54636">
        <ele>1850.8</ele>
        <time>2026-07-12T09:21:38Z</time>
      </trkpt>
      <trkpt lat="45.7698" lon="6.54636">
        <ele>1851.2</ele>
        <time>2026-07-12T09:21:39Z</time>
      </trkpt>
      <trkpt lat="45.76983" lon="6.54637">
        <ele>1851.2</ele>
        <time>2026-07-12T09:21:40Z</time>
      </trkpt>
      <trkpt lat="45.76985" lon="6.54636">
        <ele>1851.2</ele>
        <time>2026-07-12T09:21:41Z</time>
      </trkpt>
      <trkpt lat="45.76988" lon="6.54636">
        <ele>1850.2</ele>
        <time>2026-07-12T09:21:42Z</time>
      </trkpt>
      <trkpt lat="45.76992" lon="6.54636">
        <ele>1849.2</ele>
        <time>2026-07-12T09:21:43Z</time>
      </trkpt>
      <trkpt lat="45.76996" lon="6.54636">
        <ele>1849.2</ele>
        <time>2026-07-12T09:21:44Z</time>
      </trkpt>
      <trkpt lat="45.77" lon="6.54636">
        <ele>1849.2</ele>
        <time>2026-07-12T09:21:45Z</time>
      </trkpt>
      <trkpt lat="45.77004" lon="6.54635">
        <ele>1849.2</ele>
        <time>2026-07-12T09:21:46Z</time>
      </trkpt>
      <trkpt lat="45.77007" lon="6.54633">
        <ele>1848.2</ele>
        <time>2026-07-12T09:21:47Z</time>
      </trkpt>
      <trkpt lat="45.7701" lon="6.54631">
        <ele>1847.2</ele>
        <time>2026-07-12T09:21:48Z</time>
      </trkpt>
      <trkpt lat="45.77014" lon="6.54628">
        <ele>1846.2</ele>
        <time>2026-07-12T09:21:49Z</time>
      </trkpt>
      <trkpt lat="45.77018" lon="6.54626">
        <ele>1845.2</ele>
        <time>2026-07-12T09:21:50Z</time>
      </trkpt>
      <trkpt lat="45.77022" lon="6.54624">
        <ele>1845.2</ele>
        <time>2026-07-12T09:21:51Z</time>
      </trkpt>
      <trkpt lat="45.77025" lon="6.54623">
        <ele>1844.4</ele>
        <time>2026-07-12T09:21:52Z</time>
      </trkpt>
      <trkpt lat="45.77027" lon="6.54622">
        <ele>1844</ele>
        <time>2026-07-12T09:21:53Z</time>
      </trkpt>
      <trkpt lat="45.7703" lon="6.54621">
        <ele>1844</ele>
        <time>2026-07-12T09:21:54Z</time>
      </trkpt>
      <trkpt lat="45.77032" lon="6.5462">
        <ele>1844</ele>
        <time>2026-07-12T09:21:55Z</time>
      </trkpt>
      <trkpt lat="45.77035" lon="6.54619">
        <ele>1844</ele>
        <time>2026-07-12T09:21:56Z</time>
      </trkpt>
      <trkpt lat="45.77037" lon="6.54618">
        <ele>1842</ele>
        <time>2026-07-12T09:21:57Z</time>
      </trkpt>
      <trkpt lat="45.7704" lon="6.54616">
        <ele>1842</ele>
        <time>2026-07-12T09:21:58Z</time>
      </trkpt>
      <trkpt lat="45.77043" lon="6.54614">
        <ele>1842</ele>
        <time>2026-07-12T09:21:59Z</time>
      </trkpt>
      <trkpt lat="45.77046" lon="6.54613">
        <ele>1842</ele>
        <time>2026-07-12T09:22:00Z</time>
      </trkpt>
      <trkpt lat="45.77048" lon="6.54611">
        <ele>1840</ele>
        <time>2026-07-12T09:22:01Z</time>
      </trkpt>
      <trkpt lat="45.7705" lon="6.54609">
        <ele>1839.4</ele>
        <time>2026-07-12T09:22:02Z</time>
      </trkpt>
      <trkpt lat="45.7705" lon="6.54607">
        <ele>1839.4</ele>
        <time>2026-07-12T09:22:03Z</time>
      </trkpt>
      <trkpt lat="45.7705" lon="6.54606">
        <ele>1839.4</ele>
        <time>2026-07-12T09:22:04Z</time>
      </trkpt>
      <trkpt lat="45.77051" lon="6.54606">
        <ele>1839.4</ele>
        <time>2026-07-12T09:22:05Z</time>
      </trkpt>
      <trkpt lat="45.77053" lon="6.54605">
        <ele>1838.4</ele>
        <time>2026-07-12T09:22:06Z</time>
      </trkpt>
      <trkpt lat="45.77056" lon="6.54604">
        <ele>1838.4</ele>
        <time>2026-07-12T09:22:07Z</time>
      </trkpt>
      <trkpt lat="45.77059" lon="6.54603">
        <ele>1838.4</ele>
        <time>2026-07-12T09:22:08Z</time>
      </trkpt>
      <trkpt lat="45.77062" lon="6.54603">
        <ele>1838.4</ele>
        <time>2026-07-12T09:22:09Z</time>
      </trkpt>
      <trkpt lat="45.77065" lon="6.54603">
        <ele>1838.4</ele>
        <time>2026-07-12T09:22:10Z</time>
      </trkpt>
      <trkpt lat="45.77068" lon="6.54603">
        <ele>1837.4</ele>
        <time>2026-07-12T09:22:11Z</time>
      </trkpt>
      <trkpt lat="45.77073" lon="6.54603">
        <ele>1836.6</ele>
        <time>2026-07-12T09:22:12Z</time>
      </trkpt>
      <trkpt lat="45.77078" lon="6.54604">
        <ele>1836.4</ele>
        <time>2026-07-12T09:22:13Z</time>
      </trkpt>
      <trkpt lat="45.77082" lon="6.54605">
        <ele>1835.6</ele>
        <time>2026-07-12T09:22:14Z</time>
      </trkpt>
      <trkpt lat="45.77087" lon="6.54606">
        <ele>1834.2</ele>
        <time>2026-07-12T09:22:15Z</time>
      </trkpt>
      <trkpt lat="45.77091" lon="6.54607">
        <ele>1834.2</ele>
        <time>2026-07-12T09:22:16Z</time>
      </trkpt>
      <trkpt lat="45.77095" lon="6.54608">
        <ele>1834.2</ele>
        <time>2026-07-12T09:22:17Z</time>
      </trkpt>
      <trkpt lat="45.77099" lon="6.54607">
        <ele>1834.2</ele>
        <time>2026-07-12T09:22:18Z</time>
      </trkpt>
      <trkpt lat="45.77104" lon="6.54606">
        <ele>1833.6</ele>
        <time>2026-07-12T09:22:19Z</time>
      </trkpt>
      <trkpt lat="45.77108" lon="6.54603">
        <ele>1833.6</ele>
        <time>2026-07-12T09:22:20Z</time>
      </trkpt>
      <trkpt lat="45.77111" lon="6.54599">
        <ele>1833.6</ele>
        <time>2026-07-12T09:22:21Z</time>
      </trkpt>
      <trkpt lat="45.77114" lon="6.54595">
        <ele>1834.6</ele>
        <time>2026-07-12T09:22:22Z</time>
      </trkpt>
      <trkpt lat="45.77117" lon="6.54591">
        <ele>1834.6</ele>
        <time>2026-07-12T09:22:23Z</time>
      </trkpt>
      <trkpt lat="45.77119" lon="6.54586">
        <ele>1834.6</ele>
        <time>2026-07-12T09:22:24Z</time>
      </trkpt>
      <trkpt lat="45.77119" lon="6.54583">
        <ele>1833.6</ele>
        <time>2026-07-12T09:22:25Z</time>
      </trkpt>
      <trkpt lat="45.77118" lon="6.5458">
        <ele>1833.6</ele>
        <time>2026-07-12T09:22:26Z</time>
      </trkpt>
      <trkpt lat="45.77119" lon="6.54577">
        <ele>1833.6</ele>
        <time>2026-07-12T09:22:27Z</time>
      </trkpt>
      <trkpt lat="45.77119" lon="6.54574">
        <ele>1833.6</ele>
        <time>2026-07-12T09:22:28Z</time>
      </trkpt>
      <trkpt lat="45.7712" lon="6.5457">
        <ele>1833.6</ele>
        <time>2026-07-12T09:22:29Z</time>
      </trkpt>
      <trkpt lat="45.77121" lon="6.54567">
        <ele>1833.6</ele>
        <time>2026-07-12T09:22:30Z</time>
      </trkpt>
      <trkpt lat="45.77121" lon="6.54565">
        <ele>1833.6</ele>
        <time>2026-07-12T09:22:31Z</time>
      </trkpt>
      <trkpt lat="45.77121" lon="6.54563">
        <ele>1833.6</ele>
        <time>2026-07-12T09:22:32Z</time>
      </trkpt>
      <trkpt lat="45.7712" lon="6.54561">
        <ele>1833.6</ele>
        <time>2026-07-12T09:22:33Z</time>
      </trkpt>
      <trkpt lat="45.7712" lon="6.5456">
        <ele>1832.6</ele>
        <time>2026-07-12T09:22:34Z</time>
      </trkpt>
      <trkpt lat="45.7712" lon="6.54559">
        <ele>1832.6</ele>
        <time>2026-07-12T09:22:35Z</time>
      </trkpt>
      <trkpt lat="45.7712" lon="6.54556">
        <ele>1832.6</ele>
        <time>2026-07-12T09:22:36Z</time>
      </trkpt>
      <trkpt lat="45.77121" lon="6.54553">
        <ele>1832.6</ele>
        <time>2026-07-12T09:22:37Z</time>
      </trkpt>
      <trkpt lat="45.77122" lon="6.5455">
        <ele>1831.6</ele>
        <time>2026-07-12T09:22:38Z</time>
      </trkpt>
      <trkpt lat="45.77123" lon="6.54546">
        <ele>1831.6</ele>
        <time>2026-07-12T09:22:39Z</time>
      </trkpt>
      <trkpt lat="45.77124" lon="6.54543">
        <ele>1831.6</ele>
        <time>2026-07-12T09:22:40Z</time>
      </trkpt>
      <trkpt lat="45.77124" lon="6.54539">
        <ele>1831.6</ele>
        <time>2026-07-12T09:22:41Z</time>
      </trkpt>
      <trkpt lat="45.77125" lon="6.54535">
        <ele>1831.6</ele>
        <time>2026-07-12T09:22:42Z</time>
      </trkpt>
      <trkpt lat="45.77126" lon="6.54531">
        <ele>1831.6</ele>
        <time>2026-07-12T09:22:43Z</time>
      </trkpt>
      <trkpt lat="45.77127" lon="6.54528">
        <ele>1831.6</ele>
        <time>2026-07-12T09:22:44Z</time>
      </trkpt>
      <trkpt lat="45.77127" lon="6.54524">
        <ele>1830.6</ele>
        <time>2026-07-12T09:22:45Z</time>
      </trkpt>
      <trkpt lat="45.77128" lon="6.54521">
        <ele>1829.6</ele>
        <time>2026-07-12T09:22:46Z</time>
      </trkpt>
      <trkpt lat="45.77129" lon="6.54518">
        <ele>1828.6</ele>
        <time>2026-07-12T09:22:47Z</time>
      </trkpt>
      <trkpt lat="45.7713" lon="6.54515">
        <ele>1828.4</ele>
        <time>2026-07-12T09:22:48Z</time>
      </trkpt>
      <trkpt lat="45.77131" lon="6.54514">
        <ele>1828.4</ele>
        <time>2026-07-12T09:22:49Z</time>
      </trkpt>
      <trkpt lat="45.77132" lon="6.54513">
        <ele>1828.4</ele>
        <time>2026-07-12T09:22:50Z</time>
      </trkpt>
      <trkpt lat="45.77134" lon="6.54513">
        <ele>1828.8</ele>
        <time>2026-07-12T09:22:51Z</time>
      </trkpt>
      <trkpt lat="45.77135" lon="6.54512">
        <ele>1829.8</ele>
        <time>2026-07-12T09:22:52Z</time>
      </trkpt>
      <trkpt lat="45.77136" lon="6.54512">
        <ele>1829.8</ele>
        <time>2026-07-12T09:22:53Z</time>
      </trkpt>
      <trkpt lat="45.77138" lon="6.5451">
        <ele>1829.8</ele>
        <time>2026-07-12T09:22:54Z</time>
      </trkpt>
      <trkpt lat="45.77138" lon="6.54509">
        <ele>1828.8</ele>
        <time>2026-07-12T09:22:55Z</time>
      </trkpt>
      <trkpt lat="45.77141" lon="6.54507">
        <ele>1827.8</ele>
        <time>2026-07-12T09:22:56Z</time>
      </trkpt>
      <trkpt lat="45.77143" lon="6.54506">
        <ele>1826.8</ele>
        <time>2026-07-12T09:22:57Z</time>
      </trkpt>
      <trkpt lat="45.77144" lon="6.54506">
        <ele>1826.8</ele>
        <time>2026-07-12T09:22:58Z</time>
      </trkpt>
      <trkpt lat="45.77146" lon="6.54505">
        <ele>1826.8</ele>
        <time>2026-07-12T09:22:59Z</time>
      </trkpt>
      <trkpt lat="45.77148" lon="6.54504">
        <ele>1826.8</ele>
        <time>2026-07-12T09:23:00Z</time>
      </trkpt>
      <trkpt lat="45.77149" lon="6.54503">
        <ele>1826.6</ele>
        <time>2026-07-12T09:23:01Z</time>
      </trkpt>
      <trkpt lat="45.77149" lon="6.54502">
        <ele>1826.6</ele>
        <time>2026-07-12T09:23:02Z</time>
      </trkpt>
      <trkpt lat="45.77149" lon="6.54502">
        <ele>1826.6</ele>
        <time>2026-07-12T09:23:03Z</time>
      </trkpt>
      <trkpt lat="45.77156" lon="6.54497">
        <ele>1826.2</ele>
        <time>2026-07-12T09:23:16Z</time>
      </trkpt>
      <trkpt lat="45.77158" lon="6.54495">
        <ele>1826.2</ele>
        <time>2026-07-12T09:23:17Z</time>
      </trkpt>
      <trkpt lat="45.7716" lon="6.54494">
        <ele>1826.2</ele>
        <time>2026-07-12T09:23:18Z</time>
      </trkpt>
      <trkpt lat="45.77162" lon="6.54491">
        <ele>1825.2</ele>
        <time>2026-07-12T09:23:19Z</time>
      </trkpt>
      <trkpt lat="45.77164" lon="6.54488">
        <ele>1824.2</ele>
        <time>2026-07-12T09:23:20Z</time>
      </trkpt>
      <trkpt lat="45.77166" lon="6.54486">
        <ele>1823.8</ele>
        <time>2026-07-12T09:23:21Z</time>
      </trkpt>
      <trkpt lat="45.77167" lon="6.54484">
        <ele>1823.8</ele>
        <time>2026-07-12T09:23:22Z</time>
      </trkpt>
      <trkpt lat="45.77168" lon="6.54482">
        <ele>1824.4</ele>
        <time>2026-07-12T09:23:23Z</time>
      </trkpt>
      <trkpt lat="45.77169" lon="6.5448">
        <ele>1824.4</ele>
        <time>2026-07-12T09:23:24Z</time>
      </trkpt>
      <trkpt lat="45.77169" lon="6.54478">
        <ele>1824.4</ele>
        <time>2026-07-12T09:23:25Z</time>
      </trkpt>
      <trkpt lat="45.77169" lon="6.54475">
        <ele>1822.8</ele>
        <time>2026-07-12T09:23:26Z</time>
      </trkpt>
      <trkpt lat="45.77171" lon="6.54473">
        <ele>1822.6</ele>
        <time>2026-07-12T09:23:27Z</time>
      </trkpt>
      <trkpt lat="45.77173" lon="6.54471">
        <ele>1822.6</ele>
        <time>2026-07-12T09:23:28Z</time>
      </trkpt>
      <trkpt lat="45.77174" lon="6.5447">
        <ele>1821.6</ele>
        <time>2026-07-12T09:23:29Z</time>
      </trkpt>
      <trkpt lat="45.77175" lon="6.54468">
        <ele>1821</ele>
        <time>2026-07-12T09:23:30Z</time>
      </trkpt>
      <trkpt lat="45.77176" lon="6.54466">
        <ele>1819.6</ele>
        <time>2026-07-12T09:23:31Z</time>
      </trkpt>
      <trkpt lat="45.77177" lon="6.54462">
        <ele>1819.6</ele>
        <time>2026-07-12T09:23:32Z</time>
      </trkpt>
      <trkpt lat="45.77177" lon="6.54459">
        <ele>1819.6</ele>
        <time>2026-07-12T09:23:33Z</time>
      </trkpt>
      <trkpt lat="45.77178" lon="6.54457">
        <ele>1819.6</ele>
        <time>2026-07-12T09:23:34Z</time>
      </trkpt>
      <trkpt lat="45.7718" lon="6.54456">
        <ele>1818.6</ele>
        <time>2026-07-12T09:23:35Z</time>
      </trkpt>
      <trkpt lat="45.77182" lon="6.54455">
        <ele>1818</ele>
        <time>2026-07-12T09:23:36Z</time>
      </trkpt>
      <trkpt lat="45.77184" lon="6.54455">
        <ele>1817.4</ele>
        <time>2026-07-12T09:23:37Z</time>
      </trkpt>
      <trkpt lat="45.77186" lon="6.54455">
        <ele>1817</ele>
        <time>2026-07-12T09:23:38Z</time>
      </trkpt>
      <trkpt lat="45.77188" lon="6.54454">
        <ele>1816.4</ele>
        <time>2026-07-12T09:23:39Z</time>
      </trkpt>
      <trkpt lat="45.7719" lon="6.54452">
        <ele>1815.4</ele>
        <time>2026-07-12T09:23:40Z</time>
      </trkpt>
      <trkpt lat="45.77192" lon="6.54451">
        <ele>1814.4</ele>
        <time>2026-07-12T09:23:41Z</time>
      </trkpt>
      <trkpt lat="45.77194" lon="6.54449">
        <ele>1814.4</ele>
        <time>2026-07-12T09:23:42Z</time>
      </trkpt>
      <trkpt lat="45.77196" lon="6.54447">
        <ele>1814.4</ele>
        <time>2026-07-12T09:23:43Z</time>
      </trkpt>
      <trkpt lat="45.77198" lon="6.54445">
        <ele>1814.4</ele>
        <time>2026-07-12T09:23:44Z</time>
      </trkpt>
      <trkpt lat="45.772" lon="6.54445">
        <ele>1813</ele>
        <time>2026-07-12T09:23:45Z</time>
      </trkpt>
      <trkpt lat="45.77203" lon="6.54445">
        <ele>1810.8</ele>
        <time>2026-07-12T09:23:46Z</time>
      </trkpt>
      <trkpt lat="45.77204" lon="6.54445">
        <ele>1810.8</ele>
        <time>2026-07-12T09:23:47Z</time>
      </trkpt>
      <trkpt lat="45.77208" lon="6.54444">
        <ele>1810.8</ele>
        <time>2026-07-12T09:23:48Z</time>
      </trkpt>
      <trkpt lat="45.77211" lon="6.54443">
        <ele>1811</ele>
        <time>2026-07-12T09:23:49Z</time>
      </trkpt>
      <trkpt lat="45.77214" lon="6.54444">
        <ele>1810</ele>
        <time>2026-07-12T09:23:50Z</time>
      </trkpt>
      <trkpt lat="45.77216" lon="6.54444">
        <ele>1809.8</ele>
        <time>2026-07-12T09:23:51Z</time>
      </trkpt>
      <trkpt lat="45.77218" lon="6.54443">
        <ele>1808.8</ele>
        <time>2026-07-12T09:23:52Z</time>
      </trkpt>
      <trkpt lat="45.7722" lon="6.54443">
        <ele>1808.6</ele>
        <time>2026-07-12T09:23:53Z</time>
      </trkpt>
      <trkpt lat="45.77222" lon="6.54442">
        <ele>1807.6</ele>
        <time>2026-07-12T09:23:54Z</time>
      </trkpt>
      <trkpt lat="45.77224" lon="6.54443">
        <ele>1807.6</ele>
        <time>2026-07-12T09:23:55Z</time>
      </trkpt>
      <trkpt lat="45.77225" lon="6.54444">
        <ele>1807.6</ele>
        <time>2026-07-12T09:23:56Z</time>
      </trkpt>
      <trkpt lat="45.77227" lon="6.54444">
        <ele>1807.6</ele>
        <time>2026-07-12T09:23:57Z</time>
      </trkpt>
      <trkpt lat="45.77231" lon="6.54445">
        <ele>1807.6</ele>
        <time>2026-07-12T09:23:58Z</time>
      </trkpt>
      <trkpt lat="45.77235" lon="6.54445">
        <ele>1806.6</ele>
        <time>2026-07-12T09:23:59Z</time>
      </trkpt>
      <trkpt lat="45.77239" lon="6.54445">
        <ele>1805.6</ele>
        <time>2026-07-12T09:24:00Z</time>
      </trkpt>
      <trkpt lat="45.77245" lon="6.54444">
        <ele>1804.6</ele>
        <time>2026-07-12T09:24:01Z</time>
      </trkpt>
      <trkpt lat="45.7725" lon="6.54445">
        <ele>1803.6</ele>
        <time>2026-07-12T09:24:02Z</time>
      </trkpt>
      <trkpt lat="45.77254" lon="6.54446">
        <ele>1803.6</ele>
        <time>2026-07-12T09:24:03Z</time>
      </trkpt>
      <trkpt lat="45.77256" lon="6.54447">
        <ele>1803.6</ele>
        <time>2026-07-12T09:24:04Z</time>
      </trkpt>
      <trkpt lat="45.77258" lon="6.54446">
        <ele>1802.8</ele>
        <time>2026-07-12T09:24:05Z</time>
      </trkpt>
      <trkpt lat="45.77259" lon="6.54446">
        <ele>1802.8</ele>
        <time>2026-07-12T09:24:06Z</time>
      </trkpt>
      <trkpt lat="45.77259" lon="6.54446">
        <ele>1802.8</ele>
        <time>2026-07-12T09:24:07Z</time>
      </trkpt>
      <trkpt lat="45.77268" lon="6.54442">
        <ele>1801.4</ele>
        <time>2026-07-12T09:24:22Z</time>
      </trkpt>
      <trkpt lat="45.7727" lon="6.54441">
        <ele>1801.4</ele>
        <time>2026-07-12T09:24:23Z</time>
      </trkpt>
      <trkpt lat="45.77272" lon="6.5444">
        <ele>1800.4</ele>
        <time>2026-07-12T09:24:24Z</time>
      </trkpt>
      <trkpt lat="45.77271" lon="6.54438">
        <ele>1799.4</ele>
        <time>2026-07-12T09:24:25Z</time>
      </trkpt>
      <trkpt lat="45.77274" lon="6.54436">
        <ele>1797.6</ele>
        <time>2026-07-12T09:24:26Z</time>
      </trkpt>
      <trkpt lat="45.77276" lon="6.54433">
        <ele>1796.8</ele>
        <time>2026-07-12T09:24:27Z</time>
      </trkpt>
      <trkpt lat="45.77278" lon="6.54429">
        <ele>1796.8</ele>
        <time>2026-07-12T09:24:28Z</time>
      </trkpt>
      <trkpt lat="45.77281" lon="6.54427">
        <ele>1796.8</ele>
        <time>2026-07-12T09:24:29Z</time>
      </trkpt>
      <trkpt lat="45.77285" lon="6.54425">
        <ele>1796.8</ele>
        <time>2026-07-12T09:24:30Z</time>
      </trkpt>
      <trkpt lat="45.77288" lon="6.54423">
        <ele>1796.8</ele>
        <time>2026-07-12T09:24:31Z</time>
      </trkpt>
      <trkpt lat="45.77291" lon="6.54422">
        <ele>1796.8</ele>
        <time>2026-07-12T09:24:32Z</time>
      </trkpt>
      <trkpt lat="45.77295" lon="6.5442">
        <ele>1793</ele>
        <time>2026-07-12T09:24:33Z</time>
      </trkpt>
      <trkpt lat="45.77298" lon="6.54418">
        <ele>1793</ele>
        <time>2026-07-12T09:24:34Z</time>
      </trkpt>
      <trkpt lat="45.77303" lon="6.54417">
        <ele>1793</ele>
        <time>2026-07-12T09:24:35Z</time>
      </trkpt>
      <trkpt lat="45.77307" lon="6.54417">
        <ele>1793</ele>
        <time>2026-07-12T09:24:36Z</time>
      </trkpt>
      <trkpt lat="45.7731" lon="6.54416">
        <ele>1793</ele>
        <time>2026-07-12T09:24:37Z</time>
      </trkpt>
      <trkpt lat="45.77315" lon="6.54415">
        <ele>1793</ele>
        <time>2026-07-12T09:24:38Z</time>
      </trkpt>
      <trkpt lat="45.77319" lon="6.54414">
        <ele>1793</ele>
        <time>2026-07-12T09:24:39Z</time>
      </trkpt>
      <trkpt lat="45.77323" lon="6.54412">
        <ele>1793</ele>
        <time>2026-07-12T09:24:40Z</time>
      </trkpt>
      <trkpt lat="45.77327" lon="6.54412">
        <ele>1792</ele>
        <time>2026-07-12T09:24:41Z</time>
      </trkpt>
      <trkpt lat="45.7733" lon="6.54411">
        <ele>1791</ele>
        <time>2026-07-12T09:24:42Z</time>
      </trkpt>
      <trkpt lat="45.77333" lon="6.54409">
        <ele>1790.6</ele>
        <time>2026-07-12T09:24:43Z</time>
      </trkpt>
      <trkpt lat="45.77337" lon="6.54409">
        <ele>1790.2</ele>
        <time>2026-07-12T09:24:44Z</time>
      </trkpt>
      <trkpt lat="45.77342" lon="6.54409">
        <ele>1790.2</ele>
        <time>2026-07-12T09:24:45Z</time>
      </trkpt>
      <trkpt lat="45.77345" lon="6.54411">
        <ele>1790.2</ele>
        <time>2026-07-12T09:24:46Z</time>
      </trkpt>
      <trkpt lat="45.77349" lon="6.54413">
        <ele>1790.2</ele>
        <time>2026-07-12T09:24:47Z</time>
      </trkpt>
      <trkpt lat="45.77351" lon="6.54415">
        <ele>1789.2</ele>
        <time>2026-07-12T09:24:48Z</time>
      </trkpt>
      <trkpt lat="45.77355" lon="6.54416">
        <ele>1788.2</ele>
        <time>2026-07-12T09:24:49Z</time>
      </trkpt>
      <trkpt lat="45.77359" lon="6.54417">
        <ele>1787.6</ele>
        <time>2026-07-12T09:24:50Z</time>
      </trkpt>
      <trkpt lat="45.77363" lon="6.54417">
        <ele>1787.6</ele>
        <time>2026-07-12T09:24:51Z</time>
      </trkpt>
      <trkpt lat="45.77366" lon="6.54415">
        <ele>1787.6</ele>
        <time>2026-07-12T09:24:52Z</time>
      </trkpt>
      <trkpt lat="45.77369" lon="6.54414">
        <ele>1787.6</ele>
        <time>2026-07-12T09:24:53Z</time>
      </trkpt>
      <trkpt lat="45.77372" lon="6.54413">
        <ele>1787.6</ele>
        <time>2026-07-12T09:24:54Z</time>
      </trkpt>
      <trkpt lat="45.77374" lon="6.54414">
        <ele>1787.6</ele>
        <time>2026-07-12T09:24:55Z</time>
      </trkpt>
      <trkpt lat="45.77377" lon="6.54414">
        <ele>1787.6</ele>
        <time>2026-07-12T09:24:56Z</time>
      </trkpt>
      <trkpt lat="45.77379" lon="6.54414">
        <ele>1787.6</ele>
        <time>2026-07-12T09:24:57Z</time>
      </trkpt>
      <trkpt lat="45.77382" lon="6.54416">
        <ele>1787.6</ele>
        <time>2026-07-12T09:24:58Z</time>
      </trkpt>
      <trkpt lat="45.77385" lon="6.54418">
        <ele>1788.4</ele>
        <time>2026-07-12T09:24:59Z</time>
      </trkpt>
      <trkpt lat="45.77388" lon="6.54419">
        <ele>1789</ele>
        <time>2026-07-12T09:25:00Z</time>
      </trkpt>
      <trkpt lat="45.77391" lon="6.5442">
        <ele>1789</ele>
        <time>2026-07-12T09:25:01Z</time>
      </trkpt>
      <trkpt lat="45.77394" lon="6.54421">
        <ele>1789</ele>
        <time>2026-07-12T09:25:02Z</time>
      </trkpt>
      <trkpt lat="45.77397" lon="6.54421">
        <ele>1788</ele>
        <time>2026-07-12T09:25:03Z</time>
      </trkpt>
      <trkpt lat="45.77399" lon="6.5442">
        <ele>1788</ele>
        <time>2026-07-12T09:25:04Z</time>
      </trkpt>
      <trkpt lat="45.77399" lon="6.5442">
        <ele>1788</ele>
        <time>2026-07-12T09:25:05Z</time>
      </trkpt>
      <trkpt lat="45.77421" lon="6.54417">
        <ele>1788</ele>
        <time>2026-07-12T09:25:06Z</time>
      </trkpt>
      <trkpt lat="45.77423" lon="6.54414">
        <ele>1787</ele>
        <time>2026-07-12T09:25:07Z</time>
      </trkpt>
      <trkpt lat="45.77423" lon="6.54411">
        <ele>1787</ele>
        <time>2026-07-12T09:25:08Z</time>
      </trkpt>
      <trkpt lat="45.77424" lon="6.54409">
        <ele>1787</ele>
        <time>2026-07-12T09:25:09Z</time>
      </trkpt>
      <trkpt lat="45.77425" lon="6.54407">
        <ele>1787</ele>
        <time>2026-07-12T09:25:10Z</time>
      </trkpt>
      <trkpt lat="45.77427" lon="6.54404">
        <ele>1786</ele>
        <time>2026-07-12T09:25:11Z</time>
      </trkpt>
      <trkpt lat="45.77428" lon="6.54401">
        <ele>1785</ele>
        <time>2026-07-12T09:25:12Z</time>
      </trkpt>
      <trkpt lat="45.7743" lon="6.54397">
        <ele>1782.2</ele>
        <time>2026-07-12T09:25:13Z</time>
      </trkpt>
      <trkpt lat="45.77432" lon="6.54394">
        <ele>1782.2</ele>
        <time>2026-07-12T09:25:14Z</time>
      </trkpt>
      <trkpt lat="45.77434" lon="6.54391">
        <ele>1782.2</ele>
        <time>2026-07-12T09:25:15Z</time>
      </trkpt>
      <trkpt lat="45.77435" lon="6.54388">
        <ele>1782.2</ele>
        <time>2026-07-12T09:25:16Z</time>
      </trkpt>
      <trkpt lat="45.77437" lon="6.54386">
        <ele>1781.2</ele>
        <time>2026-07-12T09:25:17Z</time>
      </trkpt>
      <trkpt lat="45.77439" lon="6.54382">
        <ele>1780.2</ele>
        <time>2026-07-12T09:25:18Z</time>
      </trkpt>
      <trkpt lat="45.77441" lon="6.54377">
        <ele>1779.4</ele>
        <time>2026-07-12T09:25:19Z</time>
      </trkpt>
      <trkpt lat="45.77443" lon="6.54372">
        <ele>1779.2</ele>
        <time>2026-07-12T09:25:20Z</time>
      </trkpt>
      <trkpt lat="45.77446" lon="6.54369">
        <ele>1779.2</ele>
        <time>2026-07-12T09:25:21Z</time>
      </trkpt>
      <trkpt lat="45.77448" lon="6.54368">
        <ele>1779.2</ele>
        <time>2026-07-12T09:25:22Z</time>
      </trkpt>
      <trkpt lat="45.77451" lon="6.54367">
        <ele>1779.6</ele>
        <time>2026-07-12T09:25:23Z</time>
      </trkpt>
      <trkpt lat="45.77454" lon="6.54366">
        <ele>1779.6</ele>
        <time>2026-07-12T09:25:24Z</time>
      </trkpt>
      <trkpt lat="45.77456" lon="6.54363">
        <ele>1779.6</ele>
        <time>2026-07-12T09:25:25Z</time>
      </trkpt>
      <trkpt lat="45.77458" lon="6.5436">
        <ele>1778.2</ele>
        <time>2026-07-12T09:25:26Z</time>
      </trkpt>
      <trkpt lat="45.77461" lon="6.54357">
        <ele>1778.2</ele>
        <time>2026-07-12T09:25:27Z</time>
      </trkpt>
      <trkpt lat="45.77464" lon="6.54355">
        <ele>1778.2</ele>
        <time>2026-07-12T09:25:28Z</time>
      </trkpt>
      <trkpt lat="45.77468" lon="6.54352">
        <ele>1778.2</ele>
        <time>2026-07-12T09:25:29Z</time>
      </trkpt>
      <trkpt lat="45.77471" lon="6.54349">
        <ele>1776</ele>
        <time>2026-07-12T09:25:30Z</time>
      </trkpt>
      <trkpt lat="45.77473" lon="6.54345">
        <ele>1776</ele>
        <time>2026-07-12T09:25:31Z</time>
      </trkpt>
      <trkpt lat="45.77476" lon="6.54341">
        <ele>1776</ele>
        <time>2026-07-12T09:25:32Z</time>
      </trkpt>
      <trkpt lat="45.77477" lon="6.54336">
        <ele>1776</ele>
        <time>2026-07-12T09:25:33Z</time>
      </trkpt>
      <trkpt lat="45.77479" lon="6.54333">
        <ele>1774.8</ele>
        <time>2026-07-12T09:25:34Z</time>
      </trkpt>
      <trkpt lat="45.7748" lon="6.54332">
        <ele>1774.8</ele>
        <time>2026-07-12T09:25:35Z</time>
      </trkpt>
      <trkpt lat="45.77481" lon="6.5433">
        <ele>1774.8</ele>
        <time>2026-07-12T09:25:36Z</time>
      </trkpt>
      <trkpt lat="45.77481" lon="6.54327">
        <ele>1774.8</ele>
        <time>2026-07-12T09:25:37Z</time>
      </trkpt>
      <trkpt lat="45.77483" lon="6.54325">
        <ele>1773.2</ele>
        <time>2026-07-12T09:25:38Z</time>
      </trkpt>
      <trkpt lat="45.77484" lon="6.54322">
        <ele>1773.2</ele>
        <time>2026-07-12T09:25:39Z</time>
      </trkpt>
      <trkpt lat="45.77486" lon="6.5432">
        <ele>1773.2</ele>
        <time>2026-07-12T09:25:40Z</time>
      </trkpt>
      <trkpt lat="45.77488" lon="6.54317">
        <ele>1773.2</ele>
        <time>2026-07-12T09:25:41Z</time>
      </trkpt>
      <trkpt lat="45.77488" lon="6.54314">
        <ele>1771.2</ele>
        <time>2026-07-12T09:25:42Z</time>
      </trkpt>
      <trkpt lat="45.77489" lon="6.5431">
        <ele>1766.6</ele>
        <time>2026-07-12T09:25:43Z</time>
      </trkpt>
      <trkpt lat="45.77489" lon="6.54306">
        <ele>1766.6</ele>
        <time>2026-07-12T09:25:44Z</time>
      </trkpt>
      <trkpt lat="45.7749" lon="6.54302">
        <ele>1766.6</ele>
        <time>2026-07-12T09:25:45Z</time>
      </trkpt>
      <trkpt lat="45.77491" lon="6.54299">
        <ele>1767.6</ele>
        <time>2026-07-12T09:25:46Z</time>
      </trkpt>
      <trkpt lat="45.77492" lon="6.54295">
        <ele>1767.6</ele>
        <time>2026-07-12T09:25:47Z</time>
      </trkpt>
      <trkpt lat="45.77492" lon="6.54291">
        <ele>1766.4</ele>
        <time>2026-07-12T09:25:48Z</time>
      </trkpt>
      <trkpt lat="45.77494" lon="6.54288">
        <ele>1766.4</ele>
        <time>2026-07-12T09:25:49Z</time>
      </trkpt>
      <trkpt lat="45.77496" lon="6.54283">
        <ele>1766.4</ele>
        <time>2026-07-12T09:25:50Z</time>
      </trkpt>
      <trkpt lat="45.77497" lon="6.54278">
        <ele>1766.4</ele>
        <time>2026-07-12T09:25:51Z</time>
      </trkpt>
      <trkpt lat="45.77499" lon="6.54274">
        <ele>1764</ele>
        <time>2026-07-12T09:25:52Z</time>
      </trkpt>
      <trkpt lat="45.77501" lon="6.54269">
        <ele>1762.6</ele>
        <time>2026-07-12T09:25:53Z</time>
      </trkpt>
      <trkpt lat="45.77502" lon="6.54265">
        <ele>1762.4</ele>
        <time>2026-07-12T09:25:54Z</time>
      </trkpt>
      <trkpt lat="45.77504" lon="6.5426">
        <ele>1762.4</ele>
        <time>2026-07-12T09:25:55Z</time>
      </trkpt>
      <trkpt lat="45.77506" lon="6.54255">
        <ele>1762.4</ele>
        <time>2026-07-12T09:25:56Z</time>
      </trkpt>
      <trkpt lat="45.77507" lon="6.54251">
        <ele>1762.4</ele>
        <time>2026-07-12T09:25:57Z</time>
      </trkpt>
      <trkpt lat="45.77507" lon="6.54249">
        <ele>1762.4</ele>
        <time>2026-07-12T09:25:58Z</time>
      </trkpt>
      <trkpt lat="45.77509" lon="6.54247">
        <ele>1760</ele>
        <time>2026-07-12T09:25:59Z</time>
      </trkpt>
      <trkpt lat="45.77511" lon="6.54245">
        <ele>1760</ele>
        <time>2026-07-12T09:26:00Z</time>
      </trkpt>
      <trkpt lat="45.77512" lon="6.54241">
        <ele>1760</ele>
        <time>2026-07-12T09:26:01Z</time>
      </trkpt>
      <trkpt lat="45.77514" lon="6.54238">
        <ele>1760</ele>
        <time>2026-07-12T09:26:02Z</time>
      </trkpt>
      <trkpt lat="45.77516" lon="6.54236">
        <ele>1759</ele>
        <time>2026-07-12T09:26:03Z</time>
      </trkpt>
      <trkpt lat="45.77517" lon="6.54234">
        <ele>1758</ele>
        <time>2026-07-12T09:26:04Z</time>
      </trkpt>
      <trkpt lat="45.77519" lon="6.54231">
        <ele>1757</ele>
        <time>2026-07-12T09:26:05Z</time>
      </trkpt>
      <trkpt lat="45.77521" lon="6.54229">
        <ele>1757</ele>
        <time>2026-07-12T09:26:06Z</time>
      </trkpt>
      <trkpt lat="45.77524" lon="6.54226">
        <ele>1757</ele>
        <time>2026-07-12T09:26:07Z</time>
      </trkpt>
      <trkpt lat="45.77526" lon="6.54222">
        <ele>1757</ele>
        <time>2026-07-12T09:26:08Z</time>
      </trkpt>
      <trkpt lat="45.77528" lon="6.54216">
        <ele>1754.6</ele>
        <time>2026-07-12T09:26:09Z</time>
      </trkpt>
      <trkpt lat="45.7753" lon="6.54212">
        <ele>1754.4</ele>
        <time>2026-07-12T09:26:10Z</time>
      </trkpt>
      <trkpt lat="45.77531" lon="6.5421">
        <ele>1754.4</ele>
        <time>2026-07-12T09:26:11Z</time>
      </trkpt>
      <trkpt lat="45.77534" lon="6.54208">
        <ele>1754.4</ele>
        <time>2026-07-12T09:26:12Z</time>
      </trkpt>
      <trkpt lat="45.77536" lon="6.54204">
        <ele>1754.4</ele>
        <time>2026-07-12T09:26:13Z</time>
      </trkpt>
      <trkpt lat="45.77538" lon="6.54201">
        <ele>1754.4</ele>
        <time>2026-07-12T09:26:14Z</time>
      </trkpt>
      <trkpt lat="45.7754" lon="6.54197">
        <ele>1753.8</ele>
        <time>2026-07-12T09:26:15Z</time>
      </trkpt>
      <trkpt lat="45.77542" lon="6.54194">
        <ele>1753.4</ele>
        <time>2026-07-12T09:26:16Z</time>
      </trkpt>
      <trkpt lat="45.77543" lon="6.54192">
        <ele>1753.4</ele>
        <time>2026-07-12T09:26:17Z</time>
      </trkpt>
      <trkpt lat="45.77545" lon="6.5419">
        <ele>1753.4</ele>
        <time>2026-07-12T09:26:18Z</time>
      </trkpt>
      <trkpt lat="45.77546" lon="6.54188">
        <ele>1753.4</ele>
        <time>2026-07-12T09:26:19Z</time>
      </trkpt>
      <trkpt lat="45.77548" lon="6.54185">
        <ele>1753.4</ele>
        <time>2026-07-12T09:26:20Z</time>
      </trkpt>
      <trkpt lat="45.7755" lon="6.54183">
        <ele>1752.4</ele>
        <time>2026-07-12T09:26:21Z</time>
      </trkpt>
      <trkpt lat="45.77552" lon="6.54179">
        <ele>1751.4</ele>
        <time>2026-07-12T09:26:22Z</time>
      </trkpt>
      <trkpt lat="45.77553" lon="6.54176">
        <ele>1750.4</ele>
        <time>2026-07-12T09:26:23Z</time>
      </trkpt>
      <trkpt lat="45.77555" lon="6.54173">
        <ele>1749.4</ele>
        <time>2026-07-12T09:26:24Z</time>
      </trkpt>
      <trkpt lat="45.77556" lon="6.54169">
        <ele>1749.4</ele>
        <time>2026-07-12T09:26:25Z</time>
      </trkpt>
      <trkpt lat="45.77557" lon="6.54166">
        <ele>1749.4</ele>
        <time>2026-07-12T09:26:26Z</time>
      </trkpt>
      <trkpt lat="45.77559" lon="6.54162">
        <ele>1749.4</ele>
        <time>2026-07-12T09:26:27Z</time>
      </trkpt>
      <trkpt lat="45.77561" lon="6.54158">
        <ele>1748.4</ele>
        <time>2026-07-12T09:26:28Z</time>
      </trkpt>
      <trkpt lat="45.77563" lon="6.54154">
        <ele>1747.4</ele>
        <time>2026-07-12T09:26:29Z</time>
      </trkpt>
      <trkpt lat="45.77567" lon="6.54151">
        <ele>1746.4</ele>
        <time>2026-07-12T09:26:30Z</time>
      </trkpt>
      <trkpt lat="45.7757" lon="6.54147">
        <ele>1744.2</ele>
        <time>2026-07-12T09:26:31Z</time>
      </trkpt>
      <trkpt lat="45.77573" lon="6.54145">
        <ele>1743.4</ele>
        <time>2026-07-12T09:26:32Z</time>
      </trkpt>
      <trkpt lat="45.77575" lon="6.54142">
        <ele>1743.4</ele>
        <time>2026-07-12T09:26:33Z</time>
      </trkpt>
      <trkpt lat="45.77578" lon="6.5414">
        <ele>1743.4</ele>
        <time>2026-07-12T09:26:34Z</time>
      </trkpt>
      <trkpt lat="45.7758" lon="6.54137">
        <ele>1743.4</ele>
        <time>2026-07-12T09:26:35Z</time>
      </trkpt>
      <trkpt lat="45.77582" lon="6.54136">
        <ele>1743.4</ele>
        <time>2026-07-12T09:26:36Z</time>
      </trkpt>
      <trkpt lat="45.77583" lon="6.54135">
        <ele>1742.4</ele>
        <time>2026-07-12T09:26:37Z</time>
      </trkpt>
      <trkpt lat="45.77585" lon="6.54133">
        <ele>1741.4</ele>
        <time>2026-07-12T09:26:38Z</time>
      </trkpt>
      <trkpt lat="45.77587" lon="6.54131">
        <ele>1740.6</ele>
        <time>2026-07-12T09:26:39Z</time>
      </trkpt>
      <trkpt lat="45.77589" lon="6.54129">
        <ele>1739.6</ele>
        <time>2026-07-12T09:26:40Z</time>
      </trkpt>
      <trkpt lat="45.77591" lon="6.54128">
        <ele>1738.6</ele>
        <time>2026-07-12T09:26:41Z</time>
      </trkpt>
      <trkpt lat="45.77593" lon="6.54126">
        <ele>1738.6</ele>
        <time>2026-07-12T09:26:42Z</time>
      </trkpt>
      <trkpt lat="45.77593" lon="6.54124">
        <ele>1738.6</ele>
        <time>2026-07-12T09:26:43Z</time>
      </trkpt>
      <trkpt lat="45.77594" lon="6.54122">
        <ele>1738.6</ele>
        <time>2026-07-12T09:26:44Z</time>
      </trkpt>
      <trkpt lat="45.77595" lon="6.54119">
        <ele>1738</ele>
        <time>2026-07-12T09:26:45Z</time>
      </trkpt>
      <trkpt lat="45.77598" lon="6.54118">
        <ele>1737.6</ele>
        <time>2026-07-12T09:26:46Z</time>
      </trkpt>
      <trkpt lat="45.77599" lon="6.54117">
        <ele>1737.6</ele>
        <time>2026-07-12T09:26:47Z</time>
      </trkpt>
      <trkpt lat="45.776" lon="6.54117">
        <ele>1737.6</ele>
        <time>2026-07-12T09:26:48Z</time>
      </trkpt>
      <trkpt lat="45.77601" lon="6.54116">
        <ele>1737.6</ele>
        <time>2026-07-12T09:26:49Z</time>
      </trkpt>
      <trkpt lat="45.77602" lon="6.54116">
        <ele>1737.6</ele>
        <time>2026-07-12T09:26:50Z</time>
      </trkpt>
      <trkpt lat="45.77604" lon="6.54116">
        <ele>1737</ele>
        <time>2026-07-12T09:26:51Z</time>
      </trkpt>
      <trkpt lat="45.77604" lon="6.54115">
        <ele>1737</ele>
        <time>2026-07-12T09:26:52Z</time>
      </trkpt>
      <trkpt lat="45.77617" lon="6.54108">
        <ele>1736</ele>
        <time>2026-07-12T09:30:40Z</time>
      </trkpt>
      <trkpt lat="45.77618" lon="6.54107">
        <ele>1735</ele>
        <time>2026-07-12T09:30:41Z</time>
      </trkpt>
      <trkpt lat="45.7762" lon="6.54106">
        <ele>1735</ele>
        <time>2026-07-12T09:30:42Z</time>
      </trkpt>
      <trkpt lat="45.77621" lon="6.54104">
        <ele>1735</ele>
        <time>2026-07-12T09:30:43Z</time>
      </trkpt>
      <trkpt lat="45.77622" lon="6.54102">
        <ele>1735</ele>
        <time>2026-07-12T09:30:44Z</time>
      </trkpt>
      <trkpt lat="45.77623" lon="6.541">
        <ele>1733</ele>
        <time>2026-07-12T09:30:45Z</time>
      </trkpt>
      <trkpt lat="45.77624" lon="6.54098">
        <ele>1733</ele>
        <time>2026-07-12T09:30:46Z</time>
      </trkpt>
      <trkpt lat="45.77625" lon="6.54097">
        <ele>1733</ele>
        <time>2026-07-12T09:30:47Z</time>
      </trkpt>
      <trkpt lat="45.77626" lon="6.54097">
        <ele>1733</ele>
        <time>2026-07-12T09:30:48Z</time>
      </trkpt>
      <trkpt lat="45.77627" lon="6.54096">
        <ele>1732</ele>
        <time>2026-07-12T09:30:49Z</time>
      </trkpt>
      <trkpt lat="45.77654" lon="6.54085">
        <ele>1720.8</ele>
        <time>2026-07-12T09:31:35Z</time>
      </trkpt>
      <trkpt lat="45.77655" lon="6.54085">
        <ele>1719.8</ele>
        <time>2026-07-12T09:31:36Z</time>
      </trkpt>
      <trkpt lat="45.77657" lon="6.54085">
        <ele>1719</ele>
        <time>2026-07-12T09:31:37Z</time>
      </trkpt>
      <trkpt lat="45.77658" lon="6.54084">
        <ele>1718.8</ele>
        <time>2026-07-12T09:31:38Z</time>
      </trkpt>
      <trkpt lat="45.77659" lon="6.54083">
        <ele>1718</ele>
        <time>2026-07-12T09:31:39Z</time>
      </trkpt>
      <trkpt lat="45.7766" lon="6.54083">
        <ele>1717.2</ele>
        <time>2026-07-12T09:31:40Z</time>
      </trkpt>
      <trkpt lat="45.77661" lon="6.54082">
        <ele>1716.6</ele>
        <time>2026-07-12T09:31:41Z</time>
      </trkpt>
      <trkpt lat="45.77662" lon="6.54081">
        <ele>1715.8</ele>
        <time>2026-07-12T09:31:42Z</time>
      </trkpt>
      <trkpt lat="45.77664" lon="6.5408">
        <ele>1715.6</ele>
        <time>2026-07-12T09:31:43Z</time>
      </trkpt>
      <trkpt lat="45.77665" lon="6.54079">
        <ele>1715.4</ele>
        <time>2026-07-12T09:31:44Z</time>
      </trkpt>
      <trkpt lat="45.77667" lon="6.54077">
        <ele>1714.4</ele>
        <time>2026-07-12T09:31:45Z</time>
      </trkpt>
      <trkpt lat="45.77669" lon="6.54076">
        <ele>1713.6</ele>
        <time>2026-07-12T09:31:46Z</time>
      </trkpt>
      <trkpt lat="45.7767" lon="6.54073">
        <ele>1713.4</ele>
        <time>2026-07-12T09:31:47Z</time>
      </trkpt>
      <trkpt lat="45.77673" lon="6.54071">
        <ele>1712</ele>
        <time>2026-07-12T09:31:48Z</time>
      </trkpt>
      <trkpt lat="45.77676" lon="6.54068">
        <ele>1712</ele>
        <time>2026-07-12T09:31:49Z</time>
      </trkpt>
      <trkpt lat="45.77678" lon="6.54065">
        <ele>1712</ele>
        <time>2026-07-12T09:31:50Z</time>
      </trkpt>
      <trkpt lat="45.77681" lon="6.54062">
        <ele>1712</ele>
        <time>2026-07-12T09:31:51Z</time>
      </trkpt>
      <trkpt lat="45.77683" lon="6.54062">
        <ele>1711</ele>
        <time>2026-07-12T09:31:52Z</time>
      </trkpt>
      <trkpt lat="45.77686" lon="6.54063">
        <ele>1710.6</ele>
        <time>2026-07-12T09:31:53Z</time>
      </trkpt>
      <trkpt lat="45.77688" lon="6.54063">
        <ele>1709.6</ele>
        <time>2026-07-12T09:31:54Z</time>
      </trkpt>
      <trkpt lat="45.7769" lon="6.54065">
        <ele>1708.8</ele>
        <time>2026-07-12T09:31:55Z</time>
      </trkpt>
      <trkpt lat="45.77692" lon="6.54065">
        <ele>1708.4</ele>
        <time>2026-07-12T09:31:56Z</time>
      </trkpt>
      <trkpt lat="45.77694" lon="6.54066">
        <ele>1708</ele>
        <time>2026-07-12T09:31:57Z</time>
      </trkpt>
      <trkpt lat="45.77695" lon="6.54065">
        <ele>1707.2</ele>
        <time>2026-07-12T09:31:58Z</time>
      </trkpt>
      <trkpt lat="45.77697" lon="6.54066">
        <ele>1706.6</ele>
        <time>2026-07-12T09:31:59Z</time>
      </trkpt>
      <trkpt lat="45.77699" lon="6.54067">
        <ele>1706</ele>
        <time>2026-07-12T09:32:00Z</time>
      </trkpt>
      <trkpt lat="45.777" lon="6.54068">
        <ele>1703.8</ele>
        <time>2026-07-12T09:32:01Z</time>
      </trkpt>
      <trkpt lat="45.77702" lon="6.54068">
        <ele>1702.6</ele>
        <time>2026-07-12T09:32:02Z</time>
      </trkpt>
      <trkpt lat="45.77704" lon="6.54068">
        <ele>1702.6</ele>
        <time>2026-07-12T09:32:03Z</time>
      </trkpt>
      <trkpt lat="45.77706" lon="6.54068">
        <ele>1701.2</ele>
        <time>2026-07-12T09:32:04Z</time>
      </trkpt>
      <trkpt lat="45.77708" lon="6.54067">
        <ele>1701.2</ele>
        <time>2026-07-12T09:32:05Z</time>
      </trkpt>
      <trkpt lat="45.7771" lon="6.54066">
        <ele>1701.2</ele>
        <time>2026-07-12T09:32:06Z</time>
      </trkpt>
      <trkpt lat="45.77711" lon="6.54066">
        <ele>1701.2</ele>
        <time>2026-07-12T09:32:07Z</time>
      </trkpt>
      <trkpt lat="45.77713" lon="6.54066">
        <ele>1698</ele>
        <time>2026-07-12T09:32:08Z</time>
      </trkpt>
      <trkpt lat="45.77716" lon="6.54066">
        <ele>1697.6</ele>
        <time>2026-07-12T09:32:09Z</time>
      </trkpt>
      <trkpt lat="45.77718" lon="6.54065">
        <ele>1697.6</ele>
        <time>2026-07-12T09:32:10Z</time>
      </trkpt>
      <trkpt lat="45.7772" lon="6.54064">
        <ele>1697.6</ele>
        <time>2026-07-12T09:32:11Z</time>
      </trkpt>
      <trkpt lat="45.77722" lon="6.54064">
        <ele>1697.6</ele>
        <time>2026-07-12T09:32:12Z</time>
      </trkpt>
      <trkpt lat="45.77723" lon="6.54064">
        <ele>1697.8</ele>
        <time>2026-07-12T09:32:13Z</time>
      </trkpt>
      <trkpt lat="45.77723" lon="6.54064">
        <ele>1697.8</ele>
        <time>2026-07-12T09:32:14Z</time>
      </trkpt>
      <trkpt lat="45.77723" lon="6.54064">
        <ele>1697.8</ele>
        <time>2026-07-12T09:32:15Z</time>
      </trkpt>
      <trkpt lat="45.77731" lon="6.5406">
        <ele>1696.4</ele>
        <time>2026-07-12T09:32:36Z</time>
      </trkpt>
      <trkpt lat="45.77732" lon="6.54057">
        <ele>1696.8</ele>
        <time>2026-07-12T09:32:37Z</time>
      </trkpt>
      <trkpt lat="45.77733" lon="6.54053">
        <ele>1696.8</ele>
        <time>2026-07-12T09:32:38Z</time>
      </trkpt>
      <trkpt lat="45.77733" lon="6.54049">
        <ele>1696.8</ele>
        <time>2026-07-12T09:32:39Z</time>
      </trkpt>
      <trkpt lat="45.77733" lon="6.54045">
        <ele>1695.4</ele>
        <time>2026-07-12T09:32:40Z</time>
      </trkpt>
      <trkpt lat="45.77731" lon="6.54041">
        <ele>1695.4</ele>
        <time>2026-07-12T09:32:41Z</time>
      </trkpt>
      <trkpt lat="45.77731" lon="6.54037">
        <ele>1694</ele>
        <time>2026-07-12T09:32:42Z</time>
      </trkpt>
      <trkpt lat="45.77729" lon="6.54033">
        <ele>1694</ele>
        <time>2026-07-12T09:32:43Z</time>
      </trkpt>
      <trkpt lat="45.77727" lon="6.54029">
        <ele>1694</ele>
        <time>2026-07-12T09:32:44Z</time>
      </trkpt>
      <trkpt lat="45.77725" lon="6.54024">
        <ele>1694</ele>
        <time>2026-07-12T09:32:45Z</time>
      </trkpt>
      <trkpt lat="45.77723" lon="6.54019">
        <ele>1693.4</ele>
        <time>2026-07-12T09:32:46Z</time>
      </trkpt>
      <trkpt lat="45.77719" lon="6.54014">
        <ele>1693.4</ele>
        <time>2026-07-12T09:32:47Z</time>
      </trkpt>
      <trkpt lat="45.77716" lon="6.54007">
        <ele>1693.8</ele>
        <time>2026-07-12T09:32:48Z</time>
      </trkpt>
      <trkpt lat="45.77712" lon="6.54">
        <ele>1693.8</ele>
        <time>2026-07-12T09:32:49Z</time>
      </trkpt>
      <trkpt lat="45.77709" lon="6.53994">
        <ele>1693.8</ele>
        <time>2026-07-12T09:32:50Z</time>
      </trkpt>
      <trkpt lat="45.77705" lon="6.53989">
        <ele>1692.8</ele>
        <time>2026-07-12T09:32:51Z</time>
      </trkpt>
      <trkpt lat="45.77701" lon="6.53983">
        <ele>1691.8</ele>
        <time>2026-07-12T09:32:52Z</time>
      </trkpt>
      <trkpt lat="45.77697" lon="6.53977">
        <ele>1689.8</ele>
        <time>2026-07-12T09:32:53Z</time>
      </trkpt>
      <trkpt lat="45.77692" lon="6.53972">
        <ele>1689.2</ele>
        <time>2026-07-12T09:32:54Z</time>
      </trkpt>
      <trkpt lat="45.77687" lon="6.53966">
        <ele>1689.2</ele>
        <time>2026-07-12T09:32:55Z</time>
      </trkpt>
      <trkpt lat="45.77682" lon="6.5396">
        <ele>1689.2</ele>
        <time>2026-07-12T09:32:56Z</time>
      </trkpt>
      <trkpt lat="45.77677" lon="6.53954">
        <ele>1689.2</ele>
        <time>2026-07-12T09:32:57Z</time>
      </trkpt>
      <trkpt lat="45.77672" lon="6.53949">
        <ele>1689.2</ele>
        <time>2026-07-12T09:32:58Z</time>
      </trkpt>
      <trkpt lat="45.77666" lon="6.53944">
        <ele>1689.2</ele>
        <time>2026-07-12T09:32:59Z</time>
      </trkpt>
      <trkpt lat="45.77661" lon="6.53939">
        <ele>1689.2</ele>
        <time>2026-07-12T09:33:00Z</time>
      </trkpt>
      <trkpt lat="45.77655" lon="6.53935">
        <ele>1684.4</ele>
        <time>2026-07-12T09:33:01Z</time>
      </trkpt>
      <trkpt lat="45.7765" lon="6.53931">
        <ele>1684.4</ele>
        <time>2026-07-12T09:33:02Z</time>
      </trkpt>
      <trkpt lat="45.77646" lon="6.53927">
        <ele>1683.6</ele>
        <time>2026-07-12T09:33:03Z</time>
      </trkpt>
      <trkpt lat="45.77642" lon="6.53924">
        <ele>1683.6</ele>
        <time>2026-07-12T09:33:04Z</time>
      </trkpt>
      <trkpt lat="45.77638" lon="6.5392">
        <ele>1683.6</ele>
        <time>2026-07-12T09:33:05Z</time>
      </trkpt>
      <trkpt lat="45.77633" lon="6.53915">
        <ele>1683.6</ele>
        <time>2026-07-12T09:33:06Z</time>
      </trkpt>
      <trkpt lat="45.77629" lon="6.5391">
        <ele>1681.2</ele>
        <time>2026-07-12T09:33:07Z</time>
      </trkpt>
      <trkpt lat="45.77624" lon="6.53905">
        <ele>1681.2</ele>
        <time>2026-07-12T09:33:08Z</time>
      </trkpt>
      <trkpt lat="45.77619" lon="6.539">
        <ele>1681.2</ele>
        <time>2026-07-12T09:33:09Z</time>
      </trkpt>
      <trkpt lat="45.77614" lon="6.53894">
        <ele>1681.2</ele>
        <time>2026-07-12T09:33:10Z</time>
      </trkpt>
      <trkpt lat="45.77608" lon="6.5389">
        <ele>1680.2</ele>
        <time>2026-07-12T09:33:11Z</time>
      </trkpt>
      <trkpt lat="45.77603" lon="6.53885">
        <ele>1679.2</ele>
        <time>2026-07-12T09:33:12Z</time>
      </trkpt>
      <trkpt lat="45.77598" lon="6.53879">
        <ele>1678.2</ele>
        <time>2026-07-12T09:33:13Z</time>
      </trkpt>
      <trkpt lat="45.77594" lon="6.53871">
        <ele>1678.2</ele>
        <time>2026-07-12T09:33:14Z</time>
      </trkpt>
      <trkpt lat="45.7759" lon="6.53863">
        <ele>1678.2</ele>
        <time>2026-07-12T09:33:15Z</time>
      </trkpt>
      <trkpt lat="45.77586" lon="6.53855">
        <ele>1678.2</ele>
        <time>2026-07-12T09:33:16Z</time>
      </trkpt>
      <trkpt lat="45.77582" lon="6.53847">
        <ele>1677.2</ele>
        <time>2026-07-12T09:33:17Z</time>
      </trkpt>
      <trkpt lat="45.7758" lon="6.53839">
        <ele>1676.4</ele>
        <time>2026-07-12T09:33:18Z</time>
      </trkpt>
      <trkpt lat="45.77577" lon="6.53832">
        <ele>1675.4</ele>
        <time>2026-07-12T09:33:19Z</time>
      </trkpt>
      <trkpt lat="45.77574" lon="6.53825">
        <ele>1674.4</ele>
        <time>2026-07-12T09:33:20Z</time>
      </trkpt>
      <trkpt lat="45.7757" lon="6.53818">
        <ele>1673</ele>
        <time>2026-07-12T09:33:21Z</time>
      </trkpt>
      <trkpt lat="45.77568" lon="6.53812">
        <ele>1673</ele>
        <time>2026-07-12T09:33:22Z</time>
      </trkpt>
      <trkpt lat="45.77565" lon="6.53805">
        <ele>1673</ele>
        <time>2026-07-12T09:33:23Z</time>
      </trkpt>
      <trkpt lat="45.77562" lon="6.53798">
        <ele>1673</ele>
        <time>2026-07-12T09:33:24Z</time>
      </trkpt>
      <trkpt lat="45.7756" lon="6.53792">
        <ele>1672</ele>
        <time>2026-07-12T09:33:25Z</time>
      </trkpt>
      <trkpt lat="45.77556" lon="6.53785">
        <ele>1671</ele>
        <time>2026-07-12T09:33:26Z</time>
      </trkpt>
      <trkpt lat="45.77552" lon="6.53778">
        <ele>1670.8</ele>
        <time>2026-07-12T09:33:27Z</time>
      </trkpt>
      <trkpt lat="45.77549" lon="6.53771">
        <ele>1668.4</ele>
        <time>2026-07-12T09:33:28Z</time>
      </trkpt>
      <trkpt lat="45.77545" lon="6.53765">
        <ele>1668.2</ele>
        <time>2026-07-12T09:33:29Z</time>
      </trkpt>
      <trkpt lat="45.77541" lon="6.5376">
        <ele>1667.4</ele>
        <time>2026-07-12T09:33:30Z</time>
      </trkpt>
      <trkpt lat="45.77536" lon="6.53755">
        <ele>1665.8</ele>
        <time>2026-07-12T09:33:31Z</time>
      </trkpt>
      <trkpt lat="45.77531" lon="6.5375">
        <ele>1665.4</ele>
        <time>2026-07-12T09:33:32Z</time>
      </trkpt>
      <trkpt lat="45.77527" lon="6.53745">
        <ele>1664.2</ele>
        <time>2026-07-12T09:33:33Z</time>
      </trkpt>
      <trkpt lat="45.77524" lon="6.5374">
        <ele>1663.8</ele>
        <time>2026-07-12T09:33:34Z</time>
      </trkpt>
      <trkpt lat="45.7752" lon="6.53736">
        <ele>1663.6</ele>
        <time>2026-07-12T09:33:35Z</time>
      </trkpt>
      <trkpt lat="45.77518" lon="6.53733">
        <ele>1663.4</ele>
        <time>2026-07-12T09:33:36Z</time>
      </trkpt>
      <trkpt lat="45.77517" lon="6.53732">
        <ele>1662.4</ele>
        <time>2026-07-12T09:33:37Z</time>
      </trkpt>
      <trkpt lat="45.77515" lon="6.5373">
        <ele>1662.4</ele>
        <time>2026-07-12T09:33:38Z</time>
      </trkpt>
      <trkpt lat="45.77512" lon="6.53728">
        <ele>1662</ele>
        <time>2026-07-12T09:33:39Z</time>
      </trkpt>
      <trkpt lat="45.7751" lon="6.53726">
        <ele>1661.2</ele>
        <time>2026-07-12T09:33:40Z</time>
      </trkpt>
      <trkpt lat="45.77507" lon="6.53723">
        <ele>1661</ele>
        <time>2026-07-12T09:33:41Z</time>
      </trkpt>
      <trkpt lat="45.77504" lon="6.5372">
        <ele>1660.6</ele>
        <time>2026-07-12T09:33:42Z</time>
      </trkpt>
      <trkpt lat="45.775" lon="6.53717">
        <ele>1659.2</ele>
        <time>2026-07-12T09:33:43Z</time>
      </trkpt>
      <trkpt lat="45.77496" lon="6.53715">
        <ele>1657.2</ele>
        <time>2026-07-12T09:33:44Z</time>
      </trkpt>
      <trkpt lat="45.77491" lon="6.53712">
        <ele>1656.2</ele>
        <time>2026-07-12T09:33:45Z</time>
      </trkpt>
      <trkpt lat="45.77486" lon="6.5371">
        <ele>1655.8</ele>
        <time>2026-07-12T09:33:46Z</time>
      </trkpt>
      <trkpt lat="45.77481" lon="6.53707">
        <ele>1654.2</ele>
        <time>2026-07-12T09:33:47Z</time>
      </trkpt>
      <trkpt lat="45.77477" lon="6.53705">
        <ele>1653</ele>
        <time>2026-07-12T09:33:48Z</time>
      </trkpt>
      <trkpt lat="45.77472" lon="6.53703">
        <ele>1652.4</ele>
        <time>2026-07-12T09:33:49Z</time>
      </trkpt>
      <trkpt lat="45.77467" lon="6.53704">
        <ele>1652</ele>
        <time>2026-07-12T09:33:50Z</time>
      </trkpt>
      <trkpt lat="45.77462" lon="6.53702">
        <ele>1651.6</ele>
        <time>2026-07-12T09:33:51Z</time>
      </trkpt>
      <trkpt lat="45.77456" lon="6.53701">
        <ele>1649.2</ele>
        <time>2026-07-12T09:33:52Z</time>
      </trkpt>
      <trkpt lat="45.7745" lon="6.537">
        <ele>1648.4</ele>
        <time>2026-07-12T09:33:53Z</time>
      </trkpt>
      <trkpt lat="45.77442" lon="6.53699">
        <ele>1646.8</ele>
        <time>2026-07-12T09:33:54Z</time>
      </trkpt>
      <trkpt lat="45.77436" lon="6.53699">
        <ele>1645.8</ele>
        <time>2026-07-12T09:33:55Z</time>
      </trkpt>
      <trkpt lat="45.7743" lon="6.537">
        <ele>1644.2</ele>
        <time>2026-07-12T09:33:56Z</time>
      </trkpt>
      <trkpt lat="45.77425" lon="6.537">
        <ele>1644</ele>
        <time>2026-07-12T09:33:57Z</time>
      </trkpt>
      <trkpt lat="45.77421" lon="6.53701">
        <ele>1644</ele>
        <time>2026-07-12T09:33:58Z</time>
      </trkpt>
      <trkpt lat="45.77415" lon="6.53703">
        <ele>1641.6</ele>
        <time>2026-07-12T09:33:59Z</time>
      </trkpt>
      <trkpt lat="45.7741" lon="6.53706">
        <ele>1640.8</ele>
        <time>2026-07-12T09:34:00Z</time>
      </trkpt>
      <trkpt lat="45.77405" lon="6.5371">
        <ele>1639</ele>
        <time>2026-07-12T09:34:01Z</time>
      </trkpt>
      <trkpt lat="45.774" lon="6.53715">
        <ele>1639</ele>
        <time>2026-07-12T09:34:02Z</time>
      </trkpt>
      <trkpt lat="45.77395" lon="6.5372">
        <ele>1639</ele>
        <time>2026-07-12T09:34:03Z</time>
      </trkpt>
      <trkpt lat="45.77391" lon="6.53725">
        <ele>1639</ele>
        <time>2026-07-12T09:34:04Z</time>
      </trkpt>
      <trkpt lat="45.77387" lon="6.5373">
        <ele>1635.2</ele>
        <time>2026-07-12T09:34:05Z</time>
      </trkpt>
      <trkpt lat="45.77384" lon="6.53733">
        <ele>1635.2</ele>
        <time>2026-07-12T09:34:06Z</time>
      </trkpt>
      <trkpt lat="45.7738" lon="6.53736">
        <ele>1635.2</ele>
        <time>2026-07-12T09:34:07Z</time>
      </trkpt>
      <trkpt lat="45.77376" lon="6.5374">
        <ele>1635.2</ele>
        <time>2026-07-12T09:34:08Z</time>
      </trkpt>
      <trkpt lat="45.77371" lon="6.53743">
        <ele>1634</ele>
        <time>2026-07-12T09:34:09Z</time>
      </trkpt>
      <trkpt lat="45.77363" lon="6.53746">
        <ele>1631.8</ele>
        <time>2026-07-12T09:34:10Z</time>
      </trkpt>
      <trkpt lat="45.77357" lon="6.5375">
        <ele>1630</ele>
        <time>2026-07-12T09:34:11Z</time>
      </trkpt>
      <trkpt lat="45.77351" lon="6.53753">
        <ele>1628.8</ele>
        <time>2026-07-12T09:34:12Z</time>
      </trkpt>
      <trkpt lat="45.77346" lon="6.53757">
        <ele>1627</ele>
        <time>2026-07-12T09:34:13Z</time>
      </trkpt>
      <trkpt lat="45.77341" lon="6.53762">
        <ele>1627</ele>
        <time>2026-07-12T09:34:14Z</time>
      </trkpt>
      <trkpt lat="45.77337" lon="6.53766">
        <ele>1627</ele>
        <time>2026-07-12T09:34:15Z</time>
      </trkpt>
      <trkpt lat="45.77333" lon="6.53771">
        <ele>1627</ele>
        <time>2026-07-12T09:34:16Z</time>
      </trkpt>
      <trkpt lat="45.77328" lon="6.53776">
        <ele>1622.2</ele>
        <time>2026-07-12T09:34:17Z</time>
      </trkpt>
      <trkpt lat="45.77324" lon="6.5378">
        <ele>1622</ele>
        <time>2026-07-12T09:34:18Z</time>
      </trkpt>
      <trkpt lat="45.77319" lon="6.53784">
        <ele>1621.2</ele>
        <time>2026-07-12T09:34:19Z</time>
      </trkpt>
      <trkpt lat="45.77315" lon="6.53786">
        <ele>1620</ele>
        <time>2026-07-12T09:34:20Z</time>
      </trkpt>
      <trkpt lat="45.77312" lon="6.53785">
        <ele>1619.2</ele>
        <time>2026-07-12T09:34:21Z</time>
      </trkpt>
      <trkpt lat="45.77308" lon="6.53785">
        <ele>1617.6</ele>
        <time>2026-07-12T09:34:22Z</time>
      </trkpt>
      <trkpt lat="45.77304" lon="6.53783">
        <ele>1616.8</ele>
        <time>2026-07-12T09:34:23Z</time>
      </trkpt>
      <trkpt lat="45.773" lon="6.5378">
        <ele>1616.4</ele>
        <time>2026-07-12T09:34:24Z</time>
      </trkpt>
      <trkpt lat="45.77298" lon="6.53775">
        <ele>1614.8</ele>
        <time>2026-07-12T09:34:25Z</time>
      </trkpt>
      <trkpt lat="45.77295" lon="6.5377">
        <ele>1614.8</ele>
        <time>2026-07-12T09:34:26Z</time>
      </trkpt>
      <trkpt lat="45.77293" lon="6.53763">
        <ele>1614.2</ele>
        <time>2026-07-12T09:34:27Z</time>
      </trkpt>
      <trkpt lat="45.7729" lon="6.53757">
        <ele>1613.2</ele>
        <time>2026-07-12T09:34:28Z</time>
      </trkpt>
      <trkpt lat="45.77288" lon="6.53753">
        <ele>1611.4</ele>
        <time>2026-07-12T09:34:29Z</time>
      </trkpt>
      <trkpt lat="45.77287" lon="6.5375">
        <ele>1611.4</ele>
        <time>2026-07-12T09:34:30Z</time>
      </trkpt>
      <trkpt lat="45.77285" lon="6.53746">
        <ele>1611.4</ele>
        <time>2026-07-12T09:34:31Z</time>
      </trkpt>
      <trkpt lat="45.77283" lon="6.53744">
        <ele>1611.4</ele>
        <time>2026-07-12T09:34:32Z</time>
      </trkpt>
      <trkpt lat="45.77282" lon="6.53739">
        <ele>1610.4</ele>
        <time>2026-07-12T09:34:33Z</time>
      </trkpt>
      <trkpt lat="45.7728" lon="6.53735">
        <ele>1609.4</ele>
        <time>2026-07-12T09:34:34Z</time>
      </trkpt>
      <trkpt lat="45.77278" lon="6.5373">
        <ele>1608.4</ele>
        <time>2026-07-12T09:34:35Z</time>
      </trkpt>
      <trkpt lat="45.77276" lon="6.53726">
        <ele>1608.2</ele>
        <time>2026-07-12T09:34:36Z</time>
      </trkpt>
      <trkpt lat="45.77274" lon="6.53722">
        <ele>1608</ele>
        <time>2026-07-12T09:34:37Z</time>
      </trkpt>
      <trkpt lat="45.77272" lon="6.53719">
        <ele>1607.2</ele>
        <time>2026-07-12T09:34:38Z</time>
      </trkpt>
      <trkpt lat="45.7727" lon="6.53716">
        <ele>1606.8</ele>
        <time>2026-07-12T09:34:39Z</time>
      </trkpt>
      <trkpt lat="45.77266" lon="6.53716">
        <ele>1605.8</ele>
        <time>2026-07-12T09:34:40Z</time>
      </trkpt>
      <trkpt lat="45.77262" lon="6.53716">
        <ele>1605.8</ele>
        <time>2026-07-12T09:34:41Z</time>
      </trkpt>
      <trkpt lat="45.77258" lon="6.53716">
        <ele>1605.8</ele>
        <time>2026-07-12T09:34:42Z</time>
      </trkpt>
      <trkpt lat="45.77254" lon="6.53716">
        <ele>1605.8</ele>
        <time>2026-07-12T09:34:43Z</time>
      </trkpt>
      <trkpt lat="45.77252" lon="6.53717">
        <ele>1605.8</ele>
        <time>2026-07-12T09:34:44Z</time>
      </trkpt>
      <trkpt lat="45.7725" lon="6.53717">
        <ele>1605.8</ele>
        <time>2026-07-12T09:34:45Z</time>
      </trkpt>
      <trkpt lat="45.77249" lon="6.53717">
        <ele>1579.6</ele>
        <time>2026-07-12T09:34:46Z</time>
      </trkpt>
      <trkpt lat="45.77248" lon="6.53717">
        <ele>1579.6</ele>
        <time>2026-07-12T09:34:47Z</time>
      </trkpt>
      <trkpt lat="45.77247" lon="6.53717">
        <ele>1579.6</ele>
        <time>2026-07-12T09:34:48Z</time>
      </trkpt>
      <trkpt lat="45.77246" lon="6.53709">
        <ele>1601</ele>
        <time>2026-07-12T09:35:09Z</time>
      </trkpt>
      <trkpt lat="45.77245" lon="6.53704">
        <ele>1600.2</ele>
        <time>2026-07-12T09:35:10Z</time>
      </trkpt>
      <trkpt lat="45.77243" lon="6.53699">
        <ele>1600.2</ele>
        <time>2026-07-12T09:35:11Z</time>
      </trkpt>
      <trkpt lat="45.77242" lon="6.53693">
        <ele>1600.2</ele>
        <time>2026-07-12T09:35:12Z</time>
      </trkpt>
      <trkpt lat="45.77242" lon="6.53689">
        <ele>1600.2</ele>
        <time>2026-07-12T09:35:13Z</time>
      </trkpt>
      <trkpt lat="45.77241" lon="6.53684">
        <ele>1599.2</ele>
        <time>2026-07-12T09:35:14Z</time>
      </trkpt>
      <trkpt lat="45.77242" lon="6.5368">
        <ele>1599.2</ele>
        <time>2026-07-12T09:35:15Z</time>
      </trkpt>
      <trkpt lat="45.77242" lon="6.53677">
        <ele>1598.6</ele>
        <time>2026-07-12T09:35:16Z</time>
      </trkpt>
      <trkpt lat="45.77242" lon="6.53673">
        <ele>1598.6</ele>
        <time>2026-07-12T09:35:17Z</time>
      </trkpt>
      <trkpt lat="45.77242" lon="6.5367">
        <ele>1598.6</ele>
        <time>2026-07-12T09:35:18Z</time>
      </trkpt>
      <trkpt lat="45.77242" lon="6.53667">
        <ele>1598.6</ele>
        <time>2026-07-12T09:35:19Z</time>
      </trkpt>
      <trkpt lat="45.77243" lon="6.53664">
        <ele>1598.6</ele>
        <time>2026-07-12T09:35:20Z</time>
      </trkpt>
      <trkpt lat="45.77244" lon="6.5366">
        <ele>1598.6</ele>
        <time>2026-07-12T09:35:21Z</time>
      </trkpt>
      <trkpt lat="45.77245" lon="6.53657">
        <ele>1599.2</ele>
        <time>2026-07-12T09:35:22Z</time>
      </trkpt>
      <trkpt lat="45.77247" lon="6.53655">
        <ele>1599.6</ele>
        <time>2026-07-12T09:35:23Z</time>
      </trkpt>
      <trkpt lat="45.77249" lon="6.53652">
        <ele>1599.8</ele>
        <time>2026-07-12T09:35:24Z</time>
      </trkpt>
      <trkpt lat="45.77252" lon="6.5365">
        <ele>1600.2</ele>
        <time>2026-07-12T09:35:25Z</time>
      </trkpt>
      <trkpt lat="45.77256" lon="6.53649">
        <ele>1600.4</ele>
        <time>2026-07-12T09:35:26Z</time>
      </trkpt>
      <trkpt lat="45.7726" lon="6.53647">
        <ele>1600.4</ele>
        <time>2026-07-12T09:35:27Z</time>
      </trkpt>
      <trkpt lat="45.77264" lon="6.53646">
        <ele>1600.6</ele>
        <time>2026-07-12T09:35:28Z</time>
      </trkpt>
      <trkpt lat="45.77269" lon="6.53644">
        <ele>1600.6</ele>
        <time>2026-07-12T09:35:29Z</time>
      </trkpt>
      <trkpt lat="45.77273" lon="6.53642">
        <ele>1600.6</ele>
        <time>2026-07-12T09:35:30Z</time>
      </trkpt>
      <trkpt lat="45.77277" lon="6.53639">
        <ele>1600.6</ele>
        <time>2026-07-12T09:35:31Z</time>
      </trkpt>
      <trkpt lat="45.7728" lon="6.53637">
        <ele>1600.6</ele>
        <time>2026-07-12T09:35:32Z</time>
      </trkpt>
      <trkpt lat="45.77282" lon="6.53634">
        <ele>1600.6</ele>
        <time>2026-07-12T09:35:33Z</time>
      </trkpt>
      <trkpt lat="45.77284" lon="6.5363">
        <ele>1599.6</ele>
        <time>2026-07-12T09:35:34Z</time>
      </trkpt>
      <trkpt lat="45.77285" lon="6.53625">
        <ele>1598.6</ele>
        <time>2026-07-12T09:35:35Z</time>
      </trkpt>
      <trkpt lat="45.77286" lon="6.5362">
        <ele>1596.2</ele>
        <time>2026-07-12T09:35:36Z</time>
      </trkpt>
      <trkpt lat="45.77288" lon="6.53613">
        <ele>1594.8</ele>
        <time>2026-07-12T09:35:37Z</time>
      </trkpt>
      <trkpt lat="45.7729" lon="6.53604">
        <ele>1593.6</ele>
        <time>2026-07-12T09:35:38Z</time>
      </trkpt>
      <trkpt lat="45.77293" lon="6.53596">
        <ele>1593.6</ele>
        <time>2026-07-12T09:35:39Z</time>
      </trkpt>
      <trkpt lat="45.77294" lon="6.53591">
        <ele>1593.6</ele>
        <time>2026-07-12T09:35:40Z</time>
      </trkpt>
      <trkpt lat="45.77296" lon="6.53586">
        <ele>1593.6</ele>
        <time>2026-07-12T09:35:41Z</time>
      </trkpt>
      <trkpt lat="45.77298" lon="6.5358">
        <ele>1593.6</ele>
        <time>2026-07-12T09:35:42Z</time>
      </trkpt>
      <trkpt lat="45.77299" lon="6.53573">
        <ele>1593.6</ele>
        <time>2026-07-12T09:35:43Z</time>
      </trkpt>
      <trkpt lat="45.77299" lon="6.53568">
        <ele>1593.6</ele>
        <time>2026-07-12T09:35:44Z</time>
      </trkpt>
      <trkpt lat="45.773" lon="6.53563">
        <ele>1593.6</ele>
        <time>2026-07-12T09:35:45Z</time>
      </trkpt>
      <trkpt lat="45.77301" lon="6.53558">
        <ele>1592.6</ele>
        <time>2026-07-12T09:35:46Z</time>
      </trkpt>
      <trkpt lat="45.77303" lon="6.53555">
        <ele>1591.6</ele>
        <time>2026-07-12T09:35:47Z</time>
      </trkpt>
      <trkpt lat="45.77304" lon="6.5355">
        <ele>1590.6</ele>
        <time>2026-07-12T09:35:48Z</time>
      </trkpt>
      <trkpt lat="45.77306" lon="6.53547">
        <ele>1588.6</ele>
        <time>2026-07-12T09:35:49Z</time>
      </trkpt>
      <trkpt lat="45.77307" lon="6.53546">
        <ele>1588.6</ele>
        <time>2026-07-12T09:35:50Z</time>
      </trkpt>
      <trkpt lat="45.77308" lon="6.53544">
        <ele>1588.6</ele>
        <time>2026-07-12T09:35:51Z</time>
      </trkpt>
      <trkpt lat="45.77308" lon="6.53543">
        <ele>1588.6</ele>
        <time>2026-07-12T09:35:52Z</time>
      </trkpt>
      <trkpt lat="45.77308" lon="6.5354">
        <ele>1584.8</ele>
        <time>2026-07-12T09:35:53Z</time>
      </trkpt>
      <trkpt lat="45.77309" lon="6.53537">
        <ele>1583.8</ele>
        <time>2026-07-12T09:35:54Z</time>
      </trkpt>
      <trkpt lat="45.77309" lon="6.53534">
        <ele>1582.4</ele>
        <time>2026-07-12T09:35:55Z</time>
      </trkpt>
      <trkpt lat="45.7731" lon="6.53531">
        <ele>1582.4</ele>
        <time>2026-07-12T09:35:56Z</time>
      </trkpt>
      <trkpt lat="45.77312" lon="6.53528">
        <ele>1582.4</ele>
        <time>2026-07-12T09:35:57Z</time>
      </trkpt>
      <trkpt lat="45.77313" lon="6.53526">
        <ele>1582.4</ele>
        <time>2026-07-12T09:35:58Z</time>
      </trkpt>
      <trkpt lat="45.77315" lon="6.53526">
        <ele>1582.4</ele>
        <time>2026-07-12T09:35:59Z</time>
      </trkpt>
      <trkpt lat="45.77317" lon="6.53521">
        <ele>1582.4</ele>
        <time>2026-07-12T09:36:00Z</time>
      </trkpt>
      <trkpt lat="45.77318" lon="6.53515">
        <ele>1581.4</ele>
        <time>2026-07-12T09:36:01Z</time>
      </trkpt>
      <trkpt lat="45.77317" lon="6.53511">
        <ele>1580.4</ele>
        <time>2026-07-12T09:36:02Z</time>
      </trkpt>
      <trkpt lat="45.77318" lon="6.53509">
        <ele>1579.4</ele>
        <time>2026-07-12T09:36:03Z</time>
      </trkpt>
      <trkpt lat="45.77318" lon="6.53508">
        <ele>1578.4</ele>
        <time>2026-07-12T09:36:04Z</time>
      </trkpt>
      <trkpt lat="45.77319" lon="6.53506">
        <ele>1577.4</ele>
        <time>2026-07-12T09:36:05Z</time>
      </trkpt>
      <trkpt lat="45.77319" lon="6.535">
        <ele>1576.6</ele>
        <time>2026-07-12T09:36:06Z</time>
      </trkpt>
      <trkpt lat="45.77319" lon="6.53494">
        <ele>1575.6</ele>
        <time>2026-07-12T09:36:07Z</time>
      </trkpt>
      <trkpt lat="45.77318" lon="6.53491">
        <ele>1574.8</ele>
        <time>2026-07-12T09:36:08Z</time>
      </trkpt>
      <trkpt lat="45.77317" lon="6.53488">
        <ele>1574.2</ele>
        <time>2026-07-12T09:36:09Z</time>
      </trkpt>
      <trkpt lat="45.77315" lon="6.53485">
        <ele>1574.2</ele>
        <time>2026-07-12T09:36:10Z</time>
      </trkpt>
      <trkpt lat="45.77313" lon="6.53482">
        <ele>1574.2</ele>
        <time>2026-07-12T09:36:11Z</time>
      </trkpt>
      <trkpt lat="45.77311" lon="6.5348">
        <ele>1574.2</ele>
        <time>2026-07-12T09:36:12Z</time>
      </trkpt>
      <trkpt lat="45.7731" lon="6.53477">
        <ele>1574.2</ele>
        <time>2026-07-12T09:36:13Z</time>
      </trkpt>
      <trkpt lat="45.77311" lon="6.53475">
        <ele>1574.2</ele>
        <time>2026-07-12T09:36:14Z</time>
      </trkpt>
      <trkpt lat="45.7731" lon="6.53469">
        <ele>1570.8</ele>
        <time>2026-07-12T09:36:15Z</time>
      </trkpt>
      <trkpt lat="45.7731" lon="6.53463">
        <ele>1569.6</ele>
        <time>2026-07-12T09:36:16Z</time>
      </trkpt>
      <trkpt lat="45.7731" lon="6.53458">
        <ele>1569.6</ele>
        <time>2026-07-12T09:36:17Z</time>
      </trkpt>
      <trkpt lat="45.77311" lon="6.53452">
        <ele>1569.6</ele>
        <time>2026-07-12T09:36:18Z</time>
      </trkpt>
      <trkpt lat="45.77309" lon="6.53444">
        <ele>1569.6</ele>
        <time>2026-07-12T09:36:19Z</time>
      </trkpt>
      <trkpt lat="45.77309" lon="6.53438">
        <ele>1569.6</ele>
        <time>2026-07-12T09:36:20Z</time>
      </trkpt>
      <trkpt lat="45.77309" lon="6.53431">
        <ele>1568.6</ele>
        <time>2026-07-12T09:36:21Z</time>
      </trkpt>
      <trkpt lat="45.77308" lon="6.53424">
        <ele>1567.6</ele>
        <time>2026-07-12T09:36:22Z</time>
      </trkpt>
      <trkpt lat="45.77307" lon="6.5342">
        <ele>1566.6</ele>
        <time>2026-07-12T09:36:23Z</time>
      </trkpt>
      <trkpt lat="45.77307" lon="6.53416">
        <ele>1564.8</ele>
        <time>2026-07-12T09:36:24Z</time>
      </trkpt>
      <trkpt lat="45.77308" lon="6.53413">
        <ele>1564.8</ele>
        <time>2026-07-12T09:36:25Z</time>
      </trkpt>
      <trkpt lat="45.77307" lon="6.53411">
        <ele>1564.8</ele>
        <time>2026-07-12T09:36:26Z</time>
      </trkpt>
      <trkpt lat="45.77307" lon="6.53408">
        <ele>1564.8</ele>
        <time>2026-07-12T09:36:27Z</time>
      </trkpt>
      <trkpt lat="45.77306" lon="6.53404">
        <ele>1564.8</ele>
        <time>2026-07-12T09:36:28Z</time>
      </trkpt>
      <trkpt lat="45.77306" lon="6.53401">
        <ele>1564.8</ele>
        <time>2026-07-12T09:36:29Z</time>
      </trkpt>
      <trkpt lat="45.77307" lon="6.53398">
        <ele>1563.8</ele>
        <time>2026-07-12T09:36:30Z</time>
      </trkpt>
      <trkpt lat="45.77307" lon="6.53395">
        <ele>1562.8</ele>
        <time>2026-07-12T09:36:31Z</time>
      </trkpt>
      <trkpt lat="45.77306" lon="6.53391">
        <ele>1561.8</ele>
        <time>2026-07-12T09:36:32Z</time>
      </trkpt>
      <trkpt lat="45.77305" lon="6.53389">
        <ele>1560.8</ele>
        <time>2026-07-12T09:36:33Z</time>
      </trkpt>
      <trkpt lat="45.77304" lon="6.53386">
        <ele>1559.8</ele>
        <time>2026-07-12T09:36:34Z</time>
      </trkpt>
      <trkpt lat="45.77303" lon="6.53383">
        <ele>1555</ele>
        <time>2026-07-12T09:36:35Z</time>
      </trkpt>
      <trkpt lat="45.77302" lon="6.53381">
        <ele>1555</ele>
        <time>2026-07-12T09:36:36Z</time>
      </trkpt>
      <trkpt lat="45.77301" lon="6.53378">
        <ele>1555</ele>
        <time>2026-07-12T09:36:37Z</time>
      </trkpt>
      <trkpt lat="45.773" lon="6.53374">
        <ele>1556</ele>
        <time>2026-07-12T09:36:38Z</time>
      </trkpt>
      <trkpt lat="45.773" lon="6.53366">
        <ele>1557</ele>
        <time>2026-07-12T09:36:39Z</time>
      </trkpt>
      <trkpt lat="45.773" lon="6.5336">
        <ele>1557.8</ele>
        <time>2026-07-12T09:36:40Z</time>
      </trkpt>
      <trkpt lat="45.77303" lon="6.53358">
        <ele>1558.6</ele>
        <time>2026-07-12T09:36:41Z</time>
      </trkpt>
      <trkpt lat="45.77305" lon="6.53355">
        <ele>1558.6</ele>
        <time>2026-07-12T09:36:42Z</time>
      </trkpt>
      <trkpt lat="45.77307" lon="6.53351">
        <ele>1558.6</ele>
        <time>2026-07-12T09:36:43Z</time>
      </trkpt>
      <trkpt lat="45.77309" lon="6.5335">
        <ele>1558.6</ele>
        <time>2026-07-12T09:36:44Z</time>
      </trkpt>
      <trkpt lat="45.77311" lon="6.53347">
        <ele>1558.6</ele>
        <time>2026-07-12T09:36:45Z</time>
      </trkpt>
      <trkpt lat="45.77313" lon="6.53343">
        <ele>1557.6</ele>
        <time>2026-07-12T09:36:46Z</time>
      </trkpt>
      <trkpt lat="45.77314" lon="6.53338">
        <ele>1557</ele>
        <time>2026-07-12T09:36:47Z</time>
      </trkpt>
      <trkpt lat="45.77316" lon="6.53333">
        <ele>1556</ele>
        <time>2026-07-12T09:36:48Z</time>
      </trkpt>
      <trkpt lat="45.77319" lon="6.53329">
        <ele>1555.2</ele>
        <time>2026-07-12T09:36:49Z</time>
      </trkpt>
      <trkpt lat="45.77321" lon="6.53324">
        <ele>1555.2</ele>
        <time>2026-07-12T09:36:50Z</time>
      </trkpt>
      <trkpt lat="45.77324" lon="6.53321">
        <ele>1555.2</ele>
        <time>2026-07-12T09:36:51Z</time>
      </trkpt>
      <trkpt lat="45.77324" lon="6.53317">
        <ele>1555.2</ele>
        <time>2026-07-12T09:36:52Z</time>
      </trkpt>
      <trkpt lat="45.77326" lon="6.53314">
        <ele>1554</ele>
        <time>2026-07-12T09:36:53Z</time>
      </trkpt>
      <trkpt lat="45.77328" lon="6.5331">
        <ele>1554</ele>
        <time>2026-07-12T09:36:54Z</time>
      </trkpt>
      <trkpt lat="45.77331" lon="6.53307">
        <ele>1554</ele>
        <time>2026-07-12T09:36:55Z</time>
      </trkpt>
      <trkpt lat="45.77334" lon="6.53305">
        <ele>1554</ele>
        <time>2026-07-12T09:36:56Z</time>
      </trkpt>
      <trkpt lat="45.77336" lon="6.53303">
        <ele>1553</ele>
        <time>2026-07-12T09:36:57Z</time>
      </trkpt>
      <trkpt lat="45.77338" lon="6.53302">
        <ele>1552.2</ele>
        <time>2026-07-12T09:36:58Z</time>
      </trkpt>
      <trkpt lat="45.77339" lon="6.533">
        <ele>1551.6</ele>
        <time>2026-07-12T09:36:59Z</time>
      </trkpt>
      <trkpt lat="45.7734" lon="6.53297">
        <ele>1550</ele>
        <time>2026-07-12T09:37:00Z</time>
      </trkpt>
      <trkpt lat="45.77345" lon="6.53295">
        <ele>1549.6</ele>
        <time>2026-07-12T09:37:01Z</time>
      </trkpt>
      <trkpt lat="45.7735" lon="6.53294">
        <ele>1549.6</ele>
        <time>2026-07-12T09:37:02Z</time>
      </trkpt>
      <trkpt lat="45.77354" lon="6.5329">
        <ele>1548.8</ele>
        <time>2026-07-12T09:37:03Z</time>
      </trkpt>
      <trkpt lat="45.77357" lon="6.53289">
        <ele>1548.8</ele>
        <time>2026-07-12T09:37:04Z</time>
      </trkpt>
      <trkpt lat="45.7736" lon="6.53287">
        <ele>1548.8</ele>
        <time>2026-07-12T09:37:05Z</time>
      </trkpt>
      <trkpt lat="45.77363" lon="6.53286">
        <ele>1548.8</ele>
        <time>2026-07-12T09:37:06Z</time>
      </trkpt>
      <trkpt lat="45.77366" lon="6.53286">
        <ele>1548.2</ele>
        <time>2026-07-12T09:37:07Z</time>
      </trkpt>
      <trkpt lat="45.77367" lon="6.53285">
        <ele>1547.4</ele>
        <time>2026-07-12T09:37:08Z</time>
      </trkpt>
      <trkpt lat="45.77368" lon="6.53284">
        <ele>1547.4</ele>
        <time>2026-07-12T09:37:09Z</time>
      </trkpt>
      <trkpt lat="45.77369" lon="6.53283">
        <ele>1547.4</ele>
        <time>2026-07-12T09:37:10Z</time>
      </trkpt>
      <trkpt lat="45.77371" lon="6.53283">
        <ele>1547.6</ele>
        <time>2026-07-12T09:37:11Z</time>
      </trkpt>
      <trkpt lat="45.7738" lon="6.53265">
        <ele>1544</ele>
        <time>2026-07-12T09:37:20Z</time>
      </trkpt>
      <trkpt lat="45.77379" lon="6.53261">
        <ele>1544</ele>
        <time>2026-07-12T09:37:21Z</time>
      </trkpt>
      <trkpt lat="45.77381" lon="6.53258">
        <ele>1544</ele>
        <time>2026-07-12T09:37:22Z</time>
      </trkpt>
      <trkpt lat="45.77383" lon="6.53255">
        <ele>1544</ele>
        <time>2026-07-12T09:37:23Z</time>
      </trkpt>
      <trkpt lat="45.77386" lon="6.53254">
        <ele>1543</ele>
        <time>2026-07-12T09:37:24Z</time>
      </trkpt>
      <trkpt lat="45.77388" lon="6.53251">
        <ele>1542</ele>
        <time>2026-07-12T09:37:25Z</time>
      </trkpt>
      <trkpt lat="45.7739" lon="6.53247">
        <ele>1541</ele>
        <time>2026-07-12T09:37:26Z</time>
      </trkpt>
      <trkpt lat="45.77396" lon="6.53245">
        <ele>1540.8</ele>
        <time>2026-07-12T09:37:27Z</time>
      </trkpt>
      <trkpt lat="45.77399" lon="6.53245">
        <ele>1539.8</ele>
        <time>2026-07-12T09:37:28Z</time>
      </trkpt>
      <trkpt lat="45.77402" lon="6.53244">
        <ele>1539.8</ele>
        <time>2026-07-12T09:37:29Z</time>
      </trkpt>
      <trkpt lat="45.77405" lon="6.53244">
        <ele>1539.8</ele>
        <time>2026-07-12T09:37:30Z</time>
      </trkpt>
      <trkpt lat="45.77408" lon="6.53243">
        <ele>1539.8</ele>
        <time>2026-07-12T09:37:31Z</time>
      </trkpt>
      <trkpt lat="45.77411" lon="6.53243">
        <ele>1538.8</ele>
        <time>2026-07-12T09:37:32Z</time>
      </trkpt>
      <trkpt lat="45.77413" lon="6.53242">
        <ele>1538.8</ele>
        <time>2026-07-12T09:37:33Z</time>
      </trkpt>
      <trkpt lat="45.77416" lon="6.53242">
        <ele>1538.4</ele>
        <time>2026-07-12T09:37:34Z</time>
      </trkpt>
      <trkpt lat="45.77419" lon="6.53242">
        <ele>1538.4</ele>
        <time>2026-07-12T09:37:35Z</time>
      </trkpt>
      <trkpt lat="45.77421" lon="6.53242">
        <ele>1538.4</ele>
        <time>2026-07-12T09:37:36Z</time>
      </trkpt>
      <trkpt lat="45.77423" lon="6.53241">
        <ele>1538.6</ele>
        <time>2026-07-12T09:37:37Z</time>
      </trkpt>
      <trkpt lat="45.77425" lon="6.53241">
        <ele>1538.6</ele>
        <time>2026-07-12T09:37:38Z</time>
      </trkpt>
      <trkpt lat="45.77428" lon="6.53241">
        <ele>1538.6</ele>
        <time>2026-07-12T09:37:39Z</time>
      </trkpt>
      <trkpt lat="45.7743" lon="6.53242">
        <ele>1538.6</ele>
        <time>2026-07-12T09:37:40Z</time>
      </trkpt>
      <trkpt lat="45.77432" lon="6.53241">
        <ele>1538.2</ele>
        <time>2026-07-12T09:37:41Z</time>
      </trkpt>
      <trkpt lat="45.77434" lon="6.53241">
        <ele>1537.8</ele>
        <time>2026-07-12T09:37:42Z</time>
      </trkpt>
      <trkpt lat="45.77435" lon="6.53242">
        <ele>1537.8</ele>
        <time>2026-07-12T09:37:43Z</time>
      </trkpt>
      <trkpt lat="45.77436" lon="6.53241">
        <ele>1537.8</ele>
        <time>2026-07-12T09:37:44Z</time>
      </trkpt>
      <trkpt lat="45.77443" lon="6.53239">
        <ele>1535.4</ele>
        <time>2026-07-12T09:38:05Z</time>
      </trkpt>
      <trkpt lat="45.77444" lon="6.53238">
        <ele>1535</ele>
        <time>2026-07-12T09:38:06Z</time>
      </trkpt>
      <trkpt lat="45.77445" lon="6.53236">
        <ele>1534.4</ele>
        <time>2026-07-12T09:38:07Z</time>
      </trkpt>
      <trkpt lat="45.77446" lon="6.53234">
        <ele>1534.4</ele>
        <time>2026-07-12T09:38:08Z</time>
      </trkpt>
      <trkpt lat="45.77448" lon="6.53233">
        <ele>1534.4</ele>
        <time>2026-07-12T09:38:09Z</time>
      </trkpt>
      <trkpt lat="45.77449" lon="6.53233">
        <ele>1534.4</ele>
        <time>2026-07-12T09:38:10Z</time>
      </trkpt>
      <trkpt lat="45.7745" lon="6.53233">
        <ele>1533.6</ele>
        <time>2026-07-12T09:38:11Z</time>
      </trkpt>
      <trkpt lat="45.77451" lon="6.53233">
        <ele>1533.4</ele>
        <time>2026-07-12T09:38:12Z</time>
      </trkpt>
      <trkpt lat="45.77453" lon="6.53234">
        <ele>1532.8</ele>
        <time>2026-07-12T09:38:13Z</time>
      </trkpt>
      <trkpt lat="45.77454" lon="6.53234">
        <ele>1532.6</ele>
        <time>2026-07-12T09:38:14Z</time>
      </trkpt>
      <trkpt lat="45.77455" lon="6.53234">
        <ele>1532.2</ele>
        <time>2026-07-12T09:38:15Z</time>
      </trkpt>
      <trkpt lat="45.77457" lon="6.53235">
        <ele>1531.8</ele>
        <time>2026-07-12T09:38:16Z</time>
      </trkpt>
      <trkpt lat="45.77458" lon="6.53236">
        <ele>1531.2</ele>
        <time>2026-07-12T09:38:17Z</time>
      </trkpt>
      <trkpt lat="45.77458" lon="6.53236">
        <ele>1531.2</ele>
        <time>2026-07-12T09:38:18Z</time>
      </trkpt>
      <trkpt lat="45.77459" lon="6.53235">
        <ele>1531.2</ele>
        <time>2026-07-12T09:38:19Z</time>
      </trkpt>
      <trkpt lat="45.77459" lon="6.53233">
        <ele>1531.2</ele>
        <time>2026-07-12T09:38:20Z</time>
      </trkpt>
      <trkpt lat="45.77471" lon="6.53194">
        <ele>1522</ele>
        <time>2026-07-12T09:39:19Z</time>
      </trkpt>
      <trkpt lat="45.77471" lon="6.53191">
        <ele>1519.6</ele>
        <time>2026-07-12T09:39:20Z</time>
      </trkpt>
      <trkpt lat="45.77473" lon="6.53189">
        <ele>1519.6</ele>
        <time>2026-07-12T09:39:21Z</time>
      </trkpt>
      <trkpt lat="45.77475" lon="6.53189">
        <ele>1518.8</ele>
        <time>2026-07-12T09:39:22Z</time>
      </trkpt>
      <trkpt lat="45.77476" lon="6.53187">
        <ele>1518</ele>
        <time>2026-07-12T09:39:23Z</time>
      </trkpt>
      <trkpt lat="45.77477" lon="6.53185">
        <ele>1517</ele>
        <time>2026-07-12T09:39:24Z</time>
      </trkpt>
      <trkpt lat="45.77478" lon="6.53182">
        <ele>1517</ele>
        <time>2026-07-12T09:39:25Z</time>
      </trkpt>
      <trkpt lat="45.77478" lon="6.53178">
        <ele>1517</ele>
        <time>2026-07-12T09:39:26Z</time>
      </trkpt>
      <trkpt lat="45.77478" lon="6.53174">
        <ele>1517</ele>
        <time>2026-07-12T09:39:27Z</time>
      </trkpt>
      <trkpt lat="45.77479" lon="6.53169">
        <ele>1516</ele>
        <time>2026-07-12T09:39:28Z</time>
      </trkpt>
      <trkpt lat="45.7748" lon="6.53164">
        <ele>1515</ele>
        <time>2026-07-12T09:39:29Z</time>
      </trkpt>
      <trkpt lat="45.77483" lon="6.53161">
        <ele>1515</ele>
        <time>2026-07-12T09:39:30Z</time>
      </trkpt>
      <trkpt lat="45.77485" lon="6.53158">
        <ele>1515</ele>
        <time>2026-07-12T09:39:31Z</time>
      </trkpt>
      <trkpt lat="45.77489" lon="6.53158">
        <ele>1515</ele>
        <time>2026-07-12T09:39:32Z</time>
      </trkpt>
      <trkpt lat="45.77493" lon="6.53158">
        <ele>1514</ele>
        <time>2026-07-12T09:39:33Z</time>
      </trkpt>
      <trkpt lat="45.77497" lon="6.53159">
        <ele>1513.2</ele>
        <time>2026-07-12T09:39:34Z</time>
      </trkpt>
      <trkpt lat="45.77499" lon="6.5316">
        <ele>1511.6</ele>
        <time>2026-07-12T09:39:35Z</time>
      </trkpt>
      <trkpt lat="45.77501" lon="6.53159">
        <ele>1511</ele>
        <time>2026-07-12T09:39:36Z</time>
      </trkpt>
      <trkpt lat="45.77503" lon="6.53156">
        <ele>1511</ele>
        <time>2026-07-12T09:39:37Z</time>
      </trkpt>
      <trkpt lat="45.77506" lon="6.53153">
        <ele>1511</ele>
        <time>2026-07-12T09:39:38Z</time>
      </trkpt>
      <trkpt lat="45.7751" lon="6.53148">
        <ele>1511</ele>
        <time>2026-07-12T09:39:39Z</time>
      </trkpt>
      <trkpt lat="45.77514" lon="6.53144">
        <ele>1510</ele>
        <time>2026-07-12T09:39:40Z</time>
      </trkpt>
      <trkpt lat="45.77517" lon="6.53141">
        <ele>1509</ele>
        <time>2026-07-12T09:39:41Z</time>
      </trkpt>
      <trkpt lat="45.77521" lon="6.53139">
        <ele>1508</ele>
        <time>2026-07-12T09:39:42Z</time>
      </trkpt>
      <trkpt lat="45.77525" lon="6.53136">
        <ele>1507</ele>
        <time>2026-07-12T09:39:43Z</time>
      </trkpt>
      <trkpt lat="45.77528" lon="6.53135">
        <ele>1506.4</ele>
        <time>2026-07-12T09:39:44Z</time>
      </trkpt>
      <trkpt lat="45.77529" lon="6.53133">
        <ele>1506</ele>
        <time>2026-07-12T09:39:45Z</time>
      </trkpt>
      <trkpt lat="45.77531" lon="6.53131">
        <ele>1506</ele>
        <time>2026-07-12T09:39:46Z</time>
      </trkpt>
      <trkpt lat="45.77532" lon="6.53128">
        <ele>1506</ele>
        <time>2026-07-12T09:39:47Z</time>
      </trkpt>
      <trkpt lat="45.77535" lon="6.53126">
        <ele>1506</ele>
        <time>2026-07-12T09:39:48Z</time>
      </trkpt>
      <trkpt lat="45.77537" lon="6.53125">
        <ele>1506</ele>
        <time>2026-07-12T09:39:49Z</time>
      </trkpt>
      <trkpt lat="45.77541" lon="6.53124">
        <ele>1506</ele>
        <time>2026-07-12T09:39:50Z</time>
      </trkpt>
      <trkpt lat="45.77544" lon="6.53123">
        <ele>1506</ele>
        <time>2026-07-12T09:39:51Z</time>
      </trkpt>
      <trkpt lat="45.77547" lon="6.53121">
        <ele>1506</ele>
        <time>2026-07-12T09:39:52Z</time>
      </trkpt>
      <trkpt lat="45.77552" lon="6.53118">
        <ele>1506</ele>
        <time>2026-07-12T09:39:53Z</time>
      </trkpt>
      <trkpt lat="45.77556" lon="6.53116">
        <ele>1505.4</ele>
        <time>2026-07-12T09:39:54Z</time>
      </trkpt>
      <trkpt lat="45.7756" lon="6.53113">
        <ele>1504.8</ele>
        <time>2026-07-12T09:39:55Z</time>
      </trkpt>
      <trkpt lat="45.77565" lon="6.5311">
        <ele>1504.4</ele>
        <time>2026-07-12T09:39:56Z</time>
      </trkpt>
      <trkpt lat="45.77569" lon="6.53107">
        <ele>1503.4</ele>
        <time>2026-07-12T09:39:57Z</time>
      </trkpt>
      <trkpt lat="45.77575" lon="6.53106">
        <ele>1503.4</ele>
        <time>2026-07-12T09:39:58Z</time>
      </trkpt>
      <trkpt lat="45.77581" lon="6.53104">
        <ele>1503.4</ele>
        <time>2026-07-12T09:39:59Z</time>
      </trkpt>
      <trkpt lat="45.77588" lon="6.53103">
        <ele>1503.4</ele>
        <time>2026-07-12T09:40:00Z</time>
      </trkpt>
      <trkpt lat="45.77595" lon="6.53101">
        <ele>1503.4</ele>
        <time>2026-07-12T09:40:01Z</time>
      </trkpt>
      <trkpt lat="45.77602" lon="6.53098">
        <ele>1502.2</ele>
        <time>2026-07-12T09:40:02Z</time>
      </trkpt>
      <trkpt lat="45.77608" lon="6.53096">
        <ele>1501.6</ele>
        <time>2026-07-12T09:40:03Z</time>
      </trkpt>
      <trkpt lat="45.77614" lon="6.53093">
        <ele>1501.6</ele>
        <time>2026-07-12T09:40:04Z</time>
      </trkpt>
      <trkpt lat="45.7762" lon="6.53089">
        <ele>1501.6</ele>
        <time>2026-07-12T09:40:05Z</time>
      </trkpt>
      <trkpt lat="45.77626" lon="6.53085">
        <ele>1501.8</ele>
        <time>2026-07-12T09:40:06Z</time>
      </trkpt>
      <trkpt lat="45.77631" lon="6.53081">
        <ele>1500.6</ele>
        <time>2026-07-12T09:40:07Z</time>
      </trkpt>
      <trkpt lat="45.77637" lon="6.53079">
        <ele>1499</ele>
        <time>2026-07-12T09:40:08Z</time>
      </trkpt>
      <trkpt lat="45.77642" lon="6.53076">
        <ele>1499</ele>
        <time>2026-07-12T09:40:09Z</time>
      </trkpt>
      <trkpt lat="45.77649" lon="6.53075">
        <ele>1499</ele>
        <time>2026-07-12T09:40:10Z</time>
      </trkpt>
      <trkpt lat="45.77656" lon="6.53074">
        <ele>1499</ele>
        <time>2026-07-12T09:40:11Z</time>
      </trkpt>
      <trkpt lat="45.77663" lon="6.53076">
        <ele>1498</ele>
        <time>2026-07-12T09:40:12Z</time>
      </trkpt>
      <trkpt lat="45.7767" lon="6.53081">
        <ele>1497</ele>
        <time>2026-07-12T09:40:13Z</time>
      </trkpt>
      <trkpt lat="45.77675" lon="6.53085">
        <ele>1496</ele>
        <time>2026-07-12T09:40:14Z</time>
      </trkpt>
      <trkpt lat="45.7768" lon="6.53088">
        <ele>1495</ele>
        <time>2026-07-12T09:40:15Z</time>
      </trkpt>
      <trkpt lat="45.77685" lon="6.53089">
        <ele>1494</ele>
        <time>2026-07-12T09:40:16Z</time>
      </trkpt>
      <trkpt lat="45.7769" lon="6.53087">
        <ele>1494</ele>
        <time>2026-07-12T09:40:17Z</time>
      </trkpt>
      <trkpt lat="45.77694" lon="6.53082">
        <ele>1494</ele>
        <time>2026-07-12T09:40:18Z</time>
      </trkpt>
      <trkpt lat="45.77698" lon="6.53078">
        <ele>1494</ele>
        <time>2026-07-12T09:40:19Z</time>
      </trkpt>
      <trkpt lat="45.77703" lon="6.53073">
        <ele>1491.8</ele>
        <time>2026-07-12T09:40:20Z</time>
      </trkpt>
      <trkpt lat="45.77708" lon="6.53069">
        <ele>1491.8</ele>
        <time>2026-07-12T09:40:21Z</time>
      </trkpt>
      <trkpt lat="45.77713" lon="6.53066">
        <ele>1491.8</ele>
        <time>2026-07-12T09:40:22Z</time>
      </trkpt>
      <trkpt lat="45.77719" lon="6.53062">
        <ele>1491.8</ele>
        <time>2026-07-12T09:40:23Z</time>
      </trkpt>
      <trkpt lat="45.77726" lon="6.5306">
        <ele>1488.8</ele>
        <time>2026-07-12T09:40:24Z</time>
      </trkpt>
      <trkpt lat="45.77733" lon="6.5306">
        <ele>1488</ele>
        <time>2026-07-12T09:40:25Z</time>
      </trkpt>
      <trkpt lat="45.77741" lon="6.5306">
        <ele>1486.2</ele>
        <time>2026-07-12T09:40:26Z</time>
      </trkpt>
      <trkpt lat="45.77748" lon="6.53062">
        <ele>1486.2</ele>
        <time>2026-07-12T09:40:27Z</time>
      </trkpt>
      <trkpt lat="45.77756" lon="6.53065">
        <ele>1486.2</ele>
        <time>2026-07-12T09:40:28Z</time>
      </trkpt>
      <trkpt lat="45.77763" lon="6.53067">
        <ele>1487.2</ele>
        <time>2026-07-12T09:40:29Z</time>
      </trkpt>
      <trkpt lat="45.77771" lon="6.53068">
        <ele>1487.2</ele>
        <time>2026-07-12T09:40:30Z</time>
      </trkpt>
      <trkpt lat="45.77779" lon="6.53069">
        <ele>1487.2</ele>
        <time>2026-07-12T09:40:31Z</time>
      </trkpt>
      <trkpt lat="45.77788" lon="6.5307">
        <ele>1486.6</ele>
        <time>2026-07-12T09:40:32Z</time>
      </trkpt>
      <trkpt lat="45.77795" lon="6.5307">
        <ele>1485.6</ele>
        <time>2026-07-12T09:40:33Z</time>
      </trkpt>
      <trkpt lat="45.77802" lon="6.5307">
        <ele>1484.6</ele>
        <time>2026-07-12T09:40:34Z</time>
      </trkpt>
      <trkpt lat="45.77809" lon="6.53069">
        <ele>1483.6</ele>
        <time>2026-07-12T09:40:35Z</time>
      </trkpt>
      <trkpt lat="45.77816" lon="6.53068">
        <ele>1483</ele>
        <time>2026-07-12T09:40:36Z</time>
      </trkpt>
      <trkpt lat="45.77823" lon="6.53067">
        <ele>1483</ele>
        <time>2026-07-12T09:40:37Z</time>
      </trkpt>
      <trkpt lat="45.77831" lon="6.53066">
        <ele>1483</ele>
        <time>2026-07-12T09:40:38Z</time>
      </trkpt>
      <trkpt lat="45.77839" lon="6.53066">
        <ele>1483</ele>
        <time>2026-07-12T09:40:39Z</time>
      </trkpt>
      <trkpt lat="45.77847" lon="6.53068">
        <ele>1479.4</ele>
        <time>2026-07-12T09:40:40Z</time>
      </trkpt>
      <trkpt lat="45.77854" lon="6.53071">
        <ele>1479.4</ele>
        <time>2026-07-12T09:40:41Z</time>
      </trkpt>
      <trkpt lat="45.77861" lon="6.53074">
        <ele>1479.4</ele>
        <time>2026-07-12T09:40:42Z</time>
      </trkpt>
      <trkpt lat="45.77867" lon="6.53075">
        <ele>1479.4</ele>
        <time>2026-07-12T09:40:43Z</time>
      </trkpt>
      <trkpt lat="45.77872" lon="6.53074">
        <ele>1478.2</ele>
        <time>2026-07-12T09:40:44Z</time>
      </trkpt>
      <trkpt lat="45.77877" lon="6.53074">
        <ele>1477.8</ele>
        <time>2026-07-12T09:40:45Z</time>
      </trkpt>
      <trkpt lat="45.77882" lon="6.53073">
        <ele>1477.2</ele>
        <time>2026-07-12T09:40:46Z</time>
      </trkpt>
      <trkpt lat="45.77887" lon="6.53073">
        <ele>1477.2</ele>
        <time>2026-07-12T09:40:47Z</time>
      </trkpt>
      <trkpt lat="45.77891" lon="6.53073">
        <ele>1477.2</ele>
        <time>2026-07-12T09:40:48Z</time>
      </trkpt>
      <trkpt lat="45.77895" lon="6.53075">
        <ele>1477.2</ele>
        <time>2026-07-12T09:40:49Z</time>
      </trkpt>
      <trkpt lat="45.77899" lon="6.53077">
        <ele>1476.2</ele>
        <time>2026-07-12T09:40:50Z</time>
      </trkpt>
      <trkpt lat="45.77903" lon="6.53081">
        <ele>1476.2</ele>
        <time>2026-07-12T09:40:51Z</time>
      </trkpt>
      <trkpt lat="45.77908" lon="6.53084">
        <ele>1476.2</ele>
        <time>2026-07-12T09:40:52Z</time>
      </trkpt>
      <trkpt lat="45.77912" lon="6.53088">
        <ele>1476.2</ele>
        <time>2026-07-12T09:40:53Z</time>
      </trkpt>
      <trkpt lat="45.77917" lon="6.53091">
        <ele>1475.2</ele>
        <time>2026-07-12T09:40:54Z</time>
      </trkpt>
      <trkpt lat="45.77921" lon="6.53094">
        <ele>1474.2</ele>
        <time>2026-07-12T09:40:55Z</time>
      </trkpt>
      <trkpt lat="45.77925" lon="6.53097">
        <ele>1473.2</ele>
        <time>2026-07-12T09:40:56Z</time>
      </trkpt>
      <trkpt lat="45.77928" lon="6.53098">
        <ele>1472.6</ele>
        <time>2026-07-12T09:40:57Z</time>
      </trkpt>
      <trkpt lat="45.7793" lon="6.531">
        <ele>1472.6</ele>
        <time>2026-07-12T09:40:58Z</time>
      </trkpt>
      <trkpt lat="45.77932" lon="6.53102">
        <ele>1472.6</ele>
        <time>2026-07-12T09:40:59Z</time>
      </trkpt>
      <trkpt lat="45.77933" lon="6.53101">
        <ele>1472.6</ele>
        <time>2026-07-12T09:41:00Z</time>
      </trkpt>
      <trkpt lat="45.77935" lon="6.531">
        <ele>1471.8</ele>
        <time>2026-07-12T09:41:01Z</time>
      </trkpt>
      <trkpt lat="45.77936" lon="6.53098">
        <ele>1470.8</ele>
        <time>2026-07-12T09:41:02Z</time>
      </trkpt>
      <trkpt lat="45.77935" lon="6.53095">
        <ele>1470.8</ele>
        <time>2026-07-12T09:41:03Z</time>
      </trkpt>
      <trkpt lat="45.77935" lon="6.53091">
        <ele>1470.8</ele>
        <time>2026-07-12T09:41:04Z</time>
      </trkpt>
      <trkpt lat="45.77934" lon="6.53087">
        <ele>1470.8</ele>
        <time>2026-07-12T09:41:05Z</time>
      </trkpt>
      <trkpt lat="45.77932" lon="6.53083">
        <ele>1469.8</ele>
        <time>2026-07-12T09:41:06Z</time>
      </trkpt>
      <trkpt lat="45.77929" lon="6.5308">
        <ele>1469</ele>
        <time>2026-07-12T09:41:07Z</time>
      </trkpt>
      <trkpt lat="45.77926" lon="6.53077">
        <ele>1469</ele>
        <time>2026-07-12T09:41:08Z</time>
      </trkpt>
      <trkpt lat="45.77924" lon="6.53073">
        <ele>1469</ele>
        <time>2026-07-12T09:41:09Z</time>
      </trkpt>
      <trkpt lat="45.77924" lon="6.53071">
        <ele>1469</ele>
        <time>2026-07-12T09:41:10Z</time>
      </trkpt>
      <trkpt lat="45.77924" lon="6.53069">
        <ele>1469</ele>
        <time>2026-07-12T09:41:11Z</time>
      </trkpt>
      <trkpt lat="45.77925" lon="6.53068">
        <ele>1469</ele>
        <time>2026-07-12T09:41:27Z</time>
      </trkpt>
      <trkpt lat="45.77927" lon="6.53067">
        <ele>1468</ele>
        <time>2026-07-12T09:41:28Z</time>
      </trkpt>
      <trkpt lat="45.77928" lon="6.53066">
        <ele>1467.4</ele>
        <time>2026-07-12T09:41:29Z</time>
      </trkpt>
      <trkpt lat="45.77929" lon="6.53066">
        <ele>1467.2</ele>
        <time>2026-07-12T09:41:30Z</time>
      </trkpt>
      <trkpt lat="45.7793" lon="6.53065">
        <ele>1467.2</ele>
        <time>2026-07-12T09:41:31Z</time>
      </trkpt>
      <trkpt lat="45.77932" lon="6.53066">
        <ele>1466.2</ele>
        <time>2026-07-12T09:41:32Z</time>
      </trkpt>
      <trkpt lat="45.77934" lon="6.53064">
        <ele>1466.2</ele>
        <time>2026-07-12T09:41:33Z</time>
      </trkpt>
      <trkpt lat="45.77934" lon="6.53063">
        <ele>1465.4</ele>
        <time>2026-07-12T09:41:34Z</time>
      </trkpt>
      <trkpt lat="45.77935" lon="6.53062">
        <ele>1465.4</ele>
        <time>2026-07-12T09:41:35Z</time>
      </trkpt>
      <trkpt lat="45.77935" lon="6.5306">
        <ele>1465.2</ele>
        <time>2026-07-12T09:41:36Z</time>
      </trkpt>
      <trkpt lat="45.77935" lon="6.53054">
        <ele>1462.6</ele>
        <time>2026-07-12T09:41:53Z</time>
      </trkpt>
      <trkpt lat="45.77933" lon="6.53053">
        <ele>1462.6</ele>
        <time>2026-07-12T09:41:54Z</time>
      </trkpt>
      <trkpt lat="45.77932" lon="6.5305">
        <ele>1461.8</ele>
        <time>2026-07-12T09:41:55Z</time>
      </trkpt>
      <trkpt lat="45.77933" lon="6.53049">
        <ele>1461.8</ele>
        <time>2026-07-12T09:41:56Z</time>
      </trkpt>
      <trkpt lat="45.77934" lon="6.53046">
        <ele>1461.8</ele>
        <time>2026-07-12T09:41:57Z</time>
      </trkpt>
      <trkpt lat="45.77934" lon="6.53044">
        <ele>1461.8</ele>
        <time>2026-07-12T09:41:58Z</time>
      </trkpt>
      <trkpt lat="45.77935" lon="6.53043">
        <ele>1461.8</ele>
        <time>2026-07-12T09:41:59Z</time>
      </trkpt>
      <trkpt lat="45.7793" lon="6.53014">
        <ele>1463.6</ele>
        <time>2026-07-12T09:43:49Z</time>
      </trkpt>
      <trkpt lat="45.7793" lon="6.53012">
        <ele>1463.6</ele>
        <time>2026-07-12T09:43:50Z</time>
      </trkpt>
      <trkpt lat="45.7793" lon="6.5301">
        <ele>1463.2</ele>
        <time>2026-07-12T09:43:51Z</time>
      </trkpt>
      <trkpt lat="45.77931" lon="6.53009">
        <ele>1463.2</ele>
        <time>2026-07-12T09:43:52Z</time>
      </trkpt>
      <trkpt lat="45.77932" lon="6.53009">
        <ele>1463.2</ele>
        <time>2026-07-12T09:43:53Z</time>
      </trkpt>
      <trkpt lat="45.77933" lon="6.53008">
        <ele>1463.4</ele>
        <time>2026-07-12T09:43:54Z</time>
      </trkpt>
      <trkpt lat="45.77935" lon="6.53008">
        <ele>1464.2</ele>
        <time>2026-07-12T09:43:55Z</time>
      </trkpt>
      <trkpt lat="45.77937" lon="6.53008">
        <ele>1464.2</ele>
        <time>2026-07-12T09:43:56Z</time>
      </trkpt>
      <trkpt lat="45.77939" lon="6.53006">
        <ele>1465</ele>
        <time>2026-07-12T09:43:57Z</time>
      </trkpt>
      <trkpt lat="45.77941" lon="6.53005">
        <ele>1465</ele>
        <time>2026-07-12T09:43:58Z</time>
      </trkpt>
      <trkpt lat="45.77943" lon="6.53004">
        <ele>1465</ele>
        <time>2026-07-12T09:43:59Z</time>
      </trkpt>
      <trkpt lat="45.77945" lon="6.53004">
        <ele>1464.2</ele>
        <time>2026-07-12T09:44:00Z</time>
      </trkpt>
      <trkpt lat="45.77947" lon="6.53004">
        <ele>1464.2</ele>
        <time>2026-07-12T09:44:01Z</time>
      </trkpt>
      <trkpt lat="45.77949" lon="6.53003">
        <ele>1464.2</ele>
        <time>2026-07-12T09:44:02Z</time>
      </trkpt>
      <trkpt lat="45.77951" lon="6.53003">
        <ele>1464.8</ele>
        <time>2026-07-12T09:44:03Z</time>
      </trkpt>
      <trkpt lat="45.77954" lon="6.53004">
        <ele>1464.8</ele>
        <time>2026-07-12T09:44:04Z</time>
      </trkpt>
      <trkpt lat="45.77956" lon="6.53004">
        <ele>1464.8</ele>
        <time>2026-07-12T09:44:05Z</time>
      </trkpt>
      <trkpt lat="45.77959" lon="6.53005">
        <ele>1464.8</ele>
        <time>2026-07-12T09:44:06Z</time>
      </trkpt>
      <trkpt lat="45.77961" lon="6.53006">
        <ele>1465.4</ele>
        <time>2026-07-12T09:44:07Z</time>
      </trkpt>
      <trkpt lat="45.77963" lon="6.53006">
        <ele>1465.4</ele>
        <time>2026-07-12T09:44:08Z</time>
      </trkpt>
      <trkpt lat="45.77964" lon="6.53007">
        <ele>1465.4</ele>
        <time>2026-07-12T09:44:09Z</time>
      </trkpt>
      <trkpt lat="45.77966" lon="6.53007">
        <ele>1465.4</ele>
        <time>2026-07-12T09:44:10Z</time>
      </trkpt>
      <trkpt lat="45.77969" lon="6.53008">
        <ele>1465.4</ele>
        <time>2026-07-12T09:44:11Z</time>
      </trkpt>
      <trkpt lat="45.77971" lon="6.53009">
        <ele>1464</ele>
        <time>2026-07-12T09:44:12Z</time>
      </trkpt>
      <trkpt lat="45.77974" lon="6.53009">
        <ele>1464</ele>
        <time>2026-07-12T09:44:13Z</time>
      </trkpt>
      <trkpt lat="45.77976" lon="6.53009">
        <ele>1464</ele>
        <time>2026-07-12T09:44:14Z</time>
      </trkpt>
      <trkpt lat="45.77978" lon="6.5301">
        <ele>1464</ele>
        <time>2026-07-12T09:44:15Z</time>
      </trkpt>
      <trkpt lat="45.77981" lon="6.5301">
        <ele>1463.8</ele>
        <time>2026-07-12T09:44:16Z</time>
      </trkpt>
      <trkpt lat="45.77983" lon="6.5301">
        <ele>1463.8</ele>
        <time>2026-07-12T09:44:17Z</time>
      </trkpt>
      <trkpt lat="45.77986" lon="6.53011">
        <ele>1463.8</ele>
        <time>2026-07-12T09:44:18Z</time>
      </trkpt>
      <trkpt lat="45.77988" lon="6.53011">
        <ele>1463.8</ele>
        <time>2026-07-12T09:44:19Z</time>
      </trkpt>
      <trkpt lat="45.7799" lon="6.5301">
        <ele>1463.8</ele>
        <time>2026-07-12T09:44:20Z</time>
      </trkpt>
      <trkpt lat="45.77992" lon="6.5301">
        <ele>1463.8</ele>
        <time>2026-07-12T09:44:21Z</time>
      </trkpt>
      <trkpt lat="45.77995" lon="6.53011">
        <ele>1463.8</ele>
        <time>2026-07-12T09:44:22Z</time>
      </trkpt>
      <trkpt lat="45.77997" lon="6.53011">
        <ele>1463.8</ele>
        <time>2026-07-12T09:44:23Z</time>
      </trkpt>
      <trkpt lat="45.78" lon="6.53011">
        <ele>1463.8</ele>
        <time>2026-07-12T09:44:24Z</time>
      </trkpt>
      <trkpt lat="45.78003" lon="6.53011">
        <ele>1463.6</ele>
        <time>2026-07-12T09:44:25Z</time>
      </trkpt>
      <trkpt lat="45.78005" lon="6.5301">
        <ele>1463.6</ele>
        <time>2026-07-12T09:44:26Z</time>
      </trkpt>
      <trkpt lat="45.78007" lon="6.5301">
        <ele>1463.6</ele>
        <time>2026-07-12T09:44:27Z</time>
      </trkpt>
      <trkpt lat="45.7801" lon="6.5301">
        <ele>1463.6</ele>
        <time>2026-07-12T09:44:28Z</time>
      </trkpt>
      <trkpt lat="45.78012" lon="6.53009">
        <ele>1463.6</ele>
        <time>2026-07-12T09:44:29Z</time>
      </trkpt>
      <trkpt lat="45.78015" lon="6.53009">
        <ele>1463.6</ele>
        <time>2026-07-12T09:44:30Z</time>
      </trkpt>
      <trkpt lat="45.78017" lon="6.53009">
        <ele>1463</ele>
        <time>2026-07-12T09:44:31Z</time>
      </trkpt>
      <trkpt lat="45.7802" lon="6.53009">
        <ele>1463</ele>
        <time>2026-07-12T09:44:32Z</time>
      </trkpt>
      <trkpt lat="45.78023" lon="6.5301">
        <ele>1463</ele>
        <time>2026-07-12T09:44:33Z</time>
      </trkpt>
      <trkpt lat="45.78026" lon="6.5301">
        <ele>1463</ele>
        <time>2026-07-12T09:44:34Z</time>
      </trkpt>
      <trkpt lat="45.78029" lon="6.53011">
        <ele>1463</ele>
        <time>2026-07-12T09:44:35Z</time>
      </trkpt>
      <trkpt lat="45.78031" lon="6.53012">
        <ele>1462.4</ele>
        <time>2026-07-12T09:44:36Z</time>
      </trkpt>
      <trkpt lat="45.78034" lon="6.53013">
        <ele>1462.4</ele>
        <time>2026-07-12T09:44:37Z</time>
      </trkpt>
      <trkpt lat="45.78036" lon="6.53014">
        <ele>1462.4</ele>
        <time>2026-07-12T09:44:38Z</time>
      </trkpt>
      <trkpt lat="45.78039" lon="6.53015">
        <ele>1462.4</ele>
        <time>2026-07-12T09:44:39Z</time>
      </trkpt>
      <trkpt lat="45.78041" lon="6.53016">
        <ele>1462.4</ele>
        <time>2026-07-12T09:44:40Z</time>
      </trkpt>
      <trkpt lat="45.78043" lon="6.53017">
        <ele>1462.8</ele>
        <time>2026-07-12T09:44:41Z</time>
      </trkpt>
      <trkpt lat="45.78045" lon="6.53018">
        <ele>1462.8</ele>
        <time>2026-07-12T09:44:42Z</time>
      </trkpt>
      <trkpt lat="45.78047" lon="6.53018">
        <ele>1462.8</ele>
        <time>2026-07-12T09:44:43Z</time>
      </trkpt>
      <trkpt lat="45.78049" lon="6.53019">
        <ele>1462</ele>
        <time>2026-07-12T09:44:44Z</time>
      </trkpt>
      <trkpt lat="45.7805" lon="6.53019">
        <ele>1462</ele>
        <time>2026-07-12T09:44:45Z</time>
      </trkpt>
      <trkpt lat="45.78052" lon="6.53019">
        <ele>1462</ele>
        <time>2026-07-12T09:44:46Z</time>
      </trkpt>
      <trkpt lat="45.78054" lon="6.53019">
        <ele>1462</ele>
        <time>2026-07-12T09:44:47Z</time>
      </trkpt>
      <trkpt lat="45.78055" lon="6.53019">
        <ele>1462</ele>
        <time>2026-07-12T09:44:48Z</time>
      </trkpt>
      <trkpt lat="45.78056" lon="6.53019">
        <ele>1462</ele>
        <time>2026-07-12T09:44:49Z</time>
      </trkpt>
      <trkpt lat="45.78057" lon="6.53018">
        <ele>1462.6</ele>
        <time>2026-07-12T09:44:50Z</time>
      </trkpt>
      <trkpt lat="45.78059" lon="6.53018">
        <ele>1462.6</ele>
        <time>2026-07-12T09:44:51Z</time>
      </trkpt>
      <trkpt lat="45.78061" lon="6.53017">
        <ele>1462.6</ele>
        <time>2026-07-12T09:44:52Z</time>
      </trkpt>
      <trkpt lat="45.78063" lon="6.53018">
        <ele>1462.6</ele>
        <time>2026-07-12T09:44:53Z</time>
      </trkpt>
      <trkpt lat="45.78066" lon="6.53019">
        <ele>1463.8</ele>
        <time>2026-07-12T09:44:54Z</time>
      </trkpt>
      <trkpt lat="45.78069" lon="6.53018">
        <ele>1463.8</ele>
        <time>2026-07-12T09:44:55Z</time>
      </trkpt>
      <trkpt lat="45.78072" lon="6.53018">
        <ele>1463.8</ele>
        <time>2026-07-12T09:44:56Z</time>
      </trkpt>
      <trkpt lat="45.78075" lon="6.53019">
        <ele>1463.8</ele>
        <time>2026-07-12T09:44:57Z</time>
      </trkpt>
      <trkpt lat="45.78077" lon="6.5302">
        <ele>1463.8</ele>
        <time>2026-07-12T09:44:58Z</time>
      </trkpt>
      <trkpt lat="45.7808" lon="6.5302">
        <ele>1464.8</ele>
        <time>2026-07-12T09:44:59Z</time>
      </trkpt>
      <trkpt lat="45.78083" lon="6.53021">
        <ele>1464.8</ele>
        <time>2026-07-12T09:45:00Z</time>
      </trkpt>
      <trkpt lat="45.78086" lon="6.53021">
        <ele>1464.8</ele>
        <time>2026-07-12T09:45:01Z</time>
      </trkpt>
      <trkpt lat="45.78088" lon="6.53022">
        <ele>1464.8</ele>
        <time>2026-07-12T09:45:02Z</time>
      </trkpt>
      <trkpt lat="45.78091" lon="6.53022">
        <ele>1465.8</ele>
        <time>2026-07-12T09:45:03Z</time>
      </trkpt>
      <trkpt lat="45.78094" lon="6.53022">
        <ele>1465.8</ele>
        <time>2026-07-12T09:45:04Z</time>
      </trkpt>
      <trkpt lat="45.78096" lon="6.53022">
        <ele>1465.8</ele>
        <time>2026-07-12T09:45:05Z</time>
      </trkpt>
      <trkpt lat="45.78098" lon="6.53022">
        <ele>1465.8</ele>
        <time>2026-07-12T09:45:06Z</time>
      </trkpt>
      <trkpt lat="45.78099" lon="6.53023">
        <ele>1465.8</ele>
        <time>2026-07-12T09:45:07Z</time>
      </trkpt>
      <trkpt lat="45.78101" lon="6.53023">
        <ele>1466.4</ele>
        <time>2026-07-12T09:45:08Z</time>
      </trkpt>
      <trkpt lat="45.78103" lon="6.53023">
        <ele>1466.6</ele>
        <time>2026-07-12T09:45:09Z</time>
      </trkpt>
      <trkpt lat="45.78105" lon="6.53024">
        <ele>1466.6</ele>
        <time>2026-07-12T09:45:10Z</time>
      </trkpt>
      <trkpt lat="45.78106" lon="6.53024">
        <ele>1466.6</ele>
        <time>2026-07-12T09:45:11Z</time>
      </trkpt>
      <trkpt lat="45.78108" lon="6.53024">
        <ele>1466.6</ele>
        <time>2026-07-12T09:45:12Z</time>
      </trkpt>
      <trkpt lat="45.7811" lon="6.53023">
        <ele>1467.4</ele>
        <time>2026-07-12T09:45:13Z</time>
      </trkpt>
      <trkpt lat="45.78112" lon="6.53024">
        <ele>1467.4</ele>
        <time>2026-07-12T09:45:14Z</time>
      </trkpt>
      <trkpt lat="45.78114" lon="6.53023">
        <ele>1467.4</ele>
        <time>2026-07-12T09:45:15Z</time>
      </trkpt>
      <trkpt lat="45.78115" lon="6.53023">
        <ele>1467.4</ele>
        <time>2026-07-12T09:45:16Z</time>
      </trkpt>
      <trkpt lat="45.78117" lon="6.53023">
        <ele>1468.4</ele>
        <time>2026-07-12T09:45:17Z</time>
      </trkpt>
      <trkpt lat="45.78119" lon="6.53024">
        <ele>1469.4</ele>
        <time>2026-07-12T09:45:18Z</time>
      </trkpt>
      <trkpt lat="45.78121" lon="6.53025">
        <ele>1469.4</ele>
        <time>2026-07-12T09:45:19Z</time>
      </trkpt>
      <trkpt lat="45.78123" lon="6.53025">
        <ele>1469.4</ele>
        <time>2026-07-12T09:45:20Z</time>
      </trkpt>
      <trkpt lat="45.78126" lon="6.53025">
        <ele>1469.4</ele>
        <time>2026-07-12T09:45:21Z</time>
      </trkpt>
      <trkpt lat="45.78127" lon="6.53023">
        <ele>1470.6</ele>
        <time>2026-07-12T09:45:22Z</time>
      </trkpt>
      <trkpt lat="45.78129" lon="6.53023">
        <ele>1471</ele>
        <time>2026-07-12T09:45:23Z</time>
      </trkpt>
      <trkpt lat="45.78132" lon="6.53023">
        <ele>1473</ele>
        <time>2026-07-12T09:45:24Z</time>
      </trkpt>
      <trkpt lat="45.78134" lon="6.53024">
        <ele>1473</ele>
        <time>2026-07-12T09:45:25Z</time>
      </trkpt>
      <trkpt lat="45.78135" lon="6.53025">
        <ele>1473</ele>
        <time>2026-07-12T09:45:26Z</time>
      </trkpt>
      <trkpt lat="45.78137" lon="6.53025">
        <ele>1472</ele>
        <time>2026-07-12T09:45:27Z</time>
      </trkpt>
      <trkpt lat="45.7814" lon="6.53026">
        <ele>1471.6</ele>
        <time>2026-07-12T09:45:28Z</time>
      </trkpt>
      <trkpt lat="45.78143" lon="6.53027">
        <ele>1471.6</ele>
        <time>2026-07-12T09:45:29Z</time>
      </trkpt>
      <trkpt lat="45.78146" lon="6.53028">
        <ele>1471.6</ele>
        <time>2026-07-12T09:45:30Z</time>
      </trkpt>
      <trkpt lat="45.78149" lon="6.53029">
        <ele>1472.6</ele>
        <time>2026-07-12T09:45:31Z</time>
      </trkpt>
      <trkpt lat="45.78152" lon="6.53029">
        <ele>1473.6</ele>
        <time>2026-07-12T09:45:32Z</time>
      </trkpt>
      <trkpt lat="45.78155" lon="6.5303">
        <ele>1474.2</ele>
        <time>2026-07-12T09:45:33Z</time>
      </trkpt>
      <trkpt lat="45.78157" lon="6.53031">
        <ele>1475.2</ele>
        <time>2026-07-12T09:45:34Z</time>
      </trkpt>
      <trkpt lat="45.7816" lon="6.53032">
        <ele>1475.2</ele>
        <time>2026-07-12T09:45:35Z</time>
      </trkpt>
      <trkpt lat="45.78163" lon="6.53032">
        <ele>1475.2</ele>
        <time>2026-07-12T09:45:36Z</time>
      </trkpt>
      <trkpt lat="45.78165" lon="6.53033">
        <ele>1475</ele>
        <time>2026-07-12T09:45:37Z</time>
      </trkpt>
      <trkpt lat="45.78168" lon="6.53034">
        <ele>1475</ele>
        <time>2026-07-12T09:45:38Z</time>
      </trkpt>
      <trkpt lat="45.78171" lon="6.53035">
        <ele>1475</ele>
        <time>2026-07-12T09:45:39Z</time>
      </trkpt>
      <trkpt lat="45.78173" lon="6.53035">
        <ele>1476</ele>
        <time>2026-07-12T09:45:40Z</time>
      </trkpt>
      <trkpt lat="45.78176" lon="6.53035">
        <ele>1476</ele>
        <time>2026-07-12T09:45:41Z</time>
      </trkpt>
      <trkpt lat="45.78179" lon="6.53036">
        <ele>1477</ele>
        <time>2026-07-12T09:45:42Z</time>
      </trkpt>
      <trkpt lat="45.78182" lon="6.53037">
        <ele>1478</ele>
        <time>2026-07-12T09:45:43Z</time>
      </trkpt>
      <trkpt lat="45.78185" lon="6.53038">
        <ele>1478</ele>
        <time>2026-07-12T09:45:44Z</time>
      </trkpt>
      <trkpt lat="45.78188" lon="6.53039">
        <ele>1478</ele>
        <time>2026-07-12T09:45:45Z</time>
      </trkpt>
      <trkpt lat="45.78191" lon="6.53039">
        <ele>1478</ele>
        <time>2026-07-12T09:45:46Z</time>
      </trkpt>
      <trkpt lat="45.78193" lon="6.5304">
        <ele>1479.2</ele>
        <time>2026-07-12T09:45:47Z</time>
      </trkpt>
      <trkpt lat="45.78196" lon="6.53041">
        <ele>1480.6</ele>
        <time>2026-07-12T09:45:48Z</time>
      </trkpt>
      <trkpt lat="45.78199" lon="6.53042">
        <ele>1480.8</ele>
        <time>2026-07-12T09:45:49Z</time>
      </trkpt>
      <trkpt lat="45.78201" lon="6.53044">
        <ele>1480.8</ele>
        <time>2026-07-12T09:45:50Z</time>
      </trkpt>
      <trkpt lat="45.78203" lon="6.53045">
        <ele>1480.8</ele>
        <time>2026-07-12T09:45:51Z</time>
      </trkpt>
      <trkpt lat="45.78206" lon="6.53047">
        <ele>1480.8</ele>
        <time>2026-07-12T09:45:52Z</time>
      </trkpt>
      <trkpt lat="45.78208" lon="6.53048">
        <ele>1481.8</ele>
        <time>2026-07-12T09:45:53Z</time>
      </trkpt>
      <trkpt lat="45.7821" lon="6.5305">
        <ele>1482.4</ele>
        <time>2026-07-12T09:45:54Z</time>
      </trkpt>
      <trkpt lat="45.78212" lon="6.53051">
        <ele>1482.8</ele>
        <time>2026-07-12T09:45:55Z</time>
      </trkpt>
      <trkpt lat="45.78215" lon="6.53052">
        <ele>1483.8</ele>
        <time>2026-07-12T09:45:56Z</time>
      </trkpt>
      <trkpt lat="45.78217" lon="6.53054">
        <ele>1484.8</ele>
        <time>2026-07-12T09:45:57Z</time>
      </trkpt>
      <trkpt lat="45.7822" lon="6.53055">
        <ele>1484.8</ele>
        <time>2026-07-12T09:45:58Z</time>
      </trkpt>
      <trkpt lat="45.78222" lon="6.53055">
        <ele>1484.8</ele>
        <time>2026-07-12T09:45:59Z</time>
      </trkpt>
      <trkpt lat="45.78225" lon="6.53056">
        <ele>1484.8</ele>
        <time>2026-07-12T09:46:00Z</time>
      </trkpt>
      <trkpt lat="45.78227" lon="6.53058">
        <ele>1484.8</ele>
        <time>2026-07-12T09:46:01Z</time>
      </trkpt>
      <trkpt lat="45.7823" lon="6.53059">
        <ele>1485.8</ele>
        <time>2026-07-12T09:46:02Z</time>
      </trkpt>
      <trkpt lat="45.78233" lon="6.53059">
        <ele>1485.8</ele>
        <time>2026-07-12T09:46:03Z</time>
      </trkpt>
      <trkpt lat="45.78236" lon="6.5306">
        <ele>1485.8</ele>
        <time>2026-07-12T09:46:04Z</time>
      </trkpt>
      <trkpt lat="45.78239" lon="6.53061">
        <ele>1485.8</ele>
        <time>2026-07-12T09:46:05Z</time>
      </trkpt>
      <trkpt lat="45.78242" lon="6.53062">
        <ele>1487.6</ele>
        <time>2026-07-12T09:46:06Z</time>
      </trkpt>
      <trkpt lat="45.78244" lon="6.53062">
        <ele>1487.6</ele>
        <time>2026-07-12T09:46:07Z</time>
      </trkpt>
      <trkpt lat="45.78246" lon="6.53063">
        <ele>1489.2</ele>
        <time>2026-07-12T09:46:08Z</time>
      </trkpt>
      <trkpt lat="45.78249" lon="6.53064">
        <ele>1489.8</ele>
        <time>2026-07-12T09:46:09Z</time>
      </trkpt>
      <trkpt lat="45.78252" lon="6.53065">
        <ele>1489.8</ele>
        <time>2026-07-12T09:46:10Z</time>
      </trkpt>
      <trkpt lat="45.78255" lon="6.53065">
        <ele>1489.8</ele>
        <time>2026-07-12T09:46:11Z</time>
      </trkpt>
      <trkpt lat="45.78257" lon="6.53066">
        <ele>1489.8</ele>
        <time>2026-07-12T09:46:12Z</time>
      </trkpt>
      <trkpt lat="45.7826" lon="6.53066">
        <ele>1488.4</ele>
        <time>2026-07-12T09:46:13Z</time>
      </trkpt>
      <trkpt lat="45.78263" lon="6.53067">
        <ele>1488.4</ele>
        <time>2026-07-12T09:46:14Z</time>
      </trkpt>
      <trkpt lat="45.78266" lon="6.53068">
        <ele>1488.4</ele>
        <time>2026-07-12T09:46:15Z</time>
      </trkpt>
      <trkpt lat="45.78269" lon="6.53069">
        <ele>1489.4</ele>
        <time>2026-07-12T09:46:16Z</time>
      </trkpt>
      <trkpt lat="45.78271" lon="6.5307">
        <ele>1490.4</ele>
        <time>2026-07-12T09:46:17Z</time>
      </trkpt>
      <trkpt lat="45.78273" lon="6.53071">
        <ele>1491.4</ele>
        <time>2026-07-12T09:46:18Z</time>
      </trkpt>
      <trkpt lat="45.78275" lon="6.53072">
        <ele>1493.6</ele>
        <time>2026-07-12T09:46:19Z</time>
      </trkpt>
      <trkpt lat="45.78278" lon="6.53074">
        <ele>1493.6</ele>
        <time>2026-07-12T09:46:20Z</time>
      </trkpt>
      <trkpt lat="45.7828" lon="6.53076">
        <ele>1493.6</ele>
        <time>2026-07-12T09:46:21Z</time>
      </trkpt>
      <trkpt lat="45.78283" lon="6.53078">
        <ele>1493.6</ele>
        <time>2026-07-12T09:46:22Z</time>
      </trkpt>
      <trkpt lat="45.78285" lon="6.53081">
        <ele>1494.6</ele>
        <time>2026-07-12T09:46:23Z</time>
      </trkpt>
      <trkpt lat="45.78288" lon="6.53084">
        <ele>1495</ele>
        <time>2026-07-12T09:46:24Z</time>
      </trkpt>
      <trkpt lat="45.7829" lon="6.53086">
        <ele>1496</ele>
        <time>2026-07-12T09:46:25Z</time>
      </trkpt>
      <trkpt lat="45.78293" lon="6.53088">
        <ele>1496</ele>
        <time>2026-07-12T09:46:26Z</time>
      </trkpt>
      <trkpt lat="45.78295" lon="6.5309">
        <ele>1496</ele>
        <time>2026-07-12T09:46:27Z</time>
      </trkpt>
      <trkpt lat="45.78297" lon="6.53091">
        <ele>1496</ele>
        <time>2026-07-12T09:46:28Z</time>
      </trkpt>
      <trkpt lat="45.78299" lon="6.53093">
        <ele>1496.2</ele>
        <time>2026-07-12T09:46:29Z</time>
      </trkpt>
      <trkpt lat="45.78301" lon="6.53094">
        <ele>1496.4</ele>
        <time>2026-07-12T09:46:30Z</time>
      </trkpt>
      <trkpt lat="45.78304" lon="6.53095">
        <ele>1497.4</ele>
        <time>2026-07-12T09:46:31Z</time>
      </trkpt>
      <trkpt lat="45.78306" lon="6.53096">
        <ele>1498.8</ele>
        <time>2026-07-12T09:46:32Z</time>
      </trkpt>
      <trkpt lat="45.78309" lon="6.53097">
        <ele>1499.6</ele>
        <time>2026-07-12T09:46:33Z</time>
      </trkpt>
      <trkpt lat="45.78311" lon="6.53099">
        <ele>1499.6</ele>
        <time>2026-07-12T09:46:34Z</time>
      </trkpt>
      <trkpt lat="45.78314" lon="6.531">
        <ele>1499.6</ele>
        <time>2026-07-12T09:46:35Z</time>
      </trkpt>
      <trkpt lat="45.78317" lon="6.53102">
        <ele>1499.6</ele>
        <time>2026-07-12T09:46:36Z</time>
      </trkpt>
      <trkpt lat="45.78319" lon="6.53104">
        <ele>1499.6</ele>
        <time>2026-07-12T09:46:37Z</time>
      </trkpt>
      <trkpt lat="45.78322" lon="6.53106">
        <ele>1499.6</ele>
        <time>2026-07-12T09:46:38Z</time>
      </trkpt>
      <trkpt lat="45.78325" lon="6.53107">
        <ele>1499.6</ele>
        <time>2026-07-12T09:46:39Z</time>
      </trkpt>
      <trkpt lat="45.78327" lon="6.53109">
        <ele>1500.6</ele>
        <time>2026-07-12T09:46:40Z</time>
      </trkpt>
      <trkpt lat="45.7833" lon="6.5311">
        <ele>1501.4</ele>
        <time>2026-07-12T09:46:41Z</time>
      </trkpt>
      <trkpt lat="45.78333" lon="6.53112">
        <ele>1502</ele>
        <time>2026-07-12T09:46:42Z</time>
      </trkpt>
      <trkpt lat="45.78336" lon="6.53113">
        <ele>1502</ele>
        <time>2026-07-12T09:46:43Z</time>
      </trkpt>
      <trkpt lat="45.78338" lon="6.53114">
        <ele>1502</ele>
        <time>2026-07-12T09:46:44Z</time>
      </trkpt>
      <trkpt lat="45.78341" lon="6.53116">
        <ele>1502</ele>
        <time>2026-07-12T09:46:45Z</time>
      </trkpt>
      <trkpt lat="45.78344" lon="6.53117">
        <ele>1502</ele>
        <time>2026-07-12T09:46:46Z</time>
      </trkpt>
      <trkpt lat="45.78346" lon="6.5312">
        <ele>1502</ele>
        <time>2026-07-12T09:46:47Z</time>
      </trkpt>
      <trkpt lat="45.78349" lon="6.53122">
        <ele>1502</ele>
        <time>2026-07-12T09:46:48Z</time>
      </trkpt>
      <trkpt lat="45.78352" lon="6.53124">
        <ele>1503</ele>
        <time>2026-07-12T09:46:49Z</time>
      </trkpt>
      <trkpt lat="45.78354" lon="6.53126">
        <ele>1504</ele>
        <time>2026-07-12T09:46:50Z</time>
      </trkpt>
      <trkpt lat="45.78357" lon="6.53128">
        <ele>1505.4</ele>
        <time>2026-07-12T09:46:51Z</time>
      </trkpt>
      <trkpt lat="45.7836" lon="6.5313">
        <ele>1505.4</ele>
        <time>2026-07-12T09:46:52Z</time>
      </trkpt>
      <trkpt lat="45.78362" lon="6.53133">
        <ele>1505.4</ele>
        <time>2026-07-12T09:46:53Z</time>
      </trkpt>
      <trkpt lat="45.78364" lon="6.53135">
        <ele>1505.4</ele>
        <time>2026-07-12T09:46:54Z</time>
      </trkpt>
      <trkpt lat="45.78367" lon="6.53138">
        <ele>1506.4</ele>
        <time>2026-07-12T09:46:55Z</time>
      </trkpt>
      <trkpt lat="45.7837" lon="6.5314">
        <ele>1506.4</ele>
        <time>2026-07-12T09:46:56Z</time>
      </trkpt>
      <trkpt lat="45.78373" lon="6.53142">
        <ele>1506.4</ele>
        <time>2026-07-12T09:46:57Z</time>
      </trkpt>
      <trkpt lat="45.78375" lon="6.53144">
        <ele>1506.4</ele>
        <time>2026-07-12T09:46:58Z</time>
      </trkpt>
      <trkpt lat="45.78377" lon="6.53145">
        <ele>1508.8</ele>
        <time>2026-07-12T09:46:59Z</time>
      </trkpt>
      <trkpt lat="45.7838" lon="6.53147">
        <ele>1508.8</ele>
        <time>2026-07-12T09:47:00Z</time>
      </trkpt>
      <trkpt lat="45.78383" lon="6.53148">
        <ele>1508.8</ele>
        <time>2026-07-12T09:47:01Z</time>
      </trkpt>
      <trkpt lat="45.78385" lon="6.5315">
        <ele>1508.8</ele>
        <time>2026-07-12T09:47:02Z</time>
      </trkpt>
      <trkpt lat="45.78388" lon="6.53151">
        <ele>1508.8</ele>
        <time>2026-07-12T09:47:03Z</time>
      </trkpt>
      <trkpt lat="45.7839" lon="6.53154">
        <ele>1508.8</ele>
        <time>2026-07-12T09:47:04Z</time>
      </trkpt>
      <trkpt lat="45.78392" lon="6.53158">
        <ele>1508.8</ele>
        <time>2026-07-12T09:47:05Z</time>
      </trkpt>
      <trkpt lat="45.78393" lon="6.53162">
        <ele>1508.8</ele>
        <time>2026-07-12T09:47:06Z</time>
      </trkpt>
      <trkpt lat="45.78395" lon="6.53164">
        <ele>1509.8</ele>
        <time>2026-07-12T09:47:07Z</time>
      </trkpt>
      <trkpt lat="45.78396" lon="6.53167">
        <ele>1510</ele>
        <time>2026-07-12T09:47:08Z</time>
      </trkpt>
      <trkpt lat="45.78398" lon="6.53171">
        <ele>1510</ele>
        <time>2026-07-12T09:47:09Z</time>
      </trkpt>
      <trkpt lat="45.78399" lon="6.53174">
        <ele>1510</ele>
        <time>2026-07-12T09:47:10Z</time>
      </trkpt>
      <trkpt lat="45.78401" lon="6.53177">
        <ele>1510</ele>
        <time>2026-07-12T09:47:11Z</time>
      </trkpt>
      <trkpt lat="45.78404" lon="6.5318">
        <ele>1511.6</ele>
        <time>2026-07-12T09:47:12Z</time>
      </trkpt>
      <trkpt lat="45.78406" lon="6.53181">
        <ele>1511.8</ele>
        <time>2026-07-12T09:47:13Z</time>
      </trkpt>
      <trkpt lat="45.78409" lon="6.53183">
        <ele>1512.2</ele>
        <time>2026-07-12T09:47:14Z</time>
      </trkpt>
      <trkpt lat="45.78412" lon="6.53185">
        <ele>1513</ele>
        <time>2026-07-12T09:47:15Z</time>
      </trkpt>
      <trkpt lat="45.78414" lon="6.53187">
        <ele>1513.2</ele>
        <time>2026-07-12T09:47:16Z</time>
      </trkpt>
      <trkpt lat="45.78417" lon="6.53189">
        <ele>1513.2</ele>
        <time>2026-07-12T09:47:17Z</time>
      </trkpt>
      <trkpt lat="45.78419" lon="6.53192">
        <ele>1513.2</ele>
        <time>2026-07-12T09:47:18Z</time>
      </trkpt>
      <trkpt lat="45.78422" lon="6.53193">
        <ele>1513</ele>
        <time>2026-07-12T09:47:19Z</time>
      </trkpt>
      <trkpt lat="45.78424" lon="6.53195">
        <ele>1513</ele>
        <time>2026-07-12T09:47:20Z</time>
      </trkpt>
      <trkpt lat="45.78426" lon="6.53197">
        <ele>1513</ele>
        <time>2026-07-12T09:47:21Z</time>
      </trkpt>
      <trkpt lat="45.78429" lon="6.53199">
        <ele>1515.2</ele>
        <time>2026-07-12T09:47:22Z</time>
      </trkpt>
      <trkpt lat="45.7843" lon="6.53202">
        <ele>1515.2</ele>
        <time>2026-07-12T09:47:23Z</time>
      </trkpt>
      <trkpt lat="45.78432" lon="6.53205">
        <ele>1515.2</ele>
        <time>2026-07-12T09:47:24Z</time>
      </trkpt>
      <trkpt lat="45.78434" lon="6.53207">
        <ele>1515.2</ele>
        <time>2026-07-12T09:47:25Z</time>
      </trkpt>
      <trkpt lat="45.78436" lon="6.53209">
        <ele>1515.4</ele>
        <time>2026-07-12T09:47:26Z</time>
      </trkpt>
      <trkpt lat="45.78438" lon="6.53212">
        <ele>1515.4</ele>
        <time>2026-07-12T09:47:27Z</time>
      </trkpt>
      <trkpt lat="45.7844" lon="6.53214">
        <ele>1515.4</ele>
        <time>2026-07-12T09:47:28Z</time>
      </trkpt>
      <trkpt lat="45.78443" lon="6.53217">
        <ele>1515.4</ele>
        <time>2026-07-12T09:47:29Z</time>
      </trkpt>
      <trkpt lat="45.78445" lon="6.53219">
        <ele>1515.4</ele>
        <time>2026-07-12T09:47:30Z</time>
      </trkpt>
      <trkpt lat="45.78448" lon="6.53222">
        <ele>1515.4</ele>
        <time>2026-07-12T09:47:31Z</time>
      </trkpt>
      <trkpt lat="45.78451" lon="6.53222">
        <ele>1515.4</ele>
        <time>2026-07-12T09:47:32Z</time>
      </trkpt>
      <trkpt lat="45.78453" lon="6.53224">
        <ele>1516.2</ele>
        <time>2026-07-12T09:47:33Z</time>
      </trkpt>
      <trkpt lat="45.78456" lon="6.53226">
        <ele>1517</ele>
        <time>2026-07-12T09:47:34Z</time>
      </trkpt>
      <trkpt lat="45.78459" lon="6.53227">
        <ele>1517.2</ele>
        <time>2026-07-12T09:47:35Z</time>
      </trkpt>
      <trkpt lat="45.78462" lon="6.53228">
        <ele>1518.2</ele>
        <time>2026-07-12T09:47:36Z</time>
      </trkpt>
      <trkpt lat="45.78465" lon="6.53228">
        <ele>1518.2</ele>
        <time>2026-07-12T09:47:37Z</time>
      </trkpt>
      <trkpt lat="45.78468" lon="6.53228">
        <ele>1518.2</ele>
        <time>2026-07-12T09:47:38Z</time>
      </trkpt>
      <trkpt lat="45.7847" lon="6.53229">
        <ele>1518.2</ele>
        <time>2026-07-12T09:47:39Z</time>
      </trkpt>
      <trkpt lat="45.78473" lon="6.5323">
        <ele>1519.2</ele>
        <time>2026-07-12T09:47:40Z</time>
      </trkpt>
      <trkpt lat="45.78476" lon="6.53229">
        <ele>1519.2</ele>
        <time>2026-07-12T09:47:41Z</time>
      </trkpt>
      <trkpt lat="45.78478" lon="6.5323">
        <ele>1518.8</ele>
        <time>2026-07-12T09:47:42Z</time>
      </trkpt>
      <trkpt lat="45.78481" lon="6.53231">
        <ele>1518.4</ele>
        <time>2026-07-12T09:47:43Z</time>
      </trkpt>
      <trkpt lat="45.78482" lon="6.5323">
        <ele>1518.4</ele>
        <time>2026-07-12T09:47:44Z</time>
      </trkpt>
      <trkpt lat="45.78485" lon="6.5323">
        <ele>1518.4</ele>
        <time>2026-07-12T09:47:45Z</time>
      </trkpt>
      <trkpt lat="45.78488" lon="6.5323">
        <ele>1519.4</ele>
        <time>2026-07-12T09:47:46Z</time>
      </trkpt>
      <trkpt lat="45.7849" lon="6.5323">
        <ele>1520.4</ele>
        <time>2026-07-12T09:47:47Z</time>
      </trkpt>
      <trkpt lat="45.78492" lon="6.53229">
        <ele>1521</ele>
        <time>2026-07-12T09:47:48Z</time>
      </trkpt>
      <trkpt lat="45.78494" lon="6.53229">
        <ele>1522</ele>
        <time>2026-07-12T09:47:49Z</time>
      </trkpt>
      <trkpt lat="45.78496" lon="6.5323">
        <ele>1522</ele>
        <time>2026-07-12T09:47:50Z</time>
      </trkpt>
      <trkpt lat="45.78498" lon="6.5323">
        <ele>1522</ele>
        <time>2026-07-12T09:47:51Z</time>
      </trkpt>
      <trkpt lat="45.78501" lon="6.53229">
        <ele>1522</ele>
        <time>2026-07-12T09:47:52Z</time>
      </trkpt>
      <trkpt lat="45.78503" lon="6.53228">
        <ele>1522</ele>
        <time>2026-07-12T09:47:53Z</time>
      </trkpt>
      <trkpt lat="45.78505" lon="6.53227">
        <ele>1522</ele>
        <time>2026-07-12T09:47:54Z</time>
      </trkpt>
      <trkpt lat="45.78507" lon="6.53226">
        <ele>1522</ele>
        <time>2026-07-12T09:47:55Z</time>
      </trkpt>
      <trkpt lat="45.7851" lon="6.53225">
        <ele>1522</ele>
        <time>2026-07-12T09:47:56Z</time>
      </trkpt>
      <trkpt lat="45.78513" lon="6.53223">
        <ele>1522</ele>
        <time>2026-07-12T09:47:57Z</time>
      </trkpt>
      <trkpt lat="45.78515" lon="6.53221">
        <ele>1522</ele>
        <time>2026-07-12T09:47:58Z</time>
      </trkpt>
      <trkpt lat="45.78517" lon="6.53218">
        <ele>1522</ele>
        <time>2026-07-12T09:47:59Z</time>
      </trkpt>
      <trkpt lat="45.7852" lon="6.53215">
        <ele>1522.2</ele>
        <time>2026-07-12T09:48:00Z</time>
      </trkpt>
      <trkpt lat="45.78522" lon="6.53213">
        <ele>1523.2</ele>
        <time>2026-07-12T09:48:01Z</time>
      </trkpt>
      <trkpt lat="45.78523" lon="6.53209">
        <ele>1524.2</ele>
        <time>2026-07-12T09:48:02Z</time>
      </trkpt>
      <trkpt lat="45.78526" lon="6.53206">
        <ele>1524.6</ele>
        <time>2026-07-12T09:48:03Z</time>
      </trkpt>
      <trkpt lat="45.78528" lon="6.53203">
        <ele>1524.6</ele>
        <time>2026-07-12T09:48:04Z</time>
      </trkpt>
      <trkpt lat="45.7853" lon="6.53201">
        <ele>1524.6</ele>
        <time>2026-07-12T09:48:05Z</time>
      </trkpt>
      <trkpt lat="45.78533" lon="6.53199">
        <ele>1524.6</ele>
        <time>2026-07-12T09:48:06Z</time>
      </trkpt>
      <trkpt lat="45.78536" lon="6.53198">
        <ele>1525.6</ele>
        <time>2026-07-12T09:48:07Z</time>
      </trkpt>
      <trkpt lat="45.78537" lon="6.53196">
        <ele>1525.6</ele>
        <time>2026-07-12T09:48:08Z</time>
      </trkpt>
      <trkpt lat="45.78541" lon="6.53195">
        <ele>1525.6</ele>
        <time>2026-07-12T09:48:09Z</time>
      </trkpt>
      <trkpt lat="45.78543" lon="6.53193">
        <ele>1524.8</ele>
        <time>2026-07-12T09:48:10Z</time>
      </trkpt>
      <trkpt lat="45.78545" lon="6.5319">
        <ele>1524.8</ele>
        <time>2026-07-12T09:48:11Z</time>
      </trkpt>
      <trkpt lat="45.78546" lon="6.53187">
        <ele>1526.2</ele>
        <time>2026-07-12T09:48:12Z</time>
      </trkpt>
      <trkpt lat="45.78548" lon="6.53185">
        <ele>1526.2</ele>
        <time>2026-07-12T09:48:13Z</time>
      </trkpt>
      <trkpt lat="45.7855" lon="6.53183">
        <ele>1526.2</ele>
        <time>2026-07-12T09:48:14Z</time>
      </trkpt>
      <trkpt lat="45.78553" lon="6.53181">
        <ele>1526.2</ele>
        <time>2026-07-12T09:48:15Z</time>
      </trkpt>
      <trkpt lat="45.78554" lon="6.53178">
        <ele>1526</ele>
        <time>2026-07-12T09:48:16Z</time>
      </trkpt>
      <trkpt lat="45.78555" lon="6.53176">
        <ele>1526</ele>
        <time>2026-07-12T09:48:17Z</time>
      </trkpt>
      <trkpt lat="45.78557" lon="6.53174">
        <ele>1526</ele>
        <time>2026-07-12T09:48:18Z</time>
      </trkpt>
      <trkpt lat="45.78559" lon="6.53172">
        <ele>1526</ele>
        <time>2026-07-12T09:48:19Z</time>
      </trkpt>
      <trkpt lat="45.78561" lon="6.5317">
        <ele>1526</ele>
        <time>2026-07-12T09:48:20Z</time>
      </trkpt>
      <trkpt lat="45.78562" lon="6.53168">
        <ele>1526</ele>
        <time>2026-07-12T09:48:21Z</time>
      </trkpt>
      <trkpt lat="45.78563" lon="6.53166">
        <ele>1526</ele>
        <time>2026-07-12T09:48:22Z</time>
      </trkpt>
      <trkpt lat="45.78564" lon="6.53165">
        <ele>1526</ele>
        <time>2026-07-12T09:48:23Z</time>
      </trkpt>
      <trkpt lat="45.78565" lon="6.53163">
        <ele>1526</ele>
        <time>2026-07-12T09:48:24Z</time>
      </trkpt>
      <trkpt lat="45.78565" lon="6.53159">
        <ele>1525.6</ele>
        <time>2026-07-12T09:48:25Z</time>
      </trkpt>
      <trkpt lat="45.78566" lon="6.53154">
        <ele>1525.6</ele>
        <time>2026-07-12T09:48:26Z</time>
      </trkpt>
      <trkpt lat="45.78567" lon="6.5315">
        <ele>1525.6</ele>
        <time>2026-07-12T09:48:27Z</time>
      </trkpt>
      <trkpt lat="45.78567" lon="6.53147">
        <ele>1525.6</ele>
        <time>2026-07-12T09:48:28Z</time>
      </trkpt>
      <trkpt lat="45.78567" lon="6.53144">
        <ele>1526.6</ele>
        <time>2026-07-12T09:48:29Z</time>
      </trkpt>
      <trkpt lat="45.78568" lon="6.5314">
        <ele>1527.6</ele>
        <time>2026-07-12T09:48:30Z</time>
      </trkpt>
      <trkpt lat="45.78568" lon="6.53135">
        <ele>1527.8</ele>
        <time>2026-07-12T09:48:31Z</time>
      </trkpt>
      <trkpt lat="45.78568" lon="6.5313">
        <ele>1528.8</ele>
        <time>2026-07-12T09:48:32Z</time>
      </trkpt>
      <trkpt lat="45.78569" lon="6.53126">
        <ele>1529.6</ele>
        <time>2026-07-12T09:48:33Z</time>
      </trkpt>
      <trkpt lat="45.78569" lon="6.53123">
        <ele>1529.6</ele>
        <time>2026-07-12T09:48:34Z</time>
      </trkpt>
      <trkpt lat="45.78569" lon="6.53119">
        <ele>1529.6</ele>
        <time>2026-07-12T09:48:35Z</time>
      </trkpt>
      <trkpt lat="45.7857" lon="6.53116">
        <ele>1529.6</ele>
        <time>2026-07-12T09:48:36Z</time>
      </trkpt>
      <trkpt lat="45.78571" lon="6.53113">
        <ele>1530.6</ele>
        <time>2026-07-12T09:48:37Z</time>
      </trkpt>
      <trkpt lat="45.78571" lon="6.53109">
        <ele>1531.6</ele>
        <time>2026-07-12T09:48:38Z</time>
      </trkpt>
      <trkpt lat="45.78572" lon="6.53106">
        <ele>1532.6</ele>
        <time>2026-07-12T09:48:39Z</time>
      </trkpt>
      <trkpt lat="45.78572" lon="6.53103">
        <ele>1533.4</ele>
        <time>2026-07-12T09:48:40Z</time>
      </trkpt>
      <trkpt lat="45.78572" lon="6.531">
        <ele>1534.6</ele>
        <time>2026-07-12T09:48:41Z</time>
      </trkpt>
      <trkpt lat="45.78573" lon="6.53096">
        <ele>1534.8</ele>
        <time>2026-07-12T09:48:42Z</time>
      </trkpt>
      <trkpt lat="45.78573" lon="6.53093">
        <ele>1534.8</ele>
        <time>2026-07-12T09:48:43Z</time>
      </trkpt>
      <trkpt lat="45.78572" lon="6.5309">
        <ele>1534.8</ele>
        <time>2026-07-12T09:48:44Z</time>
      </trkpt>
      <trkpt lat="45.78573" lon="6.53087">
        <ele>1534.8</ele>
        <time>2026-07-12T09:48:45Z</time>
      </trkpt>
      <trkpt lat="45.78574" lon="6.53084">
        <ele>1536.2</ele>
        <time>2026-07-12T09:48:46Z</time>
      </trkpt>
      <trkpt lat="45.78575" lon="6.53081">
        <ele>1536.2</ele>
        <time>2026-07-12T09:48:47Z</time>
      </trkpt>
      <trkpt lat="45.78576" lon="6.53079">
        <ele>1536.2</ele>
        <time>2026-07-12T09:48:48Z</time>
      </trkpt>
      <trkpt lat="45.78578" lon="6.53077">
        <ele>1535</ele>
        <time>2026-07-12T09:48:49Z</time>
      </trkpt>
      <trkpt lat="45.78578" lon="6.53075">
        <ele>1535</ele>
        <time>2026-07-12T09:48:50Z</time>
      </trkpt>
      <trkpt lat="45.78579" lon="6.53073">
        <ele>1535</ele>
        <time>2026-07-12T09:48:51Z</time>
      </trkpt>
      <trkpt lat="45.7858" lon="6.53071">
        <ele>1535</ele>
        <time>2026-07-12T09:48:52Z</time>
      </trkpt>
      <trkpt lat="45.78582" lon="6.5307">
        <ele>1535.6</ele>
        <time>2026-07-12T09:48:53Z</time>
      </trkpt>
      <trkpt lat="45.78583" lon="6.53068">
        <ele>1536</ele>
        <time>2026-07-12T09:48:54Z</time>
      </trkpt>
      <trkpt lat="45.78584" lon="6.53066">
        <ele>1536.6</ele>
        <time>2026-07-12T09:48:55Z</time>
      </trkpt>
      <trkpt lat="45.78586" lon="6.53064">
        <ele>1536.8</ele>
        <time>2026-07-12T09:48:56Z</time>
      </trkpt>
      <trkpt lat="45.78587" lon="6.53062">
        <ele>1536.8</ele>
        <time>2026-07-12T09:48:57Z</time>
      </trkpt>
      <trkpt lat="45.78589" lon="6.5306">
        <ele>1536.8</ele>
        <time>2026-07-12T09:48:58Z</time>
      </trkpt>
      <trkpt lat="45.78592" lon="6.53059">
        <ele>1536.8</ele>
        <time>2026-07-12T09:48:59Z</time>
      </trkpt>
      <trkpt lat="45.78594" lon="6.53057">
        <ele>1537.2</ele>
        <time>2026-07-12T09:49:00Z</time>
      </trkpt>
      <trkpt lat="45.78595" lon="6.53056">
        <ele>1537.4</ele>
        <time>2026-07-12T09:49:01Z</time>
      </trkpt>
      <trkpt lat="45.78597" lon="6.53055">
        <ele>1537.4</ele>
        <time>2026-07-12T09:49:02Z</time>
      </trkpt>
      <trkpt lat="45.78599" lon="6.53054">
        <ele>1537.4</ele>
        <time>2026-07-12T09:49:03Z</time>
      </trkpt>
      <trkpt lat="45.78601" lon="6.53053">
        <ele>1537.4</ele>
        <time>2026-07-12T09:49:04Z</time>
      </trkpt>
      <trkpt lat="45.78602" lon="6.53051">
        <ele>1538</ele>
        <time>2026-07-12T09:49:05Z</time>
      </trkpt>
      <trkpt lat="45.78603" lon="6.5305">
        <ele>1538</ele>
        <time>2026-07-12T09:49:06Z</time>
      </trkpt>
      <trkpt lat="45.78604" lon="6.53049">
        <ele>1538</ele>
        <time>2026-07-12T09:49:07Z</time>
      </trkpt>
      <trkpt lat="45.78605" lon="6.53048">
        <ele>1538</ele>
        <time>2026-07-12T09:49:08Z</time>
      </trkpt>
      <trkpt lat="45.78606" lon="6.53047">
        <ele>1538.8</ele>
        <time>2026-07-12T09:49:09Z</time>
      </trkpt>
      <trkpt lat="45.78607" lon="6.53047">
        <ele>1539.6</ele>
        <time>2026-07-12T09:49:10Z</time>
      </trkpt>
      <trkpt lat="45.78608" lon="6.53044">
        <ele>1539.6</ele>
        <time>2026-07-12T09:49:11Z</time>
      </trkpt>
      <trkpt lat="45.78608" lon="6.53041">
        <ele>1539.6</ele>
        <time>2026-07-12T09:49:12Z</time>
      </trkpt>
      <trkpt lat="45.78608" lon="6.53039">
        <ele>1539</ele>
        <time>2026-07-12T09:49:13Z</time>
      </trkpt>
      <trkpt lat="45.78607" lon="6.53039">
        <ele>1538.4</ele>
        <time>2026-07-12T09:49:14Z</time>
      </trkpt>
      <trkpt lat="45.78605" lon="6.53039">
        <ele>1538.4</ele>
        <time>2026-07-12T09:49:15Z</time>
      </trkpt>
      <trkpt lat="45.78604" lon="6.5304">
        <ele>1538.4</ele>
        <time>2026-07-12T09:49:16Z</time>
      </trkpt>
      <trkpt lat="45.78602" lon="6.5304">
        <ele>1538.4</ele>
        <time>2026-07-12T09:49:17Z</time>
      </trkpt>
      <trkpt lat="45.78601" lon="6.5304">
        <ele>1538.4</ele>
        <time>2026-07-12T09:49:18Z</time>
      </trkpt>
      <trkpt lat="45.78598" lon="6.53038">
        <ele>1539.4</ele>
        <time>2026-07-12T09:49:19Z</time>
      </trkpt>
      <trkpt lat="45.78596" lon="6.53037">
        <ele>1539.6</ele>
        <time>2026-07-12T09:49:20Z</time>
      </trkpt>
      <trkpt lat="45.78594" lon="6.53036">
        <ele>1539.6</ele>
        <time>2026-07-12T09:49:21Z</time>
      </trkpt>
      <trkpt lat="45.78591" lon="6.53036">
        <ele>1540.2</ele>
        <time>2026-07-12T09:49:22Z</time>
      </trkpt>
      <trkpt lat="45.78589" lon="6.53036">
        <ele>1540.2</ele>
        <time>2026-07-12T09:49:23Z</time>
      </trkpt>
      <trkpt lat="45.78587" lon="6.53036">
        <ele>1540.2</ele>
        <time>2026-07-12T09:49:24Z</time>
      </trkpt>
      <trkpt lat="45.78585" lon="6.53036">
        <ele>1540.2</ele>
        <time>2026-07-12T09:49:25Z</time>
      </trkpt>
      <trkpt lat="45.78584" lon="6.53036">
        <ele>1540.2</ele>
        <time>2026-07-12T09:49:26Z</time>
      </trkpt>
      <trkpt lat="45.78582" lon="6.53036">
        <ele>1540.4</ele>
        <time>2026-07-12T09:49:27Z</time>
      </trkpt>
      <trkpt lat="45.78581" lon="6.53037">
        <ele>1540.4</ele>
        <time>2026-07-12T09:49:28Z</time>
      </trkpt>
      <trkpt lat="45.78581" lon="6.53036">
        <ele>1540.4</ele>
        <time>2026-07-12T09:49:29Z</time>
      </trkpt>
      <trkpt lat="45.78579" lon="6.53036">
        <ele>1540.4</ele>
        <time>2026-07-12T09:49:30Z</time>
      </trkpt>
      <trkpt lat="45.78578" lon="6.53036">
        <ele>1540.4</ele>
        <time>2026-07-12T09:49:31Z</time>
      </trkpt>
      <trkpt lat="45.78576" lon="6.53036">
        <ele>1540.4</ele>
        <time>2026-07-12T09:49:32Z</time>
      </trkpt>
      <trkpt lat="45.78575" lon="6.53036">
        <ele>1540.4</ele>
        <time>2026-07-12T09:49:33Z</time>
      </trkpt>
      <trkpt lat="45.78575" lon="6.53037">
        <ele>1540.4</ele>
        <time>2026-07-12T09:49:34Z</time>
      </trkpt>
      <trkpt lat="45.78573" lon="6.53039">
        <ele>1540.4</ele>
        <time>2026-07-12T09:49:35Z</time>
      </trkpt>
      <trkpt lat="45.78571" lon="6.5304">
        <ele>1540.4</ele>
        <time>2026-07-12T09:49:36Z</time>
      </trkpt>
      <trkpt lat="45.7857" lon="6.53041">
        <ele>1541.4</ele>
        <time>2026-07-12T09:49:37Z</time>
      </trkpt>
      <trkpt lat="45.78568" lon="6.53042">
        <ele>1541.4</ele>
        <time>2026-07-12T09:49:38Z</time>
      </trkpt>
      <trkpt lat="45.78566" lon="6.53042">
        <ele>1541.4</ele>
        <time>2026-07-12T09:49:39Z</time>
      </trkpt>
      <trkpt lat="45.78564" lon="6.53042">
        <ele>1541.4</ele>
        <time>2026-07-12T09:49:40Z</time>
      </trkpt>
      <trkpt lat="45.78561" lon="6.53042">
        <ele>1542</ele>
        <time>2026-07-12T09:49:41Z</time>
      </trkpt>
      <trkpt lat="45.78559" lon="6.53042">
        <ele>1542</ele>
        <time>2026-07-12T09:49:42Z</time>
      </trkpt>
      <trkpt lat="45.78557" lon="6.53043">
        <ele>1542</ele>
        <time>2026-07-12T09:49:43Z</time>
      </trkpt>
      <trkpt lat="45.78555" lon="6.53044">
        <ele>1542</ele>
        <time>2026-07-12T09:49:44Z</time>
      </trkpt>
      <trkpt lat="45.78553" lon="6.53045">
        <ele>1542</ele>
        <time>2026-07-12T09:49:45Z</time>
      </trkpt>
      <trkpt lat="45.78551" lon="6.53045">
        <ele>1542</ele>
        <time>2026-07-12T09:49:46Z</time>
      </trkpt>
      <trkpt lat="45.78549" lon="6.53045">
        <ele>1542</ele>
        <time>2026-07-12T09:49:47Z</time>
      </trkpt>
      <trkpt lat="45.78547" lon="6.53045">
        <ele>1543.6</ele>
        <time>2026-07-12T09:49:48Z</time>
      </trkpt>
      <trkpt lat="45.78546" lon="6.53045">
        <ele>1543.6</ele>
        <time>2026-07-12T09:49:49Z</time>
      </trkpt>
      <trkpt lat="45.78543" lon="6.53045">
        <ele>1543.6</ele>
        <time>2026-07-12T09:49:50Z</time>
      </trkpt>
      <trkpt lat="45.78541" lon="6.53045">
        <ele>1543.6</ele>
        <time>2026-07-12T09:49:51Z</time>
      </trkpt>
      <trkpt lat="45.78539" lon="6.53044">
        <ele>1543.6</ele>
        <time>2026-07-12T09:49:52Z</time>
      </trkpt>
      <trkpt lat="45.78537" lon="6.53044">
        <ele>1544.6</ele>
        <time>2026-07-12T09:49:53Z</time>
      </trkpt>
      <trkpt lat="45.78535" lon="6.53043">
        <ele>1544.6</ele>
        <time>2026-07-12T09:49:54Z</time>
      </trkpt>
      <trkpt lat="45.78534" lon="6.53042">
        <ele>1544.6</ele>
        <time>2026-07-12T09:49:55Z</time>
      </trkpt>
      <trkpt lat="45.78533" lon="6.53041">
        <ele>1544.6</ele>
        <time>2026-07-12T09:49:56Z</time>
      </trkpt>
      <trkpt lat="45.78531" lon="6.53041">
        <ele>1544</ele>
        <time>2026-07-12T09:49:57Z</time>
      </trkpt>
      <trkpt lat="45.78529" lon="6.5304">
        <ele>1544</ele>
        <time>2026-07-12T09:49:58Z</time>
      </trkpt>
      <trkpt lat="45.78526" lon="6.5304">
        <ele>1544</ele>
        <time>2026-07-12T09:49:59Z</time>
      </trkpt>
      <trkpt lat="45.78524" lon="6.53041">
        <ele>1544.6</ele>
        <time>2026-07-12T09:50:00Z</time>
      </trkpt>
      <trkpt lat="45.78522" lon="6.53043">
        <ele>1545</ele>
        <time>2026-07-12T09:50:01Z</time>
      </trkpt>
      <trkpt lat="45.78519" lon="6.53044">
        <ele>1545.2</ele>
        <time>2026-07-12T09:50:02Z</time>
      </trkpt>
      <trkpt lat="45.78517" lon="6.53046">
        <ele>1545.2</ele>
        <time>2026-07-12T09:50:03Z</time>
      </trkpt>
      <trkpt lat="45.78515" lon="6.53047">
        <ele>1545.4</ele>
        <time>2026-07-12T09:50:04Z</time>
      </trkpt>
      <trkpt lat="45.78513" lon="6.53049">
        <ele>1545.4</ele>
        <time>2026-07-12T09:50:05Z</time>
      </trkpt>
      <trkpt lat="45.7851" lon="6.5305">
        <ele>1546.4</ele>
        <time>2026-07-12T09:50:06Z</time>
      </trkpt>
      <trkpt lat="45.78508" lon="6.53051">
        <ele>1546.4</ele>
        <time>2026-07-12T09:50:07Z</time>
      </trkpt>
      <trkpt lat="45.78505" lon="6.53051">
        <ele>1546.4</ele>
        <time>2026-07-12T09:50:08Z</time>
      </trkpt>
      <trkpt lat="45.78503" lon="6.53051">
        <ele>1547.4</ele>
        <time>2026-07-12T09:50:09Z</time>
      </trkpt>
      <trkpt lat="45.78501" lon="6.5305">
        <ele>1547.4</ele>
        <time>2026-07-12T09:50:10Z</time>
      </trkpt>
      <trkpt lat="45.78499" lon="6.5305">
        <ele>1547.4</ele>
        <time>2026-07-12T09:50:11Z</time>
      </trkpt>
      <trkpt lat="45.78497" lon="6.53049">
        <ele>1546.6</ele>
        <time>2026-07-12T09:50:12Z</time>
      </trkpt>
      <trkpt lat="45.78494" lon="6.53049">
        <ele>1546.6</ele>
        <time>2026-07-12T09:50:13Z</time>
      </trkpt>
      <trkpt lat="45.78492" lon="6.53049">
        <ele>1546.6</ele>
        <time>2026-07-12T09:50:14Z</time>
      </trkpt>
      <trkpt lat="45.78489" lon="6.53048">
        <ele>1546.6</ele>
        <time>2026-07-12T09:50:15Z</time>
      </trkpt>
      <trkpt lat="45.78487" lon="6.53048">
        <ele>1546.6</ele>
        <time>2026-07-12T09:50:16Z</time>
      </trkpt>
      <trkpt lat="45.78484" lon="6.53047">
        <ele>1546.6</ele>
        <time>2026-07-12T09:50:17Z</time>
      </trkpt>
      <trkpt lat="45.78482" lon="6.53045">
        <ele>1547</ele>
        <time>2026-07-12T09:50:18Z</time>
      </trkpt>
      <trkpt lat="45.7848" lon="6.53044">
        <ele>1547</ele>
        <time>2026-07-12T09:50:19Z</time>
      </trkpt>
      <trkpt lat="45.78477" lon="6.53043">
        <ele>1547</ele>
        <time>2026-07-12T09:50:20Z</time>
      </trkpt>
      <trkpt lat="45.78476" lon="6.53043">
        <ele>1547</ele>
        <time>2026-07-12T09:50:21Z</time>
      </trkpt>
      <trkpt lat="45.78475" lon="6.53042">
        <ele>1547.8</ele>
        <time>2026-07-12T09:50:22Z</time>
      </trkpt>
      <trkpt lat="45.78474" lon="6.53041">
        <ele>1547.8</ele>
        <time>2026-07-12T09:50:23Z</time>
      </trkpt>
      <trkpt lat="45.78473" lon="6.5304">
        <ele>1547.8</ele>
        <time>2026-07-12T09:50:24Z</time>
      </trkpt>
      <trkpt lat="45.78472" lon="6.53039">
        <ele>1548.6</ele>
        <time>2026-07-12T09:50:25Z</time>
      </trkpt>
      <trkpt lat="45.7846" lon="6.53036">
        <ele>1547.8</ele>
        <time>2026-07-12T10:07:59Z</time>
      </trkpt>
      <trkpt lat="45.7846" lon="6.53036">
        <ele>1547.8</ele>
        <time>2026-07-12T10:08:00Z</time>
      </trkpt>
      <trkpt lat="45.7846" lon="6.53035">
        <ele>1547.8</ele>
        <time>2026-07-12T10:08:01Z</time>
      </trkpt>
      <trkpt lat="45.78458" lon="6.53033">
        <ele>1547.8</ele>
        <time>2026-07-12T10:08:02Z</time>
      </trkpt>
      <trkpt lat="45.78457" lon="6.53032">
        <ele>1548</ele>
        <time>2026-07-12T10:08:03Z</time>
      </trkpt>
      <trkpt lat="45.78455" lon="6.53031">
        <ele>1548.4</ele>
        <time>2026-07-12T10:08:04Z</time>
      </trkpt>
      <trkpt lat="45.78453" lon="6.5303">
        <ele>1548.4</ele>
        <time>2026-07-12T10:08:05Z</time>
      </trkpt>
      <trkpt lat="45.78451" lon="6.53028">
        <ele>1548.8</ele>
        <time>2026-07-12T10:08:06Z</time>
      </trkpt>
      <trkpt lat="45.78449" lon="6.53027">
        <ele>1552.2</ele>
        <time>2026-07-12T10:08:07Z</time>
      </trkpt>
      <trkpt lat="45.78447" lon="6.53025">
        <ele>1552.2</ele>
        <time>2026-07-12T10:08:08Z</time>
      </trkpt>
      <trkpt lat="45.78446" lon="6.53023">
        <ele>1552.2</ele>
        <time>2026-07-12T10:08:09Z</time>
      </trkpt>
      <trkpt lat="45.78444" lon="6.53021">
        <ele>1552.2</ele>
        <time>2026-07-12T10:08:10Z</time>
      </trkpt>
      <trkpt lat="45.78443" lon="6.53019">
        <ele>1551.2</ele>
        <time>2026-07-12T10:08:11Z</time>
      </trkpt>
      <trkpt lat="45.78442" lon="6.53018">
        <ele>1549.6</ele>
        <time>2026-07-12T10:08:12Z</time>
      </trkpt>
      <trkpt lat="45.78441" lon="6.53016">
        <ele>1549.6</ele>
        <time>2026-07-12T10:08:13Z</time>
      </trkpt>
      <trkpt lat="45.7844" lon="6.53015">
        <ele>1549.6</ele>
        <time>2026-07-12T10:08:14Z</time>
      </trkpt>
      <trkpt lat="45.78438" lon="6.53013">
        <ele>1549.6</ele>
        <time>2026-07-12T10:08:15Z</time>
      </trkpt>
      <trkpt lat="45.78437" lon="6.53012">
        <ele>1549.8</ele>
        <time>2026-07-12T10:08:16Z</time>
      </trkpt>
      <trkpt lat="45.78436" lon="6.53011">
        <ele>1549.8</ele>
        <time>2026-07-12T10:08:17Z</time>
      </trkpt>
      <trkpt lat="45.78435" lon="6.53009">
        <ele>1549.8</ele>
        <time>2026-07-12T10:08:18Z</time>
      </trkpt>
      <trkpt lat="45.78434" lon="6.53007">
        <ele>1549.8</ele>
        <time>2026-07-12T10:08:19Z</time>
      </trkpt>
      <trkpt lat="45.78432" lon="6.53006">
        <ele>1550.8</ele>
        <time>2026-07-12T10:08:20Z</time>
      </trkpt>
      <trkpt lat="45.78432" lon="6.53004">
        <ele>1550.8</ele>
        <time>2026-07-12T10:08:21Z</time>
      </trkpt>
      <trkpt lat="45.7843" lon="6.53002">
        <ele>1550.8</ele>
        <time>2026-07-12T10:08:22Z</time>
      </trkpt>
      <trkpt lat="45.78429" lon="6.53">
        <ele>1550.8</ele>
        <time>2026-07-12T10:08:23Z</time>
      </trkpt>
      <trkpt lat="45.78428" lon="6.52998">
        <ele>1550.8</ele>
        <time>2026-07-12T10:08:24Z</time>
      </trkpt>
      <trkpt lat="45.78427" lon="6.52997">
        <ele>1551</ele>
        <time>2026-07-12T10:08:25Z</time>
      </trkpt>
      <trkpt lat="45.78425" lon="6.52994">
        <ele>1551.4</ele>
        <time>2026-07-12T10:08:26Z</time>
      </trkpt>
      <trkpt lat="45.78424" lon="6.52993">
        <ele>1551.4</ele>
        <time>2026-07-12T10:08:27Z</time>
      </trkpt>
      <trkpt lat="45.78422" lon="6.52991">
        <ele>1551.4</ele>
        <time>2026-07-12T10:08:28Z</time>
      </trkpt>
      <trkpt lat="45.78421" lon="6.52989">
        <ele>1551.4</ele>
        <time>2026-07-12T10:08:29Z</time>
      </trkpt>
      <trkpt lat="45.7842" lon="6.52988">
        <ele>1551.4</ele>
        <time>2026-07-12T10:08:30Z</time>
      </trkpt>
      <trkpt lat="45.78418" lon="6.52986">
        <ele>1551.4</ele>
        <time>2026-07-12T10:08:31Z</time>
      </trkpt>
      <trkpt lat="45.78416" lon="6.52984">
        <ele>1551</ele>
        <time>2026-07-12T10:08:32Z</time>
      </trkpt>
      <trkpt lat="45.78415" lon="6.52982">
        <ele>1551</ele>
        <time>2026-07-12T10:08:33Z</time>
      </trkpt>
      <trkpt lat="45.78414" lon="6.5298">
        <ele>1551</ele>
        <time>2026-07-12T10:08:34Z</time>
      </trkpt>
      <trkpt lat="45.78412" lon="6.52978">
        <ele>1551</ele>
        <time>2026-07-12T10:08:35Z</time>
      </trkpt>
      <trkpt lat="45.78411" lon="6.52976">
        <ele>1551</ele>
        <time>2026-07-12T10:08:36Z</time>
      </trkpt>
      <trkpt lat="45.78409" lon="6.52974">
        <ele>1551</ele>
        <time>2026-07-12T10:08:37Z</time>
      </trkpt>
      <trkpt lat="45.78407" lon="6.52972">
        <ele>1551</ele>
        <time>2026-07-12T10:08:38Z</time>
      </trkpt>
      <trkpt lat="45.78405" lon="6.5297">
        <ele>1551</ele>
        <time>2026-07-12T10:08:39Z</time>
      </trkpt>
      <trkpt lat="45.78404" lon="6.52968">
        <ele>1551.8</ele>
        <time>2026-07-12T10:08:40Z</time>
      </trkpt>
      <trkpt lat="45.78402" lon="6.52966">
        <ele>1552.6</ele>
        <time>2026-07-12T10:08:41Z</time>
      </trkpt>
      <trkpt lat="45.78401" lon="6.52964">
        <ele>1552.6</ele>
        <time>2026-07-12T10:08:42Z</time>
      </trkpt>
      <trkpt lat="45.784" lon="6.52962">
        <ele>1552.6</ele>
        <time>2026-07-12T10:08:43Z</time>
      </trkpt>
      <trkpt lat="45.78399" lon="6.52959">
        <ele>1552.2</ele>
        <time>2026-07-12T10:08:44Z</time>
      </trkpt>
      <trkpt lat="45.78397" lon="6.52957">
        <ele>1552.2</ele>
        <time>2026-07-12T10:08:45Z</time>
      </trkpt>
      <trkpt lat="45.78395" lon="6.52954">
        <ele>1552.2</ele>
        <time>2026-07-12T10:08:46Z</time>
      </trkpt>
      <trkpt lat="45.78393" lon="6.52952">
        <ele>1552.2</ele>
        <time>2026-07-12T10:08:47Z</time>
      </trkpt>
      <trkpt lat="45.78392" lon="6.5295">
        <ele>1552</ele>
        <time>2026-07-12T10:08:48Z</time>
      </trkpt>
      <trkpt lat="45.7839" lon="6.52949">
        <ele>1551.8</ele>
        <time>2026-07-12T10:08:49Z</time>
      </trkpt>
      <trkpt lat="45.78388" lon="6.52947">
        <ele>1551.8</ele>
        <time>2026-07-12T10:08:50Z</time>
      </trkpt>
      <trkpt lat="45.78386" lon="6.52945">
        <ele>1551.8</ele>
        <time>2026-07-12T10:08:51Z</time>
      </trkpt>
      <trkpt lat="45.78383" lon="6.52943">
        <ele>1552.2</ele>
        <time>2026-07-12T10:08:52Z</time>
      </trkpt>
      <trkpt lat="45.78381" lon="6.52941">
        <ele>1553</ele>
        <time>2026-07-12T10:08:53Z</time>
      </trkpt>
      <trkpt lat="45.78379" lon="6.52939">
        <ele>1553</ele>
        <time>2026-07-12T10:08:54Z</time>
      </trkpt>
      <trkpt lat="45.78377" lon="6.52936">
        <ele>1553</ele>
        <time>2026-07-12T10:08:55Z</time>
      </trkpt>
      <trkpt lat="45.78375" lon="6.52934">
        <ele>1552</ele>
        <time>2026-07-12T10:08:56Z</time>
      </trkpt>
      <trkpt lat="45.78374" lon="6.52932">
        <ele>1552</ele>
        <time>2026-07-12T10:08:57Z</time>
      </trkpt>
      <trkpt lat="45.78372" lon="6.52929">
        <ele>1552</ele>
        <time>2026-07-12T10:08:58Z</time>
      </trkpt>
      <trkpt lat="45.78371" lon="6.52926">
        <ele>1552.4</ele>
        <time>2026-07-12T10:08:59Z</time>
      </trkpt>
      <trkpt lat="45.78368" lon="6.52924">
        <ele>1552.4</ele>
        <time>2026-07-12T10:09:00Z</time>
      </trkpt>
      <trkpt lat="45.78366" lon="6.52921">
        <ele>1552.6</ele>
        <time>2026-07-12T10:09:01Z</time>
      </trkpt>
      <trkpt lat="45.78363" lon="6.52918">
        <ele>1552.6</ele>
        <time>2026-07-12T10:09:02Z</time>
      </trkpt>
      <trkpt lat="45.78362" lon="6.52916">
        <ele>1552.6</ele>
        <time>2026-07-12T10:09:03Z</time>
      </trkpt>
      <trkpt lat="45.7836" lon="6.52913">
        <ele>1552.6</ele>
        <time>2026-07-12T10:09:04Z</time>
      </trkpt>
      <trkpt lat="45.78358" lon="6.52909">
        <ele>1552.6</ele>
        <time>2026-07-12T10:09:05Z</time>
      </trkpt>
      <trkpt lat="45.78357" lon="6.52907">
        <ele>1552.6</ele>
        <time>2026-07-12T10:09:06Z</time>
      </trkpt>
      <trkpt lat="45.78355" lon="6.52904">
        <ele>1552.4</ele>
        <time>2026-07-12T10:09:07Z</time>
      </trkpt>
      <trkpt lat="45.78353" lon="6.52902">
        <ele>1552.2</ele>
        <time>2026-07-12T10:09:08Z</time>
      </trkpt>
      <trkpt lat="45.78352" lon="6.529">
        <ele>1552.2</ele>
        <time>2026-07-12T10:09:09Z</time>
      </trkpt>
      <trkpt lat="45.78349" lon="6.52898">
        <ele>1552.2</ele>
        <time>2026-07-12T10:09:10Z</time>
      </trkpt>
      <trkpt lat="45.78346" lon="6.52896">
        <ele>1553</ele>
        <time>2026-07-12T10:09:11Z</time>
      </trkpt>
      <trkpt lat="45.78344" lon="6.52893">
        <ele>1553</ele>
        <time>2026-07-12T10:09:12Z</time>
      </trkpt>
      <trkpt lat="45.78342" lon="6.52891">
        <ele>1553</ele>
        <time>2026-07-12T10:09:13Z</time>
      </trkpt>
      <trkpt lat="45.7834" lon="6.52889">
        <ele>1553</ele>
        <time>2026-07-12T10:09:14Z</time>
      </trkpt>
      <trkpt lat="45.78338" lon="6.52886">
        <ele>1553.6</ele>
        <time>2026-07-12T10:09:15Z</time>
      </trkpt>
      <trkpt lat="45.78336" lon="6.52884">
        <ele>1554</ele>
        <time>2026-07-12T10:09:16Z</time>
      </trkpt>
      <trkpt lat="45.78334" lon="6.52882">
        <ele>1554</ele>
        <time>2026-07-12T10:09:17Z</time>
      </trkpt>
      <trkpt lat="45.78332" lon="6.52879">
        <ele>1554</ele>
        <time>2026-07-12T10:09:18Z</time>
      </trkpt>
      <trkpt lat="45.7833" lon="6.52877">
        <ele>1554</ele>
        <time>2026-07-12T10:09:19Z</time>
      </trkpt>
      <trkpt lat="45.78328" lon="6.52876">
        <ele>1554</ele>
        <time>2026-07-12T10:09:20Z</time>
      </trkpt>
      <trkpt lat="45.78326" lon="6.52873">
        <ele>1554.6</ele>
        <time>2026-07-12T10:09:21Z</time>
      </trkpt>
      <trkpt lat="45.78325" lon="6.52871">
        <ele>1555</ele>
        <time>2026-07-12T10:09:22Z</time>
      </trkpt>
      <trkpt lat="45.78324" lon="6.52868">
        <ele>1555</ele>
        <time>2026-07-12T10:09:23Z</time>
      </trkpt>
      <trkpt lat="45.78323" lon="6.52865">
        <ele>1555</ele>
        <time>2026-07-12T10:09:24Z</time>
      </trkpt>
      <trkpt lat="45.78322" lon="6.52862">
        <ele>1555</ele>
        <time>2026-07-12T10:09:25Z</time>
      </trkpt>
      <trkpt lat="45.78321" lon="6.52859">
        <ele>1556</ele>
        <time>2026-07-12T10:09:26Z</time>
      </trkpt>
      <trkpt lat="45.78321" lon="6.52856">
        <ele>1556</ele>
        <time>2026-07-12T10:09:27Z</time>
      </trkpt>
      <trkpt lat="45.7832" lon="6.52853">
        <ele>1556</ele>
        <time>2026-07-12T10:09:28Z</time>
      </trkpt>
      <trkpt lat="45.7832" lon="6.52852">
        <ele>1555.2</ele>
        <time>2026-07-12T10:09:29Z</time>
      </trkpt>
      <trkpt lat="45.78319" lon="6.5285">
        <ele>1555.2</ele>
        <time>2026-07-12T10:09:30Z</time>
      </trkpt>
      <trkpt lat="45.78317" lon="6.5285">
        <ele>1555</ele>
        <time>2026-07-12T10:09:31Z</time>
      </trkpt>
      <trkpt lat="45.78316" lon="6.52851">
        <ele>1555</ele>
        <time>2026-07-12T10:09:32Z</time>
      </trkpt>
      <trkpt lat="45.78314" lon="6.52852">
        <ele>1555</ele>
        <time>2026-07-12T10:09:33Z</time>
      </trkpt>
      <trkpt lat="45.78314" lon="6.52853">
        <ele>1555.2</ele>
        <time>2026-07-12T10:09:34Z</time>
      </trkpt>
      <trkpt lat="45.78315" lon="6.52854">
        <ele>1555.2</ele>
        <time>2026-07-12T10:09:35Z</time>
      </trkpt>
      <trkpt lat="45.78319" lon="6.52846">
        <ele>1555.8</ele>
        <time>2026-07-12T10:09:46Z</time>
      </trkpt>
      <trkpt lat="45.7832" lon="6.52845">
        <ele>1558</ele>
        <time>2026-07-12T10:09:47Z</time>
      </trkpt>
      <trkpt lat="45.7832" lon="6.52843">
        <ele>1558</ele>
        <time>2026-07-12T10:09:48Z</time>
      </trkpt>
      <trkpt lat="45.78321" lon="6.5284">
        <ele>1558</ele>
        <time>2026-07-12T10:09:49Z</time>
      </trkpt>
      <trkpt lat="45.78322" lon="6.52838">
        <ele>1558</ele>
        <time>2026-07-12T10:09:50Z</time>
      </trkpt>
      <trkpt lat="45.78323" lon="6.52835">
        <ele>1559.4</ele>
        <time>2026-07-12T10:09:51Z</time>
      </trkpt>
      <trkpt lat="45.78324" lon="6.52833">
        <ele>1559.8</ele>
        <time>2026-07-12T10:09:52Z</time>
      </trkpt>
      <trkpt lat="45.78324" lon="6.5283">
        <ele>1559.8</ele>
        <time>2026-07-12T10:09:53Z</time>
      </trkpt>
      <trkpt lat="45.78323" lon="6.52828">
        <ele>1559.8</ele>
        <time>2026-07-12T10:09:54Z</time>
      </trkpt>
      <trkpt lat="45.78322" lon="6.52825">
        <ele>1559.4</ele>
        <time>2026-07-12T10:09:55Z</time>
      </trkpt>
      <trkpt lat="45.78321" lon="6.52823">
        <ele>1559.2</ele>
        <time>2026-07-12T10:09:56Z</time>
      </trkpt>
      <trkpt lat="45.7832" lon="6.52821">
        <ele>1559.2</ele>
        <time>2026-07-12T10:09:57Z</time>
      </trkpt>
      <trkpt lat="45.78319" lon="6.52818">
        <ele>1559.2</ele>
        <time>2026-07-12T10:09:58Z</time>
      </trkpt>
      <trkpt lat="45.78317" lon="6.52816">
        <ele>1560.4</ele>
        <time>2026-07-12T10:09:59Z</time>
      </trkpt>
      <trkpt lat="45.78316" lon="6.52813">
        <ele>1561</ele>
        <time>2026-07-12T10:10:00Z</time>
      </trkpt>
      <trkpt lat="45.78314" lon="6.52811">
        <ele>1561</ele>
        <time>2026-07-12T10:10:01Z</time>
      </trkpt>
      <trkpt lat="45.78313" lon="6.52808">
        <ele>1561</ele>
        <time>2026-07-12T10:10:02Z</time>
      </trkpt>
      <trkpt lat="45.78312" lon="6.52805">
        <ele>1560.8</ele>
        <time>2026-07-12T10:10:03Z</time>
      </trkpt>
      <trkpt lat="45.78311" lon="6.52801">
        <ele>1560.6</ele>
        <time>2026-07-12T10:10:04Z</time>
      </trkpt>
      <trkpt lat="45.78311" lon="6.52799">
        <ele>1560.6</ele>
        <time>2026-07-12T10:10:05Z</time>
      </trkpt>
      <trkpt lat="45.7831" lon="6.52796">
        <ele>1560.6</ele>
        <time>2026-07-12T10:10:06Z</time>
      </trkpt>
      <trkpt lat="45.78308" lon="6.52793">
        <ele>1562.2</ele>
        <time>2026-07-12T10:10:11Z</time>
      </trkpt>
      <trkpt lat="45.78308" lon="6.52793">
        <ele>1563</ele>
        <time>2026-07-12T10:10:12Z</time>
      </trkpt>
      <trkpt lat="45.78307" lon="6.52791">
        <ele>1563</ele>
        <time>2026-07-12T10:10:13Z</time>
      </trkpt>
      <trkpt lat="45.78307" lon="6.52788">
        <ele>1563</ele>
        <time>2026-07-12T10:10:14Z</time>
      </trkpt>
      <trkpt lat="45.78307" lon="6.52785">
        <ele>1562.8</ele>
        <time>2026-07-12T10:10:15Z</time>
      </trkpt>
      <trkpt lat="45.78307" lon="6.52783">
        <ele>1562</ele>
        <time>2026-07-12T10:10:16Z</time>
      </trkpt>
      <trkpt lat="45.78306" lon="6.52781">
        <ele>1561.4</ele>
        <time>2026-07-12T10:10:17Z</time>
      </trkpt>
      <trkpt lat="45.78305" lon="6.52779">
        <ele>1561.4</ele>
        <time>2026-07-12T10:10:18Z</time>
      </trkpt>
      <trkpt lat="45.78305" lon="6.52778">
        <ele>1561.4</ele>
        <time>2026-07-12T10:10:19Z</time>
      </trkpt>
      <trkpt lat="45.78304" lon="6.52776">
        <ele>1562.4</ele>
        <time>2026-07-12T10:10:20Z</time>
      </trkpt>
      <trkpt lat="45.78303" lon="6.52775">
        <ele>1562.4</ele>
        <time>2026-07-12T10:10:21Z</time>
      </trkpt>
      <trkpt lat="45.78301" lon="6.52774">
        <ele>1562.4</ele>
        <time>2026-07-12T10:10:22Z</time>
      </trkpt>
      <trkpt lat="45.783" lon="6.52772">
        <ele>1562.4</ele>
        <time>2026-07-12T10:10:23Z</time>
      </trkpt>
      <trkpt lat="45.78298" lon="6.52771">
        <ele>1563.6</ele>
        <time>2026-07-12T10:10:24Z</time>
      </trkpt>
      <trkpt lat="45.78297" lon="6.5277">
        <ele>1564</ele>
        <time>2026-07-12T10:10:25Z</time>
      </trkpt>
      <trkpt lat="45.78296" lon="6.52768">
        <ele>1564.2</ele>
        <time>2026-07-12T10:10:26Z</time>
      </trkpt>
      <trkpt lat="45.78296" lon="6.52767">
        <ele>1564.2</ele>
        <time>2026-07-12T10:10:27Z</time>
      </trkpt>
      <trkpt lat="45.78296" lon="6.52766">
        <ele>1564.8</ele>
        <time>2026-07-12T10:10:28Z</time>
      </trkpt>
      <trkpt lat="45.78296" lon="6.52763">
        <ele>1564.8</ele>
        <time>2026-07-12T10:10:29Z</time>
      </trkpt>
      <trkpt lat="45.78296" lon="6.52761">
        <ele>1564.8</ele>
        <time>2026-07-12T10:10:30Z</time>
      </trkpt>
      <trkpt lat="45.78296" lon="6.52761">
        <ele>1564.8</ele>
        <time>2026-07-12T10:10:31Z</time>
      </trkpt>
      <trkpt lat="45.78296" lon="6.5276">
        <ele>1565.6</ele>
        <time>2026-07-12T10:10:32Z</time>
      </trkpt>
      <trkpt lat="45.78295" lon="6.52758">
        <ele>1565.6</ele>
        <time>2026-07-12T10:10:33Z</time>
      </trkpt>
      <trkpt lat="45.78295" lon="6.52756">
        <ele>1565.6</ele>
        <time>2026-07-12T10:10:34Z</time>
      </trkpt>
      <trkpt lat="45.78295" lon="6.52755">
        <ele>1565.2</ele>
        <time>2026-07-12T10:10:35Z</time>
      </trkpt>
      <trkpt lat="45.78295" lon="6.52753">
        <ele>1564.8</ele>
        <time>2026-07-12T10:10:36Z</time>
      </trkpt>
      <trkpt lat="45.78296" lon="6.52752">
        <ele>1564.8</ele>
        <time>2026-07-12T10:10:37Z</time>
      </trkpt>
      <trkpt lat="45.78295" lon="6.5275">
        <ele>1564.8</ele>
        <time>2026-07-12T10:10:38Z</time>
      </trkpt>
      <trkpt lat="45.78294" lon="6.52749">
        <ele>1564.8</ele>
        <time>2026-07-12T10:10:39Z</time>
      </trkpt>
      <trkpt lat="45.78293" lon="6.52747">
        <ele>1564.8</ele>
        <time>2026-07-12T10:10:40Z</time>
      </trkpt>
      <trkpt lat="45.78292" lon="6.52745">
        <ele>1565</ele>
        <time>2026-07-12T10:10:41Z</time>
      </trkpt>
      <trkpt lat="45.78291" lon="6.52743">
        <ele>1565.6</ele>
        <time>2026-07-12T10:10:42Z</time>
      </trkpt>
      <trkpt lat="45.78291" lon="6.52741">
        <ele>1565.6</ele>
        <time>2026-07-12T10:10:43Z</time>
      </trkpt>
      <trkpt lat="45.78289" lon="6.5274">
        <ele>1565.6</ele>
        <time>2026-07-12T10:10:44Z</time>
      </trkpt>
      <trkpt lat="45.78288" lon="6.52738">
        <ele>1565.6</ele>
        <time>2026-07-12T10:10:45Z</time>
      </trkpt>
      <trkpt lat="45.78287" lon="6.52736">
        <ele>1565.4</ele>
        <time>2026-07-12T10:10:46Z</time>
      </trkpt>
      <trkpt lat="45.78286" lon="6.52733">
        <ele>1565.2</ele>
        <time>2026-07-12T10:10:47Z</time>
      </trkpt>
      <trkpt lat="45.78284" lon="6.5273">
        <ele>1564.4</ele>
        <time>2026-07-12T10:10:48Z</time>
      </trkpt>
      <trkpt lat="45.78283" lon="6.52728">
        <ele>1564.4</ele>
        <time>2026-07-12T10:10:49Z</time>
      </trkpt>
      <trkpt lat="45.78281" lon="6.52725">
        <ele>1564.4</ele>
        <time>2026-07-12T10:10:50Z</time>
      </trkpt>
      <trkpt lat="45.78279" lon="6.52723">
        <ele>1564.4</ele>
        <time>2026-07-12T10:10:51Z</time>
      </trkpt>
      <trkpt lat="45.78277" lon="6.5272">
        <ele>1562.4</ele>
        <time>2026-07-12T10:10:52Z</time>
      </trkpt>
      <trkpt lat="45.78274" lon="6.52717">
        <ele>1562.2</ele>
        <time>2026-07-12T10:10:53Z</time>
      </trkpt>
      <trkpt lat="45.78271" lon="6.52715">
        <ele>1562.2</ele>
        <time>2026-07-12T10:10:54Z</time>
      </trkpt>
      <trkpt lat="45.78269" lon="6.52714">
        <ele>1562.2</ele>
        <time>2026-07-12T10:10:55Z</time>
      </trkpt>
      <trkpt lat="45.78267" lon="6.52712">
        <ele>1562.2</ele>
        <time>2026-07-12T10:10:56Z</time>
      </trkpt>
      <trkpt lat="45.78266" lon="6.5271">
        <ele>1562.2</ele>
        <time>2026-07-12T10:10:57Z</time>
      </trkpt>
      <trkpt lat="45.78264" lon="6.52707">
        <ele>1562.2</ele>
        <time>2026-07-12T10:10:58Z</time>
      </trkpt>
      <trkpt lat="45.78263" lon="6.52703">
        <ele>1563.2</ele>
        <time>2026-07-12T10:10:59Z</time>
      </trkpt>
      <trkpt lat="45.78262" lon="6.52698">
        <ele>1563.2</ele>
        <time>2026-07-12T10:11:00Z</time>
      </trkpt>
      <trkpt lat="45.78261" lon="6.52695">
        <ele>1563.2</ele>
        <time>2026-07-12T10:11:01Z</time>
      </trkpt>
      <trkpt lat="45.7826" lon="6.52692">
        <ele>1563</ele>
        <time>2026-07-12T10:11:02Z</time>
      </trkpt>
      <trkpt lat="45.78258" lon="6.52689">
        <ele>1562.8</ele>
        <time>2026-07-12T10:11:03Z</time>
      </trkpt>
      <trkpt lat="45.78257" lon="6.52686">
        <ele>1562.8</ele>
        <time>2026-07-12T10:11:04Z</time>
      </trkpt>
      <trkpt lat="45.78255" lon="6.52684">
        <ele>1562.8</ele>
        <time>2026-07-12T10:11:05Z</time>
      </trkpt>
      <trkpt lat="45.78254" lon="6.52681">
        <ele>1563.2</ele>
        <time>2026-07-12T10:11:06Z</time>
      </trkpt>
      <trkpt lat="45.78253" lon="6.52679">
        <ele>1563</ele>
        <time>2026-07-12T10:11:07Z</time>
      </trkpt>
      <trkpt lat="45.78252" lon="6.52676">
        <ele>1562.4</ele>
        <time>2026-07-12T10:11:08Z</time>
      </trkpt>
      <trkpt lat="45.78251" lon="6.52674">
        <ele>1562.4</ele>
        <time>2026-07-12T10:11:09Z</time>
      </trkpt>
      <trkpt lat="45.7825" lon="6.52671">
        <ele>1562.4</ele>
        <time>2026-07-12T10:11:10Z</time>
      </trkpt>
      <trkpt lat="45.78249" lon="6.52669">
        <ele>1563.4</ele>
        <time>2026-07-12T10:11:11Z</time>
      </trkpt>
      <trkpt lat="45.78248" lon="6.52667">
        <ele>1563.4</ele>
        <time>2026-07-12T10:11:12Z</time>
      </trkpt>
      <trkpt lat="45.78247" lon="6.52664">
        <ele>1563.4</ele>
        <time>2026-07-12T10:11:13Z</time>
      </trkpt>
      <trkpt lat="45.78237" lon="6.52642">
        <ele>1561</ele>
        <time>2026-07-12T10:11:31Z</time>
      </trkpt>
      <trkpt lat="45.78236" lon="6.5264">
        <ele>1560.4</ele>
        <time>2026-07-12T10:11:32Z</time>
      </trkpt>
      <trkpt lat="45.78235" lon="6.52639">
        <ele>1559.4</ele>
        <time>2026-07-12T10:11:33Z</time>
      </trkpt>
      <trkpt lat="45.78234" lon="6.52637">
        <ele>1559.4</ele>
        <time>2026-07-12T10:11:34Z</time>
      </trkpt>
      <trkpt lat="45.78233" lon="6.52635">
        <ele>1558.8</ele>
        <time>2026-07-12T10:11:35Z</time>
      </trkpt>
      <trkpt lat="45.78232" lon="6.52633">
        <ele>1558.8</ele>
        <time>2026-07-12T10:11:36Z</time>
      </trkpt>
      <trkpt lat="45.78231" lon="6.52631">
        <ele>1558.8</ele>
        <time>2026-07-12T10:11:37Z</time>
      </trkpt>
      <trkpt lat="45.78229" lon="6.52629">
        <ele>1559.6</ele>
        <time>2026-07-12T10:11:38Z</time>
      </trkpt>
      <trkpt lat="45.78228" lon="6.52627">
        <ele>1559.6</ele>
        <time>2026-07-12T10:11:39Z</time>
      </trkpt>
      <trkpt lat="45.78226" lon="6.52626">
        <ele>1559.6</ele>
        <time>2026-07-12T10:11:40Z</time>
      </trkpt>
      <trkpt lat="45.78225" lon="6.52624">
        <ele>1559.6</ele>
        <time>2026-07-12T10:11:41Z</time>
      </trkpt>
      <trkpt lat="45.78225" lon="6.52621">
        <ele>1559.6</ele>
        <time>2026-07-12T10:11:42Z</time>
      </trkpt>
      <trkpt lat="45.78225" lon="6.52619">
        <ele>1559.6</ele>
        <time>2026-07-12T10:11:43Z</time>
      </trkpt>
      <trkpt lat="45.78226" lon="6.52617">
        <ele>1559.6</ele>
        <time>2026-07-12T10:11:44Z</time>
      </trkpt>
      <trkpt lat="45.78228" lon="6.52615">
        <ele>1559.6</ele>
        <time>2026-07-12T10:11:45Z</time>
      </trkpt>
      <trkpt lat="45.78229" lon="6.52613">
        <ele>1561.2</ele>
        <time>2026-07-12T10:11:46Z</time>
      </trkpt>
      <trkpt lat="45.7823" lon="6.5261">
        <ele>1561.2</ele>
        <time>2026-07-12T10:11:47Z</time>
      </trkpt>
      <trkpt lat="45.78232" lon="6.52607">
        <ele>1561.2</ele>
        <time>2026-07-12T10:11:48Z</time>
      </trkpt>
      <trkpt lat="45.78234" lon="6.52605">
        <ele>1561.2</ele>
        <time>2026-07-12T10:11:49Z</time>
      </trkpt>
      <trkpt lat="45.78237" lon="6.52603">
        <ele>1561.2</ele>
        <time>2026-07-12T10:11:50Z</time>
      </trkpt>
      <trkpt lat="45.7824" lon="6.52601">
        <ele>1561.2</ele>
        <time>2026-07-12T10:11:51Z</time>
      </trkpt>
      <trkpt lat="45.78243" lon="6.526">
        <ele>1561.2</ele>
        <time>2026-07-12T10:11:52Z</time>
      </trkpt>
      <trkpt lat="45.78246" lon="6.52599">
        <ele>1561.2</ele>
        <time>2026-07-12T10:11:53Z</time>
      </trkpt>
      <trkpt lat="45.78249" lon="6.52598">
        <ele>1561.2</ele>
        <time>2026-07-12T10:11:54Z</time>
      </trkpt>
      <trkpt lat="45.78252" lon="6.52596">
        <ele>1561.2</ele>
        <time>2026-07-12T10:11:55Z</time>
      </trkpt>
      <trkpt lat="45.78255" lon="6.52594">
        <ele>1562.8</ele>
        <time>2026-07-12T10:11:56Z</time>
      </trkpt>
      <trkpt lat="45.78258" lon="6.52592">
        <ele>1562.8</ele>
        <time>2026-07-12T10:11:57Z</time>
      </trkpt>
      <trkpt lat="45.78261" lon="6.52589">
        <ele>1562.8</ele>
        <time>2026-07-12T10:11:58Z</time>
      </trkpt>
      <trkpt lat="45.78264" lon="6.52587">
        <ele>1561.8</ele>
        <time>2026-07-12T10:11:59Z</time>
      </trkpt>
      <trkpt lat="45.78267" lon="6.52584">
        <ele>1561.8</ele>
        <time>2026-07-12T10:12:00Z</time>
      </trkpt>
      <trkpt lat="45.7827" lon="6.52582">
        <ele>1561.8</ele>
        <time>2026-07-12T10:12:01Z</time>
      </trkpt>
      <trkpt lat="45.78273" lon="6.52579">
        <ele>1562.6</ele>
        <time>2026-07-12T10:12:02Z</time>
      </trkpt>
      <trkpt lat="45.78276" lon="6.52575">
        <ele>1562.6</ele>
        <time>2026-07-12T10:12:03Z</time>
      </trkpt>
      <trkpt lat="45.78278" lon="6.52572">
        <ele>1562.6</ele>
        <time>2026-07-12T10:12:04Z</time>
      </trkpt>
      <trkpt lat="45.7828" lon="6.52567">
        <ele>1562.6</ele>
        <time>2026-07-12T10:12:05Z</time>
      </trkpt>
      <trkpt lat="45.78282" lon="6.52563">
        <ele>1563.2</ele>
        <time>2026-07-12T10:12:06Z</time>
      </trkpt>
      <trkpt lat="45.78284" lon="6.52558">
        <ele>1563.4</ele>
        <time>2026-07-12T10:12:07Z</time>
      </trkpt>
      <trkpt lat="45.78285" lon="6.52554">
        <ele>1563.4</ele>
        <time>2026-07-12T10:12:08Z</time>
      </trkpt>
      <trkpt lat="45.78286" lon="6.52549">
        <ele>1563.4</ele>
        <time>2026-07-12T10:12:09Z</time>
      </trkpt>
      <trkpt lat="45.78288" lon="6.52544">
        <ele>1563.4</ele>
        <time>2026-07-12T10:12:10Z</time>
      </trkpt>
      <trkpt lat="45.78289" lon="6.52539">
        <ele>1563.4</ele>
        <time>2026-07-12T10:12:11Z</time>
      </trkpt>
      <trkpt lat="45.7829" lon="6.52534">
        <ele>1564.6</ele>
        <time>2026-07-12T10:12:12Z</time>
      </trkpt>
      <trkpt lat="45.78291" lon="6.52529">
        <ele>1564.6</ele>
        <time>2026-07-12T10:12:13Z</time>
      </trkpt>
      <trkpt lat="45.78292" lon="6.52523">
        <ele>1564.6</ele>
        <time>2026-07-12T10:12:14Z</time>
      </trkpt>
      <trkpt lat="45.78294" lon="6.52518">
        <ele>1564.6</ele>
        <time>2026-07-12T10:12:15Z</time>
      </trkpt>
      <trkpt lat="45.78295" lon="6.52513">
        <ele>1564.6</ele>
        <time>2026-07-12T10:12:16Z</time>
      </trkpt>
      <trkpt lat="45.78297" lon="6.52508">
        <ele>1564.6</ele>
        <time>2026-07-12T10:12:17Z</time>
      </trkpt>
      <trkpt lat="45.78298" lon="6.52504">
        <ele>1565.2</ele>
        <time>2026-07-12T10:12:18Z</time>
      </trkpt>
      <trkpt lat="45.783" lon="6.52499">
        <ele>1565.2</ele>
        <time>2026-07-12T10:12:19Z</time>
      </trkpt>
      <trkpt lat="45.78303" lon="6.52495">
        <ele>1565.2</ele>
        <time>2026-07-12T10:12:20Z</time>
      </trkpt>
      <trkpt lat="45.78306" lon="6.52491">
        <ele>1565.2</ele>
        <time>2026-07-12T10:12:21Z</time>
      </trkpt>
      <trkpt lat="45.78308" lon="6.52487">
        <ele>1565.2</ele>
        <time>2026-07-12T10:12:22Z</time>
      </trkpt>
      <trkpt lat="45.78312" lon="6.52484">
        <ele>1565.2</ele>
        <time>2026-07-12T10:12:23Z</time>
      </trkpt>
      <trkpt lat="45.78315" lon="6.52481">
        <ele>1565.2</ele>
        <time>2026-07-12T10:12:24Z</time>
      </trkpt>
      <trkpt lat="45.78318" lon="6.52478">
        <ele>1566.8</ele>
        <time>2026-07-12T10:12:25Z</time>
      </trkpt>
      <trkpt lat="45.78322" lon="6.52476">
        <ele>1566.8</ele>
        <time>2026-07-12T10:12:26Z</time>
      </trkpt>
      <trkpt lat="45.78325" lon="6.52474">
        <ele>1566.8</ele>
        <time>2026-07-12T10:12:27Z</time>
      </trkpt>
      <trkpt lat="45.78329" lon="6.52472">
        <ele>1565.4</ele>
        <time>2026-07-12T10:12:28Z</time>
      </trkpt>
      <trkpt lat="45.78332" lon="6.52469">
        <ele>1565.4</ele>
        <time>2026-07-12T10:12:29Z</time>
      </trkpt>
      <trkpt lat="45.78336" lon="6.52466">
        <ele>1565.4</ele>
        <time>2026-07-12T10:12:30Z</time>
      </trkpt>
      <trkpt lat="45.78339" lon="6.52463">
        <ele>1565.4</ele>
        <time>2026-07-12T10:12:31Z</time>
      </trkpt>
      <trkpt lat="45.78342" lon="6.5246">
        <ele>1565.4</ele>
        <time>2026-07-12T10:12:32Z</time>
      </trkpt>
      <trkpt lat="45.78346" lon="6.52457">
        <ele>1565.4</ele>
        <time>2026-07-12T10:12:33Z</time>
      </trkpt>
      <trkpt lat="45.78349" lon="6.52454">
        <ele>1565.4</ele>
        <time>2026-07-12T10:12:34Z</time>
      </trkpt>
      <trkpt lat="45.78352" lon="6.5245">
        <ele>1565.4</ele>
        <time>2026-07-12T10:12:35Z</time>
      </trkpt>
      <trkpt lat="45.78355" lon="6.52447">
        <ele>1566.4</ele>
        <time>2026-07-12T10:12:36Z</time>
      </trkpt>
      <trkpt lat="45.78357" lon="6.52443">
        <ele>1566.4</ele>
        <time>2026-07-12T10:12:37Z</time>
      </trkpt>
      <trkpt lat="45.7836" lon="6.52439">
        <ele>1566.4</ele>
        <time>2026-07-12T10:12:38Z</time>
      </trkpt>
      <trkpt lat="45.78363" lon="6.52434">
        <ele>1566.4</ele>
        <time>2026-07-12T10:12:39Z</time>
      </trkpt>
      <trkpt lat="45.78365" lon="6.52431">
        <ele>1566.4</ele>
        <time>2026-07-12T10:12:40Z</time>
      </trkpt>
      <trkpt lat="45.78368" lon="6.52426">
        <ele>1566.8</ele>
        <time>2026-07-12T10:12:41Z</time>
      </trkpt>
      <trkpt lat="45.78371" lon="6.52423">
        <ele>1567.8</ele>
        <time>2026-07-12T10:12:42Z</time>
      </trkpt>
      <trkpt lat="45.78373" lon="6.52419">
        <ele>1568.2</ele>
        <time>2026-07-12T10:12:43Z</time>
      </trkpt>
      <trkpt lat="45.78375" lon="6.52414">
        <ele>1568.2</ele>
        <time>2026-07-12T10:12:44Z</time>
      </trkpt>
      <trkpt lat="45.78377" lon="6.5241">
        <ele>1567.6</ele>
        <time>2026-07-12T10:12:45Z</time>
      </trkpt>
      <trkpt lat="45.78379" lon="6.52405">
        <ele>1567.6</ele>
        <time>2026-07-12T10:12:46Z</time>
      </trkpt>
      <trkpt lat="45.78381" lon="6.52401">
        <ele>1567.6</ele>
        <time>2026-07-12T10:12:47Z</time>
      </trkpt>
      <trkpt lat="45.78383" lon="6.52397">
        <ele>1567.6</ele>
        <time>2026-07-12T10:12:48Z</time>
      </trkpt>
      <trkpt lat="45.78385" lon="6.52393">
        <ele>1567.6</ele>
        <time>2026-07-12T10:12:49Z</time>
      </trkpt>
      <trkpt lat="45.78387" lon="6.5239">
        <ele>1567.6</ele>
        <time>2026-07-12T10:12:50Z</time>
      </trkpt>
      <trkpt lat="45.78389" lon="6.52387">
        <ele>1567.6</ele>
        <time>2026-07-12T10:12:51Z</time>
      </trkpt>
      <trkpt lat="45.78392" lon="6.52384">
        <ele>1567.6</ele>
        <time>2026-07-12T10:12:52Z</time>
      </trkpt>
      <trkpt lat="45.78394" lon="6.52381">
        <ele>1567.6</ele>
        <time>2026-07-12T10:12:53Z</time>
      </trkpt>
      <trkpt lat="45.78397" lon="6.52378">
        <ele>1568.2</ele>
        <time>2026-07-12T10:12:54Z</time>
      </trkpt>
      <trkpt lat="45.78399" lon="6.52376">
        <ele>1568.2</ele>
        <time>2026-07-12T10:12:55Z</time>
      </trkpt>
      <trkpt lat="45.78402" lon="6.52374">
        <ele>1568.2</ele>
        <time>2026-07-12T10:12:56Z</time>
      </trkpt>
      <trkpt lat="45.78405" lon="6.52372">
        <ele>1567.6</ele>
        <time>2026-07-12T10:12:57Z</time>
      </trkpt>
      <trkpt lat="45.78407" lon="6.52371">
        <ele>1567.6</ele>
        <time>2026-07-12T10:12:58Z</time>
      </trkpt>
      <trkpt lat="45.7841" lon="6.52368">
        <ele>1567.6</ele>
        <time>2026-07-12T10:12:59Z</time>
      </trkpt>
      <trkpt lat="45.78413" lon="6.52365">
        <ele>1567.6</ele>
        <time>2026-07-12T10:13:00Z</time>
      </trkpt>
      <trkpt lat="45.78416" lon="6.52362">
        <ele>1567</ele>
        <time>2026-07-12T10:13:01Z</time>
      </trkpt>
      <trkpt lat="45.7842" lon="6.52359">
        <ele>1567</ele>
        <time>2026-07-12T10:13:02Z</time>
      </trkpt>
      <trkpt lat="45.78423" lon="6.52356">
        <ele>1567</ele>
        <time>2026-07-12T10:13:03Z</time>
      </trkpt>
      <trkpt lat="45.78425" lon="6.52352">
        <ele>1567</ele>
        <time>2026-07-12T10:13:04Z</time>
      </trkpt>
      <trkpt lat="45.78428" lon="6.52349">
        <ele>1567</ele>
        <time>2026-07-12T10:13:05Z</time>
      </trkpt>
      <trkpt lat="45.78431" lon="6.52346">
        <ele>1567.2</ele>
        <time>2026-07-12T10:13:06Z</time>
      </trkpt>
      <trkpt lat="45.78434" lon="6.52341">
        <ele>1567.8</ele>
        <time>2026-07-12T10:13:07Z</time>
      </trkpt>
      <trkpt lat="45.78437" lon="6.52337">
        <ele>1567.8</ele>
        <time>2026-07-12T10:13:08Z</time>
      </trkpt>
      <trkpt lat="45.78439" lon="6.52331">
        <ele>1567.8</ele>
        <time>2026-07-12T10:13:09Z</time>
      </trkpt>
      <trkpt lat="45.78442" lon="6.52326">
        <ele>1567.8</ele>
        <time>2026-07-12T10:13:10Z</time>
      </trkpt>
      <trkpt lat="45.78445" lon="6.52321">
        <ele>1567.8</ele>
        <time>2026-07-12T10:13:11Z</time>
      </trkpt>
      <trkpt lat="45.78447" lon="6.52317">
        <ele>1567.8</ele>
        <time>2026-07-12T10:13:12Z</time>
      </trkpt>
      <trkpt lat="45.78449" lon="6.52312">
        <ele>1567.4</ele>
        <time>2026-07-12T10:13:13Z</time>
      </trkpt>
      <trkpt lat="45.78451" lon="6.52306">
        <ele>1567.4</ele>
        <time>2026-07-12T10:13:14Z</time>
      </trkpt>
      <trkpt lat="45.78453" lon="6.52301">
        <ele>1567.4</ele>
        <time>2026-07-12T10:13:15Z</time>
      </trkpt>
      <trkpt lat="45.78455" lon="6.52295">
        <ele>1568.4</ele>
        <time>2026-07-12T10:13:16Z</time>
      </trkpt>
      <trkpt lat="45.78458" lon="6.52291">
        <ele>1568.4</ele>
        <time>2026-07-12T10:13:17Z</time>
      </trkpt>
      <trkpt lat="45.78458" lon="6.52286">
        <ele>1568.4</ele>
        <time>2026-07-12T10:13:18Z</time>
      </trkpt>
      <trkpt lat="45.7846" lon="6.52281">
        <ele>1568.4</ele>
        <time>2026-07-12T10:13:19Z</time>
      </trkpt>
      <trkpt lat="45.78461" lon="6.52277">
        <ele>1568.4</ele>
        <time>2026-07-12T10:13:20Z</time>
      </trkpt>
      <trkpt lat="45.78462" lon="6.52272">
        <ele>1567.8</ele>
        <time>2026-07-12T10:13:21Z</time>
      </trkpt>
      <trkpt lat="45.78465" lon="6.52269">
        <ele>1567.8</ele>
        <time>2026-07-12T10:13:22Z</time>
      </trkpt>
      <trkpt lat="45.78467" lon="6.52265">
        <ele>1567.8</ele>
        <time>2026-07-12T10:13:23Z</time>
      </trkpt>
      <trkpt lat="45.78469" lon="6.52263">
        <ele>1567.8</ele>
        <time>2026-07-12T10:13:24Z</time>
      </trkpt>
      <trkpt lat="45.78471" lon="6.52259">
        <ele>1566.8</ele>
        <time>2026-07-12T10:13:25Z</time>
      </trkpt>
      <trkpt lat="45.78473" lon="6.52255">
        <ele>1566.8</ele>
        <time>2026-07-12T10:13:26Z</time>
      </trkpt>
      <trkpt lat="45.78474" lon="6.52251">
        <ele>1566.8</ele>
        <time>2026-07-12T10:13:27Z</time>
      </trkpt>
      <trkpt lat="45.78475" lon="6.52247">
        <ele>1567.2</ele>
        <time>2026-07-12T10:13:28Z</time>
      </trkpt>
      <trkpt lat="45.78475" lon="6.52244">
        <ele>1567.2</ele>
        <time>2026-07-12T10:13:29Z</time>
      </trkpt>
      <trkpt lat="45.78475" lon="6.5224">
        <ele>1567.2</ele>
        <time>2026-07-12T10:13:30Z</time>
      </trkpt>
      <trkpt lat="45.78474" lon="6.52237">
        <ele>1567</ele>
        <time>2026-07-12T10:13:31Z</time>
      </trkpt>
      <trkpt lat="45.78474" lon="6.52234">
        <ele>1566.6</ele>
        <time>2026-07-12T10:13:32Z</time>
      </trkpt>
      <trkpt lat="45.78473" lon="6.52231">
        <ele>1566.6</ele>
        <time>2026-07-12T10:13:33Z</time>
      </trkpt>
      <trkpt lat="45.78472" lon="6.52228">
        <ele>1566</ele>
        <time>2026-07-12T10:13:34Z</time>
      </trkpt>
      <trkpt lat="45.7847" lon="6.52225">
        <ele>1566</ele>
        <time>2026-07-12T10:13:35Z</time>
      </trkpt>
      <trkpt lat="45.78468" lon="6.52222">
        <ele>1566</ele>
        <time>2026-07-12T10:13:36Z</time>
      </trkpt>
      <trkpt lat="45.78466" lon="6.52219">
        <ele>1566</ele>
        <time>2026-07-12T10:13:37Z</time>
      </trkpt>
      <trkpt lat="45.78465" lon="6.52215">
        <ele>1566</ele>
        <time>2026-07-12T10:13:38Z</time>
      </trkpt>
      <trkpt lat="45.78465" lon="6.52212">
        <ele>1566</ele>
        <time>2026-07-12T10:13:39Z</time>
      </trkpt>
      <trkpt lat="45.78466" lon="6.52208">
        <ele>1566</ele>
        <time>2026-07-12T10:13:40Z</time>
      </trkpt>
      <trkpt lat="45.78467" lon="6.52203">
        <ele>1565</ele>
        <time>2026-07-12T10:13:41Z</time>
      </trkpt>
      <trkpt lat="45.78468" lon="6.52198">
        <ele>1564</ele>
        <time>2026-07-12T10:13:42Z</time>
      </trkpt>
      <trkpt lat="45.78469" lon="6.52193">
        <ele>1563.6</ele>
        <time>2026-07-12T10:13:43Z</time>
      </trkpt>
      <trkpt lat="45.7847" lon="6.52188">
        <ele>1563</ele>
        <time>2026-07-12T10:13:44Z</time>
      </trkpt>
      <trkpt lat="45.78471" lon="6.52182">
        <ele>1563</ele>
        <time>2026-07-12T10:13:45Z</time>
      </trkpt>
      <trkpt lat="45.78472" lon="6.52176">
        <ele>1563</ele>
        <time>2026-07-12T10:13:46Z</time>
      </trkpt>
      <trkpt lat="45.78473" lon="6.52171">
        <ele>1563</ele>
        <time>2026-07-12T10:13:47Z</time>
      </trkpt>
      <trkpt lat="45.78474" lon="6.52166">
        <ele>1563</ele>
        <time>2026-07-12T10:13:48Z</time>
      </trkpt>
      <trkpt lat="45.78475" lon="6.52162">
        <ele>1562.6</ele>
        <time>2026-07-12T10:13:49Z</time>
      </trkpt>
      <trkpt lat="45.78475" lon="6.52157">
        <ele>1562.8</ele>
        <time>2026-07-12T10:13:50Z</time>
      </trkpt>
      <trkpt lat="45.78476" lon="6.52154">
        <ele>1562.8</ele>
        <time>2026-07-12T10:13:51Z</time>
      </trkpt>
      <trkpt lat="45.78476" lon="6.5215">
        <ele>1562.8</ele>
        <time>2026-07-12T10:13:52Z</time>
      </trkpt>
      <trkpt lat="45.78477" lon="6.52147">
        <ele>1560</ele>
        <time>2026-07-12T10:13:53Z</time>
      </trkpt>
      <trkpt lat="45.78478" lon="6.52144">
        <ele>1560</ele>
        <time>2026-07-12T10:13:54Z</time>
      </trkpt>
      <trkpt lat="45.78478" lon="6.52141">
        <ele>1560</ele>
        <time>2026-07-12T10:13:55Z</time>
      </trkpt>
      <trkpt lat="45.78479" lon="6.52138">
        <ele>1560</ele>
        <time>2026-07-12T10:13:56Z</time>
      </trkpt>
      <trkpt lat="45.7848" lon="6.52133">
        <ele>1558.6</ele>
        <time>2026-07-12T10:13:57Z</time>
      </trkpt>
      <trkpt lat="45.78479" lon="6.52128">
        <ele>1558.6</ele>
        <time>2026-07-12T10:13:58Z</time>
      </trkpt>
      <trkpt lat="45.78479" lon="6.52124">
        <ele>1558.6</ele>
        <time>2026-07-12T10:13:59Z</time>
      </trkpt>
      <trkpt lat="45.78478" lon="6.52121">
        <ele>1558.8</ele>
        <time>2026-07-12T10:14:00Z</time>
      </trkpt>
      <trkpt lat="45.78477" lon="6.52117">
        <ele>1559.8</ele>
        <time>2026-07-12T10:14:01Z</time>
      </trkpt>
      <trkpt lat="45.78475" lon="6.52115">
        <ele>1559.8</ele>
        <time>2026-07-12T10:14:02Z</time>
      </trkpt>
      <trkpt lat="45.78473" lon="6.52115">
        <ele>1559.8</ele>
        <time>2026-07-12T10:14:03Z</time>
      </trkpt>
      <trkpt lat="45.78471" lon="6.52116">
        <ele>1559.8</ele>
        <time>2026-07-12T10:14:04Z</time>
      </trkpt>
      <trkpt lat="45.78469" lon="6.52117">
        <ele>1559.8</ele>
        <time>2026-07-12T10:14:05Z</time>
      </trkpt>
      <trkpt lat="45.78467" lon="6.52116">
        <ele>1559.8</ele>
        <time>2026-07-12T10:14:06Z</time>
      </trkpt>
      <trkpt lat="45.78465" lon="6.52117">
        <ele>1559.6</ele>
        <time>2026-07-12T10:14:07Z</time>
      </trkpt>
      <trkpt lat="45.78464" lon="6.52117">
        <ele>1559.6</ele>
        <time>2026-07-12T10:14:08Z</time>
      </trkpt>
      <trkpt lat="45.78463" lon="6.5212">
        <ele>1559.6</ele>
        <time>2026-07-12T10:14:09Z</time>
      </trkpt>
      <trkpt lat="45.78461" lon="6.52121">
        <ele>1559.6</ele>
        <time>2026-07-12T10:14:10Z</time>
      </trkpt>
      <trkpt lat="45.7846" lon="6.52123">
        <ele>1558.6</ele>
        <time>2026-07-12T10:14:11Z</time>
      </trkpt>
      <trkpt lat="45.78458" lon="6.52126">
        <ele>1558.4</ele>
        <time>2026-07-12T10:14:12Z</time>
      </trkpt>
      <trkpt lat="45.78456" lon="6.52128">
        <ele>1558.4</ele>
        <time>2026-07-12T10:14:13Z</time>
      </trkpt>
      <trkpt lat="45.78453" lon="6.52127">
        <ele>1559.8</ele>
        <time>2026-07-12T10:14:31Z</time>
      </trkpt>
      <trkpt lat="45.78454" lon="6.52126">
        <ele>1559.8</ele>
        <time>2026-07-12T10:14:32Z</time>
      </trkpt>
      <trkpt lat="45.78455" lon="6.52123">
        <ele>1559.8</ele>
        <time>2026-07-12T10:14:33Z</time>
      </trkpt>
      <trkpt lat="45.78456" lon="6.5212">
        <ele>1559.8</ele>
        <time>2026-07-12T10:14:34Z</time>
      </trkpt>
      <trkpt lat="45.78458" lon="6.52117">
        <ele>1559.2</ele>
        <time>2026-07-12T10:14:35Z</time>
      </trkpt>
      <trkpt lat="45.78458" lon="6.52116">
        <ele>1559.2</ele>
        <time>2026-07-12T10:14:36Z</time>
      </trkpt>
      <trkpt lat="45.78459" lon="6.52113">
        <ele>1559.2</ele>
        <time>2026-07-12T10:14:37Z</time>
      </trkpt>
      <trkpt lat="45.7846" lon="6.52112">
        <ele>1559.2</ele>
        <time>2026-07-12T10:14:38Z</time>
      </trkpt>
      <trkpt lat="45.78462" lon="6.52111">
        <ele>1559</ele>
        <time>2026-07-12T10:14:39Z</time>
      </trkpt>
      <trkpt lat="45.78464" lon="6.5211">
        <ele>1559</ele>
        <time>2026-07-12T10:14:40Z</time>
      </trkpt>
      <trkpt lat="45.78466" lon="6.52109">
        <ele>1559</ele>
        <time>2026-07-12T10:14:41Z</time>
      </trkpt>
      <trkpt lat="45.78467" lon="6.52108">
        <ele>1560</ele>
        <time>2026-07-12T10:14:42Z</time>
      </trkpt>
      <trkpt lat="45.78469" lon="6.52108">
        <ele>1558.8</ele>
        <time>2026-07-12T10:14:43Z</time>
      </trkpt>
      <trkpt lat="45.78471" lon="6.52109">
        <ele>1558.8</ele>
        <time>2026-07-12T10:14:44Z</time>
      </trkpt>
      <trkpt lat="45.78472" lon="6.52112">
        <ele>1558.8</ele>
        <time>2026-07-12T10:14:45Z</time>
      </trkpt>
      <trkpt lat="45.78473" lon="6.52114">
        <ele>1561</ele>
        <time>2026-07-12T10:14:46Z</time>
      </trkpt>
      <trkpt lat="45.78474" lon="6.52117">
        <ele>1561</ele>
        <time>2026-07-12T10:14:47Z</time>
      </trkpt>
      <trkpt lat="45.78474" lon="6.5212">
        <ele>1561</ele>
        <time>2026-07-12T10:14:48Z</time>
      </trkpt>
      <trkpt lat="45.78474" lon="6.52124">
        <ele>1560.8</ele>
        <time>2026-07-12T10:14:49Z</time>
      </trkpt>
      <trkpt lat="45.78475" lon="6.52128">
        <ele>1560.6</ele>
        <time>2026-07-12T10:14:50Z</time>
      </trkpt>
      <trkpt lat="45.78476" lon="6.52128">
        <ele>1559.6</ele>
        <time>2026-07-12T10:14:51Z</time>
      </trkpt>
      <trkpt lat="45.78477" lon="6.52128">
        <ele>1559.6</ele>
        <time>2026-07-12T10:14:52Z</time>
      </trkpt>
      <trkpt lat="45.78478" lon="6.52126">
        <ele>1559.6</ele>
        <time>2026-07-12T10:14:53Z</time>
      </trkpt>
      <trkpt lat="45.78479" lon="6.52124">
        <ele>1559.6</ele>
        <time>2026-07-12T10:14:54Z</time>
      </trkpt>
      <trkpt lat="45.7848" lon="6.52122">
        <ele>1559.6</ele>
        <time>2026-07-12T10:14:55Z</time>
      </trkpt>
      <trkpt lat="45.78481" lon="6.52119">
        <ele>1559</ele>
        <time>2026-07-12T10:14:56Z</time>
      </trkpt>
      <trkpt lat="45.78481" lon="6.52117">
        <ele>1559</ele>
        <time>2026-07-12T10:14:57Z</time>
      </trkpt>
      <trkpt lat="45.78482" lon="6.52115">
        <ele>1559</ele>
        <time>2026-07-12T10:14:58Z</time>
      </trkpt>
      <trkpt lat="45.78484" lon="6.52113">
        <ele>1560</ele>
        <time>2026-07-12T10:19:06Z</time>
      </trkpt>
      <trkpt lat="45.78484" lon="6.52113">
        <ele>1560.2</ele>
        <time>2026-07-12T10:19:07Z</time>
      </trkpt>
      <trkpt lat="45.78485" lon="6.52122">
        <ele>1561.2</ele>
        <time>2026-07-12T10:19:08Z</time>
      </trkpt>
      <trkpt lat="45.78484" lon="6.52125">
        <ele>1561.2</ele>
        <time>2026-07-12T10:19:09Z</time>
      </trkpt>
      <trkpt lat="45.78483" lon="6.52127">
        <ele>1561.2</ele>
        <time>2026-07-12T10:19:10Z</time>
      </trkpt>
      <trkpt lat="45.78482" lon="6.5213">
        <ele>1561.2</ele>
        <time>2026-07-12T10:19:11Z</time>
      </trkpt>
      <trkpt lat="45.78481" lon="6.52133">
        <ele>1561.8</ele>
        <time>2026-07-12T10:19:12Z</time>
      </trkpt>
      <trkpt lat="45.78481" lon="6.52136">
        <ele>1562</ele>
        <time>2026-07-12T10:19:13Z</time>
      </trkpt>
      <trkpt lat="45.78479" lon="6.52137">
        <ele>1562.2</ele>
        <time>2026-07-12T10:19:14Z</time>
      </trkpt>
      <trkpt lat="45.78478" lon="6.52139">
        <ele>1562.2</ele>
        <time>2026-07-12T10:19:15Z</time>
      </trkpt>
      <trkpt lat="45.78478" lon="6.52142">
        <ele>1562.2</ele>
        <time>2026-07-12T10:19:16Z</time>
      </trkpt>
      <trkpt lat="45.78477" lon="6.52145">
        <ele>1562.2</ele>
        <time>2026-07-12T10:19:17Z</time>
      </trkpt>
      <trkpt lat="45.78476" lon="6.52147">
        <ele>1562.2</ele>
        <time>2026-07-12T10:19:18Z</time>
      </trkpt>
      <trkpt lat="45.78476" lon="6.5215">
        <ele>1563.2</ele>
        <time>2026-07-12T10:19:19Z</time>
      </trkpt>
      <trkpt lat="45.78475" lon="6.52152">
        <ele>1564.2</ele>
        <time>2026-07-12T10:19:20Z</time>
      </trkpt>
      <trkpt lat="45.78473" lon="6.52154">
        <ele>1564.2</ele>
        <time>2026-07-12T10:19:21Z</time>
      </trkpt>
      <trkpt lat="45.78472" lon="6.52157">
        <ele>1564.2</ele>
        <time>2026-07-12T10:19:22Z</time>
      </trkpt>
      <trkpt lat="45.78471" lon="6.52159">
        <ele>1563.6</ele>
        <time>2026-07-12T10:19:23Z</time>
      </trkpt>
      <trkpt lat="45.78471" lon="6.52163">
        <ele>1563.8</ele>
        <time>2026-07-12T10:19:24Z</time>
      </trkpt>
      <trkpt lat="45.7847" lon="6.52166">
        <ele>1564.6</ele>
        <time>2026-07-12T10:19:25Z</time>
      </trkpt>
      <trkpt lat="45.7847" lon="6.52169">
        <ele>1564.6</ele>
        <time>2026-07-12T10:19:26Z</time>
      </trkpt>
      <trkpt lat="45.78469" lon="6.52173">
        <ele>1565</ele>
        <time>2026-07-12T10:19:27Z</time>
      </trkpt>
      <trkpt lat="45.78468" lon="6.52176">
        <ele>1565.4</ele>
        <time>2026-07-12T10:19:28Z</time>
      </trkpt>
      <trkpt lat="45.78467" lon="6.52179">
        <ele>1565.6</ele>
        <time>2026-07-12T10:19:29Z</time>
      </trkpt>
      <trkpt lat="45.78466" lon="6.52182">
        <ele>1565.6</ele>
        <time>2026-07-12T10:19:30Z</time>
      </trkpt>
      <trkpt lat="45.78466" lon="6.52185">
        <ele>1565.6</ele>
        <time>2026-07-12T10:19:31Z</time>
      </trkpt>
      <trkpt lat="45.78466" lon="6.52188">
        <ele>1565.6</ele>
        <time>2026-07-12T10:19:32Z</time>
      </trkpt>
      <trkpt lat="45.78465" lon="6.52191">
        <ele>1566</ele>
        <time>2026-07-12T10:19:33Z</time>
      </trkpt>
      <trkpt lat="45.78465" lon="6.52193">
        <ele>1566.4</ele>
        <time>2026-07-12T10:19:34Z</time>
      </trkpt>
      <trkpt lat="45.78465" lon="6.52196">
        <ele>1566.4</ele>
        <time>2026-07-12T10:19:35Z</time>
      </trkpt>
      <trkpt lat="45.78466" lon="6.52198">
        <ele>1566.4</ele>
        <time>2026-07-12T10:19:36Z</time>
      </trkpt>
      <trkpt lat="45.78466" lon="6.522">
        <ele>1566</ele>
        <time>2026-07-12T10:19:37Z</time>
      </trkpt>
      <trkpt lat="45.78466" lon="6.52202">
        <ele>1566</ele>
        <time>2026-07-12T10:19:38Z</time>
      </trkpt>
      <trkpt lat="45.78465" lon="6.52203">
        <ele>1565.8</ele>
        <time>2026-07-12T10:19:39Z</time>
      </trkpt>
      <trkpt lat="45.78464" lon="6.52204">
        <ele>1565.2</ele>
        <time>2026-07-12T10:19:40Z</time>
      </trkpt>
      <trkpt lat="45.78463" lon="6.52202">
        <ele>1564.6</ele>
        <time>2026-07-12T10:19:41Z</time>
      </trkpt>
      <trkpt lat="45.78463" lon="6.52201">
        <ele>1564.6</ele>
        <time>2026-07-12T10:19:42Z</time>
      </trkpt>
      <trkpt lat="45.78463" lon="6.522">
        <ele>1564.6</ele>
        <time>2026-07-12T10:19:43Z</time>
      </trkpt>
      <trkpt lat="45.78462" lon="6.52198">
        <ele>1564.6</ele>
        <time>2026-07-12T10:19:44Z</time>
      </trkpt>
      <trkpt lat="45.78461" lon="6.52196">
        <ele>1562.4</ele>
        <time>2026-07-12T10:19:45Z</time>
      </trkpt>
      <trkpt lat="45.78459" lon="6.52194">
        <ele>1560.8</ele>
        <time>2026-07-12T10:19:46Z</time>
      </trkpt>
      <trkpt lat="45.78456" lon="6.52193">
        <ele>1560.8</ele>
        <time>2026-07-12T10:19:47Z</time>
      </trkpt>
      <trkpt lat="45.78453" lon="6.52192">
        <ele>1559.2</ele>
        <time>2026-07-12T10:19:48Z</time>
      </trkpt>
      <trkpt lat="45.7845" lon="6.5219">
        <ele>1559.2</ele>
        <time>2026-07-12T10:19:49Z</time>
      </trkpt>
      <trkpt lat="45.78447" lon="6.52189">
        <ele>1559.2</ele>
        <time>2026-07-12T10:19:50Z</time>
      </trkpt>
      <trkpt lat="45.78444" lon="6.52187">
        <ele>1559.2</ele>
        <time>2026-07-12T10:19:51Z</time>
      </trkpt>
      <trkpt lat="45.78441" lon="6.52184">
        <ele>1557.4</ele>
        <time>2026-07-12T10:19:52Z</time>
      </trkpt>
      <trkpt lat="45.78438" lon="6.52181">
        <ele>1557</ele>
        <time>2026-07-12T10:19:53Z</time>
      </trkpt>
      <trkpt lat="45.78435" lon="6.52177">
        <ele>1557</ele>
        <time>2026-07-12T10:19:54Z</time>
      </trkpt>
      <trkpt lat="45.78433" lon="6.52171">
        <ele>1557</ele>
        <time>2026-07-12T10:19:55Z</time>
      </trkpt>
      <trkpt lat="45.7843" lon="6.52167">
        <ele>1557</ele>
        <time>2026-07-12T10:19:56Z</time>
      </trkpt>
      <trkpt lat="45.78429" lon="6.52163">
        <ele>1557</ele>
        <time>2026-07-12T10:19:57Z</time>
      </trkpt>
      <trkpt lat="45.78427" lon="6.52159">
        <ele>1557</ele>
        <time>2026-07-12T10:19:58Z</time>
      </trkpt>
      <trkpt lat="45.78427" lon="6.52155">
        <ele>1554.8</ele>
        <time>2026-07-12T10:19:59Z</time>
      </trkpt>
      <trkpt lat="45.78426" lon="6.52151">
        <ele>1554.8</ele>
        <time>2026-07-12T10:20:00Z</time>
      </trkpt>
      <trkpt lat="45.78425" lon="6.52148">
        <ele>1554.8</ele>
        <time>2026-07-12T10:20:01Z</time>
      </trkpt>
      <trkpt lat="45.78424" lon="6.52144">
        <ele>1555</ele>
        <time>2026-07-12T10:20:02Z</time>
      </trkpt>
      <trkpt lat="45.78423" lon="6.52141">
        <ele>1555.4</ele>
        <time>2026-07-12T10:20:03Z</time>
      </trkpt>
      <trkpt lat="45.78422" lon="6.52138">
        <ele>1555.4</ele>
        <time>2026-07-12T10:20:04Z</time>
      </trkpt>
      <trkpt lat="45.7842" lon="6.52135">
        <ele>1555.4</ele>
        <time>2026-07-12T10:20:05Z</time>
      </trkpt>
      <trkpt lat="45.78419" lon="6.52132">
        <ele>1555.4</ele>
        <time>2026-07-12T10:20:06Z</time>
      </trkpt>
      <trkpt lat="45.78418" lon="6.52129">
        <ele>1555.4</ele>
        <time>2026-07-12T10:20:07Z</time>
      </trkpt>
      <trkpt lat="45.78416" lon="6.52126">
        <ele>1555.4</ele>
        <time>2026-07-12T10:20:08Z</time>
      </trkpt>
      <trkpt lat="45.78414" lon="6.52123">
        <ele>1555.4</ele>
        <time>2026-07-12T10:20:09Z</time>
      </trkpt>
      <trkpt lat="45.78413" lon="6.52119">
        <ele>1555.4</ele>
        <time>2026-07-12T10:20:10Z</time>
      </trkpt>
      <trkpt lat="45.78411" lon="6.52115">
        <ele>1554.4</ele>
        <time>2026-07-12T10:20:11Z</time>
      </trkpt>
      <trkpt lat="45.7841" lon="6.52112">
        <ele>1553.4</ele>
        <time>2026-07-12T10:20:12Z</time>
      </trkpt>
      <trkpt lat="45.78409" lon="6.52109">
        <ele>1552.6</ele>
        <time>2026-07-12T10:20:13Z</time>
      </trkpt>
      <trkpt lat="45.78408" lon="6.52106">
        <ele>1551.8</ele>
        <time>2026-07-12T10:20:14Z</time>
      </trkpt>
      <trkpt lat="45.78406" lon="6.52103">
        <ele>1551.8</ele>
        <time>2026-07-12T10:20:15Z</time>
      </trkpt>
      <trkpt lat="45.78405" lon="6.521">
        <ele>1551.8</ele>
        <time>2026-07-12T10:20:16Z</time>
      </trkpt>
      <trkpt lat="45.78404" lon="6.52097">
        <ele>1551.8</ele>
        <time>2026-07-12T10:20:17Z</time>
      </trkpt>
      <trkpt lat="45.78402" lon="6.52095">
        <ele>1551</ele>
        <time>2026-07-12T10:20:18Z</time>
      </trkpt>
      <trkpt lat="45.784" lon="6.52093">
        <ele>1550</ele>
        <time>2026-07-12T10:20:19Z</time>
      </trkpt>
      <trkpt lat="45.78399" lon="6.52091">
        <ele>1549.8</ele>
        <time>2026-07-12T10:20:20Z</time>
      </trkpt>
      <trkpt lat="45.78398" lon="6.5209">
        <ele>1549.8</ele>
        <time>2026-07-12T10:20:21Z</time>
      </trkpt>
      <trkpt lat="45.78397" lon="6.52088">
        <ele>1549.6</ele>
        <time>2026-07-12T10:20:22Z</time>
      </trkpt>
      <trkpt lat="45.78394" lon="6.52084">
        <ele>1549</ele>
        <time>2026-07-12T10:20:27Z</time>
      </trkpt>
      <trkpt lat="45.78393" lon="6.52082">
        <ele>1549</ele>
        <time>2026-07-12T10:20:28Z</time>
      </trkpt>
      <trkpt lat="45.78393" lon="6.52081">
        <ele>1549</ele>
        <time>2026-07-12T10:20:29Z</time>
      </trkpt>
      <trkpt lat="45.78392" lon="6.5208">
        <ele>1549</ele>
        <time>2026-07-12T10:20:30Z</time>
      </trkpt>
      <trkpt lat="45.78391" lon="6.52078">
        <ele>1549.4</ele>
        <time>2026-07-12T10:20:31Z</time>
      </trkpt>
      <trkpt lat="45.78391" lon="6.52076">
        <ele>1549.4</ele>
        <time>2026-07-12T10:20:32Z</time>
      </trkpt>
      <trkpt lat="45.7839" lon="6.52075">
        <ele>1549.4</ele>
        <time>2026-07-12T10:20:33Z</time>
      </trkpt>
      <trkpt lat="45.7839" lon="6.52072">
        <ele>1549.4</ele>
        <time>2026-07-12T10:20:34Z</time>
      </trkpt>
      <trkpt lat="45.7839" lon="6.5207">
        <ele>1550</ele>
        <time>2026-07-12T10:20:35Z</time>
      </trkpt>
      <trkpt lat="45.7839" lon="6.52067">
        <ele>1550</ele>
        <time>2026-07-12T10:20:36Z</time>
      </trkpt>
      <trkpt lat="45.7839" lon="6.52065">
        <ele>1550</ele>
        <time>2026-07-12T10:20:37Z</time>
      </trkpt>
      <trkpt lat="45.7839" lon="6.52063">
        <ele>1549.4</ele>
        <time>2026-07-12T10:20:38Z</time>
      </trkpt>
      <trkpt lat="45.78389" lon="6.5206">
        <ele>1548.6</ele>
        <time>2026-07-12T10:20:39Z</time>
      </trkpt>
      <trkpt lat="45.78389" lon="6.52058">
        <ele>1547.4</ele>
        <time>2026-07-12T10:20:40Z</time>
      </trkpt>
      <trkpt lat="45.7839" lon="6.52056">
        <ele>1547.4</ele>
        <time>2026-07-12T10:20:41Z</time>
      </trkpt>
      <trkpt lat="45.7839" lon="6.52055">
        <ele>1547.4</ele>
        <time>2026-07-12T10:20:42Z</time>
      </trkpt>
      <trkpt lat="45.7839" lon="6.52053">
        <ele>1549.2</ele>
        <time>2026-07-12T10:20:43Z</time>
      </trkpt>
      <trkpt lat="45.7839" lon="6.52051">
        <ele>1549.2</ele>
        <time>2026-07-12T10:20:44Z</time>
      </trkpt>
      <trkpt lat="45.78389" lon="6.52048">
        <ele>1549.2</ele>
        <time>2026-07-12T10:20:45Z</time>
      </trkpt>
      <trkpt lat="45.78389" lon="6.52045">
        <ele>1548.8</ele>
        <time>2026-07-12T10:20:46Z</time>
      </trkpt>
      <trkpt lat="45.78387" lon="6.52041">
        <ele>1548.6</ele>
        <time>2026-07-12T10:20:47Z</time>
      </trkpt>
      <trkpt lat="45.78385" lon="6.52037">
        <ele>1548.4</ele>
        <time>2026-07-12T10:20:48Z</time>
      </trkpt>
      <trkpt lat="45.78383" lon="6.52034">
        <ele>1548.4</ele>
        <time>2026-07-12T10:20:49Z</time>
      </trkpt>
      <trkpt lat="45.78381" lon="6.52031">
        <ele>1548.4</ele>
        <time>2026-07-12T10:20:50Z</time>
      </trkpt>
      <trkpt lat="45.78379" lon="6.52029">
        <ele>1548.4</ele>
        <time>2026-07-12T10:20:51Z</time>
      </trkpt>
      <trkpt lat="45.78377" lon="6.52025">
        <ele>1547.6</ele>
        <time>2026-07-12T10:20:52Z</time>
      </trkpt>
      <trkpt lat="45.78375" lon="6.52022">
        <ele>1547.6</ele>
        <time>2026-07-12T10:20:53Z</time>
      </trkpt>
      <trkpt lat="45.78374" lon="6.52018">
        <ele>1547.6</ele>
        <time>2026-07-12T10:20:54Z</time>
      </trkpt>
      <trkpt lat="45.78372" lon="6.52015">
        <ele>1547.6</ele>
        <time>2026-07-12T10:20:55Z</time>
      </trkpt>
      <trkpt lat="45.78371" lon="6.52012">
        <ele>1546.6</ele>
        <time>2026-07-12T10:20:56Z</time>
      </trkpt>
      <trkpt lat="45.78371" lon="6.52009">
        <ele>1546</ele>
        <time>2026-07-12T10:20:57Z</time>
      </trkpt>
      <trkpt lat="45.7837" lon="6.52005">
        <ele>1545.4</ele>
        <time>2026-07-12T10:20:58Z</time>
      </trkpt>
      <trkpt lat="45.78369" lon="6.52001">
        <ele>1545.4</ele>
        <time>2026-07-12T10:20:59Z</time>
      </trkpt>
      <trkpt lat="45.78369" lon="6.51997">
        <ele>1545.4</ele>
        <time>2026-07-12T10:21:00Z</time>
      </trkpt>
      <trkpt lat="45.78367" lon="6.51993">
        <ele>1545.4</ele>
        <time>2026-07-12T10:21:01Z</time>
      </trkpt>
      <trkpt lat="45.78366" lon="6.51986">
        <ele>1544.4</ele>
        <time>2026-07-12T10:21:02Z</time>
      </trkpt>
      <trkpt lat="45.78364" lon="6.51981">
        <ele>1543.8</ele>
        <time>2026-07-12T10:21:03Z</time>
      </trkpt>
      <trkpt lat="45.78363" lon="6.51977">
        <ele>1543.8</ele>
        <time>2026-07-12T10:21:04Z</time>
      </trkpt>
      <trkpt lat="45.78362" lon="6.51973">
        <ele>1543.8</ele>
        <time>2026-07-12T10:21:05Z</time>
      </trkpt>
      <trkpt lat="45.7836" lon="6.5197">
        <ele>1543.8</ele>
        <time>2026-07-12T10:21:06Z</time>
      </trkpt>
      <trkpt lat="45.78359" lon="6.51967">
        <ele>1542.6</ele>
        <time>2026-07-12T10:21:07Z</time>
      </trkpt>
      <trkpt lat="45.78358" lon="6.51964">
        <ele>1542.6</ele>
        <time>2026-07-12T10:21:08Z</time>
      </trkpt>
      <trkpt lat="45.78356" lon="6.51963">
        <ele>1542.6</ele>
        <time>2026-07-12T10:21:09Z</time>
      </trkpt>
      <trkpt lat="45.78355" lon="6.51961">
        <ele>1542.6</ele>
        <time>2026-07-12T10:21:10Z</time>
      </trkpt>
      <trkpt lat="45.78354" lon="6.5196">
        <ele>1540.6</ele>
        <time>2026-07-12T10:21:11Z</time>
      </trkpt>
      <trkpt lat="45.78353" lon="6.51959">
        <ele>1540.2</ele>
        <time>2026-07-12T10:21:12Z</time>
      </trkpt>
      <trkpt lat="45.78352" lon="6.51958">
        <ele>1540.2</ele>
        <time>2026-07-12T10:21:13Z</time>
      </trkpt>
      <trkpt lat="45.78351" lon="6.51957">
        <ele>1540.2</ele>
        <time>2026-07-12T10:21:14Z</time>
      </trkpt>
      <trkpt lat="45.7835" lon="6.51956">
        <ele>1540.2</ele>
        <time>2026-07-12T10:21:15Z</time>
      </trkpt>
      <trkpt lat="45.78349" lon="6.51955">
        <ele>1539.2</ele>
        <time>2026-07-12T10:21:16Z</time>
      </trkpt>
      <trkpt lat="45.78348" lon="6.51954">
        <ele>1538.8</ele>
        <time>2026-07-12T10:21:17Z</time>
      </trkpt>
      <trkpt lat="45.78347" lon="6.51954">
        <ele>1538.8</ele>
        <time>2026-07-12T10:21:18Z</time>
      </trkpt>
      <trkpt lat="45.78346" lon="6.51952">
        <ele>1537.8</ele>
        <time>2026-07-12T10:21:19Z</time>
      </trkpt>
      <trkpt lat="45.78345" lon="6.51951">
        <ele>1537.8</ele>
        <time>2026-07-12T10:21:20Z</time>
      </trkpt>
      <trkpt lat="45.78344" lon="6.51951">
        <ele>1537.8</ele>
        <time>2026-07-12T10:21:21Z</time>
      </trkpt>
      <trkpt lat="45.78342" lon="6.5195">
        <ele>1537.8</ele>
        <time>2026-07-12T10:21:22Z</time>
      </trkpt>
      <trkpt lat="45.78341" lon="6.51949">
        <ele>1536.8</ele>
        <time>2026-07-12T10:21:23Z</time>
      </trkpt>
      <trkpt lat="45.7834" lon="6.51948">
        <ele>1536.2</ele>
        <time>2026-07-12T10:21:24Z</time>
      </trkpt>
      <trkpt lat="45.78339" lon="6.51947">
        <ele>1535.4</ele>
        <time>2026-07-12T10:21:25Z</time>
      </trkpt>
      <trkpt lat="45.78337" lon="6.51946">
        <ele>1535.4</ele>
        <time>2026-07-12T10:21:26Z</time>
      </trkpt>
      <trkpt lat="45.78334" lon="6.51944">
        <ele>1535.4</ele>
        <time>2026-07-12T10:21:27Z</time>
      </trkpt>
      <trkpt lat="45.78332" lon="6.51942">
        <ele>1536.4</ele>
        <time>2026-07-12T10:21:28Z</time>
      </trkpt>
      <trkpt lat="45.78331" lon="6.5194">
        <ele>1537</ele>
        <time>2026-07-12T10:21:29Z</time>
      </trkpt>
      <trkpt lat="45.78329" lon="6.51938">
        <ele>1537</ele>
        <time>2026-07-12T10:21:30Z</time>
      </trkpt>
      <trkpt lat="45.78327" lon="6.51934">
        <ele>1537</ele>
        <time>2026-07-12T10:21:31Z</time>
      </trkpt>
      <trkpt lat="45.78325" lon="6.51931">
        <ele>1536</ele>
        <time>2026-07-12T10:21:32Z</time>
      </trkpt>
      <trkpt lat="45.78322" lon="6.51928">
        <ele>1535</ele>
        <time>2026-07-12T10:21:33Z</time>
      </trkpt>
      <trkpt lat="45.78316" lon="6.51924">
        <ele>1534</ele>
        <time>2026-07-12T10:21:34Z</time>
      </trkpt>
      <trkpt lat="45.7831" lon="6.51919">
        <ele>1533</ele>
        <time>2026-07-12T10:21:35Z</time>
      </trkpt>
      <trkpt lat="45.78304" lon="6.51912">
        <ele>1532</ele>
        <time>2026-07-12T10:21:36Z</time>
      </trkpt>
      <trkpt lat="45.78297" lon="6.51905">
        <ele>1531</ele>
        <time>2026-07-12T10:21:37Z</time>
      </trkpt>
      <trkpt lat="45.78292" lon="6.51898">
        <ele>1530</ele>
        <time>2026-07-12T10:21:38Z</time>
      </trkpt>
      <trkpt lat="45.78287" lon="6.51891">
        <ele>1529.4</ele>
        <time>2026-07-12T10:21:39Z</time>
      </trkpt>
      <trkpt lat="45.78283" lon="6.51883">
        <ele>1529.4</ele>
        <time>2026-07-12T10:21:40Z</time>
      </trkpt>
      <trkpt lat="45.78279" lon="6.51876">
        <ele>1529.4</ele>
        <time>2026-07-12T10:21:41Z</time>
      </trkpt>
      <trkpt lat="45.78276" lon="6.51868">
        <ele>1529.4</ele>
        <time>2026-07-12T10:21:42Z</time>
      </trkpt>
      <trkpt lat="45.78273" lon="6.51862">
        <ele>1528.4</ele>
        <time>2026-07-12T10:21:43Z</time>
      </trkpt>
      <trkpt lat="45.7827" lon="6.51856">
        <ele>1528.2</ele>
        <time>2026-07-12T10:21:44Z</time>
      </trkpt>
      <trkpt lat="45.78268" lon="6.5185">
        <ele>1528</ele>
        <time>2026-07-12T10:21:45Z</time>
      </trkpt>
      <trkpt lat="45.78265" lon="6.51844">
        <ele>1527.6</ele>
        <time>2026-07-12T10:21:46Z</time>
      </trkpt>
      <trkpt lat="45.78263" lon="6.51839">
        <ele>1527.6</ele>
        <time>2026-07-12T10:21:47Z</time>
      </trkpt>
      <trkpt lat="45.7826" lon="6.51834">
        <ele>1527.6</ele>
        <time>2026-07-12T10:21:48Z</time>
      </trkpt>
      <trkpt lat="45.78259" lon="6.51832">
        <ele>1527.6</ele>
        <time>2026-07-12T10:21:49Z</time>
      </trkpt>
      <trkpt lat="45.78257" lon="6.51829">
        <ele>1527.2</ele>
        <time>2026-07-12T10:21:50Z</time>
      </trkpt>
      <trkpt lat="45.78253" lon="6.51828">
        <ele>1528.6</ele>
        <time>2026-07-12T10:22:07Z</time>
      </trkpt>
      <trkpt lat="45.78253" lon="6.51828">
        <ele>1529.4</ele>
        <time>2026-07-12T10:22:08Z</time>
      </trkpt>
      <trkpt lat="45.78249" lon="6.51826">
        <ele>1529.4</ele>
        <time>2026-07-12T10:22:09Z</time>
      </trkpt>
      <trkpt lat="45.78247" lon="6.51827">
        <ele>1529.4</ele>
        <time>2026-07-12T10:22:10Z</time>
      </trkpt>
      <trkpt lat="45.78246" lon="6.5183">
        <ele>1529.4</ele>
        <time>2026-07-12T10:22:11Z</time>
      </trkpt>
      <trkpt lat="45.78245" lon="6.51833">
        <ele>1532.2</ele>
        <time>2026-07-12T10:22:12Z</time>
      </trkpt>
      <trkpt lat="45.78244" lon="6.51836">
        <ele>1532.2</ele>
        <time>2026-07-12T10:22:13Z</time>
      </trkpt>
      <trkpt lat="45.78243" lon="6.51839">
        <ele>1532.2</ele>
        <time>2026-07-12T10:22:14Z</time>
      </trkpt>
      <trkpt lat="45.78243" lon="6.51841">
        <ele>1532.2</ele>
        <time>2026-07-12T10:22:15Z</time>
      </trkpt>
      <trkpt lat="45.78241" lon="6.51843">
        <ele>1532.4</ele>
        <time>2026-07-12T10:22:16Z</time>
      </trkpt>
      <trkpt lat="45.78239" lon="6.51843">
        <ele>1532.4</ele>
        <time>2026-07-12T10:22:17Z</time>
      </trkpt>
      <trkpt lat="45.78237" lon="6.51843">
        <ele>1532.4</ele>
        <time>2026-07-12T10:22:18Z</time>
      </trkpt>
      <trkpt lat="45.78224" lon="6.51838">
        <ele>1539.4</ele>
        <time>2026-07-12T10:22:39Z</time>
      </trkpt>
      <trkpt lat="45.78223" lon="6.51839">
        <ele>1539.4</ele>
        <time>2026-07-12T10:22:40Z</time>
      </trkpt>
      <trkpt lat="45.78221" lon="6.51839">
        <ele>1539.4</ele>
        <time>2026-07-12T10:22:41Z</time>
      </trkpt>
      <trkpt lat="45.7822" lon="6.5184">
        <ele>1539.4</ele>
        <time>2026-07-12T10:22:42Z</time>
      </trkpt>
      <trkpt lat="45.78218" lon="6.51839">
        <ele>1541.6</ele>
        <time>2026-07-12T10:22:43Z</time>
      </trkpt>
      <trkpt lat="45.78216" lon="6.51839">
        <ele>1541.6</ele>
        <time>2026-07-12T10:22:44Z</time>
      </trkpt>
      <trkpt lat="45.78214" lon="6.51838">
        <ele>1542</ele>
        <time>2026-07-12T10:22:45Z</time>
      </trkpt>
      <trkpt lat="45.78211" lon="6.51837">
        <ele>1542</ele>
        <time>2026-07-12T10:22:46Z</time>
      </trkpt>
      <trkpt lat="45.78209" lon="6.51835">
        <ele>1542</ele>
        <time>2026-07-12T10:22:47Z</time>
      </trkpt>
      <trkpt lat="45.78207" lon="6.51833">
        <ele>1541</ele>
        <time>2026-07-12T10:22:48Z</time>
      </trkpt>
      <trkpt lat="45.78205" lon="6.51832">
        <ele>1540.8</ele>
        <time>2026-07-12T10:22:49Z</time>
      </trkpt>
      <trkpt lat="45.78202" lon="6.51831">
        <ele>1541</ele>
        <time>2026-07-12T10:22:50Z</time>
      </trkpt>
      <trkpt lat="45.78201" lon="6.51829">
        <ele>1541</ele>
        <time>2026-07-12T10:22:51Z</time>
      </trkpt>
      <trkpt lat="45.782" lon="6.51826">
        <ele>1541</ele>
        <time>2026-07-12T10:22:52Z</time>
      </trkpt>
      <trkpt lat="45.78198" lon="6.51824">
        <ele>1541</ele>
        <time>2026-07-12T10:22:53Z</time>
      </trkpt>
      <trkpt lat="45.78195" lon="6.51821">
        <ele>1541</ele>
        <time>2026-07-12T10:22:54Z</time>
      </trkpt>
      <trkpt lat="45.78192" lon="6.51818">
        <ele>1541</ele>
        <time>2026-07-12T10:22:55Z</time>
      </trkpt>
      <trkpt lat="45.78188" lon="6.51815">
        <ele>1540</ele>
        <time>2026-07-12T10:22:56Z</time>
      </trkpt>
      <trkpt lat="45.78185" lon="6.51812">
        <ele>1540</ele>
        <time>2026-07-12T10:22:57Z</time>
      </trkpt>
      <trkpt lat="45.78181" lon="6.51808">
        <ele>1540</ele>
        <time>2026-07-12T10:22:58Z</time>
      </trkpt>
      <trkpt lat="45.78177" lon="6.51804">
        <ele>1540</ele>
        <time>2026-07-12T10:22:59Z</time>
      </trkpt>
      <trkpt lat="45.78173" lon="6.51801">
        <ele>1539</ele>
        <time>2026-07-12T10:23:00Z</time>
      </trkpt>
      <trkpt lat="45.78169" lon="6.51797">
        <ele>1537.6</ele>
        <time>2026-07-12T10:23:01Z</time>
      </trkpt>
      <trkpt lat="45.78165" lon="6.51792">
        <ele>1536.4</ele>
        <time>2026-07-12T10:23:02Z</time>
      </trkpt>
      <trkpt lat="45.7816" lon="6.51787">
        <ele>1536.4</ele>
        <time>2026-07-12T10:23:03Z</time>
      </trkpt>
      <trkpt lat="45.78157" lon="6.51781">
        <ele>1536.4</ele>
        <time>2026-07-12T10:23:04Z</time>
      </trkpt>
      <trkpt lat="45.78154" lon="6.51775">
        <ele>1536.4</ele>
        <time>2026-07-12T10:23:05Z</time>
      </trkpt>
      <trkpt lat="45.7815" lon="6.51769">
        <ele>1536.4</ele>
        <time>2026-07-12T10:23:06Z</time>
      </trkpt>
      <trkpt lat="45.78147" lon="6.51764">
        <ele>1536.4</ele>
        <time>2026-07-12T10:23:07Z</time>
      </trkpt>
      <trkpt lat="45.78144" lon="6.51759">
        <ele>1536.6</ele>
        <time>2026-07-12T10:23:08Z</time>
      </trkpt>
      <trkpt lat="45.78141" lon="6.51753">
        <ele>1536.8</ele>
        <time>2026-07-12T10:23:09Z</time>
      </trkpt>
      <trkpt lat="45.78138" lon="6.51749">
        <ele>1536.8</ele>
        <time>2026-07-12T10:23:10Z</time>
      </trkpt>
      <trkpt lat="45.78135" lon="6.51743">
        <ele>1536.8</ele>
        <time>2026-07-12T10:23:11Z</time>
      </trkpt>
      <trkpt lat="45.78132" lon="6.51738">
        <ele>1535.8</ele>
        <time>2026-07-12T10:23:12Z</time>
      </trkpt>
      <trkpt lat="45.7813" lon="6.51734">
        <ele>1535.8</ele>
        <time>2026-07-12T10:23:13Z</time>
      </trkpt>
      <trkpt lat="45.78128" lon="6.51728">
        <ele>1535.8</ele>
        <time>2026-07-12T10:23:14Z</time>
      </trkpt>
      <trkpt lat="45.78125" lon="6.51724">
        <ele>1535.8</ele>
        <time>2026-07-12T10:23:15Z</time>
      </trkpt>
      <trkpt lat="45.78122" lon="6.51719">
        <ele>1535.8</ele>
        <time>2026-07-12T10:23:16Z</time>
      </trkpt>
      <trkpt lat="45.78119" lon="6.51716">
        <ele>1536</ele>
        <time>2026-07-12T10:23:17Z</time>
      </trkpt>
      <trkpt lat="45.78116" lon="6.51711">
        <ele>1537</ele>
        <time>2026-07-12T10:23:18Z</time>
      </trkpt>
      <trkpt lat="45.78112" lon="6.51706">
        <ele>1537</ele>
        <time>2026-07-12T10:23:19Z</time>
      </trkpt>
      <trkpt lat="45.78109" lon="6.51702">
        <ele>1537</ele>
        <time>2026-07-12T10:23:20Z</time>
      </trkpt>
      <trkpt lat="45.78106" lon="6.51698">
        <ele>1535.2</ele>
        <time>2026-07-12T10:23:21Z</time>
      </trkpt>
      <trkpt lat="45.78102" lon="6.51693">
        <ele>1535.2</ele>
        <time>2026-07-12T10:23:22Z</time>
      </trkpt>
      <trkpt lat="45.781" lon="6.51689">
        <ele>1535.2</ele>
        <time>2026-07-12T10:23:23Z</time>
      </trkpt>
      <trkpt lat="45.78097" lon="6.51685">
        <ele>1535.2</ele>
        <time>2026-07-12T10:23:24Z</time>
      </trkpt>
      <trkpt lat="45.78094" lon="6.51681">
        <ele>1535</ele>
        <time>2026-07-12T10:23:25Z</time>
      </trkpt>
      <trkpt lat="45.78091" lon="6.51677">
        <ele>1535</ele>
        <time>2026-07-12T10:23:26Z</time>
      </trkpt>
      <trkpt lat="45.78087" lon="6.51673">
        <ele>1535</ele>
        <time>2026-07-12T10:23:27Z</time>
      </trkpt>
      <trkpt lat="45.78083" lon="6.5167">
        <ele>1535</ele>
        <time>2026-07-12T10:23:28Z</time>
      </trkpt>
      <trkpt lat="45.78079" lon="6.51666">
        <ele>1535</ele>
        <time>2026-07-12T10:23:29Z</time>
      </trkpt>
      <trkpt lat="45.78075" lon="6.51662">
        <ele>1535</ele>
        <time>2026-07-12T10:23:30Z</time>
      </trkpt>
      <trkpt lat="45.78071" lon="6.51658">
        <ele>1535</ele>
        <time>2026-07-12T10:23:31Z</time>
      </trkpt>
      <trkpt lat="45.78068" lon="6.51655">
        <ele>1535</ele>
        <time>2026-07-12T10:23:32Z</time>
      </trkpt>
      <trkpt lat="45.78065" lon="6.51651">
        <ele>1535</ele>
        <time>2026-07-12T10:23:33Z</time>
      </trkpt>
      <trkpt lat="45.78061" lon="6.51648">
        <ele>1535</ele>
        <time>2026-07-12T10:23:34Z</time>
      </trkpt>
      <trkpt lat="45.78058" lon="6.51644">
        <ele>1534</ele>
        <time>2026-07-12T10:23:35Z</time>
      </trkpt>
      <trkpt lat="45.78056" lon="6.51639">
        <ele>1534</ele>
        <time>2026-07-12T10:23:36Z</time>
      </trkpt>
      <trkpt lat="45.78053" lon="6.51635">
        <ele>1534</ele>
        <time>2026-07-12T10:23:37Z</time>
      </trkpt>
      <trkpt lat="45.7805" lon="6.51629">
        <ele>1534</ele>
        <time>2026-07-12T10:23:38Z</time>
      </trkpt>
      <trkpt lat="45.78047" lon="6.51624">
        <ele>1533</ele>
        <time>2026-07-12T10:23:39Z</time>
      </trkpt>
      <trkpt lat="45.78044" lon="6.51619">
        <ele>1533</ele>
        <time>2026-07-12T10:23:40Z</time>
      </trkpt>
      <trkpt lat="45.78042" lon="6.51616">
        <ele>1533</ele>
        <time>2026-07-12T10:23:41Z</time>
      </trkpt>
      <trkpt lat="45.78038" lon="6.51612">
        <ele>1533</ele>
        <time>2026-07-12T10:23:42Z</time>
      </trkpt>
      <trkpt lat="45.78034" lon="6.51609">
        <ele>1533</ele>
        <time>2026-07-12T10:23:43Z</time>
      </trkpt>
      <trkpt lat="45.78029" lon="6.51609">
        <ele>1533</ele>
        <time>2026-07-12T10:23:44Z</time>
      </trkpt>
      <trkpt lat="45.78026" lon="6.51608">
        <ele>1532.6</ele>
        <time>2026-07-12T10:23:45Z</time>
      </trkpt>
      <trkpt lat="45.78021" lon="6.51608">
        <ele>1532.6</ele>
        <time>2026-07-12T10:23:46Z</time>
      </trkpt>
      <trkpt lat="45.78017" lon="6.51608">
        <ele>1532.6</ele>
        <time>2026-07-12T10:23:47Z</time>
      </trkpt>
      <trkpt lat="45.78014" lon="6.51609">
        <ele>1533.6</ele>
        <time>2026-07-12T10:23:48Z</time>
      </trkpt>
      <trkpt lat="45.7801" lon="6.51609">
        <ele>1533.6</ele>
        <time>2026-07-12T10:23:49Z</time>
      </trkpt>
      <trkpt lat="45.78007" lon="6.5161">
        <ele>1533.6</ele>
        <time>2026-07-12T10:23:50Z</time>
      </trkpt>
      <trkpt lat="45.78003" lon="6.51609">
        <ele>1532.6</ele>
        <time>2026-07-12T10:23:51Z</time>
      </trkpt>
      <trkpt lat="45.77999" lon="6.51608">
        <ele>1531.6</ele>
        <time>2026-07-12T10:23:52Z</time>
      </trkpt>
      <trkpt lat="45.77995" lon="6.51607">
        <ele>1531.6</ele>
        <time>2026-07-12T10:23:53Z</time>
      </trkpt>
      <trkpt lat="45.77992" lon="6.51607">
        <ele>1531.6</ele>
        <time>2026-07-12T10:23:54Z</time>
      </trkpt>
      <trkpt lat="45.77989" lon="6.51607">
        <ele>1531.6</ele>
        <time>2026-07-12T10:23:55Z</time>
      </trkpt>
      <trkpt lat="45.77985" lon="6.51607">
        <ele>1531.4</ele>
        <time>2026-07-12T10:23:56Z</time>
      </trkpt>
      <trkpt lat="45.77982" lon="6.51609">
        <ele>1530.8</ele>
        <time>2026-07-12T10:23:57Z</time>
      </trkpt>
      <trkpt lat="45.77979" lon="6.51612">
        <ele>1530.8</ele>
        <time>2026-07-12T10:23:58Z</time>
      </trkpt>
      <trkpt lat="45.77977" lon="6.51615">
        <ele>1530.8</ele>
        <time>2026-07-12T10:23:59Z</time>
      </trkpt>
      <trkpt lat="45.77975" lon="6.51619">
        <ele>1530.8</ele>
        <time>2026-07-12T10:24:00Z</time>
      </trkpt>
      <trkpt lat="45.77973" lon="6.51624">
        <ele>1530.8</ele>
        <time>2026-07-12T10:24:01Z</time>
      </trkpt>
      <trkpt lat="45.77971" lon="6.51629">
        <ele>1530.8</ele>
        <time>2026-07-12T10:24:02Z</time>
      </trkpt>
      <trkpt lat="45.77968" lon="6.51634">
        <ele>1529.8</ele>
        <time>2026-07-12T10:24:03Z</time>
      </trkpt>
      <trkpt lat="45.77967" lon="6.51639">
        <ele>1529.8</ele>
        <time>2026-07-12T10:24:04Z</time>
      </trkpt>
      <trkpt lat="45.77964" lon="6.51643">
        <ele>1529.8</ele>
        <time>2026-07-12T10:24:05Z</time>
      </trkpt>
      <trkpt lat="45.7796" lon="6.51644">
        <ele>1530.6</ele>
        <time>2026-07-12T10:24:06Z</time>
      </trkpt>
      <trkpt lat="45.77957" lon="6.51645">
        <ele>1531</ele>
        <time>2026-07-12T10:24:07Z</time>
      </trkpt>
      <trkpt lat="45.77953" lon="6.51646">
        <ele>1531</ele>
        <time>2026-07-12T10:24:08Z</time>
      </trkpt>
      <trkpt lat="45.77951" lon="6.51644">
        <ele>1531</ele>
        <time>2026-07-12T10:24:09Z</time>
      </trkpt>
      <trkpt lat="45.77948" lon="6.5164">
        <ele>1530</ele>
        <time>2026-07-12T10:24:10Z</time>
      </trkpt>
      <trkpt lat="45.77945" lon="6.51637">
        <ele>1529.6</ele>
        <time>2026-07-12T10:24:11Z</time>
      </trkpt>
      <trkpt lat="45.77943" lon="6.51633">
        <ele>1529.6</ele>
        <time>2026-07-12T10:24:12Z</time>
      </trkpt>
      <trkpt lat="45.7794" lon="6.5163">
        <ele>1529.6</ele>
        <time>2026-07-12T10:24:13Z</time>
      </trkpt>
      <trkpt lat="45.77936" lon="6.51627">
        <ele>1530.2</ele>
        <time>2026-07-12T10:24:14Z</time>
      </trkpt>
      <trkpt lat="45.77932" lon="6.51626">
        <ele>1530.2</ele>
        <time>2026-07-12T10:24:15Z</time>
      </trkpt>
      <trkpt lat="45.77928" lon="6.51625">
        <ele>1530.2</ele>
        <time>2026-07-12T10:24:16Z</time>
      </trkpt>
      <trkpt lat="45.77923" lon="6.51624">
        <ele>1530.2</ele>
        <time>2026-07-12T10:24:17Z</time>
      </trkpt>
      <trkpt lat="45.77919" lon="6.51623">
        <ele>1530.2</ele>
        <time>2026-07-12T10:24:18Z</time>
      </trkpt>
      <trkpt lat="45.77914" lon="6.51622">
        <ele>1530.2</ele>
        <time>2026-07-12T10:24:19Z</time>
      </trkpt>
      <trkpt lat="45.7791" lon="6.5162">
        <ele>1530</ele>
        <time>2026-07-12T10:24:20Z</time>
      </trkpt>
      <trkpt lat="45.77906" lon="6.51618">
        <ele>1530</ele>
        <time>2026-07-12T10:24:21Z</time>
      </trkpt>
      <trkpt lat="45.77902" lon="6.51615">
        <ele>1530</ele>
        <time>2026-07-12T10:24:22Z</time>
      </trkpt>
      <trkpt lat="45.77898" lon="6.51611">
        <ele>1530</ele>
        <time>2026-07-12T10:24:23Z</time>
      </trkpt>
      <trkpt lat="45.77894" lon="6.51607">
        <ele>1530</ele>
        <time>2026-07-12T10:24:24Z</time>
      </trkpt>
      <trkpt lat="45.77891" lon="6.51602">
        <ele>1530</ele>
        <time>2026-07-12T10:24:25Z</time>
      </trkpt>
      <trkpt lat="45.77888" lon="6.51596">
        <ele>1530</ele>
        <time>2026-07-12T10:24:26Z</time>
      </trkpt>
      <trkpt lat="45.77886" lon="6.51589">
        <ele>1530</ele>
        <time>2026-07-12T10:24:27Z</time>
      </trkpt>
      <trkpt lat="45.77884" lon="6.51582">
        <ele>1531</ele>
        <time>2026-07-12T10:24:28Z</time>
      </trkpt>
      <trkpt lat="45.77883" lon="6.51575">
        <ele>1531</ele>
        <time>2026-07-12T10:24:29Z</time>
      </trkpt>
      <trkpt lat="45.77881" lon="6.51569">
        <ele>1531</ele>
        <time>2026-07-12T10:24:30Z</time>
      </trkpt>
      <trkpt lat="45.77879" lon="6.51562">
        <ele>1531</ele>
        <time>2026-07-12T10:24:31Z</time>
      </trkpt>
      <trkpt lat="45.77878" lon="6.51554">
        <ele>1531</ele>
        <time>2026-07-12T10:24:32Z</time>
      </trkpt>
      <trkpt lat="45.77877" lon="6.51547">
        <ele>1531</ele>
        <time>2026-07-12T10:24:33Z</time>
      </trkpt>
      <trkpt lat="45.77878" lon="6.51539">
        <ele>1530</ele>
        <time>2026-07-12T10:24:34Z</time>
      </trkpt>
      <trkpt lat="45.77877" lon="6.5153">
        <ele>1530</ele>
        <time>2026-07-12T10:24:35Z</time>
      </trkpt>
      <trkpt lat="45.77877" lon="6.51523">
        <ele>1530</ele>
        <time>2026-07-12T10:24:36Z</time>
      </trkpt>
      <trkpt lat="45.77876" lon="6.51516">
        <ele>1530</ele>
        <time>2026-07-12T10:24:37Z</time>
      </trkpt>
      <trkpt lat="45.77875" lon="6.51509">
        <ele>1530</ele>
        <time>2026-07-12T10:24:38Z</time>
      </trkpt>
      <trkpt lat="45.77874" lon="6.51502">
        <ele>1530</ele>
        <time>2026-07-12T10:24:39Z</time>
      </trkpt>
      <trkpt lat="45.77873" lon="6.51495">
        <ele>1530</ele>
        <time>2026-07-12T10:24:40Z</time>
      </trkpt>
      <trkpt lat="45.77872" lon="6.51487">
        <ele>1530</ele>
        <time>2026-07-12T10:24:41Z</time>
      </trkpt>
      <trkpt lat="45.77871" lon="6.5148">
        <ele>1530</ele>
        <time>2026-07-12T10:24:42Z</time>
      </trkpt>
      <trkpt lat="45.77871" lon="6.51472">
        <ele>1530</ele>
        <time>2026-07-12T10:24:43Z</time>
      </trkpt>
      <trkpt lat="45.77869" lon="6.51464">
        <ele>1529</ele>
        <time>2026-07-12T10:24:44Z</time>
      </trkpt>
      <trkpt lat="45.77867" lon="6.51455">
        <ele>1528.8</ele>
        <time>2026-07-12T10:24:45Z</time>
      </trkpt>
      <trkpt lat="45.77865" lon="6.51447">
        <ele>1527.6</ele>
        <time>2026-07-12T10:24:46Z</time>
      </trkpt>
      <trkpt lat="45.77862" lon="6.51439">
        <ele>1527.6</ele>
        <time>2026-07-12T10:24:47Z</time>
      </trkpt>
      <trkpt lat="45.7786" lon="6.51431">
        <ele>1527.6</ele>
        <time>2026-07-12T10:24:48Z</time>
      </trkpt>
      <trkpt lat="45.77858" lon="6.51425">
        <ele>1527.6</ele>
        <time>2026-07-12T10:24:49Z</time>
      </trkpt>
      <trkpt lat="45.77855" lon="6.51418">
        <ele>1527.6</ele>
        <time>2026-07-12T10:24:50Z</time>
      </trkpt>
      <trkpt lat="45.77852" lon="6.51411">
        <ele>1527.6</ele>
        <time>2026-07-12T10:24:51Z</time>
      </trkpt>
      <trkpt lat="45.77849" lon="6.51404">
        <ele>1526.6</ele>
        <time>2026-07-12T10:24:52Z</time>
      </trkpt>
      <trkpt lat="45.77845" lon="6.51397">
        <ele>1526.4</ele>
        <time>2026-07-12T10:24:53Z</time>
      </trkpt>
      <trkpt lat="45.77841" lon="6.5139">
        <ele>1525.6</ele>
        <time>2026-07-12T10:24:54Z</time>
      </trkpt>
      <trkpt lat="45.77837" lon="6.51383">
        <ele>1524.2</ele>
        <time>2026-07-12T10:24:55Z</time>
      </trkpt>
      <trkpt lat="45.77833" lon="6.51376">
        <ele>1524.2</ele>
        <time>2026-07-12T10:24:56Z</time>
      </trkpt>
      <trkpt lat="45.7783" lon="6.5137">
        <ele>1524.2</ele>
        <time>2026-07-12T10:24:57Z</time>
      </trkpt>
      <trkpt lat="45.77825" lon="6.51362">
        <ele>1525.2</ele>
        <time>2026-07-12T10:24:58Z</time>
      </trkpt>
      <trkpt lat="45.77821" lon="6.51355">
        <ele>1526.2</ele>
        <time>2026-07-12T10:24:59Z</time>
      </trkpt>
      <trkpt lat="45.77816" lon="6.51348">
        <ele>1527</ele>
        <time>2026-07-12T10:25:00Z</time>
      </trkpt>
      <trkpt lat="45.77812" lon="6.5134">
        <ele>1527</ele>
        <time>2026-07-12T10:25:01Z</time>
      </trkpt>
      <trkpt lat="45.77809" lon="6.51333">
        <ele>1527</ele>
        <time>2026-07-12T10:25:02Z</time>
      </trkpt>
      <trkpt lat="45.77805" lon="6.51326">
        <ele>1526</ele>
        <time>2026-07-12T10:25:03Z</time>
      </trkpt>
      <trkpt lat="45.77802" lon="6.51318">
        <ele>1525.4</ele>
        <time>2026-07-12T10:25:04Z</time>
      </trkpt>
      <trkpt lat="45.77798" lon="6.51311">
        <ele>1525.4</ele>
        <time>2026-07-12T10:25:05Z</time>
      </trkpt>
      <trkpt lat="45.77793" lon="6.51305">
        <ele>1528.2</ele>
        <time>2026-07-12T10:25:06Z</time>
      </trkpt>
      <trkpt lat="45.77789" lon="6.51298">
        <ele>1528.2</ele>
        <time>2026-07-12T10:25:07Z</time>
      </trkpt>
      <trkpt lat="45.77783" lon="6.51292">
        <ele>1528.2</ele>
        <time>2026-07-12T10:25:08Z</time>
      </trkpt>
      <trkpt lat="45.77778" lon="6.51287">
        <ele>1528.2</ele>
        <time>2026-07-12T10:25:09Z</time>
      </trkpt>
      <trkpt lat="45.77773" lon="6.51282">
        <ele>1528.2</ele>
        <time>2026-07-12T10:25:10Z</time>
      </trkpt>
      <trkpt lat="45.77768" lon="6.51276">
        <ele>1528.2</ele>
        <time>2026-07-12T10:25:11Z</time>
      </trkpt>
      <trkpt lat="45.77763" lon="6.51271">
        <ele>1527.2</ele>
        <time>2026-07-12T10:25:12Z</time>
      </trkpt>
      <trkpt lat="45.77758" lon="6.51266">
        <ele>1527</ele>
        <time>2026-07-12T10:25:13Z</time>
      </trkpt>
      <trkpt lat="45.77754" lon="6.51261">
        <ele>1526.6</ele>
        <time>2026-07-12T10:25:14Z</time>
      </trkpt>
      <trkpt lat="45.7775" lon="6.51256">
        <ele>1526.4</ele>
        <time>2026-07-12T10:25:15Z</time>
      </trkpt>
      <trkpt lat="45.77745" lon="6.5125">
        <ele>1524.4</ele>
        <time>2026-07-12T10:25:16Z</time>
      </trkpt>
      <trkpt lat="45.7774" lon="6.51244">
        <ele>1524.4</ele>
        <time>2026-07-12T10:25:17Z</time>
      </trkpt>
      <trkpt lat="45.77735" lon="6.51239">
        <ele>1524.4</ele>
        <time>2026-07-12T10:25:18Z</time>
      </trkpt>
      <trkpt lat="45.7773" lon="6.51234">
        <ele>1525.4</ele>
        <time>2026-07-12T10:25:19Z</time>
      </trkpt>
      <trkpt lat="45.77725" lon="6.5123">
        <ele>1526.4</ele>
        <time>2026-07-12T10:25:20Z</time>
      </trkpt>
      <trkpt lat="45.7772" lon="6.51224">
        <ele>1527.4</ele>
        <time>2026-07-12T10:25:21Z</time>
      </trkpt>
      <trkpt lat="45.77717" lon="6.51217">
        <ele>1528.4</ele>
        <time>2026-07-12T10:25:22Z</time>
      </trkpt>
      <trkpt lat="45.77714" lon="6.51209">
        <ele>1528.4</ele>
        <time>2026-07-12T10:25:23Z</time>
      </trkpt>
      <trkpt lat="45.77711" lon="6.51202">
        <ele>1528.4</ele>
        <time>2026-07-12T10:25:24Z</time>
      </trkpt>
      <trkpt lat="45.77708" lon="6.51195">
        <ele>1528.4</ele>
        <time>2026-07-12T10:25:25Z</time>
      </trkpt>
      <trkpt lat="45.77705" lon="6.51188">
        <ele>1528.4</ele>
        <time>2026-07-12T10:25:26Z</time>
      </trkpt>
      <trkpt lat="45.77701" lon="6.5118">
        <ele>1527.6</ele>
        <time>2026-07-12T10:25:27Z</time>
      </trkpt>
      <trkpt lat="45.77698" lon="6.51173">
        <ele>1527.6</ele>
        <time>2026-07-12T10:25:28Z</time>
      </trkpt>
      <trkpt lat="45.77695" lon="6.51166">
        <ele>1527.6</ele>
        <time>2026-07-12T10:25:29Z</time>
      </trkpt>
      <trkpt lat="45.77691" lon="6.5116">
        <ele>1528.6</ele>
        <time>2026-07-12T10:25:30Z</time>
      </trkpt>
      <trkpt lat="45.77687" lon="6.51153">
        <ele>1528.8</ele>
        <time>2026-07-12T10:25:31Z</time>
      </trkpt>
      <trkpt lat="45.77683" lon="6.51147">
        <ele>1528.8</ele>
        <time>2026-07-12T10:25:32Z</time>
      </trkpt>
      <trkpt lat="45.77678" lon="6.51141">
        <ele>1529.2</ele>
        <time>2026-07-12T10:25:33Z</time>
      </trkpt>
      <trkpt lat="45.77674" lon="6.51137">
        <ele>1530.2</ele>
        <time>2026-07-12T10:25:34Z</time>
      </trkpt>
      <trkpt lat="45.7767" lon="6.51132">
        <ele>1530.2</ele>
        <time>2026-07-12T10:25:35Z</time>
      </trkpt>
      <trkpt lat="45.77666" lon="6.51129">
        <ele>1530.2</ele>
        <time>2026-07-12T10:25:36Z</time>
      </trkpt>
      <trkpt lat="45.77662" lon="6.51126">
        <ele>1530.2</ele>
        <time>2026-07-12T10:25:37Z</time>
      </trkpt>
      <trkpt lat="45.77658" lon="6.51122">
        <ele>1530.2</ele>
        <time>2026-07-12T10:25:38Z</time>
      </trkpt>
      <trkpt lat="45.77655" lon="6.51116">
        <ele>1530.2</ele>
        <time>2026-07-12T10:25:39Z</time>
      </trkpt>
      <trkpt lat="45.77653" lon="6.51109">
        <ele>1530.2</ele>
        <time>2026-07-12T10:25:40Z</time>
      </trkpt>
      <trkpt lat="45.77652" lon="6.51102">
        <ele>1530.8</ele>
        <time>2026-07-12T10:25:41Z</time>
      </trkpt>
      <trkpt lat="45.7765" lon="6.51095">
        <ele>1530.8</ele>
        <time>2026-07-12T10:25:42Z</time>
      </trkpt>
      <trkpt lat="45.77649" lon="6.51088">
        <ele>1530.8</ele>
        <time>2026-07-12T10:25:43Z</time>
      </trkpt>
      <trkpt lat="45.77647" lon="6.51082">
        <ele>1529.8</ele>
        <time>2026-07-12T10:25:44Z</time>
      </trkpt>
      <trkpt lat="45.77644" lon="6.51077">
        <ele>1529.8</ele>
        <time>2026-07-12T10:25:45Z</time>
      </trkpt>
      <trkpt lat="45.77641" lon="6.51072">
        <ele>1529.8</ele>
        <time>2026-07-12T10:25:46Z</time>
      </trkpt>
      <trkpt lat="45.77637" lon="6.51067">
        <ele>1529.8</ele>
        <time>2026-07-12T10:25:47Z</time>
      </trkpt>
      <trkpt lat="45.77633" lon="6.51063">
        <ele>1529.8</ele>
        <time>2026-07-12T10:25:48Z</time>
      </trkpt>
      <trkpt lat="45.77628" lon="6.51061">
        <ele>1529.8</ele>
        <time>2026-07-12T10:25:49Z</time>
      </trkpt>
      <trkpt lat="45.77623" lon="6.5106">
        <ele>1529.8</ele>
        <time>2026-07-12T10:25:50Z</time>
      </trkpt>
      <trkpt lat="45.77618" lon="6.51059">
        <ele>1529.8</ele>
        <time>2026-07-12T10:25:51Z</time>
      </trkpt>
      <trkpt lat="45.77613" lon="6.51057">
        <ele>1529.8</ele>
        <time>2026-07-12T10:25:52Z</time>
      </trkpt>
      <trkpt lat="45.77608" lon="6.51053">
        <ele>1529.8</ele>
        <time>2026-07-12T10:25:53Z</time>
      </trkpt>
      <trkpt lat="45.77604" lon="6.51049">
        <ele>1529.8</ele>
        <time>2026-07-12T10:25:54Z</time>
      </trkpt>
      <trkpt lat="45.776" lon="6.51044">
        <ele>1529.6</ele>
        <time>2026-07-12T10:25:55Z</time>
      </trkpt>
      <trkpt lat="45.77596" lon="6.5104">
        <ele>1528.8</ele>
        <time>2026-07-12T10:25:56Z</time>
      </trkpt>
      <trkpt lat="45.77592" lon="6.51035">
        <ele>1528.8</ele>
        <time>2026-07-12T10:25:57Z</time>
      </trkpt>
      <trkpt lat="45.77588" lon="6.5103">
        <ele>1528.8</ele>
        <time>2026-07-12T10:25:58Z</time>
      </trkpt>
      <trkpt lat="45.77585" lon="6.51026">
        <ele>1528.8</ele>
        <time>2026-07-12T10:25:59Z</time>
      </trkpt>
      <trkpt lat="45.77582" lon="6.51022">
        <ele>1528.8</ele>
        <time>2026-07-12T10:26:00Z</time>
      </trkpt>
      <trkpt lat="45.77579" lon="6.5102">
        <ele>1529.2</ele>
        <time>2026-07-12T10:26:01Z</time>
      </trkpt>
      <trkpt lat="45.77576" lon="6.51016">
        <ele>1529.2</ele>
        <time>2026-07-12T10:26:02Z</time>
      </trkpt>
      <trkpt lat="45.77572" lon="6.51012">
        <ele>1529.2</ele>
        <time>2026-07-12T10:26:03Z</time>
      </trkpt>
      <trkpt lat="45.77569" lon="6.51009">
        <ele>1529.2</ele>
        <time>2026-07-12T10:26:04Z</time>
      </trkpt>
      <trkpt lat="45.77566" lon="6.51004">
        <ele>1529.2</ele>
        <time>2026-07-12T10:26:05Z</time>
      </trkpt>
      <trkpt lat="45.77562" lon="6.51">
        <ele>1529.2</ele>
        <time>2026-07-12T10:26:06Z</time>
      </trkpt>
      <trkpt lat="45.7756" lon="6.50997">
        <ele>1530</ele>
        <time>2026-07-12T10:26:07Z</time>
      </trkpt>
      <trkpt lat="45.77558" lon="6.50993">
        <ele>1530.2</ele>
        <time>2026-07-12T10:26:08Z</time>
      </trkpt>
      <trkpt lat="45.77555" lon="6.5099">
        <ele>1530.2</ele>
        <time>2026-07-12T10:26:09Z</time>
      </trkpt>
      <trkpt lat="45.77553" lon="6.50986">
        <ele>1530.2</ele>
        <time>2026-07-12T10:26:10Z</time>
      </trkpt>
      <trkpt lat="45.77551" lon="6.50983">
        <ele>1530.2</ele>
        <time>2026-07-12T10:26:11Z</time>
      </trkpt>
      <trkpt lat="45.77548" lon="6.50981">
        <ele>1531.2</ele>
        <time>2026-07-12T10:26:12Z</time>
      </trkpt>
      <trkpt lat="45.77545" lon="6.50978">
        <ele>1531.2</ele>
        <time>2026-07-12T10:26:13Z</time>
      </trkpt>
      <trkpt lat="45.77541" lon="6.50976">
        <ele>1531.2</ele>
        <time>2026-07-12T10:26:14Z</time>
      </trkpt>
      <trkpt lat="45.77536" lon="6.50973">
        <ele>1531.2</ele>
        <time>2026-07-12T10:26:15Z</time>
      </trkpt>
      <trkpt lat="45.77533" lon="6.50969">
        <ele>1533.6</ele>
        <time>2026-07-12T10:26:16Z</time>
      </trkpt>
      <trkpt lat="45.77529" lon="6.50965">
        <ele>1534</ele>
        <time>2026-07-12T10:26:17Z</time>
      </trkpt>
      <trkpt lat="45.77526" lon="6.5096">
        <ele>1535.2</ele>
        <time>2026-07-12T10:26:18Z</time>
      </trkpt>
      <trkpt lat="45.77523" lon="6.50955">
        <ele>1535.2</ele>
        <time>2026-07-12T10:26:19Z</time>
      </trkpt>
      <trkpt lat="45.77519" lon="6.50951">
        <ele>1535.2</ele>
        <time>2026-07-12T10:26:20Z</time>
      </trkpt>
      <trkpt lat="45.77516" lon="6.50947">
        <ele>1535.2</ele>
        <time>2026-07-12T10:26:21Z</time>
      </trkpt>
      <trkpt lat="45.77513" lon="6.50943">
        <ele>1535.2</ele>
        <time>2026-07-12T10:26:22Z</time>
      </trkpt>
      <trkpt lat="45.77509" lon="6.50939">
        <ele>1535.2</ele>
        <time>2026-07-12T10:26:23Z</time>
      </trkpt>
      <trkpt lat="45.77505" lon="6.50936">
        <ele>1537.8</ele>
        <time>2026-07-12T10:26:24Z</time>
      </trkpt>
      <trkpt lat="45.77501" lon="6.50932">
        <ele>1539.4</ele>
        <time>2026-07-12T10:26:25Z</time>
      </trkpt>
      <trkpt lat="45.77497" lon="6.50929">
        <ele>1539.4</ele>
        <time>2026-07-12T10:26:26Z</time>
      </trkpt>
      <trkpt lat="45.77493" lon="6.50925">
        <ele>1539.4</ele>
        <time>2026-07-12T10:26:27Z</time>
      </trkpt>
      <trkpt lat="45.7749" lon="6.50922">
        <ele>1539.4</ele>
        <time>2026-07-12T10:26:28Z</time>
      </trkpt>
      <trkpt lat="45.77485" lon="6.50919">
        <ele>1539.4</ele>
        <time>2026-07-12T10:26:29Z</time>
      </trkpt>
      <trkpt lat="45.7748" lon="6.50917">
        <ele>1539.4</ele>
        <time>2026-07-12T10:26:30Z</time>
      </trkpt>
      <trkpt lat="45.77476" lon="6.50914">
        <ele>1539.4</ele>
        <time>2026-07-12T10:26:31Z</time>
      </trkpt>
      <trkpt lat="45.77472" lon="6.50911">
        <ele>1540.4</ele>
        <time>2026-07-12T10:26:32Z</time>
      </trkpt>
      <trkpt lat="45.77467" lon="6.50909">
        <ele>1540.4</ele>
        <time>2026-07-12T10:26:33Z</time>
      </trkpt>
      <trkpt lat="45.77465" lon="6.50906">
        <ele>1541.4</ele>
        <time>2026-07-12T10:26:34Z</time>
      </trkpt>
      <trkpt lat="45.7746" lon="6.50904">
        <ele>1542.4</ele>
        <time>2026-07-12T10:26:35Z</time>
      </trkpt>
      <trkpt lat="45.77455" lon="6.50901">
        <ele>1543</ele>
        <time>2026-07-12T10:26:36Z</time>
      </trkpt>
      <trkpt lat="45.77451" lon="6.50899">
        <ele>1543.2</ele>
        <time>2026-07-12T10:26:37Z</time>
      </trkpt>
      <trkpt lat="45.77447" lon="6.50896">
        <ele>1544.2</ele>
        <time>2026-07-12T10:26:38Z</time>
      </trkpt>
      <trkpt lat="45.77443" lon="6.50893">
        <ele>1544.2</ele>
        <time>2026-07-12T10:26:39Z</time>
      </trkpt>
      <trkpt lat="45.77439" lon="6.5089">
        <ele>1544.2</ele>
        <time>2026-07-12T10:26:40Z</time>
      </trkpt>
      <trkpt lat="45.77435" lon="6.50887">
        <ele>1544.2</ele>
        <time>2026-07-12T10:26:41Z</time>
      </trkpt>
      <trkpt lat="45.7743" lon="6.50883">
        <ele>1544.4</ele>
        <time>2026-07-12T10:26:42Z</time>
      </trkpt>
      <trkpt lat="45.77426" lon="6.50881">
        <ele>1544.8</ele>
        <time>2026-07-12T10:26:43Z</time>
      </trkpt>
      <trkpt lat="45.77422" lon="6.50878">
        <ele>1545.4</ele>
        <time>2026-07-12T10:26:44Z</time>
      </trkpt>
      <trkpt lat="45.77418" lon="6.50875">
        <ele>1545.8</ele>
        <time>2026-07-12T10:26:45Z</time>
      </trkpt>
      <trkpt lat="45.77415" lon="6.50871">
        <ele>1546.8</ele>
        <time>2026-07-12T10:26:46Z</time>
      </trkpt>
      <trkpt lat="45.77412" lon="6.50867">
        <ele>1546.8</ele>
        <time>2026-07-12T10:26:47Z</time>
      </trkpt>
      <trkpt lat="45.77409" lon="6.50862">
        <ele>1546.8</ele>
        <time>2026-07-12T10:26:48Z</time>
      </trkpt>
      <trkpt lat="45.77408" lon="6.50857">
        <ele>1546.8</ele>
        <time>2026-07-12T10:26:49Z</time>
      </trkpt>
      <trkpt lat="45.77407" lon="6.50851">
        <ele>1549.4</ele>
        <time>2026-07-12T10:26:50Z</time>
      </trkpt>
      <trkpt lat="45.77406" lon="6.50845">
        <ele>1549.8</ele>
        <time>2026-07-12T10:26:51Z</time>
      </trkpt>
      <trkpt lat="45.77404" lon="6.50839">
        <ele>1549.8</ele>
        <time>2026-07-12T10:26:52Z</time>
      </trkpt>
      <trkpt lat="45.77402" lon="6.50833">
        <ele>1549.8</ele>
        <time>2026-07-12T10:26:53Z</time>
      </trkpt>
      <trkpt lat="45.774" lon="6.50828">
        <ele>1549.8</ele>
        <time>2026-07-12T10:26:54Z</time>
      </trkpt>
      <trkpt lat="45.77397" lon="6.50823">
        <ele>1552.8</ele>
        <time>2026-07-12T10:26:55Z</time>
      </trkpt>
      <trkpt lat="45.77394" lon="6.50819">
        <ele>1552.8</ele>
        <time>2026-07-12T10:26:56Z</time>
      </trkpt>
      <trkpt lat="45.7739" lon="6.50815">
        <ele>1552.8</ele>
        <time>2026-07-12T10:26:57Z</time>
      </trkpt>
      <trkpt lat="45.77387" lon="6.50811">
        <ele>1552.8</ele>
        <time>2026-07-12T10:26:58Z</time>
      </trkpt>
      <trkpt lat="45.77384" lon="6.50806">
        <ele>1552.8</ele>
        <time>2026-07-12T10:26:59Z</time>
      </trkpt>
      <trkpt lat="45.77381" lon="6.50803">
        <ele>1553.8</ele>
        <time>2026-07-12T10:27:00Z</time>
      </trkpt>
      <trkpt lat="45.77377" lon="6.50799">
        <ele>1554.8</ele>
        <time>2026-07-12T10:27:01Z</time>
      </trkpt>
      <trkpt lat="45.77373" lon="6.50795">
        <ele>1554.8</ele>
        <time>2026-07-12T10:27:02Z</time>
      </trkpt>
      <trkpt lat="45.77371" lon="6.50792">
        <ele>1554.8</ele>
        <time>2026-07-12T10:27:03Z</time>
      </trkpt>
      <trkpt lat="45.77367" lon="6.50789">
        <ele>1554.8</ele>
        <time>2026-07-12T10:27:04Z</time>
      </trkpt>
      <trkpt lat="45.77363" lon="6.50786">
        <ele>1555.8</ele>
        <time>2026-07-12T10:27:05Z</time>
      </trkpt>
      <trkpt lat="45.77359" lon="6.50784">
        <ele>1555.8</ele>
        <time>2026-07-12T10:27:06Z</time>
      </trkpt>
      <trkpt lat="45.77356" lon="6.50781">
        <ele>1555.8</ele>
        <time>2026-07-12T10:27:07Z</time>
      </trkpt>
      <trkpt lat="45.77353" lon="6.50779">
        <ele>1555.8</ele>
        <time>2026-07-12T10:27:08Z</time>
      </trkpt>
      <trkpt lat="45.77349" lon="6.50776">
        <ele>1555.8</ele>
        <time>2026-07-12T10:27:09Z</time>
      </trkpt>
      <trkpt lat="45.77344" lon="6.50774">
        <ele>1556.8</ele>
        <time>2026-07-12T10:27:10Z</time>
      </trkpt>
      <trkpt lat="45.7734" lon="6.50772">
        <ele>1557.4</ele>
        <time>2026-07-12T10:27:11Z</time>
      </trkpt>
      <trkpt lat="45.77335" lon="6.50771">
        <ele>1558.4</ele>
        <time>2026-07-12T10:27:12Z</time>
      </trkpt>
      <trkpt lat="45.7733" lon="6.50769">
        <ele>1559</ele>
        <time>2026-07-12T10:27:13Z</time>
      </trkpt>
      <trkpt lat="45.77325" lon="6.50768">
        <ele>1559.4</ele>
        <time>2026-07-12T10:27:14Z</time>
      </trkpt>
      <trkpt lat="45.7732" lon="6.50767">
        <ele>1559.6</ele>
        <time>2026-07-12T10:27:15Z</time>
      </trkpt>
      <trkpt lat="45.77315" lon="6.50765">
        <ele>1560.8</ele>
        <time>2026-07-12T10:27:16Z</time>
      </trkpt>
      <trkpt lat="45.77311" lon="6.50762">
        <ele>1561</ele>
        <time>2026-07-12T10:27:17Z</time>
      </trkpt>
      <trkpt lat="45.77306" lon="6.50759">
        <ele>1561</ele>
        <time>2026-07-12T10:27:18Z</time>
      </trkpt>
      <trkpt lat="45.77302" lon="6.50756">
        <ele>1561</ele>
        <time>2026-07-12T10:27:19Z</time>
      </trkpt>
      <trkpt lat="45.77298" lon="6.50753">
        <ele>1561</ele>
        <time>2026-07-12T10:27:20Z</time>
      </trkpt>
      <trkpt lat="45.77293" lon="6.50749">
        <ele>1563.2</ele>
        <time>2026-07-12T10:27:21Z</time>
      </trkpt>
      <trkpt lat="45.77289" lon="6.50746">
        <ele>1563.2</ele>
        <time>2026-07-12T10:27:22Z</time>
      </trkpt>
      <trkpt lat="45.77285" lon="6.50742">
        <ele>1563.2</ele>
        <time>2026-07-12T10:27:23Z</time>
      </trkpt>
      <trkpt lat="45.77281" lon="6.50739">
        <ele>1563.2</ele>
        <time>2026-07-12T10:27:24Z</time>
      </trkpt>
      <trkpt lat="45.77277" lon="6.50735">
        <ele>1563.2</ele>
        <time>2026-07-12T10:27:25Z</time>
      </trkpt>
      <trkpt lat="45.77272" lon="6.50732">
        <ele>1563.2</ele>
        <time>2026-07-12T10:27:26Z</time>
      </trkpt>
      <trkpt lat="45.77269" lon="6.50729">
        <ele>1565.2</ele>
        <time>2026-07-12T10:27:27Z</time>
      </trkpt>
      <trkpt lat="45.77264" lon="6.50727">
        <ele>1565.2</ele>
        <time>2026-07-12T10:27:28Z</time>
      </trkpt>
      <trkpt lat="45.7726" lon="6.50726">
        <ele>1565.2</ele>
        <time>2026-07-12T10:27:29Z</time>
      </trkpt>
      <trkpt lat="45.77255" lon="6.50725">
        <ele>1565.2</ele>
        <time>2026-07-12T10:27:30Z</time>
      </trkpt>
      <trkpt lat="45.7725" lon="6.50723">
        <ele>1565.2</ele>
        <time>2026-07-12T10:27:31Z</time>
      </trkpt>
      <trkpt lat="45.77245" lon="6.50722">
        <ele>1566.2</ele>
        <time>2026-07-12T10:27:32Z</time>
      </trkpt>
      <trkpt lat="45.7724" lon="6.50721">
        <ele>1567.2</ele>
        <time>2026-07-12T10:27:33Z</time>
      </trkpt>
      <trkpt lat="45.77236" lon="6.50719">
        <ele>1567.2</ele>
        <time>2026-07-12T10:27:34Z</time>
      </trkpt>
      <trkpt lat="45.77232" lon="6.50717">
        <ele>1567.2</ele>
        <time>2026-07-12T10:27:35Z</time>
      </trkpt>
      <trkpt lat="45.77228" lon="6.50713">
        <ele>1567.2</ele>
        <time>2026-07-12T10:27:36Z</time>
      </trkpt>
      <trkpt lat="45.77224" lon="6.5071">
        <ele>1570.8</ele>
        <time>2026-07-12T10:27:37Z</time>
      </trkpt>
      <trkpt lat="45.7722" lon="6.50708">
        <ele>1571.6</ele>
        <time>2026-07-12T10:27:38Z</time>
      </trkpt>
      <trkpt lat="45.77217" lon="6.50705">
        <ele>1571.8</ele>
        <time>2026-07-12T10:27:39Z</time>
      </trkpt>
      <trkpt lat="45.77213" lon="6.50704">
        <ele>1571.8</ele>
        <time>2026-07-12T10:27:40Z</time>
      </trkpt>
      <trkpt lat="45.77209" lon="6.50702">
        <ele>1571.8</ele>
        <time>2026-07-12T10:27:41Z</time>
      </trkpt>
      <trkpt lat="45.77205" lon="6.50701">
        <ele>1571.8</ele>
        <time>2026-07-12T10:27:42Z</time>
      </trkpt>
      <trkpt lat="45.77201" lon="6.507">
        <ele>1572.6</ele>
        <time>2026-07-12T10:27:43Z</time>
      </trkpt>
      <trkpt lat="45.77197" lon="6.50698">
        <ele>1572.6</ele>
        <time>2026-07-12T10:27:44Z</time>
      </trkpt>
      <trkpt lat="45.77193" lon="6.50696">
        <ele>1573.8</ele>
        <time>2026-07-12T10:27:45Z</time>
      </trkpt>
      <trkpt lat="45.77189" lon="6.50694">
        <ele>1573.8</ele>
        <time>2026-07-12T10:27:46Z</time>
      </trkpt>
      <trkpt lat="45.77186" lon="6.50692">
        <ele>1573.8</ele>
        <time>2026-07-12T10:27:47Z</time>
      </trkpt>
      <trkpt lat="45.77182" lon="6.50689">
        <ele>1573.8</ele>
        <time>2026-07-12T10:27:48Z</time>
      </trkpt>
      <trkpt lat="45.77178" lon="6.50686">
        <ele>1573.8</ele>
        <time>2026-07-12T10:27:49Z</time>
      </trkpt>
      <trkpt lat="45.77175" lon="6.50684">
        <ele>1573.8</ele>
        <time>2026-07-12T10:27:50Z</time>
      </trkpt>
      <trkpt lat="45.77171" lon="6.50681">
        <ele>1574.8</ele>
        <time>2026-07-12T10:27:51Z</time>
      </trkpt>
      <trkpt lat="45.77168" lon="6.50679">
        <ele>1575</ele>
        <time>2026-07-12T10:27:52Z</time>
      </trkpt>
      <trkpt lat="45.77165" lon="6.50677">
        <ele>1576</ele>
        <time>2026-07-12T10:27:53Z</time>
      </trkpt>
      <trkpt lat="45.77162" lon="6.50675">
        <ele>1577</ele>
        <time>2026-07-12T10:27:54Z</time>
      </trkpt>
      <trkpt lat="45.77158" lon="6.50675">
        <ele>1578.6</ele>
        <time>2026-07-12T10:27:55Z</time>
      </trkpt>
      <trkpt lat="45.77155" lon="6.50676">
        <ele>1578.6</ele>
        <time>2026-07-12T10:27:56Z</time>
      </trkpt>
      <trkpt lat="45.77151" lon="6.50678">
        <ele>1578.6</ele>
        <time>2026-07-12T10:27:57Z</time>
      </trkpt>
      <trkpt lat="45.77148" lon="6.50681">
        <ele>1577.6</ele>
        <time>2026-07-12T10:27:58Z</time>
      </trkpt>
      <trkpt lat="45.77145" lon="6.50685">
        <ele>1577.6</ele>
        <time>2026-07-12T10:27:59Z</time>
      </trkpt>
      <trkpt lat="45.77144" lon="6.5069">
        <ele>1579</ele>
        <time>2026-07-12T10:28:00Z</time>
      </trkpt>
      <trkpt lat="45.77143" lon="6.50695">
        <ele>1580</ele>
        <time>2026-07-12T10:28:01Z</time>
      </trkpt>
      <trkpt lat="45.77142" lon="6.50701">
        <ele>1581.2</ele>
        <time>2026-07-12T10:28:02Z</time>
      </trkpt>
      <trkpt lat="45.77141" lon="6.50707">
        <ele>1581.2</ele>
        <time>2026-07-12T10:28:03Z</time>
      </trkpt>
      <trkpt lat="45.77141" lon="6.50713">
        <ele>1581.2</ele>
        <time>2026-07-12T10:28:04Z</time>
      </trkpt>
      <trkpt lat="45.7714" lon="6.50719">
        <ele>1581.2</ele>
        <time>2026-07-12T10:28:05Z</time>
      </trkpt>
      <trkpt lat="45.77138" lon="6.50725">
        <ele>1582</ele>
        <time>2026-07-12T10:28:06Z</time>
      </trkpt>
      <trkpt lat="45.77137" lon="6.5073">
        <ele>1582.2</ele>
        <time>2026-07-12T10:28:07Z</time>
      </trkpt>
      <trkpt lat="45.77135" lon="6.50735">
        <ele>1582.8</ele>
        <time>2026-07-12T10:28:08Z</time>
      </trkpt>
      <trkpt lat="45.77132" lon="6.5074">
        <ele>1583.8</ele>
        <time>2026-07-12T10:28:09Z</time>
      </trkpt>
      <trkpt lat="45.7713" lon="6.50745">
        <ele>1583.8</ele>
        <time>2026-07-12T10:28:10Z</time>
      </trkpt>
      <trkpt lat="45.77127" lon="6.50748">
        <ele>1583.8</ele>
        <time>2026-07-12T10:28:11Z</time>
      </trkpt>
      <trkpt lat="45.77123" lon="6.50751">
        <ele>1583.8</ele>
        <time>2026-07-12T10:28:12Z</time>
      </trkpt>
      <trkpt lat="45.7712" lon="6.50753">
        <ele>1584.8</ele>
        <time>2026-07-12T10:28:13Z</time>
      </trkpt>
      <trkpt lat="45.77116" lon="6.50756">
        <ele>1585.2</ele>
        <time>2026-07-12T10:28:14Z</time>
      </trkpt>
      <trkpt lat="45.77113" lon="6.5076">
        <ele>1585.2</ele>
        <time>2026-07-12T10:28:15Z</time>
      </trkpt>
      <trkpt lat="45.7711" lon="6.50763">
        <ele>1585.2</ele>
        <time>2026-07-12T10:28:16Z</time>
      </trkpt>
      <trkpt lat="45.77108" lon="6.50768">
        <ele>1585.2</ele>
        <time>2026-07-12T10:28:17Z</time>
      </trkpt>
      <trkpt lat="45.77106" lon="6.50772">
        <ele>1586.2</ele>
        <time>2026-07-12T10:28:18Z</time>
      </trkpt>
      <trkpt lat="45.77103" lon="6.50777">
        <ele>1587.2</ele>
        <time>2026-07-12T10:28:19Z</time>
      </trkpt>
      <trkpt lat="45.77101" lon="6.50782">
        <ele>1587.6</ele>
        <time>2026-07-12T10:28:20Z</time>
      </trkpt>
      <trkpt lat="45.771" lon="6.50787">
        <ele>1587.6</ele>
        <time>2026-07-12T10:28:21Z</time>
      </trkpt>
      <trkpt lat="45.77098" lon="6.50791">
        <ele>1587.6</ele>
        <time>2026-07-12T10:28:22Z</time>
      </trkpt>
      <trkpt lat="45.77096" lon="6.50796">
        <ele>1587.6</ele>
        <time>2026-07-12T10:28:23Z</time>
      </trkpt>
      <trkpt lat="45.77095" lon="6.50801">
        <ele>1588.8</ele>
        <time>2026-07-12T10:28:24Z</time>
      </trkpt>
      <trkpt lat="45.77095" lon="6.50806">
        <ele>1590.4</ele>
        <time>2026-07-12T10:28:25Z</time>
      </trkpt>
      <trkpt lat="45.77094" lon="6.50812">
        <ele>1590.4</ele>
        <time>2026-07-12T10:28:26Z</time>
      </trkpt>
      <trkpt lat="45.77094" lon="6.50817">
        <ele>1590.4</ele>
        <time>2026-07-12T10:28:27Z</time>
      </trkpt>
      <trkpt lat="45.77095" lon="6.50823">
        <ele>1590.4</ele>
        <time>2026-07-12T10:28:28Z</time>
      </trkpt>
      <trkpt lat="45.77095" lon="6.50829">
        <ele>1589.6</ele>
        <time>2026-07-12T10:28:29Z</time>
      </trkpt>
      <trkpt lat="45.77095" lon="6.50834">
        <ele>1589.6</ele>
        <time>2026-07-12T10:28:30Z</time>
      </trkpt>
      <trkpt lat="45.77096" lon="6.5084">
        <ele>1589.6</ele>
        <time>2026-07-12T10:28:31Z</time>
      </trkpt>
      <trkpt lat="45.77097" lon="6.50846">
        <ele>1590.6</ele>
        <time>2026-07-12T10:28:32Z</time>
      </trkpt>
      <trkpt lat="45.77097" lon="6.50851">
        <ele>1590.8</ele>
        <time>2026-07-12T10:28:33Z</time>
      </trkpt>
      <trkpt lat="45.77098" lon="6.50857">
        <ele>1592.8</ele>
        <time>2026-07-12T10:28:34Z</time>
      </trkpt>
      <trkpt lat="45.77098" lon="6.50863">
        <ele>1592.8</ele>
        <time>2026-07-12T10:28:35Z</time>
      </trkpt>
      <trkpt lat="45.77098" lon="6.50869">
        <ele>1592.8</ele>
        <time>2026-07-12T10:28:36Z</time>
      </trkpt>
      <trkpt lat="45.77098" lon="6.50875">
        <ele>1592.8</ele>
        <time>2026-07-12T10:28:37Z</time>
      </trkpt>
      <trkpt lat="45.77097" lon="6.5088">
        <ele>1593</ele>
        <time>2026-07-12T10:28:38Z</time>
      </trkpt>
      <trkpt lat="45.77097" lon="6.50886">
        <ele>1593.4</ele>
        <time>2026-07-12T10:28:39Z</time>
      </trkpt>
      <trkpt lat="45.77096" lon="6.50892">
        <ele>1593.6</ele>
        <time>2026-07-12T10:28:40Z</time>
      </trkpt>
      <trkpt lat="45.77096" lon="6.50898">
        <ele>1596</ele>
        <time>2026-07-12T10:28:41Z</time>
      </trkpt>
      <trkpt lat="45.77095" lon="6.50903">
        <ele>1596</ele>
        <time>2026-07-12T10:28:42Z</time>
      </trkpt>
      <trkpt lat="45.77094" lon="6.50909">
        <ele>1596</ele>
        <time>2026-07-12T10:28:43Z</time>
      </trkpt>
      <trkpt lat="45.77093" lon="6.50914">
        <ele>1595</ele>
        <time>2026-07-12T10:28:44Z</time>
      </trkpt>
      <trkpt lat="45.77092" lon="6.5092">
        <ele>1595</ele>
        <time>2026-07-12T10:28:45Z</time>
      </trkpt>
      <trkpt lat="45.77091" lon="6.50926">
        <ele>1596.4</ele>
        <time>2026-07-12T10:28:46Z</time>
      </trkpt>
      <trkpt lat="45.7709" lon="6.50931">
        <ele>1597</ele>
        <time>2026-07-12T10:28:47Z</time>
      </trkpt>
      <trkpt lat="45.7709" lon="6.50937">
        <ele>1597</ele>
        <time>2026-07-12T10:28:48Z</time>
      </trkpt>
      <trkpt lat="45.7709" lon="6.50943">
        <ele>1597</ele>
        <time>2026-07-12T10:28:49Z</time>
      </trkpt>
      <trkpt lat="45.7709" lon="6.50948">
        <ele>1597</ele>
        <time>2026-07-12T10:28:50Z</time>
      </trkpt>
      <trkpt lat="45.7709" lon="6.50954">
        <ele>1597</ele>
        <time>2026-07-12T10:28:51Z</time>
      </trkpt>
      <trkpt lat="45.77091" lon="6.50959">
        <ele>1597</ele>
        <time>2026-07-12T10:28:52Z</time>
      </trkpt>
      <trkpt lat="45.77092" lon="6.50965">
        <ele>1597</ele>
        <time>2026-07-12T10:28:53Z</time>
      </trkpt>
      <trkpt lat="45.77093" lon="6.5097">
        <ele>1597.4</ele>
        <time>2026-07-12T10:28:54Z</time>
      </trkpt>
      <trkpt lat="45.77095" lon="6.50974">
        <ele>1598.4</ele>
        <time>2026-07-12T10:28:55Z</time>
      </trkpt>
      <trkpt lat="45.77096" lon="6.50979">
        <ele>1599.2</ele>
        <time>2026-07-12T10:28:56Z</time>
      </trkpt>
      <trkpt lat="45.77097" lon="6.50984">
        <ele>1599.2</ele>
        <time>2026-07-12T10:28:57Z</time>
      </trkpt>
      <trkpt lat="45.77098" lon="6.50989">
        <ele>1599.4</ele>
        <time>2026-07-12T10:28:58Z</time>
      </trkpt>
      <trkpt lat="45.77099" lon="6.50993">
        <ele>1599.4</ele>
        <time>2026-07-12T10:28:59Z</time>
      </trkpt>
      <trkpt lat="45.77099" lon="6.50997">
        <ele>1599.4</ele>
        <time>2026-07-12T10:29:00Z</time>
      </trkpt>
      <trkpt lat="45.77099" lon="6.51001">
        <ele>1598.8</ele>
        <time>2026-07-12T10:29:01Z</time>
      </trkpt>
      <trkpt lat="45.77099" lon="6.51004">
        <ele>1598.8</ele>
        <time>2026-07-12T10:29:02Z</time>
      </trkpt>
      <trkpt lat="45.77099" lon="6.51006">
        <ele>1598.8</ele>
        <time>2026-07-12T10:29:03Z</time>
      </trkpt>
      <trkpt lat="45.77098" lon="6.51008">
        <ele>1599.2</ele>
        <time>2026-07-12T10:29:04Z</time>
      </trkpt>
      <trkpt lat="45.77097" lon="6.5101">
        <ele>1599.2</ele>
        <time>2026-07-12T10:29:05Z</time>
      </trkpt>
      <trkpt lat="45.77096" lon="6.51012">
        <ele>1599.2</ele>
        <time>2026-07-12T10:29:06Z</time>
      </trkpt>
      <trkpt lat="45.77095" lon="6.51013">
        <ele>1599.2</ele>
        <time>2026-07-12T10:29:07Z</time>
      </trkpt>
      <trkpt lat="45.77093" lon="6.51015">
        <ele>1600.2</ele>
        <time>2026-07-12T10:29:08Z</time>
      </trkpt>
      <trkpt lat="45.77092" lon="6.51017">
        <ele>1600.2</ele>
        <time>2026-07-12T10:29:09Z</time>
      </trkpt>
      <trkpt lat="45.7709" lon="6.51019">
        <ele>1600.2</ele>
        <time>2026-07-12T10:29:10Z</time>
      </trkpt>
      <trkpt lat="45.77088" lon="6.51022">
        <ele>1600.2</ele>
        <time>2026-07-12T10:29:11Z</time>
      </trkpt>
      <trkpt lat="45.77086" lon="6.51025">
        <ele>1600.4</ele>
        <time>2026-07-12T10:29:12Z</time>
      </trkpt>
      <trkpt lat="45.77084" lon="6.51028">
        <ele>1601.4</ele>
        <time>2026-07-12T10:29:13Z</time>
      </trkpt>
      <trkpt lat="45.77081" lon="6.51031">
        <ele>1602.4</ele>
        <time>2026-07-12T10:29:14Z</time>
      </trkpt>
      <trkpt lat="45.77079" lon="6.51034">
        <ele>1603.8</ele>
        <time>2026-07-12T10:29:15Z</time>
      </trkpt>
      <trkpt lat="45.77076" lon="6.51037">
        <ele>1603.8</ele>
        <time>2026-07-12T10:29:16Z</time>
      </trkpt>
      <trkpt lat="45.77073" lon="6.5104">
        <ele>1603.8</ele>
        <time>2026-07-12T10:29:17Z</time>
      </trkpt>
      <trkpt lat="45.7707" lon="6.51043">
        <ele>1603.8</ele>
        <time>2026-07-12T10:29:18Z</time>
      </trkpt>
      <trkpt lat="45.77066" lon="6.51046">
        <ele>1604.8</ele>
        <time>2026-07-12T10:29:19Z</time>
      </trkpt>
      <trkpt lat="45.77063" lon="6.51048">
        <ele>1604.8</ele>
        <time>2026-07-12T10:29:20Z</time>
      </trkpt>
      <trkpt lat="45.7706" lon="6.5105">
        <ele>1604.8</ele>
        <time>2026-07-12T10:29:21Z</time>
      </trkpt>
      <trkpt lat="45.77056" lon="6.51052">
        <ele>1604.8</ele>
        <time>2026-07-12T10:29:22Z</time>
      </trkpt>
      <trkpt lat="45.77053" lon="6.51054">
        <ele>1605.4</ele>
        <time>2026-07-12T10:29:23Z</time>
      </trkpt>
      <trkpt lat="45.7705" lon="6.51056">
        <ele>1606</ele>
        <time>2026-07-12T10:29:24Z</time>
      </trkpt>
      <trkpt lat="45.77046" lon="6.51058">
        <ele>1607</ele>
        <time>2026-07-12T10:29:25Z</time>
      </trkpt>
      <trkpt lat="45.77043" lon="6.5106">
        <ele>1607</ele>
        <time>2026-07-12T10:29:26Z</time>
      </trkpt>
      <trkpt lat="45.7704" lon="6.51063">
        <ele>1608</ele>
        <time>2026-07-12T10:29:27Z</time>
      </trkpt>
      <trkpt lat="45.77037" lon="6.51065">
        <ele>1608.6</ele>
        <time>2026-07-12T10:29:28Z</time>
      </trkpt>
      <trkpt lat="45.77033" lon="6.51068">
        <ele>1608.6</ele>
        <time>2026-07-12T10:29:29Z</time>
      </trkpt>
      <trkpt lat="45.7703" lon="6.51072">
        <ele>1608.6</ele>
        <time>2026-07-12T10:29:30Z</time>
      </trkpt>
      <trkpt lat="45.77027" lon="6.51075">
        <ele>1608.6</ele>
        <time>2026-07-12T10:29:31Z</time>
      </trkpt>
      <trkpt lat="45.77024" lon="6.51078">
        <ele>1608.6</ele>
        <time>2026-07-12T10:29:32Z</time>
      </trkpt>
      <trkpt lat="45.77021" lon="6.51082">
        <ele>1608.6</ele>
        <time>2026-07-12T10:29:33Z</time>
      </trkpt>
      <trkpt lat="45.77018" lon="6.51085">
        <ele>1608.6</ele>
        <time>2026-07-12T10:29:34Z</time>
      </trkpt>
      <trkpt lat="45.77016" lon="6.51088">
        <ele>1608.6</ele>
        <time>2026-07-12T10:29:35Z</time>
      </trkpt>
      <trkpt lat="45.77013" lon="6.51091">
        <ele>1608.6</ele>
        <time>2026-07-12T10:29:36Z</time>
      </trkpt>
      <trkpt lat="45.77011" lon="6.51095">
        <ele>1608.6</ele>
        <time>2026-07-12T10:29:37Z</time>
      </trkpt>
      <trkpt lat="45.77009" lon="6.51098">
        <ele>1608.6</ele>
        <time>2026-07-12T10:29:38Z</time>
      </trkpt>
      <trkpt lat="45.77006" lon="6.511">
        <ele>1608.6</ele>
        <time>2026-07-12T10:29:39Z</time>
      </trkpt>
      <trkpt lat="45.77003" lon="6.51104">
        <ele>1608.6</ele>
        <time>2026-07-12T10:29:40Z</time>
      </trkpt>
      <trkpt lat="45.77" lon="6.51107">
        <ele>1611</ele>
        <time>2026-07-12T10:29:41Z</time>
      </trkpt>
      <trkpt lat="45.76998" lon="6.51108">
        <ele>1612</ele>
        <time>2026-07-12T10:29:42Z</time>
      </trkpt>
      <trkpt lat="45.76995" lon="6.5111">
        <ele>1612</ele>
        <time>2026-07-12T10:29:43Z</time>
      </trkpt>
      <trkpt lat="45.76992" lon="6.51111">
        <ele>1612</ele>
        <time>2026-07-12T10:29:44Z</time>
      </trkpt>
      <trkpt lat="45.76988" lon="6.51113">
        <ele>1611</ele>
        <time>2026-07-12T10:29:45Z</time>
      </trkpt>
      <trkpt lat="45.76985" lon="6.51114">
        <ele>1611</ele>
        <time>2026-07-12T10:29:46Z</time>
      </trkpt>
      <trkpt lat="45.76982" lon="6.51114">
        <ele>1611</ele>
        <time>2026-07-12T10:29:47Z</time>
      </trkpt>
      <trkpt lat="45.76979" lon="6.51113">
        <ele>1611</ele>
        <time>2026-07-12T10:29:48Z</time>
      </trkpt>
      <trkpt lat="45.76976" lon="6.51111">
        <ele>1611</ele>
        <time>2026-07-12T10:29:49Z</time>
      </trkpt>
      <trkpt lat="45.76973" lon="6.51109">
        <ele>1611.6</ele>
        <time>2026-07-12T10:29:50Z</time>
      </trkpt>
      <trkpt lat="45.76971" lon="6.51106">
        <ele>1612.6</ele>
        <time>2026-07-12T10:29:51Z</time>
      </trkpt>
      <trkpt lat="45.76968" lon="6.51103">
        <ele>1613.2</ele>
        <time>2026-07-12T10:29:52Z</time>
      </trkpt>
      <trkpt lat="45.76966" lon="6.511">
        <ele>1613.2</ele>
        <time>2026-07-12T10:29:53Z</time>
      </trkpt>
      <trkpt lat="45.76963" lon="6.51098">
        <ele>1613.2</ele>
        <time>2026-07-12T10:29:54Z</time>
      </trkpt>
      <trkpt lat="45.7696" lon="6.51095">
        <ele>1613.2</ele>
        <time>2026-07-12T10:29:55Z</time>
      </trkpt>
      <trkpt lat="45.76958" lon="6.51092">
        <ele>1613.2</ele>
        <time>2026-07-12T10:29:56Z</time>
      </trkpt>
      <trkpt lat="45.76956" lon="6.51089">
        <ele>1613.2</ele>
        <time>2026-07-12T10:29:57Z</time>
      </trkpt>
      <trkpt lat="45.76953" lon="6.51086">
        <ele>1614.2</ele>
        <time>2026-07-12T10:29:58Z</time>
      </trkpt>
      <trkpt lat="45.76952" lon="6.51084">
        <ele>1614.2</ele>
        <time>2026-07-12T10:29:59Z</time>
      </trkpt>
      <trkpt lat="45.7695" lon="6.51081">
        <ele>1614.2</ele>
        <time>2026-07-12T10:30:00Z</time>
      </trkpt>
      <trkpt lat="45.76949" lon="6.51079">
        <ele>1614.2</ele>
        <time>2026-07-12T10:30:01Z</time>
      </trkpt>
      <trkpt lat="45.76947" lon="6.51077">
        <ele>1614.6</ele>
        <time>2026-07-12T10:30:02Z</time>
      </trkpt>
      <trkpt lat="45.76945" lon="6.51075">
        <ele>1615.6</ele>
        <time>2026-07-12T10:30:03Z</time>
      </trkpt>
      <trkpt lat="45.76943" lon="6.51073">
        <ele>1618</ele>
        <time>2026-07-12T10:30:04Z</time>
      </trkpt>
      <trkpt lat="45.76941" lon="6.51071">
        <ele>1618</ele>
        <time>2026-07-12T10:30:05Z</time>
      </trkpt>
      <trkpt lat="45.76939" lon="6.51068">
        <ele>1618</ele>
        <time>2026-07-12T10:30:06Z</time>
      </trkpt>
      <trkpt lat="45.76937" lon="6.51066">
        <ele>1618</ele>
        <time>2026-07-12T10:30:07Z</time>
      </trkpt>
      <trkpt lat="45.76935" lon="6.51063">
        <ele>1618</ele>
        <time>2026-07-12T10:30:08Z</time>
      </trkpt>
      <trkpt lat="45.76933" lon="6.5106">
        <ele>1618</ele>
        <time>2026-07-12T10:30:09Z</time>
      </trkpt>
      <trkpt lat="45.76931" lon="6.51057">
        <ele>1617.2</ele>
        <time>2026-07-12T10:30:10Z</time>
      </trkpt>
      <trkpt lat="45.76929" lon="6.51054">
        <ele>1617.2</ele>
        <time>2026-07-12T10:30:11Z</time>
      </trkpt>
      <trkpt lat="45.76926" lon="6.51051">
        <ele>1617.2</ele>
        <time>2026-07-12T10:30:12Z</time>
      </trkpt>
      <trkpt lat="45.76924" lon="6.51049">
        <ele>1618.2</ele>
        <time>2026-07-12T10:30:13Z</time>
      </trkpt>
      <trkpt lat="45.76921" lon="6.51046">
        <ele>1618.8</ele>
        <time>2026-07-12T10:30:14Z</time>
      </trkpt>
      <trkpt lat="45.76919" lon="6.51043">
        <ele>1618.8</ele>
        <time>2026-07-12T10:30:15Z</time>
      </trkpt>
      <trkpt lat="45.76916" lon="6.5104">
        <ele>1618.8</ele>
        <time>2026-07-12T10:30:16Z</time>
      </trkpt>
      <trkpt lat="45.76914" lon="6.51037">
        <ele>1618.8</ele>
        <time>2026-07-12T10:30:17Z</time>
      </trkpt>
      <trkpt lat="45.76912" lon="6.51034">
        <ele>1619.2</ele>
        <time>2026-07-12T10:30:18Z</time>
      </trkpt>
      <trkpt lat="45.76909" lon="6.51031">
        <ele>1619.8</ele>
        <time>2026-07-12T10:30:19Z</time>
      </trkpt>
      <trkpt lat="45.76907" lon="6.51028">
        <ele>1620.8</ele>
        <time>2026-07-12T10:30:20Z</time>
      </trkpt>
      <trkpt lat="45.76904" lon="6.51025">
        <ele>1621</ele>
        <time>2026-07-12T10:30:21Z</time>
      </trkpt>
      <trkpt lat="45.76901" lon="6.51023">
        <ele>1621.4</ele>
        <time>2026-07-12T10:30:22Z</time>
      </trkpt>
      <trkpt lat="45.76898" lon="6.5102">
        <ele>1621.4</ele>
        <time>2026-07-12T10:30:23Z</time>
      </trkpt>
      <trkpt lat="45.76896" lon="6.51017">
        <ele>1622.8</ele>
        <time>2026-07-12T10:30:24Z</time>
      </trkpt>
      <trkpt lat="45.76893" lon="6.51014">
        <ele>1622.8</ele>
        <time>2026-07-12T10:30:25Z</time>
      </trkpt>
      <trkpt lat="45.76891" lon="6.51011">
        <ele>1622.8</ele>
        <time>2026-07-12T10:30:26Z</time>
      </trkpt>
      <trkpt lat="45.76888" lon="6.51008">
        <ele>1621.8</ele>
        <time>2026-07-12T10:30:27Z</time>
      </trkpt>
      <trkpt lat="45.76886" lon="6.51004">
        <ele>1621.8</ele>
        <time>2026-07-12T10:30:28Z</time>
      </trkpt>
      <trkpt lat="45.76883" lon="6.51001">
        <ele>1621.8</ele>
        <time>2026-07-12T10:30:29Z</time>
      </trkpt>
      <trkpt lat="45.76881" lon="6.50997">
        <ele>1623.8</ele>
        <time>2026-07-12T10:30:30Z</time>
      </trkpt>
      <trkpt lat="45.76878" lon="6.50994">
        <ele>1624</ele>
        <time>2026-07-12T10:30:31Z</time>
      </trkpt>
      <trkpt lat="45.76876" lon="6.5099">
        <ele>1625.6</ele>
        <time>2026-07-12T10:30:32Z</time>
      </trkpt>
      <trkpt lat="45.76874" lon="6.50987">
        <ele>1625.6</ele>
        <time>2026-07-12T10:30:33Z</time>
      </trkpt>
      <trkpt lat="45.76871" lon="6.50983">
        <ele>1625.6</ele>
        <time>2026-07-12T10:30:34Z</time>
      </trkpt>
      <trkpt lat="45.76869" lon="6.5098">
        <ele>1625.6</ele>
        <time>2026-07-12T10:30:35Z</time>
      </trkpt>
      <trkpt lat="45.76866" lon="6.50977">
        <ele>1625.6</ele>
        <time>2026-07-12T10:30:36Z</time>
      </trkpt>
      <trkpt lat="45.76863" lon="6.50975">
        <ele>1625.6</ele>
        <time>2026-07-12T10:30:37Z</time>
      </trkpt>
      <trkpt lat="45.7686" lon="6.50973">
        <ele>1626.8</ele>
        <time>2026-07-12T10:30:38Z</time>
      </trkpt>
      <trkpt lat="45.76857" lon="6.5097">
        <ele>1626.8</ele>
        <time>2026-07-12T10:30:39Z</time>
      </trkpt>
      <trkpt lat="45.76854" lon="6.50968">
        <ele>1626.8</ele>
        <time>2026-07-12T10:30:40Z</time>
      </trkpt>
      <trkpt lat="45.76851" lon="6.50966">
        <ele>1626.8</ele>
        <time>2026-07-12T10:30:41Z</time>
      </trkpt>
      <trkpt lat="45.76848" lon="6.50963">
        <ele>1627.8</ele>
        <time>2026-07-12T10:30:42Z</time>
      </trkpt>
      <trkpt lat="45.76846" lon="6.5096">
        <ele>1628.6</ele>
        <time>2026-07-12T10:30:43Z</time>
      </trkpt>
      <trkpt lat="45.76844" lon="6.50956">
        <ele>1629.2</ele>
        <time>2026-07-12T10:30:44Z</time>
      </trkpt>
      <trkpt lat="45.76842" lon="6.50952">
        <ele>1630</ele>
        <time>2026-07-12T10:30:45Z</time>
      </trkpt>
      <trkpt lat="45.76841" lon="6.50948">
        <ele>1630</ele>
        <time>2026-07-12T10:30:46Z</time>
      </trkpt>
      <trkpt lat="45.7684" lon="6.50944">
        <ele>1630</ele>
        <time>2026-07-12T10:30:47Z</time>
      </trkpt>
      <trkpt lat="45.76839" lon="6.5094">
        <ele>1630</ele>
        <time>2026-07-12T10:30:48Z</time>
      </trkpt>
      <trkpt lat="45.76839" lon="6.50935">
        <ele>1630</ele>
        <time>2026-07-12T10:30:49Z</time>
      </trkpt>
      <trkpt lat="45.76838" lon="6.50932">
        <ele>1630</ele>
        <time>2026-07-12T10:30:50Z</time>
      </trkpt>
      <trkpt lat="45.76838" lon="6.50928">
        <ele>1630</ele>
        <time>2026-07-12T10:30:51Z</time>
      </trkpt>
      <trkpt lat="45.76837" lon="6.50924">
        <ele>1630</ele>
        <time>2026-07-12T10:30:52Z</time>
      </trkpt>
      <trkpt lat="45.76836" lon="6.50921">
        <ele>1630</ele>
        <time>2026-07-12T10:30:53Z</time>
      </trkpt>
      <trkpt lat="45.76835" lon="6.50918">
        <ele>1632.4</ele>
        <time>2026-07-12T10:30:54Z</time>
      </trkpt>
      <trkpt lat="45.76834" lon="6.50915">
        <ele>1633</ele>
        <time>2026-07-12T10:30:55Z</time>
      </trkpt>
      <trkpt lat="45.76833" lon="6.50911">
        <ele>1633.4</ele>
        <time>2026-07-12T10:30:56Z</time>
      </trkpt>
      <trkpt lat="45.76832" lon="6.50908">
        <ele>1633.4</ele>
        <time>2026-07-12T10:30:57Z</time>
      </trkpt>
      <trkpt lat="45.76831" lon="6.50903">
        <ele>1633.4</ele>
        <time>2026-07-12T10:30:58Z</time>
      </trkpt>
      <trkpt lat="45.7683" lon="6.50898">
        <ele>1633.4</ele>
        <time>2026-07-12T10:30:59Z</time>
      </trkpt>
      <trkpt lat="45.76829" lon="6.50892">
        <ele>1633.4</ele>
        <time>2026-07-12T10:31:00Z</time>
      </trkpt>
      <trkpt lat="45.76828" lon="6.50887">
        <ele>1634.4</ele>
        <time>2026-07-12T10:31:01Z</time>
      </trkpt>
      <trkpt lat="45.76827" lon="6.50882">
        <ele>1634.4</ele>
        <time>2026-07-12T10:31:02Z</time>
      </trkpt>
      <trkpt lat="45.76826" lon="6.50877">
        <ele>1635.4</ele>
        <time>2026-07-12T10:31:03Z</time>
      </trkpt>
      <trkpt lat="45.76825" lon="6.50872">
        <ele>1636.2</ele>
        <time>2026-07-12T10:31:04Z</time>
      </trkpt>
      <trkpt lat="45.76823" lon="6.50867">
        <ele>1636.8</ele>
        <time>2026-07-12T10:31:05Z</time>
      </trkpt>
      <trkpt lat="45.76822" lon="6.50862">
        <ele>1637.4</ele>
        <time>2026-07-12T10:31:06Z</time>
      </trkpt>
      <trkpt lat="45.76821" lon="6.50858">
        <ele>1637.8</ele>
        <time>2026-07-12T10:31:07Z</time>
      </trkpt>
      <trkpt lat="45.76819" lon="6.50853">
        <ele>1637.8</ele>
        <time>2026-07-12T10:31:08Z</time>
      </trkpt>
      <trkpt lat="45.76817" lon="6.50848">
        <ele>1637.8</ele>
        <time>2026-07-12T10:31:09Z</time>
      </trkpt>
      <trkpt lat="45.76815" lon="6.50843">
        <ele>1637.8</ele>
        <time>2026-07-12T10:31:10Z</time>
      </trkpt>
      <trkpt lat="45.76813" lon="6.50839">
        <ele>1639.2</ele>
        <time>2026-07-12T10:31:11Z</time>
      </trkpt>
      <trkpt lat="45.76811" lon="6.50835">
        <ele>1639.2</ele>
        <time>2026-07-12T10:31:12Z</time>
      </trkpt>
      <trkpt lat="45.76808" lon="6.50831">
        <ele>1639.2</ele>
        <time>2026-07-12T10:31:13Z</time>
      </trkpt>
      <trkpt lat="45.76805" lon="6.50828">
        <ele>1639.2</ele>
        <time>2026-07-12T10:31:14Z</time>
      </trkpt>
      <trkpt lat="45.76802" lon="6.50825">
        <ele>1639.2</ele>
        <time>2026-07-12T10:31:15Z</time>
      </trkpt>
      <trkpt lat="45.76799" lon="6.50821">
        <ele>1639.2</ele>
        <time>2026-07-12T10:31:16Z</time>
      </trkpt>
      <trkpt lat="45.76796" lon="6.50818">
        <ele>1639.2</ele>
        <time>2026-07-12T10:31:17Z</time>
      </trkpt>
      <trkpt lat="45.76792" lon="6.50815">
        <ele>1639.2</ele>
        <time>2026-07-12T10:31:18Z</time>
      </trkpt>
      <trkpt lat="45.76789" lon="6.50812">
        <ele>1641.4</ele>
        <time>2026-07-12T10:31:19Z</time>
      </trkpt>
      <trkpt lat="45.76786" lon="6.50809">
        <ele>1642.6</ele>
        <time>2026-07-12T10:31:20Z</time>
      </trkpt>
      <trkpt lat="45.76783" lon="6.50806">
        <ele>1643.2</ele>
        <time>2026-07-12T10:31:21Z</time>
      </trkpt>
      <trkpt lat="45.7678" lon="6.50802">
        <ele>1644</ele>
        <time>2026-07-12T10:31:22Z</time>
      </trkpt>
      <trkpt lat="45.76778" lon="6.50798">
        <ele>1644.8</ele>
        <time>2026-07-12T10:31:23Z</time>
      </trkpt>
      <trkpt lat="45.76776" lon="6.50794">
        <ele>1644.8</ele>
        <time>2026-07-12T10:31:24Z</time>
      </trkpt>
      <trkpt lat="45.76775" lon="6.50791">
        <ele>1644.8</ele>
        <time>2026-07-12T10:31:25Z</time>
      </trkpt>
      <trkpt lat="45.76773" lon="6.50786">
        <ele>1644.2</ele>
        <time>2026-07-12T10:31:26Z</time>
      </trkpt>
      <trkpt lat="45.76772" lon="6.50782">
        <ele>1644.2</ele>
        <time>2026-07-12T10:31:27Z</time>
      </trkpt>
      <trkpt lat="45.7677" lon="6.50778">
        <ele>1644.2</ele>
        <time>2026-07-12T10:31:28Z</time>
      </trkpt>
      <trkpt lat="45.76768" lon="6.50774">
        <ele>1644.2</ele>
        <time>2026-07-12T10:31:29Z</time>
      </trkpt>
      <trkpt lat="45.76766" lon="6.5077">
        <ele>1645.2</ele>
        <time>2026-07-12T10:31:30Z</time>
      </trkpt>
      <trkpt lat="45.76763" lon="6.50767">
        <ele>1645.6</ele>
        <time>2026-07-12T10:31:31Z</time>
      </trkpt>
      <trkpt lat="45.7676" lon="6.50764">
        <ele>1645.8</ele>
        <time>2026-07-12T10:31:32Z</time>
      </trkpt>
      <trkpt lat="45.76757" lon="6.50761">
        <ele>1646.8</ele>
        <time>2026-07-12T10:31:33Z</time>
      </trkpt>
      <trkpt lat="45.76755" lon="6.50758">
        <ele>1648.6</ele>
        <time>2026-07-12T10:31:34Z</time>
      </trkpt>
      <trkpt lat="45.76752" lon="6.50754">
        <ele>1648.6</ele>
        <time>2026-07-12T10:31:35Z</time>
      </trkpt>
      <trkpt lat="45.76749" lon="6.50752">
        <ele>1648.6</ele>
        <time>2026-07-12T10:31:36Z</time>
      </trkpt>
      <trkpt lat="45.76746" lon="6.50749">
        <ele>1648.6</ele>
        <time>2026-07-12T10:31:37Z</time>
      </trkpt>
      <trkpt lat="45.76743" lon="6.50746">
        <ele>1648.6</ele>
        <time>2026-07-12T10:31:38Z</time>
      </trkpt>
      <trkpt lat="45.7674" lon="6.50743">
        <ele>1648.6</ele>
        <time>2026-07-12T10:31:39Z</time>
      </trkpt>
      <trkpt lat="45.76737" lon="6.50741">
        <ele>1648.6</ele>
        <time>2026-07-12T10:31:40Z</time>
      </trkpt>
      <trkpt lat="45.76734" lon="6.50739">
        <ele>1649.6</ele>
        <time>2026-07-12T10:31:41Z</time>
      </trkpt>
      <trkpt lat="45.7673" lon="6.50737">
        <ele>1650.6</ele>
        <time>2026-07-12T10:31:42Z</time>
      </trkpt>
      <trkpt lat="45.76727" lon="6.50736">
        <ele>1651.4</ele>
        <time>2026-07-12T10:31:43Z</time>
      </trkpt>
      <trkpt lat="45.76724" lon="6.50735">
        <ele>1651.4</ele>
        <time>2026-07-12T10:31:44Z</time>
      </trkpt>
      <trkpt lat="45.7672" lon="6.50736">
        <ele>1651.4</ele>
        <time>2026-07-12T10:31:45Z</time>
      </trkpt>
      <trkpt lat="45.76717" lon="6.50736">
        <ele>1651.4</ele>
        <time>2026-07-12T10:31:46Z</time>
      </trkpt>
      <trkpt lat="45.76713" lon="6.50736">
        <ele>1652.4</ele>
        <time>2026-07-12T10:31:47Z</time>
      </trkpt>
      <trkpt lat="45.7671" lon="6.50736">
        <ele>1652.6</ele>
        <time>2026-07-12T10:31:48Z</time>
      </trkpt>
      <trkpt lat="45.76707" lon="6.50736">
        <ele>1653</ele>
        <time>2026-07-12T10:31:49Z</time>
      </trkpt>
      <trkpt lat="45.76703" lon="6.50736">
        <ele>1654</ele>
        <time>2026-07-12T10:31:50Z</time>
      </trkpt>
      <trkpt lat="45.767" lon="6.50735">
        <ele>1654</ele>
        <time>2026-07-12T10:31:51Z</time>
      </trkpt>
      <trkpt lat="45.76696" lon="6.50735">
        <ele>1654.2</ele>
        <time>2026-07-12T10:31:52Z</time>
      </trkpt>
      <trkpt lat="45.76693" lon="6.50733">
        <ele>1655.2</ele>
        <time>2026-07-12T10:31:53Z</time>
      </trkpt>
      <trkpt lat="45.76689" lon="6.50732">
        <ele>1656</ele>
        <time>2026-07-12T10:31:54Z</time>
      </trkpt>
      <trkpt lat="45.76686" lon="6.50731">
        <ele>1656</ele>
        <time>2026-07-12T10:31:55Z</time>
      </trkpt>
      <trkpt lat="45.76684" lon="6.50731">
        <ele>1656</ele>
        <time>2026-07-12T10:31:56Z</time>
      </trkpt>
      <trkpt lat="45.76681" lon="6.50731">
        <ele>1656</ele>
        <time>2026-07-12T10:31:57Z</time>
      </trkpt>
      <trkpt lat="45.76678" lon="6.50731">
        <ele>1656</ele>
        <time>2026-07-12T10:31:58Z</time>
      </trkpt>
      <trkpt lat="45.76675" lon="6.50731">
        <ele>1656</ele>
        <time>2026-07-12T10:31:59Z</time>
      </trkpt>
      <trkpt lat="45.76671" lon="6.50731">
        <ele>1657</ele>
        <time>2026-07-12T10:32:00Z</time>
      </trkpt>
      <trkpt lat="45.76668" lon="6.50731">
        <ele>1658</ele>
        <time>2026-07-12T10:32:01Z</time>
      </trkpt>
      <trkpt lat="45.76664" lon="6.50731">
        <ele>1658.4</ele>
        <time>2026-07-12T10:32:02Z</time>
      </trkpt>
      <trkpt lat="45.76661" lon="6.50731">
        <ele>1659.4</ele>
        <time>2026-07-12T10:32:03Z</time>
      </trkpt>
      <trkpt lat="45.76657" lon="6.50731">
        <ele>1659.8</ele>
        <time>2026-07-12T10:32:04Z</time>
      </trkpt>
      <trkpt lat="45.76654" lon="6.50731">
        <ele>1659.8</ele>
        <time>2026-07-12T10:32:05Z</time>
      </trkpt>
      <trkpt lat="45.7665" lon="6.50731">
        <ele>1659.8</ele>
        <time>2026-07-12T10:32:06Z</time>
      </trkpt>
      <trkpt lat="45.76647" lon="6.50732">
        <ele>1659.8</ele>
        <time>2026-07-12T10:32:07Z</time>
      </trkpt>
      <trkpt lat="45.76644" lon="6.50732">
        <ele>1661.8</ele>
        <time>2026-07-12T10:32:08Z</time>
      </trkpt>
      <trkpt lat="45.7664" lon="6.50732">
        <ele>1661.8</ele>
        <time>2026-07-12T10:32:09Z</time>
      </trkpt>
      <trkpt lat="45.76637" lon="6.50731">
        <ele>1661.8</ele>
        <time>2026-07-12T10:32:10Z</time>
      </trkpt>
      <trkpt lat="45.76633" lon="6.5073">
        <ele>1661.8</ele>
        <time>2026-07-12T10:32:11Z</time>
      </trkpt>
      <trkpt lat="45.76629" lon="6.50729">
        <ele>1662.8</ele>
        <time>2026-07-12T10:32:12Z</time>
      </trkpt>
      <trkpt lat="45.76626" lon="6.50728">
        <ele>1663.8</ele>
        <time>2026-07-12T10:32:13Z</time>
      </trkpt>
      <trkpt lat="45.76623" lon="6.50727">
        <ele>1664.4</ele>
        <time>2026-07-12T10:32:14Z</time>
      </trkpt>
      <trkpt lat="45.76619" lon="6.50726">
        <ele>1664.4</ele>
        <time>2026-07-12T10:32:15Z</time>
      </trkpt>
      <trkpt lat="45.76616" lon="6.50725">
        <ele>1664.4</ele>
        <time>2026-07-12T10:32:16Z</time>
      </trkpt>
      <trkpt lat="45.76613" lon="6.50725">
        <ele>1664.4</ele>
        <time>2026-07-12T10:32:17Z</time>
      </trkpt>
      <trkpt lat="45.7661" lon="6.50726">
        <ele>1664.8</ele>
        <time>2026-07-12T10:32:18Z</time>
      </trkpt>
      <trkpt lat="45.76606" lon="6.50727">
        <ele>1665</ele>
        <time>2026-07-12T10:32:19Z</time>
      </trkpt>
      <trkpt lat="45.76603" lon="6.50728">
        <ele>1665.4</ele>
        <time>2026-07-12T10:32:20Z</time>
      </trkpt>
      <trkpt lat="45.766" lon="6.5073">
        <ele>1665.6</ele>
        <time>2026-07-12T10:32:21Z</time>
      </trkpt>
      <trkpt lat="45.76596" lon="6.50731">
        <ele>1667.2</ele>
        <time>2026-07-12T10:32:22Z</time>
      </trkpt>
      <trkpt lat="45.76593" lon="6.50733">
        <ele>1667.2</ele>
        <time>2026-07-12T10:32:23Z</time>
      </trkpt>
      <trkpt lat="45.7659" lon="6.50734">
        <ele>1667.2</ele>
        <time>2026-07-12T10:32:24Z</time>
      </trkpt>
      <trkpt lat="45.76586" lon="6.50735">
        <ele>1666.2</ele>
        <time>2026-07-12T10:32:25Z</time>
      </trkpt>
      <trkpt lat="45.76583" lon="6.50735">
        <ele>1666.2</ele>
        <time>2026-07-12T10:32:26Z</time>
      </trkpt>
      <trkpt lat="45.76579" lon="6.50736">
        <ele>1666.2</ele>
        <time>2026-07-12T10:32:27Z</time>
      </trkpt>
      <trkpt lat="45.76576" lon="6.50737">
        <ele>1667.2</ele>
        <time>2026-07-12T10:32:28Z</time>
      </trkpt>
      <trkpt lat="45.76572" lon="6.50738">
        <ele>1668.2</ele>
        <time>2026-07-12T10:32:29Z</time>
      </trkpt>
      <trkpt lat="45.76569" lon="6.50739">
        <ele>1668.8</ele>
        <time>2026-07-12T10:32:30Z</time>
      </trkpt>
      <trkpt lat="45.76565" lon="6.5074">
        <ele>1669.4</ele>
        <time>2026-07-12T10:32:31Z</time>
      </trkpt>
      <trkpt lat="45.76561" lon="6.50741">
        <ele>1670.8</ele>
        <time>2026-07-12T10:32:32Z</time>
      </trkpt>
      <trkpt lat="45.76558" lon="6.50742">
        <ele>1670.8</ele>
        <time>2026-07-12T10:32:33Z</time>
      </trkpt>
      <trkpt lat="45.76554" lon="6.50742">
        <ele>1670.8</ele>
        <time>2026-07-12T10:32:34Z</time>
      </trkpt>
      <trkpt lat="45.7655" lon="6.50742">
        <ele>1670.8</ele>
        <time>2026-07-12T10:32:35Z</time>
      </trkpt>
      <trkpt lat="45.76547" lon="6.50743">
        <ele>1670.8</ele>
        <time>2026-07-12T10:32:36Z</time>
      </trkpt>
      <trkpt lat="45.76543" lon="6.50743">
        <ele>1670.8</ele>
        <time>2026-07-12T10:32:37Z</time>
      </trkpt>
      <trkpt lat="45.7654" lon="6.50744">
        <ele>1671.8</ele>
        <time>2026-07-12T10:32:38Z</time>
      </trkpt>
      <trkpt lat="45.76536" lon="6.50745">
        <ele>1672.8</ele>
        <time>2026-07-12T10:32:39Z</time>
      </trkpt>
      <trkpt lat="45.76533" lon="6.50746">
        <ele>1672.8</ele>
        <time>2026-07-12T10:32:40Z</time>
      </trkpt>
      <trkpt lat="45.76529" lon="6.50746">
        <ele>1672.8</ele>
        <time>2026-07-12T10:32:41Z</time>
      </trkpt>
      <trkpt lat="45.76525" lon="6.50745">
        <ele>1672.8</ele>
        <time>2026-07-12T10:32:42Z</time>
      </trkpt>
      <trkpt lat="45.76522" lon="6.50745">
        <ele>1675.4</ele>
        <time>2026-07-12T10:32:43Z</time>
      </trkpt>
      <trkpt lat="45.76518" lon="6.50743">
        <ele>1675.4</ele>
        <time>2026-07-12T10:32:44Z</time>
      </trkpt>
      <trkpt lat="45.76514" lon="6.50742">
        <ele>1675.4</ele>
        <time>2026-07-12T10:32:45Z</time>
      </trkpt>
      <trkpt lat="45.76511" lon="6.5074">
        <ele>1674.4</ele>
        <time>2026-07-12T10:32:46Z</time>
      </trkpt>
      <trkpt lat="45.76508" lon="6.50739">
        <ele>1674.4</ele>
        <time>2026-07-12T10:32:47Z</time>
      </trkpt>
      <trkpt lat="45.76504" lon="6.50738">
        <ele>1677</ele>
        <time>2026-07-12T10:32:48Z</time>
      </trkpt>
      <trkpt lat="45.76501" lon="6.50737">
        <ele>1677</ele>
        <time>2026-07-12T10:32:49Z</time>
      </trkpt>
      <trkpt lat="45.76497" lon="6.50735">
        <ele>1677</ele>
        <time>2026-07-12T10:32:50Z</time>
      </trkpt>
      <trkpt lat="45.76494" lon="6.50734">
        <ele>1677</ele>
        <time>2026-07-12T10:32:51Z</time>
      </trkpt>
      <trkpt lat="45.7649" lon="6.50734">
        <ele>1678</ele>
        <time>2026-07-12T10:32:52Z</time>
      </trkpt>
      <trkpt lat="45.76487" lon="6.50734">
        <ele>1678</ele>
        <time>2026-07-12T10:32:53Z</time>
      </trkpt>
      <trkpt lat="45.76483" lon="6.50736">
        <ele>1678</ele>
        <time>2026-07-12T10:32:54Z</time>
      </trkpt>
      <trkpt lat="45.7648" lon="6.50737">
        <ele>1678</ele>
        <time>2026-07-12T10:32:55Z</time>
      </trkpt>
      <trkpt lat="45.76476" lon="6.50739">
        <ele>1678.8</ele>
        <time>2026-07-12T10:32:56Z</time>
      </trkpt>
      <trkpt lat="45.76473" lon="6.50741">
        <ele>1679.2</ele>
        <time>2026-07-12T10:32:57Z</time>
      </trkpt>
      <trkpt lat="45.7647" lon="6.50743">
        <ele>1680.2</ele>
        <time>2026-07-12T10:32:58Z</time>
      </trkpt>
      <trkpt lat="45.76467" lon="6.50746">
        <ele>1680.2</ele>
        <time>2026-07-12T10:32:59Z</time>
      </trkpt>
      <trkpt lat="45.76464" lon="6.50749">
        <ele>1680.2</ele>
        <time>2026-07-12T10:33:00Z</time>
      </trkpt>
      <trkpt lat="45.76462" lon="6.50752">
        <ele>1680.2</ele>
        <time>2026-07-12T10:33:01Z</time>
      </trkpt>
      <trkpt lat="45.76459" lon="6.50756">
        <ele>1681.4</ele>
        <time>2026-07-12T10:33:02Z</time>
      </trkpt>
      <trkpt lat="45.76457" lon="6.50759">
        <ele>1681.4</ele>
        <time>2026-07-12T10:33:03Z</time>
      </trkpt>
      <trkpt lat="45.76455" lon="6.50763">
        <ele>1681.4</ele>
        <time>2026-07-12T10:33:04Z</time>
      </trkpt>
      <trkpt lat="45.76454" lon="6.50767">
        <ele>1681.4</ele>
        <time>2026-07-12T10:33:05Z</time>
      </trkpt>
      <trkpt lat="45.76452" lon="6.50771">
        <ele>1681.4</ele>
        <time>2026-07-12T10:33:06Z</time>
      </trkpt>
      <trkpt lat="45.7645" lon="6.50775">
        <ele>1681.4</ele>
        <time>2026-07-12T10:33:07Z</time>
      </trkpt>
      <trkpt lat="45.76448" lon="6.50778">
        <ele>1683.2</ele>
        <time>2026-07-12T10:33:08Z</time>
      </trkpt>
      <trkpt lat="45.76445" lon="6.5078">
        <ele>1683.2</ele>
        <time>2026-07-12T10:33:09Z</time>
      </trkpt>
      <trkpt lat="45.76443" lon="6.50782">
        <ele>1684.2</ele>
        <time>2026-07-12T10:33:10Z</time>
      </trkpt>
      <trkpt lat="45.7644" lon="6.50784">
        <ele>1684.2</ele>
        <time>2026-07-12T10:33:11Z</time>
      </trkpt>
      <trkpt lat="45.76438" lon="6.50787">
        <ele>1684.2</ele>
        <time>2026-07-12T10:33:12Z</time>
      </trkpt>
      <trkpt lat="45.76435" lon="6.5079">
        <ele>1683.6</ele>
        <time>2026-07-12T10:33:13Z</time>
      </trkpt>
      <trkpt lat="45.76432" lon="6.50792">
        <ele>1683.6</ele>
        <time>2026-07-12T10:33:14Z</time>
      </trkpt>
      <trkpt lat="45.76429" lon="6.50793">
        <ele>1683.6</ele>
        <time>2026-07-12T10:33:15Z</time>
      </trkpt>
      <trkpt lat="45.76426" lon="6.50794">
        <ele>1684</ele>
        <time>2026-07-12T10:33:16Z</time>
      </trkpt>
      <trkpt lat="45.76424" lon="6.50796">
        <ele>1684.2</ele>
        <time>2026-07-12T10:33:17Z</time>
      </trkpt>
      <trkpt lat="45.76422" lon="6.50797">
        <ele>1684.2</ele>
        <time>2026-07-12T10:33:18Z</time>
      </trkpt>
      <trkpt lat="45.7642" lon="6.50798">
        <ele>1684.6</ele>
        <time>2026-07-12T10:33:19Z</time>
      </trkpt>
      <trkpt lat="45.76418" lon="6.50799">
        <ele>1684.6</ele>
        <time>2026-07-12T10:33:20Z</time>
      </trkpt>
      <trkpt lat="45.76416" lon="6.508">
        <ele>1684.6</ele>
        <time>2026-07-12T10:33:21Z</time>
      </trkpt>
      <trkpt lat="45.76415" lon="6.50801">
        <ele>1684.6</ele>
        <time>2026-07-12T10:33:22Z</time>
      </trkpt>
      <trkpt lat="45.76413" lon="6.50802">
        <ele>1685.2</ele>
        <time>2026-07-12T10:33:23Z</time>
      </trkpt>
      <trkpt lat="45.76412" lon="6.50803">
        <ele>1685.2</ele>
        <time>2026-07-12T10:33:24Z</time>
      </trkpt>
      <trkpt lat="45.7641" lon="6.50803">
        <ele>1685.2</ele>
        <time>2026-07-12T10:33:25Z</time>
      </trkpt>
      <trkpt lat="45.76409" lon="6.50804">
        <ele>1685.2</ele>
        <time>2026-07-12T10:33:26Z</time>
      </trkpt>
      <trkpt lat="45.76407" lon="6.50805">
        <ele>1685.2</ele>
        <time>2026-07-12T10:33:27Z</time>
      </trkpt>
      <trkpt lat="45.76406" lon="6.50806">
        <ele>1685.2</ele>
        <time>2026-07-12T10:33:28Z</time>
      </trkpt>
      <trkpt lat="45.76405" lon="6.50808">
        <ele>1685.2</ele>
        <time>2026-07-12T10:33:29Z</time>
      </trkpt>
      <trkpt lat="45.76404" lon="6.50808">
        <ele>1685.2</ele>
        <time>2026-07-12T10:33:30Z</time>
      </trkpt>
      <trkpt lat="45.76403" lon="6.50807">
        <ele>1685</ele>
        <time>2026-07-12T10:33:31Z</time>
      </trkpt>
      <trkpt lat="45.76404" lon="6.50804">
        <ele>1684.6</ele>
        <time>2026-07-12T10:33:32Z</time>
      </trkpt>
      <trkpt lat="45.76405" lon="6.50803">
        <ele>1684</ele>
        <time>2026-07-12T10:33:33Z</time>
      </trkpt>
      <trkpt lat="45.76407" lon="6.50802">
        <ele>1684</ele>
        <time>2026-07-12T10:33:34Z</time>
      </trkpt>
      <trkpt lat="45.76409" lon="6.50801">
        <ele>1684</ele>
        <time>2026-07-12T10:33:35Z</time>
      </trkpt>
      <trkpt lat="45.76411" lon="6.50799">
        <ele>1684</ele>
        <time>2026-07-12T10:33:36Z</time>
      </trkpt>
      <trkpt lat="45.76415" lon="6.50797">
        <ele>1684</ele>
        <time>2026-07-12T10:33:37Z</time>
      </trkpt>
      <trkpt lat="45.76418" lon="6.50796">
        <ele>1684</ele>
        <time>2026-07-12T10:33:38Z</time>
      </trkpt>
      <trkpt lat="45.76421" lon="6.50794">
        <ele>1683</ele>
        <time>2026-07-12T10:33:39Z</time>
      </trkpt>
      <trkpt lat="45.76425" lon="6.50792">
        <ele>1682.2</ele>
        <time>2026-07-12T10:33:40Z</time>
      </trkpt>
      <trkpt lat="45.76428" lon="6.5079">
        <ele>1681.8</ele>
        <time>2026-07-12T10:33:41Z</time>
      </trkpt>
      <trkpt lat="45.76432" lon="6.50789">
        <ele>1681.8</ele>
        <time>2026-07-12T10:33:42Z</time>
      </trkpt>
      <trkpt lat="45.76435" lon="6.50787">
        <ele>1681.8</ele>
        <time>2026-07-12T10:33:43Z</time>
      </trkpt>
      <trkpt lat="45.76437" lon="6.50785">
        <ele>1681.8</ele>
        <time>2026-07-12T10:33:44Z</time>
      </trkpt>
      <trkpt lat="45.76439" lon="6.50783">
        <ele>1681.8</ele>
        <time>2026-07-12T10:33:45Z</time>
      </trkpt>
      <trkpt lat="45.76441" lon="6.50781">
        <ele>1682.2</ele>
        <time>2026-07-12T10:33:46Z</time>
      </trkpt>
      <trkpt lat="45.76443" lon="6.5078">
        <ele>1683</ele>
        <time>2026-07-12T10:33:47Z</time>
      </trkpt>
      <trkpt lat="45.76445" lon="6.5078">
        <ele>1683</ele>
        <time>2026-07-12T10:33:48Z</time>
      </trkpt>
      <trkpt lat="45.76446" lon="6.50781">
        <ele>1683</ele>
        <time>2026-07-12T10:33:49Z</time>
      </trkpt>
      <trkpt lat="45.76448" lon="6.50783">
        <ele>1683</ele>
        <time>2026-07-12T10:33:50Z</time>
      </trkpt>
      <trkpt lat="45.76448" lon="6.50786">
        <ele>1684</ele>
        <time>2026-07-12T10:33:51Z</time>
      </trkpt>
      <trkpt lat="45.76449" lon="6.5079">
        <ele>1685</ele>
        <time>2026-07-12T10:33:52Z</time>
      </trkpt>
      <trkpt lat="45.76449" lon="6.50794">
        <ele>1685</ele>
        <time>2026-07-12T10:33:53Z</time>
      </trkpt>
      <trkpt lat="45.7645" lon="6.50798">
        <ele>1685</ele>
        <time>2026-07-12T10:33:54Z</time>
      </trkpt>
      <trkpt lat="45.76451" lon="6.50802">
        <ele>1685</ele>
        <time>2026-07-12T10:33:55Z</time>
      </trkpt>
      <trkpt lat="45.76452" lon="6.50806">
        <ele>1685</ele>
        <time>2026-07-12T10:33:56Z</time>
      </trkpt>
      <trkpt lat="45.76453" lon="6.5081">
        <ele>1685.6</ele>
        <time>2026-07-12T10:33:57Z</time>
      </trkpt>
      <trkpt lat="45.76454" lon="6.50814">
        <ele>1686.6</ele>
        <time>2026-07-12T10:33:58Z</time>
      </trkpt>
      <trkpt lat="45.76456" lon="6.50817">
        <ele>1688.8</ele>
        <time>2026-07-12T10:33:59Z</time>
      </trkpt>
      <trkpt lat="45.76457" lon="6.50822">
        <ele>1689.2</ele>
        <time>2026-07-12T10:34:00Z</time>
      </trkpt>
      <trkpt lat="45.76459" lon="6.50826">
        <ele>1689.2</ele>
        <time>2026-07-12T10:34:01Z</time>
      </trkpt>
      <trkpt lat="45.7646" lon="6.5083">
        <ele>1689.2</ele>
        <time>2026-07-12T10:34:02Z</time>
      </trkpt>
      <trkpt lat="45.76461" lon="6.50834">
        <ele>1689.2</ele>
        <time>2026-07-12T10:34:03Z</time>
      </trkpt>
      <trkpt lat="45.76462" lon="6.50838">
        <ele>1689.2</ele>
        <time>2026-07-12T10:34:04Z</time>
      </trkpt>
      <trkpt lat="45.76464" lon="6.50843">
        <ele>1688.4</ele>
        <time>2026-07-12T10:34:05Z</time>
      </trkpt>
      <trkpt lat="45.76465" lon="6.50846">
        <ele>1690.2</ele>
        <time>2026-07-12T10:34:06Z</time>
      </trkpt>
      <trkpt lat="45.76466" lon="6.50851">
        <ele>1690.6</ele>
        <time>2026-07-12T10:34:07Z</time>
      </trkpt>
      <trkpt lat="45.76468" lon="6.50855">
        <ele>1690.6</ele>
        <time>2026-07-12T10:34:08Z</time>
      </trkpt>
      <trkpt lat="45.76469" lon="6.5086">
        <ele>1690.6</ele>
        <time>2026-07-12T10:34:09Z</time>
      </trkpt>
      <trkpt lat="45.7647" lon="6.50865">
        <ele>1690.6</ele>
        <time>2026-07-12T10:34:10Z</time>
      </trkpt>
      <trkpt lat="45.76471" lon="6.50869">
        <ele>1691.8</ele>
        <time>2026-07-12T10:34:11Z</time>
      </trkpt>
      <trkpt lat="45.76473" lon="6.50874">
        <ele>1692.2</ele>
        <time>2026-07-12T10:34:12Z</time>
      </trkpt>
      <trkpt lat="45.76474" lon="6.50878">
        <ele>1692.4</ele>
        <time>2026-07-12T10:34:13Z</time>
      </trkpt>
      <trkpt lat="45.76476" lon="6.50882">
        <ele>1692.4</ele>
        <time>2026-07-12T10:34:14Z</time>
      </trkpt>
      <trkpt lat="45.76477" lon="6.50886">
        <ele>1692.4</ele>
        <time>2026-07-12T10:34:15Z</time>
      </trkpt>
      <trkpt lat="45.76479" lon="6.5089">
        <ele>1692.4</ele>
        <time>2026-07-12T10:34:16Z</time>
      </trkpt>
      <trkpt lat="45.7648" lon="6.50894">
        <ele>1693.4</ele>
        <time>2026-07-12T10:34:17Z</time>
      </trkpt>
      <trkpt lat="45.76482" lon="6.50898">
        <ele>1694.4</ele>
        <time>2026-07-12T10:34:18Z</time>
      </trkpt>
      <trkpt lat="45.76484" lon="6.50902">
        <ele>1694.4</ele>
        <time>2026-07-12T10:34:19Z</time>
      </trkpt>
      <trkpt lat="45.76485" lon="6.50905">
        <ele>1694.4</ele>
        <time>2026-07-12T10:34:20Z</time>
      </trkpt>
      <trkpt lat="45.76487" lon="6.50909">
        <ele>1693.8</ele>
        <time>2026-07-12T10:34:21Z</time>
      </trkpt>
      <trkpt lat="45.76489" lon="6.50913">
        <ele>1693.8</ele>
        <time>2026-07-12T10:34:22Z</time>
      </trkpt>
      <trkpt lat="45.7649" lon="6.50917">
        <ele>1693.8</ele>
        <time>2026-07-12T10:34:23Z</time>
      </trkpt>
      <trkpt lat="45.76492" lon="6.50921">
        <ele>1697</ele>
        <time>2026-07-12T10:34:24Z</time>
      </trkpt>
      <trkpt lat="45.76494" lon="6.50924">
        <ele>1697.4</ele>
        <time>2026-07-12T10:34:25Z</time>
      </trkpt>
      <trkpt lat="45.76495" lon="6.50928">
        <ele>1697.4</ele>
        <time>2026-07-12T10:34:26Z</time>
      </trkpt>
      <trkpt lat="45.76497" lon="6.50932">
        <ele>1697.4</ele>
        <time>2026-07-12T10:34:27Z</time>
      </trkpt>
      <trkpt lat="45.76499" lon="6.50936">
        <ele>1697.4</ele>
        <time>2026-07-12T10:34:28Z</time>
      </trkpt>
      <trkpt lat="45.765" lon="6.5094">
        <ele>1697.4</ele>
        <time>2026-07-12T10:34:29Z</time>
      </trkpt>
      <trkpt lat="45.76502" lon="6.50944">
        <ele>1697.4</ele>
        <time>2026-07-12T10:34:30Z</time>
      </trkpt>
      <trkpt lat="45.76504" lon="6.50947">
        <ele>1697.4</ele>
        <time>2026-07-12T10:34:31Z</time>
      </trkpt>
      <trkpt lat="45.76505" lon="6.50951">
        <ele>1698.2</ele>
        <time>2026-07-12T10:34:32Z</time>
      </trkpt>
      <trkpt lat="45.76507" lon="6.50955">
        <ele>1699</ele>
        <time>2026-07-12T10:34:33Z</time>
      </trkpt>
      <trkpt lat="45.76508" lon="6.5096">
        <ele>1699</ele>
        <time>2026-07-12T10:34:34Z</time>
      </trkpt>
      <trkpt lat="45.76509" lon="6.50964">
        <ele>1699</ele>
        <time>2026-07-12T10:34:35Z</time>
      </trkpt>
      <trkpt lat="45.7651" lon="6.50968">
        <ele>1700.4</ele>
        <time>2026-07-12T10:34:36Z</time>
      </trkpt>
      <trkpt lat="45.76511" lon="6.50973">
        <ele>1700.4</ele>
        <time>2026-07-12T10:34:37Z</time>
      </trkpt>
      <trkpt lat="45.76512" lon="6.50977">
        <ele>1700.4</ele>
        <time>2026-07-12T10:34:38Z</time>
      </trkpt>
      <trkpt lat="45.76512" lon="6.50981">
        <ele>1699.8</ele>
        <time>2026-07-12T10:34:39Z</time>
      </trkpt>
      <trkpt lat="45.76512" lon="6.50985">
        <ele>1700.2</ele>
        <time>2026-07-12T10:34:40Z</time>
      </trkpt>
      <trkpt lat="45.76511" lon="6.50989">
        <ele>1701.2</ele>
        <time>2026-07-12T10:34:41Z</time>
      </trkpt>
      <trkpt lat="45.76509" lon="6.50993">
        <ele>1701.2</ele>
        <time>2026-07-12T10:34:42Z</time>
      </trkpt>
      <trkpt lat="45.76508" lon="6.50997">
        <ele>1702.2</ele>
        <time>2026-07-12T10:34:43Z</time>
      </trkpt>
      <trkpt lat="45.76506" lon="6.51001">
        <ele>1702.2</ele>
        <time>2026-07-12T10:34:44Z</time>
      </trkpt>
      <trkpt lat="45.76504" lon="6.51004">
        <ele>1702.2</ele>
        <time>2026-07-12T10:34:45Z</time>
      </trkpt>
      <trkpt lat="45.76501" lon="6.51007">
        <ele>1702.2</ele>
        <time>2026-07-12T10:34:46Z</time>
      </trkpt>
      <trkpt lat="45.76499" lon="6.51011">
        <ele>1703.2</ele>
        <time>2026-07-12T10:34:47Z</time>
      </trkpt>
      <trkpt lat="45.76497" lon="6.51014">
        <ele>1703.2</ele>
        <time>2026-07-12T10:34:48Z</time>
      </trkpt>
      <trkpt lat="45.76495" lon="6.51018">
        <ele>1703.2</ele>
        <time>2026-07-12T10:34:49Z</time>
      </trkpt>
      <trkpt lat="45.76493" lon="6.5102">
        <ele>1703.2</ele>
        <time>2026-07-12T10:34:50Z</time>
      </trkpt>
      <trkpt lat="45.7649" lon="6.51022">
        <ele>1703.8</ele>
        <time>2026-07-12T10:34:51Z</time>
      </trkpt>
      <trkpt lat="45.76487" lon="6.51025">
        <ele>1704</ele>
        <time>2026-07-12T10:34:52Z</time>
      </trkpt>
      <trkpt lat="45.76485" lon="6.51026">
        <ele>1704.4</ele>
        <time>2026-07-12T10:34:53Z</time>
      </trkpt>
      <trkpt lat="45.76482" lon="6.51028">
        <ele>1705.4</ele>
        <time>2026-07-12T10:34:54Z</time>
      </trkpt>
      <trkpt lat="45.76479" lon="6.5103">
        <ele>1705.4</ele>
        <time>2026-07-12T10:34:55Z</time>
      </trkpt>
      <trkpt lat="45.76477" lon="6.51031">
        <ele>1705.4</ele>
        <time>2026-07-12T10:34:56Z</time>
      </trkpt>
      <trkpt lat="45.76475" lon="6.51031">
        <ele>1704.4</ele>
        <time>2026-07-12T10:34:57Z</time>
      </trkpt>
      <trkpt lat="45.76472" lon="6.51032">
        <ele>1704.4</ele>
        <time>2026-07-12T10:34:58Z</time>
      </trkpt>
      <trkpt lat="45.76469" lon="6.51032">
        <ele>1704.4</ele>
        <time>2026-07-12T10:34:59Z</time>
      </trkpt>
      <trkpt lat="45.76467" lon="6.51032">
        <ele>1705.6</ele>
        <time>2026-07-12T10:35:00Z</time>
      </trkpt>
      <trkpt lat="45.76464" lon="6.51034">
        <ele>1705.6</ele>
        <time>2026-07-12T10:35:01Z</time>
      </trkpt>
      <trkpt lat="45.76461" lon="6.51034">
        <ele>1705.6</ele>
        <time>2026-07-12T10:35:02Z</time>
      </trkpt>
      <trkpt lat="45.76458" lon="6.51035">
        <ele>1705.4</ele>
        <time>2026-07-12T10:35:03Z</time>
      </trkpt>
      <trkpt lat="45.76456" lon="6.51035">
        <ele>1705.2</ele>
        <time>2026-07-12T10:35:04Z</time>
      </trkpt>
      <trkpt lat="45.76453" lon="6.51035">
        <ele>1705.2</ele>
        <time>2026-07-12T10:35:05Z</time>
      </trkpt>
      <trkpt lat="45.7645" lon="6.51036">
        <ele>1705.2</ele>
        <time>2026-07-12T10:35:06Z</time>
      </trkpt>
      <trkpt lat="45.76447" lon="6.51035">
        <ele>1705.2</ele>
        <time>2026-07-12T10:35:07Z</time>
      </trkpt>
      <trkpt lat="45.76444" lon="6.51035">
        <ele>1705.2</ele>
        <time>2026-07-12T10:35:08Z</time>
      </trkpt>
      <trkpt lat="45.76442" lon="6.51036">
        <ele>1705.2</ele>
        <time>2026-07-12T10:35:09Z</time>
      </trkpt>
      <trkpt lat="45.76439" lon="6.51036">
        <ele>1705.2</ele>
        <time>2026-07-12T10:35:10Z</time>
      </trkpt>
      <trkpt lat="45.76436" lon="6.51037">
        <ele>1705.2</ele>
        <time>2026-07-12T10:35:11Z</time>
      </trkpt>
      <trkpt lat="45.76433" lon="6.51037">
        <ele>1704.4</ele>
        <time>2026-07-12T10:35:12Z</time>
      </trkpt>
      <trkpt lat="45.7643" lon="6.51037">
        <ele>1704.4</ele>
        <time>2026-07-12T10:35:13Z</time>
      </trkpt>
      <trkpt lat="45.76428" lon="6.51037">
        <ele>1704.4</ele>
        <time>2026-07-12T10:35:14Z</time>
      </trkpt>
      <trkpt lat="45.76426" lon="6.51037">
        <ele>1705.4</ele>
        <time>2026-07-12T10:35:15Z</time>
      </trkpt>
      <trkpt lat="45.76423" lon="6.51037">
        <ele>1705.4</ele>
        <time>2026-07-12T10:35:16Z</time>
      </trkpt>
      <trkpt lat="45.76421" lon="6.51037">
        <ele>1705.4</ele>
        <time>2026-07-12T10:35:17Z</time>
      </trkpt>
      <trkpt lat="45.76418" lon="6.51037">
        <ele>1705.4</ele>
        <time>2026-07-12T10:35:18Z</time>
      </trkpt>
      <trkpt lat="45.76415" lon="6.51037">
        <ele>1705.4</ele>
        <time>2026-07-12T10:35:19Z</time>
      </trkpt>
      <trkpt lat="45.76412" lon="6.51037">
        <ele>1705.4</ele>
        <time>2026-07-12T10:35:20Z</time>
      </trkpt>
      <trkpt lat="45.76409" lon="6.51038">
        <ele>1705.2</ele>
        <time>2026-07-12T10:35:21Z</time>
      </trkpt>
      <trkpt lat="45.76407" lon="6.51039">
        <ele>1705</ele>
        <time>2026-07-12T10:35:22Z</time>
      </trkpt>
      <trkpt lat="45.76404" lon="6.5104">
        <ele>1704.6</ele>
        <time>2026-07-12T10:35:23Z</time>
      </trkpt>
      <trkpt lat="45.76401" lon="6.51041">
        <ele>1704.6</ele>
        <time>2026-07-12T10:35:24Z</time>
      </trkpt>
      <trkpt lat="45.76399" lon="6.51043">
        <ele>1704.6</ele>
        <time>2026-07-12T10:35:25Z</time>
      </trkpt>
      <trkpt lat="45.76396" lon="6.51044">
        <ele>1704.6</ele>
        <time>2026-07-12T10:35:26Z</time>
      </trkpt>
      <trkpt lat="45.76394" lon="6.51046">
        <ele>1704.6</ele>
        <time>2026-07-12T10:35:27Z</time>
      </trkpt>
      <trkpt lat="45.76392" lon="6.51047">
        <ele>1704.8</ele>
        <time>2026-07-12T10:35:28Z</time>
      </trkpt>
      <trkpt lat="45.7639" lon="6.51047">
        <ele>1705.2</ele>
        <time>2026-07-12T10:35:29Z</time>
      </trkpt>
      <trkpt lat="45.76388" lon="6.51047">
        <ele>1705.2</ele>
        <time>2026-07-12T10:35:30Z</time>
      </trkpt>
      <trkpt lat="45.76386" lon="6.51047">
        <ele>1705.2</ele>
        <time>2026-07-12T10:35:31Z</time>
      </trkpt>
      <trkpt lat="45.76384" lon="6.51049">
        <ele>1704.4</ele>
        <time>2026-07-12T10:35:32Z</time>
      </trkpt>
      <trkpt lat="45.76382" lon="6.5105">
        <ele>1704.2</ele>
        <time>2026-07-12T10:35:33Z</time>
      </trkpt>
      <trkpt lat="45.76381" lon="6.5105">
        <ele>1704.2</ele>
        <time>2026-07-12T10:35:34Z</time>
      </trkpt>
      <trkpt lat="45.7638" lon="6.51052">
        <ele>1704.2</ele>
        <time>2026-07-12T10:35:35Z</time>
      </trkpt>
      <trkpt lat="45.76378" lon="6.51052">
        <ele>1704.4</ele>
        <time>2026-07-12T10:35:36Z</time>
      </trkpt>
      <trkpt lat="45.76377" lon="6.51054">
        <ele>1704.6</ele>
        <time>2026-07-12T10:35:37Z</time>
      </trkpt>
      <trkpt lat="45.76375" lon="6.51054">
        <ele>1704.6</ele>
        <time>2026-07-12T10:35:38Z</time>
      </trkpt>
      <trkpt lat="45.76373" lon="6.51054">
        <ele>1704.6</ele>
        <time>2026-07-12T10:35:39Z</time>
      </trkpt>
      <trkpt lat="45.76372" lon="6.51054">
        <ele>1704.6</ele>
        <time>2026-07-12T10:35:40Z</time>
      </trkpt>
      <trkpt lat="45.76371" lon="6.51053">
        <ele>1704.6</ele>
        <time>2026-07-12T10:35:41Z</time>
      </trkpt>
      <trkpt lat="45.76369" lon="6.51053">
        <ele>1704.6</ele>
        <time>2026-07-12T10:35:42Z</time>
      </trkpt>
      <trkpt lat="45.76368" lon="6.51054">
        <ele>1704</ele>
        <time>2026-07-12T10:35:43Z</time>
      </trkpt>
      <trkpt lat="45.76366" lon="6.51056">
        <ele>1704</ele>
        <time>2026-07-12T10:35:44Z</time>
      </trkpt>
      <trkpt lat="45.76364" lon="6.51057">
        <ele>1704</ele>
        <time>2026-07-12T10:35:45Z</time>
      </trkpt>
      <trkpt lat="45.76362" lon="6.51058">
        <ele>1704</ele>
        <time>2026-07-12T10:35:46Z</time>
      </trkpt>
      <trkpt lat="45.7636" lon="6.51058">
        <ele>1704</ele>
        <time>2026-07-12T10:35:47Z</time>
      </trkpt>
      <trkpt lat="45.76358" lon="6.51059">
        <ele>1703.8</ele>
        <time>2026-07-12T10:35:48Z</time>
      </trkpt>
      <trkpt lat="45.76356" lon="6.51059">
        <ele>1704.6</ele>
        <time>2026-07-12T10:35:49Z</time>
      </trkpt>
      <trkpt lat="45.76354" lon="6.51059">
        <ele>1704.6</ele>
        <time>2026-07-12T10:35:50Z</time>
      </trkpt>
      <trkpt lat="45.76351" lon="6.51058">
        <ele>1704.6</ele>
        <time>2026-07-12T10:35:51Z</time>
      </trkpt>
      <trkpt lat="45.76348" lon="6.51058">
        <ele>1704.6</ele>
        <time>2026-07-12T10:35:52Z</time>
      </trkpt>
      <trkpt lat="45.76345" lon="6.51057">
        <ele>1704.6</ele>
        <time>2026-07-12T10:35:53Z</time>
      </trkpt>
      <trkpt lat="45.76343" lon="6.51055">
        <ele>1704.6</ele>
        <time>2026-07-12T10:35:54Z</time>
      </trkpt>
      <trkpt lat="45.76341" lon="6.51054">
        <ele>1704.6</ele>
        <time>2026-07-12T10:35:55Z</time>
      </trkpt>
      <trkpt lat="45.76339" lon="6.51052">
        <ele>1703.6</ele>
        <time>2026-07-12T10:35:56Z</time>
      </trkpt>
      <trkpt lat="45.76337" lon="6.5105">
        <ele>1703.6</ele>
        <time>2026-07-12T10:35:57Z</time>
      </trkpt>
      <trkpt lat="45.76335" lon="6.51048">
        <ele>1703.6</ele>
        <time>2026-07-12T10:35:58Z</time>
      </trkpt>
      <trkpt lat="45.76333" lon="6.51046">
        <ele>1704.6</ele>
        <time>2026-07-12T10:35:59Z</time>
      </trkpt>
      <trkpt lat="45.76331" lon="6.51044">
        <ele>1704.6</ele>
        <time>2026-07-12T10:36:00Z</time>
      </trkpt>
      <trkpt lat="45.76329" lon="6.51042">
        <ele>1704.6</ele>
        <time>2026-07-12T10:36:01Z</time>
      </trkpt>
      <trkpt lat="45.76327" lon="6.5104">
        <ele>1704.6</ele>
        <time>2026-07-12T10:36:02Z</time>
      </trkpt>
      <trkpt lat="45.76325" lon="6.51038">
        <ele>1704.6</ele>
        <time>2026-07-12T10:36:03Z</time>
      </trkpt>
      <trkpt lat="45.76323" lon="6.51036">
        <ele>1704.6</ele>
        <time>2026-07-12T10:36:04Z</time>
      </trkpt>
      <trkpt lat="45.76321" lon="6.51035">
        <ele>1704</ele>
        <time>2026-07-12T10:36:05Z</time>
      </trkpt>
      <trkpt lat="45.76319" lon="6.51034">
        <ele>1704</ele>
        <time>2026-07-12T10:36:06Z</time>
      </trkpt>
      <trkpt lat="45.76317" lon="6.51033">
        <ele>1704</ele>
        <time>2026-07-12T10:36:07Z</time>
      </trkpt>
      <trkpt lat="45.76315" lon="6.51032">
        <ele>1704.4</ele>
        <time>2026-07-12T10:36:08Z</time>
      </trkpt>
      <trkpt lat="45.76313" lon="6.51031">
        <ele>1704.4</ele>
        <time>2026-07-12T10:36:09Z</time>
      </trkpt>
      <trkpt lat="45.76311" lon="6.5103">
        <ele>1704.4</ele>
        <time>2026-07-12T10:36:10Z</time>
      </trkpt>
      <trkpt lat="45.7631" lon="6.51029">
        <ele>1704.4</ele>
        <time>2026-07-12T10:36:11Z</time>
      </trkpt>
      <trkpt lat="45.76308" lon="6.51028">
        <ele>1705.2</ele>
        <time>2026-07-12T10:36:12Z</time>
      </trkpt>
      <trkpt lat="45.76306" lon="6.51028">
        <ele>1705.2</ele>
        <time>2026-07-12T10:36:13Z</time>
      </trkpt>
      <trkpt lat="45.76304" lon="6.51028">
        <ele>1705.2</ele>
        <time>2026-07-12T10:36:14Z</time>
      </trkpt>
      <trkpt lat="45.76302" lon="6.51027">
        <ele>1705.2</ele>
        <time>2026-07-12T10:36:15Z</time>
      </trkpt>
      <trkpt lat="45.763" lon="6.51027">
        <ele>1704.8</ele>
        <time>2026-07-12T10:36:16Z</time>
      </trkpt>
      <trkpt lat="45.76299" lon="6.51026">
        <ele>1704.8</ele>
        <time>2026-07-12T10:36:17Z</time>
      </trkpt>
      <trkpt lat="45.76297" lon="6.51026">
        <ele>1704.8</ele>
        <time>2026-07-12T10:36:18Z</time>
      </trkpt>
      <trkpt lat="45.76295" lon="6.51026">
        <ele>1705.6</ele>
        <time>2026-07-12T10:36:19Z</time>
      </trkpt>
      <trkpt lat="45.76293" lon="6.51026">
        <ele>1705.6</ele>
        <time>2026-07-12T10:36:20Z</time>
      </trkpt>
      <trkpt lat="45.76291" lon="6.51025">
        <ele>1705.6</ele>
        <time>2026-07-12T10:36:21Z</time>
      </trkpt>
      <trkpt lat="45.7629" lon="6.51024">
        <ele>1705.6</ele>
        <time>2026-07-12T10:36:22Z</time>
      </trkpt>
      <trkpt lat="45.76288" lon="6.51024">
        <ele>1705.6</ele>
        <time>2026-07-12T10:36:23Z</time>
      </trkpt>
      <trkpt lat="45.76287" lon="6.51024">
        <ele>1705.2</ele>
        <time>2026-07-12T10:36:24Z</time>
      </trkpt>
      <trkpt lat="45.76285" lon="6.51024">
        <ele>1705.2</ele>
        <time>2026-07-12T10:36:25Z</time>
      </trkpt>
      <trkpt lat="45.76283" lon="6.51023">
        <ele>1705.2</ele>
        <time>2026-07-12T10:36:26Z</time>
      </trkpt>
      <trkpt lat="45.76281" lon="6.51023">
        <ele>1705.2</ele>
        <time>2026-07-12T10:36:27Z</time>
      </trkpt>
      <trkpt lat="45.7628" lon="6.51022">
        <ele>1705.2</ele>
        <time>2026-07-12T10:36:28Z</time>
      </trkpt>
      <trkpt lat="45.76278" lon="6.51022">
        <ele>1705.4</ele>
        <time>2026-07-12T10:36:29Z</time>
      </trkpt>
      <trkpt lat="45.76277" lon="6.51021">
        <ele>1705.6</ele>
        <time>2026-07-12T10:36:30Z</time>
      </trkpt>
      <trkpt lat="45.76275" lon="6.5102">
        <ele>1705.6</ele>
        <time>2026-07-12T10:36:31Z</time>
      </trkpt>
      <trkpt lat="45.76274" lon="6.5102">
        <ele>1705.6</ele>
        <time>2026-07-12T10:36:32Z</time>
      </trkpt>
      <trkpt lat="45.76272" lon="6.51019">
        <ele>1705</ele>
        <time>2026-07-12T10:36:33Z</time>
      </trkpt>
      <trkpt lat="45.76271" lon="6.51018">
        <ele>1705</ele>
        <time>2026-07-12T10:36:34Z</time>
      </trkpt>
      <trkpt lat="45.76269" lon="6.51018">
        <ele>1705</ele>
        <time>2026-07-12T10:36:35Z</time>
      </trkpt>
      <trkpt lat="45.76268" lon="6.51017">
        <ele>1706</ele>
        <time>2026-07-12T10:36:36Z</time>
      </trkpt>
      <trkpt lat="45.76266" lon="6.51017">
        <ele>1706</ele>
        <time>2026-07-12T10:36:37Z</time>
      </trkpt>
      <trkpt lat="45.76265" lon="6.51017">
        <ele>1706</ele>
        <time>2026-07-12T10:36:38Z</time>
      </trkpt>
      <trkpt lat="45.76264" lon="6.51016">
        <ele>1705.4</ele>
        <time>2026-07-12T10:36:39Z</time>
      </trkpt>
      <trkpt lat="45.76262" lon="6.51016">
        <ele>1705.4</ele>
        <time>2026-07-12T10:36:40Z</time>
      </trkpt>
      <trkpt lat="45.7626" lon="6.51016">
        <ele>1705.4</ele>
        <time>2026-07-12T10:36:41Z</time>
      </trkpt>
      <trkpt lat="45.76258" lon="6.51015">
        <ele>1705.4</ele>
        <time>2026-07-12T10:36:42Z</time>
      </trkpt>
      <trkpt lat="45.76257" lon="6.51014">
        <ele>1705.4</ele>
        <time>2026-07-12T10:36:43Z</time>
      </trkpt>
      <trkpt lat="45.76255" lon="6.51013">
        <ele>1705.4</ele>
        <time>2026-07-12T10:36:44Z</time>
      </trkpt>
      <trkpt lat="45.76254" lon="6.51012">
        <ele>1705.4</ele>
        <time>2026-07-12T10:36:45Z</time>
      </trkpt>
      <trkpt lat="45.76253" lon="6.51012">
        <ele>1705.8</ele>
        <time>2026-07-12T10:36:46Z</time>
      </trkpt>
      <trkpt lat="45.76252" lon="6.51011">
        <ele>1706.4</ele>
        <time>2026-07-12T10:36:47Z</time>
      </trkpt>
      <trkpt lat="45.7625" lon="6.51011">
        <ele>1706.4</ele>
        <time>2026-07-12T10:36:48Z</time>
      </trkpt>
      <trkpt lat="45.76249" lon="6.5101">
        <ele>1706.4</ele>
        <time>2026-07-12T10:36:49Z</time>
      </trkpt>
      <trkpt lat="45.76247" lon="6.5101">
        <ele>1706.2</ele>
        <time>2026-07-12T10:36:50Z</time>
      </trkpt>
      <trkpt lat="45.76246" lon="6.51009">
        <ele>1705.8</ele>
        <time>2026-07-12T10:36:51Z</time>
      </trkpt>
      <trkpt lat="45.76244" lon="6.51008">
        <ele>1705.8</ele>
        <time>2026-07-12T10:36:52Z</time>
      </trkpt>
      <trkpt lat="45.76243" lon="6.51007">
        <ele>1705.8</ele>
        <time>2026-07-12T10:36:53Z</time>
      </trkpt>
      <trkpt lat="45.76241" lon="6.51006">
        <ele>1706.8</ele>
        <time>2026-07-12T10:36:54Z</time>
      </trkpt>
      <trkpt lat="45.76239" lon="6.51005">
        <ele>1706.8</ele>
        <time>2026-07-12T10:36:55Z</time>
      </trkpt>
      <trkpt lat="45.76238" lon="6.51005">
        <ele>1706.8</ele>
        <time>2026-07-12T10:36:56Z</time>
      </trkpt>
      <trkpt lat="45.76236" lon="6.51004">
        <ele>1706.8</ele>
        <time>2026-07-12T10:36:57Z</time>
      </trkpt>
      <trkpt lat="45.76235" lon="6.51003">
        <ele>1706.2</ele>
        <time>2026-07-12T10:36:58Z</time>
      </trkpt>
      <trkpt lat="45.76233" lon="6.51002">
        <ele>1706</ele>
        <time>2026-07-12T10:36:59Z</time>
      </trkpt>
      <trkpt lat="45.76231" lon="6.51001">
        <ele>1706</ele>
        <time>2026-07-12T10:37:00Z</time>
      </trkpt>
      <trkpt lat="45.76229" lon="6.51">
        <ele>1706</ele>
        <time>2026-07-12T10:37:01Z</time>
      </trkpt>
      <trkpt lat="45.76228" lon="6.51">
        <ele>1706.8</ele>
        <time>2026-07-12T10:37:02Z</time>
      </trkpt>
      <trkpt lat="45.76226" lon="6.50999">
        <ele>1706.8</ele>
        <time>2026-07-12T10:37:03Z</time>
      </trkpt>
      <trkpt lat="45.76224" lon="6.50999">
        <ele>1706.8</ele>
        <time>2026-07-12T10:37:04Z</time>
      </trkpt>
      <trkpt lat="45.76223" lon="6.50999">
        <ele>1706.8</ele>
        <time>2026-07-12T10:37:05Z</time>
      </trkpt>
      <trkpt lat="45.76221" lon="6.50998">
        <ele>1706.8</ele>
        <time>2026-07-12T10:37:06Z</time>
      </trkpt>
      <trkpt lat="45.7622" lon="6.50997">
        <ele>1706.8</ele>
        <time>2026-07-12T10:37:07Z</time>
      </trkpt>
      <trkpt lat="45.76218" lon="6.50997">
        <ele>1706.8</ele>
        <time>2026-07-12T10:37:08Z</time>
      </trkpt>
      <trkpt lat="45.76216" lon="6.50997">
        <ele>1707.6</ele>
        <time>2026-07-12T10:37:09Z</time>
      </trkpt>
      <trkpt lat="45.76215" lon="6.50996">
        <ele>1707.6</ele>
        <time>2026-07-12T10:37:10Z</time>
      </trkpt>
      <trkpt lat="45.76213" lon="6.50996">
        <ele>1707.6</ele>
        <time>2026-07-12T10:37:11Z</time>
      </trkpt>
      <trkpt lat="45.76212" lon="6.50996">
        <ele>1707.4</ele>
        <time>2026-07-12T10:37:12Z</time>
      </trkpt>
      <trkpt lat="45.76207" lon="6.50995">
        <ele>1708</ele>
        <time>2026-07-12T10:37:34Z</time>
      </trkpt>
      <trkpt lat="45.76207" lon="6.50995">
        <ele>1708</ele>
        <time>2026-07-12T10:37:35Z</time>
      </trkpt>
      <trkpt lat="45.76207" lon="6.50995">
        <ele>1708</ele>
        <time>2026-07-12T10:37:36Z</time>
      </trkpt>
      <trkpt lat="45.76206" lon="6.50996">
        <ele>1708</ele>
        <time>2026-07-12T10:37:37Z</time>
      </trkpt>
      <trkpt lat="45.76203" lon="6.50995">
        <ele>1708</ele>
        <time>2026-07-12T10:37:38Z</time>
      </trkpt>
      <trkpt lat="45.76201" lon="6.50994">
        <ele>1708</ele>
        <time>2026-07-12T10:37:39Z</time>
      </trkpt>
      <trkpt lat="45.76198" lon="6.50994">
        <ele>1708</ele>
        <time>2026-07-12T10:37:40Z</time>
      </trkpt>
      <trkpt lat="45.76195" lon="6.50993">
        <ele>1708</ele>
        <time>2026-07-12T10:37:41Z</time>
      </trkpt>
      <trkpt lat="45.76192" lon="6.50993">
        <ele>1708</ele>
        <time>2026-07-12T10:37:42Z</time>
      </trkpt>
      <trkpt lat="45.76189" lon="6.50992">
        <ele>1708</ele>
        <time>2026-07-12T10:37:43Z</time>
      </trkpt>
      <trkpt lat="45.76187" lon="6.50992">
        <ele>1708.4</ele>
        <time>2026-07-12T10:37:44Z</time>
      </trkpt>
      <trkpt lat="45.76184" lon="6.50991">
        <ele>1708.6</ele>
        <time>2026-07-12T10:37:45Z</time>
      </trkpt>
      <trkpt lat="45.76181" lon="6.5099">
        <ele>1708.6</ele>
        <time>2026-07-12T10:37:46Z</time>
      </trkpt>
      <trkpt lat="45.76179" lon="6.5099">
        <ele>1708.6</ele>
        <time>2026-07-12T10:37:47Z</time>
      </trkpt>
      <trkpt lat="45.76177" lon="6.50989">
        <ele>1708.6</ele>
        <time>2026-07-12T10:37:48Z</time>
      </trkpt>
      <trkpt lat="45.76175" lon="6.50988">
        <ele>1708.6</ele>
        <time>2026-07-12T10:37:49Z</time>
      </trkpt>
      <trkpt lat="45.76171" lon="6.50984">
        <ele>1707.2</ele>
        <time>2026-07-12T10:40:31Z</time>
      </trkpt>
      <trkpt lat="45.76171" lon="6.50985">
        <ele>1707.2</ele>
        <time>2026-07-12T10:40:32Z</time>
      </trkpt>
      <trkpt lat="45.76172" lon="6.50986">
        <ele>1707.2</ele>
        <time>2026-07-12T10:40:33Z</time>
      </trkpt>
      <trkpt lat="45.76173" lon="6.50987">
        <ele>1708.2</ele>
        <time>2026-07-12T10:40:34Z</time>
      </trkpt>
      <trkpt lat="45.76175" lon="6.50988">
        <ele>1708.2</ele>
        <time>2026-07-12T10:40:35Z</time>
      </trkpt>
      <trkpt lat="45.76177" lon="6.50989">
        <ele>1708.2</ele>
        <time>2026-07-12T10:40:36Z</time>
      </trkpt>
      <trkpt lat="45.7618" lon="6.50989">
        <ele>1707.6</ele>
        <time>2026-07-12T10:40:37Z</time>
      </trkpt>
      <trkpt lat="45.76182" lon="6.50989">
        <ele>1707.6</ele>
        <time>2026-07-12T10:40:38Z</time>
      </trkpt>
      <trkpt lat="45.76185" lon="6.5099">
        <ele>1707.6</ele>
        <time>2026-07-12T10:40:39Z</time>
      </trkpt>
      <trkpt lat="45.76188" lon="6.50991">
        <ele>1707.6</ele>
        <time>2026-07-12T10:40:40Z</time>
      </trkpt>
      <trkpt lat="45.7619" lon="6.50991">
        <ele>1707.6</ele>
        <time>2026-07-12T10:40:41Z</time>
      </trkpt>
      <trkpt lat="45.76193" lon="6.50992">
        <ele>1712.8</ele>
        <time>2026-07-12T10:40:42Z</time>
      </trkpt>
      <trkpt lat="45.76196" lon="6.50992">
        <ele>1712.8</ele>
        <time>2026-07-12T10:40:43Z</time>
      </trkpt>
      <trkpt lat="45.762" lon="6.50993">
        <ele>1712.8</ele>
        <time>2026-07-12T10:40:44Z</time>
      </trkpt>
      <trkpt lat="45.76203" lon="6.50993">
        <ele>1711.8</ele>
        <time>2026-07-12T10:40:45Z</time>
      </trkpt>
      <trkpt lat="45.76206" lon="6.50994">
        <ele>1710.8</ele>
        <time>2026-07-12T10:40:46Z</time>
      </trkpt>
      <trkpt lat="45.7621" lon="6.50995">
        <ele>1709.8</ele>
        <time>2026-07-12T10:40:47Z</time>
      </trkpt>
      <trkpt lat="45.76214" lon="6.50996">
        <ele>1708.8</ele>
        <time>2026-07-12T10:40:48Z</time>
      </trkpt>
      <trkpt lat="45.76218" lon="6.50997">
        <ele>1707.8</ele>
        <time>2026-07-12T10:40:49Z</time>
      </trkpt>
      <trkpt lat="45.76222" lon="6.50998">
        <ele>1707</ele>
        <time>2026-07-12T10:40:51Z</time>
      </trkpt>
      <trkpt lat="45.76222" lon="6.50998">
        <ele>1707</ele>
        <time>2026-07-12T10:40:52Z</time>
      </trkpt>
      <trkpt lat="45.76225" lon="6.51">
        <ele>1707</ele>
        <time>2026-07-12T10:40:53Z</time>
      </trkpt>
      <trkpt lat="45.76229" lon="6.51001">
        <ele>1707</ele>
        <time>2026-07-12T10:40:54Z</time>
      </trkpt>
      <trkpt lat="45.76233" lon="6.51002">
        <ele>1707</ele>
        <time>2026-07-12T10:40:55Z</time>
      </trkpt>
      <trkpt lat="45.76237" lon="6.51004">
        <ele>1707</ele>
        <time>2026-07-12T10:40:56Z</time>
      </trkpt>
      <trkpt lat="45.76241" lon="6.51005">
        <ele>1707</ele>
        <time>2026-07-12T10:40:57Z</time>
      </trkpt>
      <trkpt lat="45.76245" lon="6.51008">
        <ele>1706</ele>
        <time>2026-07-12T10:40:58Z</time>
      </trkpt>
      <trkpt lat="45.76249" lon="6.5101">
        <ele>1706</ele>
        <time>2026-07-12T10:40:59Z</time>
      </trkpt>
      <trkpt lat="45.76253" lon="6.51012">
        <ele>1706</ele>
        <time>2026-07-12T10:41:00Z</time>
      </trkpt>
      <trkpt lat="45.76257" lon="6.51014">
        <ele>1706</ele>
        <time>2026-07-12T10:41:01Z</time>
      </trkpt>
      <trkpt lat="45.7626" lon="6.51015">
        <ele>1705.6</ele>
        <time>2026-07-12T10:41:02Z</time>
      </trkpt>
      <trkpt lat="45.76264" lon="6.51017">
        <ele>1704.6</ele>
        <time>2026-07-12T10:41:03Z</time>
      </trkpt>
      <trkpt lat="45.76268" lon="6.51018">
        <ele>1704.6</ele>
        <time>2026-07-12T10:41:04Z</time>
      </trkpt>
      <trkpt lat="45.76271" lon="6.5102">
        <ele>1704.6</ele>
        <time>2026-07-12T10:41:05Z</time>
      </trkpt>
      <trkpt lat="45.76275" lon="6.51021">
        <ele>1704.6</ele>
        <time>2026-07-12T10:41:06Z</time>
      </trkpt>
      <trkpt lat="45.76279" lon="6.51023">
        <ele>1704.6</ele>
        <time>2026-07-12T10:41:07Z</time>
      </trkpt>
      <trkpt lat="45.76283" lon="6.51024">
        <ele>1704.6</ele>
        <time>2026-07-12T10:41:08Z</time>
      </trkpt>
      <trkpt lat="45.76287" lon="6.51026">
        <ele>1704.6</ele>
        <time>2026-07-12T10:41:09Z</time>
      </trkpt>
      <trkpt lat="45.76291" lon="6.51027">
        <ele>1703.4</ele>
        <time>2026-07-12T10:41:10Z</time>
      </trkpt>
      <trkpt lat="45.76295" lon="6.51027">
        <ele>1703.4</ele>
        <time>2026-07-12T10:41:11Z</time>
      </trkpt>
      <trkpt lat="45.76299" lon="6.51028">
        <ele>1703.4</ele>
        <time>2026-07-12T10:41:12Z</time>
      </trkpt>
      <trkpt lat="45.76304" lon="6.51029">
        <ele>1704</ele>
        <time>2026-07-12T10:41:13Z</time>
      </trkpt>
      <trkpt lat="45.76308" lon="6.51031">
        <ele>1704.6</ele>
        <time>2026-07-12T10:41:14Z</time>
      </trkpt>
      <trkpt lat="45.76313" lon="6.51033">
        <ele>1704.6</ele>
        <time>2026-07-12T10:41:15Z</time>
      </trkpt>
      <trkpt lat="45.76317" lon="6.51034">
        <ele>1704.6</ele>
        <time>2026-07-12T10:41:16Z</time>
      </trkpt>
      <trkpt lat="45.76321" lon="6.51037">
        <ele>1704</ele>
        <time>2026-07-12T10:41:17Z</time>
      </trkpt>
      <trkpt lat="45.76325" lon="6.5104">
        <ele>1703.2</ele>
        <time>2026-07-12T10:41:18Z</time>
      </trkpt>
      <trkpt lat="45.76329" lon="6.51043">
        <ele>1703.2</ele>
        <time>2026-07-12T10:41:19Z</time>
      </trkpt>
      <trkpt lat="45.76332" lon="6.51046">
        <ele>1703.2</ele>
        <time>2026-07-12T10:41:20Z</time>
      </trkpt>
      <trkpt lat="45.76335" lon="6.5105">
        <ele>1703.6</ele>
        <time>2026-07-12T10:41:21Z</time>
      </trkpt>
      <trkpt lat="45.76339" lon="6.51054">
        <ele>1704.4</ele>
        <time>2026-07-12T10:41:22Z</time>
      </trkpt>
      <trkpt lat="45.76343" lon="6.51057">
        <ele>1704.4</ele>
        <time>2026-07-12T10:41:23Z</time>
      </trkpt>
      <trkpt lat="45.76346" lon="6.51059">
        <ele>1704.4</ele>
        <time>2026-07-12T10:41:24Z</time>
      </trkpt>
      <trkpt lat="45.7635" lon="6.5106">
        <ele>1704.2</ele>
        <time>2026-07-12T10:41:25Z</time>
      </trkpt>
      <trkpt lat="45.76354" lon="6.5106">
        <ele>1704</ele>
        <time>2026-07-12T10:41:26Z</time>
      </trkpt>
      <trkpt lat="45.76358" lon="6.51059">
        <ele>1704</ele>
        <time>2026-07-12T10:41:27Z</time>
      </trkpt>
      <trkpt lat="45.76361" lon="6.51059">
        <ele>1704</ele>
        <time>2026-07-12T10:41:28Z</time>
      </trkpt>
      <trkpt lat="45.76364" lon="6.51058">
        <ele>1704.2</ele>
        <time>2026-07-12T10:41:29Z</time>
      </trkpt>
      <trkpt lat="45.76366" lon="6.51057">
        <ele>1704.2</ele>
        <time>2026-07-12T10:41:30Z</time>
      </trkpt>
      <trkpt lat="45.76369" lon="6.51056">
        <ele>1704.2</ele>
        <time>2026-07-12T10:41:31Z</time>
      </trkpt>
      <trkpt lat="45.76373" lon="6.51056">
        <ele>1703</ele>
        <time>2026-07-12T10:41:47Z</time>
      </trkpt>
      <trkpt lat="45.76373" lon="6.51056">
        <ele>1703</ele>
        <time>2026-07-12T10:41:48Z</time>
      </trkpt>
      <trkpt lat="45.76373" lon="6.51056">
        <ele>1702.2</ele>
        <time>2026-07-12T10:41:49Z</time>
      </trkpt>
      <trkpt lat="45.76372" lon="6.51057">
        <ele>1702</ele>
        <time>2026-07-12T10:41:50Z</time>
      </trkpt>
      <trkpt lat="45.76372" lon="6.51061">
        <ele>1702</ele>
        <time>2026-07-12T10:41:51Z</time>
      </trkpt>
      <trkpt lat="45.76371" lon="6.51066">
        <ele>1702</ele>
        <time>2026-07-12T10:41:52Z</time>
      </trkpt>
      <trkpt lat="45.76369" lon="6.51071">
        <ele>1702</ele>
        <time>2026-07-12T10:41:53Z</time>
      </trkpt>
      <trkpt lat="45.76368" lon="6.51076">
        <ele>1702</ele>
        <time>2026-07-12T10:41:54Z</time>
      </trkpt>
      <trkpt lat="45.76368" lon="6.5108">
        <ele>1702.2</ele>
        <time>2026-07-12T10:41:55Z</time>
      </trkpt>
      <trkpt lat="45.76367" lon="6.51084">
        <ele>1702.2</ele>
        <time>2026-07-12T10:41:56Z</time>
      </trkpt>
      <trkpt lat="45.76367" lon="6.51087">
        <ele>1702.2</ele>
        <time>2026-07-12T10:41:57Z</time>
      </trkpt>
      <trkpt lat="45.76368" lon="6.5109">
        <ele>1702.2</ele>
        <time>2026-07-12T10:41:58Z</time>
      </trkpt>
      <trkpt lat="45.76369" lon="6.51093">
        <ele>1702.2</ele>
        <time>2026-07-12T10:41:59Z</time>
      </trkpt>
      <trkpt lat="45.76371" lon="6.51096">
        <ele>1702.4</ele>
        <time>2026-07-12T10:42:00Z</time>
      </trkpt>
      <trkpt lat="45.76372" lon="6.511">
        <ele>1702.4</ele>
        <time>2026-07-12T10:42:01Z</time>
      </trkpt>
      <trkpt lat="45.76374" lon="6.51104">
        <ele>1702.4</ele>
        <time>2026-07-12T10:42:02Z</time>
      </trkpt>
      <trkpt lat="45.76376" lon="6.51107">
        <ele>1702.4</ele>
        <time>2026-07-12T10:42:03Z</time>
      </trkpt>
      <trkpt lat="45.76377" lon="6.51111">
        <ele>1702.4</ele>
        <time>2026-07-12T10:42:04Z</time>
      </trkpt>
      <trkpt lat="45.76379" lon="6.51114">
        <ele>1700.2</ele>
        <time>2026-07-12T10:42:05Z</time>
      </trkpt>
      <trkpt lat="45.7638" lon="6.51118">
        <ele>1700.2</ele>
        <time>2026-07-12T10:42:06Z</time>
      </trkpt>
      <trkpt lat="45.76381" lon="6.51121">
        <ele>1700.2</ele>
        <time>2026-07-12T10:42:07Z</time>
      </trkpt>
      <trkpt lat="45.76383" lon="6.51124">
        <ele>1700.2</ele>
        <time>2026-07-12T10:42:08Z</time>
      </trkpt>
      <trkpt lat="45.76384" lon="6.51127">
        <ele>1700.2</ele>
        <time>2026-07-12T10:42:09Z</time>
      </trkpt>
      <trkpt lat="45.76385" lon="6.51131">
        <ele>1700.2</ele>
        <time>2026-07-12T10:42:10Z</time>
      </trkpt>
      <trkpt lat="45.76386" lon="6.51135">
        <ele>1698.8</ele>
        <time>2026-07-12T10:42:11Z</time>
      </trkpt>
      <trkpt lat="45.76388" lon="6.51139">
        <ele>1698.8</ele>
        <time>2026-07-12T10:42:12Z</time>
      </trkpt>
      <trkpt lat="45.76388" lon="6.51145">
        <ele>1698.8</ele>
        <time>2026-07-12T10:42:13Z</time>
      </trkpt>
      <trkpt lat="45.76388" lon="6.51151">
        <ele>1698.8</ele>
        <time>2026-07-12T10:42:14Z</time>
      </trkpt>
      <trkpt lat="45.76388" lon="6.51157">
        <ele>1698.8</ele>
        <time>2026-07-12T10:42:15Z</time>
      </trkpt>
      <trkpt lat="45.76387" lon="6.51163">
        <ele>1698.8</ele>
        <time>2026-07-12T10:42:16Z</time>
      </trkpt>
      <trkpt lat="45.76385" lon="6.51169">
        <ele>1695.8</ele>
        <time>2026-07-12T10:42:17Z</time>
      </trkpt>
      <trkpt lat="45.76381" lon="6.51175">
        <ele>1695.8</ele>
        <time>2026-07-12T10:42:18Z</time>
      </trkpt>
      <trkpt lat="45.76378" lon="6.51182">
        <ele>1695.8</ele>
        <time>2026-07-12T10:42:19Z</time>
      </trkpt>
      <trkpt lat="45.76374" lon="6.51188">
        <ele>1696.8</ele>
        <time>2026-07-12T10:42:20Z</time>
      </trkpt>
      <trkpt lat="45.76369" lon="6.51194">
        <ele>1698.2</ele>
        <time>2026-07-12T10:42:21Z</time>
      </trkpt>
      <trkpt lat="45.76366" lon="6.512">
        <ele>1698.2</ele>
        <time>2026-07-12T10:42:22Z</time>
      </trkpt>
      <trkpt lat="45.76363" lon="6.51206">
        <ele>1698.2</ele>
        <time>2026-07-12T10:42:23Z</time>
      </trkpt>
      <trkpt lat="45.76359" lon="6.51212">
        <ele>1699.2</ele>
        <time>2026-07-12T10:42:24Z</time>
      </trkpt>
      <trkpt lat="45.76355" lon="6.51216">
        <ele>1699.2</ele>
        <time>2026-07-12T10:42:25Z</time>
      </trkpt>
      <trkpt lat="45.7635" lon="6.5122">
        <ele>1699.4</ele>
        <time>2026-07-12T10:42:26Z</time>
      </trkpt>
      <trkpt lat="45.76346" lon="6.51223">
        <ele>1699.4</ele>
        <time>2026-07-12T10:42:27Z</time>
      </trkpt>
      <trkpt lat="45.76343" lon="6.51226">
        <ele>1699.4</ele>
        <time>2026-07-12T10:42:28Z</time>
      </trkpt>
      <trkpt lat="45.76339" lon="6.5123">
        <ele>1699.4</ele>
        <time>2026-07-12T10:42:29Z</time>
      </trkpt>
      <trkpt lat="45.76336" lon="6.51233">
        <ele>1699.4</ele>
        <time>2026-07-12T10:42:30Z</time>
      </trkpt>
      <trkpt lat="45.76332" lon="6.51236">
        <ele>1699.4</ele>
        <time>2026-07-12T10:42:31Z</time>
      </trkpt>
      <trkpt lat="45.76328" lon="6.51239">
        <ele>1699.4</ele>
        <time>2026-07-12T10:42:32Z</time>
      </trkpt>
      <trkpt lat="45.76324" lon="6.51241">
        <ele>1699.8</ele>
        <time>2026-07-12T10:42:33Z</time>
      </trkpt>
      <trkpt lat="45.7632" lon="6.51243">
        <ele>1699.8</ele>
        <time>2026-07-12T10:42:34Z</time>
      </trkpt>
      <trkpt lat="45.76316" lon="6.51245">
        <ele>1699.8</ele>
        <time>2026-07-12T10:42:35Z</time>
      </trkpt>
      <trkpt lat="45.76312" lon="6.51246">
        <ele>1699.4</ele>
        <time>2026-07-12T10:42:36Z</time>
      </trkpt>
      <trkpt lat="45.76309" lon="6.51248">
        <ele>1698.4</ele>
        <time>2026-07-12T10:42:37Z</time>
      </trkpt>
      <trkpt lat="45.76306" lon="6.51251">
        <ele>1698.4</ele>
        <time>2026-07-12T10:42:38Z</time>
      </trkpt>
      <trkpt lat="45.76304" lon="6.51256">
        <ele>1698.4</ele>
        <time>2026-07-12T10:42:39Z</time>
      </trkpt>
      <trkpt lat="45.76303" lon="6.51261">
        <ele>1698.6</ele>
        <time>2026-07-12T10:42:40Z</time>
      </trkpt>
      <trkpt lat="45.76303" lon="6.51267">
        <ele>1698.6</ele>
        <time>2026-07-12T10:42:41Z</time>
      </trkpt>
      <trkpt lat="45.76304" lon="6.51273">
        <ele>1699.6</ele>
        <time>2026-07-12T10:42:42Z</time>
      </trkpt>
      <trkpt lat="45.76304" lon="6.51279">
        <ele>1699.6</ele>
        <time>2026-07-12T10:42:43Z</time>
      </trkpt>
      <trkpt lat="45.76303" lon="6.51283">
        <ele>1699.6</ele>
        <time>2026-07-12T10:42:44Z</time>
      </trkpt>
      <trkpt lat="45.763" lon="6.51286">
        <ele>1699.6</ele>
        <time>2026-07-12T10:42:45Z</time>
      </trkpt>
      <trkpt lat="45.76298" lon="6.51289">
        <ele>1699.6</ele>
        <time>2026-07-12T10:42:46Z</time>
      </trkpt>
      <trkpt lat="45.76297" lon="6.51293">
        <ele>1699.6</ele>
        <time>2026-07-12T10:42:47Z</time>
      </trkpt>
      <trkpt lat="45.76295" lon="6.51296">
        <ele>1699.6</ele>
        <time>2026-07-12T10:42:48Z</time>
      </trkpt>
      <trkpt lat="45.76293" lon="6.51299">
        <ele>1697.8</ele>
        <time>2026-07-12T10:42:49Z</time>
      </trkpt>
      <trkpt lat="45.76291" lon="6.51302">
        <ele>1697.8</ele>
        <time>2026-07-12T10:42:50Z</time>
      </trkpt>
      <trkpt lat="45.76289" lon="6.51304">
        <ele>1697.8</ele>
        <time>2026-07-12T10:42:51Z</time>
      </trkpt>
      <trkpt lat="45.76288" lon="6.51307">
        <ele>1698</ele>
        <time>2026-07-12T10:42:52Z</time>
      </trkpt>
      <trkpt lat="45.76287" lon="6.5131">
        <ele>1698</ele>
        <time>2026-07-12T10:42:53Z</time>
      </trkpt>
      <trkpt lat="45.76285" lon="6.51313">
        <ele>1698</ele>
        <time>2026-07-12T10:42:54Z</time>
      </trkpt>
      <trkpt lat="45.76284" lon="6.51316">
        <ele>1698</ele>
        <time>2026-07-12T10:42:55Z</time>
      </trkpt>
      <trkpt lat="45.76283" lon="6.51319">
        <ele>1697.4</ele>
        <time>2026-07-12T10:42:56Z</time>
      </trkpt>
      <trkpt lat="45.76283" lon="6.51324">
        <ele>1697.4</ele>
        <time>2026-07-12T10:42:57Z</time>
      </trkpt>
      <trkpt lat="45.76283" lon="6.51329">
        <ele>1697.4</ele>
        <time>2026-07-12T10:42:58Z</time>
      </trkpt>
      <trkpt lat="45.76282" lon="6.51334">
        <ele>1697.4</ele>
        <time>2026-07-12T10:42:59Z</time>
      </trkpt>
      <trkpt lat="45.76281" lon="6.51339">
        <ele>1697.4</ele>
        <time>2026-07-12T10:43:00Z</time>
      </trkpt>
      <trkpt lat="45.7628" lon="6.51344">
        <ele>1696.8</ele>
        <time>2026-07-12T10:43:01Z</time>
      </trkpt>
      <trkpt lat="45.7628" lon="6.5135">
        <ele>1696.4</ele>
        <time>2026-07-12T10:43:02Z</time>
      </trkpt>
      <trkpt lat="45.76279" lon="6.51354">
        <ele>1695.8</ele>
        <time>2026-07-12T10:43:03Z</time>
      </trkpt>
      <trkpt lat="45.76278" lon="6.51359">
        <ele>1695.8</ele>
        <time>2026-07-12T10:43:04Z</time>
      </trkpt>
      <trkpt lat="45.76277" lon="6.51362">
        <ele>1695.8</ele>
        <time>2026-07-12T10:43:05Z</time>
      </trkpt>
      <trkpt lat="45.76275" lon="6.51365">
        <ele>1695.8</ele>
        <time>2026-07-12T10:43:06Z</time>
      </trkpt>
      <trkpt lat="45.76274" lon="6.51368">
        <ele>1695.8</ele>
        <time>2026-07-12T10:43:07Z</time>
      </trkpt>
      <trkpt lat="45.76272" lon="6.5137">
        <ele>1694.8</ele>
        <time>2026-07-12T10:43:08Z</time>
      </trkpt>
      <trkpt lat="45.76271" lon="6.51373">
        <ele>1694.4</ele>
        <time>2026-07-12T10:43:09Z</time>
      </trkpt>
      <trkpt lat="45.76269" lon="6.51375">
        <ele>1694</ele>
        <time>2026-07-12T10:43:10Z</time>
      </trkpt>
      <trkpt lat="45.76267" lon="6.51378">
        <ele>1693.6</ele>
        <time>2026-07-12T10:43:11Z</time>
      </trkpt>
      <trkpt lat="45.76264" lon="6.51381">
        <ele>1693.2</ele>
        <time>2026-07-12T10:43:12Z</time>
      </trkpt>
      <trkpt lat="45.76261" lon="6.51383">
        <ele>1692.6</ele>
        <time>2026-07-12T10:43:13Z</time>
      </trkpt>
      <trkpt lat="45.76258" lon="6.51385">
        <ele>1692</ele>
        <time>2026-07-12T10:43:14Z</time>
      </trkpt>
      <trkpt lat="45.76255" lon="6.51388">
        <ele>1692</ele>
        <time>2026-07-12T10:43:15Z</time>
      </trkpt>
      <trkpt lat="45.76252" lon="6.51393">
        <ele>1692</ele>
        <time>2026-07-12T10:43:16Z</time>
      </trkpt>
      <trkpt lat="45.76249" lon="6.51398">
        <ele>1692</ele>
        <time>2026-07-12T10:43:17Z</time>
      </trkpt>
      <trkpt lat="45.76246" lon="6.51403">
        <ele>1691</ele>
        <time>2026-07-12T10:43:18Z</time>
      </trkpt>
      <trkpt lat="45.76243" lon="6.51408">
        <ele>1690</ele>
        <time>2026-07-12T10:43:19Z</time>
      </trkpt>
      <trkpt lat="45.7624" lon="6.51412">
        <ele>1689.4</ele>
        <time>2026-07-12T10:43:20Z</time>
      </trkpt>
      <trkpt lat="45.76237" lon="6.51415">
        <ele>1688.6</ele>
        <time>2026-07-12T10:43:21Z</time>
      </trkpt>
      <trkpt lat="45.76234" lon="6.5142">
        <ele>1688.6</ele>
        <time>2026-07-12T10:43:22Z</time>
      </trkpt>
      <trkpt lat="45.7623" lon="6.51427">
        <ele>1688.6</ele>
        <time>2026-07-12T10:43:23Z</time>
      </trkpt>
      <trkpt lat="45.76228" lon="6.51434">
        <ele>1688.6</ele>
        <time>2026-07-12T10:43:24Z</time>
      </trkpt>
      <trkpt lat="45.76226" lon="6.51441">
        <ele>1688.6</ele>
        <time>2026-07-12T10:43:25Z</time>
      </trkpt>
      <trkpt lat="45.76223" lon="6.51448">
        <ele>1688.6</ele>
        <time>2026-07-12T10:43:26Z</time>
      </trkpt>
      <trkpt lat="45.76221" lon="6.51454">
        <ele>1688.6</ele>
        <time>2026-07-12T10:43:27Z</time>
      </trkpt>
      <trkpt lat="45.7622" lon="6.5146">
        <ele>1687.6</ele>
        <time>2026-07-12T10:43:28Z</time>
      </trkpt>
      <trkpt lat="45.7622" lon="6.51467">
        <ele>1686.6</ele>
        <time>2026-07-12T10:43:29Z</time>
      </trkpt>
      <trkpt lat="45.7622" lon="6.51474">
        <ele>1685.6</ele>
        <time>2026-07-12T10:43:30Z</time>
      </trkpt>
      <trkpt lat="45.7622" lon="6.51481">
        <ele>1685</ele>
        <time>2026-07-12T10:43:31Z</time>
      </trkpt>
      <trkpt lat="45.7622" lon="6.51489">
        <ele>1684.2</ele>
        <time>2026-07-12T10:43:32Z</time>
      </trkpt>
      <trkpt lat="45.76219" lon="6.51495">
        <ele>1683.4</ele>
        <time>2026-07-12T10:43:33Z</time>
      </trkpt>
      <trkpt lat="45.7622" lon="6.51501">
        <ele>1683.4</ele>
        <time>2026-07-12T10:43:34Z</time>
      </trkpt>
      <trkpt lat="45.76219" lon="6.51507">
        <ele>1683.4</ele>
        <time>2026-07-12T10:43:35Z</time>
      </trkpt>
      <trkpt lat="45.76219" lon="6.51513">
        <ele>1683.4</ele>
        <time>2026-07-12T10:43:36Z</time>
      </trkpt>
      <trkpt lat="45.76218" lon="6.5152">
        <ele>1683.4</ele>
        <time>2026-07-12T10:43:37Z</time>
      </trkpt>
      <trkpt lat="45.76217" lon="6.51526">
        <ele>1683</ele>
        <time>2026-07-12T10:43:38Z</time>
      </trkpt>
      <trkpt lat="45.76217" lon="6.51531">
        <ele>1682</ele>
        <time>2026-07-12T10:43:39Z</time>
      </trkpt>
      <trkpt lat="45.76217" lon="6.51537">
        <ele>1681.8</ele>
        <time>2026-07-12T10:43:40Z</time>
      </trkpt>
      <trkpt lat="45.76218" lon="6.51542">
        <ele>1680.8</ele>
        <time>2026-07-12T10:43:41Z</time>
      </trkpt>
      <trkpt lat="45.76218" lon="6.51548">
        <ele>1680.8</ele>
        <time>2026-07-12T10:43:42Z</time>
      </trkpt>
      <trkpt lat="45.76218" lon="6.51553">
        <ele>1680.8</ele>
        <time>2026-07-12T10:43:43Z</time>
      </trkpt>
      <trkpt lat="45.76219" lon="6.51559">
        <ele>1680.8</ele>
        <time>2026-07-12T10:43:44Z</time>
      </trkpt>
      <trkpt lat="45.7622" lon="6.51566">
        <ele>1680.8</ele>
        <time>2026-07-12T10:43:45Z</time>
      </trkpt>
      <trkpt lat="45.76222" lon="6.51571">
        <ele>1679.8</ele>
        <time>2026-07-12T10:43:46Z</time>
      </trkpt>
      <trkpt lat="45.76223" lon="6.51575">
        <ele>1679</ele>
        <time>2026-07-12T10:43:47Z</time>
      </trkpt>
      <trkpt lat="45.76225" lon="6.51579">
        <ele>1679</ele>
        <time>2026-07-12T10:43:48Z</time>
      </trkpt>
      <trkpt lat="45.76226" lon="6.51585">
        <ele>1679</ele>
        <time>2026-07-12T10:43:49Z</time>
      </trkpt>
      <trkpt lat="45.76226" lon="6.51591">
        <ele>1679</ele>
        <time>2026-07-12T10:43:50Z</time>
      </trkpt>
      <trkpt lat="45.76225" lon="6.51598">
        <ele>1679</ele>
        <time>2026-07-12T10:43:51Z</time>
      </trkpt>
      <trkpt lat="45.76225" lon="6.51605">
        <ele>1679</ele>
        <time>2026-07-12T10:43:52Z</time>
      </trkpt>
      <trkpt lat="45.76224" lon="6.51612">
        <ele>1679</ele>
        <time>2026-07-12T10:43:53Z</time>
      </trkpt>
      <trkpt lat="45.76224" lon="6.51619">
        <ele>1679</ele>
        <time>2026-07-12T10:43:54Z</time>
      </trkpt>
      <trkpt lat="45.76222" lon="6.51627">
        <ele>1678</ele>
        <time>2026-07-12T10:43:55Z</time>
      </trkpt>
      <trkpt lat="45.76221" lon="6.51633">
        <ele>1677</ele>
        <time>2026-07-12T10:43:56Z</time>
      </trkpt>
      <trkpt lat="45.76219" lon="6.51642">
        <ele>1676</ele>
        <time>2026-07-12T10:43:57Z</time>
      </trkpt>
      <trkpt lat="45.76216" lon="6.51651">
        <ele>1675</ele>
        <time>2026-07-12T10:43:58Z</time>
      </trkpt>
      <trkpt lat="45.76213" lon="6.5166">
        <ele>1675</ele>
        <time>2026-07-12T10:43:59Z</time>
      </trkpt>
      <trkpt lat="45.7621" lon="6.5167">
        <ele>1675</ele>
        <time>2026-07-12T10:44:00Z</time>
      </trkpt>
      <trkpt lat="45.76206" lon="6.51679">
        <ele>1675</ele>
        <time>2026-07-12T10:44:01Z</time>
      </trkpt>
      <trkpt lat="45.76202" lon="6.51686">
        <ele>1673</ele>
        <time>2026-07-12T10:44:02Z</time>
      </trkpt>
      <trkpt lat="45.76198" lon="6.51691">
        <ele>1673</ele>
        <time>2026-07-12T10:44:03Z</time>
      </trkpt>
      <trkpt lat="45.76196" lon="6.51693">
        <ele>1673</ele>
        <time>2026-07-12T10:44:04Z</time>
      </trkpt>
      <trkpt lat="45.76194" lon="6.51696">
        <ele>1673.4</ele>
        <time>2026-07-12T10:44:05Z</time>
      </trkpt>
      <trkpt lat="45.76191" lon="6.51698">
        <ele>1671.8</ele>
        <time>2026-07-12T10:44:06Z</time>
      </trkpt>
      <trkpt lat="45.76189" lon="6.51701">
        <ele>1671.8</ele>
        <time>2026-07-12T10:44:07Z</time>
      </trkpt>
      <trkpt lat="45.76186" lon="6.51703">
        <ele>1671.8</ele>
        <time>2026-07-12T10:44:08Z</time>
      </trkpt>
      <trkpt lat="45.76183" lon="6.51705">
        <ele>1672</ele>
        <time>2026-07-12T10:44:09Z</time>
      </trkpt>
      <trkpt lat="45.76181" lon="6.51707">
        <ele>1672</ele>
        <time>2026-07-12T10:44:10Z</time>
      </trkpt>
      <trkpt lat="45.76178" lon="6.51708">
        <ele>1672</ele>
        <time>2026-07-12T10:44:11Z</time>
      </trkpt>
      <trkpt lat="45.76176" lon="6.51711">
        <ele>1672</ele>
        <time>2026-07-12T10:44:12Z</time>
      </trkpt>
      <trkpt lat="45.76173" lon="6.51712">
        <ele>1673</ele>
        <time>2026-07-12T10:44:13Z</time>
      </trkpt>
      <trkpt lat="45.76169" lon="6.51715">
        <ele>1673.6</ele>
        <time>2026-07-12T10:44:14Z</time>
      </trkpt>
      <trkpt lat="45.76166" lon="6.51717">
        <ele>1673.8</ele>
        <time>2026-07-12T10:44:15Z</time>
      </trkpt>
      <trkpt lat="45.76164" lon="6.5172">
        <ele>1674</ele>
        <time>2026-07-12T10:44:16Z</time>
      </trkpt>
      <trkpt lat="45.76161" lon="6.51724">
        <ele>1674</ele>
        <time>2026-07-12T10:44:17Z</time>
      </trkpt>
      <trkpt lat="45.76158" lon="6.51727">
        <ele>1674</ele>
        <time>2026-07-12T10:44:18Z</time>
      </trkpt>
      <trkpt lat="45.76156" lon="6.5173">
        <ele>1674</ele>
        <time>2026-07-12T10:44:19Z</time>
      </trkpt>
      <trkpt lat="45.76154" lon="6.51735">
        <ele>1674</ele>
        <time>2026-07-12T10:44:20Z</time>
      </trkpt>
      <trkpt lat="45.76152" lon="6.51739">
        <ele>1674</ele>
        <time>2026-07-12T10:44:21Z</time>
      </trkpt>
      <trkpt lat="45.76149" lon="6.51745">
        <ele>1669.2</ele>
        <time>2026-07-12T10:44:22Z</time>
      </trkpt>
      <trkpt lat="45.76147" lon="6.51751">
        <ele>1669.2</ele>
        <time>2026-07-12T10:44:23Z</time>
      </trkpt>
      <trkpt lat="45.76146" lon="6.51756">
        <ele>1669.2</ele>
        <time>2026-07-12T10:44:24Z</time>
      </trkpt>
      <trkpt lat="45.76145" lon="6.51759">
        <ele>1669.8</ele>
        <time>2026-07-12T10:44:25Z</time>
      </trkpt>
      <trkpt lat="45.76144" lon="6.51762">
        <ele>1670.8</ele>
        <time>2026-07-12T10:44:26Z</time>
      </trkpt>
      <trkpt lat="45.76143" lon="6.51767">
        <ele>1670.8</ele>
        <time>2026-07-12T10:44:27Z</time>
      </trkpt>
      <trkpt lat="45.76141" lon="6.51772">
        <ele>1670.8</ele>
        <time>2026-07-12T10:44:28Z</time>
      </trkpt>
      <trkpt lat="45.7614" lon="6.51777">
        <ele>1669.8</ele>
        <time>2026-07-12T10:44:29Z</time>
      </trkpt>
      <trkpt lat="45.76139" lon="6.51784">
        <ele>1669.8</ele>
        <time>2026-07-12T10:44:30Z</time>
      </trkpt>
      <trkpt lat="45.76138" lon="6.51791">
        <ele>1669.8</ele>
        <time>2026-07-12T10:44:31Z</time>
      </trkpt>
      <trkpt lat="45.76137" lon="6.51798">
        <ele>1669.8</ele>
        <time>2026-07-12T10:44:32Z</time>
      </trkpt>
      <trkpt lat="45.76135" lon="6.51806">
        <ele>1663.2</ele>
        <time>2026-07-12T10:44:33Z</time>
      </trkpt>
      <trkpt lat="45.76133" lon="6.51813">
        <ele>1663.2</ele>
        <time>2026-07-12T10:44:34Z</time>
      </trkpt>
      <trkpt lat="45.76132" lon="6.51821">
        <ele>1663.2</ele>
        <time>2026-07-12T10:44:35Z</time>
      </trkpt>
      <trkpt lat="45.76131" lon="6.51829">
        <ele>1664.2</ele>
        <time>2026-07-12T10:44:36Z</time>
      </trkpt>
      <trkpt lat="45.76131" lon="6.51838">
        <ele>1665.2</ele>
        <time>2026-07-12T10:44:37Z</time>
      </trkpt>
      <trkpt lat="45.7613" lon="6.51845">
        <ele>1666.2</ele>
        <time>2026-07-12T10:44:38Z</time>
      </trkpt>
      <trkpt lat="45.7613" lon="6.51852">
        <ele>1666.4</ele>
        <time>2026-07-12T10:44:39Z</time>
      </trkpt>
      <trkpt lat="45.76129" lon="6.51858">
        <ele>1666.6</ele>
        <time>2026-07-12T10:44:40Z</time>
      </trkpt>
      <trkpt lat="45.76129" lon="6.51862">
        <ele>1666.6</ele>
        <time>2026-07-12T10:44:41Z</time>
      </trkpt>
      <trkpt lat="45.76128" lon="6.51866">
        <ele>1666.6</ele>
        <time>2026-07-12T10:44:42Z</time>
      </trkpt>
      <trkpt lat="45.76127" lon="6.51869">
        <ele>1665.6</ele>
        <time>2026-07-12T10:44:43Z</time>
      </trkpt>
      <trkpt lat="45.76126" lon="6.51871">
        <ele>1665.6</ele>
        <time>2026-07-12T10:44:44Z</time>
      </trkpt>
      <trkpt lat="45.76125" lon="6.51874">
        <ele>1665.6</ele>
        <time>2026-07-12T10:44:45Z</time>
      </trkpt>
      <trkpt lat="45.76125" lon="6.51878">
        <ele>1665.6</ele>
        <time>2026-07-12T10:44:46Z</time>
      </trkpt>
      <trkpt lat="45.76124" lon="6.51882">
        <ele>1665.2</ele>
        <time>2026-07-12T10:44:47Z</time>
      </trkpt>
      <trkpt lat="45.76123" lon="6.51887">
        <ele>1665.2</ele>
        <time>2026-07-12T10:44:48Z</time>
      </trkpt>
      <trkpt lat="45.76123" lon="6.51892">
        <ele>1665.2</ele>
        <time>2026-07-12T10:44:49Z</time>
      </trkpt>
      <trkpt lat="45.76123" lon="6.51895">
        <ele>1665.2</ele>
        <time>2026-07-12T10:44:50Z</time>
      </trkpt>
      <trkpt lat="45.76122" lon="6.51902">
        <ele>1665</ele>
        <time>2026-07-12T10:45:03Z</time>
      </trkpt>
      <trkpt lat="45.76122" lon="6.51902">
        <ele>1664</ele>
        <time>2026-07-12T10:45:04Z</time>
      </trkpt>
      <trkpt lat="45.76122" lon="6.51902">
        <ele>1663.2</ele>
        <time>2026-07-12T10:45:05Z</time>
      </trkpt>
      <trkpt lat="45.76122" lon="6.51902">
        <ele>1663.2</ele>
        <time>2026-07-12T10:45:06Z</time>
      </trkpt>
      <trkpt lat="45.76122" lon="6.51904">
        <ele>1663.2</ele>
        <time>2026-07-12T10:45:07Z</time>
      </trkpt>
      <trkpt lat="45.76121" lon="6.51908">
        <ele>1664.2</ele>
        <time>2026-07-12T10:45:08Z</time>
      </trkpt>
      <trkpt lat="45.7612" lon="6.51913">
        <ele>1664.2</ele>
        <time>2026-07-12T10:45:09Z</time>
      </trkpt>
      <trkpt lat="45.76118" lon="6.51919">
        <ele>1664.2</ele>
        <time>2026-07-12T10:45:10Z</time>
      </trkpt>
      <trkpt lat="45.76115" lon="6.51924">
        <ele>1663.2</ele>
        <time>2026-07-12T10:45:11Z</time>
      </trkpt>
      <trkpt lat="45.76113" lon="6.5193">
        <ele>1663.2</ele>
        <time>2026-07-12T10:45:12Z</time>
      </trkpt>
      <trkpt lat="45.7611" lon="6.51935">
        <ele>1663.2</ele>
        <time>2026-07-12T10:45:13Z</time>
      </trkpt>
      <trkpt lat="45.76107" lon="6.5194">
        <ele>1663.2</ele>
        <time>2026-07-12T10:45:14Z</time>
      </trkpt>
      <trkpt lat="45.76105" lon="6.51945">
        <ele>1663.2</ele>
        <time>2026-07-12T10:45:15Z</time>
      </trkpt>
      <trkpt lat="45.76103" lon="6.5195">
        <ele>1663.2</ele>
        <time>2026-07-12T10:45:16Z</time>
      </trkpt>
      <trkpt lat="45.76102" lon="6.51955">
        <ele>1661.2</ele>
        <time>2026-07-12T10:45:17Z</time>
      </trkpt>
      <trkpt lat="45.76101" lon="6.5196">
        <ele>1661.2</ele>
        <time>2026-07-12T10:45:18Z</time>
      </trkpt>
      <trkpt lat="45.76099" lon="6.51965">
        <ele>1661.2</ele>
        <time>2026-07-12T10:45:19Z</time>
      </trkpt>
      <trkpt lat="45.76097" lon="6.51969">
        <ele>1662.2</ele>
        <time>2026-07-12T10:45:20Z</time>
      </trkpt>
      <trkpt lat="45.76094" lon="6.51974">
        <ele>1662.2</ele>
        <time>2026-07-12T10:45:21Z</time>
      </trkpt>
      <trkpt lat="45.76091" lon="6.51978">
        <ele>1662.2</ele>
        <time>2026-07-12T10:45:22Z</time>
      </trkpt>
      <trkpt lat="45.76088" lon="6.51982">
        <ele>1660.4</ele>
        <time>2026-07-12T10:45:23Z</time>
      </trkpt>
      <trkpt lat="45.76085" lon="6.51987">
        <ele>1660.2</ele>
        <time>2026-07-12T10:45:24Z</time>
      </trkpt>
      <trkpt lat="45.76083" lon="6.51993">
        <ele>1659</ele>
        <time>2026-07-12T10:45:25Z</time>
      </trkpt>
      <trkpt lat="45.7608" lon="6.51998">
        <ele>1659</ele>
        <time>2026-07-12T10:45:26Z</time>
      </trkpt>
      <trkpt lat="45.76076" lon="6.52004">
        <ele>1659</ele>
        <time>2026-07-12T10:45:27Z</time>
      </trkpt>
      <trkpt lat="45.76073" lon="6.52008">
        <ele>1659</ele>
        <time>2026-07-12T10:45:28Z</time>
      </trkpt>
      <trkpt lat="45.76069" lon="6.52012">
        <ele>1659</ele>
        <time>2026-07-12T10:45:29Z</time>
      </trkpt>
      <trkpt lat="45.76066" lon="6.52014">
        <ele>1658.8</ele>
        <time>2026-07-12T10:45:30Z</time>
      </trkpt>
      <trkpt lat="45.76063" lon="6.52016">
        <ele>1658.8</ele>
        <time>2026-07-12T10:45:31Z</time>
      </trkpt>
      <trkpt lat="45.7606" lon="6.52017">
        <ele>1658.8</ele>
        <time>2026-07-12T10:45:32Z</time>
      </trkpt>
      <trkpt lat="45.76057" lon="6.52018">
        <ele>1658.8</ele>
        <time>2026-07-12T10:45:33Z</time>
      </trkpt>
      <trkpt lat="45.76055" lon="6.52019">
        <ele>1658</ele>
        <time>2026-07-12T10:45:34Z</time>
      </trkpt>
      <trkpt lat="45.76052" lon="6.5202">
        <ele>1657.2</ele>
        <time>2026-07-12T10:45:35Z</time>
      </trkpt>
      <trkpt lat="45.7605" lon="6.52021">
        <ele>1657.2</ele>
        <time>2026-07-12T10:45:36Z</time>
      </trkpt>
      <trkpt lat="45.76047" lon="6.52021">
        <ele>1657.2</ele>
        <time>2026-07-12T10:45:37Z</time>
      </trkpt>
      <trkpt lat="45.76044" lon="6.52022">
        <ele>1657.2</ele>
        <time>2026-07-12T10:45:38Z</time>
      </trkpt>
      <trkpt lat="45.76041" lon="6.52024">
        <ele>1656.2</ele>
        <time>2026-07-12T10:45:39Z</time>
      </trkpt>
      <trkpt lat="45.76038" lon="6.52025">
        <ele>1655.8</ele>
        <time>2026-07-12T10:45:40Z</time>
      </trkpt>
      <trkpt lat="45.76034" lon="6.52027">
        <ele>1655.4</ele>
        <time>2026-07-12T10:45:41Z</time>
      </trkpt>
      <trkpt lat="45.7603" lon="6.52028">
        <ele>1655.4</ele>
        <time>2026-07-12T10:45:42Z</time>
      </trkpt>
      <trkpt lat="45.76025" lon="6.5203">
        <ele>1655.4</ele>
        <time>2026-07-12T10:45:43Z</time>
      </trkpt>
      <trkpt lat="45.7602" lon="6.52032">
        <ele>1655.4</ele>
        <time>2026-07-12T10:45:44Z</time>
      </trkpt>
      <trkpt lat="45.76015" lon="6.52034">
        <ele>1655.4</ele>
        <time>2026-07-12T10:45:45Z</time>
      </trkpt>
      <trkpt lat="45.7601" lon="6.52036">
        <ele>1655.4</ele>
        <time>2026-07-12T10:45:46Z</time>
      </trkpt>
      <trkpt lat="45.76005" lon="6.52039">
        <ele>1655.4</ele>
        <time>2026-07-12T10:45:47Z</time>
      </trkpt>
      <trkpt lat="45.76" lon="6.52042">
        <ele>1654.4</ele>
        <time>2026-07-12T10:45:48Z</time>
      </trkpt>
      <trkpt lat="45.75996" lon="6.52043">
        <ele>1653.4</ele>
        <time>2026-07-12T10:45:49Z</time>
      </trkpt>
      <trkpt lat="45.75991" lon="6.52043">
        <ele>1652.6</ele>
        <time>2026-07-12T10:45:50Z</time>
      </trkpt>
      <trkpt lat="45.75985" lon="6.52044">
        <ele>1651.6</ele>
        <time>2026-07-12T10:45:51Z</time>
      </trkpt>
      <trkpt lat="45.7598" lon="6.52045">
        <ele>1651.2</ele>
        <time>2026-07-12T10:45:52Z</time>
      </trkpt>
      <trkpt lat="45.75975" lon="6.52047">
        <ele>1650.2</ele>
        <time>2026-07-12T10:45:53Z</time>
      </trkpt>
      <trkpt lat="45.7597" lon="6.52048">
        <ele>1650.2</ele>
        <time>2026-07-12T10:45:54Z</time>
      </trkpt>
      <trkpt lat="45.75965" lon="6.52051">
        <ele>1650.2</ele>
        <time>2026-07-12T10:45:55Z</time>
      </trkpt>
      <trkpt lat="45.7596" lon="6.52053">
        <ele>1650.2</ele>
        <time>2026-07-12T10:45:56Z</time>
      </trkpt>
      <trkpt lat="45.75954" lon="6.52055">
        <ele>1650.2</ele>
        <time>2026-07-12T10:45:57Z</time>
      </trkpt>
      <trkpt lat="45.75947" lon="6.52057">
        <ele>1650.4</ele>
        <time>2026-07-12T10:45:58Z</time>
      </trkpt>
      <trkpt lat="45.75941" lon="6.5206">
        <ele>1650.4</ele>
        <time>2026-07-12T10:45:59Z</time>
      </trkpt>
      <trkpt lat="45.75936" lon="6.5206">
        <ele>1650.4</ele>
        <time>2026-07-12T10:46:00Z</time>
      </trkpt>
      <trkpt lat="45.7593" lon="6.5206">
        <ele>1650.4</ele>
        <time>2026-07-12T10:46:01Z</time>
      </trkpt>
      <trkpt lat="45.75926" lon="6.52061">
        <ele>1650.4</ele>
        <time>2026-07-12T10:46:02Z</time>
      </trkpt>
      <trkpt lat="45.75924" lon="6.52061">
        <ele>1650.4</ele>
        <time>2026-07-12T10:46:03Z</time>
      </trkpt>
      <trkpt lat="45.75922" lon="6.52062">
        <ele>1650.4</ele>
        <time>2026-07-12T10:46:04Z</time>
      </trkpt>
      <trkpt lat="45.75919" lon="6.52063">
        <ele>1650.4</ele>
        <time>2026-07-12T10:46:05Z</time>
      </trkpt>
      <trkpt lat="45.75915" lon="6.52065">
        <ele>1649.4</ele>
        <time>2026-07-12T10:46:06Z</time>
      </trkpt>
      <trkpt lat="45.75912" lon="6.52066">
        <ele>1648.4</ele>
        <time>2026-07-12T10:46:07Z</time>
      </trkpt>
      <trkpt lat="45.75908" lon="6.52068">
        <ele>1648.4</ele>
        <time>2026-07-12T10:46:08Z</time>
      </trkpt>
      <trkpt lat="45.75904" lon="6.5207">
        <ele>1648.4</ele>
        <time>2026-07-12T10:46:09Z</time>
      </trkpt>
      <trkpt lat="45.75901" lon="6.52072">
        <ele>1648.4</ele>
        <time>2026-07-12T10:46:10Z</time>
      </trkpt>
      <trkpt lat="45.75898" lon="6.52074">
        <ele>1648.4</ele>
        <time>2026-07-12T10:46:11Z</time>
      </trkpt>
      <trkpt lat="45.75894" lon="6.52077">
        <ele>1648.4</ele>
        <time>2026-07-12T10:46:12Z</time>
      </trkpt>
      <trkpt lat="45.75889" lon="6.52081">
        <ele>1648.4</ele>
        <time>2026-07-12T10:46:13Z</time>
      </trkpt>
      <trkpt lat="45.75885" lon="6.52085">
        <ele>1648.4</ele>
        <time>2026-07-12T10:46:14Z</time>
      </trkpt>
      <trkpt lat="45.7588" lon="6.52089">
        <ele>1649.4</ele>
        <time>2026-07-12T10:46:15Z</time>
      </trkpt>
      <trkpt lat="45.75875" lon="6.52092">
        <ele>1649.4</ele>
        <time>2026-07-12T10:46:16Z</time>
      </trkpt>
      <trkpt lat="45.75869" lon="6.52096">
        <ele>1649.4</ele>
        <time>2026-07-12T10:46:17Z</time>
      </trkpt>
      <trkpt lat="45.75864" lon="6.52099">
        <ele>1649.4</ele>
        <time>2026-07-12T10:46:18Z</time>
      </trkpt>
      <trkpt lat="45.7586" lon="6.52103">
        <ele>1649.4</ele>
        <time>2026-07-12T10:46:19Z</time>
      </trkpt>
      <trkpt lat="45.75856" lon="6.52106">
        <ele>1649.4</ele>
        <time>2026-07-12T10:46:20Z</time>
      </trkpt>
      <trkpt lat="45.75852" lon="6.5211">
        <ele>1649.4</ele>
        <time>2026-07-12T10:46:21Z</time>
      </trkpt>
      <trkpt lat="45.75847" lon="6.52114">
        <ele>1649.4</ele>
        <time>2026-07-12T10:46:22Z</time>
      </trkpt>
      <trkpt lat="45.75842" lon="6.52116">
        <ele>1649.4</ele>
        <time>2026-07-12T10:46:23Z</time>
      </trkpt>
      <trkpt lat="45.75838" lon="6.52118">
        <ele>1649.4</ele>
        <time>2026-07-12T10:46:24Z</time>
      </trkpt>
      <trkpt lat="45.75834" lon="6.5212">
        <ele>1649.4</ele>
        <time>2026-07-12T10:46:25Z</time>
      </trkpt>
      <trkpt lat="45.7583" lon="6.52123">
        <ele>1649.4</ele>
        <time>2026-07-12T10:46:26Z</time>
      </trkpt>
      <trkpt lat="45.75827" lon="6.52125">
        <ele>1649.4</ele>
        <time>2026-07-12T10:46:27Z</time>
      </trkpt>
      <trkpt lat="45.75824" lon="6.52127">
        <ele>1649.4</ele>
        <time>2026-07-12T10:46:28Z</time>
      </trkpt>
      <trkpt lat="45.75821" lon="6.52128">
        <ele>1649.4</ele>
        <time>2026-07-12T10:46:29Z</time>
      </trkpt>
      <trkpt lat="45.75818" lon="6.5213">
        <ele>1650.2</ele>
        <time>2026-07-12T10:46:30Z</time>
      </trkpt>
      <trkpt lat="45.75815" lon="6.52132">
        <ele>1650.8</ele>
        <time>2026-07-12T10:46:31Z</time>
      </trkpt>
      <trkpt lat="45.75812" lon="6.52135">
        <ele>1650.8</ele>
        <time>2026-07-12T10:46:32Z</time>
      </trkpt>
      <trkpt lat="45.75809" lon="6.52137">
        <ele>1650.8</ele>
        <time>2026-07-12T10:46:33Z</time>
      </trkpt>
      <trkpt lat="45.75806" lon="6.5214">
        <ele>1649.8</ele>
        <time>2026-07-12T10:46:34Z</time>
      </trkpt>
      <trkpt lat="45.75804" lon="6.52143">
        <ele>1648.8</ele>
        <time>2026-07-12T10:46:35Z</time>
      </trkpt>
      <trkpt lat="45.75802" lon="6.52147">
        <ele>1648.8</ele>
        <time>2026-07-12T10:46:36Z</time>
      </trkpt>
      <trkpt lat="45.758" lon="6.52151">
        <ele>1648.8</ele>
        <time>2026-07-12T10:46:37Z</time>
      </trkpt>
      <trkpt lat="45.75798" lon="6.52156">
        <ele>1648.8</ele>
        <time>2026-07-12T10:46:38Z</time>
      </trkpt>
      <trkpt lat="45.75795" lon="6.52162">
        <ele>1648.8</ele>
        <time>2026-07-12T10:46:39Z</time>
      </trkpt>
      <trkpt lat="45.75792" lon="6.52168">
        <ele>1648.8</ele>
        <time>2026-07-12T10:46:40Z</time>
      </trkpt>
      <trkpt lat="45.75789" lon="6.52174">
        <ele>1648.8</ele>
        <time>2026-07-12T10:46:41Z</time>
      </trkpt>
      <trkpt lat="45.75787" lon="6.52181">
        <ele>1647.8</ele>
        <time>2026-07-12T10:46:42Z</time>
      </trkpt>
      <trkpt lat="45.75785" lon="6.52187">
        <ele>1647.6</ele>
        <time>2026-07-12T10:46:43Z</time>
      </trkpt>
      <trkpt lat="45.75784" lon="6.52193">
        <ele>1647.6</ele>
        <time>2026-07-12T10:46:44Z</time>
      </trkpt>
      <trkpt lat="45.75783" lon="6.52199">
        <ele>1647.6</ele>
        <time>2026-07-12T10:46:45Z</time>
      </trkpt>
      <trkpt lat="45.75781" lon="6.52204">
        <ele>1648.2</ele>
        <time>2026-07-12T10:46:46Z</time>
      </trkpt>
      <trkpt lat="45.75781" lon="6.52209">
        <ele>1648.2</ele>
        <time>2026-07-12T10:46:47Z</time>
      </trkpt>
      <trkpt lat="45.75779" lon="6.52213">
        <ele>1648.2</ele>
        <time>2026-07-12T10:46:48Z</time>
      </trkpt>
      <trkpt lat="45.75779" lon="6.52218">
        <ele>1648.2</ele>
        <time>2026-07-12T10:46:49Z</time>
      </trkpt>
      <trkpt lat="45.75779" lon="6.52223">
        <ele>1648.2</ele>
        <time>2026-07-12T10:46:50Z</time>
      </trkpt>
      <trkpt lat="45.75779" lon="6.52229">
        <ele>1648.2</ele>
        <time>2026-07-12T10:46:51Z</time>
      </trkpt>
      <trkpt lat="45.7578" lon="6.52234">
        <ele>1648.2</ele>
        <time>2026-07-12T10:46:52Z</time>
      </trkpt>
      <trkpt lat="45.7578" lon="6.52239">
        <ele>1648.2</ele>
        <time>2026-07-12T10:46:53Z</time>
      </trkpt>
      <trkpt lat="45.7578" lon="6.52244">
        <ele>1648.2</ele>
        <time>2026-07-12T10:46:54Z</time>
      </trkpt>
      <trkpt lat="45.7578" lon="6.52248">
        <ele>1648.2</ele>
        <time>2026-07-12T10:46:55Z</time>
      </trkpt>
      <trkpt lat="45.75781" lon="6.52252">
        <ele>1647.2</ele>
        <time>2026-07-12T10:46:56Z</time>
      </trkpt>
      <trkpt lat="45.75781" lon="6.52255">
        <ele>1647</ele>
        <time>2026-07-12T10:46:57Z</time>
      </trkpt>
      <trkpt lat="45.75782" lon="6.52259">
        <ele>1646.2</ele>
        <time>2026-07-12T10:46:58Z</time>
      </trkpt>
      <trkpt lat="45.75783" lon="6.52262">
        <ele>1646</ele>
        <time>2026-07-12T10:46:59Z</time>
      </trkpt>
      <trkpt lat="45.75785" lon="6.52264">
        <ele>1645.6</ele>
        <time>2026-07-12T10:47:00Z</time>
      </trkpt>
      <trkpt lat="45.75787" lon="6.52267">
        <ele>1645.4</ele>
        <time>2026-07-12T10:47:01Z</time>
      </trkpt>
      <trkpt lat="45.75788" lon="6.52271">
        <ele>1645.4</ele>
        <time>2026-07-12T10:47:02Z</time>
      </trkpt>
      <trkpt lat="45.7579" lon="6.52276">
        <ele>1645.4</ele>
        <time>2026-07-12T10:47:03Z</time>
      </trkpt>
      <trkpt lat="45.75792" lon="6.52279">
        <ele>1645.4</ele>
        <time>2026-07-12T10:47:04Z</time>
      </trkpt>
      <trkpt lat="45.75795" lon="6.52283">
        <ele>1645.4</ele>
        <time>2026-07-12T10:47:05Z</time>
      </trkpt>
      <trkpt lat="45.75797" lon="6.52286">
        <ele>1644.4</ele>
        <time>2026-07-12T10:47:06Z</time>
      </trkpt>
      <trkpt lat="45.758" lon="6.5229">
        <ele>1644.4</ele>
        <time>2026-07-12T10:47:07Z</time>
      </trkpt>
      <trkpt lat="45.75802" lon="6.52295">
        <ele>1644.4</ele>
        <time>2026-07-12T10:47:08Z</time>
      </trkpt>
      <trkpt lat="45.75804" lon="6.523">
        <ele>1644.4</ele>
        <time>2026-07-12T10:47:09Z</time>
      </trkpt>
      <trkpt lat="45.75806" lon="6.52306">
        <ele>1646.6</ele>
        <time>2026-07-12T10:47:10Z</time>
      </trkpt>
      <trkpt lat="45.75808" lon="6.5231">
        <ele>1646.6</ele>
        <time>2026-07-12T10:47:11Z</time>
      </trkpt>
      <trkpt lat="45.75811" lon="6.52315">
        <ele>1646.6</ele>
        <time>2026-07-12T10:47:12Z</time>
      </trkpt>
      <trkpt lat="45.75814" lon="6.5232">
        <ele>1645.6</ele>
        <time>2026-07-12T10:47:13Z</time>
      </trkpt>
      <trkpt lat="45.75816" lon="6.52325">
        <ele>1645.4</ele>
        <time>2026-07-12T10:47:14Z</time>
      </trkpt>
      <trkpt lat="45.75819" lon="6.5233">
        <ele>1645.8</ele>
        <time>2026-07-12T10:47:15Z</time>
      </trkpt>
      <trkpt lat="45.75821" lon="6.52335">
        <ele>1645.8</ele>
        <time>2026-07-12T10:47:16Z</time>
      </trkpt>
      <trkpt lat="45.75824" lon="6.52341">
        <ele>1645.8</ele>
        <time>2026-07-12T10:47:17Z</time>
      </trkpt>
      <trkpt lat="45.75826" lon="6.52346">
        <ele>1645.8</ele>
        <time>2026-07-12T10:47:18Z</time>
      </trkpt>
      <trkpt lat="45.75828" lon="6.52351">
        <ele>1645.8</ele>
        <time>2026-07-12T10:47:19Z</time>
      </trkpt>
      <trkpt lat="45.75829" lon="6.52357">
        <ele>1645.8</ele>
        <time>2026-07-12T10:47:20Z</time>
      </trkpt>
      <trkpt lat="45.75831" lon="6.52362">
        <ele>1645.8</ele>
        <time>2026-07-12T10:47:21Z</time>
      </trkpt>
      <trkpt lat="45.75832" lon="6.52368">
        <ele>1647</ele>
        <time>2026-07-12T10:47:22Z</time>
      </trkpt>
      <trkpt lat="45.75833" lon="6.52373">
        <ele>1647</ele>
        <time>2026-07-12T10:47:23Z</time>
      </trkpt>
      <trkpt lat="45.75835" lon="6.52378">
        <ele>1647</ele>
        <time>2026-07-12T10:47:24Z</time>
      </trkpt>
      <trkpt lat="45.75835" lon="6.52383">
        <ele>1646</ele>
        <time>2026-07-12T10:47:25Z</time>
      </trkpt>
      <trkpt lat="45.75836" lon="6.52389">
        <ele>1645</ele>
        <time>2026-07-12T10:47:26Z</time>
      </trkpt>
      <trkpt lat="45.75838" lon="6.52395">
        <ele>1644.4</ele>
        <time>2026-07-12T10:47:27Z</time>
      </trkpt>
      <trkpt lat="45.75838" lon="6.52401">
        <ele>1644.4</ele>
        <time>2026-07-12T10:47:28Z</time>
      </trkpt>
      <trkpt lat="45.75839" lon="6.52406">
        <ele>1644.4</ele>
        <time>2026-07-12T10:47:29Z</time>
      </trkpt>
      <trkpt lat="45.75841" lon="6.52412">
        <ele>1644.4</ele>
        <time>2026-07-12T10:47:30Z</time>
      </trkpt>
      <trkpt lat="45.75843" lon="6.52417">
        <ele>1644.4</ele>
        <time>2026-07-12T10:47:31Z</time>
      </trkpt>
      <trkpt lat="45.75845" lon="6.52423">
        <ele>1643.8</ele>
        <time>2026-07-12T10:47:32Z</time>
      </trkpt>
      <trkpt lat="45.75847" lon="6.52428">
        <ele>1643.8</ele>
        <time>2026-07-12T10:47:33Z</time>
      </trkpt>
      <trkpt lat="45.75849" lon="6.52435">
        <ele>1643.8</ele>
        <time>2026-07-12T10:47:34Z</time>
      </trkpt>
      <trkpt lat="45.75851" lon="6.52441">
        <ele>1644.8</ele>
        <time>2026-07-12T10:47:35Z</time>
      </trkpt>
      <trkpt lat="45.75852" lon="6.52448">
        <ele>1644.8</ele>
        <time>2026-07-12T10:47:36Z</time>
      </trkpt>
      <trkpt lat="45.75853" lon="6.52455">
        <ele>1644.8</ele>
        <time>2026-07-12T10:47:37Z</time>
      </trkpt>
      <trkpt lat="45.75854" lon="6.5246">
        <ele>1643.8</ele>
        <time>2026-07-12T10:47:38Z</time>
      </trkpt>
      <trkpt lat="45.75854" lon="6.52465">
        <ele>1642.8</ele>
        <time>2026-07-12T10:47:39Z</time>
      </trkpt>
      <trkpt lat="45.75855" lon="6.52469">
        <ele>1642.8</ele>
        <time>2026-07-12T10:47:40Z</time>
      </trkpt>
      <trkpt lat="45.75855" lon="6.52473">
        <ele>1642.8</ele>
        <time>2026-07-12T10:47:41Z</time>
      </trkpt>
      <trkpt lat="45.75855" lon="6.52477">
        <ele>1642.8</ele>
        <time>2026-07-12T10:47:42Z</time>
      </trkpt>
      <trkpt lat="45.75856" lon="6.52481">
        <ele>1642.4</ele>
        <time>2026-07-12T10:47:43Z</time>
      </trkpt>
      <trkpt lat="45.75855" lon="6.52485">
        <ele>1642.4</ele>
        <time>2026-07-12T10:47:44Z</time>
      </trkpt>
      <trkpt lat="45.75854" lon="6.52489">
        <ele>1642.4</ele>
        <time>2026-07-12T10:47:45Z</time>
      </trkpt>
      <trkpt lat="45.75854" lon="6.52492">
        <ele>1643</ele>
        <time>2026-07-12T10:47:46Z</time>
      </trkpt>
      <trkpt lat="45.75854" lon="6.52496">
        <ele>1643</ele>
        <time>2026-07-12T10:47:47Z</time>
      </trkpt>
      <trkpt lat="45.75853" lon="6.525">
        <ele>1643</ele>
        <time>2026-07-12T10:47:48Z</time>
      </trkpt>
      <trkpt lat="45.75853" lon="6.52504">
        <ele>1642.4</ele>
        <time>2026-07-12T10:47:49Z</time>
      </trkpt>
      <trkpt lat="45.75853" lon="6.52507">
        <ele>1642.2</ele>
        <time>2026-07-12T10:47:50Z</time>
      </trkpt>
      <trkpt lat="45.75853" lon="6.52511">
        <ele>1642.2</ele>
        <time>2026-07-12T10:47:51Z</time>
      </trkpt>
      <trkpt lat="45.75853" lon="6.52515">
        <ele>1642.2</ele>
        <time>2026-07-12T10:47:52Z</time>
      </trkpt>
      <trkpt lat="45.75853" lon="6.52519">
        <ele>1642.2</ele>
        <time>2026-07-12T10:47:53Z</time>
      </trkpt>
      <trkpt lat="45.75852" lon="6.52523">
        <ele>1642.2</ele>
        <time>2026-07-12T10:47:54Z</time>
      </trkpt>
      <trkpt lat="45.75852" lon="6.52528">
        <ele>1642.2</ele>
        <time>2026-07-12T10:47:55Z</time>
      </trkpt>
      <trkpt lat="45.75851" lon="6.52532">
        <ele>1642.2</ele>
        <time>2026-07-12T10:47:56Z</time>
      </trkpt>
      <trkpt lat="45.7585" lon="6.52537">
        <ele>1642.2</ele>
        <time>2026-07-12T10:47:57Z</time>
      </trkpt>
      <trkpt lat="45.75849" lon="6.52541">
        <ele>1642.2</ele>
        <time>2026-07-12T10:47:58Z</time>
      </trkpt>
      <trkpt lat="45.75849" lon="6.52546">
        <ele>1642.2</ele>
        <time>2026-07-12T10:47:59Z</time>
      </trkpt>
      <trkpt lat="45.75849" lon="6.5255">
        <ele>1641.2</ele>
        <time>2026-07-12T10:48:00Z</time>
      </trkpt>
      <trkpt lat="45.75848" lon="6.52554">
        <ele>1640.8</ele>
        <time>2026-07-12T10:48:01Z</time>
      </trkpt>
      <trkpt lat="45.75847" lon="6.52559">
        <ele>1639.8</ele>
        <time>2026-07-12T10:48:02Z</time>
      </trkpt>
      <trkpt lat="45.75846" lon="6.52563">
        <ele>1639.6</ele>
        <time>2026-07-12T10:48:03Z</time>
      </trkpt>
      <trkpt lat="45.75845" lon="6.52568">
        <ele>1639.6</ele>
        <time>2026-07-12T10:48:04Z</time>
      </trkpt>
      <trkpt lat="45.75844" lon="6.52573">
        <ele>1639.6</ele>
        <time>2026-07-12T10:48:05Z</time>
      </trkpt>
      <trkpt lat="45.75844" lon="6.52578">
        <ele>1639.6</ele>
        <time>2026-07-12T10:48:06Z</time>
      </trkpt>
      <trkpt lat="45.75843" lon="6.52583">
        <ele>1639.6</ele>
        <time>2026-07-12T10:48:07Z</time>
      </trkpt>
      <trkpt lat="45.75843" lon="6.52588">
        <ele>1639.6</ele>
        <time>2026-07-12T10:48:08Z</time>
      </trkpt>
      <trkpt lat="45.75842" lon="6.52592">
        <ele>1639.2</ele>
        <time>2026-07-12T10:48:09Z</time>
      </trkpt>
      <trkpt lat="45.75836" lon="6.52607">
        <ele>1640</ele>
        <time>2026-07-12T10:52:03Z</time>
      </trkpt>
      <trkpt lat="45.75836" lon="6.52607">
        <ele>1640.4</ele>
        <time>2026-07-12T10:52:04Z</time>
      </trkpt>
      <trkpt lat="45.75836" lon="6.52607">
        <ele>1640.4</ele>
        <time>2026-07-12T10:52:05Z</time>
      </trkpt>
      <trkpt lat="45.75836" lon="6.52607">
        <ele>1640.6</ele>
        <time>2026-07-12T10:52:06Z</time>
      </trkpt>
      <trkpt lat="45.75835" lon="6.52607">
        <ele>1641</ele>
        <time>2026-07-12T10:52:07Z</time>
      </trkpt>
      <trkpt lat="45.75833" lon="6.52609">
        <ele>1641</ele>
        <time>2026-07-12T10:52:08Z</time>
      </trkpt>
      <trkpt lat="45.75828" lon="6.52616">
        <ele>1641</ele>
        <time>2026-07-12T10:52:21Z</time>
      </trkpt>
      <trkpt lat="45.75828" lon="6.52616">
        <ele>1639.8</ele>
        <time>2026-07-12T10:52:22Z</time>
      </trkpt>
      <trkpt lat="45.75828" lon="6.52616">
        <ele>1639.8</ele>
        <time>2026-07-12T10:52:23Z</time>
      </trkpt>
      <trkpt lat="45.75828" lon="6.52616">
        <ele>1639.8</ele>
        <time>2026-07-12T10:52:24Z</time>
      </trkpt>
      <trkpt lat="45.75828" lon="6.52617">
        <ele>1639.8</ele>
        <time>2026-07-12T10:52:25Z</time>
      </trkpt>
      <trkpt lat="45.75826" lon="6.52619">
        <ele>1639.8</ele>
        <time>2026-07-12T10:52:26Z</time>
      </trkpt>
      <trkpt lat="45.75825" lon="6.52621">
        <ele>1639.8</ele>
        <time>2026-07-12T10:52:27Z</time>
      </trkpt>
      <trkpt lat="45.75824" lon="6.52624">
        <ele>1640.8</ele>
        <time>2026-07-12T10:52:28Z</time>
      </trkpt>
      <trkpt lat="45.75823" lon="6.52626">
        <ele>1641.6</ele>
        <time>2026-07-12T10:52:29Z</time>
      </trkpt>
      <trkpt lat="45.75821" lon="6.52628">
        <ele>1641.8</ele>
        <time>2026-07-12T10:52:30Z</time>
      </trkpt>
      <trkpt lat="45.75819" lon="6.52629">
        <ele>1642.8</ele>
        <time>2026-07-12T10:52:31Z</time>
      </trkpt>
      <trkpt lat="45.75817" lon="6.5263">
        <ele>1642.8</ele>
        <time>2026-07-12T10:52:32Z</time>
      </trkpt>
      <trkpt lat="45.75814" lon="6.52631">
        <ele>1642.8</ele>
        <time>2026-07-12T10:52:33Z</time>
      </trkpt>
      <trkpt lat="45.75812" lon="6.52631">
        <ele>1642.8</ele>
        <time>2026-07-12T10:52:34Z</time>
      </trkpt>
      <trkpt lat="45.75809" lon="6.52632">
        <ele>1642.8</ele>
        <time>2026-07-12T10:52:35Z</time>
      </trkpt>
      <trkpt lat="45.75807" lon="6.52632">
        <ele>1642.8</ele>
        <time>2026-07-12T10:52:36Z</time>
      </trkpt>
      <trkpt lat="45.75805" lon="6.52632">
        <ele>1642.2</ele>
        <time>2026-07-12T10:52:37Z</time>
      </trkpt>
      <trkpt lat="45.75802" lon="6.52633">
        <ele>1642.2</ele>
        <time>2026-07-12T10:52:38Z</time>
      </trkpt>
      <trkpt lat="45.758" lon="6.52634">
        <ele>1642.2</ele>
        <time>2026-07-12T10:52:39Z</time>
      </trkpt>
      <trkpt lat="45.75798" lon="6.52635">
        <ele>1642.2</ele>
        <time>2026-07-12T10:52:40Z</time>
      </trkpt>
      <trkpt lat="45.75796" lon="6.52636">
        <ele>1640.4</ele>
        <time>2026-07-12T10:52:41Z</time>
      </trkpt>
      <trkpt lat="45.75794" lon="6.52637">
        <ele>1640.4</ele>
        <time>2026-07-12T10:52:42Z</time>
      </trkpt>
      <trkpt lat="45.75792" lon="6.52639">
        <ele>1640.4</ele>
        <time>2026-07-12T10:52:43Z</time>
      </trkpt>
      <trkpt lat="45.7579" lon="6.52641">
        <ele>1641.4</ele>
        <time>2026-07-12T10:52:44Z</time>
      </trkpt>
      <trkpt lat="45.75788" lon="6.52643">
        <ele>1642.4</ele>
        <time>2026-07-12T10:52:45Z</time>
      </trkpt>
      <trkpt lat="45.75786" lon="6.52645">
        <ele>1642.4</ele>
        <time>2026-07-12T10:52:46Z</time>
      </trkpt>
      <trkpt lat="45.75784" lon="6.52646">
        <ele>1642.4</ele>
        <time>2026-07-12T10:52:47Z</time>
      </trkpt>
      <trkpt lat="45.75782" lon="6.52647">
        <ele>1642.4</ele>
        <time>2026-07-12T10:52:48Z</time>
      </trkpt>
      <trkpt lat="45.75779" lon="6.52649">
        <ele>1643.2</ele>
        <time>2026-07-12T10:52:49Z</time>
      </trkpt>
      <trkpt lat="45.75777" lon="6.52649">
        <ele>1643.2</ele>
        <time>2026-07-12T10:52:50Z</time>
      </trkpt>
      <trkpt lat="45.75775" lon="6.5265">
        <ele>1643.2</ele>
        <time>2026-07-12T10:52:51Z</time>
      </trkpt>
      <trkpt lat="45.75774" lon="6.52651">
        <ele>1643.2</ele>
        <time>2026-07-12T10:52:52Z</time>
      </trkpt>
      <trkpt lat="45.75772" lon="6.52652">
        <ele>1643.2</ele>
        <time>2026-07-12T10:52:53Z</time>
      </trkpt>
      <trkpt lat="45.75771" lon="6.52654">
        <ele>1643.2</ele>
        <time>2026-07-12T10:52:54Z</time>
      </trkpt>
      <trkpt lat="45.75769" lon="6.52655">
        <ele>1643.4</ele>
        <time>2026-07-12T10:52:55Z</time>
      </trkpt>
      <trkpt lat="45.75766" lon="6.52656">
        <ele>1643.4</ele>
        <time>2026-07-12T10:52:56Z</time>
      </trkpt>
      <trkpt lat="45.75764" lon="6.52657">
        <ele>1643.4</ele>
        <time>2026-07-12T10:52:57Z</time>
      </trkpt>
      <trkpt lat="45.75762" lon="6.52658">
        <ele>1643.4</ele>
        <time>2026-07-12T10:52:58Z</time>
      </trkpt>
      <trkpt lat="45.7576" lon="6.52658">
        <ele>1644</ele>
        <time>2026-07-12T10:52:59Z</time>
      </trkpt>
      <trkpt lat="45.75759" lon="6.52659">
        <ele>1644</ele>
        <time>2026-07-12T10:53:00Z</time>
      </trkpt>
      <trkpt lat="45.75757" lon="6.5266">
        <ele>1644</ele>
        <time>2026-07-12T10:53:01Z</time>
      </trkpt>
      <trkpt lat="45.75755" lon="6.52661">
        <ele>1644</ele>
        <time>2026-07-12T10:53:02Z</time>
      </trkpt>
      <trkpt lat="45.75754" lon="6.52663">
        <ele>1644</ele>
        <time>2026-07-12T10:53:03Z</time>
      </trkpt>
      <trkpt lat="45.75752" lon="6.52665">
        <ele>1644</ele>
        <time>2026-07-12T10:53:04Z</time>
      </trkpt>
      <trkpt lat="45.75751" lon="6.52665">
        <ele>1644</ele>
        <time>2026-07-12T10:53:05Z</time>
      </trkpt>
      <trkpt lat="45.75749" lon="6.52666">
        <ele>1644.8</ele>
        <time>2026-07-12T10:53:06Z</time>
      </trkpt>
      <trkpt lat="45.75747" lon="6.52667">
        <ele>1644.8</ele>
        <time>2026-07-12T10:53:07Z</time>
      </trkpt>
      <trkpt lat="45.75746" lon="6.52667">
        <ele>1644.8</ele>
        <time>2026-07-12T10:53:08Z</time>
      </trkpt>
      <trkpt lat="45.75744" lon="6.52668">
        <ele>1644.4</ele>
        <time>2026-07-12T10:53:09Z</time>
      </trkpt>
      <trkpt lat="45.75743" lon="6.52669">
        <ele>1644</ele>
        <time>2026-07-12T10:53:10Z</time>
      </trkpt>
      <trkpt lat="45.75741" lon="6.52669">
        <ele>1644</ele>
        <time>2026-07-12T10:53:11Z</time>
      </trkpt>
      <trkpt lat="45.75739" lon="6.52669">
        <ele>1644</ele>
        <time>2026-07-12T10:53:12Z</time>
      </trkpt>
      <trkpt lat="45.75737" lon="6.5267">
        <ele>1644.2</ele>
        <time>2026-07-12T10:53:13Z</time>
      </trkpt>
      <trkpt lat="45.75735" lon="6.52671">
        <ele>1644.2</ele>
        <time>2026-07-12T10:53:14Z</time>
      </trkpt>
      <trkpt lat="45.75733" lon="6.52671">
        <ele>1644.4</ele>
        <time>2026-07-12T10:53:15Z</time>
      </trkpt>
      <trkpt lat="45.75732" lon="6.52672">
        <ele>1644.4</ele>
        <time>2026-07-12T10:53:16Z</time>
      </trkpt>
      <trkpt lat="45.7573" lon="6.52672">
        <ele>1644.4</ele>
        <time>2026-07-12T10:53:17Z</time>
      </trkpt>
      <trkpt lat="45.75729" lon="6.52673">
        <ele>1644.4</ele>
        <time>2026-07-12T10:53:18Z</time>
      </trkpt>
      <trkpt lat="45.75728" lon="6.52673">
        <ele>1644.4</ele>
        <time>2026-07-12T10:53:19Z</time>
      </trkpt>
      <trkpt lat="45.75726" lon="6.52673">
        <ele>1644.4</ele>
        <time>2026-07-12T10:53:20Z</time>
      </trkpt>
      <trkpt lat="45.75725" lon="6.52673">
        <ele>1644</ele>
        <time>2026-07-12T10:53:21Z</time>
      </trkpt>
      <trkpt lat="45.75724" lon="6.52673">
        <ele>1644</ele>
        <time>2026-07-12T10:53:22Z</time>
      </trkpt>
      <trkpt lat="45.75723" lon="6.52673">
        <ele>1644</ele>
        <time>2026-07-12T10:53:23Z</time>
      </trkpt>
      <trkpt lat="45.75722" lon="6.52673">
        <ele>1644.6</ele>
        <time>2026-07-12T10:53:24Z</time>
      </trkpt>
      <trkpt lat="45.75721" lon="6.52673">
        <ele>1645.4</ele>
        <time>2026-07-12T10:53:25Z</time>
      </trkpt>
      <trkpt lat="45.7572" lon="6.52673">
        <ele>1645.4</ele>
        <time>2026-07-12T10:53:26Z</time>
      </trkpt>
      <trkpt lat="45.75718" lon="6.52673">
        <ele>1645.4</ele>
        <time>2026-07-12T10:53:27Z</time>
      </trkpt>
      <trkpt lat="45.75716" lon="6.52673">
        <ele>1645.4</ele>
        <time>2026-07-12T10:53:28Z</time>
      </trkpt>
      <trkpt lat="45.75713" lon="6.52673">
        <ele>1646.2</ele>
        <time>2026-07-12T10:53:29Z</time>
      </trkpt>
      <trkpt lat="45.75711" lon="6.52673">
        <ele>1646.2</ele>
        <time>2026-07-12T10:53:30Z</time>
      </trkpt>
      <trkpt lat="45.75708" lon="6.52673">
        <ele>1647.2</ele>
        <time>2026-07-12T10:53:31Z</time>
      </trkpt>
      <trkpt lat="45.75706" lon="6.52672">
        <ele>1648.2</ele>
        <time>2026-07-12T10:53:32Z</time>
      </trkpt>
      <trkpt lat="45.75704" lon="6.52672">
        <ele>1648.2</ele>
        <time>2026-07-12T10:53:33Z</time>
      </trkpt>
      <trkpt lat="45.75702" lon="6.52672">
        <ele>1648.2</ele>
        <time>2026-07-12T10:53:34Z</time>
      </trkpt>
      <trkpt lat="45.757" lon="6.52672">
        <ele>1648.2</ele>
        <time>2026-07-12T10:53:35Z</time>
      </trkpt>
      <trkpt lat="45.75698" lon="6.52673">
        <ele>1648.2</ele>
        <time>2026-07-12T10:53:36Z</time>
      </trkpt>
      <trkpt lat="45.75695" lon="6.52673">
        <ele>1649</ele>
        <time>2026-07-12T10:53:37Z</time>
      </trkpt>
      <trkpt lat="45.75693" lon="6.52674">
        <ele>1649</ele>
        <time>2026-07-12T10:53:38Z</time>
      </trkpt>
      <trkpt lat="45.7569" lon="6.52675">
        <ele>1649</ele>
        <time>2026-07-12T10:53:39Z</time>
      </trkpt>
      <trkpt lat="45.75688" lon="6.52676">
        <ele>1649</ele>
        <time>2026-07-12T10:53:40Z</time>
      </trkpt>
      <trkpt lat="45.75686" lon="6.52677">
        <ele>1649.8</ele>
        <time>2026-07-12T10:53:41Z</time>
      </trkpt>
      <trkpt lat="45.75683" lon="6.52677">
        <ele>1650.2</ele>
        <time>2026-07-12T10:53:42Z</time>
      </trkpt>
      <trkpt lat="45.75681" lon="6.52677">
        <ele>1650.2</ele>
        <time>2026-07-12T10:53:43Z</time>
      </trkpt>
      <trkpt lat="45.75679" lon="6.52676">
        <ele>1650.2</ele>
        <time>2026-07-12T10:53:44Z</time>
      </trkpt>
      <trkpt lat="45.75677" lon="6.52675">
        <ele>1651.2</ele>
        <time>2026-07-12T10:53:45Z</time>
      </trkpt>
      <trkpt lat="45.75674" lon="6.52674">
        <ele>1651.2</ele>
        <time>2026-07-12T10:53:46Z</time>
      </trkpt>
      <trkpt lat="45.75671" lon="6.52676">
        <ele>1652.4</ele>
        <time>2026-07-12T10:53:47Z</time>
      </trkpt>
      <trkpt lat="45.75668" lon="6.52676">
        <ele>1652.4</ele>
        <time>2026-07-12T10:53:48Z</time>
      </trkpt>
      <trkpt lat="45.75666" lon="6.52677">
        <ele>1652.4</ele>
        <time>2026-07-12T10:53:49Z</time>
      </trkpt>
      <trkpt lat="45.75662" lon="6.52677">
        <ele>1651.8</ele>
        <time>2026-07-12T10:53:50Z</time>
      </trkpt>
      <trkpt lat="45.7566" lon="6.52677">
        <ele>1651.2</ele>
        <time>2026-07-12T10:53:51Z</time>
      </trkpt>
      <trkpt lat="45.75657" lon="6.52677">
        <ele>1651.2</ele>
        <time>2026-07-12T10:53:52Z</time>
      </trkpt>
      <trkpt lat="45.75655" lon="6.52677">
        <ele>1651.2</ele>
        <time>2026-07-12T10:53:53Z</time>
      </trkpt>
      <trkpt lat="45.75653" lon="6.52677">
        <ele>1652.6</ele>
        <time>2026-07-12T10:53:54Z</time>
      </trkpt>
      <trkpt lat="45.75651" lon="6.52676">
        <ele>1652.6</ele>
        <time>2026-07-12T10:53:55Z</time>
      </trkpt>
      <trkpt lat="45.75648" lon="6.52676">
        <ele>1652.6</ele>
        <time>2026-07-12T10:53:56Z</time>
      </trkpt>
      <trkpt lat="45.75646" lon="6.52676">
        <ele>1652.6</ele>
        <time>2026-07-12T10:53:57Z</time>
      </trkpt>
      <trkpt lat="45.75643" lon="6.52677">
        <ele>1653.4</ele>
        <time>2026-07-12T10:53:58Z</time>
      </trkpt>
      <trkpt lat="45.7564" lon="6.52677">
        <ele>1653.4</ele>
        <time>2026-07-12T10:53:59Z</time>
      </trkpt>
      <trkpt lat="45.75637" lon="6.52678">
        <ele>1653.4</ele>
        <time>2026-07-12T10:54:00Z</time>
      </trkpt>
      <trkpt lat="45.75635" lon="6.52679">
        <ele>1653.4</ele>
        <time>2026-07-12T10:54:01Z</time>
      </trkpt>
      <trkpt lat="45.75632" lon="6.52681">
        <ele>1653.4</ele>
        <time>2026-07-12T10:54:02Z</time>
      </trkpt>
      <trkpt lat="45.75629" lon="6.52682">
        <ele>1653.4</ele>
        <time>2026-07-12T10:54:03Z</time>
      </trkpt>
      <trkpt lat="45.75627" lon="6.52683">
        <ele>1653.4</ele>
        <time>2026-07-12T10:54:04Z</time>
      </trkpt>
      <trkpt lat="45.75624" lon="6.52684">
        <ele>1653.4</ele>
        <time>2026-07-12T10:54:05Z</time>
      </trkpt>
      <trkpt lat="45.75621" lon="6.52684">
        <ele>1654.4</ele>
        <time>2026-07-12T10:54:06Z</time>
      </trkpt>
      <trkpt lat="45.75619" lon="6.52686">
        <ele>1654.4</ele>
        <time>2026-07-12T10:54:07Z</time>
      </trkpt>
      <trkpt lat="45.75616" lon="6.52686">
        <ele>1654.4</ele>
        <time>2026-07-12T10:54:08Z</time>
      </trkpt>
      <trkpt lat="45.75614" lon="6.52687">
        <ele>1653.2</ele>
        <time>2026-07-12T10:54:09Z</time>
      </trkpt>
      <trkpt lat="45.75612" lon="6.52688">
        <ele>1653.2</ele>
        <time>2026-07-12T10:54:10Z</time>
      </trkpt>
      <trkpt lat="45.75609" lon="6.52688">
        <ele>1653.2</ele>
        <time>2026-07-12T10:54:11Z</time>
      </trkpt>
      <trkpt lat="45.75607" lon="6.52688">
        <ele>1654.2</ele>
        <time>2026-07-12T10:54:12Z</time>
      </trkpt>
      <trkpt lat="45.75606" lon="6.52689">
        <ele>1655.2</ele>
        <time>2026-07-12T10:54:13Z</time>
      </trkpt>
      <trkpt lat="45.75605" lon="6.5269">
        <ele>1655.2</ele>
        <time>2026-07-12T10:54:14Z</time>
      </trkpt>
      <trkpt lat="45.75603" lon="6.5269">
        <ele>1655.2</ele>
        <time>2026-07-12T10:54:15Z</time>
      </trkpt>
      <trkpt lat="45.75602" lon="6.52689">
        <ele>1655.2</ele>
        <time>2026-07-12T10:54:16Z</time>
      </trkpt>
      <trkpt lat="45.75599" lon="6.52687">
        <ele>1655.2</ele>
        <time>2026-07-12T10:54:17Z</time>
      </trkpt>
      <trkpt lat="45.75597" lon="6.52687">
        <ele>1655.2</ele>
        <time>2026-07-12T10:54:18Z</time>
      </trkpt>
      <trkpt lat="45.75595" lon="6.52686">
        <ele>1655.4</ele>
        <time>2026-07-12T10:54:19Z</time>
      </trkpt>
      <trkpt lat="45.75593" lon="6.52687">
        <ele>1656.4</ele>
        <time>2026-07-12T10:54:20Z</time>
      </trkpt>
      <trkpt lat="45.75592" lon="6.52687">
        <ele>1657.4</ele>
        <time>2026-07-12T10:54:21Z</time>
      </trkpt>
      <trkpt lat="45.7559" lon="6.52685">
        <ele>1657.4</ele>
        <time>2026-07-12T10:54:22Z</time>
      </trkpt>
      <trkpt lat="45.75589" lon="6.52682">
        <ele>1658.4</ele>
        <time>2026-07-12T10:54:23Z</time>
      </trkpt>
      <trkpt lat="45.75589" lon="6.5268">
        <ele>1658.4</ele>
        <time>2026-07-12T10:54:24Z</time>
      </trkpt>
      <trkpt lat="45.75589" lon="6.52678">
        <ele>1658.4</ele>
        <time>2026-07-12T10:54:25Z</time>
      </trkpt>
      <trkpt lat="45.75589" lon="6.52675">
        <ele>1659</ele>
        <time>2026-07-12T10:54:26Z</time>
      </trkpt>
      <trkpt lat="45.7559" lon="6.52673">
        <ele>1659</ele>
        <time>2026-07-12T10:54:27Z</time>
      </trkpt>
      <trkpt lat="45.75591" lon="6.52672">
        <ele>1659.4</ele>
        <time>2026-07-12T10:54:28Z</time>
      </trkpt>
      <trkpt lat="45.75593" lon="6.52671">
        <ele>1659.8</ele>
        <time>2026-07-12T10:54:29Z</time>
      </trkpt>
      <trkpt lat="45.75595" lon="6.52669">
        <ele>1659.8</ele>
        <time>2026-07-12T10:54:30Z</time>
      </trkpt>
      <trkpt lat="45.75597" lon="6.52668">
        <ele>1659.8</ele>
        <time>2026-07-12T10:54:31Z</time>
      </trkpt>
      <trkpt lat="45.75599" lon="6.52666">
        <ele>1659.8</ele>
        <time>2026-07-12T10:54:32Z</time>
      </trkpt>
      <trkpt lat="45.756" lon="6.52664">
        <ele>1660.8</ele>
        <time>2026-07-12T10:54:33Z</time>
      </trkpt>
      <trkpt lat="45.75602" lon="6.52662">
        <ele>1660.8</ele>
        <time>2026-07-12T10:54:34Z</time>
      </trkpt>
      <trkpt lat="45.75603" lon="6.52659">
        <ele>1660.8</ele>
        <time>2026-07-12T10:54:35Z</time>
      </trkpt>
      <trkpt lat="45.75605" lon="6.52656">
        <ele>1660.8</ele>
        <time>2026-07-12T10:54:36Z</time>
      </trkpt>
      <trkpt lat="45.75605" lon="6.52654">
        <ele>1661.8</ele>
        <time>2026-07-12T10:54:37Z</time>
      </trkpt>
      <trkpt lat="45.75606" lon="6.52651">
        <ele>1662.8</ele>
        <time>2026-07-12T10:54:38Z</time>
      </trkpt>
      <trkpt lat="45.75606" lon="6.52648">
        <ele>1663.4</ele>
        <time>2026-07-12T10:54:39Z</time>
      </trkpt>
      <trkpt lat="45.75604" lon="6.52646">
        <ele>1664.4</ele>
        <time>2026-07-12T10:54:40Z</time>
      </trkpt>
      <trkpt lat="45.75602" lon="6.52645">
        <ele>1664.4</ele>
        <time>2026-07-12T10:54:41Z</time>
      </trkpt>
      <trkpt lat="45.75599" lon="6.52645">
        <ele>1664.4</ele>
        <time>2026-07-12T10:54:42Z</time>
      </trkpt>
      <trkpt lat="45.75597" lon="6.52644">
        <ele>1663.8</ele>
        <time>2026-07-12T10:54:43Z</time>
      </trkpt>
      <trkpt lat="45.75595" lon="6.52643">
        <ele>1663.8</ele>
        <time>2026-07-12T10:54:44Z</time>
      </trkpt>
      <trkpt lat="45.75593" lon="6.52641">
        <ele>1663.8</ele>
        <time>2026-07-12T10:54:45Z</time>
      </trkpt>
      <trkpt lat="45.75591" lon="6.52639">
        <ele>1665.8</ele>
        <time>2026-07-12T10:54:46Z</time>
      </trkpt>
      <trkpt lat="45.75589" lon="6.52638">
        <ele>1665.8</ele>
        <time>2026-07-12T10:54:47Z</time>
      </trkpt>
      <trkpt lat="45.75587" lon="6.52636">
        <ele>1665.8</ele>
        <time>2026-07-12T10:54:48Z</time>
      </trkpt>
      <trkpt lat="45.75586" lon="6.52634">
        <ele>1665.8</ele>
        <time>2026-07-12T10:54:49Z</time>
      </trkpt>
      <trkpt lat="45.75584" lon="6.52631">
        <ele>1666.8</ele>
        <time>2026-07-12T10:54:50Z</time>
      </trkpt>
      <trkpt lat="45.75583" lon="6.52629">
        <ele>1667.8</ele>
        <time>2026-07-12T10:54:51Z</time>
      </trkpt>
      <trkpt lat="45.75581" lon="6.52628">
        <ele>1668.8</ele>
        <time>2026-07-12T10:54:52Z</time>
      </trkpt>
      <trkpt lat="45.75579" lon="6.52627">
        <ele>1668.8</ele>
        <time>2026-07-12T10:54:53Z</time>
      </trkpt>
      <trkpt lat="45.75577" lon="6.52625">
        <ele>1668.8</ele>
        <time>2026-07-12T10:54:54Z</time>
      </trkpt>
      <trkpt lat="45.75575" lon="6.52623">
        <ele>1668.8</ele>
        <time>2026-07-12T10:54:55Z</time>
      </trkpt>
      <trkpt lat="45.75574" lon="6.52622">
        <ele>1670.6</ele>
        <time>2026-07-12T10:54:56Z</time>
      </trkpt>
      <trkpt lat="45.75572" lon="6.5262">
        <ele>1670.6</ele>
        <time>2026-07-12T10:54:57Z</time>
      </trkpt>
      <trkpt lat="45.7557" lon="6.52618">
        <ele>1670.6</ele>
        <time>2026-07-12T10:54:58Z</time>
      </trkpt>
      <trkpt lat="45.75568" lon="6.52616">
        <ele>1670.6</ele>
        <time>2026-07-12T10:54:59Z</time>
      </trkpt>
      <trkpt lat="45.75568" lon="6.52614">
        <ele>1670.8</ele>
        <time>2026-07-12T10:55:00Z</time>
      </trkpt>
      <trkpt lat="45.75567" lon="6.52612">
        <ele>1671</ele>
        <time>2026-07-12T10:55:01Z</time>
      </trkpt>
      <trkpt lat="45.75566" lon="6.52609">
        <ele>1672</ele>
        <time>2026-07-12T10:55:02Z</time>
      </trkpt>
      <trkpt lat="45.75565" lon="6.52607">
        <ele>1672</ele>
        <time>2026-07-12T10:55:03Z</time>
      </trkpt>
      <trkpt lat="45.75565" lon="6.52604">
        <ele>1672</ele>
        <time>2026-07-12T10:55:04Z</time>
      </trkpt>
      <trkpt lat="45.75564" lon="6.52601">
        <ele>1672</ele>
        <time>2026-07-12T10:55:05Z</time>
      </trkpt>
      <trkpt lat="45.75563" lon="6.52599">
        <ele>1672.6</ele>
        <time>2026-07-12T10:55:06Z</time>
      </trkpt>
      <trkpt lat="45.75561" lon="6.52597">
        <ele>1673</ele>
        <time>2026-07-12T10:55:07Z</time>
      </trkpt>
      <trkpt lat="45.7556" lon="6.52597">
        <ele>1673.8</ele>
        <time>2026-07-12T10:55:08Z</time>
      </trkpt>
      <trkpt lat="45.75557" lon="6.52597">
        <ele>1673.8</ele>
        <time>2026-07-12T10:55:09Z</time>
      </trkpt>
      <trkpt lat="45.75555" lon="6.52596">
        <ele>1673.8</ele>
        <time>2026-07-12T10:55:10Z</time>
      </trkpt>
      <trkpt lat="45.75552" lon="6.52597">
        <ele>1673.8</ele>
        <time>2026-07-12T10:55:11Z</time>
      </trkpt>
      <trkpt lat="45.7555" lon="6.52597">
        <ele>1673.8</ele>
        <time>2026-07-12T10:55:12Z</time>
      </trkpt>
      <trkpt lat="45.75547" lon="6.52597">
        <ele>1673.8</ele>
        <time>2026-07-12T10:55:13Z</time>
      </trkpt>
      <trkpt lat="45.75545" lon="6.52597">
        <ele>1674.8</ele>
        <time>2026-07-12T10:55:14Z</time>
      </trkpt>
      <trkpt lat="45.75542" lon="6.52597">
        <ele>1675.8</ele>
        <time>2026-07-12T10:55:15Z</time>
      </trkpt>
      <trkpt lat="45.7554" lon="6.52597">
        <ele>1675.8</ele>
        <time>2026-07-12T10:55:16Z</time>
      </trkpt>
      <trkpt lat="45.75537" lon="6.52596">
        <ele>1675.8</ele>
        <time>2026-07-12T10:55:17Z</time>
      </trkpt>
      <trkpt lat="45.75536" lon="6.52594">
        <ele>1675.8</ele>
        <time>2026-07-12T10:55:18Z</time>
      </trkpt>
      <trkpt lat="45.75535" lon="6.52592">
        <ele>1677.2</ele>
        <time>2026-07-12T10:55:19Z</time>
      </trkpt>
      <trkpt lat="45.75535" lon="6.52588">
        <ele>1677.4</ele>
        <time>2026-07-12T10:55:20Z</time>
      </trkpt>
      <trkpt lat="45.75535" lon="6.52585">
        <ele>1677.8</ele>
        <time>2026-07-12T10:55:21Z</time>
      </trkpt>
      <trkpt lat="45.75535" lon="6.52583">
        <ele>1677.8</ele>
        <time>2026-07-12T10:55:22Z</time>
      </trkpt>
      <trkpt lat="45.75536" lon="6.5258">
        <ele>1677.8</ele>
        <time>2026-07-12T10:55:23Z</time>
      </trkpt>
      <trkpt lat="45.75537" lon="6.52578">
        <ele>1677.8</ele>
        <time>2026-07-12T10:55:24Z</time>
      </trkpt>
      <trkpt lat="45.75538" lon="6.52575">
        <ele>1678.8</ele>
        <time>2026-07-12T10:55:25Z</time>
      </trkpt>
      <trkpt lat="45.7554" lon="6.52572">
        <ele>1678.8</ele>
        <time>2026-07-12T10:55:26Z</time>
      </trkpt>
      <trkpt lat="45.75541" lon="6.52569">
        <ele>1678.8</ele>
        <time>2026-07-12T10:55:27Z</time>
      </trkpt>
      <trkpt lat="45.75543" lon="6.52568">
        <ele>1678.6</ele>
        <time>2026-07-12T10:55:28Z</time>
      </trkpt>
      <trkpt lat="45.75544" lon="6.52566">
        <ele>1678.2</ele>
        <time>2026-07-12T10:55:29Z</time>
      </trkpt>
      <trkpt lat="45.75545" lon="6.52563">
        <ele>1678.2</ele>
        <time>2026-07-12T10:55:30Z</time>
      </trkpt>
      <trkpt lat="45.75547" lon="6.5256">
        <ele>1678.2</ele>
        <time>2026-07-12T10:55:31Z</time>
      </trkpt>
      <trkpt lat="45.75548" lon="6.52558">
        <ele>1679.2</ele>
        <time>2026-07-12T10:55:32Z</time>
      </trkpt>
      <trkpt lat="45.75549" lon="6.52555">
        <ele>1679.2</ele>
        <time>2026-07-12T10:55:33Z</time>
      </trkpt>
      <trkpt lat="45.75551" lon="6.52553">
        <ele>1679.2</ele>
        <time>2026-07-12T10:55:34Z</time>
      </trkpt>
      <trkpt lat="45.75552" lon="6.52551">
        <ele>1678.8</ele>
        <time>2026-07-12T10:55:35Z</time>
      </trkpt>
      <trkpt lat="45.75553" lon="6.52549">
        <ele>1678.8</ele>
        <time>2026-07-12T10:55:36Z</time>
      </trkpt>
      <trkpt lat="45.75554" lon="6.52546">
        <ele>1678.8</ele>
        <time>2026-07-12T10:55:37Z</time>
      </trkpt>
      <trkpt lat="45.75555" lon="6.52543">
        <ele>1678.8</ele>
        <time>2026-07-12T10:55:38Z</time>
      </trkpt>
      <trkpt lat="45.75556" lon="6.5254">
        <ele>1679.8</ele>
        <time>2026-07-12T10:55:39Z</time>
      </trkpt>
      <trkpt lat="45.75557" lon="6.52537">
        <ele>1679.8</ele>
        <time>2026-07-12T10:55:40Z</time>
      </trkpt>
      <trkpt lat="45.75558" lon="6.52534">
        <ele>1679.8</ele>
        <time>2026-07-12T10:55:41Z</time>
      </trkpt>
      <trkpt lat="45.75559" lon="6.52531">
        <ele>1679</ele>
        <time>2026-07-12T10:55:42Z</time>
      </trkpt>
      <trkpt lat="45.7556" lon="6.52528">
        <ele>1679</ele>
        <time>2026-07-12T10:55:43Z</time>
      </trkpt>
      <trkpt lat="45.7556" lon="6.52525">
        <ele>1679</ele>
        <time>2026-07-12T10:55:44Z</time>
      </trkpt>
      <trkpt lat="45.75561" lon="6.52523">
        <ele>1679.6</ele>
        <time>2026-07-12T10:55:45Z</time>
      </trkpt>
      <trkpt lat="45.75562" lon="6.5252">
        <ele>1679.6</ele>
        <time>2026-07-12T10:55:46Z</time>
      </trkpt>
      <trkpt lat="45.75562" lon="6.52518">
        <ele>1679.6</ele>
        <time>2026-07-12T10:55:47Z</time>
      </trkpt>
      <trkpt lat="45.75563" lon="6.52516">
        <ele>1679.6</ele>
        <time>2026-07-12T10:55:48Z</time>
      </trkpt>
      <trkpt lat="45.75564" lon="6.52514">
        <ele>1679.6</ele>
        <time>2026-07-12T10:55:49Z</time>
      </trkpt>
      <trkpt lat="45.75564" lon="6.52512">
        <ele>1679.6</ele>
        <time>2026-07-12T10:55:50Z</time>
      </trkpt>
      <trkpt lat="45.75566" lon="6.52511">
        <ele>1680</ele>
        <time>2026-07-12T10:55:51Z</time>
      </trkpt>
      <trkpt lat="45.75567" lon="6.52509">
        <ele>1680</ele>
        <time>2026-07-12T10:55:52Z</time>
      </trkpt>
      <trkpt lat="45.75567" lon="6.52507">
        <ele>1680</ele>
        <time>2026-07-12T10:55:53Z</time>
      </trkpt>
      <trkpt lat="45.75565" lon="6.525">
        <ele>1681.4</ele>
        <time>2026-07-12T10:56:12Z</time>
      </trkpt>
      <trkpt lat="45.75565" lon="6.525">
        <ele>1682.2</ele>
        <time>2026-07-12T10:56:13Z</time>
      </trkpt>
      <trkpt lat="45.75565" lon="6.525">
        <ele>1682.2</ele>
        <time>2026-07-12T10:56:14Z</time>
      </trkpt>
      <trkpt lat="45.75565" lon="6.525">
        <ele>1682.2</ele>
        <time>2026-07-12T10:56:15Z</time>
      </trkpt>
      <trkpt lat="45.75565" lon="6.52501">
        <ele>1682.2</ele>
        <time>2026-07-12T10:56:16Z</time>
      </trkpt>
      <trkpt lat="45.75563" lon="6.52502">
        <ele>1682.2</ele>
        <time>2026-07-12T10:56:17Z</time>
      </trkpt>
      <trkpt lat="45.75561" lon="6.52503">
        <ele>1682.2</ele>
        <time>2026-07-12T10:56:18Z</time>
      </trkpt>
      <trkpt lat="45.75559" lon="6.52504">
        <ele>1682.6</ele>
        <time>2026-07-12T10:56:19Z</time>
      </trkpt>
      <trkpt lat="45.75557" lon="6.52505">
        <ele>1682.8</ele>
        <time>2026-07-12T10:56:20Z</time>
      </trkpt>
      <trkpt lat="45.75556" lon="6.52508">
        <ele>1683.2</ele>
        <time>2026-07-12T10:56:21Z</time>
      </trkpt>
      <trkpt lat="45.75554" lon="6.5251">
        <ele>1683.8</ele>
        <time>2026-07-12T10:56:22Z</time>
      </trkpt>
      <trkpt lat="45.75552" lon="6.52513">
        <ele>1683.8</ele>
        <time>2026-07-12T10:56:23Z</time>
      </trkpt>
      <trkpt lat="45.75551" lon="6.52515">
        <ele>1683.8</ele>
        <time>2026-07-12T10:56:24Z</time>
      </trkpt>
      <trkpt lat="45.75549" lon="6.52518">
        <ele>1683.8</ele>
        <time>2026-07-12T10:56:25Z</time>
      </trkpt>
      <trkpt lat="45.75547" lon="6.5252">
        <ele>1683.8</ele>
        <time>2026-07-12T10:56:26Z</time>
      </trkpt>
      <trkpt lat="45.75544" lon="6.52521">
        <ele>1683.8</ele>
        <time>2026-07-12T10:56:27Z</time>
      </trkpt>
      <trkpt lat="45.75542" lon="6.52522">
        <ele>1684.8</ele>
        <time>2026-07-12T10:56:28Z</time>
      </trkpt>
      <trkpt lat="45.7554" lon="6.52523">
        <ele>1685</ele>
        <time>2026-07-12T10:56:29Z</time>
      </trkpt>
      <trkpt lat="45.75538" lon="6.52525">
        <ele>1685</ele>
        <time>2026-07-12T10:56:30Z</time>
      </trkpt>
      <trkpt lat="45.75537" lon="6.52525">
        <ele>1685</ele>
        <time>2026-07-12T10:56:31Z</time>
      </trkpt>
      <trkpt lat="45.75534" lon="6.52525">
        <ele>1685</ele>
        <time>2026-07-12T10:56:32Z</time>
      </trkpt>
      <trkpt lat="45.75533" lon="6.52524">
        <ele>1685</ele>
        <time>2026-07-12T10:56:33Z</time>
      </trkpt>
      <trkpt lat="45.75532" lon="6.52523">
        <ele>1685</ele>
        <time>2026-07-12T10:56:34Z</time>
      </trkpt>
      <trkpt lat="45.7553" lon="6.52524">
        <ele>1685</ele>
        <time>2026-07-12T10:56:35Z</time>
      </trkpt>
      <trkpt lat="45.75528" lon="6.52524">
        <ele>1685</ele>
        <time>2026-07-12T10:56:36Z</time>
      </trkpt>
      <trkpt lat="45.75526" lon="6.52526">
        <ele>1686.4</ele>
        <time>2026-07-12T10:56:37Z</time>
      </trkpt>
      <trkpt lat="45.75524" lon="6.52527">
        <ele>1686.4</ele>
        <time>2026-07-12T10:56:38Z</time>
      </trkpt>
      <trkpt lat="45.75521" lon="6.52528">
        <ele>1686.4</ele>
        <time>2026-07-12T10:56:39Z</time>
      </trkpt>
      <trkpt lat="45.75519" lon="6.52529">
        <ele>1686</ele>
        <time>2026-07-12T10:56:40Z</time>
      </trkpt>
      <trkpt lat="45.75516" lon="6.5253">
        <ele>1686</ele>
        <time>2026-07-12T10:56:41Z</time>
      </trkpt>
      <trkpt lat="45.75514" lon="6.52531">
        <ele>1688</ele>
        <time>2026-07-12T10:56:42Z</time>
      </trkpt>
      <trkpt lat="45.75511" lon="6.52531">
        <ele>1688</ele>
        <time>2026-07-12T10:56:43Z</time>
      </trkpt>
      <trkpt lat="45.75509" lon="6.52531">
        <ele>1688</ele>
        <time>2026-07-12T10:56:44Z</time>
      </trkpt>
      <trkpt lat="45.75506" lon="6.52531">
        <ele>1687.8</ele>
        <time>2026-07-12T10:56:45Z</time>
      </trkpt>
      <trkpt lat="45.75503" lon="6.5253">
        <ele>1687.8</ele>
        <time>2026-07-12T10:56:46Z</time>
      </trkpt>
      <trkpt lat="45.75501" lon="6.5253">
        <ele>1687</ele>
        <time>2026-07-12T10:56:47Z</time>
      </trkpt>
      <trkpt lat="45.75498" lon="6.5253">
        <ele>1687</ele>
        <time>2026-07-12T10:56:48Z</time>
      </trkpt>
      <trkpt lat="45.75495" lon="6.52529">
        <ele>1687</ele>
        <time>2026-07-12T10:56:49Z</time>
      </trkpt>
      <trkpt lat="45.75493" lon="6.52529">
        <ele>1689</ele>
        <time>2026-07-12T10:56:50Z</time>
      </trkpt>
      <trkpt lat="45.7549" lon="6.52529">
        <ele>1689.4</ele>
        <time>2026-07-12T10:56:51Z</time>
      </trkpt>
      <trkpt lat="45.75488" lon="6.52529">
        <ele>1689.4</ele>
        <time>2026-07-12T10:56:52Z</time>
      </trkpt>
      <trkpt lat="45.75486" lon="6.52529">
        <ele>1689.4</ele>
        <time>2026-07-12T10:56:53Z</time>
      </trkpt>
      <trkpt lat="45.75483" lon="6.52529">
        <ele>1689.4</ele>
        <time>2026-07-12T10:56:54Z</time>
      </trkpt>
      <trkpt lat="45.75481" lon="6.52528">
        <ele>1690.4</ele>
        <time>2026-07-12T10:56:55Z</time>
      </trkpt>
      <trkpt lat="45.75479" lon="6.52528">
        <ele>1690.4</ele>
        <time>2026-07-12T10:56:56Z</time>
      </trkpt>
      <trkpt lat="45.75477" lon="6.52527">
        <ele>1690.4</ele>
        <time>2026-07-12T10:56:57Z</time>
      </trkpt>
      <trkpt lat="45.75475" lon="6.52526">
        <ele>1690.4</ele>
        <time>2026-07-12T10:56:58Z</time>
      </trkpt>
      <trkpt lat="45.75474" lon="6.52524">
        <ele>1692.2</ele>
        <time>2026-07-12T10:56:59Z</time>
      </trkpt>
      <trkpt lat="45.75471" lon="6.52523">
        <ele>1692.2</ele>
        <time>2026-07-12T10:57:00Z</time>
      </trkpt>
      <trkpt lat="45.75469" lon="6.52522">
        <ele>1692.2</ele>
        <time>2026-07-12T10:57:01Z</time>
      </trkpt>
      <trkpt lat="45.75466" lon="6.52522">
        <ele>1692.2</ele>
        <time>2026-07-12T10:57:02Z</time>
      </trkpt>
      <trkpt lat="45.75464" lon="6.52522">
        <ele>1692</ele>
        <time>2026-07-12T10:57:03Z</time>
      </trkpt>
      <trkpt lat="45.75462" lon="6.5252">
        <ele>1692</ele>
        <time>2026-07-12T10:57:04Z</time>
      </trkpt>
      <trkpt lat="45.7546" lon="6.52519">
        <ele>1692</ele>
        <time>2026-07-12T10:57:05Z</time>
      </trkpt>
      <trkpt lat="45.75457" lon="6.52518">
        <ele>1693.8</ele>
        <time>2026-07-12T10:57:06Z</time>
      </trkpt>
      <trkpt lat="45.75454" lon="6.52517">
        <ele>1693.8</ele>
        <time>2026-07-12T10:57:07Z</time>
      </trkpt>
      <trkpt lat="45.75452" lon="6.52516">
        <ele>1693.8</ele>
        <time>2026-07-12T10:57:08Z</time>
      </trkpt>
      <trkpt lat="45.75449" lon="6.52515">
        <ele>1693.8</ele>
        <time>2026-07-12T10:57:09Z</time>
      </trkpt>
      <trkpt lat="45.75447" lon="6.52515">
        <ele>1693.8</ele>
        <time>2026-07-12T10:57:10Z</time>
      </trkpt>
      <trkpt lat="45.75445" lon="6.52515">
        <ele>1693.8</ele>
        <time>2026-07-12T10:57:11Z</time>
      </trkpt>
      <trkpt lat="45.75443" lon="6.52513">
        <ele>1693.8</ele>
        <time>2026-07-12T10:57:12Z</time>
      </trkpt>
      <trkpt lat="45.75443" lon="6.5251">
        <ele>1694.8</ele>
        <time>2026-07-12T10:57:13Z</time>
      </trkpt>
      <trkpt lat="45.75445" lon="6.52508">
        <ele>1695.2</ele>
        <time>2026-07-12T10:57:14Z</time>
      </trkpt>
      <trkpt lat="45.75446" lon="6.52507">
        <ele>1695.6</ele>
        <time>2026-07-12T10:57:15Z</time>
      </trkpt>
      <trkpt lat="45.75448" lon="6.52504">
        <ele>1695.6</ele>
        <time>2026-07-12T10:57:16Z</time>
      </trkpt>
      <trkpt lat="45.7545" lon="6.52502">
        <ele>1695.6</ele>
        <time>2026-07-12T10:57:17Z</time>
      </trkpt>
      <trkpt lat="45.75452" lon="6.525">
        <ele>1695.6</ele>
        <time>2026-07-12T10:57:18Z</time>
      </trkpt>
      <trkpt lat="45.75453" lon="6.52498">
        <ele>1695.6</ele>
        <time>2026-07-12T10:57:19Z</time>
      </trkpt>
      <trkpt lat="45.75454" lon="6.52496">
        <ele>1695.6</ele>
        <time>2026-07-12T10:57:20Z</time>
      </trkpt>
      <trkpt lat="45.75455" lon="6.52494">
        <ele>1695.6</ele>
        <time>2026-07-12T10:57:21Z</time>
      </trkpt>
      <trkpt lat="45.75456" lon="6.52492">
        <ele>1697.2</ele>
        <time>2026-07-12T10:57:22Z</time>
      </trkpt>
      <trkpt lat="45.75457" lon="6.52491">
        <ele>1698.8</ele>
        <time>2026-07-12T10:57:23Z</time>
      </trkpt>
      <trkpt lat="45.75458" lon="6.52489">
        <ele>1698.8</ele>
        <time>2026-07-12T10:57:24Z</time>
      </trkpt>
      <trkpt lat="45.75459" lon="6.52487">
        <ele>1698.8</ele>
        <time>2026-07-12T10:57:25Z</time>
      </trkpt>
      <trkpt lat="45.75459" lon="6.52485">
        <ele>1698.8</ele>
        <time>2026-07-12T10:57:26Z</time>
      </trkpt>
      <trkpt lat="45.75459" lon="6.52482">
        <ele>1698.8</ele>
        <time>2026-07-12T10:57:27Z</time>
      </trkpt>
      <trkpt lat="45.75458" lon="6.52479">
        <ele>1698.8</ele>
        <time>2026-07-12T10:57:28Z</time>
      </trkpt>
      <trkpt lat="45.75457" lon="6.52476">
        <ele>1698.8</ele>
        <time>2026-07-12T10:57:29Z</time>
      </trkpt>
      <trkpt lat="45.75457" lon="6.52473">
        <ele>1700.4</ele>
        <time>2026-07-12T10:57:30Z</time>
      </trkpt>
      <trkpt lat="45.75457" lon="6.52469">
        <ele>1701</ele>
        <time>2026-07-12T10:57:31Z</time>
      </trkpt>
      <trkpt lat="45.75456" lon="6.52466">
        <ele>1701</ele>
        <time>2026-07-12T10:57:32Z</time>
      </trkpt>
      <trkpt lat="45.75455" lon="6.52463">
        <ele>1701</ele>
        <time>2026-07-12T10:57:33Z</time>
      </trkpt>
      <trkpt lat="45.75455" lon="6.5246">
        <ele>1701</ele>
        <time>2026-07-12T10:57:34Z</time>
      </trkpt>
      <trkpt lat="45.75454" lon="6.52457">
        <ele>1701</ele>
        <time>2026-07-12T10:57:35Z</time>
      </trkpt>
      <trkpt lat="45.75454" lon="6.52453">
        <ele>1701</ele>
        <time>2026-07-12T10:57:36Z</time>
      </trkpt>
      <trkpt lat="45.75453" lon="6.52451">
        <ele>1701</ele>
        <time>2026-07-12T10:57:37Z</time>
      </trkpt>
      <trkpt lat="45.75452" lon="6.52448">
        <ele>1701.6</ele>
        <time>2026-07-12T10:57:38Z</time>
      </trkpt>
      <trkpt lat="45.75451" lon="6.52445">
        <ele>1701.6</ele>
        <time>2026-07-12T10:57:39Z</time>
      </trkpt>
      <trkpt lat="45.7545" lon="6.52443">
        <ele>1701.8</ele>
        <time>2026-07-12T10:57:40Z</time>
      </trkpt>
      <trkpt lat="45.75449" lon="6.5244">
        <ele>1701.8</ele>
        <time>2026-07-12T10:57:41Z</time>
      </trkpt>
      <trkpt lat="45.75448" lon="6.52438">
        <ele>1701.8</ele>
        <time>2026-07-12T10:57:42Z</time>
      </trkpt>
      <trkpt lat="45.75447" lon="6.52435">
        <ele>1701.8</ele>
        <time>2026-07-12T10:57:43Z</time>
      </trkpt>
      <trkpt lat="45.75445" lon="6.52433">
        <ele>1702.4</ele>
        <time>2026-07-12T10:57:44Z</time>
      </trkpt>
      <trkpt lat="45.75444" lon="6.5243">
        <ele>1702.6</ele>
        <time>2026-07-12T10:57:45Z</time>
      </trkpt>
      <trkpt lat="45.75443" lon="6.52427">
        <ele>1703.6</ele>
        <time>2026-07-12T10:57:46Z</time>
      </trkpt>
      <trkpt lat="45.75442" lon="6.52424">
        <ele>1703.6</ele>
        <time>2026-07-12T10:57:47Z</time>
      </trkpt>
      <trkpt lat="45.75441" lon="6.52421">
        <ele>1703.6</ele>
        <time>2026-07-12T10:57:48Z</time>
      </trkpt>
      <trkpt lat="45.7544" lon="6.52418">
        <ele>1703.6</ele>
        <time>2026-07-12T10:57:49Z</time>
      </trkpt>
      <trkpt lat="45.75439" lon="6.52415">
        <ele>1704.2</ele>
        <time>2026-07-12T10:57:50Z</time>
      </trkpt>
      <trkpt lat="45.75439" lon="6.52411">
        <ele>1705.2</ele>
        <time>2026-07-12T10:57:51Z</time>
      </trkpt>
      <trkpt lat="45.75438" lon="6.52408">
        <ele>1705.2</ele>
        <time>2026-07-12T10:57:52Z</time>
      </trkpt>
      <trkpt lat="45.75437" lon="6.52405">
        <ele>1705.2</ele>
        <time>2026-07-12T10:57:53Z</time>
      </trkpt>
      <trkpt lat="45.75436" lon="6.52402">
        <ele>1705.2</ele>
        <time>2026-07-12T10:57:54Z</time>
      </trkpt>
      <trkpt lat="45.75434" lon="6.52399">
        <ele>1706</ele>
        <time>2026-07-12T10:57:55Z</time>
      </trkpt>
      <trkpt lat="45.75433" lon="6.52396">
        <ele>1706.4</ele>
        <time>2026-07-12T10:57:56Z</time>
      </trkpt>
      <trkpt lat="45.75432" lon="6.52393">
        <ele>1707</ele>
        <time>2026-07-12T10:57:57Z</time>
      </trkpt>
      <trkpt lat="45.75431" lon="6.5239">
        <ele>1707.2</ele>
        <time>2026-07-12T10:57:58Z</time>
      </trkpt>
      <trkpt lat="45.7543" lon="6.52387">
        <ele>1707.6</ele>
        <time>2026-07-12T10:57:59Z</time>
      </trkpt>
      <trkpt lat="45.75428" lon="6.52384">
        <ele>1707.6</ele>
        <time>2026-07-12T10:58:00Z</time>
      </trkpt>
      <trkpt lat="45.75428" lon="6.5238">
        <ele>1708.6</ele>
        <time>2026-07-12T10:58:01Z</time>
      </trkpt>
      <trkpt lat="45.75427" lon="6.52377">
        <ele>1709.4</ele>
        <time>2026-07-12T10:58:02Z</time>
      </trkpt>
      <trkpt lat="45.75426" lon="6.52374">
        <ele>1709.4</ele>
        <time>2026-07-12T10:58:03Z</time>
      </trkpt>
      <trkpt lat="45.75425" lon="6.52371">
        <ele>1709.4</ele>
        <time>2026-07-12T10:58:04Z</time>
      </trkpt>
      <trkpt lat="45.75424" lon="6.52368">
        <ele>1709.4</ele>
        <time>2026-07-12T10:58:05Z</time>
      </trkpt>
      <trkpt lat="45.75423" lon="6.52365">
        <ele>1709.6</ele>
        <time>2026-07-12T10:58:06Z</time>
      </trkpt>
      <trkpt lat="45.75422" lon="6.52362">
        <ele>1710.2</ele>
        <time>2026-07-12T10:58:07Z</time>
      </trkpt>
      <trkpt lat="45.75421" lon="6.52359">
        <ele>1710.2</ele>
        <time>2026-07-12T10:58:08Z</time>
      </trkpt>
      <trkpt lat="45.7542" lon="6.52356">
        <ele>1711.2</ele>
        <time>2026-07-12T10:58:09Z</time>
      </trkpt>
      <trkpt lat="45.75419" lon="6.52353">
        <ele>1712.8</ele>
        <time>2026-07-12T10:58:10Z</time>
      </trkpt>
      <trkpt lat="45.75418" lon="6.52351">
        <ele>1712.8</ele>
        <time>2026-07-12T10:58:11Z</time>
      </trkpt>
      <trkpt lat="45.75418" lon="6.52347">
        <ele>1712.8</ele>
        <time>2026-07-12T10:58:12Z</time>
      </trkpt>
      <trkpt lat="45.75417" lon="6.52344">
        <ele>1712.8</ele>
        <time>2026-07-12T10:58:13Z</time>
      </trkpt>
      <trkpt lat="45.75416" lon="6.52341">
        <ele>1712.8</ele>
        <time>2026-07-12T10:58:14Z</time>
      </trkpt>
      <trkpt lat="45.75416" lon="6.52338">
        <ele>1712.8</ele>
        <time>2026-07-12T10:58:15Z</time>
      </trkpt>
      <trkpt lat="45.75415" lon="6.52334">
        <ele>1712.8</ele>
        <time>2026-07-12T10:58:16Z</time>
      </trkpt>
      <trkpt lat="45.75414" lon="6.52331">
        <ele>1713.8</ele>
        <time>2026-07-12T10:58:17Z</time>
      </trkpt>
      <trkpt lat="45.75413" lon="6.52328">
        <ele>1714.6</ele>
        <time>2026-07-12T10:58:18Z</time>
      </trkpt>
      <trkpt lat="45.75412" lon="6.52326">
        <ele>1714.8</ele>
        <time>2026-07-12T10:58:19Z</time>
      </trkpt>
      <trkpt lat="45.75411" lon="6.52322">
        <ele>1714.8</ele>
        <time>2026-07-12T10:58:20Z</time>
      </trkpt>
      <trkpt lat="45.7541" lon="6.52319">
        <ele>1714.8</ele>
        <time>2026-07-12T10:58:21Z</time>
      </trkpt>
      <trkpt lat="45.75409" lon="6.52316">
        <ele>1714.8</ele>
        <time>2026-07-12T10:58:22Z</time>
      </trkpt>
      <trkpt lat="45.75409" lon="6.52312">
        <ele>1716.4</ele>
        <time>2026-07-12T10:58:23Z</time>
      </trkpt>
      <trkpt lat="45.75408" lon="6.52309">
        <ele>1716.4</ele>
        <time>2026-07-12T10:58:24Z</time>
      </trkpt>
      <trkpt lat="45.75407" lon="6.52305">
        <ele>1717</ele>
        <time>2026-07-12T10:58:25Z</time>
      </trkpt>
      <trkpt lat="45.75406" lon="6.52302">
        <ele>1717.2</ele>
        <time>2026-07-12T10:58:26Z</time>
      </trkpt>
      <trkpt lat="45.75405" lon="6.52298">
        <ele>1717.4</ele>
        <time>2026-07-12T10:58:27Z</time>
      </trkpt>
      <trkpt lat="45.75404" lon="6.52295">
        <ele>1717.8</ele>
        <time>2026-07-12T10:58:28Z</time>
      </trkpt>
      <trkpt lat="45.75403" lon="6.52291">
        <ele>1718.6</ele>
        <time>2026-07-12T10:58:29Z</time>
      </trkpt>
      <trkpt lat="45.75402" lon="6.52288">
        <ele>1718.8</ele>
        <time>2026-07-12T10:58:30Z</time>
      </trkpt>
      <trkpt lat="45.75401" lon="6.52284">
        <ele>1718.8</ele>
        <time>2026-07-12T10:58:31Z</time>
      </trkpt>
      <trkpt lat="45.754" lon="6.52281">
        <ele>1719.6</ele>
        <time>2026-07-12T10:58:32Z</time>
      </trkpt>
      <trkpt lat="45.75398" lon="6.52278">
        <ele>1720.4</ele>
        <time>2026-07-12T10:58:33Z</time>
      </trkpt>
      <trkpt lat="45.75397" lon="6.52274">
        <ele>1721</ele>
        <time>2026-07-12T10:58:34Z</time>
      </trkpt>
      <trkpt lat="45.75395" lon="6.52271">
        <ele>1721</ele>
        <time>2026-07-12T10:58:35Z</time>
      </trkpt>
      <trkpt lat="45.75394" lon="6.52267">
        <ele>1721</ele>
        <time>2026-07-12T10:58:36Z</time>
      </trkpt>
      <trkpt lat="45.75393" lon="6.52263">
        <ele>1721</ele>
        <time>2026-07-12T10:58:37Z</time>
      </trkpt>
      <trkpt lat="45.75391" lon="6.52259">
        <ele>1722</ele>
        <time>2026-07-12T10:58:38Z</time>
      </trkpt>
      <trkpt lat="45.7539" lon="6.52256">
        <ele>1723</ele>
        <time>2026-07-12T10:58:39Z</time>
      </trkpt>
      <trkpt lat="45.75388" lon="6.52252">
        <ele>1724</ele>
        <time>2026-07-12T10:58:40Z</time>
      </trkpt>
      <trkpt lat="45.75387" lon="6.52249">
        <ele>1724.6</ele>
        <time>2026-07-12T10:58:41Z</time>
      </trkpt>
      <trkpt lat="45.75386" lon="6.52245">
        <ele>1724.6</ele>
        <time>2026-07-12T10:58:42Z</time>
      </trkpt>
      <trkpt lat="45.75385" lon="6.52242">
        <ele>1724.6</ele>
        <time>2026-07-12T10:58:43Z</time>
      </trkpt>
      <trkpt lat="45.75383" lon="6.52239">
        <ele>1724.6</ele>
        <time>2026-07-12T10:58:44Z</time>
      </trkpt>
      <trkpt lat="45.75383" lon="6.52236">
        <ele>1727</ele>
        <time>2026-07-12T10:58:45Z</time>
      </trkpt>
      <trkpt lat="45.75382" lon="6.52233">
        <ele>1727</ele>
        <time>2026-07-12T10:58:46Z</time>
      </trkpt>
      <trkpt lat="45.75381" lon="6.52231">
        <ele>1727.4</ele>
        <time>2026-07-12T10:58:47Z</time>
      </trkpt>
      <trkpt lat="45.7538" lon="6.52228">
        <ele>1728</ele>
        <time>2026-07-12T10:58:48Z</time>
      </trkpt>
      <trkpt lat="45.75378" lon="6.52226">
        <ele>1728.2</ele>
        <time>2026-07-12T10:58:49Z</time>
      </trkpt>
      <trkpt lat="45.75377" lon="6.52224">
        <ele>1728.2</ele>
        <time>2026-07-12T10:58:50Z</time>
      </trkpt>
      <trkpt lat="45.75376" lon="6.52222">
        <ele>1728.4</ele>
        <time>2026-07-12T10:58:51Z</time>
      </trkpt>
      <trkpt lat="45.75375" lon="6.52219">
        <ele>1728.4</ele>
        <time>2026-07-12T10:58:52Z</time>
      </trkpt>
      <trkpt lat="45.75374" lon="6.52217">
        <ele>1728.4</ele>
        <time>2026-07-12T10:58:53Z</time>
      </trkpt>
      <trkpt lat="45.75373" lon="6.52216">
        <ele>1728.4</ele>
        <time>2026-07-12T10:58:54Z</time>
      </trkpt>
      <trkpt lat="45.75372" lon="6.52213">
        <ele>1729</ele>
        <time>2026-07-12T10:58:55Z</time>
      </trkpt>
      <trkpt lat="45.75372" lon="6.52211">
        <ele>1729</ele>
        <time>2026-07-12T10:58:56Z</time>
      </trkpt>
      <trkpt lat="45.75372" lon="6.52209">
        <ele>1729</ele>
        <time>2026-07-12T10:58:57Z</time>
      </trkpt>
      <trkpt lat="45.75372" lon="6.52206">
        <ele>1729</ele>
        <time>2026-07-12T10:58:58Z</time>
      </trkpt>
      <trkpt lat="45.75371" lon="6.52204">
        <ele>1729.4</ele>
        <time>2026-07-12T10:58:59Z</time>
      </trkpt>
      <trkpt lat="45.75371" lon="6.52202">
        <ele>1729.4</ele>
        <time>2026-07-12T10:59:00Z</time>
      </trkpt>
      <trkpt lat="45.7537" lon="6.522">
        <ele>1729.4</ele>
        <time>2026-07-12T10:59:01Z</time>
      </trkpt>
      <trkpt lat="45.7537" lon="6.52199">
        <ele>1729.4</ele>
        <time>2026-07-12T10:59:02Z</time>
      </trkpt>
      <trkpt lat="45.7537" lon="6.52197">
        <ele>1729.4</ele>
        <time>2026-07-12T10:59:03Z</time>
      </trkpt>
      <trkpt lat="45.75369" lon="6.52195">
        <ele>1730</ele>
        <time>2026-07-12T10:59:04Z</time>
      </trkpt>
      <trkpt lat="45.7537" lon="6.52193">
        <ele>1730</ele>
        <time>2026-07-12T10:59:05Z</time>
      </trkpt>
      <trkpt lat="45.75371" lon="6.52192">
        <ele>1730</ele>
        <time>2026-07-12T10:59:06Z</time>
      </trkpt>
      <trkpt lat="45.75373" lon="6.52192">
        <ele>1730</ele>
        <time>2026-07-12T10:59:07Z</time>
      </trkpt>
      <trkpt lat="45.75374" lon="6.52191">
        <ele>1730</ele>
        <time>2026-07-12T10:59:08Z</time>
      </trkpt>
      <trkpt lat="45.75375" lon="6.52189">
        <ele>1730</ele>
        <time>2026-07-12T10:59:09Z</time>
      </trkpt>
      <trkpt lat="45.75376" lon="6.52187">
        <ele>1730</ele>
        <time>2026-07-12T10:59:10Z</time>
      </trkpt>
      <trkpt lat="45.75377" lon="6.52185">
        <ele>1730.4</ele>
        <time>2026-07-12T10:59:11Z</time>
      </trkpt>
      <trkpt lat="45.75377" lon="6.52183">
        <ele>1730.4</ele>
        <time>2026-07-12T10:59:12Z</time>
      </trkpt>
      <trkpt lat="45.75378" lon="6.52181">
        <ele>1730.6</ele>
        <time>2026-07-12T10:59:13Z</time>
      </trkpt>
      <trkpt lat="45.75379" lon="6.5218">
        <ele>1730.6</ele>
        <time>2026-07-12T10:59:14Z</time>
      </trkpt>
      <trkpt lat="45.7538" lon="6.52178">
        <ele>1730.6</ele>
        <time>2026-07-12T10:59:15Z</time>
      </trkpt>
      <trkpt lat="45.75381" lon="6.52175">
        <ele>1730.6</ele>
        <time>2026-07-12T10:59:16Z</time>
      </trkpt>
      <trkpt lat="45.75382" lon="6.52172">
        <ele>1731.4</ele>
        <time>2026-07-12T10:59:17Z</time>
      </trkpt>
      <trkpt lat="45.75383" lon="6.5217">
        <ele>1731.6</ele>
        <time>2026-07-12T10:59:18Z</time>
      </trkpt>
      <trkpt lat="45.75383" lon="6.52167">
        <ele>1731.6</ele>
        <time>2026-07-12T10:59:19Z</time>
      </trkpt>
      <trkpt lat="45.75384" lon="6.52165">
        <ele>1731.6</ele>
        <time>2026-07-12T10:59:20Z</time>
      </trkpt>
      <trkpt lat="45.75385" lon="6.52162">
        <ele>1731.6</ele>
        <time>2026-07-12T10:59:21Z</time>
      </trkpt>
      <trkpt lat="45.75385" lon="6.5216">
        <ele>1733.4</ele>
        <time>2026-07-12T10:59:22Z</time>
      </trkpt>
      <trkpt lat="45.75385" lon="6.52157">
        <ele>1734.2</ele>
        <time>2026-07-12T10:59:23Z</time>
      </trkpt>
      <trkpt lat="45.75386" lon="6.52154">
        <ele>1734.6</ele>
        <time>2026-07-12T10:59:24Z</time>
      </trkpt>
      <trkpt lat="45.75386" lon="6.52151">
        <ele>1734.6</ele>
        <time>2026-07-12T10:59:25Z</time>
      </trkpt>
      <trkpt lat="45.75385" lon="6.52148">
        <ele>1734.6</ele>
        <time>2026-07-12T10:59:26Z</time>
      </trkpt>
      <trkpt lat="45.75385" lon="6.52145">
        <ele>1734.6</ele>
        <time>2026-07-12T10:59:27Z</time>
      </trkpt>
      <trkpt lat="45.75384" lon="6.52142">
        <ele>1734.6</ele>
        <time>2026-07-12T10:59:28Z</time>
      </trkpt>
      <trkpt lat="45.75385" lon="6.5214">
        <ele>1734.6</ele>
        <time>2026-07-12T10:59:29Z</time>
      </trkpt>
      <trkpt lat="45.75385" lon="6.52137">
        <ele>1734.6</ele>
        <time>2026-07-12T10:59:30Z</time>
      </trkpt>
      <trkpt lat="45.75386" lon="6.52135">
        <ele>1734.6</ele>
        <time>2026-07-12T10:59:31Z</time>
      </trkpt>
      <trkpt lat="45.75386" lon="6.52133">
        <ele>1734.6</ele>
        <time>2026-07-12T10:59:32Z</time>
      </trkpt>
      <trkpt lat="45.75387" lon="6.52132">
        <ele>1734.6</ele>
        <time>2026-07-12T10:59:33Z</time>
      </trkpt>
      <trkpt lat="45.75388" lon="6.5213">
        <ele>1734.6</ele>
        <time>2026-07-12T10:59:34Z</time>
      </trkpt>
      <trkpt lat="45.7539" lon="6.5213">
        <ele>1734.6</ele>
        <time>2026-07-12T10:59:35Z</time>
      </trkpt>
      <trkpt lat="45.75391" lon="6.52129">
        <ele>1734.6</ele>
        <time>2026-07-12T10:59:36Z</time>
      </trkpt>
      <trkpt lat="45.75392" lon="6.5213">
        <ele>1735.2</ele>
        <time>2026-07-12T10:59:37Z</time>
      </trkpt>
      <trkpt lat="45.75394" lon="6.52131">
        <ele>1735.2</ele>
        <time>2026-07-12T10:59:38Z</time>
      </trkpt>
      <trkpt lat="45.75395" lon="6.52134">
        <ele>1735.2</ele>
        <time>2026-07-12T10:59:39Z</time>
      </trkpt>
      <trkpt lat="45.75396" lon="6.52136">
        <ele>1734.2</ele>
        <time>2026-07-12T10:59:40Z</time>
      </trkpt>
      <trkpt lat="45.75398" lon="6.52138">
        <ele>1734.2</ele>
        <time>2026-07-12T10:59:41Z</time>
      </trkpt>
      <trkpt lat="45.754" lon="6.5214">
        <ele>1734.2</ele>
        <time>2026-07-12T10:59:42Z</time>
      </trkpt>
      <trkpt lat="45.75401" lon="6.52142">
        <ele>1734.2</ele>
        <time>2026-07-12T10:59:43Z</time>
      </trkpt>
      <trkpt lat="45.75403" lon="6.52143">
        <ele>1734.2</ele>
        <time>2026-07-12T10:59:44Z</time>
      </trkpt>
      <trkpt lat="45.75404" lon="6.52146">
        <ele>1734.2</ele>
        <time>2026-07-12T10:59:45Z</time>
      </trkpt>
      <trkpt lat="45.75406" lon="6.52147">
        <ele>1734.2</ele>
        <time>2026-07-12T10:59:46Z</time>
      </trkpt>
      <trkpt lat="45.75407" lon="6.5215">
        <ele>1734.2</ele>
        <time>2026-07-12T10:59:47Z</time>
      </trkpt>
      <trkpt lat="45.75408" lon="6.52152">
        <ele>1734.2</ele>
        <time>2026-07-12T10:59:48Z</time>
      </trkpt>
      <trkpt lat="45.7541" lon="6.52154">
        <ele>1734.2</ele>
        <time>2026-07-12T10:59:49Z</time>
      </trkpt>
      <trkpt lat="45.75414" lon="6.5216">
        <ele>1734.4</ele>
        <time>2026-07-12T11:00:12Z</time>
      </trkpt>
      <trkpt lat="45.75414" lon="6.5216">
        <ele>1734.4</ele>
        <time>2026-07-12T11:01:38Z</time>
      </trkpt>
      <trkpt lat="45.75414" lon="6.5216">
        <ele>1734.4</ele>
        <time>2026-07-12T11:01:39Z</time>
      </trkpt>
      <trkpt lat="45.75412" lon="6.52157">
        <ele>1734.2</ele>
        <time>2026-07-12T11:05:29Z</time>
      </trkpt>
      <trkpt lat="45.75412" lon="6.52157">
        <ele>1734.2</ele>
        <time>2026-07-12T11:05:30Z</time>
      </trkpt>
      <trkpt lat="45.75412" lon="6.52157">
        <ele>1734.2</ele>
        <time>2026-07-12T11:05:31Z</time>
      </trkpt>
      <trkpt lat="45.75412" lon="6.52157">
        <ele>1734.2</ele>
        <time>2026-07-12T11:05:32Z</time>
      </trkpt>
      <trkpt lat="45.75412" lon="6.52157">
        <ele>1734.2</ele>
        <time>2026-07-12T11:05:33Z</time>
      </trkpt>
      <trkpt lat="45.75412" lon="6.52156">
        <ele>1734.2</ele>
        <time>2026-07-12T11:05:34Z</time>
      </trkpt>
      <trkpt lat="45.75411" lon="6.52155">
        <ele>1734.2</ele>
        <time>2026-07-12T11:05:35Z</time>
      </trkpt>
      <trkpt lat="45.7541" lon="6.52154">
        <ele>1734.4</ele>
        <time>2026-07-12T11:05:36Z</time>
      </trkpt>
      <trkpt lat="45.75409" lon="6.52152">
        <ele>1734.6</ele>
        <time>2026-07-12T11:05:37Z</time>
      </trkpt>
      <trkpt lat="45.75408" lon="6.5215">
        <ele>1734.6</ele>
        <time>2026-07-12T11:05:38Z</time>
      </trkpt>
      <trkpt lat="45.75407" lon="6.52148">
        <ele>1734.6</ele>
        <time>2026-07-12T11:05:39Z</time>
      </trkpt>
      <trkpt lat="45.75405" lon="6.52146">
        <ele>1734.6</ele>
        <time>2026-07-12T11:05:40Z</time>
      </trkpt>
      <trkpt lat="45.75404" lon="6.52144">
        <ele>1734.6</ele>
        <time>2026-07-12T11:05:41Z</time>
      </trkpt>
      <trkpt lat="45.75402" lon="6.52142">
        <ele>1734.6</ele>
        <time>2026-07-12T11:05:42Z</time>
      </trkpt>
      <trkpt lat="45.754" lon="6.5214">
        <ele>1734.2</ele>
        <time>2026-07-12T11:05:43Z</time>
      </trkpt>
      <trkpt lat="45.75398" lon="6.52137">
        <ele>1734</ele>
        <time>2026-07-12T11:05:44Z</time>
      </trkpt>
      <trkpt lat="45.75396" lon="6.52135">
        <ele>1734</ele>
        <time>2026-07-12T11:05:45Z</time>
      </trkpt>
      <trkpt lat="45.75395" lon="6.52133">
        <ele>1733.4</ele>
        <time>2026-07-12T11:05:46Z</time>
      </trkpt>
      <trkpt lat="45.75393" lon="6.52133">
        <ele>1733</ele>
        <time>2026-07-12T11:05:47Z</time>
      </trkpt>
      <trkpt lat="45.75392" lon="6.52132">
        <ele>1731.6</ele>
        <time>2026-07-12T11:05:48Z</time>
      </trkpt>
      <trkpt lat="45.7539" lon="6.52132">
        <ele>1731.6</ele>
        <time>2026-07-12T11:05:49Z</time>
      </trkpt>
      <trkpt lat="45.75389" lon="6.52133">
        <ele>1731.6</ele>
        <time>2026-07-12T11:05:50Z</time>
      </trkpt>
      <trkpt lat="45.75387" lon="6.52133">
        <ele>1731.6</ele>
        <time>2026-07-12T11:05:51Z</time>
      </trkpt>
      <trkpt lat="45.75387" lon="6.52134">
        <ele>1731.6</ele>
        <time>2026-07-12T11:05:52Z</time>
      </trkpt>
      <trkpt lat="45.75386" lon="6.52135">
        <ele>1731.6</ele>
        <time>2026-07-12T11:05:53Z</time>
      </trkpt>
      <trkpt lat="45.75385" lon="6.52138">
        <ele>1731.6</ele>
        <time>2026-07-12T11:05:54Z</time>
      </trkpt>
      <trkpt lat="45.75384" lon="6.52141">
        <ele>1729.6</ele>
        <time>2026-07-12T11:05:55Z</time>
      </trkpt>
      <trkpt lat="45.75384" lon="6.52144">
        <ele>1729.6</ele>
        <time>2026-07-12T11:05:56Z</time>
      </trkpt>
      <trkpt lat="45.75385" lon="6.5215">
        <ele>1729.6</ele>
        <time>2026-07-12T11:05:57Z</time>
      </trkpt>
      <trkpt lat="45.75385" lon="6.52157">
        <ele>1729.6</ele>
        <time>2026-07-12T11:05:58Z</time>
      </trkpt>
      <trkpt lat="45.75384" lon="6.52163">
        <ele>1729.6</ele>
        <time>2026-07-12T11:05:59Z</time>
      </trkpt>
      <trkpt lat="45.75382" lon="6.52169">
        <ele>1729.6</ele>
        <time>2026-07-12T11:06:00Z</time>
      </trkpt>
      <trkpt lat="45.7538" lon="6.52174">
        <ele>1729.6</ele>
        <time>2026-07-12T11:06:01Z</time>
      </trkpt>
      <trkpt lat="45.75379" lon="6.52178">
        <ele>1729.6</ele>
        <time>2026-07-12T11:06:02Z</time>
      </trkpt>
      <trkpt lat="45.75378" lon="6.52181">
        <ele>1729.6</ele>
        <time>2026-07-12T11:06:03Z</time>
      </trkpt>
      <trkpt lat="45.75377" lon="6.52184">
        <ele>1728.6</ele>
        <time>2026-07-12T11:06:04Z</time>
      </trkpt>
      <trkpt lat="45.75376" lon="6.52185">
        <ele>1728</ele>
        <time>2026-07-12T11:06:05Z</time>
      </trkpt>
      <trkpt lat="45.75375" lon="6.52188">
        <ele>1728</ele>
        <time>2026-07-12T11:06:06Z</time>
      </trkpt>
      <trkpt lat="45.75374" lon="6.52191">
        <ele>1728</ele>
        <time>2026-07-12T11:06:07Z</time>
      </trkpt>
      <trkpt lat="45.75374" lon="6.52194">
        <ele>1729.6</ele>
        <time>2026-07-12T11:06:08Z</time>
      </trkpt>
      <trkpt lat="45.75374" lon="6.52197">
        <ele>1729.6</ele>
        <time>2026-07-12T11:06:09Z</time>
      </trkpt>
      <trkpt lat="45.75374" lon="6.522">
        <ele>1729.6</ele>
        <time>2026-07-12T11:06:10Z</time>
      </trkpt>
      <trkpt lat="45.75373" lon="6.52203">
        <ele>1729.6</ele>
        <time>2026-07-12T11:06:11Z</time>
      </trkpt>
      <trkpt lat="45.75372" lon="6.52205">
        <ele>1729.6</ele>
        <time>2026-07-12T11:06:12Z</time>
      </trkpt>
      <trkpt lat="45.75371" lon="6.52204">
        <ele>1729.6</ele>
        <time>2026-07-12T11:06:13Z</time>
      </trkpt>
      <trkpt lat="45.7537" lon="6.52202">
        <ele>1729.6</ele>
        <time>2026-07-12T11:06:14Z</time>
      </trkpt>
      <trkpt lat="45.75369" lon="6.522">
        <ele>1729.6</ele>
        <time>2026-07-12T11:06:15Z</time>
      </trkpt>
      <trkpt lat="45.75368" lon="6.52197">
        <ele>1729.6</ele>
        <time>2026-07-12T11:06:16Z</time>
      </trkpt>
      <trkpt lat="45.75367" lon="6.52195">
        <ele>1729.6</ele>
        <time>2026-07-12T11:06:17Z</time>
      </trkpt>
      <trkpt lat="45.75366" lon="6.52192">
        <ele>1729.6</ele>
        <time>2026-07-12T11:06:18Z</time>
      </trkpt>
      <trkpt lat="45.75366" lon="6.52189">
        <ele>1729.6</ele>
        <time>2026-07-12T11:06:19Z</time>
      </trkpt>
      <trkpt lat="45.75365" lon="6.52186">
        <ele>1730.4</ele>
        <time>2026-07-12T11:06:20Z</time>
      </trkpt>
      <trkpt lat="45.75364" lon="6.52183">
        <ele>1730.4</ele>
        <time>2026-07-12T11:06:21Z</time>
      </trkpt>
      <trkpt lat="45.75364" lon="6.52179">
        <ele>1730.4</ele>
        <time>2026-07-12T11:06:22Z</time>
      </trkpt>
      <trkpt lat="45.75363" lon="6.52176">
        <ele>1730.4</ele>
        <time>2026-07-12T11:06:23Z</time>
      </trkpt>
      <trkpt lat="45.75362" lon="6.52173">
        <ele>1730.4</ele>
        <time>2026-07-12T11:06:24Z</time>
      </trkpt>
      <trkpt lat="45.75361" lon="6.52169">
        <ele>1730.4</ele>
        <time>2026-07-12T11:06:25Z</time>
      </trkpt>
      <trkpt lat="45.7536" lon="6.52166">
        <ele>1731.8</ele>
        <time>2026-07-12T11:06:26Z</time>
      </trkpt>
      <trkpt lat="45.75359" lon="6.52163">
        <ele>1732.4</ele>
        <time>2026-07-12T11:06:27Z</time>
      </trkpt>
      <trkpt lat="45.75359" lon="6.52159">
        <ele>1732.4</ele>
        <time>2026-07-12T11:06:28Z</time>
      </trkpt>
      <trkpt lat="45.75357" lon="6.52156">
        <ele>1732.4</ele>
        <time>2026-07-12T11:06:29Z</time>
      </trkpt>
      <trkpt lat="45.75356" lon="6.52153">
        <ele>1732.4</ele>
        <time>2026-07-12T11:06:30Z</time>
      </trkpt>
      <trkpt lat="45.75355" lon="6.5215">
        <ele>1732.8</ele>
        <time>2026-07-12T11:06:31Z</time>
      </trkpt>
      <trkpt lat="45.75354" lon="6.52147">
        <ele>1733.8</ele>
        <time>2026-07-12T11:06:32Z</time>
      </trkpt>
      <trkpt lat="45.75353" lon="6.52144">
        <ele>1734.8</ele>
        <time>2026-07-12T11:06:33Z</time>
      </trkpt>
      <trkpt lat="45.75352" lon="6.52141">
        <ele>1734.8</ele>
        <time>2026-07-12T11:06:34Z</time>
      </trkpt>
      <trkpt lat="45.75351" lon="6.52138">
        <ele>1734.8</ele>
        <time>2026-07-12T11:06:35Z</time>
      </trkpt>
      <trkpt lat="45.7535" lon="6.52135">
        <ele>1734.8</ele>
        <time>2026-07-12T11:06:36Z</time>
      </trkpt>
      <trkpt lat="45.75348" lon="6.52132">
        <ele>1734.8</ele>
        <time>2026-07-12T11:06:37Z</time>
      </trkpt>
      <trkpt lat="45.75347" lon="6.52129">
        <ele>1737.2</ele>
        <time>2026-07-12T11:06:38Z</time>
      </trkpt>
      <trkpt lat="45.75346" lon="6.52126">
        <ele>1738</ele>
        <time>2026-07-12T11:06:39Z</time>
      </trkpt>
      <trkpt lat="45.75345" lon="6.52122">
        <ele>1738</ele>
        <time>2026-07-12T11:06:40Z</time>
      </trkpt>
      <trkpt lat="45.75344" lon="6.52119">
        <ele>1738</ele>
        <time>2026-07-12T11:06:41Z</time>
      </trkpt>
      <trkpt lat="45.75343" lon="6.52116">
        <ele>1738</ele>
        <time>2026-07-12T11:06:42Z</time>
      </trkpt>
      <trkpt lat="45.75342" lon="6.52112">
        <ele>1739</ele>
        <time>2026-07-12T11:06:43Z</time>
      </trkpt>
      <trkpt lat="45.75341" lon="6.52109">
        <ele>1740</ele>
        <time>2026-07-12T11:06:44Z</time>
      </trkpt>
      <trkpt lat="45.7534" lon="6.52106">
        <ele>1741</ele>
        <time>2026-07-12T11:06:45Z</time>
      </trkpt>
      <trkpt lat="45.7534" lon="6.52103">
        <ele>1742</ele>
        <time>2026-07-12T11:06:46Z</time>
      </trkpt>
      <trkpt lat="45.75339" lon="6.521">
        <ele>1743</ele>
        <time>2026-07-12T11:06:47Z</time>
      </trkpt>
      <trkpt lat="45.75338" lon="6.52098">
        <ele>1743</ele>
        <time>2026-07-12T11:06:48Z</time>
      </trkpt>
      <trkpt lat="45.75338" lon="6.52095">
        <ele>1743</ele>
        <time>2026-07-12T11:06:49Z</time>
      </trkpt>
      <trkpt lat="45.75337" lon="6.52092">
        <ele>1743</ele>
        <time>2026-07-12T11:06:50Z</time>
      </trkpt>
      <trkpt lat="45.75336" lon="6.52089">
        <ele>1743.4</ele>
        <time>2026-07-12T11:06:51Z</time>
      </trkpt>
      <trkpt lat="45.75335" lon="6.52086">
        <ele>1744.4</ele>
        <time>2026-07-12T11:06:52Z</time>
      </trkpt>
      <trkpt lat="45.75334" lon="6.52083">
        <ele>1745</ele>
        <time>2026-07-12T11:06:53Z</time>
      </trkpt>
      <trkpt lat="45.75333" lon="6.52081">
        <ele>1745.6</ele>
        <time>2026-07-12T11:06:54Z</time>
      </trkpt>
      <trkpt lat="45.75333" lon="6.52078">
        <ele>1746.4</ele>
        <time>2026-07-12T11:06:55Z</time>
      </trkpt>
      <trkpt lat="45.75332" lon="6.52075">
        <ele>1747</ele>
        <time>2026-07-12T11:06:56Z</time>
      </trkpt>
      <trkpt lat="45.75331" lon="6.52073">
        <ele>1747</ele>
        <time>2026-07-12T11:06:57Z</time>
      </trkpt>
      <trkpt lat="45.7533" lon="6.5207">
        <ele>1747</ele>
        <time>2026-07-12T11:06:58Z</time>
      </trkpt>
      <trkpt lat="45.75329" lon="6.52067">
        <ele>1747</ele>
        <time>2026-07-12T11:06:59Z</time>
      </trkpt>
      <trkpt lat="45.75328" lon="6.52065">
        <ele>1748.4</ele>
        <time>2026-07-12T11:07:00Z</time>
      </trkpt>
      <trkpt lat="45.75328" lon="6.52062">
        <ele>1748.6</ele>
        <time>2026-07-12T11:07:01Z</time>
      </trkpt>
      <trkpt lat="45.75327" lon="6.5206">
        <ele>1748.8</ele>
        <time>2026-07-12T11:07:02Z</time>
      </trkpt>
      <trkpt lat="45.75326" lon="6.52057">
        <ele>1750</ele>
        <time>2026-07-12T11:07:03Z</time>
      </trkpt>
      <trkpt lat="45.75325" lon="6.52054">
        <ele>1750</ele>
        <time>2026-07-12T11:07:04Z</time>
      </trkpt>
      <trkpt lat="45.75324" lon="6.52051">
        <ele>1750.4</ele>
        <time>2026-07-12T11:07:05Z</time>
      </trkpt>
      <trkpt lat="45.75323" lon="6.52048">
        <ele>1751</ele>
        <time>2026-07-12T11:07:06Z</time>
      </trkpt>
      <trkpt lat="45.75322" lon="6.52045">
        <ele>1752</ele>
        <time>2026-07-12T11:07:07Z</time>
      </trkpt>
      <trkpt lat="45.75321" lon="6.52042">
        <ele>1752</ele>
        <time>2026-07-12T11:07:08Z</time>
      </trkpt>
      <trkpt lat="45.75321" lon="6.5204">
        <ele>1752</ele>
        <time>2026-07-12T11:07:09Z</time>
      </trkpt>
      <trkpt lat="45.7532" lon="6.52037">
        <ele>1752</ele>
        <time>2026-07-12T11:07:10Z</time>
      </trkpt>
      <trkpt lat="45.75319" lon="6.52034">
        <ele>1754.4</ele>
        <time>2026-07-12T11:07:11Z</time>
      </trkpt>
      <trkpt lat="45.75318" lon="6.52032">
        <ele>1754.6</ele>
        <time>2026-07-12T11:07:12Z</time>
      </trkpt>
      <trkpt lat="45.75317" lon="6.52029">
        <ele>1756.8</ele>
        <time>2026-07-12T11:07:13Z</time>
      </trkpt>
      <trkpt lat="45.75316" lon="6.52027">
        <ele>1756.8</ele>
        <time>2026-07-12T11:07:14Z</time>
      </trkpt>
      <trkpt lat="45.75315" lon="6.52024">
        <ele>1756.8</ele>
        <time>2026-07-12T11:07:15Z</time>
      </trkpt>
      <trkpt lat="45.75315" lon="6.52022">
        <ele>1756.8</ele>
        <time>2026-07-12T11:07:16Z</time>
      </trkpt>
      <trkpt lat="45.75314" lon="6.52019">
        <ele>1757.8</ele>
        <time>2026-07-12T11:07:17Z</time>
      </trkpt>
      <trkpt lat="45.75313" lon="6.52017">
        <ele>1757.8</ele>
        <time>2026-07-12T11:07:18Z</time>
      </trkpt>
      <trkpt lat="45.75311" lon="6.52015">
        <ele>1757.8</ele>
        <time>2026-07-12T11:07:19Z</time>
      </trkpt>
      <trkpt lat="45.7531" lon="6.52013">
        <ele>1757.8</ele>
        <time>2026-07-12T11:07:20Z</time>
      </trkpt>
      <trkpt lat="45.75309" lon="6.5201">
        <ele>1759.4</ele>
        <time>2026-07-12T11:07:21Z</time>
      </trkpt>
      <trkpt lat="45.75307" lon="6.52008">
        <ele>1759.8</ele>
        <time>2026-07-12T11:07:22Z</time>
      </trkpt>
      <trkpt lat="45.75306" lon="6.52006">
        <ele>1759.8</ele>
        <time>2026-07-12T11:07:23Z</time>
      </trkpt>
      <trkpt lat="45.75305" lon="6.52004">
        <ele>1759.8</ele>
        <time>2026-07-12T11:07:24Z</time>
      </trkpt>
      <trkpt lat="45.75305" lon="6.52002">
        <ele>1759.8</ele>
        <time>2026-07-12T11:07:25Z</time>
      </trkpt>
      <trkpt lat="45.75304" lon="6.52">
        <ele>1760.6</ele>
        <time>2026-07-12T11:07:26Z</time>
      </trkpt>
      <trkpt lat="45.75304" lon="6.51999">
        <ele>1760.6</ele>
        <time>2026-07-12T11:07:27Z</time>
      </trkpt>
      <trkpt lat="45.75304" lon="6.51996">
        <ele>1760.6</ele>
        <time>2026-07-12T11:07:28Z</time>
      </trkpt>
      <trkpt lat="45.75304" lon="6.51994">
        <ele>1760.4</ele>
        <time>2026-07-12T11:07:29Z</time>
      </trkpt>
      <trkpt lat="45.75303" lon="6.51992">
        <ele>1760.4</ele>
        <time>2026-07-12T11:07:30Z</time>
      </trkpt>
      <trkpt lat="45.75303" lon="6.5199">
        <ele>1760.4</ele>
        <time>2026-07-12T11:07:31Z</time>
      </trkpt>
      <trkpt lat="45.75302" lon="6.51988">
        <ele>1761.2</ele>
        <time>2026-07-12T11:07:32Z</time>
      </trkpt>
      <trkpt lat="45.75301" lon="6.51987">
        <ele>1761.2</ele>
        <time>2026-07-12T11:07:33Z</time>
      </trkpt>
      <trkpt lat="45.753" lon="6.51985">
        <ele>1761.2</ele>
        <time>2026-07-12T11:07:34Z</time>
      </trkpt>
      <trkpt lat="45.75299" lon="6.51984">
        <ele>1761.2</ele>
        <time>2026-07-12T11:07:35Z</time>
      </trkpt>
      <trkpt lat="45.75298" lon="6.51983">
        <ele>1761.2</ele>
        <time>2026-07-12T11:07:36Z</time>
      </trkpt>
      <trkpt lat="45.75297" lon="6.51981">
        <ele>1761.8</ele>
        <time>2026-07-12T11:07:37Z</time>
      </trkpt>
      <trkpt lat="45.75297" lon="6.51979">
        <ele>1762.2</ele>
        <time>2026-07-12T11:07:38Z</time>
      </trkpt>
      <trkpt lat="45.75297" lon="6.51976">
        <ele>1762.2</ele>
        <time>2026-07-12T11:07:39Z</time>
      </trkpt>
      <trkpt lat="45.75297" lon="6.51973">
        <ele>1762.4</ele>
        <time>2026-07-12T11:07:40Z</time>
      </trkpt>
      <trkpt lat="45.75298" lon="6.5197">
        <ele>1762.8</ele>
        <time>2026-07-12T11:07:41Z</time>
      </trkpt>
      <trkpt lat="45.75298" lon="6.51967">
        <ele>1762.8</ele>
        <time>2026-07-12T11:07:42Z</time>
      </trkpt>
      <trkpt lat="45.75297" lon="6.51964">
        <ele>1762.8</ele>
        <time>2026-07-12T11:07:43Z</time>
      </trkpt>
      <trkpt lat="45.75296" lon="6.51961">
        <ele>1762.8</ele>
        <time>2026-07-12T11:07:44Z</time>
      </trkpt>
      <trkpt lat="45.75295" lon="6.51958">
        <ele>1763.8</ele>
        <time>2026-07-12T11:07:45Z</time>
      </trkpt>
      <trkpt lat="45.75295" lon="6.51955">
        <ele>1764.8</ele>
        <time>2026-07-12T11:07:46Z</time>
      </trkpt>
      <trkpt lat="45.75294" lon="6.51952">
        <ele>1764.8</ele>
        <time>2026-07-12T11:07:47Z</time>
      </trkpt>
      <trkpt lat="45.75293" lon="6.51949">
        <ele>1765.4</ele>
        <time>2026-07-12T11:07:48Z</time>
      </trkpt>
      <trkpt lat="45.75292" lon="6.51946">
        <ele>1765.8</ele>
        <time>2026-07-12T11:07:49Z</time>
      </trkpt>
      <trkpt lat="45.75291" lon="6.51943">
        <ele>1766.2</ele>
        <time>2026-07-12T11:07:50Z</time>
      </trkpt>
      <trkpt lat="45.7529" lon="6.5194">
        <ele>1766.8</ele>
        <time>2026-07-12T11:07:51Z</time>
      </trkpt>
      <trkpt lat="45.75289" lon="6.51937">
        <ele>1766.8</ele>
        <time>2026-07-12T11:07:52Z</time>
      </trkpt>
      <trkpt lat="45.75288" lon="6.51934">
        <ele>1766.8</ele>
        <time>2026-07-12T11:07:53Z</time>
      </trkpt>
      <trkpt lat="45.75287" lon="6.51931">
        <ele>1766.8</ele>
        <time>2026-07-12T11:07:54Z</time>
      </trkpt>
      <trkpt lat="45.75286" lon="6.51929">
        <ele>1769.4</ele>
        <time>2026-07-12T11:07:55Z</time>
      </trkpt>
      <trkpt lat="45.75285" lon="6.51926">
        <ele>1770.8</ele>
        <time>2026-07-12T11:07:56Z</time>
      </trkpt>
      <trkpt lat="45.75284" lon="6.51923">
        <ele>1770.8</ele>
        <time>2026-07-12T11:07:57Z</time>
      </trkpt>
      <trkpt lat="45.75283" lon="6.51921">
        <ele>1771</ele>
        <time>2026-07-12T11:07:58Z</time>
      </trkpt>
      <trkpt lat="45.75282" lon="6.51918">
        <ele>1771.4</ele>
        <time>2026-07-12T11:07:59Z</time>
      </trkpt>
      <trkpt lat="45.75281" lon="6.51916">
        <ele>1772</ele>
        <time>2026-07-12T11:08:00Z</time>
      </trkpt>
      <trkpt lat="45.7528" lon="6.51913">
        <ele>1773.4</ele>
        <time>2026-07-12T11:08:01Z</time>
      </trkpt>
      <trkpt lat="45.75279" lon="6.5191">
        <ele>1774.4</ele>
        <time>2026-07-12T11:08:02Z</time>
      </trkpt>
      <trkpt lat="45.75278" lon="6.51907">
        <ele>1774.4</ele>
        <time>2026-07-12T11:08:03Z</time>
      </trkpt>
      <trkpt lat="45.75277" lon="6.51904">
        <ele>1774.4</ele>
        <time>2026-07-12T11:08:04Z</time>
      </trkpt>
      <trkpt lat="45.75276" lon="6.51902">
        <ele>1774.2</ele>
        <time>2026-07-12T11:08:05Z</time>
      </trkpt>
      <trkpt lat="45.75276" lon="6.51899">
        <ele>1774.2</ele>
        <time>2026-07-12T11:08:06Z</time>
      </trkpt>
      <trkpt lat="45.75275" lon="6.51896">
        <ele>1774.2</ele>
        <time>2026-07-12T11:08:07Z</time>
      </trkpt>
      <trkpt lat="45.75274" lon="6.51894">
        <ele>1776.2</ele>
        <time>2026-07-12T11:08:08Z</time>
      </trkpt>
      <trkpt lat="45.75274" lon="6.51891">
        <ele>1776.8</ele>
        <time>2026-07-12T11:08:09Z</time>
      </trkpt>
      <trkpt lat="45.75274" lon="6.51888">
        <ele>1776.8</ele>
        <time>2026-07-12T11:08:10Z</time>
      </trkpt>
      <trkpt lat="45.75273" lon="6.51885">
        <ele>1776.8</ele>
        <time>2026-07-12T11:08:11Z</time>
      </trkpt>
      <trkpt lat="45.75273" lon="6.51882">
        <ele>1776.8</ele>
        <time>2026-07-12T11:08:12Z</time>
      </trkpt>
      <trkpt lat="45.75273" lon="6.5188">
        <ele>1776.8</ele>
        <time>2026-07-12T11:08:13Z</time>
      </trkpt>
      <trkpt lat="45.75272" lon="6.51877">
        <ele>1777.8</ele>
        <time>2026-07-12T11:08:14Z</time>
      </trkpt>
      <trkpt lat="45.75271" lon="6.51874">
        <ele>1778.6</ele>
        <time>2026-07-12T11:08:15Z</time>
      </trkpt>
      <trkpt lat="45.75271" lon="6.51872">
        <ele>1779.6</ele>
        <time>2026-07-12T11:08:16Z</time>
      </trkpt>
      <trkpt lat="45.7527" lon="6.51869">
        <ele>1779.8</ele>
        <time>2026-07-12T11:08:17Z</time>
      </trkpt>
      <trkpt lat="45.75269" lon="6.51866">
        <ele>1780.6</ele>
        <time>2026-07-12T11:08:18Z</time>
      </trkpt>
      <trkpt lat="45.75268" lon="6.51863">
        <ele>1780.8</ele>
        <time>2026-07-12T11:08:19Z</time>
      </trkpt>
      <trkpt lat="45.75267" lon="6.5186">
        <ele>1781.2</ele>
        <time>2026-07-12T11:08:20Z</time>
      </trkpt>
      <trkpt lat="45.75266" lon="6.51857">
        <ele>1781.2</ele>
        <time>2026-07-12T11:08:21Z</time>
      </trkpt>
      <trkpt lat="45.75264" lon="6.51855">
        <ele>1781.2</ele>
        <time>2026-07-12T11:08:22Z</time>
      </trkpt>
      <trkpt lat="45.75263" lon="6.51853">
        <ele>1781.2</ele>
        <time>2026-07-12T11:08:23Z</time>
      </trkpt>
      <trkpt lat="45.75262" lon="6.51851">
        <ele>1782.4</ele>
        <time>2026-07-12T11:08:24Z</time>
      </trkpt>
      <trkpt lat="45.75261" lon="6.51848">
        <ele>1782.8</ele>
        <time>2026-07-12T11:08:25Z</time>
      </trkpt>
      <trkpt lat="45.7526" lon="6.51845">
        <ele>1782.8</ele>
        <time>2026-07-12T11:08:26Z</time>
      </trkpt>
      <trkpt lat="45.7526" lon="6.51842">
        <ele>1782.8</ele>
        <time>2026-07-12T11:08:27Z</time>
      </trkpt>
      <trkpt lat="45.75259" lon="6.5184">
        <ele>1782.8</ele>
        <time>2026-07-12T11:08:28Z</time>
      </trkpt>
      <trkpt lat="45.75258" lon="6.51836">
        <ele>1783.6</ele>
        <time>2026-07-12T11:08:29Z</time>
      </trkpt>
      <trkpt lat="45.75257" lon="6.51834">
        <ele>1784.6</ele>
        <time>2026-07-12T11:08:30Z</time>
      </trkpt>
      <trkpt lat="45.75256" lon="6.51831">
        <ele>1785</ele>
        <time>2026-07-12T11:08:31Z</time>
      </trkpt>
      <trkpt lat="45.75255" lon="6.51828">
        <ele>1785.4</ele>
        <time>2026-07-12T11:08:32Z</time>
      </trkpt>
      <trkpt lat="45.75254" lon="6.51825">
        <ele>1786.4</ele>
        <time>2026-07-12T11:08:33Z</time>
      </trkpt>
      <trkpt lat="45.75253" lon="6.51822">
        <ele>1787</ele>
        <time>2026-07-12T11:08:34Z</time>
      </trkpt>
      <trkpt lat="45.75252" lon="6.51819">
        <ele>1787.2</ele>
        <time>2026-07-12T11:08:35Z</time>
      </trkpt>
      <trkpt lat="45.75251" lon="6.51816">
        <ele>1788.6</ele>
        <time>2026-07-12T11:08:36Z</time>
      </trkpt>
      <trkpt lat="45.7525" lon="6.51813">
        <ele>1788.6</ele>
        <time>2026-07-12T11:08:37Z</time>
      </trkpt>
      <trkpt lat="45.75249" lon="6.5181">
        <ele>1788.6</ele>
        <time>2026-07-12T11:08:38Z</time>
      </trkpt>
      <trkpt lat="45.75248" lon="6.51806">
        <ele>1788.6</ele>
        <time>2026-07-12T11:08:39Z</time>
      </trkpt>
      <trkpt lat="45.75247" lon="6.51803">
        <ele>1788.6</ele>
        <time>2026-07-12T11:08:40Z</time>
      </trkpt>
      <trkpt lat="45.75246" lon="6.518">
        <ele>1790.4</ele>
        <time>2026-07-12T11:08:41Z</time>
      </trkpt>
      <trkpt lat="45.75245" lon="6.51797">
        <ele>1790.6</ele>
        <time>2026-07-12T11:08:42Z</time>
      </trkpt>
      <trkpt lat="45.75244" lon="6.51795">
        <ele>1791.2</ele>
        <time>2026-07-12T11:08:43Z</time>
      </trkpt>
      <trkpt lat="45.75242" lon="6.51792">
        <ele>1791.2</ele>
        <time>2026-07-12T11:08:44Z</time>
      </trkpt>
      <trkpt lat="45.75241" lon="6.51789">
        <ele>1791.2</ele>
        <time>2026-07-12T11:08:45Z</time>
      </trkpt>
      <trkpt lat="45.7524" lon="6.51786">
        <ele>1791.2</ele>
        <time>2026-07-12T11:08:46Z</time>
      </trkpt>
      <trkpt lat="45.75239" lon="6.51783">
        <ele>1792.2</ele>
        <time>2026-07-12T11:08:47Z</time>
      </trkpt>
      <trkpt lat="45.75238" lon="6.5178">
        <ele>1793.2</ele>
        <time>2026-07-12T11:08:48Z</time>
      </trkpt>
      <trkpt lat="45.75237" lon="6.51777">
        <ele>1793.6</ele>
        <time>2026-07-12T11:08:49Z</time>
      </trkpt>
      <trkpt lat="45.75236" lon="6.51774">
        <ele>1794</ele>
        <time>2026-07-12T11:08:50Z</time>
      </trkpt>
      <trkpt lat="45.75235" lon="6.51771">
        <ele>1794.6</ele>
        <time>2026-07-12T11:08:51Z</time>
      </trkpt>
      <trkpt lat="45.75234" lon="6.51768">
        <ele>1795.6</ele>
        <time>2026-07-12T11:08:52Z</time>
      </trkpt>
      <trkpt lat="45.75233" lon="6.51765">
        <ele>1796.8</ele>
        <time>2026-07-12T11:08:53Z</time>
      </trkpt>
      <trkpt lat="45.75232" lon="6.51762">
        <ele>1796.8</ele>
        <time>2026-07-12T11:08:54Z</time>
      </trkpt>
      <trkpt lat="45.75231" lon="6.51759">
        <ele>1796.8</ele>
        <time>2026-07-12T11:08:55Z</time>
      </trkpt>
      <trkpt lat="45.7523" lon="6.51756">
        <ele>1796.8</ele>
        <time>2026-07-12T11:08:56Z</time>
      </trkpt>
      <trkpt lat="45.7523" lon="6.51753">
        <ele>1796.8</ele>
        <time>2026-07-12T11:08:57Z</time>
      </trkpt>
      <trkpt lat="45.75229" lon="6.5175">
        <ele>1796.8</ele>
        <time>2026-07-12T11:08:58Z</time>
      </trkpt>
      <trkpt lat="45.75228" lon="6.51748">
        <ele>1796.8</ele>
        <time>2026-07-12T11:08:59Z</time>
      </trkpt>
      <trkpt lat="45.75227" lon="6.51745">
        <ele>1797.8</ele>
        <time>2026-07-12T11:09:00Z</time>
      </trkpt>
      <trkpt lat="45.75226" lon="6.51742">
        <ele>1798.8</ele>
        <time>2026-07-12T11:09:01Z</time>
      </trkpt>
      <trkpt lat="45.75225" lon="6.51739">
        <ele>1799.8</ele>
        <time>2026-07-12T11:09:02Z</time>
      </trkpt>
      <trkpt lat="45.75224" lon="6.51737">
        <ele>1800</ele>
        <time>2026-07-12T11:09:03Z</time>
      </trkpt>
      <trkpt lat="45.75223" lon="6.51734">
        <ele>1800.2</ele>
        <time>2026-07-12T11:09:04Z</time>
      </trkpt>
      <trkpt lat="45.75223" lon="6.51731">
        <ele>1800.6</ele>
        <time>2026-07-12T11:09:05Z</time>
      </trkpt>
      <trkpt lat="45.75222" lon="6.51729">
        <ele>1801.8</ele>
        <time>2026-07-12T11:09:06Z</time>
      </trkpt>
      <trkpt lat="45.75221" lon="6.51726">
        <ele>1801.8</ele>
        <time>2026-07-12T11:09:07Z</time>
      </trkpt>
      <trkpt lat="45.7522" lon="6.51724">
        <ele>1801.8</ele>
        <time>2026-07-12T11:09:08Z</time>
      </trkpt>
      <trkpt lat="45.75219" lon="6.51721">
        <ele>1801.6</ele>
        <time>2026-07-12T11:09:09Z</time>
      </trkpt>
      <trkpt lat="45.75218" lon="6.51718">
        <ele>1801.6</ele>
        <time>2026-07-12T11:09:10Z</time>
      </trkpt>
      <trkpt lat="45.75217" lon="6.51716">
        <ele>1801.6</ele>
        <time>2026-07-12T11:09:11Z</time>
      </trkpt>
      <trkpt lat="45.75217" lon="6.51713">
        <ele>1801.6</ele>
        <time>2026-07-12T11:09:12Z</time>
      </trkpt>
      <trkpt lat="45.75216" lon="6.51711">
        <ele>1801.6</ele>
        <time>2026-07-12T11:09:13Z</time>
      </trkpt>
      <trkpt lat="45.75215" lon="6.51708">
        <ele>1801.6</ele>
        <time>2026-07-12T11:09:14Z</time>
      </trkpt>
      <trkpt lat="45.75214" lon="6.51705">
        <ele>1801.6</ele>
        <time>2026-07-12T11:09:15Z</time>
      </trkpt>
      <trkpt lat="45.75214" lon="6.51701">
        <ele>1801.6</ele>
        <time>2026-07-12T11:09:16Z</time>
      </trkpt>
      <trkpt lat="45.75213" lon="6.51698">
        <ele>1801.8</ele>
        <time>2026-07-12T11:09:17Z</time>
      </trkpt>
      <trkpt lat="45.75212" lon="6.51694">
        <ele>1802.6</ele>
        <time>2026-07-12T11:09:18Z</time>
      </trkpt>
      <trkpt lat="45.75211" lon="6.51689">
        <ele>1802.6</ele>
        <time>2026-07-12T11:09:19Z</time>
      </trkpt>
      <trkpt lat="45.75209" lon="6.51684">
        <ele>1802.6</ele>
        <time>2026-07-12T11:09:20Z</time>
      </trkpt>
      <trkpt lat="45.75208" lon="6.51679">
        <ele>1802</ele>
        <time>2026-07-12T11:09:21Z</time>
      </trkpt>
      <trkpt lat="45.75206" lon="6.51674">
        <ele>1802</ele>
        <time>2026-07-12T11:09:22Z</time>
      </trkpt>
      <trkpt lat="45.75204" lon="6.51669">
        <ele>1803.4</ele>
        <time>2026-07-12T11:09:23Z</time>
      </trkpt>
      <trkpt lat="45.75203" lon="6.51665">
        <ele>1803.4</ele>
        <time>2026-07-12T11:09:24Z</time>
      </trkpt>
      <trkpt lat="45.75202" lon="6.5166">
        <ele>1803.4</ele>
        <time>2026-07-12T11:09:25Z</time>
      </trkpt>
      <trkpt lat="45.752" lon="6.51655">
        <ele>1803.4</ele>
        <time>2026-07-12T11:09:26Z</time>
      </trkpt>
      <trkpt lat="45.75199" lon="6.51651">
        <ele>1803.6</ele>
        <time>2026-07-12T11:09:27Z</time>
      </trkpt>
      <trkpt lat="45.75197" lon="6.51646">
        <ele>1804.4</ele>
        <time>2026-07-12T11:09:28Z</time>
      </trkpt>
      <trkpt lat="45.75196" lon="6.51641">
        <ele>1804.4</ele>
        <time>2026-07-12T11:09:29Z</time>
      </trkpt>
      <trkpt lat="45.75195" lon="6.51637">
        <ele>1804.4</ele>
        <time>2026-07-12T11:09:30Z</time>
      </trkpt>
      <trkpt lat="45.75194" lon="6.51632">
        <ele>1803.8</ele>
        <time>2026-07-12T11:09:31Z</time>
      </trkpt>
      <trkpt lat="45.75193" lon="6.51628">
        <ele>1803.8</ele>
        <time>2026-07-12T11:09:32Z</time>
      </trkpt>
      <trkpt lat="45.75192" lon="6.51624">
        <ele>1804.2</ele>
        <time>2026-07-12T11:09:33Z</time>
      </trkpt>
      <trkpt lat="45.75191" lon="6.51621">
        <ele>1804.2</ele>
        <time>2026-07-12T11:09:34Z</time>
      </trkpt>
      <trkpt lat="45.7519" lon="6.51608">
        <ele>1804.6</ele>
        <time>2026-07-12T11:09:42Z</time>
      </trkpt>
      <trkpt lat="45.75189" lon="6.51608">
        <ele>1804.6</ele>
        <time>2026-07-12T11:09:43Z</time>
      </trkpt>
      <trkpt lat="45.75188" lon="6.51607">
        <ele>1804.6</ele>
        <time>2026-07-12T11:09:44Z</time>
      </trkpt>
      <trkpt lat="45.75187" lon="6.51606">
        <ele>1804.6</ele>
        <time>2026-07-12T11:09:45Z</time>
      </trkpt>
      <trkpt lat="45.75187" lon="6.51606">
        <ele>1805</ele>
        <time>2026-07-12T11:09:46Z</time>
      </trkpt>
      <trkpt lat="45.75186" lon="6.51605">
        <ele>1806</ele>
        <time>2026-07-12T11:09:47Z</time>
      </trkpt>
      <trkpt lat="45.75185" lon="6.51604">
        <ele>1806.4</ele>
        <time>2026-07-12T11:09:48Z</time>
      </trkpt>
      <trkpt lat="45.75184" lon="6.51602">
        <ele>1807.2</ele>
        <time>2026-07-12T11:09:49Z</time>
      </trkpt>
      <trkpt lat="45.75183" lon="6.516">
        <ele>1807.2</ele>
        <time>2026-07-12T11:09:50Z</time>
      </trkpt>
      <trkpt lat="45.75182" lon="6.51597">
        <ele>1807.2</ele>
        <time>2026-07-12T11:09:51Z</time>
      </trkpt>
      <trkpt lat="45.75182" lon="6.51594">
        <ele>1807.2</ele>
        <time>2026-07-12T11:09:52Z</time>
      </trkpt>
      <trkpt lat="45.75181" lon="6.51591">
        <ele>1808.6</ele>
        <time>2026-07-12T11:09:53Z</time>
      </trkpt>
      <trkpt lat="45.7518" lon="6.51587">
        <ele>1809.4</ele>
        <time>2026-07-12T11:09:54Z</time>
      </trkpt>
      <trkpt lat="45.75179" lon="6.51584">
        <ele>1809.4</ele>
        <time>2026-07-12T11:09:55Z</time>
      </trkpt>
      <trkpt lat="45.75178" lon="6.5158">
        <ele>1809.4</ele>
        <time>2026-07-12T11:09:56Z</time>
      </trkpt>
      <trkpt lat="45.75177" lon="6.51575">
        <ele>1809.4</ele>
        <time>2026-07-12T11:09:57Z</time>
      </trkpt>
      <trkpt lat="45.75176" lon="6.51571">
        <ele>1810.4</ele>
        <time>2026-07-12T11:09:58Z</time>
      </trkpt>
      <trkpt lat="45.75175" lon="6.51567">
        <ele>1811.2</ele>
        <time>2026-07-12T11:09:59Z</time>
      </trkpt>
      <trkpt lat="45.75173" lon="6.51564">
        <ele>1812</ele>
        <time>2026-07-12T11:10:00Z</time>
      </trkpt>
      <trkpt lat="45.75172" lon="6.51561">
        <ele>1812</ele>
        <time>2026-07-12T11:10:01Z</time>
      </trkpt>
      <trkpt lat="45.75171" lon="6.51558">
        <ele>1812</ele>
        <time>2026-07-12T11:10:02Z</time>
      </trkpt>
      <trkpt lat="45.7517" lon="6.51555">
        <ele>1812</ele>
        <time>2026-07-12T11:10:03Z</time>
      </trkpt>
      <trkpt lat="45.75169" lon="6.51551">
        <ele>1813</ele>
        <time>2026-07-12T11:10:04Z</time>
      </trkpt>
      <trkpt lat="45.75168" lon="6.51548">
        <ele>1813</ele>
        <time>2026-07-12T11:10:05Z</time>
      </trkpt>
      <trkpt lat="45.75167" lon="6.51544">
        <ele>1814</ele>
        <time>2026-07-12T11:10:06Z</time>
      </trkpt>
      <trkpt lat="45.75166" lon="6.51541">
        <ele>1814.8</ele>
        <time>2026-07-12T11:10:07Z</time>
      </trkpt>
      <trkpt lat="45.75165" lon="6.51538">
        <ele>1815.8</ele>
        <time>2026-07-12T11:10:08Z</time>
      </trkpt>
      <trkpt lat="45.75164" lon="6.51534">
        <ele>1816.2</ele>
        <time>2026-07-12T11:10:09Z</time>
      </trkpt>
      <trkpt lat="45.75163" lon="6.51531">
        <ele>1816.6</ele>
        <time>2026-07-12T11:10:10Z</time>
      </trkpt>
      <trkpt lat="45.75162" lon="6.51527">
        <ele>1816.6</ele>
        <time>2026-07-12T11:10:11Z</time>
      </trkpt>
      <trkpt lat="45.7516" lon="6.51524">
        <ele>1816.6</ele>
        <time>2026-07-12T11:10:12Z</time>
      </trkpt>
      <trkpt lat="45.75159" lon="6.51521">
        <ele>1816.6</ele>
        <time>2026-07-12T11:10:13Z</time>
      </trkpt>
      <trkpt lat="45.75158" lon="6.51518">
        <ele>1817.6</ele>
        <time>2026-07-12T11:10:14Z</time>
      </trkpt>
      <trkpt lat="45.75156" lon="6.51516">
        <ele>1818.6</ele>
        <time>2026-07-12T11:10:15Z</time>
      </trkpt>
      <trkpt lat="45.75155" lon="6.51513">
        <ele>1819.6</ele>
        <time>2026-07-12T11:10:16Z</time>
      </trkpt>
      <trkpt lat="45.75154" lon="6.5151">
        <ele>1819.6</ele>
        <time>2026-07-12T11:10:17Z</time>
      </trkpt>
      <trkpt lat="45.75153" lon="6.51507">
        <ele>1819.6</ele>
        <time>2026-07-12T11:10:18Z</time>
      </trkpt>
      <trkpt lat="45.75152" lon="6.51503">
        <ele>1819.6</ele>
        <time>2026-07-12T11:10:19Z</time>
      </trkpt>
      <trkpt lat="45.75151" lon="6.515">
        <ele>1820.6</ele>
        <time>2026-07-12T11:10:20Z</time>
      </trkpt>
      <trkpt lat="45.7515" lon="6.51497">
        <ele>1821.6</ele>
        <time>2026-07-12T11:10:21Z</time>
      </trkpt>
      <trkpt lat="45.75149" lon="6.51494">
        <ele>1821.6</ele>
        <time>2026-07-12T11:10:22Z</time>
      </trkpt>
      <trkpt lat="45.75148" lon="6.5149">
        <ele>1821.6</ele>
        <time>2026-07-12T11:10:23Z</time>
      </trkpt>
      <trkpt lat="45.75147" lon="6.51487">
        <ele>1820.8</ele>
        <time>2026-07-12T11:10:24Z</time>
      </trkpt>
      <trkpt lat="45.75146" lon="6.51485">
        <ele>1820.8</ele>
        <time>2026-07-12T11:10:25Z</time>
      </trkpt>
      <trkpt lat="45.75145" lon="6.51482">
        <ele>1820.8</ele>
        <time>2026-07-12T11:10:26Z</time>
      </trkpt>
      <trkpt lat="45.75145" lon="6.5148">
        <ele>1821.8</ele>
        <time>2026-07-12T11:10:27Z</time>
      </trkpt>
      <trkpt lat="45.75144" lon="6.51478">
        <ele>1821.8</ele>
        <time>2026-07-12T11:10:28Z</time>
      </trkpt>
      <trkpt lat="45.75143" lon="6.51476">
        <ele>1821.8</ele>
        <time>2026-07-12T11:10:29Z</time>
      </trkpt>
      <trkpt lat="45.75143" lon="6.51474">
        <ele>1820.4</ele>
        <time>2026-07-12T11:10:30Z</time>
      </trkpt>
      <trkpt lat="45.75142" lon="6.51471">
        <ele>1820.4</ele>
        <time>2026-07-12T11:10:31Z</time>
      </trkpt>
      <trkpt lat="45.75141" lon="6.51467">
        <ele>1820.4</ele>
        <time>2026-07-12T11:10:32Z</time>
      </trkpt>
      <trkpt lat="45.7514" lon="6.51463">
        <ele>1821.4</ele>
        <time>2026-07-12T11:10:33Z</time>
      </trkpt>
      <trkpt lat="45.75139" lon="6.51459">
        <ele>1822.4</ele>
        <time>2026-07-12T11:10:34Z</time>
      </trkpt>
      <trkpt lat="45.75139" lon="6.51456">
        <ele>1823.2</ele>
        <time>2026-07-12T11:10:35Z</time>
      </trkpt>
      <trkpt lat="45.75139" lon="6.51454">
        <ele>1823.2</ele>
        <time>2026-07-12T11:10:36Z</time>
      </trkpt>
      <trkpt lat="45.75138" lon="6.5145">
        <ele>1823.2</ele>
        <time>2026-07-12T11:10:37Z</time>
      </trkpt>
      <trkpt lat="45.75137" lon="6.51447">
        <ele>1823.2</ele>
        <time>2026-07-12T11:10:38Z</time>
      </trkpt>
      <trkpt lat="45.75137" lon="6.51443">
        <ele>1823.2</ele>
        <time>2026-07-12T11:10:39Z</time>
      </trkpt>
      <trkpt lat="45.75136" lon="6.5144">
        <ele>1823.8</ele>
        <time>2026-07-12T11:10:40Z</time>
      </trkpt>
      <trkpt lat="45.75135" lon="6.51437">
        <ele>1824.6</ele>
        <time>2026-07-12T11:10:41Z</time>
      </trkpt>
      <trkpt lat="45.75135" lon="6.51433">
        <ele>1824.6</ele>
        <time>2026-07-12T11:10:42Z</time>
      </trkpt>
      <trkpt lat="45.75134" lon="6.5143">
        <ele>1824.6</ele>
        <time>2026-07-12T11:10:43Z</time>
      </trkpt>
      <trkpt lat="45.75133" lon="6.51427">
        <ele>1824.6</ele>
        <time>2026-07-12T11:10:44Z</time>
      </trkpt>
      <trkpt lat="45.75132" lon="6.51425">
        <ele>1824.6</ele>
        <time>2026-07-12T11:10:45Z</time>
      </trkpt>
      <trkpt lat="45.75131" lon="6.51423">
        <ele>1824.6</ele>
        <time>2026-07-12T11:10:46Z</time>
      </trkpt>
      <trkpt lat="45.7513" lon="6.5142">
        <ele>1825.4</ele>
        <time>2026-07-12T11:10:47Z</time>
      </trkpt>
      <trkpt lat="45.75129" lon="6.51418">
        <ele>1825.6</ele>
        <time>2026-07-12T11:10:48Z</time>
      </trkpt>
      <trkpt lat="45.75128" lon="6.51415">
        <ele>1825.6</ele>
        <time>2026-07-12T11:10:49Z</time>
      </trkpt>
      <trkpt lat="45.75128" lon="6.51412">
        <ele>1825.6</ele>
        <time>2026-07-12T11:10:50Z</time>
      </trkpt>
      <trkpt lat="45.75127" lon="6.5141">
        <ele>1825.2</ele>
        <time>2026-07-12T11:10:51Z</time>
      </trkpt>
      <trkpt lat="45.75126" lon="6.51407">
        <ele>1825.2</ele>
        <time>2026-07-12T11:10:52Z</time>
      </trkpt>
      <trkpt lat="45.75125" lon="6.51405">
        <ele>1825.2</ele>
        <time>2026-07-12T11:10:53Z</time>
      </trkpt>
      <trkpt lat="45.75124" lon="6.51402">
        <ele>1825.8</ele>
        <time>2026-07-12T11:10:54Z</time>
      </trkpt>
      <trkpt lat="45.75123" lon="6.51399">
        <ele>1826.2</ele>
        <time>2026-07-12T11:10:55Z</time>
      </trkpt>
      <trkpt lat="45.75122" lon="6.51396">
        <ele>1827.2</ele>
        <time>2026-07-12T11:10:56Z</time>
      </trkpt>
      <trkpt lat="45.7512" lon="6.51394">
        <ele>1827.4</ele>
        <time>2026-07-12T11:10:57Z</time>
      </trkpt>
      <trkpt lat="45.75119" lon="6.5139">
        <ele>1827.4</ele>
        <time>2026-07-12T11:10:58Z</time>
      </trkpt>
      <trkpt lat="45.75118" lon="6.51387">
        <ele>1827.4</ele>
        <time>2026-07-12T11:10:59Z</time>
      </trkpt>
      <trkpt lat="45.75117" lon="6.51384">
        <ele>1827.4</ele>
        <time>2026-07-12T11:11:00Z</time>
      </trkpt>
      <trkpt lat="45.75116" lon="6.51381">
        <ele>1828.4</ele>
        <time>2026-07-12T11:11:01Z</time>
      </trkpt>
      <trkpt lat="45.75115" lon="6.51378">
        <ele>1829.4</ele>
        <time>2026-07-12T11:11:02Z</time>
      </trkpt>
      <trkpt lat="45.75114" lon="6.51375">
        <ele>1830</ele>
        <time>2026-07-12T11:11:03Z</time>
      </trkpt>
      <trkpt lat="45.75113" lon="6.51372">
        <ele>1830</ele>
        <time>2026-07-12T11:11:04Z</time>
      </trkpt>
      <trkpt lat="45.75112" lon="6.51369">
        <ele>1830</ele>
        <time>2026-07-12T11:11:05Z</time>
      </trkpt>
      <trkpt lat="45.75111" lon="6.51366">
        <ele>1830</ele>
        <time>2026-07-12T11:11:06Z</time>
      </trkpt>
      <trkpt lat="45.7511" lon="6.51363">
        <ele>1830.8</ele>
        <time>2026-07-12T11:11:07Z</time>
      </trkpt>
      <trkpt lat="45.75109" lon="6.5136">
        <ele>1831</ele>
        <time>2026-07-12T11:11:08Z</time>
      </trkpt>
      <trkpt lat="45.75107" lon="6.51357">
        <ele>1831</ele>
        <time>2026-07-12T11:11:09Z</time>
      </trkpt>
      <trkpt lat="45.75106" lon="6.51353">
        <ele>1831</ele>
        <time>2026-07-12T11:11:10Z</time>
      </trkpt>
      <trkpt lat="45.75105" lon="6.5135">
        <ele>1831</ele>
        <time>2026-07-12T11:11:11Z</time>
      </trkpt>
      <trkpt lat="45.75104" lon="6.51347">
        <ele>1832</ele>
        <time>2026-07-12T11:11:12Z</time>
      </trkpt>
      <trkpt lat="45.75103" lon="6.51345">
        <ele>1832.2</ele>
        <time>2026-07-12T11:11:13Z</time>
      </trkpt>
      <trkpt lat="45.75102" lon="6.51341">
        <ele>1833</ele>
        <time>2026-07-12T11:11:14Z</time>
      </trkpt>
      <trkpt lat="45.75101" lon="6.51338">
        <ele>1834</ele>
        <time>2026-07-12T11:11:15Z</time>
      </trkpt>
      <trkpt lat="45.75099" lon="6.51335">
        <ele>1834.8</ele>
        <time>2026-07-12T11:11:16Z</time>
      </trkpt>
      <trkpt lat="45.75098" lon="6.51332">
        <ele>1834.8</ele>
        <time>2026-07-12T11:11:17Z</time>
      </trkpt>
      <trkpt lat="45.75097" lon="6.51329">
        <ele>1834.8</ele>
        <time>2026-07-12T11:11:18Z</time>
      </trkpt>
      <trkpt lat="45.75095" lon="6.51326">
        <ele>1834.6</ele>
        <time>2026-07-12T11:11:19Z</time>
      </trkpt>
      <trkpt lat="45.75094" lon="6.51323">
        <ele>1835</ele>
        <time>2026-07-12T11:11:20Z</time>
      </trkpt>
      <trkpt lat="45.75093" lon="6.5132">
        <ele>1836</ele>
        <time>2026-07-12T11:11:21Z</time>
      </trkpt>
      <trkpt lat="45.75091" lon="6.51317">
        <ele>1836</ele>
        <time>2026-07-12T11:11:22Z</time>
      </trkpt>
      <trkpt lat="45.7509" lon="6.51315">
        <ele>1836</ele>
        <time>2026-07-12T11:11:23Z</time>
      </trkpt>
      <trkpt lat="45.75089" lon="6.51312">
        <ele>1836</ele>
        <time>2026-07-12T11:11:24Z</time>
      </trkpt>
      <trkpt lat="45.75087" lon="6.5131">
        <ele>1837.2</ele>
        <time>2026-07-12T11:11:25Z</time>
      </trkpt>
      <trkpt lat="45.75086" lon="6.51308">
        <ele>1837.2</ele>
        <time>2026-07-12T11:11:26Z</time>
      </trkpt>
      <trkpt lat="45.75085" lon="6.51305">
        <ele>1837.2</ele>
        <time>2026-07-12T11:11:27Z</time>
      </trkpt>
      <trkpt lat="45.75083" lon="6.51303">
        <ele>1837.2</ele>
        <time>2026-07-12T11:11:28Z</time>
      </trkpt>
      <trkpt lat="45.75082" lon="6.513">
        <ele>1837.2</ele>
        <time>2026-07-12T11:11:29Z</time>
      </trkpt>
      <trkpt lat="45.7508" lon="6.51298">
        <ele>1837.2</ele>
        <time>2026-07-12T11:11:30Z</time>
      </trkpt>
      <trkpt lat="45.75078" lon="6.51295">
        <ele>1837.8</ele>
        <time>2026-07-12T11:11:31Z</time>
      </trkpt>
      <trkpt lat="45.75077" lon="6.51293">
        <ele>1838.4</ele>
        <time>2026-07-12T11:11:32Z</time>
      </trkpt>
      <trkpt lat="45.75075" lon="6.5129">
        <ele>1839.4</ele>
        <time>2026-07-12T11:11:33Z</time>
      </trkpt>
      <trkpt lat="45.75074" lon="6.51289">
        <ele>1839.4</ele>
        <time>2026-07-12T11:11:34Z</time>
      </trkpt>
      <trkpt lat="45.75072" lon="6.51287">
        <ele>1839.4</ele>
        <time>2026-07-12T11:11:35Z</time>
      </trkpt>
      <trkpt lat="45.7507" lon="6.51285">
        <ele>1839.4</ele>
        <time>2026-07-12T11:11:36Z</time>
      </trkpt>
      <trkpt lat="45.75069" lon="6.51283">
        <ele>1839.4</ele>
        <time>2026-07-12T11:11:37Z</time>
      </trkpt>
      <trkpt lat="45.75067" lon="6.51281">
        <ele>1840.8</ele>
        <time>2026-07-12T11:11:38Z</time>
      </trkpt>
      <trkpt lat="45.75065" lon="6.51279">
        <ele>1841.4</ele>
        <time>2026-07-12T11:11:39Z</time>
      </trkpt>
      <trkpt lat="45.75063" lon="6.51277">
        <ele>1841.4</ele>
        <time>2026-07-12T11:11:40Z</time>
      </trkpt>
      <trkpt lat="45.75061" lon="6.51275">
        <ele>1841.4</ele>
        <time>2026-07-12T11:11:41Z</time>
      </trkpt>
      <trkpt lat="45.75059" lon="6.51273">
        <ele>1841.4</ele>
        <time>2026-07-12T11:11:42Z</time>
      </trkpt>
      <trkpt lat="45.75057" lon="6.51271">
        <ele>1841.6</ele>
        <time>2026-07-12T11:11:43Z</time>
      </trkpt>
      <trkpt lat="45.75055" lon="6.51269">
        <ele>1841.6</ele>
        <time>2026-07-12T11:11:44Z</time>
      </trkpt>
      <trkpt lat="45.75054" lon="6.51266">
        <ele>1841.6</ele>
        <time>2026-07-12T11:11:45Z</time>
      </trkpt>
      <trkpt lat="45.75052" lon="6.51264">
        <ele>1841.6</ele>
        <time>2026-07-12T11:11:46Z</time>
      </trkpt>
      <trkpt lat="45.75051" lon="6.51262">
        <ele>1842.2</ele>
        <time>2026-07-12T11:11:47Z</time>
      </trkpt>
      <trkpt lat="45.7505" lon="6.51259">
        <ele>1842.2</ele>
        <time>2026-07-12T11:11:48Z</time>
      </trkpt>
      <trkpt lat="45.75051" lon="6.51256">
        <ele>1842.2</ele>
        <time>2026-07-12T11:11:49Z</time>
      </trkpt>
      <trkpt lat="45.75052" lon="6.51253">
        <ele>1842.2</ele>
        <time>2026-07-12T11:11:50Z</time>
      </trkpt>
      <trkpt lat="45.75053" lon="6.51249">
        <ele>1842.2</ele>
        <time>2026-07-12T11:11:51Z</time>
      </trkpt>
      <trkpt lat="45.75054" lon="6.51246">
        <ele>1842.2</ele>
        <time>2026-07-12T11:11:52Z</time>
      </trkpt>
      <trkpt lat="45.75054" lon="6.51243">
        <ele>1843.2</ele>
        <time>2026-07-12T11:11:53Z</time>
      </trkpt>
      <trkpt lat="45.75055" lon="6.51239">
        <ele>1843.2</ele>
        <time>2026-07-12T11:11:54Z</time>
      </trkpt>
      <trkpt lat="45.75055" lon="6.51236">
        <ele>1843.2</ele>
        <time>2026-07-12T11:11:55Z</time>
      </trkpt>
      <trkpt lat="45.75056" lon="6.51233">
        <ele>1843.2</ele>
        <time>2026-07-12T11:11:56Z</time>
      </trkpt>
      <trkpt lat="45.75056" lon="6.51231">
        <ele>1843.8</ele>
        <time>2026-07-12T11:11:57Z</time>
      </trkpt>
      <trkpt lat="45.75057" lon="6.51228">
        <ele>1844.8</ele>
        <time>2026-07-12T11:11:58Z</time>
      </trkpt>
      <trkpt lat="45.75058" lon="6.51224">
        <ele>1845.8</ele>
        <time>2026-07-12T11:11:59Z</time>
      </trkpt>
      <trkpt lat="45.75058" lon="6.5122">
        <ele>1846.2</ele>
        <time>2026-07-12T11:12:00Z</time>
      </trkpt>
      <trkpt lat="45.75058" lon="6.51216">
        <ele>1846.2</ele>
        <time>2026-07-12T11:12:01Z</time>
      </trkpt>
      <trkpt lat="45.75058" lon="6.51212">
        <ele>1846.2</ele>
        <time>2026-07-12T11:12:02Z</time>
      </trkpt>
      <trkpt lat="45.75058" lon="6.51208">
        <ele>1846.2</ele>
        <time>2026-07-12T11:12:03Z</time>
      </trkpt>
      <trkpt lat="45.75058" lon="6.51204">
        <ele>1846.2</ele>
        <time>2026-07-12T11:12:04Z</time>
      </trkpt>
      <trkpt lat="45.75057" lon="6.512">
        <ele>1846.2</ele>
        <time>2026-07-12T11:12:05Z</time>
      </trkpt>
      <trkpt lat="45.75057" lon="6.51196">
        <ele>1848.2</ele>
        <time>2026-07-12T11:12:06Z</time>
      </trkpt>
      <trkpt lat="45.75056" lon="6.51192">
        <ele>1848.2</ele>
        <time>2026-07-12T11:12:07Z</time>
      </trkpt>
      <trkpt lat="45.75055" lon="6.51188">
        <ele>1848.2</ele>
        <time>2026-07-12T11:12:08Z</time>
      </trkpt>
      <trkpt lat="45.75054" lon="6.51184">
        <ele>1847.2</ele>
        <time>2026-07-12T11:12:09Z</time>
      </trkpt>
      <trkpt lat="45.75053" lon="6.5118">
        <ele>1847.2</ele>
        <time>2026-07-12T11:12:10Z</time>
      </trkpt>
      <trkpt lat="45.75053" lon="6.51176">
        <ele>1849.6</ele>
        <time>2026-07-12T11:12:11Z</time>
      </trkpt>
      <trkpt lat="45.75052" lon="6.51172">
        <ele>1849.6</ele>
        <time>2026-07-12T11:12:12Z</time>
      </trkpt>
      <trkpt lat="45.75051" lon="6.51168">
        <ele>1849.6</ele>
        <time>2026-07-12T11:12:13Z</time>
      </trkpt>
      <trkpt lat="45.7505" lon="6.51165">
        <ele>1849.6</ele>
        <time>2026-07-12T11:12:14Z</time>
      </trkpt>
      <trkpt lat="45.75049" lon="6.51161">
        <ele>1850.6</ele>
        <time>2026-07-12T11:12:15Z</time>
      </trkpt>
      <trkpt lat="45.75048" lon="6.51157">
        <ele>1850.6</ele>
        <time>2026-07-12T11:12:16Z</time>
      </trkpt>
      <trkpt lat="45.75047" lon="6.51153">
        <ele>1850.6</ele>
        <time>2026-07-12T11:12:17Z</time>
      </trkpt>
      <trkpt lat="45.75046" lon="6.5115">
        <ele>1850.6</ele>
        <time>2026-07-12T11:12:18Z</time>
      </trkpt>
      <trkpt lat="45.75045" lon="6.51146">
        <ele>1851.4</ele>
        <time>2026-07-12T11:12:19Z</time>
      </trkpt>
      <trkpt lat="45.75044" lon="6.51143">
        <ele>1851.4</ele>
        <time>2026-07-12T11:12:20Z</time>
      </trkpt>
      <trkpt lat="45.75044" lon="6.51139">
        <ele>1851.8</ele>
        <time>2026-07-12T11:12:21Z</time>
      </trkpt>
      <trkpt lat="45.75043" lon="6.51135">
        <ele>1851.8</ele>
        <time>2026-07-12T11:12:22Z</time>
      </trkpt>
      <trkpt lat="45.75043" lon="6.51131">
        <ele>1851.8</ele>
        <time>2026-07-12T11:12:23Z</time>
      </trkpt>
      <trkpt lat="45.75042" lon="6.51128">
        <ele>1851</ele>
        <time>2026-07-12T11:12:24Z</time>
      </trkpt>
      <trkpt lat="45.75042" lon="6.51125">
        <ele>1850.8</ele>
        <time>2026-07-12T11:12:25Z</time>
      </trkpt>
      <trkpt lat="45.75041" lon="6.51123">
        <ele>1849.6</ele>
        <time>2026-07-12T11:12:26Z</time>
      </trkpt>
      <trkpt lat="45.75041" lon="6.51121">
        <ele>1849.6</ele>
        <time>2026-07-12T11:12:27Z</time>
      </trkpt>
      <trkpt lat="45.75041" lon="6.51119">
        <ele>1849.6</ele>
        <time>2026-07-12T11:12:28Z</time>
      </trkpt>
      <trkpt lat="45.7504" lon="6.51117">
        <ele>1851.6</ele>
        <time>2026-07-12T11:12:29Z</time>
      </trkpt>
      <trkpt lat="45.7504" lon="6.51115">
        <ele>1851.6</ele>
        <time>2026-07-12T11:12:30Z</time>
      </trkpt>
      <trkpt lat="45.7504" lon="6.51113">
        <ele>1851.6</ele>
        <time>2026-07-12T11:12:31Z</time>
      </trkpt>
      <trkpt lat="45.75039" lon="6.5111">
        <ele>1850.6</ele>
        <time>2026-07-12T11:12:32Z</time>
      </trkpt>
      <trkpt lat="45.75039" lon="6.51106">
        <ele>1849.6</ele>
        <time>2026-07-12T11:12:33Z</time>
      </trkpt>
      <trkpt lat="45.75039" lon="6.51101">
        <ele>1848.6</ele>
        <time>2026-07-12T11:12:34Z</time>
      </trkpt>
      <trkpt lat="45.75039" lon="6.51094">
        <ele>1848.6</ele>
        <time>2026-07-12T11:12:35Z</time>
      </trkpt>
      <trkpt lat="45.7504" lon="6.51088">
        <ele>1848.6</ele>
        <time>2026-07-12T11:12:36Z</time>
      </trkpt>
      <trkpt lat="45.75041" lon="6.51082">
        <ele>1848.6</ele>
        <time>2026-07-12T11:12:37Z</time>
      </trkpt>
      <trkpt lat="45.75043" lon="6.51074">
        <ele>1848.4</ele>
        <time>2026-07-12T11:12:38Z</time>
      </trkpt>
      <trkpt lat="45.75044" lon="6.51065">
        <ele>1847.8</ele>
        <time>2026-07-12T11:12:39Z</time>
      </trkpt>
      <trkpt lat="45.75045" lon="6.51056">
        <ele>1847.4</ele>
        <time>2026-07-12T11:12:40Z</time>
      </trkpt>
      <trkpt lat="45.75045" lon="6.51047">
        <ele>1845.6</ele>
        <time>2026-07-12T11:12:41Z</time>
      </trkpt>
      <trkpt lat="45.75044" lon="6.51039">
        <ele>1845.6</ele>
        <time>2026-07-12T11:12:42Z</time>
      </trkpt>
      <trkpt lat="45.75043" lon="6.5103">
        <ele>1845.6</ele>
        <time>2026-07-12T11:12:43Z</time>
      </trkpt>
      <trkpt lat="45.75042" lon="6.51023">
        <ele>1846.4</ele>
        <time>2026-07-12T11:12:44Z</time>
      </trkpt>
      <trkpt lat="45.75041" lon="6.51015">
        <ele>1846.4</ele>
        <time>2026-07-12T11:12:45Z</time>
      </trkpt>
      <trkpt lat="45.75039" lon="6.51008">
        <ele>1846.4</ele>
        <time>2026-07-12T11:12:46Z</time>
      </trkpt>
      <trkpt lat="45.75037" lon="6.51001">
        <ele>1846.4</ele>
        <time>2026-07-12T11:12:47Z</time>
      </trkpt>
      <trkpt lat="45.75036" lon="6.50994">
        <ele>1846.4</ele>
        <time>2026-07-12T11:12:48Z</time>
      </trkpt>
      <trkpt lat="45.75036" lon="6.50987">
        <ele>1846.8</ele>
        <time>2026-07-12T11:12:49Z</time>
      </trkpt>
      <trkpt lat="45.75035" lon="6.5098">
        <ele>1847.2</ele>
        <time>2026-07-12T11:12:50Z</time>
      </trkpt>
      <trkpt lat="45.75034" lon="6.50973">
        <ele>1847.2</ele>
        <time>2026-07-12T11:12:51Z</time>
      </trkpt>
      <trkpt lat="45.75033" lon="6.50967">
        <ele>1847.2</ele>
        <time>2026-07-12T11:12:52Z</time>
      </trkpt>
      <trkpt lat="45.75032" lon="6.50961">
        <ele>1847.2</ele>
        <time>2026-07-12T11:12:53Z</time>
      </trkpt>
      <trkpt lat="45.75032" lon="6.50956">
        <ele>1847.2</ele>
        <time>2026-07-12T11:12:54Z</time>
      </trkpt>
      <trkpt lat="45.75032" lon="6.50952">
        <ele>1847.2</ele>
        <time>2026-07-12T11:12:55Z</time>
      </trkpt>
      <trkpt lat="45.75031" lon="6.50946">
        <ele>1847.6</ele>
        <time>2026-07-12T11:12:56Z</time>
      </trkpt>
      <trkpt lat="45.7503" lon="6.5094">
        <ele>1847.6</ele>
        <time>2026-07-12T11:12:57Z</time>
      </trkpt>
      <trkpt lat="45.75029" lon="6.50934">
        <ele>1847.6</ele>
        <time>2026-07-12T11:12:58Z</time>
      </trkpt>
      <trkpt lat="45.75028" lon="6.50928">
        <ele>1847.6</ele>
        <time>2026-07-12T11:12:59Z</time>
      </trkpt>
      <trkpt lat="45.75027" lon="6.50921">
        <ele>1847.6</ele>
        <time>2026-07-12T11:13:00Z</time>
      </trkpt>
      <trkpt lat="45.75026" lon="6.50914">
        <ele>1847.6</ele>
        <time>2026-07-12T11:13:01Z</time>
      </trkpt>
      <trkpt lat="45.75026" lon="6.50907">
        <ele>1847.6</ele>
        <time>2026-07-12T11:13:02Z</time>
      </trkpt>
      <trkpt lat="45.75026" lon="6.509">
        <ele>1847.6</ele>
        <time>2026-07-12T11:13:03Z</time>
      </trkpt>
      <trkpt lat="45.75026" lon="6.50893">
        <ele>1847.6</ele>
        <time>2026-07-12T11:13:04Z</time>
      </trkpt>
      <trkpt lat="45.75026" lon="6.50886">
        <ele>1847.6</ele>
        <time>2026-07-12T11:13:05Z</time>
      </trkpt>
      <trkpt lat="45.75026" lon="6.50879">
        <ele>1847.6</ele>
        <time>2026-07-12T11:13:06Z</time>
      </trkpt>
      <trkpt lat="45.75028" lon="6.50872">
        <ele>1847.6</ele>
        <time>2026-07-12T11:13:07Z</time>
      </trkpt>
      <trkpt lat="45.75032" lon="6.50866">
        <ele>1846.6</ele>
        <time>2026-07-12T11:13:08Z</time>
      </trkpt>
      <trkpt lat="45.75037" lon="6.5086">
        <ele>1845.6</ele>
        <time>2026-07-12T11:13:09Z</time>
      </trkpt>
      <trkpt lat="45.75043" lon="6.50856">
        <ele>1845.2</ele>
        <time>2026-07-12T11:13:10Z</time>
      </trkpt>
      <trkpt lat="45.75049" lon="6.50854">
        <ele>1845</ele>
        <time>2026-07-12T11:13:11Z</time>
      </trkpt>
      <trkpt lat="45.75055" lon="6.5085">
        <ele>1845</ele>
        <time>2026-07-12T11:13:12Z</time>
      </trkpt>
      <trkpt lat="45.75059" lon="6.50845">
        <ele>1845</ele>
        <time>2026-07-12T11:13:13Z</time>
      </trkpt>
      <trkpt lat="45.75059" lon="6.50839">
        <ele>1846</ele>
        <time>2026-07-12T11:13:14Z</time>
      </trkpt>
      <trkpt lat="45.75059" lon="6.50833">
        <ele>1846.8</ele>
        <time>2026-07-12T11:13:15Z</time>
      </trkpt>
      <trkpt lat="45.75058" lon="6.50827">
        <ele>1846.8</ele>
        <time>2026-07-12T11:13:16Z</time>
      </trkpt>
      <trkpt lat="45.75056" lon="6.50822">
        <ele>1846.8</ele>
        <time>2026-07-12T11:13:17Z</time>
      </trkpt>
      <trkpt lat="45.75054" lon="6.50817">
        <ele>1846.8</ele>
        <time>2026-07-12T11:13:18Z</time>
      </trkpt>
      <trkpt lat="45.75051" lon="6.50811">
        <ele>1847.4</ele>
        <time>2026-07-12T11:13:19Z</time>
      </trkpt>
      <trkpt lat="45.75049" lon="6.50806">
        <ele>1848.2</ele>
        <time>2026-07-12T11:13:20Z</time>
      </trkpt>
      <trkpt lat="45.75046" lon="6.50801">
        <ele>1848.2</ele>
        <time>2026-07-12T11:13:21Z</time>
      </trkpt>
      <trkpt lat="45.75044" lon="6.50796">
        <ele>1848.2</ele>
        <time>2026-07-12T11:13:22Z</time>
      </trkpt>
      <trkpt lat="45.75042" lon="6.50791">
        <ele>1848.2</ele>
        <time>2026-07-12T11:13:23Z</time>
      </trkpt>
      <trkpt lat="45.75041" lon="6.50786">
        <ele>1848.2</ele>
        <time>2026-07-12T11:13:24Z</time>
      </trkpt>
      <trkpt lat="45.75039" lon="6.50781">
        <ele>1848</ele>
        <time>2026-07-12T11:13:25Z</time>
      </trkpt>
      <trkpt lat="45.75038" lon="6.50776">
        <ele>1848.2</ele>
        <time>2026-07-12T11:13:26Z</time>
      </trkpt>
      <trkpt lat="45.75037" lon="6.50771">
        <ele>1848.2</ele>
        <time>2026-07-12T11:13:27Z</time>
      </trkpt>
      <trkpt lat="45.75037" lon="6.50765">
        <ele>1848.2</ele>
        <time>2026-07-12T11:13:28Z</time>
      </trkpt>
      <trkpt lat="45.75037" lon="6.50761">
        <ele>1848.2</ele>
        <time>2026-07-12T11:13:29Z</time>
      </trkpt>
      <trkpt lat="45.75038" lon="6.50756">
        <ele>1848.2</ele>
        <time>2026-07-12T11:13:30Z</time>
      </trkpt>
      <trkpt lat="45.75038" lon="6.50751">
        <ele>1848.2</ele>
        <time>2026-07-12T11:13:31Z</time>
      </trkpt>
      <trkpt lat="45.75037" lon="6.50746">
        <ele>1848.2</ele>
        <time>2026-07-12T11:13:32Z</time>
      </trkpt>
      <trkpt lat="45.75037" lon="6.50741">
        <ele>1848.8</ele>
        <time>2026-07-12T11:13:33Z</time>
      </trkpt>
      <trkpt lat="45.75035" lon="6.50736">
        <ele>1849.2</ele>
        <time>2026-07-12T11:13:34Z</time>
      </trkpt>
      <trkpt lat="45.75034" lon="6.50731">
        <ele>1849.6</ele>
        <time>2026-07-12T11:13:35Z</time>
      </trkpt>
      <trkpt lat="45.75033" lon="6.50725">
        <ele>1849.6</ele>
        <time>2026-07-12T11:13:36Z</time>
      </trkpt>
      <trkpt lat="45.75032" lon="6.5072">
        <ele>1849.6</ele>
        <time>2026-07-12T11:13:37Z</time>
      </trkpt>
      <trkpt lat="45.7503" lon="6.50716">
        <ele>1848.6</ele>
        <time>2026-07-12T11:13:38Z</time>
      </trkpt>
      <trkpt lat="45.75028" lon="6.50711">
        <ele>1847.6</ele>
        <time>2026-07-12T11:13:39Z</time>
      </trkpt>
      <trkpt lat="45.75027" lon="6.50707">
        <ele>1847.6</ele>
        <time>2026-07-12T11:13:40Z</time>
      </trkpt>
      <trkpt lat="45.75025" lon="6.50702">
        <ele>1847.6</ele>
        <time>2026-07-12T11:13:41Z</time>
      </trkpt>
      <trkpt lat="45.75023" lon="6.50697">
        <ele>1848.6</ele>
        <time>2026-07-12T11:13:42Z</time>
      </trkpt>
      <trkpt lat="45.75021" lon="6.50693">
        <ele>1848.6</ele>
        <time>2026-07-12T11:13:43Z</time>
      </trkpt>
      <trkpt lat="45.7502" lon="6.50688">
        <ele>1848.6</ele>
        <time>2026-07-12T11:13:44Z</time>
      </trkpt>
      <trkpt lat="45.75018" lon="6.50683">
        <ele>1848.6</ele>
        <time>2026-07-12T11:13:45Z</time>
      </trkpt>
      <trkpt lat="45.75017" lon="6.50677">
        <ele>1848.6</ele>
        <time>2026-07-12T11:13:46Z</time>
      </trkpt>
      <trkpt lat="45.75015" lon="6.50672">
        <ele>1848.6</ele>
        <time>2026-07-12T11:13:47Z</time>
      </trkpt>
      <trkpt lat="45.75014" lon="6.50666">
        <ele>1848.4</ele>
        <time>2026-07-12T11:13:48Z</time>
      </trkpt>
      <trkpt lat="45.75013" lon="6.50661">
        <ele>1847.4</ele>
        <time>2026-07-12T11:13:49Z</time>
      </trkpt>
      <trkpt lat="45.75011" lon="6.50656">
        <ele>1847.4</ele>
        <time>2026-07-12T11:13:50Z</time>
      </trkpt>
      <trkpt lat="45.7501" lon="6.50651">
        <ele>1847.4</ele>
        <time>2026-07-12T11:13:51Z</time>
      </trkpt>
      <trkpt lat="45.75008" lon="6.50647">
        <ele>1848.4</ele>
        <time>2026-07-12T11:13:52Z</time>
      </trkpt>
      <trkpt lat="45.75007" lon="6.50643">
        <ele>1848.4</ele>
        <time>2026-07-12T11:13:53Z</time>
      </trkpt>
      <trkpt lat="45.75005" lon="6.5064">
        <ele>1848.4</ele>
        <time>2026-07-12T11:13:54Z</time>
      </trkpt>
      <trkpt lat="45.75004" lon="6.50636">
        <ele>1846.8</ele>
        <time>2026-07-12T11:13:55Z</time>
      </trkpt>
      <trkpt lat="45.75002" lon="6.50633">
        <ele>1846.8</ele>
        <time>2026-07-12T11:13:56Z</time>
      </trkpt>
      <trkpt lat="45.75" lon="6.5063">
        <ele>1846.8</ele>
        <time>2026-07-12T11:13:57Z</time>
      </trkpt>
      <trkpt lat="45.74997" lon="6.50627">
        <ele>1846.8</ele>
        <time>2026-07-12T11:13:58Z</time>
      </trkpt>
      <trkpt lat="45.74994" lon="6.50624">
        <ele>1847</ele>
        <time>2026-07-12T11:13:59Z</time>
      </trkpt>
      <trkpt lat="45.74992" lon="6.50622">
        <ele>1847</ele>
        <time>2026-07-12T11:14:00Z</time>
      </trkpt>
      <trkpt lat="45.74989" lon="6.50618">
        <ele>1847</ele>
        <time>2026-07-12T11:14:01Z</time>
      </trkpt>
      <trkpt lat="45.74986" lon="6.50615">
        <ele>1847</ele>
        <time>2026-07-12T11:14:02Z</time>
      </trkpt>
      <trkpt lat="45.74982" lon="6.50612">
        <ele>1846</ele>
        <time>2026-07-12T11:14:03Z</time>
      </trkpt>
      <trkpt lat="45.74978" lon="6.50609">
        <ele>1846</ele>
        <time>2026-07-12T11:14:04Z</time>
      </trkpt>
      <trkpt lat="45.74975" lon="6.50606">
        <ele>1846</ele>
        <time>2026-07-12T11:14:05Z</time>
      </trkpt>
      <trkpt lat="45.74971" lon="6.50602">
        <ele>1846.4</ele>
        <time>2026-07-12T11:14:06Z</time>
      </trkpt>
      <trkpt lat="45.74967" lon="6.50598">
        <ele>1847</ele>
        <time>2026-07-12T11:14:07Z</time>
      </trkpt>
      <trkpt lat="45.74964" lon="6.50595">
        <ele>1847</ele>
        <time>2026-07-12T11:14:08Z</time>
      </trkpt>
      <trkpt lat="45.7496" lon="6.50592">
        <ele>1847</ele>
        <time>2026-07-12T11:14:09Z</time>
      </trkpt>
      <trkpt lat="45.74957" lon="6.50589">
        <ele>1845.8</ele>
        <time>2026-07-12T11:14:10Z</time>
      </trkpt>
      <trkpt lat="45.74954" lon="6.50585">
        <ele>1845.8</ele>
        <time>2026-07-12T11:14:11Z</time>
      </trkpt>
      <trkpt lat="45.74951" lon="6.50582">
        <ele>1845.8</ele>
        <time>2026-07-12T11:14:12Z</time>
      </trkpt>
      <trkpt lat="45.74948" lon="6.50578">
        <ele>1846.8</ele>
        <time>2026-07-12T11:14:13Z</time>
      </trkpt>
      <trkpt lat="45.74944" lon="6.50574">
        <ele>1847.8</ele>
        <time>2026-07-12T11:14:14Z</time>
      </trkpt>
      <trkpt lat="45.74941" lon="6.50571">
        <ele>1848</ele>
        <time>2026-07-12T11:14:15Z</time>
      </trkpt>
      <trkpt lat="45.74937" lon="6.50567">
        <ele>1848.8</ele>
        <time>2026-07-12T11:14:16Z</time>
      </trkpt>
      <trkpt lat="45.74934" lon="6.50563">
        <ele>1848.8</ele>
        <time>2026-07-12T11:14:17Z</time>
      </trkpt>
      <trkpt lat="45.7493" lon="6.50559">
        <ele>1848.8</ele>
        <time>2026-07-12T11:14:18Z</time>
      </trkpt>
      <trkpt lat="45.74927" lon="6.50554">
        <ele>1848.8</ele>
        <time>2026-07-12T11:14:19Z</time>
      </trkpt>
      <trkpt lat="45.74925" lon="6.50548">
        <ele>1848.8</ele>
        <time>2026-07-12T11:14:20Z</time>
      </trkpt>
      <trkpt lat="45.74923" lon="6.50543">
        <ele>1849.4</ele>
        <time>2026-07-12T11:14:21Z</time>
      </trkpt>
      <trkpt lat="45.74921" lon="6.50538">
        <ele>1850.2</ele>
        <time>2026-07-12T11:14:22Z</time>
      </trkpt>
      <trkpt lat="45.74919" lon="6.50533">
        <ele>1850.2</ele>
        <time>2026-07-12T11:14:23Z</time>
      </trkpt>
      <trkpt lat="45.74918" lon="6.50527">
        <ele>1850.2</ele>
        <time>2026-07-12T11:14:24Z</time>
      </trkpt>
      <trkpt lat="45.74916" lon="6.50522">
        <ele>1850.2</ele>
        <time>2026-07-12T11:14:25Z</time>
      </trkpt>
      <trkpt lat="45.74914" lon="6.50517">
        <ele>1850.2</ele>
        <time>2026-07-12T11:14:26Z</time>
      </trkpt>
      <trkpt lat="45.74913" lon="6.50512">
        <ele>1850.2</ele>
        <time>2026-07-12T11:14:27Z</time>
      </trkpt>
      <trkpt lat="45.74911" lon="6.50507">
        <ele>1850.2</ele>
        <time>2026-07-12T11:14:28Z</time>
      </trkpt>
      <trkpt lat="45.7491" lon="6.50503">
        <ele>1850.2</ele>
        <time>2026-07-12T11:14:29Z</time>
      </trkpt>
      <trkpt lat="45.74908" lon="6.50499">
        <ele>1849.2</ele>
        <time>2026-07-12T11:14:30Z</time>
      </trkpt>
      <trkpt lat="45.74907" lon="6.50494">
        <ele>1848.8</ele>
        <time>2026-07-12T11:14:31Z</time>
      </trkpt>
      <trkpt lat="45.74905" lon="6.50489">
        <ele>1848.8</ele>
        <time>2026-07-12T11:14:32Z</time>
      </trkpt>
      <trkpt lat="45.74904" lon="6.50484">
        <ele>1848.8</ele>
        <time>2026-07-12T11:14:33Z</time>
      </trkpt>
      <trkpt lat="45.74903" lon="6.50479">
        <ele>1849.2</ele>
        <time>2026-07-12T11:14:34Z</time>
      </trkpt>
      <trkpt lat="45.74902" lon="6.50474">
        <ele>1848.8</ele>
        <time>2026-07-12T11:14:35Z</time>
      </trkpt>
      <trkpt lat="45.749" lon="6.50468">
        <ele>1848.8</ele>
        <time>2026-07-12T11:14:36Z</time>
      </trkpt>
      <trkpt lat="45.74899" lon="6.50463">
        <ele>1848.8</ele>
        <time>2026-07-12T11:14:37Z</time>
      </trkpt>
      <trkpt lat="45.74896" lon="6.50459">
        <ele>1849.8</ele>
        <time>2026-07-12T11:14:38Z</time>
      </trkpt>
      <trkpt lat="45.74894" lon="6.50455">
        <ele>1849.8</ele>
        <time>2026-07-12T11:14:39Z</time>
      </trkpt>
      <trkpt lat="45.74892" lon="6.50451">
        <ele>1850.6</ele>
        <time>2026-07-12T11:14:40Z</time>
      </trkpt>
      <trkpt lat="45.74889" lon="6.50447">
        <ele>1850.8</ele>
        <time>2026-07-12T11:14:41Z</time>
      </trkpt>
      <trkpt lat="45.74886" lon="6.50444">
        <ele>1850.8</ele>
        <time>2026-07-12T11:14:42Z</time>
      </trkpt>
      <trkpt lat="45.74884" lon="6.5044">
        <ele>1851.4</ele>
        <time>2026-07-12T11:14:43Z</time>
      </trkpt>
      <trkpt lat="45.74881" lon="6.50436">
        <ele>1851.6</ele>
        <time>2026-07-12T11:14:44Z</time>
      </trkpt>
      <trkpt lat="45.74878" lon="6.50432">
        <ele>1852</ele>
        <time>2026-07-12T11:14:45Z</time>
      </trkpt>
      <trkpt lat="45.74875" lon="6.50428">
        <ele>1852</ele>
        <time>2026-07-12T11:14:46Z</time>
      </trkpt>
      <trkpt lat="45.74872" lon="6.50423">
        <ele>1852</ele>
        <time>2026-07-12T11:14:47Z</time>
      </trkpt>
      <trkpt lat="45.74869" lon="6.50419">
        <ele>1851.6</ele>
        <time>2026-07-12T11:14:48Z</time>
      </trkpt>
      <trkpt lat="45.74867" lon="6.50415">
        <ele>1851.2</ele>
        <time>2026-07-12T11:14:49Z</time>
      </trkpt>
      <trkpt lat="45.74864" lon="6.5041">
        <ele>1851.2</ele>
        <time>2026-07-12T11:14:50Z</time>
      </trkpt>
      <trkpt lat="45.74861" lon="6.50406">
        <ele>1851.2</ele>
        <time>2026-07-12T11:14:51Z</time>
      </trkpt>
      <trkpt lat="45.74859" lon="6.50402">
        <ele>1851.2</ele>
        <time>2026-07-12T11:14:52Z</time>
      </trkpt>
      <trkpt lat="45.74856" lon="6.50398">
        <ele>1851.2</ele>
        <time>2026-07-12T11:14:53Z</time>
      </trkpt>
      <trkpt lat="45.74854" lon="6.50394">
        <ele>1852.2</ele>
        <time>2026-07-12T11:14:54Z</time>
      </trkpt>
      <trkpt lat="45.74851" lon="6.5039">
        <ele>1852.2</ele>
        <time>2026-07-12T11:14:55Z</time>
      </trkpt>
      <trkpt lat="45.74849" lon="6.50385">
        <ele>1852.2</ele>
        <time>2026-07-12T11:14:56Z</time>
      </trkpt>
      <trkpt lat="45.74846" lon="6.5038">
        <ele>1851.2</ele>
        <time>2026-07-12T11:14:57Z</time>
      </trkpt>
      <trkpt lat="45.74843" lon="6.50376">
        <ele>1851.2</ele>
        <time>2026-07-12T11:14:58Z</time>
      </trkpt>
      <trkpt lat="45.7484" lon="6.5037">
        <ele>1851.2</ele>
        <time>2026-07-12T11:14:59Z</time>
      </trkpt>
      <trkpt lat="45.74837" lon="6.50366">
        <ele>1852.2</ele>
        <time>2026-07-12T11:15:01Z</time>
      </trkpt>
      <trkpt lat="45.74837" lon="6.50366">
        <ele>1852.6</ele>
        <time>2026-07-12T11:15:02Z</time>
      </trkpt>
      <trkpt lat="45.74835" lon="6.50361">
        <ele>1852.6</ele>
        <time>2026-07-12T11:15:03Z</time>
      </trkpt>
      <trkpt lat="45.74832" lon="6.50357">
        <ele>1852.6</ele>
        <time>2026-07-12T11:15:04Z</time>
      </trkpt>
      <trkpt lat="45.7483" lon="6.50352">
        <ele>1852.6</ele>
        <time>2026-07-12T11:15:05Z</time>
      </trkpt>
      <trkpt lat="45.74827" lon="6.50346">
        <ele>1852.6</ele>
        <time>2026-07-12T11:15:06Z</time>
      </trkpt>
      <trkpt lat="45.74825" lon="6.5034">
        <ele>1852.6</ele>
        <time>2026-07-12T11:15:07Z</time>
      </trkpt>
      <trkpt lat="45.74824" lon="6.50334">
        <ele>1852.6</ele>
        <time>2026-07-12T11:15:08Z</time>
      </trkpt>
      <trkpt lat="45.74822" lon="6.50329">
        <ele>1852.6</ele>
        <time>2026-07-12T11:15:09Z</time>
      </trkpt>
      <trkpt lat="45.74821" lon="6.50323">
        <ele>1852.8</ele>
        <time>2026-07-12T11:15:10Z</time>
      </trkpt>
      <trkpt lat="45.7482" lon="6.50317">
        <ele>1853</ele>
        <time>2026-07-12T11:15:11Z</time>
      </trkpt>
      <trkpt lat="45.74819" lon="6.50312">
        <ele>1853.6</ele>
        <time>2026-07-12T11:15:12Z</time>
      </trkpt>
      <trkpt lat="45.74818" lon="6.50307">
        <ele>1853.6</ele>
        <time>2026-07-12T11:15:13Z</time>
      </trkpt>
      <trkpt lat="45.74816" lon="6.50301">
        <ele>1853.6</ele>
        <time>2026-07-12T11:15:14Z</time>
      </trkpt>
      <trkpt lat="45.74813" lon="6.50297">
        <ele>1853.6</ele>
        <time>2026-07-12T11:15:15Z</time>
      </trkpt>
      <trkpt lat="45.74809" lon="6.50292">
        <ele>1854.6</ele>
        <time>2026-07-12T11:15:16Z</time>
      </trkpt>
      <trkpt lat="45.74805" lon="6.5029">
        <ele>1855.6</ele>
        <time>2026-07-12T11:15:17Z</time>
      </trkpt>
      <trkpt lat="45.74801" lon="6.50287">
        <ele>1855.6</ele>
        <time>2026-07-12T11:15:18Z</time>
      </trkpt>
      <trkpt lat="45.74797" lon="6.50285">
        <ele>1852.8</ele>
        <time>2026-07-12T11:15:19Z</time>
      </trkpt>
      <trkpt lat="45.74793" lon="6.50282">
        <ele>1852.8</ele>
        <time>2026-07-12T11:15:20Z</time>
      </trkpt>
      <trkpt lat="45.74789" lon="6.50279">
        <ele>1852.8</ele>
        <time>2026-07-12T11:15:21Z</time>
      </trkpt>
      <trkpt lat="45.74786" lon="6.50275">
        <ele>1853.8</ele>
        <time>2026-07-12T11:15:22Z</time>
      </trkpt>
      <trkpt lat="45.74783" lon="6.5027">
        <ele>1854.8</ele>
        <time>2026-07-12T11:15:23Z</time>
      </trkpt>
      <trkpt lat="45.74781" lon="6.50265">
        <ele>1855.8</ele>
        <time>2026-07-12T11:15:24Z</time>
      </trkpt>
      <trkpt lat="45.74779" lon="6.50259">
        <ele>1855.8</ele>
        <time>2026-07-12T11:15:25Z</time>
      </trkpt>
      <trkpt lat="45.74777" lon="6.50254">
        <ele>1855.8</ele>
        <time>2026-07-12T11:15:26Z</time>
      </trkpt>
      <trkpt lat="45.74775" lon="6.50249">
        <ele>1855.8</ele>
        <time>2026-07-12T11:15:27Z</time>
      </trkpt>
      <trkpt lat="45.74773" lon="6.50244">
        <ele>1855.8</ele>
        <time>2026-07-12T11:15:28Z</time>
      </trkpt>
      <trkpt lat="45.7477" lon="6.50238">
        <ele>1855.8</ele>
        <time>2026-07-12T11:15:29Z</time>
      </trkpt>
      <trkpt lat="45.74768" lon="6.50234">
        <ele>1855</ele>
        <time>2026-07-12T11:15:30Z</time>
      </trkpt>
      <trkpt lat="45.74766" lon="6.50229">
        <ele>1854</ele>
        <time>2026-07-12T11:15:31Z</time>
      </trkpt>
      <trkpt lat="45.74763" lon="6.50225">
        <ele>1854</ele>
        <time>2026-07-12T11:15:32Z</time>
      </trkpt>
      <trkpt lat="45.7476" lon="6.50221">
        <ele>1854</ele>
        <time>2026-07-12T11:15:33Z</time>
      </trkpt>
      <trkpt lat="45.74758" lon="6.50218">
        <ele>1854</ele>
        <time>2026-07-12T11:15:34Z</time>
      </trkpt>
      <trkpt lat="45.74756" lon="6.50214">
        <ele>1851.8</ele>
        <time>2026-07-12T11:15:35Z</time>
      </trkpt>
      <trkpt lat="45.74753" lon="6.50211">
        <ele>1851.8</ele>
        <time>2026-07-12T11:15:36Z</time>
      </trkpt>
      <trkpt lat="45.7475" lon="6.50207">
        <ele>1851.8</ele>
        <time>2026-07-12T11:15:37Z</time>
      </trkpt>
      <trkpt lat="45.74747" lon="6.50204">
        <ele>1852.8</ele>
        <time>2026-07-12T11:15:38Z</time>
      </trkpt>
      <trkpt lat="45.74743" lon="6.502">
        <ele>1853.4</ele>
        <time>2026-07-12T11:15:39Z</time>
      </trkpt>
      <trkpt lat="45.74738" lon="6.50197">
        <ele>1853.4</ele>
        <time>2026-07-12T11:15:40Z</time>
      </trkpt>
      <trkpt lat="45.74734" lon="6.50194">
        <ele>1853.4</ele>
        <time>2026-07-12T11:15:41Z</time>
      </trkpt>
      <trkpt lat="45.74728" lon="6.50191">
        <ele>1853.4</ele>
        <time>2026-07-12T11:15:42Z</time>
      </trkpt>
      <trkpt lat="45.74723" lon="6.50188">
        <ele>1853.4</ele>
        <time>2026-07-12T11:15:43Z</time>
      </trkpt>
      <trkpt lat="45.74717" lon="6.50184">
        <ele>1852.4</ele>
        <time>2026-07-12T11:15:44Z</time>
      </trkpt>
      <trkpt lat="45.74712" lon="6.50181">
        <ele>1854</ele>
        <time>2026-07-12T11:15:45Z</time>
      </trkpt>
      <trkpt lat="45.74706" lon="6.50177">
        <ele>1854</ele>
        <time>2026-07-12T11:15:46Z</time>
      </trkpt>
      <trkpt lat="45.747" lon="6.50174">
        <ele>1854</ele>
        <time>2026-07-12T11:15:47Z</time>
      </trkpt>
      <trkpt lat="45.74694" lon="6.50171">
        <ele>1849.8</ele>
        <time>2026-07-12T11:15:48Z</time>
      </trkpt>
      <trkpt lat="45.74688" lon="6.50169">
        <ele>1847</ele>
        <time>2026-07-12T11:15:49Z</time>
      </trkpt>
      <trkpt lat="45.74681" lon="6.50168">
        <ele>1847</ele>
        <time>2026-07-12T11:15:50Z</time>
      </trkpt>
      <trkpt lat="45.74675" lon="6.50166">
        <ele>1847</ele>
        <time>2026-07-12T11:15:51Z</time>
      </trkpt>
      <trkpt lat="45.74668" lon="6.50164">
        <ele>1847.6</ele>
        <time>2026-07-12T11:15:52Z</time>
      </trkpt>
      <trkpt lat="45.74661" lon="6.50161">
        <ele>1846</ele>
        <time>2026-07-12T11:15:53Z</time>
      </trkpt>
      <trkpt lat="45.74654" lon="6.50158">
        <ele>1846</ele>
        <time>2026-07-12T11:15:54Z</time>
      </trkpt>
      <trkpt lat="45.74648" lon="6.50152">
        <ele>1845.2</ele>
        <time>2026-07-12T11:15:55Z</time>
      </trkpt>
      <trkpt lat="45.74643" lon="6.50145">
        <ele>1845</ele>
        <time>2026-07-12T11:15:56Z</time>
      </trkpt>
      <trkpt lat="45.74637" lon="6.50138">
        <ele>1845</ele>
        <time>2026-07-12T11:15:57Z</time>
      </trkpt>
      <trkpt lat="45.7463" lon="6.50132">
        <ele>1845</ele>
        <time>2026-07-12T11:15:58Z</time>
      </trkpt>
      <trkpt lat="45.74623" lon="6.50128">
        <ele>1845</ele>
        <time>2026-07-12T11:15:59Z</time>
      </trkpt>
      <trkpt lat="45.74617" lon="6.50124">
        <ele>1845</ele>
        <time>2026-07-12T11:16:00Z</time>
      </trkpt>
      <trkpt lat="45.74611" lon="6.5012">
        <ele>1845</ele>
        <time>2026-07-12T11:16:01Z</time>
      </trkpt>
      <trkpt lat="45.74605" lon="6.50118">
        <ele>1845</ele>
        <time>2026-07-12T11:16:02Z</time>
      </trkpt>
      <trkpt lat="45.74598" lon="6.50117">
        <ele>1845</ele>
        <time>2026-07-12T11:16:03Z</time>
      </trkpt>
      <trkpt lat="45.74582" lon="6.50127">
        <ele>1844.4</ele>
        <time>2026-07-12T11:18:48Z</time>
      </trkpt>
      <trkpt lat="45.74582" lon="6.50127">
        <ele>1842.8</ele>
        <time>2026-07-12T11:18:49Z</time>
      </trkpt>
      <trkpt lat="45.74582" lon="6.50127">
        <ele>1842.8</ele>
        <time>2026-07-12T11:18:50Z</time>
      </trkpt>
      <trkpt lat="45.74582" lon="6.50127">
        <ele>1842.8</ele>
        <time>2026-07-12T11:18:51Z</time>
      </trkpt>
      <trkpt lat="45.74582" lon="6.50127">
        <ele>1843.2</ele>
        <time>2026-07-12T11:18:52Z</time>
      </trkpt>
      <trkpt lat="45.74582" lon="6.50127">
        <ele>1843.2</ele>
        <time>2026-07-12T11:18:53Z</time>
      </trkpt>
      <trkpt lat="45.74581" lon="6.50126">
        <ele>1843.2</ele>
        <time>2026-07-12T11:18:54Z</time>
      </trkpt>
      <trkpt lat="45.74579" lon="6.50125">
        <ele>1843.2</ele>
        <time>2026-07-12T11:18:55Z</time>
      </trkpt>
      <trkpt lat="45.74577" lon="6.50125">
        <ele>1843.2</ele>
        <time>2026-07-12T11:18:56Z</time>
      </trkpt>
      <trkpt lat="45.74575" lon="6.50125">
        <ele>1843.2</ele>
        <time>2026-07-12T11:18:57Z</time>
      </trkpt>
      <trkpt lat="45.74573" lon="6.50124">
        <ele>1842.2</ele>
        <time>2026-07-12T11:18:58Z</time>
      </trkpt>
      <trkpt lat="45.74571" lon="6.50124">
        <ele>1841.2</ele>
        <time>2026-07-12T11:18:59Z</time>
      </trkpt>
      <trkpt lat="45.74568" lon="6.50123">
        <ele>1840.2</ele>
        <time>2026-07-12T11:19:00Z</time>
      </trkpt>
      <trkpt lat="45.74565" lon="6.50123">
        <ele>1839.2</ele>
        <time>2026-07-12T11:19:01Z</time>
      </trkpt>
      <trkpt lat="45.74561" lon="6.50123">
        <ele>1838.6</ele>
        <time>2026-07-12T11:19:02Z</time>
      </trkpt>
      <trkpt lat="45.74558" lon="6.50123">
        <ele>1838.6</ele>
        <time>2026-07-12T11:19:03Z</time>
      </trkpt>
      <trkpt lat="45.74553" lon="6.50123">
        <ele>1838.6</ele>
        <time>2026-07-12T11:19:04Z</time>
      </trkpt>
      <trkpt lat="45.74549" lon="6.50123">
        <ele>1838.6</ele>
        <time>2026-07-12T11:19:05Z</time>
      </trkpt>
      <trkpt lat="45.74543" lon="6.50122">
        <ele>1838.6</ele>
        <time>2026-07-12T11:19:06Z</time>
      </trkpt>
      <trkpt lat="45.74539" lon="6.5012">
        <ele>1838.6</ele>
        <time>2026-07-12T11:19:07Z</time>
      </trkpt>
      <trkpt lat="45.74534" lon="6.50117">
        <ele>1837.6</ele>
        <time>2026-07-12T11:19:08Z</time>
      </trkpt>
      <trkpt lat="45.7453" lon="6.50113">
        <ele>1836.6</ele>
        <time>2026-07-12T11:19:09Z</time>
      </trkpt>
      <trkpt lat="45.74527" lon="6.50109">
        <ele>1835.6</ele>
        <time>2026-07-12T11:19:10Z</time>
      </trkpt>
      <trkpt lat="45.74525" lon="6.50104">
        <ele>1832</ele>
        <time>2026-07-12T11:19:11Z</time>
      </trkpt>
      <trkpt lat="45.74522" lon="6.50099">
        <ele>1832</ele>
        <time>2026-07-12T11:19:12Z</time>
      </trkpt>
      <trkpt lat="45.7452" lon="6.50094">
        <ele>1832</ele>
        <time>2026-07-12T11:19:13Z</time>
      </trkpt>
      <trkpt lat="45.74518" lon="6.50088">
        <ele>1833</ele>
        <time>2026-07-12T11:19:14Z</time>
      </trkpt>
      <trkpt lat="45.74516" lon="6.50082">
        <ele>1833</ele>
        <time>2026-07-12T11:19:15Z</time>
      </trkpt>
      <trkpt lat="45.74515" lon="6.50074">
        <ele>1833</ele>
        <time>2026-07-12T11:19:16Z</time>
      </trkpt>
      <trkpt lat="45.74515" lon="6.50066">
        <ele>1833</ele>
        <time>2026-07-12T11:19:17Z</time>
      </trkpt>
      <trkpt lat="45.74515" lon="6.50058">
        <ele>1833</ele>
        <time>2026-07-12T11:19:18Z</time>
      </trkpt>
      <trkpt lat="45.74515" lon="6.50049">
        <ele>1833</ele>
        <time>2026-07-12T11:19:19Z</time>
      </trkpt>
      <trkpt lat="45.74516" lon="6.5004">
        <ele>1833</ele>
        <time>2026-07-12T11:19:20Z</time>
      </trkpt>
      <trkpt lat="45.74516" lon="6.5003">
        <ele>1833</ele>
        <time>2026-07-12T11:19:21Z</time>
      </trkpt>
      <trkpt lat="45.74517" lon="6.50022">
        <ele>1827.6</ele>
        <time>2026-07-12T11:19:22Z</time>
      </trkpt>
      <trkpt lat="45.74516" lon="6.50013">
        <ele>1824.6</ele>
        <time>2026-07-12T11:19:23Z</time>
      </trkpt>
      <trkpt lat="45.74516" lon="6.50004">
        <ele>1822.8</ele>
        <time>2026-07-12T11:19:24Z</time>
      </trkpt>
      <trkpt lat="45.74515" lon="6.49995">
        <ele>1822.8</ele>
        <time>2026-07-12T11:19:25Z</time>
      </trkpt>
      <trkpt lat="45.74512" lon="6.49985">
        <ele>1822.8</ele>
        <time>2026-07-12T11:19:26Z</time>
      </trkpt>
      <trkpt lat="45.74509" lon="6.49975">
        <ele>1822.8</ele>
        <time>2026-07-12T11:19:27Z</time>
      </trkpt>
      <trkpt lat="45.74506" lon="6.49964">
        <ele>1821</ele>
        <time>2026-07-12T11:19:28Z</time>
      </trkpt>
      <trkpt lat="45.74502" lon="6.49952">
        <ele>1821</ele>
        <time>2026-07-12T11:19:29Z</time>
      </trkpt>
      <trkpt lat="45.74499" lon="6.49941">
        <ele>1821</ele>
        <time>2026-07-12T11:19:30Z</time>
      </trkpt>
      <trkpt lat="45.74495" lon="6.49929">
        <ele>1821</ele>
        <time>2026-07-12T11:19:31Z</time>
      </trkpt>
      <trkpt lat="45.74493" lon="6.49916">
        <ele>1819.6</ele>
        <time>2026-07-12T11:19:32Z</time>
      </trkpt>
      <trkpt lat="45.74491" lon="6.49905">
        <ele>1819.6</ele>
        <time>2026-07-12T11:19:33Z</time>
      </trkpt>
      <trkpt lat="45.74489" lon="6.49895">
        <ele>1819.6</ele>
        <time>2026-07-12T11:19:34Z</time>
      </trkpt>
      <trkpt lat="45.74488" lon="6.49886">
        <ele>1819.6</ele>
        <time>2026-07-12T11:19:35Z</time>
      </trkpt>
      <trkpt lat="45.74486" lon="6.49878">
        <ele>1819.6</ele>
        <time>2026-07-12T11:19:36Z</time>
      </trkpt>
      <trkpt lat="45.74483" lon="6.49871">
        <ele>1818.2</ele>
        <time>2026-07-12T11:19:37Z</time>
      </trkpt>
      <trkpt lat="45.74481" lon="6.49865">
        <ele>1818.2</ele>
        <time>2026-07-12T11:19:38Z</time>
      </trkpt>
      <trkpt lat="45.74477" lon="6.49859">
        <ele>1818.2</ele>
        <time>2026-07-12T11:19:39Z</time>
      </trkpt>
      <trkpt lat="45.74475" lon="6.49855">
        <ele>1818.2</ele>
        <time>2026-07-12T11:19:40Z</time>
      </trkpt>
      <trkpt lat="45.74472" lon="6.4985">
        <ele>1818.2</ele>
        <time>2026-07-12T11:19:41Z</time>
      </trkpt>
      <trkpt lat="45.74469" lon="6.49846">
        <ele>1817.6</ele>
        <time>2026-07-12T11:19:42Z</time>
      </trkpt>
      <trkpt lat="45.74467" lon="6.49842">
        <ele>1817.4</ele>
        <time>2026-07-12T11:19:43Z</time>
      </trkpt>
      <trkpt lat="45.74465" lon="6.49838">
        <ele>1816.8</ele>
        <time>2026-07-12T11:19:44Z</time>
      </trkpt>
      <trkpt lat="45.74463" lon="6.49834">
        <ele>1816.8</ele>
        <time>2026-07-12T11:19:45Z</time>
      </trkpt>
      <trkpt lat="45.74461" lon="6.49831">
        <ele>1816.8</ele>
        <time>2026-07-12T11:19:46Z</time>
      </trkpt>
      <trkpt lat="45.74459" lon="6.49829">
        <ele>1817</ele>
        <time>2026-07-12T11:19:47Z</time>
      </trkpt>
      <trkpt lat="45.74458" lon="6.49827">
        <ele>1817</ele>
        <time>2026-07-12T11:19:48Z</time>
      </trkpt>
      <trkpt lat="45.74456" lon="6.49824">
        <ele>1817</ele>
        <time>2026-07-12T11:19:49Z</time>
      </trkpt>
      <trkpt lat="45.74455" lon="6.49821">
        <ele>1817</ele>
        <time>2026-07-12T11:19:50Z</time>
      </trkpt>
      <trkpt lat="45.74453" lon="6.49818">
        <ele>1817</ele>
        <time>2026-07-12T11:19:51Z</time>
      </trkpt>
      <trkpt lat="45.74451" lon="6.49815">
        <ele>1816</ele>
        <time>2026-07-12T11:19:52Z</time>
      </trkpt>
      <trkpt lat="45.74449" lon="6.49812">
        <ele>1815.8</ele>
        <time>2026-07-12T11:19:53Z</time>
      </trkpt>
      <trkpt lat="45.74447" lon="6.49809">
        <ele>1814.8</ele>
        <time>2026-07-12T11:19:54Z</time>
      </trkpt>
      <trkpt lat="45.74445" lon="6.49805">
        <ele>1814.4</ele>
        <time>2026-07-12T11:19:55Z</time>
      </trkpt>
      <trkpt lat="45.74443" lon="6.49801">
        <ele>1814.2</ele>
        <time>2026-07-12T11:19:56Z</time>
      </trkpt>
      <trkpt lat="45.74441" lon="6.49796">
        <ele>1814.2</ele>
        <time>2026-07-12T11:19:57Z</time>
      </trkpt>
      <trkpt lat="45.74439" lon="6.49791">
        <ele>1814.2</ele>
        <time>2026-07-12T11:19:58Z</time>
      </trkpt>
      <trkpt lat="45.74437" lon="6.49786">
        <ele>1814.2</ele>
        <time>2026-07-12T11:19:59Z</time>
      </trkpt>
      <trkpt lat="45.74434" lon="6.49781">
        <ele>1814.2</ele>
        <time>2026-07-12T11:20:00Z</time>
      </trkpt>
      <trkpt lat="45.74431" lon="6.49777">
        <ele>1814.2</ele>
        <time>2026-07-12T11:20:01Z</time>
      </trkpt>
      <trkpt lat="45.7443" lon="6.49773">
        <ele>1814</ele>
        <time>2026-07-12T11:20:02Z</time>
      </trkpt>
      <trkpt lat="45.74428" lon="6.49771">
        <ele>1815.6</ele>
        <time>2026-07-12T11:20:03Z</time>
      </trkpt>
      <trkpt lat="45.74428" lon="6.49769">
        <ele>1815.8</ele>
        <time>2026-07-12T11:20:04Z</time>
      </trkpt>
      <trkpt lat="45.74426" lon="6.49768">
        <ele>1815.8</ele>
        <time>2026-07-12T11:20:05Z</time>
      </trkpt>
      <trkpt lat="45.74425" lon="6.49767">
        <ele>1815.8</ele>
        <time>2026-07-12T11:20:06Z</time>
      </trkpt>
      <trkpt lat="45.74424" lon="6.49767">
        <ele>1815.6</ele>
        <time>2026-07-12T11:20:07Z</time>
      </trkpt>
      <trkpt lat="45.74423" lon="6.49769">
        <ele>1815.6</ele>
        <time>2026-07-12T11:20:08Z</time>
      </trkpt>
      <trkpt lat="45.74424" lon="6.49771">
        <ele>1815.6</ele>
        <time>2026-07-12T11:20:09Z</time>
      </trkpt>
      <trkpt lat="45.74425" lon="6.49773">
        <ele>1816.6</ele>
        <time>2026-07-12T11:20:10Z</time>
      </trkpt>
      <trkpt lat="45.74428" lon="6.49776">
        <ele>1817.6</ele>
        <time>2026-07-12T11:20:11Z</time>
      </trkpt>
      <trkpt lat="45.7443" lon="6.4978">
        <ele>1818.8</ele>
        <time>2026-07-12T11:20:12Z</time>
      </trkpt>
      <trkpt lat="45.74433" lon="6.49784">
        <ele>1818.8</ele>
        <time>2026-07-12T11:20:13Z</time>
      </trkpt>
      <trkpt lat="45.74436" lon="6.49788">
        <ele>1818.8</ele>
        <time>2026-07-12T11:20:14Z</time>
      </trkpt>
      <trkpt lat="45.74439" lon="6.49792">
        <ele>1817.8</ele>
        <time>2026-07-12T11:20:15Z</time>
      </trkpt>
      <trkpt lat="45.74442" lon="6.49798">
        <ele>1817.8</ele>
        <time>2026-07-12T11:20:16Z</time>
      </trkpt>
      <trkpt lat="45.74444" lon="6.49803">
        <ele>1817.8</ele>
        <time>2026-07-12T11:20:17Z</time>
      </trkpt>
      <trkpt lat="45.74446" lon="6.49807">
        <ele>1817.8</ele>
        <time>2026-07-12T11:20:18Z</time>
      </trkpt>
      <trkpt lat="45.74447" lon="6.49811">
        <ele>1817.8</ele>
        <time>2026-07-12T11:20:19Z</time>
      </trkpt>
      <trkpt lat="45.7445" lon="6.49813">
        <ele>1817.8</ele>
        <time>2026-07-12T11:20:20Z</time>
      </trkpt>
      <trkpt lat="45.74452" lon="6.49813">
        <ele>1816.4</ele>
        <time>2026-07-12T11:20:21Z</time>
      </trkpt>
      <trkpt lat="45.74455" lon="6.49812">
        <ele>1815.8</ele>
        <time>2026-07-12T11:20:22Z</time>
      </trkpt>
      <trkpt lat="45.74457" lon="6.49812">
        <ele>1814.8</ele>
        <time>2026-07-12T11:20:23Z</time>
      </trkpt>
      <trkpt lat="45.7446" lon="6.49811">
        <ele>1813.8</ele>
        <time>2026-07-12T11:20:24Z</time>
      </trkpt>
      <trkpt lat="45.74461" lon="6.4981">
        <ele>1813.8</ele>
        <time>2026-07-12T11:20:25Z</time>
      </trkpt>
      <trkpt lat="45.74462" lon="6.49808">
        <ele>1813.8</ele>
        <time>2026-07-12T11:20:26Z</time>
      </trkpt>
      <trkpt lat="45.74464" lon="6.49806">
        <ele>1813.8</ele>
        <time>2026-07-12T11:20:27Z</time>
      </trkpt>
      <trkpt lat="45.74465" lon="6.49803">
        <ele>1812.2</ele>
        <time>2026-07-12T11:20:28Z</time>
      </trkpt>
      <trkpt lat="45.74468" lon="6.49803">
        <ele>1812.2</ele>
        <time>2026-07-12T11:20:29Z</time>
      </trkpt>
      <trkpt lat="45.74471" lon="6.49805">
        <ele>1812.2</ele>
        <time>2026-07-12T11:20:30Z</time>
      </trkpt>
      <trkpt lat="45.74474" lon="6.49806">
        <ele>1812.2</ele>
        <time>2026-07-12T11:20:31Z</time>
      </trkpt>
      <trkpt lat="45.74477" lon="6.49806">
        <ele>1811.2</ele>
        <time>2026-07-12T11:20:32Z</time>
      </trkpt>
      <trkpt lat="45.7448" lon="6.49807">
        <ele>1810.8</ele>
        <time>2026-07-12T11:20:33Z</time>
      </trkpt>
      <trkpt lat="45.74482" lon="6.49811">
        <ele>1810.8</ele>
        <time>2026-07-12T11:20:34Z</time>
      </trkpt>
      <trkpt lat="45.74484" lon="6.49815">
        <ele>1810.8</ele>
        <time>2026-07-12T11:20:35Z</time>
      </trkpt>
      <trkpt lat="45.74486" lon="6.49819">
        <ele>1811</ele>
        <time>2026-07-12T11:20:36Z</time>
      </trkpt>
      <trkpt lat="45.74492" lon="6.49814">
        <ele>1812</ele>
        <time>2026-07-12T11:20:57Z</time>
      </trkpt>
      <trkpt lat="45.74492" lon="6.49814">
        <ele>1813</ele>
        <time>2026-07-12T11:20:58Z</time>
      </trkpt>
      <trkpt lat="45.74492" lon="6.49814">
        <ele>1814.6</ele>
        <time>2026-07-12T11:20:59Z</time>
      </trkpt>
      <trkpt lat="45.74492" lon="6.49815">
        <ele>1814.6</ele>
        <time>2026-07-12T11:21:00Z</time>
      </trkpt>
      <trkpt lat="45.74492" lon="6.49816">
        <ele>1814.6</ele>
        <time>2026-07-12T11:21:01Z</time>
      </trkpt>
      <trkpt lat="45.74492" lon="6.49818">
        <ele>1814.2</ele>
        <time>2026-07-12T11:21:02Z</time>
      </trkpt>
      <trkpt lat="45.74491" lon="6.4982">
        <ele>1813.4</ele>
        <time>2026-07-12T11:21:03Z</time>
      </trkpt>
      <trkpt lat="45.74489" lon="6.4982">
        <ele>1813.4</ele>
        <time>2026-07-12T11:21:04Z</time>
      </trkpt>
      <trkpt lat="45.74488" lon="6.49821">
        <ele>1813.4</ele>
        <time>2026-07-12T11:21:05Z</time>
      </trkpt>
      <trkpt lat="45.74487" lon="6.4982">
        <ele>1814.4</ele>
        <time>2026-07-12T11:21:06Z</time>
      </trkpt>
      <trkpt lat="45.74485" lon="6.49818">
        <ele>1815.4</ele>
        <time>2026-07-12T11:21:07Z</time>
      </trkpt>
      <trkpt lat="45.74484" lon="6.49816">
        <ele>1815.8</ele>
        <time>2026-07-12T11:21:08Z</time>
      </trkpt>
      <trkpt lat="45.74483" lon="6.49814">
        <ele>1816.6</ele>
        <time>2026-07-12T11:21:09Z</time>
      </trkpt>
      <trkpt lat="45.74482" lon="6.49811">
        <ele>1817.8</ele>
        <time>2026-07-12T11:21:10Z</time>
      </trkpt>
      <trkpt lat="45.7448" lon="6.49807">
        <ele>1817.8</ele>
        <time>2026-07-12T11:21:11Z</time>
      </trkpt>
      <trkpt lat="45.74478" lon="6.49805">
        <ele>1817.8</ele>
        <time>2026-07-12T11:21:12Z</time>
      </trkpt>
      <trkpt lat="45.74475" lon="6.49805">
        <ele>1817.8</ele>
        <time>2026-07-12T11:21:13Z</time>
      </trkpt>
      <trkpt lat="45.74473" lon="6.49805">
        <ele>1817.8</ele>
        <time>2026-07-12T11:21:14Z</time>
      </trkpt>
      <trkpt lat="45.7447" lon="6.49804">
        <ele>1817.8</ele>
        <time>2026-07-12T11:21:15Z</time>
      </trkpt>
      <trkpt lat="45.74467" lon="6.49803">
        <ele>1817.8</ele>
        <time>2026-07-12T11:21:16Z</time>
      </trkpt>
      <trkpt lat="45.74465" lon="6.49803">
        <ele>1817.2</ele>
        <time>2026-07-12T11:21:17Z</time>
      </trkpt>
      <trkpt lat="45.74464" lon="6.49805">
        <ele>1816.8</ele>
        <time>2026-07-12T11:21:18Z</time>
      </trkpt>
      <trkpt lat="45.74463" lon="6.49807">
        <ele>1816.8</ele>
        <time>2026-07-12T11:21:19Z</time>
      </trkpt>
      <trkpt lat="45.74462" lon="6.49809">
        <ele>1816.8</ele>
        <time>2026-07-12T11:21:20Z</time>
      </trkpt>
      <trkpt lat="45.7446" lon="6.4981">
        <ele>1816.8</ele>
        <time>2026-07-12T11:21:21Z</time>
      </trkpt>
      <trkpt lat="45.74457" lon="6.49811">
        <ele>1816.8</ele>
        <time>2026-07-12T11:21:22Z</time>
      </trkpt>
      <trkpt lat="45.74455" lon="6.49811">
        <ele>1816.2</ele>
        <time>2026-07-12T11:21:23Z</time>
      </trkpt>
      <trkpt lat="45.74452" lon="6.49811">
        <ele>1816.2</ele>
        <time>2026-07-12T11:21:24Z</time>
      </trkpt>
      <trkpt lat="45.7445" lon="6.4981">
        <ele>1816.2</ele>
        <time>2026-07-12T11:21:25Z</time>
      </trkpt>
      <trkpt lat="45.74448" lon="6.49809">
        <ele>1816.6</ele>
        <time>2026-07-12T11:21:26Z</time>
      </trkpt>
      <trkpt lat="45.74446" lon="6.49806">
        <ele>1816.6</ele>
        <time>2026-07-12T11:21:27Z</time>
      </trkpt>
      <trkpt lat="45.74445" lon="6.49802">
        <ele>1816.6</ele>
        <time>2026-07-12T11:21:28Z</time>
      </trkpt>
      <trkpt lat="45.74443" lon="6.49798">
        <ele>1816.6</ele>
        <time>2026-07-12T11:21:29Z</time>
      </trkpt>
      <trkpt lat="45.74441" lon="6.49793">
        <ele>1812.6</ele>
        <time>2026-07-12T11:21:30Z</time>
      </trkpt>
      <trkpt lat="45.74439" lon="6.49789">
        <ele>1812.6</ele>
        <time>2026-07-12T11:21:31Z</time>
      </trkpt>
      <trkpt lat="45.74437" lon="6.49784">
        <ele>1812.6</ele>
        <time>2026-07-12T11:21:32Z</time>
      </trkpt>
      <trkpt lat="45.74434" lon="6.4978">
        <ele>1812.6</ele>
        <time>2026-07-12T11:21:33Z</time>
      </trkpt>
      <trkpt lat="45.7443" lon="6.49774">
        <ele>1811.6</ele>
        <time>2026-07-12T11:21:34Z</time>
      </trkpt>
      <trkpt lat="45.74426" lon="6.49769">
        <ele>1811.6</ele>
        <time>2026-07-12T11:21:35Z</time>
      </trkpt>
      <trkpt lat="45.74422" lon="6.49762">
        <ele>1811.6</ele>
        <time>2026-07-12T11:21:36Z</time>
      </trkpt>
      <trkpt lat="45.74417" lon="6.49756">
        <ele>1812.6</ele>
        <time>2026-07-12T11:21:37Z</time>
      </trkpt>
      <trkpt lat="45.74413" lon="6.49749">
        <ele>1812.6</ele>
        <time>2026-07-12T11:21:38Z</time>
      </trkpt>
      <trkpt lat="45.74409" lon="6.49741">
        <ele>1812.6</ele>
        <time>2026-07-12T11:21:39Z</time>
      </trkpt>
      <trkpt lat="45.74405" lon="6.49733">
        <ele>1812.6</ele>
        <time>2026-07-12T11:21:40Z</time>
      </trkpt>
      <trkpt lat="45.744" lon="6.49724">
        <ele>1812.6</ele>
        <time>2026-07-12T11:21:41Z</time>
      </trkpt>
      <trkpt lat="45.74395" lon="6.49716">
        <ele>1811.6</ele>
        <time>2026-07-12T11:21:42Z</time>
      </trkpt>
      <trkpt lat="45.7439" lon="6.49708">
        <ele>1810.6</ele>
        <time>2026-07-12T11:21:43Z</time>
      </trkpt>
      <trkpt lat="45.74385" lon="6.49699">
        <ele>1809.8</ele>
        <time>2026-07-12T11:21:44Z</time>
      </trkpt>
      <trkpt lat="45.7438" lon="6.4969">
        <ele>1808.8</ele>
        <time>2026-07-12T11:21:45Z</time>
      </trkpt>
      <trkpt lat="45.74375" lon="6.49681">
        <ele>1807.8</ele>
        <time>2026-07-12T11:21:46Z</time>
      </trkpt>
      <trkpt lat="45.74371" lon="6.49672">
        <ele>1806.8</ele>
        <time>2026-07-12T11:21:47Z</time>
      </trkpt>
      <trkpt lat="45.74367" lon="6.49662">
        <ele>1805.6</ele>
        <time>2026-07-12T11:21:48Z</time>
      </trkpt>
      <trkpt lat="45.74364" lon="6.49653">
        <ele>1805.6</ele>
        <time>2026-07-12T11:21:49Z</time>
      </trkpt>
      <trkpt lat="45.74361" lon="6.49643">
        <ele>1805.6</ele>
        <time>2026-07-12T11:21:50Z</time>
      </trkpt>
      <trkpt lat="45.74357" lon="6.49634">
        <ele>1805.6</ele>
        <time>2026-07-12T11:21:51Z</time>
      </trkpt>
      <trkpt lat="45.74353" lon="6.49626">
        <ele>1805.6</ele>
        <time>2026-07-12T11:21:52Z</time>
      </trkpt>
      <trkpt lat="45.74347" lon="6.49618">
        <ele>1805.4</ele>
        <time>2026-07-12T11:21:53Z</time>
      </trkpt>
      <trkpt lat="45.74342" lon="6.49611">
        <ele>1805.4</ele>
        <time>2026-07-12T11:21:54Z</time>
      </trkpt>
      <trkpt lat="45.74339" lon="6.49608">
        <ele>1805.4</ele>
        <time>2026-07-12T11:21:55Z</time>
      </trkpt>
      <trkpt lat="45.7433" lon="6.49597">
        <ele>1805.6</ele>
        <time>2026-07-12T11:22:07Z</time>
      </trkpt>
      <trkpt lat="45.7433" lon="6.49597">
        <ele>1805.6</ele>
        <time>2026-07-12T11:22:08Z</time>
      </trkpt>
      <trkpt lat="45.7433" lon="6.49597">
        <ele>1806</ele>
        <time>2026-07-12T11:22:09Z</time>
      </trkpt>
      <trkpt lat="45.7433" lon="6.49597">
        <ele>1806</ele>
        <time>2026-07-12T11:22:10Z</time>
      </trkpt>
      <trkpt lat="45.7433" lon="6.49597">
        <ele>1806</ele>
        <time>2026-07-12T11:22:11Z</time>
      </trkpt>
      <trkpt lat="45.7433" lon="6.49597">
        <ele>1805.8</ele>
        <time>2026-07-12T11:22:12Z</time>
      </trkpt>
      <trkpt lat="45.7433" lon="6.49596">
        <ele>1805.8</ele>
        <time>2026-07-12T11:22:13Z</time>
      </trkpt>
      <trkpt lat="45.74331" lon="6.49595">
        <ele>1805.8</ele>
        <time>2026-07-12T11:22:14Z</time>
      </trkpt>
      <trkpt lat="45.74333" lon="6.49596">
        <ele>1806</ele>
        <time>2026-07-12T11:22:15Z</time>
      </trkpt>
      <trkpt lat="45.74335" lon="6.49596">
        <ele>1806.2</ele>
        <time>2026-07-12T11:22:16Z</time>
      </trkpt>
      <trkpt lat="45.74336" lon="6.49595">
        <ele>1806.2</ele>
        <time>2026-07-12T11:22:17Z</time>
      </trkpt>
      <trkpt lat="45.74337" lon="6.49593">
        <ele>1806.2</ele>
        <time>2026-07-12T11:22:18Z</time>
      </trkpt>
      <trkpt lat="45.74338" lon="6.49591">
        <ele>1806.2</ele>
        <time>2026-07-12T11:22:19Z</time>
      </trkpt>
      <trkpt lat="45.74339" lon="6.4959">
        <ele>1806.2</ele>
        <time>2026-07-12T11:22:20Z</time>
      </trkpt>
      <trkpt lat="45.7434" lon="6.49588">
        <ele>1805.8</ele>
        <time>2026-07-12T11:22:21Z</time>
      </trkpt>
      <trkpt lat="45.74341" lon="6.49587">
        <ele>1805.6</ele>
        <time>2026-07-12T11:22:22Z</time>
      </trkpt>
      <trkpt lat="45.74342" lon="6.49585">
        <ele>1805.4</ele>
        <time>2026-07-12T11:22:23Z</time>
      </trkpt>
      <trkpt lat="45.74343" lon="6.49583">
        <ele>1805.4</ele>
        <time>2026-07-12T11:22:24Z</time>
      </trkpt>
      <trkpt lat="45.74343" lon="6.49582">
        <ele>1805.4</ele>
        <time>2026-07-12T11:22:25Z</time>
      </trkpt>
      <trkpt lat="45.74341" lon="6.49581">
        <ele>1805.6</ele>
        <time>2026-07-12T11:22:26Z</time>
      </trkpt>
      <trkpt lat="45.7434" lon="6.49581">
        <ele>1805.6</ele>
        <time>2026-07-12T11:22:27Z</time>
      </trkpt>
      <trkpt lat="45.74338" lon="6.49583">
        <ele>1805.6</ele>
        <time>2026-07-12T11:22:28Z</time>
      </trkpt>
      <trkpt lat="45.74338" lon="6.49586">
        <ele>1805.2</ele>
        <time>2026-07-12T11:22:29Z</time>
      </trkpt>
      <trkpt lat="45.74337" lon="6.49588">
        <ele>1804.4</ele>
        <time>2026-07-12T11:22:30Z</time>
      </trkpt>
      <trkpt lat="45.74336" lon="6.49591">
        <ele>1804.4</ele>
        <time>2026-07-12T11:22:31Z</time>
      </trkpt>
      <trkpt lat="45.74335" lon="6.49592">
        <ele>1804.4</ele>
        <time>2026-07-12T11:22:32Z</time>
      </trkpt>
      <trkpt lat="45.74334" lon="6.49593">
        <ele>1804.6</ele>
        <time>2026-07-12T11:22:33Z</time>
      </trkpt>
      <trkpt lat="45.74333" lon="6.49593">
        <ele>1804.6</ele>
        <time>2026-07-12T11:22:34Z</time>
      </trkpt>
      <trkpt lat="45.74332" lon="6.49594">
        <ele>1803.8</ele>
        <time>2026-07-12T11:22:35Z</time>
      </trkpt>
      <trkpt lat="45.74331" lon="6.49596">
        <ele>1803.8</ele>
        <time>2026-07-12T11:22:36Z</time>
      </trkpt>
      <trkpt lat="45.74329" lon="6.49596">
        <ele>1803.8</ele>
        <time>2026-07-12T11:22:37Z</time>
      </trkpt>
      <trkpt lat="45.74327" lon="6.49597">
        <ele>1803.8</ele>
        <time>2026-07-12T11:22:38Z</time>
      </trkpt>
      <trkpt lat="45.74325" lon="6.49596">
        <ele>1803.8</ele>
        <time>2026-07-12T11:22:39Z</time>
      </trkpt>
      <trkpt lat="45.74322" lon="6.49596">
        <ele>1803.8</ele>
        <time>2026-07-12T11:22:40Z</time>
      </trkpt>
      <trkpt lat="45.74319" lon="6.49595">
        <ele>1803.8</ele>
        <time>2026-07-12T11:22:41Z</time>
      </trkpt>
      <trkpt lat="45.74315" lon="6.49594">
        <ele>1803.8</ele>
        <time>2026-07-12T11:22:42Z</time>
      </trkpt>
      <trkpt lat="45.74312" lon="6.49593">
        <ele>1801.8</ele>
        <time>2026-07-12T11:22:43Z</time>
      </trkpt>
      <trkpt lat="45.74308" lon="6.49592">
        <ele>1801.4</ele>
        <time>2026-07-12T11:22:44Z</time>
      </trkpt>
      <trkpt lat="45.74304" lon="6.49591">
        <ele>1801.4</ele>
        <time>2026-07-12T11:22:45Z</time>
      </trkpt>
      <trkpt lat="45.743" lon="6.4959">
        <ele>1801.4</ele>
        <time>2026-07-12T11:22:46Z</time>
      </trkpt>
      <trkpt lat="45.74297" lon="6.49589">
        <ele>1801.4</ele>
        <time>2026-07-12T11:22:47Z</time>
      </trkpt>
      <trkpt lat="45.74293" lon="6.49587">
        <ele>1800.4</ele>
        <time>2026-07-12T11:22:48Z</time>
      </trkpt>
      <trkpt lat="45.7429" lon="6.49585">
        <ele>1799.4</ele>
        <time>2026-07-12T11:22:49Z</time>
      </trkpt>
      <trkpt lat="45.74287" lon="6.49583">
        <ele>1798.4</ele>
        <time>2026-07-12T11:22:50Z</time>
      </trkpt>
      <trkpt lat="45.74284" lon="6.49581">
        <ele>1797.4</ele>
        <time>2026-07-12T11:22:51Z</time>
      </trkpt>
      <trkpt lat="45.74282" lon="6.4958">
        <ele>1796.8</ele>
        <time>2026-07-12T11:22:52Z</time>
      </trkpt>
      <trkpt lat="45.7428" lon="6.4958">
        <ele>1795.8</ele>
        <time>2026-07-12T11:22:53Z</time>
      </trkpt>
      <trkpt lat="45.74278" lon="6.49578">
        <ele>1795.8</ele>
        <time>2026-07-12T11:22:54Z</time>
      </trkpt>
      <trkpt lat="45.74276" lon="6.49576">
        <ele>1794.8</ele>
        <time>2026-07-12T11:22:55Z</time>
      </trkpt>
      <trkpt lat="45.74274" lon="6.49574">
        <ele>1794.8</ele>
        <time>2026-07-12T11:22:56Z</time>
      </trkpt>
      <trkpt lat="45.74272" lon="6.49571">
        <ele>1794.8</ele>
        <time>2026-07-12T11:22:57Z</time>
      </trkpt>
      <trkpt lat="45.74269" lon="6.49568">
        <ele>1794.8</ele>
        <time>2026-07-12T11:22:58Z</time>
      </trkpt>
      <trkpt lat="45.74266" lon="6.49566">
        <ele>1793.8</ele>
        <time>2026-07-12T11:22:59Z</time>
      </trkpt>
      <trkpt lat="45.74262" lon="6.49564">
        <ele>1792.8</ele>
        <time>2026-07-12T11:23:00Z</time>
      </trkpt>
      <trkpt lat="45.74259" lon="6.49562">
        <ele>1791.8</ele>
        <time>2026-07-12T11:23:01Z</time>
      </trkpt>
      <trkpt lat="45.74256" lon="6.4956">
        <ele>1791.6</ele>
        <time>2026-07-12T11:23:02Z</time>
      </trkpt>
      <trkpt lat="45.74252" lon="6.49558">
        <ele>1792</ele>
        <time>2026-07-12T11:23:03Z</time>
      </trkpt>
      <trkpt lat="45.74247" lon="6.49555">
        <ele>1792</ele>
        <time>2026-07-12T11:23:04Z</time>
      </trkpt>
      <trkpt lat="45.74242" lon="6.49552">
        <ele>1792</ele>
        <time>2026-07-12T11:23:05Z</time>
      </trkpt>
      <trkpt lat="45.74237" lon="6.4955">
        <ele>1786.6</ele>
        <time>2026-07-12T11:23:06Z</time>
      </trkpt>
      <trkpt lat="45.74232" lon="6.49547">
        <ele>1785</ele>
        <time>2026-07-12T11:23:07Z</time>
      </trkpt>
      <trkpt lat="45.74227" lon="6.49543">
        <ele>1784.6</ele>
        <time>2026-07-12T11:23:08Z</time>
      </trkpt>
      <trkpt lat="45.74222" lon="6.49539">
        <ele>1783.4</ele>
        <time>2026-07-12T11:23:09Z</time>
      </trkpt>
      <trkpt lat="45.74217" lon="6.49536">
        <ele>1783.4</ele>
        <time>2026-07-12T11:23:10Z</time>
      </trkpt>
      <trkpt lat="45.74211" lon="6.49532">
        <ele>1783.4</ele>
        <time>2026-07-12T11:23:11Z</time>
      </trkpt>
      <trkpt lat="45.74205" lon="6.49526">
        <ele>1783.4</ele>
        <time>2026-07-12T11:23:12Z</time>
      </trkpt>
      <trkpt lat="45.74199" lon="6.49521">
        <ele>1783.4</ele>
        <time>2026-07-12T11:23:13Z</time>
      </trkpt>
      <trkpt lat="45.74192" lon="6.49515">
        <ele>1782</ele>
        <time>2026-07-12T11:23:14Z</time>
      </trkpt>
      <trkpt lat="45.74186" lon="6.4951">
        <ele>1782</ele>
        <time>2026-07-12T11:23:15Z</time>
      </trkpt>
      <trkpt lat="45.74181" lon="6.49507">
        <ele>1782</ele>
        <time>2026-07-12T11:23:16Z</time>
      </trkpt>
      <trkpt lat="45.74177" lon="6.49503">
        <ele>1782</ele>
        <time>2026-07-12T11:23:17Z</time>
      </trkpt>
      <trkpt lat="45.74173" lon="6.49501">
        <ele>1781.6</ele>
        <time>2026-07-12T11:23:18Z</time>
      </trkpt>
      <trkpt lat="45.7417" lon="6.49499">
        <ele>1780.8</ele>
        <time>2026-07-12T11:23:19Z</time>
      </trkpt>
      <trkpt lat="45.74167" lon="6.49496">
        <ele>1779.8</ele>
        <time>2026-07-12T11:23:20Z</time>
      </trkpt>
      <trkpt lat="45.74164" lon="6.49492">
        <ele>1776.4</ele>
        <time>2026-07-12T11:23:21Z</time>
      </trkpt>
      <trkpt lat="45.74161" lon="6.4949">
        <ele>1776.4</ele>
        <time>2026-07-12T11:23:22Z</time>
      </trkpt>
      <trkpt lat="45.74157" lon="6.49487">
        <ele>1776.4</ele>
        <time>2026-07-12T11:23:23Z</time>
      </trkpt>
      <trkpt lat="45.74154" lon="6.49484">
        <ele>1777</ele>
        <time>2026-07-12T11:23:24Z</time>
      </trkpt>
      <trkpt lat="45.74151" lon="6.49481">
        <ele>1778</ele>
        <time>2026-07-12T11:23:25Z</time>
      </trkpt>
      <trkpt lat="45.74148" lon="6.49478">
        <ele>1778</ele>
        <time>2026-07-12T11:23:26Z</time>
      </trkpt>
      <trkpt lat="45.74145" lon="6.49475">
        <ele>1778</ele>
        <time>2026-07-12T11:23:27Z</time>
      </trkpt>
      <trkpt lat="45.74141" lon="6.49471">
        <ele>1774.4</ele>
        <time>2026-07-12T11:23:28Z</time>
      </trkpt>
      <trkpt lat="45.74137" lon="6.49468">
        <ele>1772.4</ele>
        <time>2026-07-12T11:23:29Z</time>
      </trkpt>
      <trkpt lat="45.74133" lon="6.49465">
        <ele>1772.4</ele>
        <time>2026-07-12T11:23:30Z</time>
      </trkpt>
      <trkpt lat="45.74129" lon="6.4946">
        <ele>1772.4</ele>
        <time>2026-07-12T11:23:31Z</time>
      </trkpt>
      <trkpt lat="45.74126" lon="6.49452">
        <ele>1772.4</ele>
        <time>2026-07-12T11:23:32Z</time>
      </trkpt>
      <trkpt lat="45.74123" lon="6.49444">
        <ele>1770.4</ele>
        <time>2026-07-12T11:23:33Z</time>
      </trkpt>
      <trkpt lat="45.74119" lon="6.49434">
        <ele>1770.4</ele>
        <time>2026-07-12T11:23:34Z</time>
      </trkpt>
      <trkpt lat="45.74116" lon="6.49425">
        <ele>1770.4</ele>
        <time>2026-07-12T11:23:35Z</time>
      </trkpt>
      <trkpt lat="45.74112" lon="6.49415">
        <ele>1770.4</ele>
        <time>2026-07-12T11:23:36Z</time>
      </trkpt>
      <trkpt lat="45.74109" lon="6.49407">
        <ele>1769.8</ele>
        <time>2026-07-12T11:23:37Z</time>
      </trkpt>
      <trkpt lat="45.74106" lon="6.494">
        <ele>1769.4</ele>
        <time>2026-07-12T11:23:38Z</time>
      </trkpt>
      <trkpt lat="45.74103" lon="6.49393">
        <ele>1768.6</ele>
        <time>2026-07-12T11:23:39Z</time>
      </trkpt>
      <trkpt lat="45.741" lon="6.49388">
        <ele>1768.6</ele>
        <time>2026-07-12T11:23:40Z</time>
      </trkpt>
      <trkpt lat="45.74097" lon="6.49383">
        <ele>1768.6</ele>
        <time>2026-07-12T11:23:41Z</time>
      </trkpt>
      <trkpt lat="45.74093" lon="6.49378">
        <ele>1768.6</ele>
        <time>2026-07-12T11:23:42Z</time>
      </trkpt>
      <trkpt lat="45.74089" lon="6.49374">
        <ele>1766.8</ele>
        <time>2026-07-12T11:23:43Z</time>
      </trkpt>
      <trkpt lat="45.74086" lon="6.4937">
        <ele>1766.8</ele>
        <time>2026-07-12T11:23:44Z</time>
      </trkpt>
      <trkpt lat="45.74082" lon="6.49367">
        <ele>1766.8</ele>
        <time>2026-07-12T11:23:45Z</time>
      </trkpt>
      <trkpt lat="45.7408" lon="6.49364">
        <ele>1766.8</ele>
        <time>2026-07-12T11:23:46Z</time>
      </trkpt>
      <trkpt lat="45.74078" lon="6.49362">
        <ele>1766.8</ele>
        <time>2026-07-12T11:23:47Z</time>
      </trkpt>
      <trkpt lat="45.74076" lon="6.49361">
        <ele>1766.8</ele>
        <time>2026-07-12T11:23:48Z</time>
      </trkpt>
      <trkpt lat="45.74074" lon="6.49359">
        <ele>1766.8</ele>
        <time>2026-07-12T11:23:49Z</time>
      </trkpt>
      <trkpt lat="45.74072" lon="6.49357">
        <ele>1764.6</ele>
        <time>2026-07-12T11:23:50Z</time>
      </trkpt>
      <trkpt lat="45.74069" lon="6.49355">
        <ele>1764.6</ele>
        <time>2026-07-12T11:23:51Z</time>
      </trkpt>
      <trkpt lat="45.74068" lon="6.49352">
        <ele>1764.6</ele>
        <time>2026-07-12T11:23:52Z</time>
      </trkpt>
      <trkpt lat="45.74065" lon="6.4935">
        <ele>1764.6</ele>
        <time>2026-07-12T11:23:53Z</time>
      </trkpt>
      <trkpt lat="45.74063" lon="6.49348">
        <ele>1764.6</ele>
        <time>2026-07-12T11:23:54Z</time>
      </trkpt>
      <trkpt lat="45.74061" lon="6.49346">
        <ele>1763.6</ele>
        <time>2026-07-12T11:23:55Z</time>
      </trkpt>
      <trkpt lat="45.74059" lon="6.49343">
        <ele>1762.6</ele>
        <time>2026-07-12T11:23:56Z</time>
      </trkpt>
      <trkpt lat="45.74057" lon="6.4934">
        <ele>1762.6</ele>
        <time>2026-07-12T11:23:57Z</time>
      </trkpt>
      <trkpt lat="45.74053" lon="6.49337">
        <ele>1762.6</ele>
        <time>2026-07-12T11:23:58Z</time>
      </trkpt>
      <trkpt lat="45.7405" lon="6.49334">
        <ele>1762.6</ele>
        <time>2026-07-12T11:23:59Z</time>
      </trkpt>
      <trkpt lat="45.74047" lon="6.49331">
        <ele>1760</ele>
        <time>2026-07-12T11:24:00Z</time>
      </trkpt>
      <trkpt lat="45.74044" lon="6.49326">
        <ele>1759</ele>
        <time>2026-07-12T11:24:01Z</time>
      </trkpt>
      <trkpt lat="45.74041" lon="6.49322">
        <ele>1757.6</ele>
        <time>2026-07-12T11:24:02Z</time>
      </trkpt>
      <trkpt lat="45.74038" lon="6.49318">
        <ele>1757.6</ele>
        <time>2026-07-12T11:24:03Z</time>
      </trkpt>
      <trkpt lat="45.74034" lon="6.49313">
        <ele>1757.6</ele>
        <time>2026-07-12T11:24:04Z</time>
      </trkpt>
      <trkpt lat="45.7403" lon="6.49307">
        <ele>1757.6</ele>
        <time>2026-07-12T11:24:05Z</time>
      </trkpt>
      <trkpt lat="45.74026" lon="6.49301">
        <ele>1756.6</ele>
        <time>2026-07-12T11:24:06Z</time>
      </trkpt>
      <trkpt lat="45.74021" lon="6.49293">
        <ele>1755.6</ele>
        <time>2026-07-12T11:24:07Z</time>
      </trkpt>
      <trkpt lat="45.74016" lon="6.49285">
        <ele>1754.6</ele>
        <time>2026-07-12T11:24:08Z</time>
      </trkpt>
      <trkpt lat="45.7401" lon="6.49277">
        <ele>1753.6</ele>
        <time>2026-07-12T11:24:09Z</time>
      </trkpt>
      <trkpt lat="45.74005" lon="6.49267">
        <ele>1752.6</ele>
        <time>2026-07-12T11:24:10Z</time>
      </trkpt>
      <trkpt lat="45.74" lon="6.49257">
        <ele>1751.6</ele>
        <time>2026-07-12T11:24:11Z</time>
      </trkpt>
      <trkpt lat="45.73995" lon="6.49248">
        <ele>1750.6</ele>
        <time>2026-07-12T11:24:12Z</time>
      </trkpt>
      <trkpt lat="45.7399" lon="6.4924">
        <ele>1749.6</ele>
        <time>2026-07-12T11:24:13Z</time>
      </trkpt>
      <trkpt lat="45.73985" lon="6.49233">
        <ele>1746.2</ele>
        <time>2026-07-12T11:24:14Z</time>
      </trkpt>
      <trkpt lat="45.7398" lon="6.49226">
        <ele>1745.4</ele>
        <time>2026-07-12T11:24:15Z</time>
      </trkpt>
      <trkpt lat="45.73975" lon="6.49218">
        <ele>1745.4</ele>
        <time>2026-07-12T11:24:16Z</time>
      </trkpt>
      <trkpt lat="45.7397" lon="6.49208">
        <ele>1745.4</ele>
        <time>2026-07-12T11:24:17Z</time>
      </trkpt>
      <trkpt lat="45.73966" lon="6.492">
        <ele>1745.4</ele>
        <time>2026-07-12T11:24:18Z</time>
      </trkpt>
      <trkpt lat="45.73963" lon="6.49191">
        <ele>1744.4</ele>
        <time>2026-07-12T11:24:19Z</time>
      </trkpt>
      <trkpt lat="45.7396" lon="6.4918">
        <ele>1743.4</ele>
        <time>2026-07-12T11:24:20Z</time>
      </trkpt>
      <trkpt lat="45.73958" lon="6.4917">
        <ele>1743.4</ele>
        <time>2026-07-12T11:24:21Z</time>
      </trkpt>
      <trkpt lat="45.73954" lon="6.49161">
        <ele>1743.4</ele>
        <time>2026-07-12T11:24:22Z</time>
      </trkpt>
      <trkpt lat="45.73951" lon="6.49153">
        <ele>1743.4</ele>
        <time>2026-07-12T11:24:23Z</time>
      </trkpt>
      <trkpt lat="45.73947" lon="6.49146">
        <ele>1742.4</ele>
        <time>2026-07-12T11:24:24Z</time>
      </trkpt>
      <trkpt lat="45.73944" lon="6.4914">
        <ele>1741.4</ele>
        <time>2026-07-12T11:24:25Z</time>
      </trkpt>
      <trkpt lat="45.73941" lon="6.49136">
        <ele>1740.4</ele>
        <time>2026-07-12T11:24:26Z</time>
      </trkpt>
      <trkpt lat="45.73938" lon="6.49132">
        <ele>1739.4</ele>
        <time>2026-07-12T11:24:27Z</time>
      </trkpt>
      <trkpt lat="45.73936" lon="6.49128">
        <ele>1739</ele>
        <time>2026-07-12T11:24:28Z</time>
      </trkpt>
      <trkpt lat="45.73934" lon="6.49125">
        <ele>1737.6</ele>
        <time>2026-07-12T11:24:29Z</time>
      </trkpt>
      <trkpt lat="45.7393" lon="6.49123">
        <ele>1737.6</ele>
        <time>2026-07-12T11:24:30Z</time>
      </trkpt>
      <trkpt lat="45.73927" lon="6.4912">
        <ele>1737.6</ele>
        <time>2026-07-12T11:24:31Z</time>
      </trkpt>
      <trkpt lat="45.73924" lon="6.49118">
        <ele>1737.6</ele>
        <time>2026-07-12T11:24:32Z</time>
      </trkpt>
      <trkpt lat="45.73921" lon="6.49116">
        <ele>1737.2</ele>
        <time>2026-07-12T11:24:33Z</time>
      </trkpt>
      <trkpt lat="45.73919" lon="6.49113">
        <ele>1737.2</ele>
        <time>2026-07-12T11:24:34Z</time>
      </trkpt>
      <trkpt lat="45.73916" lon="6.49111">
        <ele>1737.2</ele>
        <time>2026-07-12T11:24:35Z</time>
      </trkpt>
      <trkpt lat="45.73913" lon="6.49109">
        <ele>1737.2</ele>
        <time>2026-07-12T11:24:36Z</time>
      </trkpt>
      <trkpt lat="45.7391" lon="6.49108">
        <ele>1737.2</ele>
        <time>2026-07-12T11:24:37Z</time>
      </trkpt>
      <trkpt lat="45.73891" lon="6.49106">
        <ele>1737</ele>
        <time>2026-07-12T11:29:01Z</time>
      </trkpt>
      <trkpt lat="45.73891" lon="6.49105">
        <ele>1737</ele>
        <time>2026-07-12T11:29:02Z</time>
      </trkpt>
      <trkpt lat="45.73891" lon="6.49105">
        <ele>1737</ele>
        <time>2026-07-12T11:29:03Z</time>
      </trkpt>
      <trkpt lat="45.73891" lon="6.49105">
        <ele>1737</ele>
        <time>2026-07-12T11:29:04Z</time>
      </trkpt>
      <trkpt lat="45.73891" lon="6.49105">
        <ele>1737</ele>
        <time>2026-07-12T11:29:05Z</time>
      </trkpt>
      <trkpt lat="45.73891" lon="6.49105">
        <ele>1737</ele>
        <time>2026-07-12T11:29:06Z</time>
      </trkpt>
      <trkpt lat="45.73895" lon="6.49104">
        <ele>1737</ele>
        <time>2026-07-12T11:29:07Z</time>
      </trkpt>
      <trkpt lat="45.73896" lon="6.49106">
        <ele>1736</ele>
        <time>2026-07-12T11:29:08Z</time>
      </trkpt>
      <trkpt lat="45.73896" lon="6.49108">
        <ele>1735.2</ele>
        <time>2026-07-12T11:29:09Z</time>
      </trkpt>
      <trkpt lat="45.73897" lon="6.4911">
        <ele>1734.2</ele>
        <time>2026-07-12T11:29:10Z</time>
      </trkpt>
      <trkpt lat="45.73897" lon="6.49111">
        <ele>1733.8</ele>
        <time>2026-07-12T11:29:11Z</time>
      </trkpt>
      <trkpt lat="45.73897" lon="6.49113">
        <ele>1733.4</ele>
        <time>2026-07-12T11:29:12Z</time>
      </trkpt>
      <trkpt lat="45.73898" lon="6.49115">
        <ele>1732.4</ele>
        <time>2026-07-12T11:29:13Z</time>
      </trkpt>
      <trkpt lat="45.739" lon="6.49117">
        <ele>1732.4</ele>
        <time>2026-07-12T11:29:14Z</time>
      </trkpt>
      <trkpt lat="45.73901" lon="6.49119">
        <ele>1732.4</ele>
        <time>2026-07-12T11:29:15Z</time>
      </trkpt>
      <trkpt lat="45.73903" lon="6.49122">
        <ele>1732.4</ele>
        <time>2026-07-12T11:29:16Z</time>
      </trkpt>
      <trkpt lat="45.73906" lon="6.49124">
        <ele>1730.6</ele>
        <time>2026-07-12T11:29:17Z</time>
      </trkpt>
      <trkpt lat="45.73907" lon="6.49127">
        <ele>1730.4</ele>
        <time>2026-07-12T11:29:18Z</time>
      </trkpt>
      <trkpt lat="45.73909" lon="6.49129">
        <ele>1730</ele>
        <time>2026-07-12T11:29:19Z</time>
      </trkpt>
      <trkpt lat="45.73909" lon="6.49133">
        <ele>1728.4</ele>
        <time>2026-07-12T11:29:20Z</time>
      </trkpt>
      <trkpt lat="45.73911" lon="6.49135">
        <ele>1728.4</ele>
        <time>2026-07-12T11:29:21Z</time>
      </trkpt>
      <trkpt lat="45.73911" lon="6.49136">
        <ele>1728.4</ele>
        <time>2026-07-12T11:29:22Z</time>
      </trkpt>
      <trkpt lat="45.73913" lon="6.49138">
        <ele>1728.8</ele>
        <time>2026-07-12T11:29:23Z</time>
      </trkpt>
      <trkpt lat="45.73913" lon="6.49139">
        <ele>1727.8</ele>
        <time>2026-07-12T11:29:24Z</time>
      </trkpt>
      <trkpt lat="45.73914" lon="6.49141">
        <ele>1726.4</ele>
        <time>2026-07-12T11:29:25Z</time>
      </trkpt>
      <trkpt lat="45.73915" lon="6.49143">
        <ele>1726.4</ele>
        <time>2026-07-12T11:29:26Z</time>
      </trkpt>
      <trkpt lat="45.73914" lon="6.49145">
        <ele>1726.4</ele>
        <time>2026-07-12T11:29:27Z</time>
      </trkpt>
      <trkpt lat="45.73915" lon="6.49147">
        <ele>1726.4</ele>
        <time>2026-07-12T11:29:28Z</time>
      </trkpt>
      <trkpt lat="45.73916" lon="6.49149">
        <ele>1726.4</ele>
        <time>2026-07-12T11:29:29Z</time>
      </trkpt>
      <trkpt lat="45.73917" lon="6.49154">
        <ele>1725.8</ele>
        <time>2026-07-12T11:29:30Z</time>
      </trkpt>
      <trkpt lat="45.73918" lon="6.49157">
        <ele>1725.2</ele>
        <time>2026-07-12T11:29:31Z</time>
      </trkpt>
      <trkpt lat="45.73918" lon="6.4916">
        <ele>1725.2</ele>
        <time>2026-07-12T11:29:32Z</time>
      </trkpt>
      <trkpt lat="45.73917" lon="6.49165">
        <ele>1725.2</ele>
        <time>2026-07-12T11:29:33Z</time>
      </trkpt>
      <trkpt lat="45.73915" lon="6.49169">
        <ele>1725.6</ele>
        <time>2026-07-12T11:29:34Z</time>
      </trkpt>
      <trkpt lat="45.73914" lon="6.49175">
        <ele>1726.2</ele>
        <time>2026-07-12T11:29:35Z</time>
      </trkpt>
      <trkpt lat="45.73912" lon="6.49181">
        <ele>1726.2</ele>
        <time>2026-07-12T11:29:36Z</time>
      </trkpt>
      <trkpt lat="45.73911" lon="6.49188">
        <ele>1726.2</ele>
        <time>2026-07-12T11:29:37Z</time>
      </trkpt>
      <trkpt lat="45.73911" lon="6.49192">
        <ele>1725.6</ele>
        <time>2026-07-12T11:29:38Z</time>
      </trkpt>
      <trkpt lat="45.7391" lon="6.49195">
        <ele>1724.6</ele>
        <time>2026-07-12T11:29:39Z</time>
      </trkpt>
      <trkpt lat="45.73909" lon="6.49194">
        <ele>1723.8</ele>
        <time>2026-07-12T11:29:40Z</time>
      </trkpt>
      <trkpt lat="45.73907" lon="6.49193">
        <ele>1723.6</ele>
        <time>2026-07-12T11:29:41Z</time>
      </trkpt>
      <trkpt lat="45.73905" lon="6.49191">
        <ele>1723.4</ele>
        <time>2026-07-12T11:29:42Z</time>
      </trkpt>
      <trkpt lat="45.73904" lon="6.49189">
        <ele>1723.4</ele>
        <time>2026-07-12T11:29:43Z</time>
      </trkpt>
      <trkpt lat="45.73901" lon="6.49188">
        <ele>1723.4</ele>
        <time>2026-07-12T11:29:44Z</time>
      </trkpt>
      <trkpt lat="45.739" lon="6.49186">
        <ele>1723.4</ele>
        <time>2026-07-12T11:29:45Z</time>
      </trkpt>
      <trkpt lat="45.739" lon="6.49185">
        <ele>1722.4</ele>
        <time>2026-07-12T11:29:46Z</time>
      </trkpt>
      <trkpt lat="45.73899" lon="6.49182">
        <ele>1721.4</ele>
        <time>2026-07-12T11:29:47Z</time>
      </trkpt>
      <trkpt lat="45.73899" lon="6.4918">
        <ele>1720.4</ele>
        <time>2026-07-12T11:29:48Z</time>
      </trkpt>
      <trkpt lat="45.73898" lon="6.4918">
        <ele>1719.4</ele>
        <time>2026-07-12T11:29:49Z</time>
      </trkpt>
      <trkpt lat="45.73897" lon="6.49176">
        <ele>1719.2</ele>
        <time>2026-07-12T11:29:50Z</time>
      </trkpt>
      <trkpt lat="45.73896" lon="6.49173">
        <ele>1718.2</ele>
        <time>2026-07-12T11:29:51Z</time>
      </trkpt>
      <trkpt lat="45.73894" lon="6.49174">
        <ele>1718.2</ele>
        <time>2026-07-12T11:29:52Z</time>
      </trkpt>
      <trkpt lat="45.73893" lon="6.49176">
        <ele>1718.2</ele>
        <time>2026-07-12T11:29:53Z</time>
      </trkpt>
      <trkpt lat="45.73892" lon="6.49178">
        <ele>1719</ele>
        <time>2026-07-12T11:29:54Z</time>
      </trkpt>
      <trkpt lat="45.73892" lon="6.49181">
        <ele>1719</ele>
        <time>2026-07-12T11:29:55Z</time>
      </trkpt>
      <trkpt lat="45.73891" lon="6.49183">
        <ele>1719</ele>
        <time>2026-07-12T11:29:56Z</time>
      </trkpt>
      <trkpt lat="45.73888" lon="6.49184">
        <ele>1718</ele>
        <time>2026-07-12T11:29:57Z</time>
      </trkpt>
      <trkpt lat="45.73887" lon="6.49183">
        <ele>1717</ele>
        <time>2026-07-12T11:29:58Z</time>
      </trkpt>
      <trkpt lat="45.73886" lon="6.49179">
        <ele>1716</ele>
        <time>2026-07-12T11:29:59Z</time>
      </trkpt>
      <trkpt lat="45.73886" lon="6.49176">
        <ele>1716</ele>
        <time>2026-07-12T11:30:00Z</time>
      </trkpt>
      <trkpt lat="45.73887" lon="6.49173">
        <ele>1716</ele>
        <time>2026-07-12T11:30:01Z</time>
      </trkpt>
      <trkpt lat="45.73886" lon="6.49172">
        <ele>1716</ele>
        <time>2026-07-12T11:30:02Z</time>
      </trkpt>
      <trkpt lat="45.73886" lon="6.49169">
        <ele>1715</ele>
        <time>2026-07-12T11:30:03Z</time>
      </trkpt>
      <trkpt lat="45.73885" lon="6.49167">
        <ele>1714</ele>
        <time>2026-07-12T11:30:04Z</time>
      </trkpt>
      <trkpt lat="45.73884" lon="6.49166">
        <ele>1713</ele>
        <time>2026-07-12T11:30:05Z</time>
      </trkpt>
      <trkpt lat="45.73881" lon="6.49166">
        <ele>1711.2</ele>
        <time>2026-07-12T11:30:06Z</time>
      </trkpt>
      <trkpt lat="45.73879" lon="6.49166">
        <ele>1711.2</ele>
        <time>2026-07-12T11:30:07Z</time>
      </trkpt>
      <trkpt lat="45.73876" lon="6.49163">
        <ele>1711.2</ele>
        <time>2026-07-12T11:30:08Z</time>
      </trkpt>
      <trkpt lat="45.73873" lon="6.4916">
        <ele>1711.2</ele>
        <time>2026-07-12T11:30:09Z</time>
      </trkpt>
      <trkpt lat="45.73871" lon="6.49156">
        <ele>1711.2</ele>
        <time>2026-07-12T11:30:10Z</time>
      </trkpt>
      <trkpt lat="45.7387" lon="6.49153">
        <ele>1710.2</ele>
        <time>2026-07-12T11:30:11Z</time>
      </trkpt>
      <trkpt lat="45.73866" lon="6.4915">
        <ele>1709.2</ele>
        <time>2026-07-12T11:30:12Z</time>
      </trkpt>
      <trkpt lat="45.73862" lon="6.49148">
        <ele>1708.2</ele>
        <time>2026-07-12T11:30:13Z</time>
      </trkpt>
      <trkpt lat="45.73859" lon="6.49147">
        <ele>1707.8</ele>
        <time>2026-07-12T11:30:14Z</time>
      </trkpt>
      <trkpt lat="45.73857" lon="6.49146">
        <ele>1706.8</ele>
        <time>2026-07-12T11:30:15Z</time>
      </trkpt>
      <trkpt lat="45.73856" lon="6.49145">
        <ele>1706.8</ele>
        <time>2026-07-12T11:30:16Z</time>
      </trkpt>
      <trkpt lat="45.73853" lon="6.49145">
        <ele>1706.8</ele>
        <time>2026-07-12T11:30:17Z</time>
      </trkpt>
      <trkpt lat="45.73849" lon="6.49144">
        <ele>1706.8</ele>
        <time>2026-07-12T11:30:18Z</time>
      </trkpt>
      <trkpt lat="45.73847" lon="6.49143">
        <ele>1705.8</ele>
        <time>2026-07-12T11:30:19Z</time>
      </trkpt>
      <trkpt lat="45.73843" lon="6.49143">
        <ele>1705.8</ele>
        <time>2026-07-12T11:30:20Z</time>
      </trkpt>
      <trkpt lat="45.7384" lon="6.49143">
        <ele>1705.8</ele>
        <time>2026-07-12T11:30:21Z</time>
      </trkpt>
      <trkpt lat="45.73836" lon="6.49142">
        <ele>1705.8</ele>
        <time>2026-07-12T11:30:22Z</time>
      </trkpt>
      <trkpt lat="45.73834" lon="6.49141">
        <ele>1704.8</ele>
        <time>2026-07-12T11:30:23Z</time>
      </trkpt>
      <trkpt lat="45.73832" lon="6.49142">
        <ele>1703.8</ele>
        <time>2026-07-12T11:30:24Z</time>
      </trkpt>
      <trkpt lat="45.73832" lon="6.49146">
        <ele>1702.8</ele>
        <time>2026-07-12T11:30:25Z</time>
      </trkpt>
      <trkpt lat="45.73832" lon="6.49152">
        <ele>1701.8</ele>
        <time>2026-07-12T11:30:26Z</time>
      </trkpt>
      <trkpt lat="45.73834" lon="6.49155">
        <ele>1701</ele>
        <time>2026-07-12T11:30:27Z</time>
      </trkpt>
      <trkpt lat="45.73834" lon="6.49159">
        <ele>1700.6</ele>
        <time>2026-07-12T11:30:28Z</time>
      </trkpt>
      <trkpt lat="45.73833" lon="6.49161">
        <ele>1699.6</ele>
        <time>2026-07-12T11:30:29Z</time>
      </trkpt>
      <trkpt lat="45.73832" lon="6.49165">
        <ele>1698.6</ele>
        <time>2026-07-12T11:30:30Z</time>
      </trkpt>
      <trkpt lat="45.73833" lon="6.49167">
        <ele>1698.4</ele>
        <time>2026-07-12T11:30:31Z</time>
      </trkpt>
      <trkpt lat="45.73834" lon="6.49168">
        <ele>1698.2</ele>
        <time>2026-07-12T11:30:32Z</time>
      </trkpt>
      <trkpt lat="45.73837" lon="6.49172">
        <ele>1697.8</ele>
        <time>2026-07-12T11:30:33Z</time>
      </trkpt>
      <trkpt lat="45.7384" lon="6.49172">
        <ele>1697.8</ele>
        <time>2026-07-12T11:30:34Z</time>
      </trkpt>
      <trkpt lat="45.73843" lon="6.49172">
        <ele>1697.8</ele>
        <time>2026-07-12T11:30:35Z</time>
      </trkpt>
      <trkpt lat="45.73845" lon="6.49173">
        <ele>1697.8</ele>
        <time>2026-07-12T11:30:36Z</time>
      </trkpt>
      <trkpt lat="45.73845" lon="6.49175">
        <ele>1693.8</ele>
        <time>2026-07-12T11:30:37Z</time>
      </trkpt>
      <trkpt lat="45.73844" lon="6.49176">
        <ele>1693.8</ele>
        <time>2026-07-12T11:30:38Z</time>
      </trkpt>
      <trkpt lat="45.73841" lon="6.49179">
        <ele>1693.8</ele>
        <time>2026-07-12T11:30:39Z</time>
      </trkpt>
      <trkpt lat="45.73838" lon="6.49183">
        <ele>1694.8</ele>
        <time>2026-07-12T11:30:40Z</time>
      </trkpt>
      <trkpt lat="45.73836" lon="6.49186">
        <ele>1694.2</ele>
        <time>2026-07-12T11:30:41Z</time>
      </trkpt>
      <trkpt lat="45.73836" lon="6.49189">
        <ele>1694.2</ele>
        <time>2026-07-12T11:30:42Z</time>
      </trkpt>
      <trkpt lat="45.73836" lon="6.49194">
        <ele>1694.2</ele>
        <time>2026-07-12T11:30:43Z</time>
      </trkpt>
      <trkpt lat="45.73837" lon="6.492">
        <ele>1694.2</ele>
        <time>2026-07-12T11:30:44Z</time>
      </trkpt>
      <trkpt lat="45.73839" lon="6.49204">
        <ele>1694.2</ele>
        <time>2026-07-12T11:30:45Z</time>
      </trkpt>
      <trkpt lat="45.73841" lon="6.49209">
        <ele>1694.2</ele>
        <time>2026-07-12T11:30:46Z</time>
      </trkpt>
      <trkpt lat="45.73844" lon="6.49213">
        <ele>1695.2</ele>
        <time>2026-07-12T11:30:47Z</time>
      </trkpt>
      <trkpt lat="45.73845" lon="6.49218">
        <ele>1696.2</ele>
        <time>2026-07-12T11:30:48Z</time>
      </trkpt>
      <trkpt lat="45.73848" lon="6.49222">
        <ele>1697.2</ele>
        <time>2026-07-12T11:30:49Z</time>
      </trkpt>
      <trkpt lat="45.7385" lon="6.49224">
        <ele>1697.2</ele>
        <time>2026-07-12T11:30:50Z</time>
      </trkpt>
      <trkpt lat="45.73852" lon="6.49225">
        <ele>1697.2</ele>
        <time>2026-07-12T11:30:51Z</time>
      </trkpt>
      <trkpt lat="45.73854" lon="6.49225">
        <ele>1697.2</ele>
        <time>2026-07-12T11:30:52Z</time>
      </trkpt>
      <trkpt lat="45.73857" lon="6.49227">
        <ele>1697.8</ele>
        <time>2026-07-12T11:30:53Z</time>
      </trkpt>
      <trkpt lat="45.7386" lon="6.49229">
        <ele>1697.8</ele>
        <time>2026-07-12T11:30:54Z</time>
      </trkpt>
      <trkpt lat="45.73862" lon="6.49231">
        <ele>1697.8</ele>
        <time>2026-07-12T11:30:55Z</time>
      </trkpt>
      <trkpt lat="45.73864" lon="6.49234">
        <ele>1697.8</ele>
        <time>2026-07-12T11:30:56Z</time>
      </trkpt>
      <trkpt lat="45.73866" lon="6.49238">
        <ele>1696.8</ele>
        <time>2026-07-12T11:30:57Z</time>
      </trkpt>
      <trkpt lat="45.73868" lon="6.49242">
        <ele>1696.8</ele>
        <time>2026-07-12T11:30:58Z</time>
      </trkpt>
      <trkpt lat="45.7387" lon="6.49246">
        <ele>1696.8</ele>
        <time>2026-07-12T11:30:59Z</time>
      </trkpt>
      <trkpt lat="45.73873" lon="6.49248">
        <ele>1696.8</ele>
        <time>2026-07-12T11:31:00Z</time>
      </trkpt>
      <trkpt lat="45.73875" lon="6.49252">
        <ele>1695.8</ele>
        <time>2026-07-12T11:31:01Z</time>
      </trkpt>
      <trkpt lat="45.73877" lon="6.49253">
        <ele>1695</ele>
        <time>2026-07-12T11:31:02Z</time>
      </trkpt>
      <trkpt lat="45.73879" lon="6.49254">
        <ele>1695</ele>
        <time>2026-07-12T11:31:03Z</time>
      </trkpt>
      <trkpt lat="45.73882" lon="6.49257">
        <ele>1695</ele>
        <time>2026-07-12T11:31:04Z</time>
      </trkpt>
      <trkpt lat="45.73885" lon="6.4926">
        <ele>1695</ele>
        <time>2026-07-12T11:31:05Z</time>
      </trkpt>
      <trkpt lat="45.73888" lon="6.49263">
        <ele>1695</ele>
        <time>2026-07-12T11:31:06Z</time>
      </trkpt>
      <trkpt lat="45.73888" lon="6.49269">
        <ele>1695</ele>
        <time>2026-07-12T11:31:07Z</time>
      </trkpt>
      <trkpt lat="45.73888" lon="6.49273">
        <ele>1695</ele>
        <time>2026-07-12T11:31:08Z</time>
      </trkpt>
      <trkpt lat="45.73888" lon="6.49278">
        <ele>1693</ele>
        <time>2026-07-12T11:31:09Z</time>
      </trkpt>
      <trkpt lat="45.7389" lon="6.49282">
        <ele>1693</ele>
        <time>2026-07-12T11:31:10Z</time>
      </trkpt>
      <trkpt lat="45.73892" lon="6.49285">
        <ele>1693</ele>
        <time>2026-07-12T11:31:11Z</time>
      </trkpt>
      <trkpt lat="45.73894" lon="6.49292">
        <ele>1693</ele>
        <time>2026-07-12T11:31:12Z</time>
      </trkpt>
      <trkpt lat="45.73896" lon="6.49295">
        <ele>1693</ele>
        <time>2026-07-12T11:31:13Z</time>
      </trkpt>
      <trkpt lat="45.73898" lon="6.493">
        <ele>1693</ele>
        <time>2026-07-12T11:31:14Z</time>
      </trkpt>
      <trkpt lat="45.739" lon="6.49303">
        <ele>1693</ele>
        <time>2026-07-12T11:31:15Z</time>
      </trkpt>
      <trkpt lat="45.73902" lon="6.49306">
        <ele>1693</ele>
        <time>2026-07-12T11:31:16Z</time>
      </trkpt>
      <trkpt lat="45.73904" lon="6.49309">
        <ele>1692</ele>
        <time>2026-07-12T11:31:17Z</time>
      </trkpt>
      <trkpt lat="45.73906" lon="6.49312">
        <ele>1691.8</ele>
        <time>2026-07-12T11:31:18Z</time>
      </trkpt>
      <trkpt lat="45.73908" lon="6.49318">
        <ele>1690.8</ele>
        <time>2026-07-12T11:31:19Z</time>
      </trkpt>
      <trkpt lat="45.73911" lon="6.49325">
        <ele>1689.8</ele>
        <time>2026-07-12T11:31:20Z</time>
      </trkpt>
      <trkpt lat="45.73914" lon="6.49329">
        <ele>1688.8</ele>
        <time>2026-07-12T11:31:21Z</time>
      </trkpt>
      <trkpt lat="45.73917" lon="6.49334">
        <ele>1687.8</ele>
        <time>2026-07-12T11:31:22Z</time>
      </trkpt>
      <trkpt lat="45.7392" lon="6.49339">
        <ele>1686.6</ele>
        <time>2026-07-12T11:31:23Z</time>
      </trkpt>
      <trkpt lat="45.73922" lon="6.49344">
        <ele>1686</ele>
        <time>2026-07-12T11:31:24Z</time>
      </trkpt>
      <trkpt lat="45.73921" lon="6.49348">
        <ele>1686</ele>
        <time>2026-07-12T11:31:25Z</time>
      </trkpt>
      <trkpt lat="45.73918" lon="6.4935">
        <ele>1684.8</ele>
        <time>2026-07-12T11:31:26Z</time>
      </trkpt>
      <trkpt lat="45.73915" lon="6.4935">
        <ele>1683.6</ele>
        <time>2026-07-12T11:31:27Z</time>
      </trkpt>
      <trkpt lat="45.73911" lon="6.4935">
        <ele>1683.6</ele>
        <time>2026-07-12T11:31:28Z</time>
      </trkpt>
      <trkpt lat="45.73909" lon="6.49349">
        <ele>1683.6</ele>
        <time>2026-07-12T11:31:29Z</time>
      </trkpt>
      <trkpt lat="45.73906" lon="6.49349">
        <ele>1683.6</ele>
        <time>2026-07-12T11:31:30Z</time>
      </trkpt>
      <trkpt lat="45.73905" lon="6.49353">
        <ele>1683.6</ele>
        <time>2026-07-12T11:31:31Z</time>
      </trkpt>
      <trkpt lat="45.73906" lon="6.49356">
        <ele>1683.6</ele>
        <time>2026-07-12T11:31:32Z</time>
      </trkpt>
      <trkpt lat="45.73907" lon="6.49359">
        <ele>1682.6</ele>
        <time>2026-07-12T11:31:33Z</time>
      </trkpt>
      <trkpt lat="45.73908" lon="6.49362">
        <ele>1681.6</ele>
        <time>2026-07-12T11:31:34Z</time>
      </trkpt>
      <trkpt lat="45.73907" lon="6.49363">
        <ele>1680.8</ele>
        <time>2026-07-12T11:31:35Z</time>
      </trkpt>
      <trkpt lat="45.73905" lon="6.49365">
        <ele>1679.8</ele>
        <time>2026-07-12T11:31:36Z</time>
      </trkpt>
      <trkpt lat="45.73904" lon="6.49365">
        <ele>1678.8</ele>
        <time>2026-07-12T11:31:37Z</time>
      </trkpt>
      <trkpt lat="45.73903" lon="6.49367">
        <ele>1678.8</ele>
        <time>2026-07-12T11:31:38Z</time>
      </trkpt>
      <trkpt lat="45.73902" lon="6.49369">
        <ele>1678.8</ele>
        <time>2026-07-12T11:31:39Z</time>
      </trkpt>
      <trkpt lat="45.73903" lon="6.49374">
        <ele>1678.8</ele>
        <time>2026-07-12T11:31:40Z</time>
      </trkpt>
      <trkpt lat="45.73904" lon="6.49379">
        <ele>1677.8</ele>
        <time>2026-07-12T11:31:41Z</time>
      </trkpt>
      <trkpt lat="45.73904" lon="6.49386">
        <ele>1677.8</ele>
        <time>2026-07-12T11:31:42Z</time>
      </trkpt>
      <trkpt lat="45.73905" lon="6.49392">
        <ele>1677.8</ele>
        <time>2026-07-12T11:31:43Z</time>
      </trkpt>
      <trkpt lat="45.73906" lon="6.49396">
        <ele>1677.8</ele>
        <time>2026-07-12T11:31:44Z</time>
      </trkpt>
      <trkpt lat="45.73907" lon="6.49398">
        <ele>1675.2</ele>
        <time>2026-07-12T11:31:45Z</time>
      </trkpt>
      <trkpt lat="45.73907" lon="6.49402">
        <ele>1674.4</ele>
        <time>2026-07-12T11:31:46Z</time>
      </trkpt>
      <trkpt lat="45.73906" lon="6.49405">
        <ele>1674.2</ele>
        <time>2026-07-12T11:31:47Z</time>
      </trkpt>
      <trkpt lat="45.73905" lon="6.49406">
        <ele>1674.2</ele>
        <time>2026-07-12T11:31:48Z</time>
      </trkpt>
      <trkpt lat="45.73903" lon="6.49407">
        <ele>1674.2</ele>
        <time>2026-07-12T11:31:49Z</time>
      </trkpt>
      <trkpt lat="45.73903" lon="6.4941">
        <ele>1674.2</ele>
        <time>2026-07-12T11:31:50Z</time>
      </trkpt>
      <trkpt lat="45.73902" lon="6.49414">
        <ele>1672</ele>
        <time>2026-07-12T11:31:51Z</time>
      </trkpt>
      <trkpt lat="45.73904" lon="6.49419">
        <ele>1672</ele>
        <time>2026-07-12T11:31:52Z</time>
      </trkpt>
      <trkpt lat="45.73905" lon="6.49423">
        <ele>1672</ele>
        <time>2026-07-12T11:31:53Z</time>
      </trkpt>
      <trkpt lat="45.73906" lon="6.49427">
        <ele>1672</ele>
        <time>2026-07-12T11:31:54Z</time>
      </trkpt>
      <trkpt lat="45.73906" lon="6.49429">
        <ele>1672</ele>
        <time>2026-07-12T11:31:55Z</time>
      </trkpt>
      <trkpt lat="45.73904" lon="6.49434">
        <ele>1671.4</ele>
        <time>2026-07-12T11:31:56Z</time>
      </trkpt>
      <trkpt lat="45.73904" lon="6.49439">
        <ele>1670.4</ele>
        <time>2026-07-12T11:31:57Z</time>
      </trkpt>
      <trkpt lat="45.73905" lon="6.49443">
        <ele>1669.4</ele>
        <time>2026-07-12T11:31:58Z</time>
      </trkpt>
      <trkpt lat="45.73905" lon="6.49447">
        <ele>1668.4</ele>
        <time>2026-07-12T11:31:59Z</time>
      </trkpt>
      <trkpt lat="45.73905" lon="6.4945">
        <ele>1667.4</ele>
        <time>2026-07-12T11:32:00Z</time>
      </trkpt>
      <trkpt lat="45.73905" lon="6.49453">
        <ele>1667.4</ele>
        <time>2026-07-12T11:32:01Z</time>
      </trkpt>
      <trkpt lat="45.73904" lon="6.49456">
        <ele>1667.4</ele>
        <time>2026-07-12T11:32:02Z</time>
      </trkpt>
      <trkpt lat="45.73903" lon="6.49458">
        <ele>1667.4</ele>
        <time>2026-07-12T11:32:03Z</time>
      </trkpt>
      <trkpt lat="45.73901" lon="6.49461">
        <ele>1666.4</ele>
        <time>2026-07-12T11:32:04Z</time>
      </trkpt>
      <trkpt lat="45.73899" lon="6.49464">
        <ele>1665.4</ele>
        <time>2026-07-12T11:32:05Z</time>
      </trkpt>
      <trkpt lat="45.73897" lon="6.49468">
        <ele>1664.4</ele>
        <time>2026-07-12T11:32:06Z</time>
      </trkpt>
      <trkpt lat="45.73895" lon="6.49472">
        <ele>1663.4</ele>
        <time>2026-07-12T11:32:07Z</time>
      </trkpt>
      <trkpt lat="45.73893" lon="6.49476">
        <ele>1663</ele>
        <time>2026-07-12T11:32:08Z</time>
      </trkpt>
      <trkpt lat="45.73891" lon="6.4948">
        <ele>1663</ele>
        <time>2026-07-12T11:32:09Z</time>
      </trkpt>
      <trkpt lat="45.73891" lon="6.49482">
        <ele>1663</ele>
        <time>2026-07-12T11:32:10Z</time>
      </trkpt>
      <trkpt lat="45.73889" lon="6.49482">
        <ele>1663</ele>
        <time>2026-07-12T11:32:11Z</time>
      </trkpt>
      <trkpt lat="45.73887" lon="6.49482">
        <ele>1660.8</ele>
        <time>2026-07-12T11:32:12Z</time>
      </trkpt>
      <trkpt lat="45.73885" lon="6.49482">
        <ele>1660.8</ele>
        <time>2026-07-12T11:32:13Z</time>
      </trkpt>
      <trkpt lat="45.73882" lon="6.49482">
        <ele>1660.8</ele>
        <time>2026-07-12T11:32:14Z</time>
      </trkpt>
      <trkpt lat="45.73881" lon="6.49482">
        <ele>1660.8</ele>
        <time>2026-07-12T11:32:15Z</time>
      </trkpt>
      <trkpt lat="45.73879" lon="6.49481">
        <ele>1660.8</ele>
        <time>2026-07-12T11:32:16Z</time>
      </trkpt>
      <trkpt lat="45.73878" lon="6.4948">
        <ele>1659.8</ele>
        <time>2026-07-12T11:32:17Z</time>
      </trkpt>
      <trkpt lat="45.73878" lon="6.49478">
        <ele>1659.4</ele>
        <time>2026-07-12T11:32:18Z</time>
      </trkpt>
      <trkpt lat="45.73878" lon="6.49474">
        <ele>1659</ele>
        <time>2026-07-12T11:32:19Z</time>
      </trkpt>
      <trkpt lat="45.73878" lon="6.49471">
        <ele>1658.6</ele>
        <time>2026-07-12T11:32:20Z</time>
      </trkpt>
      <trkpt lat="45.73878" lon="6.49468">
        <ele>1657.6</ele>
        <time>2026-07-12T11:32:21Z</time>
      </trkpt>
      <trkpt lat="45.73876" lon="6.49466">
        <ele>1657.6</ele>
        <time>2026-07-12T11:32:22Z</time>
      </trkpt>
      <trkpt lat="45.73874" lon="6.49465">
        <ele>1657.6</ele>
        <time>2026-07-12T11:32:23Z</time>
      </trkpt>
      <trkpt lat="45.73872" lon="6.49467">
        <ele>1657.6</ele>
        <time>2026-07-12T11:32:24Z</time>
      </trkpt>
      <trkpt lat="45.73871" lon="6.49471">
        <ele>1657.6</ele>
        <time>2026-07-12T11:32:25Z</time>
      </trkpt>
      <trkpt lat="45.73871" lon="6.49475">
        <ele>1656.8</ele>
        <time>2026-07-12T11:32:26Z</time>
      </trkpt>
      <trkpt lat="45.7387" lon="6.49478">
        <ele>1655.8</ele>
        <time>2026-07-12T11:32:27Z</time>
      </trkpt>
      <trkpt lat="45.73869" lon="6.49482">
        <ele>1654.8</ele>
        <time>2026-07-12T11:32:28Z</time>
      </trkpt>
      <trkpt lat="45.73868" lon="6.49485">
        <ele>1652.8</ele>
        <time>2026-07-12T11:32:29Z</time>
      </trkpt>
      <trkpt lat="45.73868" lon="6.4949">
        <ele>1652.4</ele>
        <time>2026-07-12T11:32:30Z</time>
      </trkpt>
      <trkpt lat="45.73868" lon="6.49496">
        <ele>1651.4</ele>
        <time>2026-07-12T11:32:31Z</time>
      </trkpt>
      <trkpt lat="45.73869" lon="6.49501">
        <ele>1651.4</ele>
        <time>2026-07-12T11:32:32Z</time>
      </trkpt>
      <trkpt lat="45.73869" lon="6.49509">
        <ele>1651.4</ele>
        <time>2026-07-12T11:32:33Z</time>
      </trkpt>
      <trkpt lat="45.73869" lon="6.49517">
        <ele>1651.4</ele>
        <time>2026-07-12T11:32:34Z</time>
      </trkpt>
      <trkpt lat="45.73869" lon="6.49525">
        <ele>1650.4</ele>
        <time>2026-07-12T11:32:35Z</time>
      </trkpt>
      <trkpt lat="45.7387" lon="6.49534">
        <ele>1649.4</ele>
        <time>2026-07-12T11:32:36Z</time>
      </trkpt>
      <trkpt lat="45.73871" lon="6.49543">
        <ele>1648.4</ele>
        <time>2026-07-12T11:32:37Z</time>
      </trkpt>
      <trkpt lat="45.73871" lon="6.49549">
        <ele>1647.4</ele>
        <time>2026-07-12T11:32:38Z</time>
      </trkpt>
      <trkpt lat="45.73872" lon="6.49558">
        <ele>1646.6</ele>
        <time>2026-07-12T11:32:39Z</time>
      </trkpt>
      <trkpt lat="45.73873" lon="6.49565">
        <ele>1646</ele>
        <time>2026-07-12T11:32:40Z</time>
      </trkpt>
      <trkpt lat="45.73874" lon="6.49573">
        <ele>1645</ele>
        <time>2026-07-12T11:32:41Z</time>
      </trkpt>
      <trkpt lat="45.73875" lon="6.49581">
        <ele>1645</ele>
        <time>2026-07-12T11:32:42Z</time>
      </trkpt>
      <trkpt lat="45.73875" lon="6.49588">
        <ele>1645</ele>
        <time>2026-07-12T11:32:43Z</time>
      </trkpt>
      <trkpt lat="45.73876" lon="6.49593">
        <ele>1645</ele>
        <time>2026-07-12T11:32:44Z</time>
      </trkpt>
      <trkpt lat="45.73877" lon="6.49598">
        <ele>1645</ele>
        <time>2026-07-12T11:32:45Z</time>
      </trkpt>
      <trkpt lat="45.73877" lon="6.49602">
        <ele>1645</ele>
        <time>2026-07-12T11:32:46Z</time>
      </trkpt>
      <trkpt lat="45.73877" lon="6.49606">
        <ele>1644.4</ele>
        <time>2026-07-12T11:32:47Z</time>
      </trkpt>
      <trkpt lat="45.73878" lon="6.4961">
        <ele>1643.4</ele>
        <time>2026-07-12T11:32:48Z</time>
      </trkpt>
      <trkpt lat="45.73879" lon="6.49613">
        <ele>1642.4</ele>
        <time>2026-07-12T11:32:49Z</time>
      </trkpt>
      <trkpt lat="45.73879" lon="6.49617">
        <ele>1641.4</ele>
        <time>2026-07-12T11:32:50Z</time>
      </trkpt>
      <trkpt lat="45.7388" lon="6.49621">
        <ele>1640.4</ele>
        <time>2026-07-12T11:32:51Z</time>
      </trkpt>
      <trkpt lat="45.73882" lon="6.49625">
        <ele>1639.4</ele>
        <time>2026-07-12T11:32:52Z</time>
      </trkpt>
      <trkpt lat="45.73884" lon="6.49631">
        <ele>1638.4</ele>
        <time>2026-07-12T11:32:53Z</time>
      </trkpt>
      <trkpt lat="45.73886" lon="6.49637">
        <ele>1637.4</ele>
        <time>2026-07-12T11:32:54Z</time>
      </trkpt>
      <trkpt lat="45.73889" lon="6.49645">
        <ele>1636.4</ele>
        <time>2026-07-12T11:32:55Z</time>
      </trkpt>
      <trkpt lat="45.73893" lon="6.49653">
        <ele>1633.6</ele>
        <time>2026-07-12T11:32:56Z</time>
      </trkpt>
      <trkpt lat="45.73897" lon="6.49662">
        <ele>1632.6</ele>
        <time>2026-07-12T11:32:57Z</time>
      </trkpt>
      <trkpt lat="45.739" lon="6.49671">
        <ele>1632.6</ele>
        <time>2026-07-12T11:32:58Z</time>
      </trkpt>
      <trkpt lat="45.73903" lon="6.49682">
        <ele>1632.6</ele>
        <time>2026-07-12T11:32:59Z</time>
      </trkpt>
      <trkpt lat="45.73906" lon="6.49692">
        <ele>1632.6</ele>
        <time>2026-07-12T11:33:00Z</time>
      </trkpt>
      <trkpt lat="45.73908" lon="6.49702">
        <ele>1632.6</ele>
        <time>2026-07-12T11:33:01Z</time>
      </trkpt>
      <trkpt lat="45.73909" lon="6.49711">
        <ele>1630.8</ele>
        <time>2026-07-12T11:33:02Z</time>
      </trkpt>
      <trkpt lat="45.73912" lon="6.49721">
        <ele>1630.8</ele>
        <time>2026-07-12T11:33:03Z</time>
      </trkpt>
      <trkpt lat="45.73914" lon="6.49729">
        <ele>1630.8</ele>
        <time>2026-07-12T11:33:04Z</time>
      </trkpt>
      <trkpt lat="45.73916" lon="6.49736">
        <ele>1630.8</ele>
        <time>2026-07-12T11:33:05Z</time>
      </trkpt>
      <trkpt lat="45.73918" lon="6.49742">
        <ele>1630.8</ele>
        <time>2026-07-12T11:33:06Z</time>
      </trkpt>
      <trkpt lat="45.73919" lon="6.49747">
        <ele>1629.8</ele>
        <time>2026-07-12T11:33:07Z</time>
      </trkpt>
      <trkpt lat="45.7392" lon="6.49753">
        <ele>1629.2</ele>
        <time>2026-07-12T11:33:08Z</time>
      </trkpt>
      <trkpt lat="45.73921" lon="6.49758">
        <ele>1628.4</ele>
        <time>2026-07-12T11:33:09Z</time>
      </trkpt>
      <trkpt lat="45.73922" lon="6.49763">
        <ele>1628.4</ele>
        <time>2026-07-12T11:33:10Z</time>
      </trkpt>
      <trkpt lat="45.73925" lon="6.49768">
        <ele>1628.4</ele>
        <time>2026-07-12T11:33:11Z</time>
      </trkpt>
      <trkpt lat="45.73928" lon="6.49772">
        <ele>1628.4</ele>
        <time>2026-07-12T11:33:12Z</time>
      </trkpt>
      <trkpt lat="45.73931" lon="6.49777">
        <ele>1628.4</ele>
        <time>2026-07-12T11:33:13Z</time>
      </trkpt>
      <trkpt lat="45.73934" lon="6.49782">
        <ele>1628.4</ele>
        <time>2026-07-12T11:33:14Z</time>
      </trkpt>
      <trkpt lat="45.73938" lon="6.49788">
        <ele>1628.6</ele>
        <time>2026-07-12T11:33:15Z</time>
      </trkpt>
      <trkpt lat="45.73943" lon="6.49794">
        <ele>1628.6</ele>
        <time>2026-07-12T11:33:16Z</time>
      </trkpt>
      <trkpt lat="45.73948" lon="6.498">
        <ele>1627.4</ele>
        <time>2026-07-12T11:33:17Z</time>
      </trkpt>
      <trkpt lat="45.73953" lon="6.49807">
        <ele>1625.2</ele>
        <time>2026-07-12T11:33:18Z</time>
      </trkpt>
      <trkpt lat="45.73959" lon="6.49814">
        <ele>1625</ele>
        <time>2026-07-12T11:33:19Z</time>
      </trkpt>
      <trkpt lat="45.73964" lon="6.49822">
        <ele>1624</ele>
        <time>2026-07-12T11:33:20Z</time>
      </trkpt>
      <trkpt lat="45.73969" lon="6.49831">
        <ele>1624</ele>
        <time>2026-07-12T11:33:21Z</time>
      </trkpt>
      <trkpt lat="45.73974" lon="6.4984">
        <ele>1624</ele>
        <time>2026-07-12T11:33:22Z</time>
      </trkpt>
      <trkpt lat="45.73979" lon="6.49849">
        <ele>1624</ele>
        <time>2026-07-12T11:33:23Z</time>
      </trkpt>
      <trkpt lat="45.73984" lon="6.49858">
        <ele>1624</ele>
        <time>2026-07-12T11:33:24Z</time>
      </trkpt>
      <trkpt lat="45.73988" lon="6.49869">
        <ele>1623.8</ele>
        <time>2026-07-12T11:33:25Z</time>
      </trkpt>
      <trkpt lat="45.73991" lon="6.49879">
        <ele>1623.8</ele>
        <time>2026-07-12T11:33:26Z</time>
      </trkpt>
      <trkpt lat="45.73993" lon="6.49888">
        <ele>1623.8</ele>
        <time>2026-07-12T11:33:27Z</time>
      </trkpt>
      <trkpt lat="45.73995" lon="6.49895">
        <ele>1623.8</ele>
        <time>2026-07-12T11:33:28Z</time>
      </trkpt>
      <trkpt lat="45.73996" lon="6.499">
        <ele>1623.8</ele>
        <time>2026-07-12T11:33:29Z</time>
      </trkpt>
      <trkpt lat="45.73998" lon="6.49904">
        <ele>1623.8</ele>
        <time>2026-07-12T11:33:30Z</time>
      </trkpt>
      <trkpt lat="45.73999" lon="6.49907">
        <ele>1623.8</ele>
        <time>2026-07-12T11:33:31Z</time>
      </trkpt>
      <trkpt lat="45.74" lon="6.49909">
        <ele>1623.8</ele>
        <time>2026-07-12T11:33:32Z</time>
      </trkpt>
      <trkpt lat="45.74002" lon="6.4991">
        <ele>1623.8</ele>
        <time>2026-07-12T11:33:33Z</time>
      </trkpt>
      <trkpt lat="45.74003" lon="6.49912">
        <ele>1624.2</ele>
        <time>2026-07-12T11:33:34Z</time>
      </trkpt>
      <trkpt lat="45.74005" lon="6.49914">
        <ele>1624.4</ele>
        <time>2026-07-12T11:33:35Z</time>
      </trkpt>
      <trkpt lat="45.74007" lon="6.49917">
        <ele>1624.4</ele>
        <time>2026-07-12T11:33:36Z</time>
      </trkpt>
      <trkpt lat="45.74008" lon="6.4992">
        <ele>1624.4</ele>
        <time>2026-07-12T11:33:37Z</time>
      </trkpt>
      <trkpt lat="45.74009" lon="6.49923">
        <ele>1623.6</ele>
        <time>2026-07-12T11:33:38Z</time>
      </trkpt>
      <trkpt lat="45.7401" lon="6.49926">
        <ele>1623.6</ele>
        <time>2026-07-12T11:33:39Z</time>
      </trkpt>
      <trkpt lat="45.74011" lon="6.4993">
        <ele>1624.2</ele>
        <time>2026-07-12T11:33:40Z</time>
      </trkpt>
      <trkpt lat="45.74012" lon="6.49933">
        <ele>1624.2</ele>
        <time>2026-07-12T11:33:41Z</time>
      </trkpt>
      <trkpt lat="45.74013" lon="6.49937">
        <ele>1624.2</ele>
        <time>2026-07-12T11:33:42Z</time>
      </trkpt>
      <trkpt lat="45.74014" lon="6.49941">
        <ele>1624</ele>
        <time>2026-07-12T11:33:43Z</time>
      </trkpt>
      <trkpt lat="45.74015" lon="6.49944">
        <ele>1624</ele>
        <time>2026-07-12T11:33:44Z</time>
      </trkpt>
      <trkpt lat="45.74016" lon="6.49948">
        <ele>1624</ele>
        <time>2026-07-12T11:33:45Z</time>
      </trkpt>
      <trkpt lat="45.74018" lon="6.49951">
        <ele>1624</ele>
        <time>2026-07-12T11:33:46Z</time>
      </trkpt>
      <trkpt lat="45.74019" lon="6.49955">
        <ele>1624</ele>
        <time>2026-07-12T11:33:47Z</time>
      </trkpt>
      <trkpt lat="45.74019" lon="6.49959">
        <ele>1624.4</ele>
        <time>2026-07-12T11:33:48Z</time>
      </trkpt>
      <trkpt lat="45.74021" lon="6.49962">
        <ele>1624.8</ele>
        <time>2026-07-12T11:33:49Z</time>
      </trkpt>
      <trkpt lat="45.74022" lon="6.49965">
        <ele>1624.8</ele>
        <time>2026-07-12T11:33:50Z</time>
      </trkpt>
      <trkpt lat="45.74023" lon="6.49968">
        <ele>1624.8</ele>
        <time>2026-07-12T11:33:51Z</time>
      </trkpt>
      <trkpt lat="45.74024" lon="6.49972">
        <ele>1624.4</ele>
        <time>2026-07-12T11:33:52Z</time>
      </trkpt>
      <trkpt lat="45.74025" lon="6.49975">
        <ele>1624.4</ele>
        <time>2026-07-12T11:33:53Z</time>
      </trkpt>
      <trkpt lat="45.74027" lon="6.49978">
        <ele>1624.4</ele>
        <time>2026-07-12T11:33:54Z</time>
      </trkpt>
      <trkpt lat="45.74028" lon="6.4998">
        <ele>1624.8</ele>
        <time>2026-07-12T11:33:55Z</time>
      </trkpt>
      <trkpt lat="45.74029" lon="6.49983">
        <ele>1625.4</ele>
        <time>2026-07-12T11:33:56Z</time>
      </trkpt>
      <trkpt lat="45.7403" lon="6.49986">
        <ele>1625.4</ele>
        <time>2026-07-12T11:33:57Z</time>
      </trkpt>
      <trkpt lat="45.74032" lon="6.4999">
        <ele>1625.4</ele>
        <time>2026-07-12T11:33:58Z</time>
      </trkpt>
      <trkpt lat="45.74033" lon="6.49993">
        <ele>1625.4</ele>
        <time>2026-07-12T11:33:59Z</time>
      </trkpt>
      <trkpt lat="45.74036" lon="6.49996">
        <ele>1625.4</ele>
        <time>2026-07-12T11:34:00Z</time>
      </trkpt>
      <trkpt lat="45.74038" lon="6.49999">
        <ele>1625.4</ele>
        <time>2026-07-12T11:34:01Z</time>
      </trkpt>
      <trkpt lat="45.7404" lon="6.50002">
        <ele>1626</ele>
        <time>2026-07-12T11:34:02Z</time>
      </trkpt>
      <trkpt lat="45.74043" lon="6.50006">
        <ele>1626.8</ele>
        <time>2026-07-12T11:34:03Z</time>
      </trkpt>
      <trkpt lat="45.74046" lon="6.50009">
        <ele>1626.8</ele>
        <time>2026-07-12T11:34:04Z</time>
      </trkpt>
      <trkpt lat="45.74049" lon="6.50013">
        <ele>1626.8</ele>
        <time>2026-07-12T11:34:05Z</time>
      </trkpt>
      <trkpt lat="45.74051" lon="6.50016">
        <ele>1626.4</ele>
        <time>2026-07-12T11:34:06Z</time>
      </trkpt>
      <trkpt lat="45.74054" lon="6.50019">
        <ele>1625.8</ele>
        <time>2026-07-12T11:34:07Z</time>
      </trkpt>
      <trkpt lat="45.74057" lon="6.50022">
        <ele>1625.8</ele>
        <time>2026-07-12T11:34:08Z</time>
      </trkpt>
      <trkpt lat="45.74061" lon="6.50024">
        <ele>1625.8</ele>
        <time>2026-07-12T11:34:09Z</time>
      </trkpt>
      <trkpt lat="45.74064" lon="6.50026">
        <ele>1626.6</ele>
        <time>2026-07-12T11:34:10Z</time>
      </trkpt>
      <trkpt lat="45.74067" lon="6.50028">
        <ele>1626.6</ele>
        <time>2026-07-12T11:34:11Z</time>
      </trkpt>
      <trkpt lat="45.7407" lon="6.5003">
        <ele>1626.6</ele>
        <time>2026-07-12T11:34:12Z</time>
      </trkpt>
      <trkpt lat="45.74073" lon="6.50031">
        <ele>1626.2</ele>
        <time>2026-07-12T11:34:13Z</time>
      </trkpt>
      <trkpt lat="45.74076" lon="6.50033">
        <ele>1626</ele>
        <time>2026-07-12T11:34:14Z</time>
      </trkpt>
      <trkpt lat="45.74079" lon="6.50036">
        <ele>1626</ele>
        <time>2026-07-12T11:34:15Z</time>
      </trkpt>
      <trkpt lat="45.74081" lon="6.50039">
        <ele>1626</ele>
        <time>2026-07-12T11:34:16Z</time>
      </trkpt>
      <trkpt lat="45.74083" lon="6.50043">
        <ele>1626</ele>
        <time>2026-07-12T11:34:17Z</time>
      </trkpt>
      <trkpt lat="45.74084" lon="6.50046">
        <ele>1626.8</ele>
        <time>2026-07-12T11:34:18Z</time>
      </trkpt>
      <trkpt lat="45.74085" lon="6.5005">
        <ele>1627.2</ele>
        <time>2026-07-12T11:34:19Z</time>
      </trkpt>
      <trkpt lat="45.74086" lon="6.50052">
        <ele>1627.6</ele>
        <time>2026-07-12T11:34:20Z</time>
      </trkpt>
      <trkpt lat="45.74087" lon="6.50055">
        <ele>1627.6</ele>
        <time>2026-07-12T11:34:21Z</time>
      </trkpt>
      <trkpt lat="45.74088" lon="6.50056">
        <ele>1627.6</ele>
        <time>2026-07-12T11:34:22Z</time>
      </trkpt>
      <trkpt lat="45.74089" lon="6.50058">
        <ele>1627.6</ele>
        <time>2026-07-12T11:34:23Z</time>
      </trkpt>
      <trkpt lat="45.74089" lon="6.5006">
        <ele>1627.6</ele>
        <time>2026-07-12T11:34:24Z</time>
      </trkpt>
      <trkpt lat="45.7409" lon="6.50062">
        <ele>1627.6</ele>
        <time>2026-07-12T11:34:25Z</time>
      </trkpt>
      <trkpt lat="45.7409" lon="6.50063">
        <ele>1628.6</ele>
        <time>2026-07-12T11:34:26Z</time>
      </trkpt>
      <trkpt lat="45.74091" lon="6.50066">
        <ele>1629.6</ele>
        <time>2026-07-12T11:34:27Z</time>
      </trkpt>
      <trkpt lat="45.74092" lon="6.50068">
        <ele>1629.6</ele>
        <time>2026-07-12T11:34:28Z</time>
      </trkpt>
      <trkpt lat="45.74093" lon="6.50072">
        <ele>1629.6</ele>
        <time>2026-07-12T11:34:29Z</time>
      </trkpt>
      <trkpt lat="45.74094" lon="6.50074">
        <ele>1629.6</ele>
        <time>2026-07-12T11:34:30Z</time>
      </trkpt>
      <trkpt lat="45.74096" lon="6.50075">
        <ele>1629.6</ele>
        <time>2026-07-12T11:34:31Z</time>
      </trkpt>
      <trkpt lat="45.74097" lon="6.50078">
        <ele>1630.6</ele>
        <time>2026-07-12T11:34:32Z</time>
      </trkpt>
      <trkpt lat="45.74098" lon="6.5008">
        <ele>1630.8</ele>
        <time>2026-07-12T11:34:33Z</time>
      </trkpt>
      <trkpt lat="45.74099" lon="6.50083">
        <ele>1631.4</ele>
        <time>2026-07-12T11:34:34Z</time>
      </trkpt>
      <trkpt lat="45.74099" lon="6.50085">
        <ele>1631.4</ele>
        <time>2026-07-12T11:34:35Z</time>
      </trkpt>
      <trkpt lat="45.74099" lon="6.50088">
        <ele>1631.4</ele>
        <time>2026-07-12T11:34:36Z</time>
      </trkpt>
      <trkpt lat="45.741" lon="6.50091">
        <ele>1630.8</ele>
        <time>2026-07-12T11:34:37Z</time>
      </trkpt>
      <trkpt lat="45.74101" lon="6.50095">
        <ele>1630.8</ele>
        <time>2026-07-12T11:34:38Z</time>
      </trkpt>
      <trkpt lat="45.74102" lon="6.50097">
        <ele>1630.8</ele>
        <time>2026-07-12T11:34:39Z</time>
      </trkpt>
      <trkpt lat="45.74104" lon="6.50099">
        <ele>1631.8</ele>
        <time>2026-07-12T11:34:40Z</time>
      </trkpt>
      <trkpt lat="45.74104" lon="6.50102">
        <ele>1632.4</ele>
        <time>2026-07-12T11:34:41Z</time>
      </trkpt>
      <trkpt lat="45.74105" lon="6.50104">
        <ele>1632.4</ele>
        <time>2026-07-12T11:34:42Z</time>
      </trkpt>
      <trkpt lat="45.74106" lon="6.50107">
        <ele>1632.4</ele>
        <time>2026-07-12T11:34:43Z</time>
      </trkpt>
      <trkpt lat="45.74107" lon="6.5011">
        <ele>1632.4</ele>
        <time>2026-07-12T11:34:44Z</time>
      </trkpt>
      <trkpt lat="45.74107" lon="6.50113">
        <ele>1632.4</ele>
        <time>2026-07-12T11:34:45Z</time>
      </trkpt>
      <trkpt lat="45.74108" lon="6.50114">
        <ele>1633.4</ele>
        <time>2026-07-12T11:34:46Z</time>
      </trkpt>
      <trkpt lat="45.74108" lon="6.50116">
        <ele>1633.6</ele>
        <time>2026-07-12T11:34:47Z</time>
      </trkpt>
      <trkpt lat="45.7411" lon="6.50119">
        <ele>1634.4</ele>
        <time>2026-07-12T11:34:48Z</time>
      </trkpt>
      <trkpt lat="45.7411" lon="6.50121">
        <ele>1634.6</ele>
        <time>2026-07-12T11:34:49Z</time>
      </trkpt>
      <trkpt lat="45.74111" lon="6.50123">
        <ele>1634.6</ele>
        <time>2026-07-12T11:34:50Z</time>
      </trkpt>
      <trkpt lat="45.74112" lon="6.50125">
        <ele>1634.6</ele>
        <time>2026-07-12T11:34:51Z</time>
      </trkpt>
      <trkpt lat="45.74113" lon="6.50127">
        <ele>1634.6</ele>
        <time>2026-07-12T11:34:52Z</time>
      </trkpt>
      <trkpt lat="45.74115" lon="6.50129">
        <ele>1634.6</ele>
        <time>2026-07-12T11:34:53Z</time>
      </trkpt>
      <trkpt lat="45.74121" lon="6.50141">
        <ele>1632.4</ele>
        <time>2026-07-12T11:35:08Z</time>
      </trkpt>
      <trkpt lat="45.74121" lon="6.50141">
        <ele>1632.4</ele>
        <time>2026-07-12T11:35:09Z</time>
      </trkpt>
      <trkpt lat="45.74121" lon="6.50143">
        <ele>1634</ele>
        <time>2026-07-12T11:35:10Z</time>
      </trkpt>
      <trkpt lat="45.74121" lon="6.50144">
        <ele>1634</ele>
        <time>2026-07-12T11:35:11Z</time>
      </trkpt>
      <trkpt lat="45.74121" lon="6.50145">
        <ele>1634</ele>
        <time>2026-07-12T11:35:12Z</time>
      </trkpt>
      <trkpt lat="45.74121" lon="6.50147">
        <ele>1634</ele>
        <time>2026-07-12T11:35:13Z</time>
      </trkpt>
      <trkpt lat="45.74121" lon="6.5015">
        <ele>1634.2</ele>
        <time>2026-07-12T11:35:14Z</time>
      </trkpt>
      <trkpt lat="45.74121" lon="6.50153">
        <ele>1634.2</ele>
        <time>2026-07-12T11:35:15Z</time>
      </trkpt>
      <trkpt lat="45.74122" lon="6.50156">
        <ele>1634.2</ele>
        <time>2026-07-12T11:35:16Z</time>
      </trkpt>
      <trkpt lat="45.74123" lon="6.50159">
        <ele>1634.2</ele>
        <time>2026-07-12T11:35:17Z</time>
      </trkpt>
      <trkpt lat="45.74124" lon="6.50161">
        <ele>1635.2</ele>
        <time>2026-07-12T11:35:18Z</time>
      </trkpt>
      <trkpt lat="45.74125" lon="6.50164">
        <ele>1635.2</ele>
        <time>2026-07-12T11:35:19Z</time>
      </trkpt>
      <trkpt lat="45.74126" lon="6.50167">
        <ele>1635.2</ele>
        <time>2026-07-12T11:35:20Z</time>
      </trkpt>
      <trkpt lat="45.74127" lon="6.5017">
        <ele>1635.2</ele>
        <time>2026-07-12T11:35:21Z</time>
      </trkpt>
      <trkpt lat="45.74129" lon="6.50173">
        <ele>1636.2</ele>
        <time>2026-07-12T11:35:22Z</time>
      </trkpt>
      <trkpt lat="45.74131" lon="6.50177">
        <ele>1636.2</ele>
        <time>2026-07-12T11:35:23Z</time>
      </trkpt>
      <trkpt lat="45.74132" lon="6.5018">
        <ele>1636.2</ele>
        <time>2026-07-12T11:35:24Z</time>
      </trkpt>
      <trkpt lat="45.74134" lon="6.50183">
        <ele>1636.2</ele>
        <time>2026-07-12T11:35:25Z</time>
      </trkpt>
      <trkpt lat="45.74135" lon="6.50186">
        <ele>1637</ele>
        <time>2026-07-12T11:35:26Z</time>
      </trkpt>
      <trkpt lat="45.74136" lon="6.50189">
        <ele>1637</ele>
        <time>2026-07-12T11:35:27Z</time>
      </trkpt>
      <trkpt lat="45.74137" lon="6.50192">
        <ele>1637</ele>
        <time>2026-07-12T11:35:28Z</time>
      </trkpt>
      <trkpt lat="45.74139" lon="6.50195">
        <ele>1637</ele>
        <time>2026-07-12T11:35:29Z</time>
      </trkpt>
      <trkpt lat="45.74141" lon="6.50198">
        <ele>1637</ele>
        <time>2026-07-12T11:35:30Z</time>
      </trkpt>
      <trkpt lat="45.74143" lon="6.502">
        <ele>1637</ele>
        <time>2026-07-12T11:35:31Z</time>
      </trkpt>
      <trkpt lat="45.74145" lon="6.50203">
        <ele>1637</ele>
        <time>2026-07-12T11:35:32Z</time>
      </trkpt>
      <trkpt lat="45.74147" lon="6.50205">
        <ele>1638</ele>
        <time>2026-07-12T11:35:33Z</time>
      </trkpt>
      <trkpt lat="45.74149" lon="6.50208">
        <ele>1638.4</ele>
        <time>2026-07-12T11:35:34Z</time>
      </trkpt>
      <trkpt lat="45.74151" lon="6.50211">
        <ele>1638.4</ele>
        <time>2026-07-12T11:35:35Z</time>
      </trkpt>
      <trkpt lat="45.74153" lon="6.50213">
        <ele>1638.4</ele>
        <time>2026-07-12T11:35:36Z</time>
      </trkpt>
      <trkpt lat="45.74154" lon="6.50216">
        <ele>1638.4</ele>
        <time>2026-07-12T11:35:37Z</time>
      </trkpt>
      <trkpt lat="45.74156" lon="6.50218">
        <ele>1638.4</ele>
        <time>2026-07-12T11:35:38Z</time>
      </trkpt>
      <trkpt lat="45.74158" lon="6.5022">
        <ele>1638.4</ele>
        <time>2026-07-12T11:35:39Z</time>
      </trkpt>
      <trkpt lat="45.74159" lon="6.50222">
        <ele>1639.4</ele>
        <time>2026-07-12T11:35:40Z</time>
      </trkpt>
      <trkpt lat="45.7416" lon="6.50224">
        <ele>1640.2</ele>
        <time>2026-07-12T11:35:41Z</time>
      </trkpt>
      <trkpt lat="45.74161" lon="6.50226">
        <ele>1640.4</ele>
        <time>2026-07-12T11:35:42Z</time>
      </trkpt>
      <trkpt lat="45.74169" lon="6.50216">
        <ele>1643.4</ele>
        <time>2026-07-12T11:36:02Z</time>
      </trkpt>
      <trkpt lat="45.74169" lon="6.50216">
        <ele>1644.4</ele>
        <time>2026-07-12T11:36:03Z</time>
      </trkpt>
      <trkpt lat="45.74169" lon="6.50216">
        <ele>1645.2</ele>
        <time>2026-07-12T11:36:04Z</time>
      </trkpt>
      <trkpt lat="45.74169" lon="6.50216">
        <ele>1645.2</ele>
        <time>2026-07-12T11:36:05Z</time>
      </trkpt>
      <trkpt lat="45.74169" lon="6.50216">
        <ele>1645.2</ele>
        <time>2026-07-12T11:36:06Z</time>
      </trkpt>
      <trkpt lat="45.74169" lon="6.50216">
        <ele>1645.2</ele>
        <time>2026-07-12T11:36:07Z</time>
      </trkpt>
      <trkpt lat="45.74169" lon="6.50214">
        <ele>1647.6</ele>
        <time>2026-07-12T11:36:08Z</time>
      </trkpt>
      <trkpt lat="45.7417" lon="6.50212">
        <ele>1647.8</ele>
        <time>2026-07-12T11:36:09Z</time>
      </trkpt>
      <trkpt lat="45.7417" lon="6.5021">
        <ele>1648.6</ele>
        <time>2026-07-12T11:36:10Z</time>
      </trkpt>
      <trkpt lat="45.74171" lon="6.50207">
        <ele>1649.8</ele>
        <time>2026-07-12T11:36:11Z</time>
      </trkpt>
      <trkpt lat="45.74171" lon="6.50204">
        <ele>1649.8</ele>
        <time>2026-07-12T11:36:12Z</time>
      </trkpt>
      <trkpt lat="45.74171" lon="6.50202">
        <ele>1649.8</ele>
        <time>2026-07-12T11:36:13Z</time>
      </trkpt>
      <trkpt lat="45.74172" lon="6.502">
        <ele>1649.8</ele>
        <time>2026-07-12T11:36:14Z</time>
      </trkpt>
      <trkpt lat="45.74174" lon="6.50198">
        <ele>1649.8</ele>
        <time>2026-07-12T11:36:15Z</time>
      </trkpt>
      <trkpt lat="45.7423" lon="6.5028">
        <ele>1687.2</ele>
        <time>2026-07-12T11:51:34Z</time>
      </trkpt>
      <trkpt lat="45.7423" lon="6.50282">
        <ele>1687.2</ele>
        <time>2026-07-12T11:51:35Z</time>
      </trkpt>
      <trkpt lat="45.7423" lon="6.50283">
        <ele>1687.2</ele>
        <time>2026-07-12T11:51:36Z</time>
      </trkpt>
      <trkpt lat="45.7423" lon="6.50285">
        <ele>1687.2</ele>
        <time>2026-07-12T11:51:37Z</time>
      </trkpt>
      <trkpt lat="45.74229" lon="6.50287">
        <ele>1688.6</ele>
        <time>2026-07-12T11:51:38Z</time>
      </trkpt>
      <trkpt lat="45.74229" lon="6.5029">
        <ele>1688.8</ele>
        <time>2026-07-12T11:51:39Z</time>
      </trkpt>
      <trkpt lat="45.7423" lon="6.50292">
        <ele>1689.2</ele>
        <time>2026-07-12T11:51:40Z</time>
      </trkpt>
      <trkpt lat="45.7423" lon="6.50293">
        <ele>1689.6</ele>
        <time>2026-07-12T11:51:41Z</time>
      </trkpt>
      <trkpt lat="45.7423" lon="6.50295">
        <ele>1689.6</ele>
        <time>2026-07-12T11:51:42Z</time>
      </trkpt>
      <trkpt lat="45.74231" lon="6.50298">
        <ele>1689.6</ele>
        <time>2026-07-12T11:51:43Z</time>
      </trkpt>
      <trkpt lat="45.74248" lon="6.50329">
        <ele>1701.6</ele>
        <time>2026-07-12T11:54:29Z</time>
      </trkpt>
      <trkpt lat="45.74248" lon="6.50329">
        <ele>1701.8</ele>
        <time>2026-07-12T11:54:30Z</time>
      </trkpt>
      <trkpt lat="45.74248" lon="6.50329">
        <ele>1702.4</ele>
        <time>2026-07-12T11:54:31Z</time>
      </trkpt>
      <trkpt lat="45.74248" lon="6.50329">
        <ele>1703</ele>
        <time>2026-07-12T11:54:32Z</time>
      </trkpt>
      <trkpt lat="45.74248" lon="6.50329">
        <ele>1703.4</ele>
        <time>2026-07-12T11:54:33Z</time>
      </trkpt>
      <trkpt lat="45.74253" lon="6.50341">
        <ele>1703.4</ele>
        <time>2026-07-12T11:54:34Z</time>
      </trkpt>
      <trkpt lat="45.74254" lon="6.50342">
        <ele>1703.4</ele>
        <time>2026-07-12T11:54:35Z</time>
      </trkpt>
      <trkpt lat="45.74255" lon="6.50343">
        <ele>1703</ele>
        <time>2026-07-12T11:54:36Z</time>
      </trkpt>
      <trkpt lat="45.74264" lon="6.50351">
        <ele>1705.4</ele>
        <time>2026-07-12T11:54:43Z</time>
      </trkpt>
      <trkpt lat="45.74264" lon="6.50353">
        <ele>1705.4</ele>
        <time>2026-07-12T11:54:44Z</time>
      </trkpt>
      <trkpt lat="45.74264" lon="6.50353">
        <ele>1705.4</ele>
        <time>2026-07-12T11:54:45Z</time>
      </trkpt>
      <trkpt lat="45.74264" lon="6.50353">
        <ele>1705.4</ele>
        <time>2026-07-12T11:54:46Z</time>
      </trkpt>
      <trkpt lat="45.74264" lon="6.50353">
        <ele>1706.2</ele>
        <time>2026-07-12T11:54:47Z</time>
      </trkpt>
      <trkpt lat="45.74264" lon="6.50353">
        <ele>1706.6</ele>
        <time>2026-07-12T11:54:48Z</time>
      </trkpt>
      <trkpt lat="45.74264" lon="6.50353">
        <ele>1706.6</ele>
        <time>2026-07-12T11:54:49Z</time>
      </trkpt>
      <trkpt lat="45.74264" lon="6.50353">
        <ele>1706.8</ele>
        <time>2026-07-12T11:54:50Z</time>
      </trkpt>
      <trkpt lat="45.74264" lon="6.50355">
        <ele>1708</ele>
        <time>2026-07-12T11:54:51Z</time>
      </trkpt>
      <trkpt lat="45.74265" lon="6.50357">
        <ele>1708.6</ele>
        <time>2026-07-12T11:54:52Z</time>
      </trkpt>
      <trkpt lat="45.74266" lon="6.50359">
        <ele>1708.6</ele>
        <time>2026-07-12T11:54:53Z</time>
      </trkpt>
      <trkpt lat="45.74267" lon="6.5036">
        <ele>1708.6</ele>
        <time>2026-07-12T11:54:54Z</time>
      </trkpt>
      <trkpt lat="45.74267" lon="6.50362">
        <ele>1708.6</ele>
        <time>2026-07-12T11:54:55Z</time>
      </trkpt>
      <trkpt lat="45.74268" lon="6.50365">
        <ele>1708.8</ele>
        <time>2026-07-12T11:54:56Z</time>
      </trkpt>
      <trkpt lat="45.74268" lon="6.50367">
        <ele>1709.8</ele>
        <time>2026-07-12T11:54:57Z</time>
      </trkpt>
      <trkpt lat="45.74269" lon="6.5037">
        <ele>1710.8</ele>
        <time>2026-07-12T11:54:58Z</time>
      </trkpt>
      <trkpt lat="45.7427" lon="6.50371">
        <ele>1711.4</ele>
        <time>2026-07-12T11:54:59Z</time>
      </trkpt>
      <trkpt lat="45.74272" lon="6.50373">
        <ele>1711.4</ele>
        <time>2026-07-12T11:55:00Z</time>
      </trkpt>
      <trkpt lat="45.74273" lon="6.50375">
        <ele>1711.4</ele>
        <time>2026-07-12T11:55:01Z</time>
      </trkpt>
      <trkpt lat="45.74275" lon="6.50377">
        <ele>1711.4</ele>
        <time>2026-07-12T11:55:02Z</time>
      </trkpt>
      <trkpt lat="45.74275" lon="6.50379">
        <ele>1711.4</ele>
        <time>2026-07-12T11:55:03Z</time>
      </trkpt>
      <trkpt lat="45.74277" lon="6.50381">
        <ele>1712.4</ele>
        <time>2026-07-12T11:55:04Z</time>
      </trkpt>
      <trkpt lat="45.74278" lon="6.50383">
        <ele>1713.4</ele>
        <time>2026-07-12T11:55:05Z</time>
      </trkpt>
      <trkpt lat="45.7428" lon="6.50385">
        <ele>1714.4</ele>
        <time>2026-07-12T11:55:06Z</time>
      </trkpt>
      <trkpt lat="45.74281" lon="6.50387">
        <ele>1714.6</ele>
        <time>2026-07-12T11:55:07Z</time>
      </trkpt>
      <trkpt lat="45.74282" lon="6.50388">
        <ele>1714.6</ele>
        <time>2026-07-12T11:55:08Z</time>
      </trkpt>
      <trkpt lat="45.74283" lon="6.5039">
        <ele>1715</ele>
        <time>2026-07-12T11:55:09Z</time>
      </trkpt>
      <trkpt lat="45.74284" lon="6.50392">
        <ele>1715</ele>
        <time>2026-07-12T11:55:10Z</time>
      </trkpt>
      <trkpt lat="45.74285" lon="6.50395">
        <ele>1715</ele>
        <time>2026-07-12T11:55:11Z</time>
      </trkpt>
      <trkpt lat="45.74286" lon="6.50397">
        <ele>1715</ele>
        <time>2026-07-12T11:55:12Z</time>
      </trkpt>
      <trkpt lat="45.74287" lon="6.50399">
        <ele>1715.6</ele>
        <time>2026-07-12T11:55:13Z</time>
      </trkpt>
      <trkpt lat="45.74288" lon="6.504">
        <ele>1715.6</ele>
        <time>2026-07-12T11:55:14Z</time>
      </trkpt>
      <trkpt lat="45.74288" lon="6.50403">
        <ele>1715.6</ele>
        <time>2026-07-12T11:55:15Z</time>
      </trkpt>
      <trkpt lat="45.74289" lon="6.50405">
        <ele>1715.2</ele>
        <time>2026-07-12T11:55:16Z</time>
      </trkpt>
      <trkpt lat="45.7429" lon="6.50407">
        <ele>1715</ele>
        <time>2026-07-12T11:55:17Z</time>
      </trkpt>
      <trkpt lat="45.74291" lon="6.50409">
        <ele>1715</ele>
        <time>2026-07-12T11:55:18Z</time>
      </trkpt>
      <trkpt lat="45.74292" lon="6.50411">
        <ele>1715</ele>
        <time>2026-07-12T11:55:19Z</time>
      </trkpt>
      <trkpt lat="45.74293" lon="6.50412">
        <ele>1715</ele>
        <time>2026-07-12T11:55:20Z</time>
      </trkpt>
      <trkpt lat="45.74293" lon="6.50413">
        <ele>1715</ele>
        <time>2026-07-12T11:55:21Z</time>
      </trkpt>
      <trkpt lat="45.74294" lon="6.50415">
        <ele>1714.6</ele>
        <time>2026-07-12T11:55:22Z</time>
      </trkpt>
      <trkpt lat="45.74294" lon="6.50417">
        <ele>1714.4</ele>
        <time>2026-07-12T11:55:23Z</time>
      </trkpt>
      <trkpt lat="45.74294" lon="6.50418">
        <ele>1714.4</ele>
        <time>2026-07-12T11:55:24Z</time>
      </trkpt>
      <trkpt lat="45.74295" lon="6.50421">
        <ele>1714.4</ele>
        <time>2026-07-12T11:55:25Z</time>
      </trkpt>
      <trkpt lat="45.74296" lon="6.50422">
        <ele>1715.2</ele>
        <time>2026-07-12T11:55:26Z</time>
      </trkpt>
      <trkpt lat="45.74296" lon="6.50423">
        <ele>1715.2</ele>
        <time>2026-07-12T11:55:27Z</time>
      </trkpt>
      <trkpt lat="45.74297" lon="6.50425">
        <ele>1715.2</ele>
        <time>2026-07-12T11:55:28Z</time>
      </trkpt>
      <trkpt lat="45.74297" lon="6.50426">
        <ele>1715.2</ele>
        <time>2026-07-12T11:55:29Z</time>
      </trkpt>
      <trkpt lat="45.74298" lon="6.50428">
        <ele>1715.2</ele>
        <time>2026-07-12T11:55:30Z</time>
      </trkpt>
      <trkpt lat="45.74299" lon="6.5043">
        <ele>1715.2</ele>
        <time>2026-07-12T11:55:31Z</time>
      </trkpt>
      <trkpt lat="45.743" lon="6.50433">
        <ele>1715.2</ele>
        <time>2026-07-12T11:55:32Z</time>
      </trkpt>
      <trkpt lat="45.74301" lon="6.50436">
        <ele>1715.2</ele>
        <time>2026-07-12T11:55:33Z</time>
      </trkpt>
      <trkpt lat="45.74301" lon="6.50439">
        <ele>1715</ele>
        <time>2026-07-12T11:55:34Z</time>
      </trkpt>
      <trkpt lat="45.74302" lon="6.50442">
        <ele>1714.4</ele>
        <time>2026-07-12T11:55:35Z</time>
      </trkpt>
      <trkpt lat="45.74303" lon="6.50445">
        <ele>1714</ele>
        <time>2026-07-12T11:55:36Z</time>
      </trkpt>
      <trkpt lat="45.74304" lon="6.50446">
        <ele>1712</ele>
        <time>2026-07-12T11:55:37Z</time>
      </trkpt>
      <trkpt lat="45.74305" lon="6.50448">
        <ele>1712</ele>
        <time>2026-07-12T11:55:38Z</time>
      </trkpt>
      <trkpt lat="45.74306" lon="6.5045">
        <ele>1712</ele>
        <time>2026-07-12T11:55:39Z</time>
      </trkpt>
      <trkpt lat="45.74307" lon="6.50452">
        <ele>1712</ele>
        <time>2026-07-12T11:55:40Z</time>
      </trkpt>
      <trkpt lat="45.74308" lon="6.50453">
        <ele>1712</ele>
        <time>2026-07-12T11:55:41Z</time>
      </trkpt>
      <trkpt lat="45.74308" lon="6.50455">
        <ele>1712</ele>
        <time>2026-07-12T11:55:42Z</time>
      </trkpt>
      <trkpt lat="45.74309" lon="6.50457">
        <ele>1712</ele>
        <time>2026-07-12T11:55:43Z</time>
      </trkpt>
      <trkpt lat="45.74309" lon="6.50459">
        <ele>1711</ele>
        <time>2026-07-12T11:55:44Z</time>
      </trkpt>
      <trkpt lat="45.74309" lon="6.50462">
        <ele>1710.2</ele>
        <time>2026-07-12T11:55:45Z</time>
      </trkpt>
      <trkpt lat="45.74309" lon="6.50464">
        <ele>1709.2</ele>
        <time>2026-07-12T11:55:46Z</time>
      </trkpt>
      <trkpt lat="45.7431" lon="6.50466">
        <ele>1708.4</ele>
        <time>2026-07-12T11:55:47Z</time>
      </trkpt>
      <trkpt lat="45.7431" lon="6.5047">
        <ele>1708.4</ele>
        <time>2026-07-12T11:55:48Z</time>
      </trkpt>
      <trkpt lat="45.74309" lon="6.50475">
        <ele>1708.4</ele>
        <time>2026-07-12T11:55:49Z</time>
      </trkpt>
      <trkpt lat="45.74309" lon="6.50481">
        <ele>1708.4</ele>
        <time>2026-07-12T11:55:50Z</time>
      </trkpt>
      <trkpt lat="45.74309" lon="6.50485">
        <ele>1708.4</ele>
        <time>2026-07-12T11:55:51Z</time>
      </trkpt>
      <trkpt lat="45.74311" lon="6.50489">
        <ele>1707.8</ele>
        <time>2026-07-12T11:55:52Z</time>
      </trkpt>
      <trkpt lat="45.74311" lon="6.50497">
        <ele>1707.8</ele>
        <time>2026-07-12T11:55:53Z</time>
      </trkpt>
      <trkpt lat="45.74312" lon="6.50505">
        <ele>1707.8</ele>
        <time>2026-07-12T11:55:54Z</time>
      </trkpt>
      <trkpt lat="45.74313" lon="6.50514">
        <ele>1707.8</ele>
        <time>2026-07-12T11:55:55Z</time>
      </trkpt>
      <trkpt lat="45.74314" lon="6.50522">
        <ele>1707</ele>
        <time>2026-07-12T11:55:56Z</time>
      </trkpt>
      <trkpt lat="45.74315" lon="6.50529">
        <ele>1707</ele>
        <time>2026-07-12T11:55:57Z</time>
      </trkpt>
      <trkpt lat="45.74316" lon="6.50536">
        <ele>1707</ele>
        <time>2026-07-12T11:55:58Z</time>
      </trkpt>
      <trkpt lat="45.74317" lon="6.50545">
        <ele>1707</ele>
        <time>2026-07-12T11:55:59Z</time>
      </trkpt>
      <trkpt lat="45.74317" lon="6.50553">
        <ele>1707</ele>
        <time>2026-07-12T11:56:00Z</time>
      </trkpt>
      <trkpt lat="45.74317" lon="6.50561">
        <ele>1707</ele>
        <time>2026-07-12T11:56:01Z</time>
      </trkpt>
      <trkpt lat="45.74318" lon="6.5057">
        <ele>1707</ele>
        <time>2026-07-12T11:56:02Z</time>
      </trkpt>
      <trkpt lat="45.74319" lon="6.50578">
        <ele>1704.8</ele>
        <time>2026-07-12T11:56:03Z</time>
      </trkpt>
      <trkpt lat="45.74319" lon="6.50585">
        <ele>1704.8</ele>
        <time>2026-07-12T11:56:04Z</time>
      </trkpt>
      <trkpt lat="45.74321" lon="6.50593">
        <ele>1704.8</ele>
        <time>2026-07-12T11:56:05Z</time>
      </trkpt>
      <trkpt lat="45.74322" lon="6.50602">
        <ele>1704.8</ele>
        <time>2026-07-12T11:56:06Z</time>
      </trkpt>
      <trkpt lat="45.74323" lon="6.50612">
        <ele>1704.8</ele>
        <time>2026-07-12T11:56:07Z</time>
      </trkpt>
      <trkpt lat="45.74325" lon="6.5062">
        <ele>1704.8</ele>
        <time>2026-07-12T11:56:08Z</time>
      </trkpt>
      <trkpt lat="45.74324" lon="6.50629">
        <ele>1705.8</ele>
        <time>2026-07-12T11:56:09Z</time>
      </trkpt>
      <trkpt lat="45.74327" lon="6.50635">
        <ele>1705.8</ele>
        <time>2026-07-12T11:56:10Z</time>
      </trkpt>
      <trkpt lat="45.74329" lon="6.50642">
        <ele>1705.8</ele>
        <time>2026-07-12T11:56:11Z</time>
      </trkpt>
      <trkpt lat="45.7433" lon="6.50649">
        <ele>1704.8</ele>
        <time>2026-07-12T11:56:12Z</time>
      </trkpt>
      <trkpt lat="45.74332" lon="6.50656">
        <ele>1703.8</ele>
        <time>2026-07-12T11:56:13Z</time>
      </trkpt>
      <trkpt lat="45.74334" lon="6.5066">
        <ele>1702.8</ele>
        <time>2026-07-12T11:56:14Z</time>
      </trkpt>
      <trkpt lat="45.74336" lon="6.50664">
        <ele>1702.8</ele>
        <time>2026-07-12T11:56:15Z</time>
      </trkpt>
      <trkpt lat="45.74339" lon="6.50669">
        <ele>1702.8</ele>
        <time>2026-07-12T11:56:16Z</time>
      </trkpt>
      <trkpt lat="45.74341" lon="6.50676">
        <ele>1702.8</ele>
        <time>2026-07-12T11:56:17Z</time>
      </trkpt>
      <trkpt lat="45.74343" lon="6.50683">
        <ele>1702.8</ele>
        <time>2026-07-12T11:56:18Z</time>
      </trkpt>
      <trkpt lat="45.74344" lon="6.50692">
        <ele>1702.6</ele>
        <time>2026-07-12T11:56:19Z</time>
      </trkpt>
      <trkpt lat="45.74343" lon="6.507">
        <ele>1702.6</ele>
        <time>2026-07-12T11:56:20Z</time>
      </trkpt>
      <trkpt lat="45.74343" lon="6.50709">
        <ele>1702.6</ele>
        <time>2026-07-12T11:56:21Z</time>
      </trkpt>
      <trkpt lat="45.74344" lon="6.50717">
        <ele>1702.6</ele>
        <time>2026-07-12T11:56:22Z</time>
      </trkpt>
      <trkpt lat="45.74343" lon="6.50751">
        <ele>1702.2</ele>
        <time>2026-07-12T11:57:13Z</time>
      </trkpt>
      <trkpt lat="45.74343" lon="6.50751">
        <ele>1702.2</ele>
        <time>2026-07-12T11:57:14Z</time>
      </trkpt>
      <trkpt lat="45.74343" lon="6.50751">
        <ele>1701.6</ele>
        <time>2026-07-12T11:57:15Z</time>
      </trkpt>
      <trkpt lat="45.74343" lon="6.50751">
        <ele>1701.6</ele>
        <time>2026-07-12T11:57:16Z</time>
      </trkpt>
      <trkpt lat="45.74343" lon="6.50751">
        <ele>1701.6</ele>
        <time>2026-07-12T11:57:17Z</time>
      </trkpt>
      <trkpt lat="45.74343" lon="6.50751">
        <ele>1701.6</ele>
        <time>2026-07-12T11:57:18Z</time>
      </trkpt>
      <trkpt lat="45.74343" lon="6.50751">
        <ele>1701.6</ele>
        <time>2026-07-12T11:57:19Z</time>
      </trkpt>
      <trkpt lat="45.74343" lon="6.50751">
        <ele>1701.6</ele>
        <time>2026-07-12T11:57:20Z</time>
      </trkpt>
      <trkpt lat="45.74344" lon="6.50757">
        <ele>1701.6</ele>
        <time>2026-07-12T11:57:21Z</time>
      </trkpt>
      <trkpt lat="45.74344" lon="6.5076">
        <ele>1701.6</ele>
        <time>2026-07-12T11:57:22Z</time>
      </trkpt>
      <trkpt lat="45.74345" lon="6.50763">
        <ele>1701.6</ele>
        <time>2026-07-12T11:57:23Z</time>
      </trkpt>
      <trkpt lat="45.74346" lon="6.50767">
        <ele>1701.6</ele>
        <time>2026-07-12T11:57:24Z</time>
      </trkpt>
      <trkpt lat="45.74348" lon="6.50772">
        <ele>1701.6</ele>
        <time>2026-07-12T11:57:25Z</time>
      </trkpt>
      <trkpt lat="45.74349" lon="6.50776">
        <ele>1701.6</ele>
        <time>2026-07-12T11:57:26Z</time>
      </trkpt>
      <trkpt lat="45.74351" lon="6.50781">
        <ele>1702</ele>
        <time>2026-07-12T11:57:27Z</time>
      </trkpt>
      <trkpt lat="45.74352" lon="6.50785">
        <ele>1702.8</ele>
        <time>2026-07-12T11:57:28Z</time>
      </trkpt>
      <trkpt lat="45.74354" lon="6.5079">
        <ele>1702.8</ele>
        <time>2026-07-12T11:57:29Z</time>
      </trkpt>
      <trkpt lat="45.74355" lon="6.50794">
        <ele>1702.8</ele>
        <time>2026-07-12T11:57:30Z</time>
      </trkpt>
      <trkpt lat="45.74357" lon="6.50799">
        <ele>1702.8</ele>
        <time>2026-07-12T11:57:31Z</time>
      </trkpt>
      <trkpt lat="45.74358" lon="6.50804">
        <ele>1703</ele>
        <time>2026-07-12T11:57:32Z</time>
      </trkpt>
      <trkpt lat="45.74359" lon="6.50809">
        <ele>1703</ele>
        <time>2026-07-12T11:57:33Z</time>
      </trkpt>
      <trkpt lat="45.74361" lon="6.50814">
        <ele>1703.4</ele>
        <time>2026-07-12T11:57:34Z</time>
      </trkpt>
      <trkpt lat="45.74362" lon="6.50819">
        <ele>1703.4</ele>
        <time>2026-07-12T11:57:35Z</time>
      </trkpt>
      <trkpt lat="45.74363" lon="6.50823">
        <ele>1703.4</ele>
        <time>2026-07-12T11:57:36Z</time>
      </trkpt>
      <trkpt lat="45.74365" lon="6.50827">
        <ele>1703.4</ele>
        <time>2026-07-12T11:57:37Z</time>
      </trkpt>
      <trkpt lat="45.74367" lon="6.50831">
        <ele>1703.4</ele>
        <time>2026-07-12T11:57:38Z</time>
      </trkpt>
      <trkpt lat="45.74368" lon="6.50835">
        <ele>1703.4</ele>
        <time>2026-07-12T11:57:39Z</time>
      </trkpt>
      <trkpt lat="45.7437" lon="6.50839">
        <ele>1702.8</ele>
        <time>2026-07-12T11:57:40Z</time>
      </trkpt>
      <trkpt lat="45.74372" lon="6.50842">
        <ele>1702.8</ele>
        <time>2026-07-12T11:57:41Z</time>
      </trkpt>
      <trkpt lat="45.74373" lon="6.50844">
        <ele>1702.8</ele>
        <time>2026-07-12T11:57:42Z</time>
      </trkpt>
      <trkpt lat="45.74374" lon="6.50847">
        <ele>1702.8</ele>
        <time>2026-07-12T11:57:43Z</time>
      </trkpt>
      <trkpt lat="45.74374" lon="6.50851">
        <ele>1702.8</ele>
        <time>2026-07-12T11:57:44Z</time>
      </trkpt>
      <trkpt lat="45.74375" lon="6.50854">
        <ele>1702.8</ele>
        <time>2026-07-12T11:57:45Z</time>
      </trkpt>
      <trkpt lat="45.74376" lon="6.50857">
        <ele>1702.8</ele>
        <time>2026-07-12T11:57:46Z</time>
      </trkpt>
      <trkpt lat="45.74376" lon="6.50861">
        <ele>1702.8</ele>
        <time>2026-07-12T11:57:47Z</time>
      </trkpt>
      <trkpt lat="45.74377" lon="6.50865">
        <ele>1701.8</ele>
        <time>2026-07-12T11:57:48Z</time>
      </trkpt>
      <trkpt lat="45.74377" lon="6.50868">
        <ele>1700.8</ele>
        <time>2026-07-12T11:57:49Z</time>
      </trkpt>
      <trkpt lat="45.74378" lon="6.50872">
        <ele>1699.8</ele>
        <time>2026-07-12T11:57:50Z</time>
      </trkpt>
      <trkpt lat="45.74378" lon="6.50875">
        <ele>1699.2</ele>
        <time>2026-07-12T11:57:51Z</time>
      </trkpt>
      <trkpt lat="45.74378" lon="6.50881">
        <ele>1698.2</ele>
        <time>2026-07-12T11:57:52Z</time>
      </trkpt>
      <trkpt lat="45.74378" lon="6.50887">
        <ele>1697.2</ele>
        <time>2026-07-12T11:57:53Z</time>
      </trkpt>
      <trkpt lat="45.74379" lon="6.50893">
        <ele>1697.2</ele>
        <time>2026-07-12T11:57:54Z</time>
      </trkpt>
      <trkpt lat="45.7438" lon="6.509">
        <ele>1697.2</ele>
        <time>2026-07-12T11:57:55Z</time>
      </trkpt>
      <trkpt lat="45.74382" lon="6.50908">
        <ele>1697.2</ele>
        <time>2026-07-12T11:57:56Z</time>
      </trkpt>
      <trkpt lat="45.74384" lon="6.50917">
        <ele>1696.2</ele>
        <time>2026-07-12T11:57:57Z</time>
      </trkpt>
      <trkpt lat="45.74386" lon="6.50926">
        <ele>1695.2</ele>
        <time>2026-07-12T11:57:58Z</time>
      </trkpt>
      <trkpt lat="45.74387" lon="6.50936">
        <ele>1694.2</ele>
        <time>2026-07-12T11:57:59Z</time>
      </trkpt>
      <trkpt lat="45.74388" lon="6.50947">
        <ele>1693.2</ele>
        <time>2026-07-12T11:58:00Z</time>
      </trkpt>
      <trkpt lat="45.74388" lon="6.50956">
        <ele>1692.2</ele>
        <time>2026-07-12T11:58:01Z</time>
      </trkpt>
      <trkpt lat="45.74386" lon="6.50965">
        <ele>1691.2</ele>
        <time>2026-07-12T11:58:02Z</time>
      </trkpt>
      <trkpt lat="45.74384" lon="6.50972">
        <ele>1690.2</ele>
        <time>2026-07-12T11:58:03Z</time>
      </trkpt>
      <trkpt lat="45.74382" lon="6.50979">
        <ele>1689.2</ele>
        <time>2026-07-12T11:58:04Z</time>
      </trkpt>
      <trkpt lat="45.7438" lon="6.50986">
        <ele>1688.2</ele>
        <time>2026-07-12T11:58:05Z</time>
      </trkpt>
      <trkpt lat="45.74378" lon="6.50994">
        <ele>1687.2</ele>
        <time>2026-07-12T11:58:06Z</time>
      </trkpt>
      <trkpt lat="45.74376" lon="6.51002">
        <ele>1686.2</ele>
        <time>2026-07-12T11:58:07Z</time>
      </trkpt>
      <trkpt lat="45.74376" lon="6.5101">
        <ele>1685.2</ele>
        <time>2026-07-12T11:58:08Z</time>
      </trkpt>
      <trkpt lat="45.74376" lon="6.51018">
        <ele>1684.2</ele>
        <time>2026-07-12T11:58:09Z</time>
      </trkpt>
      <trkpt lat="45.74376" lon="6.51025">
        <ele>1683.2</ele>
        <time>2026-07-12T11:58:10Z</time>
      </trkpt>
      <trkpt lat="45.74377" lon="6.51032">
        <ele>1682.2</ele>
        <time>2026-07-12T11:58:11Z</time>
      </trkpt>
      <trkpt lat="45.74377" lon="6.51039">
        <ele>1681.2</ele>
        <time>2026-07-12T11:58:12Z</time>
      </trkpt>
      <trkpt lat="45.74377" lon="6.51046">
        <ele>1681.2</ele>
        <time>2026-07-12T11:58:13Z</time>
      </trkpt>
      <trkpt lat="45.74376" lon="6.51053">
        <ele>1681.2</ele>
        <time>2026-07-12T11:58:14Z</time>
      </trkpt>
      <trkpt lat="45.74376" lon="6.5106">
        <ele>1681.2</ele>
        <time>2026-07-12T11:58:15Z</time>
      </trkpt>
      <trkpt lat="45.74377" lon="6.51067">
        <ele>1681.2</ele>
        <time>2026-07-12T11:58:16Z</time>
      </trkpt>
      <trkpt lat="45.74377" lon="6.51073">
        <ele>1681.2</ele>
        <time>2026-07-12T11:58:17Z</time>
      </trkpt>
      <trkpt lat="45.74377" lon="6.5108">
        <ele>1680.4</ele>
        <time>2026-07-12T11:58:18Z</time>
      </trkpt>
      <trkpt lat="45.74377" lon="6.51086">
        <ele>1679.8</ele>
        <time>2026-07-12T11:58:19Z</time>
      </trkpt>
      <trkpt lat="45.74377" lon="6.51093">
        <ele>1679.8</ele>
        <time>2026-07-12T11:58:20Z</time>
      </trkpt>
      <trkpt lat="45.74377" lon="6.511">
        <ele>1679.8</ele>
        <time>2026-07-12T11:58:21Z</time>
      </trkpt>
      <trkpt lat="45.74377" lon="6.51108">
        <ele>1679.8</ele>
        <time>2026-07-12T11:58:22Z</time>
      </trkpt>
      <trkpt lat="45.74379" lon="6.51115">
        <ele>1679.8</ele>
        <time>2026-07-12T11:58:23Z</time>
      </trkpt>
      <trkpt lat="45.7438" lon="6.51123">
        <ele>1679.8</ele>
        <time>2026-07-12T11:58:24Z</time>
      </trkpt>
      <trkpt lat="45.74382" lon="6.51132">
        <ele>1679.8</ele>
        <time>2026-07-12T11:58:25Z</time>
      </trkpt>
      <trkpt lat="45.74381" lon="6.51141">
        <ele>1679.8</ele>
        <time>2026-07-12T11:58:26Z</time>
      </trkpt>
      <trkpt lat="45.74378" lon="6.51148">
        <ele>1679.8</ele>
        <time>2026-07-12T11:58:27Z</time>
      </trkpt>
      <trkpt lat="45.74376" lon="6.51154">
        <ele>1678.8</ele>
        <time>2026-07-12T11:58:28Z</time>
      </trkpt>
      <trkpt lat="45.74375" lon="6.51159">
        <ele>1678.4</ele>
        <time>2026-07-12T11:58:29Z</time>
      </trkpt>
      <trkpt lat="45.74374" lon="6.51163">
        <ele>1678.4</ele>
        <time>2026-07-12T11:58:30Z</time>
      </trkpt>
      <trkpt lat="45.74373" lon="6.51168">
        <ele>1678.4</ele>
        <time>2026-07-12T11:58:31Z</time>
      </trkpt>
      <trkpt lat="45.74373" lon="6.51172">
        <ele>1678.4</ele>
        <time>2026-07-12T11:58:32Z</time>
      </trkpt>
      <trkpt lat="45.74373" lon="6.51176">
        <ele>1678.2</ele>
        <time>2026-07-12T11:58:33Z</time>
      </trkpt>
      <trkpt lat="45.74373" lon="6.5118">
        <ele>1678.2</ele>
        <time>2026-07-12T11:58:34Z</time>
      </trkpt>
      <trkpt lat="45.74373" lon="6.51184">
        <ele>1678.2</ele>
        <time>2026-07-12T11:58:35Z</time>
      </trkpt>
      <trkpt lat="45.74374" lon="6.51187">
        <ele>1678.2</ele>
        <time>2026-07-12T11:58:36Z</time>
      </trkpt>
      <trkpt lat="45.74374" lon="6.51191">
        <ele>1678.2</ele>
        <time>2026-07-12T11:58:37Z</time>
      </trkpt>
      <trkpt lat="45.74375" lon="6.51195">
        <ele>1678.2</ele>
        <time>2026-07-12T11:58:38Z</time>
      </trkpt>
      <trkpt lat="45.74377" lon="6.51199">
        <ele>1677.8</ele>
        <time>2026-07-12T11:58:39Z</time>
      </trkpt>
      <trkpt lat="45.74377" lon="6.51203">
        <ele>1677.8</ele>
        <time>2026-07-12T11:58:40Z</time>
      </trkpt>
      <trkpt lat="45.74381" lon="6.51224">
        <ele>1678.6</ele>
        <time>2026-07-12T11:59:01Z</time>
      </trkpt>
      <trkpt lat="45.74381" lon="6.51224">
        <ele>1679.6</ele>
        <time>2026-07-12T11:59:02Z</time>
      </trkpt>
      <trkpt lat="45.74381" lon="6.51224">
        <ele>1680.2</ele>
        <time>2026-07-12T11:59:03Z</time>
      </trkpt>
      <trkpt lat="45.74381" lon="6.51224">
        <ele>1680.8</ele>
        <time>2026-07-12T11:59:04Z</time>
      </trkpt>
      <trkpt lat="45.74381" lon="6.51224">
        <ele>1681.8</ele>
        <time>2026-07-12T11:59:05Z</time>
      </trkpt>
      <trkpt lat="45.74381" lon="6.51224">
        <ele>1681.8</ele>
        <time>2026-07-12T11:59:06Z</time>
      </trkpt>
      <trkpt lat="45.74381" lon="6.51224">
        <ele>1681.8</ele>
        <time>2026-07-12T11:59:07Z</time>
      </trkpt>
      <trkpt lat="45.74381" lon="6.51224">
        <ele>1681.8</ele>
        <time>2026-07-12T11:59:08Z</time>
      </trkpt>
      <trkpt lat="45.74382" lon="6.51225">
        <ele>1684.2</ele>
        <time>2026-07-12T11:59:09Z</time>
      </trkpt>
      <trkpt lat="45.74383" lon="6.51227">
        <ele>1684.4</ele>
        <time>2026-07-12T11:59:10Z</time>
      </trkpt>
      <trkpt lat="45.74384" lon="6.51228">
        <ele>1685</ele>
        <time>2026-07-12T11:59:11Z</time>
      </trkpt>
      <trkpt lat="45.74386" lon="6.51229">
        <ele>1685</ele>
        <time>2026-07-12T11:59:12Z</time>
      </trkpt>
      <trkpt lat="45.74387" lon="6.5123">
        <ele>1685.8</ele>
        <time>2026-07-12T11:59:13Z</time>
      </trkpt>
      <trkpt lat="45.74389" lon="6.51231">
        <ele>1685.8</ele>
        <time>2026-07-12T11:59:14Z</time>
      </trkpt>
      <trkpt lat="45.74391" lon="6.51231">
        <ele>1685.8</ele>
        <time>2026-07-12T11:59:15Z</time>
      </trkpt>
      <trkpt lat="45.74393" lon="6.51232">
        <ele>1685.8</ele>
        <time>2026-07-12T11:59:16Z</time>
      </trkpt>
      <trkpt lat="45.74395" lon="6.51233">
        <ele>1686.8</ele>
        <time>2026-07-12T11:59:17Z</time>
      </trkpt>
      <trkpt lat="45.74397" lon="6.51233">
        <ele>1687.8</ele>
        <time>2026-07-12T11:59:18Z</time>
      </trkpt>
      <trkpt lat="45.74399" lon="6.51234">
        <ele>1688.2</ele>
        <time>2026-07-12T11:59:19Z</time>
      </trkpt>
      <trkpt lat="45.74401" lon="6.51235">
        <ele>1689.6</ele>
        <time>2026-07-12T11:59:20Z</time>
      </trkpt>
      <trkpt lat="45.74403" lon="6.51235">
        <ele>1690.2</ele>
        <time>2026-07-12T11:59:21Z</time>
      </trkpt>
      <trkpt lat="45.74405" lon="6.51236">
        <ele>1690.6</ele>
        <time>2026-07-12T11:59:22Z</time>
      </trkpt>
      <trkpt lat="45.74406" lon="6.51236">
        <ele>1690.6</ele>
        <time>2026-07-12T11:59:23Z</time>
      </trkpt>
      <trkpt lat="45.74408" lon="6.51237">
        <ele>1690.6</ele>
        <time>2026-07-12T11:59:24Z</time>
      </trkpt>
      <trkpt lat="45.7441" lon="6.51239">
        <ele>1690.6</ele>
        <time>2026-07-12T11:59:25Z</time>
      </trkpt>
      <trkpt lat="45.74411" lon="6.5124">
        <ele>1691.6</ele>
        <time>2026-07-12T11:59:26Z</time>
      </trkpt>
      <trkpt lat="45.74413" lon="6.51242">
        <ele>1692.4</ele>
        <time>2026-07-12T11:59:27Z</time>
      </trkpt>
      <trkpt lat="45.74415" lon="6.51243">
        <ele>1693.4</ele>
        <time>2026-07-12T11:59:28Z</time>
      </trkpt>
      <trkpt lat="45.74416" lon="6.51245">
        <ele>1693.4</ele>
        <time>2026-07-12T11:59:29Z</time>
      </trkpt>
      <trkpt lat="45.74418" lon="6.51246">
        <ele>1693.4</ele>
        <time>2026-07-12T11:59:30Z</time>
      </trkpt>
      <trkpt lat="45.74419" lon="6.51247">
        <ele>1693.4</ele>
        <time>2026-07-12T11:59:31Z</time>
      </trkpt>
      <trkpt lat="45.74421" lon="6.51249">
        <ele>1695.6</ele>
        <time>2026-07-12T11:59:32Z</time>
      </trkpt>
      <trkpt lat="45.74422" lon="6.5125">
        <ele>1696.6</ele>
        <time>2026-07-12T11:59:33Z</time>
      </trkpt>
      <trkpt lat="45.74424" lon="6.51252">
        <ele>1696.6</ele>
        <time>2026-07-12T11:59:34Z</time>
      </trkpt>
      <trkpt lat="45.74425" lon="6.51253">
        <ele>1696.6</ele>
        <time>2026-07-12T11:59:35Z</time>
      </trkpt>
      <trkpt lat="45.74427" lon="6.51254">
        <ele>1696.6</ele>
        <time>2026-07-12T11:59:36Z</time>
      </trkpt>
      <trkpt lat="45.74428" lon="6.51256">
        <ele>1697.6</ele>
        <time>2026-07-12T11:59:37Z</time>
      </trkpt>
      <trkpt lat="45.7443" lon="6.51257">
        <ele>1698</ele>
        <time>2026-07-12T11:59:38Z</time>
      </trkpt>
      <trkpt lat="45.74432" lon="6.51258">
        <ele>1698.8</ele>
        <time>2026-07-12T11:59:39Z</time>
      </trkpt>
      <trkpt lat="45.74433" lon="6.5126">
        <ele>1698.8</ele>
        <time>2026-07-12T11:59:40Z</time>
      </trkpt>
      <trkpt lat="45.74435" lon="6.51261">
        <ele>1698.8</ele>
        <time>2026-07-12T11:59:41Z</time>
      </trkpt>
      <trkpt lat="45.74436" lon="6.51263">
        <ele>1698.8</ele>
        <time>2026-07-12T11:59:42Z</time>
      </trkpt>
      <trkpt lat="45.74438" lon="6.51264">
        <ele>1699.8</ele>
        <time>2026-07-12T11:59:43Z</time>
      </trkpt>
      <trkpt lat="45.74439" lon="6.51265">
        <ele>1700.8</ele>
        <time>2026-07-12T11:59:44Z</time>
      </trkpt>
      <trkpt lat="45.74441" lon="6.51266">
        <ele>1701.8</ele>
        <time>2026-07-12T11:59:45Z</time>
      </trkpt>
      <trkpt lat="45.74443" lon="6.51268">
        <ele>1702.2</ele>
        <time>2026-07-12T11:59:46Z</time>
      </trkpt>
      <trkpt lat="45.74444" lon="6.51269">
        <ele>1702.6</ele>
        <time>2026-07-12T11:59:47Z</time>
      </trkpt>
      <trkpt lat="45.74446" lon="6.51271">
        <ele>1702.8</ele>
        <time>2026-07-12T11:59:48Z</time>
      </trkpt>
      <trkpt lat="45.74448" lon="6.51272">
        <ele>1704.2</ele>
        <time>2026-07-12T11:59:49Z</time>
      </trkpt>
      <trkpt lat="45.7445" lon="6.51274">
        <ele>1704.2</ele>
        <time>2026-07-12T11:59:50Z</time>
      </trkpt>
      <trkpt lat="45.74452" lon="6.51275">
        <ele>1704.2</ele>
        <time>2026-07-12T11:59:51Z</time>
      </trkpt>
      <trkpt lat="45.74453" lon="6.51276">
        <ele>1704.2</ele>
        <time>2026-07-12T11:59:52Z</time>
      </trkpt>
      <trkpt lat="45.74455" lon="6.51278">
        <ele>1705.2</ele>
        <time>2026-07-12T11:59:53Z</time>
      </trkpt>
      <trkpt lat="45.74456" lon="6.51279">
        <ele>1705.2</ele>
        <time>2026-07-12T11:59:54Z</time>
      </trkpt>
      <trkpt lat="45.74458" lon="6.5128">
        <ele>1705.2</ele>
        <time>2026-07-12T11:59:55Z</time>
      </trkpt>
      <trkpt lat="45.7446" lon="6.51282">
        <ele>1705.2</ele>
        <time>2026-07-12T11:59:56Z</time>
      </trkpt>
      <trkpt lat="45.74461" lon="6.51283">
        <ele>1706.2</ele>
        <time>2026-07-12T11:59:57Z</time>
      </trkpt>
      <trkpt lat="45.74462" lon="6.51285">
        <ele>1707</ele>
        <time>2026-07-12T11:59:58Z</time>
      </trkpt>
      <trkpt lat="45.74464" lon="6.51286">
        <ele>1707</ele>
        <time>2026-07-12T11:59:59Z</time>
      </trkpt>
      <trkpt lat="45.74466" lon="6.51287">
        <ele>1707</ele>
        <time>2026-07-12T12:00:00Z</time>
      </trkpt>
      <trkpt lat="45.74467" lon="6.51288">
        <ele>1707</ele>
        <time>2026-07-12T12:00:01Z</time>
      </trkpt>
      <trkpt lat="45.74469" lon="6.51289">
        <ele>1708</ele>
        <time>2026-07-12T12:00:02Z</time>
      </trkpt>
      <trkpt lat="45.74471" lon="6.51289">
        <ele>1708.2</ele>
        <time>2026-07-12T12:00:03Z</time>
      </trkpt>
      <trkpt lat="45.74473" lon="6.5129">
        <ele>1708.8</ele>
        <time>2026-07-12T12:00:04Z</time>
      </trkpt>
      <trkpt lat="45.74474" lon="6.51291">
        <ele>1708.8</ele>
        <time>2026-07-12T12:00:05Z</time>
      </trkpt>
      <trkpt lat="45.74476" lon="6.51291">
        <ele>1708.8</ele>
        <time>2026-07-12T12:00:06Z</time>
      </trkpt>
      <trkpt lat="45.74477" lon="6.51292">
        <ele>1708.8</ele>
        <time>2026-07-12T12:00:07Z</time>
      </trkpt>
      <trkpt lat="45.74478" lon="6.51293">
        <ele>1708.8</ele>
        <time>2026-07-12T12:00:08Z</time>
      </trkpt>
      <trkpt lat="45.7448" lon="6.51294">
        <ele>1707.6</ele>
        <time>2026-07-12T12:00:09Z</time>
      </trkpt>
      <trkpt lat="45.74481" lon="6.51295">
        <ele>1707.6</ele>
        <time>2026-07-12T12:00:10Z</time>
      </trkpt>
      <trkpt lat="45.74483" lon="6.51294">
        <ele>1707.6</ele>
        <time>2026-07-12T12:00:11Z</time>
      </trkpt>
      <trkpt lat="45.74484" lon="6.51294">
        <ele>1707.6</ele>
        <time>2026-07-12T12:00:12Z</time>
      </trkpt>
      <trkpt lat="45.74485" lon="6.51293">
        <ele>1707.6</ele>
        <time>2026-07-12T12:00:13Z</time>
      </trkpt>
      <trkpt lat="45.74486" lon="6.51292">
        <ele>1707.6</ele>
        <time>2026-07-12T12:00:14Z</time>
      </trkpt>
      <trkpt lat="45.74487" lon="6.51291">
        <ele>1707.6</ele>
        <time>2026-07-12T12:00:15Z</time>
      </trkpt>
      <trkpt lat="45.74488" lon="6.51292">
        <ele>1706.2</ele>
        <time>2026-07-12T12:00:16Z</time>
      </trkpt>
      <trkpt lat="45.74488" lon="6.51294">
        <ele>1706.2</ele>
        <time>2026-07-12T12:00:17Z</time>
      </trkpt>
      <trkpt lat="45.74488" lon="6.51295">
        <ele>1706.2</ele>
        <time>2026-07-12T12:00:18Z</time>
      </trkpt>
      <trkpt lat="45.74487" lon="6.51295">
        <ele>1706.2</ele>
        <time>2026-07-12T12:00:19Z</time>
      </trkpt>
      <trkpt lat="45.74486" lon="6.51296">
        <ele>1705.8</ele>
        <time>2026-07-12T12:00:20Z</time>
      </trkpt>
      <trkpt lat="45.74485" lon="6.51295">
        <ele>1705.8</ele>
        <time>2026-07-12T12:00:21Z</time>
      </trkpt>
      <trkpt lat="45.74483" lon="6.51295">
        <ele>1705.8</ele>
        <time>2026-07-12T12:00:22Z</time>
      </trkpt>
      <trkpt lat="45.74482" lon="6.51294">
        <ele>1705.8</ele>
        <time>2026-07-12T12:00:23Z</time>
      </trkpt>
      <trkpt lat="45.74481" lon="6.51294">
        <ele>1705.8</ele>
        <time>2026-07-12T12:00:24Z</time>
      </trkpt>
      <trkpt lat="45.7448" lon="6.51295">
        <ele>1705.6</ele>
        <time>2026-07-12T12:00:25Z</time>
      </trkpt>
      <trkpt lat="45.74479" lon="6.51296">
        <ele>1705.4</ele>
        <time>2026-07-12T12:00:26Z</time>
      </trkpt>
      <trkpt lat="45.74479" lon="6.51298">
        <ele>1705</ele>
        <time>2026-07-12T12:00:27Z</time>
      </trkpt>
      <trkpt lat="45.74479" lon="6.513">
        <ele>1705</ele>
        <time>2026-07-12T12:00:28Z</time>
      </trkpt>
      <trkpt lat="45.74479" lon="6.51302">
        <ele>1705</ele>
        <time>2026-07-12T12:00:29Z</time>
      </trkpt>
      <trkpt lat="45.74476" lon="6.51317">
        <ele>1706.2</ele>
        <time>2026-07-12T12:00:56Z</time>
      </trkpt>
      <trkpt lat="45.74476" lon="6.51317">
        <ele>1706.6</ele>
        <time>2026-07-12T12:00:57Z</time>
      </trkpt>
      <trkpt lat="45.74476" lon="6.51317">
        <ele>1706.6</ele>
        <time>2026-07-12T12:00:58Z</time>
      </trkpt>
      <trkpt lat="45.74476" lon="6.51317">
        <ele>1706.6</ele>
        <time>2026-07-12T12:00:59Z</time>
      </trkpt>
      <trkpt lat="45.74476" lon="6.51317">
        <ele>1706.4</ele>
        <time>2026-07-12T12:01:00Z</time>
      </trkpt>
      <trkpt lat="45.74476" lon="6.51317">
        <ele>1705.8</ele>
        <time>2026-07-12T12:01:01Z</time>
      </trkpt>
      <trkpt lat="45.74475" lon="6.51316">
        <ele>1705.8</ele>
        <time>2026-07-12T12:01:02Z</time>
      </trkpt>
      <trkpt lat="45.74474" lon="6.51315">
        <ele>1705.8</ele>
        <time>2026-07-12T12:01:03Z</time>
      </trkpt>
      <trkpt lat="45.74476" lon="6.51314">
        <ele>1707.8</ele>
        <time>2026-07-12T12:01:04Z</time>
      </trkpt>
      <trkpt lat="45.74477" lon="6.51313">
        <ele>1708</ele>
        <time>2026-07-12T12:01:05Z</time>
      </trkpt>
      <trkpt lat="45.74479" lon="6.51311">
        <ele>1709</ele>
        <time>2026-07-12T12:01:06Z</time>
      </trkpt>
      <trkpt lat="45.7448" lon="6.51309">
        <ele>1709</ele>
        <time>2026-07-12T12:01:07Z</time>
      </trkpt>
      <trkpt lat="45.7448" lon="6.51307">
        <ele>1709</ele>
        <time>2026-07-12T12:01:08Z</time>
      </trkpt>
      <trkpt lat="45.7448" lon="6.51305">
        <ele>1709</ele>
        <time>2026-07-12T12:01:09Z</time>
      </trkpt>
      <trkpt lat="45.7448" lon="6.51302">
        <ele>1710.4</ele>
        <time>2026-07-12T12:01:10Z</time>
      </trkpt>
      <trkpt lat="45.7448" lon="6.513">
        <ele>1711.6</ele>
        <time>2026-07-12T12:01:11Z</time>
      </trkpt>
      <trkpt lat="45.74481" lon="6.51298">
        <ele>1711.6</ele>
        <time>2026-07-12T12:01:12Z</time>
      </trkpt>
      <trkpt lat="45.74482" lon="6.51296">
        <ele>1711.6</ele>
        <time>2026-07-12T12:01:13Z</time>
      </trkpt>
      <trkpt lat="45.74483" lon="6.51296">
        <ele>1711.6</ele>
        <time>2026-07-12T12:01:14Z</time>
      </trkpt>
      <trkpt lat="45.74485" lon="6.51296">
        <ele>1712.8</ele>
        <time>2026-07-12T12:01:15Z</time>
      </trkpt>
      <trkpt lat="45.74487" lon="6.51296">
        <ele>1713.8</ele>
        <time>2026-07-12T12:01:16Z</time>
      </trkpt>
      <trkpt lat="45.74489" lon="6.51296">
        <ele>1713.8</ele>
        <time>2026-07-12T12:01:17Z</time>
      </trkpt>
      <trkpt lat="45.74491" lon="6.51297">
        <ele>1713.8</ele>
        <time>2026-07-12T12:01:18Z</time>
      </trkpt>
      <trkpt lat="45.74493" lon="6.51297">
        <ele>1713.8</ele>
        <time>2026-07-12T12:01:19Z</time>
      </trkpt>
      <trkpt lat="45.74495" lon="6.51298">
        <ele>1714.4</ele>
        <time>2026-07-12T12:01:20Z</time>
      </trkpt>
      <trkpt lat="45.74497" lon="6.51298">
        <ele>1715.4</ele>
        <time>2026-07-12T12:01:21Z</time>
      </trkpt>
      <trkpt lat="45.74498" lon="6.51299">
        <ele>1715.6</ele>
        <time>2026-07-12T12:01:22Z</time>
      </trkpt>
      <trkpt lat="45.745" lon="6.513">
        <ele>1716.4</ele>
        <time>2026-07-12T12:01:23Z</time>
      </trkpt>
      <trkpt lat="45.74502" lon="6.513">
        <ele>1717.4</ele>
        <time>2026-07-12T12:01:24Z</time>
      </trkpt>
      <trkpt lat="45.74504" lon="6.51301">
        <ele>1717.4</ele>
        <time>2026-07-12T12:01:25Z</time>
      </trkpt>
      <trkpt lat="45.74506" lon="6.51302">
        <ele>1717.4</ele>
        <time>2026-07-12T12:01:26Z</time>
      </trkpt>
      <trkpt lat="45.74508" lon="6.51303">
        <ele>1717.4</ele>
        <time>2026-07-12T12:01:27Z</time>
      </trkpt>
      <trkpt lat="45.74509" lon="6.51304">
        <ele>1717.4</ele>
        <time>2026-07-12T12:01:28Z</time>
      </trkpt>
      <trkpt lat="45.74511" lon="6.51305">
        <ele>1718.4</ele>
        <time>2026-07-12T12:01:29Z</time>
      </trkpt>
      <trkpt lat="45.74512" lon="6.51307">
        <ele>1719.4</ele>
        <time>2026-07-12T12:01:30Z</time>
      </trkpt>
      <trkpt lat="45.74514" lon="6.51309">
        <ele>1720.2</ele>
        <time>2026-07-12T12:01:31Z</time>
      </trkpt>
      <trkpt lat="45.74515" lon="6.5131">
        <ele>1720.6</ele>
        <time>2026-07-12T12:01:32Z</time>
      </trkpt>
      <trkpt lat="45.74517" lon="6.51311">
        <ele>1720.8</ele>
        <time>2026-07-12T12:01:33Z</time>
      </trkpt>
      <trkpt lat="45.74519" lon="6.51312">
        <ele>1721.6</ele>
        <time>2026-07-12T12:01:34Z</time>
      </trkpt>
      <trkpt lat="45.74521" lon="6.51313">
        <ele>1722.6</ele>
        <time>2026-07-12T12:01:35Z</time>
      </trkpt>
      <trkpt lat="45.74522" lon="6.51314">
        <ele>1723.2</ele>
        <time>2026-07-12T12:01:36Z</time>
      </trkpt>
      <trkpt lat="45.74524" lon="6.51315">
        <ele>1723.2</ele>
        <time>2026-07-12T12:01:37Z</time>
      </trkpt>
      <trkpt lat="45.74525" lon="6.51317">
        <ele>1723.2</ele>
        <time>2026-07-12T12:01:38Z</time>
      </trkpt>
      <trkpt lat="45.74527" lon="6.51318">
        <ele>1722.8</ele>
        <time>2026-07-12T12:01:39Z</time>
      </trkpt>
      <trkpt lat="45.74529" lon="6.51319">
        <ele>1724.8</ele>
        <time>2026-07-12T12:01:40Z</time>
      </trkpt>
      <trkpt lat="45.74531" lon="6.5132">
        <ele>1725.2</ele>
        <time>2026-07-12T12:01:41Z</time>
      </trkpt>
      <trkpt lat="45.74532" lon="6.51321">
        <ele>1725.4</ele>
        <time>2026-07-12T12:01:42Z</time>
      </trkpt>
      <trkpt lat="45.74534" lon="6.51322">
        <ele>1725.6</ele>
        <time>2026-07-12T12:01:43Z</time>
      </trkpt>
      <trkpt lat="45.74536" lon="6.51322">
        <ele>1725.6</ele>
        <time>2026-07-12T12:01:44Z</time>
      </trkpt>
      <trkpt lat="45.74538" lon="6.51323">
        <ele>1726</ele>
        <time>2026-07-12T12:01:45Z</time>
      </trkpt>
      <trkpt lat="45.74539" lon="6.51324">
        <ele>1726</ele>
        <time>2026-07-12T12:01:46Z</time>
      </trkpt>
      <trkpt lat="45.74541" lon="6.51325">
        <ele>1726</ele>
        <time>2026-07-12T12:01:47Z</time>
      </trkpt>
      <trkpt lat="45.74543" lon="6.51325">
        <ele>1726</ele>
        <time>2026-07-12T12:01:48Z</time>
      </trkpt>
      <trkpt lat="45.74545" lon="6.51326">
        <ele>1729.2</ele>
        <time>2026-07-12T12:01:49Z</time>
      </trkpt>
      <trkpt lat="45.74547" lon="6.51327">
        <ele>1729.2</ele>
        <time>2026-07-12T12:01:50Z</time>
      </trkpt>
      <trkpt lat="45.74548" lon="6.51328">
        <ele>1729.2</ele>
        <time>2026-07-12T12:01:51Z</time>
      </trkpt>
      <trkpt lat="45.7455" lon="6.51329">
        <ele>1729.2</ele>
        <time>2026-07-12T12:01:52Z</time>
      </trkpt>
      <trkpt lat="45.74552" lon="6.5133">
        <ele>1730</ele>
        <time>2026-07-12T12:01:53Z</time>
      </trkpt>
      <trkpt lat="45.74553" lon="6.51332">
        <ele>1730.8</ele>
        <time>2026-07-12T12:01:54Z</time>
      </trkpt>
      <trkpt lat="45.74555" lon="6.51334">
        <ele>1731.8</ele>
        <time>2026-07-12T12:01:55Z</time>
      </trkpt>
      <trkpt lat="45.74556" lon="6.51335">
        <ele>1731.8</ele>
        <time>2026-07-12T12:01:56Z</time>
      </trkpt>
      <trkpt lat="45.74558" lon="6.51337">
        <ele>1732.8</ele>
        <time>2026-07-12T12:01:57Z</time>
      </trkpt>
      <trkpt lat="45.74559" lon="6.51338">
        <ele>1733.6</ele>
        <time>2026-07-12T12:01:58Z</time>
      </trkpt>
      <trkpt lat="45.7456" lon="6.5134">
        <ele>1733.6</ele>
        <time>2026-07-12T12:01:59Z</time>
      </trkpt>
      <trkpt lat="45.74562" lon="6.51342">
        <ele>1733.6</ele>
        <time>2026-07-12T12:02:00Z</time>
      </trkpt>
      <trkpt lat="45.74563" lon="6.51343">
        <ele>1733.6</ele>
        <time>2026-07-12T12:02:01Z</time>
      </trkpt>
      <trkpt lat="45.74565" lon="6.51345">
        <ele>1733.6</ele>
        <time>2026-07-12T12:02:02Z</time>
      </trkpt>
      <trkpt lat="45.74566" lon="6.51347">
        <ele>1734.4</ele>
        <time>2026-07-12T12:02:03Z</time>
      </trkpt>
      <trkpt lat="45.74568" lon="6.51349">
        <ele>1735.4</ele>
        <time>2026-07-12T12:02:04Z</time>
      </trkpt>
      <trkpt lat="45.74569" lon="6.5135">
        <ele>1735.8</ele>
        <time>2026-07-12T12:02:05Z</time>
      </trkpt>
      <trkpt lat="45.74571" lon="6.51352">
        <ele>1736.8</ele>
        <time>2026-07-12T12:02:06Z</time>
      </trkpt>
      <trkpt lat="45.74572" lon="6.51354">
        <ele>1737.2</ele>
        <time>2026-07-12T12:02:07Z</time>
      </trkpt>
      <trkpt lat="45.74574" lon="6.51355">
        <ele>1737.2</ele>
        <time>2026-07-12T12:02:08Z</time>
      </trkpt>
      <trkpt lat="45.74575" lon="6.51356">
        <ele>1737.2</ele>
        <time>2026-07-12T12:02:09Z</time>
      </trkpt>
      <trkpt lat="45.74576" lon="6.51358">
        <ele>1737.2</ele>
        <time>2026-07-12T12:02:10Z</time>
      </trkpt>
      <trkpt lat="45.74578" lon="6.51359">
        <ele>1738.4</ele>
        <time>2026-07-12T12:02:11Z</time>
      </trkpt>
      <trkpt lat="45.74579" lon="6.5136">
        <ele>1738.6</ele>
        <time>2026-07-12T12:02:12Z</time>
      </trkpt>
      <trkpt lat="45.7458" lon="6.51362">
        <ele>1739.4</ele>
        <time>2026-07-12T12:02:13Z</time>
      </trkpt>
      <trkpt lat="45.74581" lon="6.51363">
        <ele>1740</ele>
        <time>2026-07-12T12:02:14Z</time>
      </trkpt>
      <trkpt lat="45.74582" lon="6.51365">
        <ele>1741</ele>
        <time>2026-07-12T12:02:15Z</time>
      </trkpt>
      <trkpt lat="45.74583" lon="6.51367">
        <ele>1741</ele>
        <time>2026-07-12T12:02:16Z</time>
      </trkpt>
      <trkpt lat="45.74584" lon="6.51369">
        <ele>1741.4</ele>
        <time>2026-07-12T12:02:17Z</time>
      </trkpt>
      <trkpt lat="45.74586" lon="6.51371">
        <ele>1742</ele>
        <time>2026-07-12T12:02:18Z</time>
      </trkpt>
      <trkpt lat="45.74587" lon="6.51372">
        <ele>1742.4</ele>
        <time>2026-07-12T12:02:19Z</time>
      </trkpt>
      <trkpt lat="45.74589" lon="6.51374">
        <ele>1742.8</ele>
        <time>2026-07-12T12:02:20Z</time>
      </trkpt>
      <trkpt lat="45.7459" lon="6.51375">
        <ele>1742.8</ele>
        <time>2026-07-12T12:02:21Z</time>
      </trkpt>
      <trkpt lat="45.74592" lon="6.51376">
        <ele>1742.8</ele>
        <time>2026-07-12T12:02:22Z</time>
      </trkpt>
      <trkpt lat="45.74594" lon="6.51378">
        <ele>1742.8</ele>
        <time>2026-07-12T12:02:23Z</time>
      </trkpt>
      <trkpt lat="45.74595" lon="6.51379">
        <ele>1743.8</ele>
        <time>2026-07-12T12:02:24Z</time>
      </trkpt>
      <trkpt lat="45.74597" lon="6.5138">
        <ele>1744.6</ele>
        <time>2026-07-12T12:02:25Z</time>
      </trkpt>
      <trkpt lat="45.74598" lon="6.51381">
        <ele>1744.6</ele>
        <time>2026-07-12T12:02:26Z</time>
      </trkpt>
      <trkpt lat="45.746" lon="6.51383">
        <ele>1744.6</ele>
        <time>2026-07-12T12:02:27Z</time>
      </trkpt>
      <trkpt lat="45.74602" lon="6.51384">
        <ele>1744.6</ele>
        <time>2026-07-12T12:02:28Z</time>
      </trkpt>
      <trkpt lat="45.74603" lon="6.51385">
        <ele>1745</ele>
        <time>2026-07-12T12:02:29Z</time>
      </trkpt>
      <trkpt lat="45.74605" lon="6.51386">
        <ele>1745.2</ele>
        <time>2026-07-12T12:02:30Z</time>
      </trkpt>
      <trkpt lat="45.74606" lon="6.51387">
        <ele>1745.4</ele>
        <time>2026-07-12T12:02:31Z</time>
      </trkpt>
      <trkpt lat="45.74608" lon="6.51388">
        <ele>1745.4</ele>
        <time>2026-07-12T12:02:32Z</time>
      </trkpt>
      <trkpt lat="45.7461" lon="6.51389">
        <ele>1745.4</ele>
        <time>2026-07-12T12:02:33Z</time>
      </trkpt>
      <trkpt lat="45.74622" lon="6.514">
        <ele>1746.4</ele>
        <time>2026-07-12T12:03:09Z</time>
      </trkpt>
      <trkpt lat="45.74622" lon="6.514">
        <ele>1746.6</ele>
        <time>2026-07-12T12:03:10Z</time>
      </trkpt>
      <trkpt lat="45.74622" lon="6.514">
        <ele>1746.8</ele>
        <time>2026-07-12T12:03:11Z</time>
      </trkpt>
      <trkpt lat="45.74622" lon="6.514">
        <ele>1747.8</ele>
        <time>2026-07-12T12:03:12Z</time>
      </trkpt>
      <trkpt lat="45.74622" lon="6.514">
        <ele>1747.8</ele>
        <time>2026-07-12T12:03:13Z</time>
      </trkpt>
      <trkpt lat="45.74622" lon="6.514">
        <ele>1747.8</ele>
        <time>2026-07-12T12:03:14Z</time>
      </trkpt>
      <trkpt lat="45.74622" lon="6.514">
        <ele>1747.8</ele>
        <time>2026-07-12T12:03:15Z</time>
      </trkpt>
      <trkpt lat="45.74622" lon="6.514">
        <ele>1747.8</ele>
        <time>2026-07-12T12:03:16Z</time>
      </trkpt>
      <trkpt lat="45.74622" lon="6.514">
        <ele>1747.8</ele>
        <time>2026-07-12T12:03:17Z</time>
      </trkpt>
      <trkpt lat="45.74624" lon="6.514">
        <ele>1748.8</ele>
        <time>2026-07-12T12:03:18Z</time>
      </trkpt>
      <trkpt lat="45.74626" lon="6.514">
        <ele>1749.8</ele>
        <time>2026-07-12T12:03:19Z</time>
      </trkpt>
      <trkpt lat="45.74628" lon="6.51401">
        <ele>1750.8</ele>
        <time>2026-07-12T12:03:20Z</time>
      </trkpt>
      <trkpt lat="45.7463" lon="6.51402">
        <ele>1751</ele>
        <time>2026-07-12T12:03:21Z</time>
      </trkpt>
      <trkpt lat="45.74632" lon="6.51402">
        <ele>1751.4</ele>
        <time>2026-07-12T12:03:22Z</time>
      </trkpt>
      <trkpt lat="45.74634" lon="6.51403">
        <ele>1751.6</ele>
        <time>2026-07-12T12:03:23Z</time>
      </trkpt>
      <trkpt lat="45.74636" lon="6.51404">
        <ele>1751.6</ele>
        <time>2026-07-12T12:03:24Z</time>
      </trkpt>
      <trkpt lat="45.74638" lon="6.51405">
        <ele>1751.6</ele>
        <time>2026-07-12T12:03:25Z</time>
      </trkpt>
      <trkpt lat="45.7464" lon="6.51407">
        <ele>1751.6</ele>
        <time>2026-07-12T12:03:26Z</time>
      </trkpt>
      <trkpt lat="45.74641" lon="6.51408">
        <ele>1752.6</ele>
        <time>2026-07-12T12:03:27Z</time>
      </trkpt>
      <trkpt lat="45.74643" lon="6.5141">
        <ele>1753.6</ele>
        <time>2026-07-12T12:03:28Z</time>
      </trkpt>
      <trkpt lat="45.74645" lon="6.51412">
        <ele>1754.6</ele>
        <time>2026-07-12T12:03:29Z</time>
      </trkpt>
      <trkpt lat="45.74646" lon="6.51414">
        <ele>1755</ele>
        <time>2026-07-12T12:03:30Z</time>
      </trkpt>
      <trkpt lat="45.74648" lon="6.51416">
        <ele>1755.8</ele>
        <time>2026-07-12T12:03:31Z</time>
      </trkpt>
      <trkpt lat="45.7465" lon="6.51417">
        <ele>1755.8</ele>
        <time>2026-07-12T12:03:32Z</time>
      </trkpt>
      <trkpt lat="45.74651" lon="6.5142">
        <ele>1755.8</ele>
        <time>2026-07-12T12:03:33Z</time>
      </trkpt>
      <trkpt lat="45.74653" lon="6.51422">
        <ele>1755.8</ele>
        <time>2026-07-12T12:03:34Z</time>
      </trkpt>
      <trkpt lat="45.74654" lon="6.51424">
        <ele>1756</ele>
        <time>2026-07-12T12:03:35Z</time>
      </trkpt>
      <trkpt lat="45.74655" lon="6.51426">
        <ele>1756.2</ele>
        <time>2026-07-12T12:03:36Z</time>
      </trkpt>
      <trkpt lat="45.74657" lon="6.51428">
        <ele>1757.2</ele>
        <time>2026-07-12T12:03:37Z</time>
      </trkpt>
      <trkpt lat="45.74658" lon="6.51431">
        <ele>1757.2</ele>
        <time>2026-07-12T12:03:38Z</time>
      </trkpt>
      <trkpt lat="45.74659" lon="6.51433">
        <ele>1757.2</ele>
        <time>2026-07-12T12:03:39Z</time>
      </trkpt>
      <trkpt lat="45.7466" lon="6.51435">
        <ele>1757.2</ele>
        <time>2026-07-12T12:03:40Z</time>
      </trkpt>
      <trkpt lat="45.74661" lon="6.51438">
        <ele>1757.2</ele>
        <time>2026-07-12T12:03:41Z</time>
      </trkpt>
      <trkpt lat="45.74662" lon="6.5144">
        <ele>1759.2</ele>
        <time>2026-07-12T12:03:42Z</time>
      </trkpt>
      <trkpt lat="45.74663" lon="6.51443">
        <ele>1759.2</ele>
        <time>2026-07-12T12:03:43Z</time>
      </trkpt>
      <trkpt lat="45.74664" lon="6.51446">
        <ele>1759.2</ele>
        <time>2026-07-12T12:03:44Z</time>
      </trkpt>
      <trkpt lat="45.74665" lon="6.51449">
        <ele>1758.8</ele>
        <time>2026-07-12T12:03:45Z</time>
      </trkpt>
      <trkpt lat="45.74665" lon="6.51452">
        <ele>1758.8</ele>
        <time>2026-07-12T12:03:46Z</time>
      </trkpt>
      <trkpt lat="45.74666" lon="6.51454">
        <ele>1758.8</ele>
        <time>2026-07-12T12:03:47Z</time>
      </trkpt>
      <trkpt lat="45.74666" lon="6.51457">
        <ele>1761.8</ele>
        <time>2026-07-12T12:03:48Z</time>
      </trkpt>
      <trkpt lat="45.74666" lon="6.5146">
        <ele>1761.8</ele>
        <time>2026-07-12T12:03:49Z</time>
      </trkpt>
      <trkpt lat="45.74666" lon="6.51463">
        <ele>1761.8</ele>
        <time>2026-07-12T12:03:50Z</time>
      </trkpt>
      <trkpt lat="45.74666" lon="6.51466">
        <ele>1761.8</ele>
        <time>2026-07-12T12:03:51Z</time>
      </trkpt>
      <trkpt lat="45.74667" lon="6.51468">
        <ele>1762.8</ele>
        <time>2026-07-12T12:03:52Z</time>
      </trkpt>
      <trkpt lat="45.74667" lon="6.51471">
        <ele>1762.8</ele>
        <time>2026-07-12T12:03:53Z</time>
      </trkpt>
      <trkpt lat="45.74667" lon="6.51473">
        <ele>1762.8</ele>
        <time>2026-07-12T12:03:54Z</time>
      </trkpt>
      <trkpt lat="45.74668" lon="6.51476">
        <ele>1762.8</ele>
        <time>2026-07-12T12:03:55Z</time>
      </trkpt>
      <trkpt lat="45.74668" lon="6.51479">
        <ele>1763.8</ele>
        <time>2026-07-12T12:03:56Z</time>
      </trkpt>
      <trkpt lat="45.74669" lon="6.51481">
        <ele>1763.8</ele>
        <time>2026-07-12T12:03:57Z</time>
      </trkpt>
      <trkpt lat="45.7467" lon="6.51484">
        <ele>1764.2</ele>
        <time>2026-07-12T12:03:58Z</time>
      </trkpt>
      <trkpt lat="45.74671" lon="6.51486">
        <ele>1765</ele>
        <time>2026-07-12T12:03:59Z</time>
      </trkpt>
      <trkpt lat="45.74671" lon="6.51489">
        <ele>1766</ele>
        <time>2026-07-12T12:04:00Z</time>
      </trkpt>
      <trkpt lat="45.74672" lon="6.51491">
        <ele>1766.2</ele>
        <time>2026-07-12T12:04:01Z</time>
      </trkpt>
      <trkpt lat="45.74673" lon="6.51493">
        <ele>1766.2</ele>
        <time>2026-07-12T12:04:02Z</time>
      </trkpt>
      <trkpt lat="45.74674" lon="6.51496">
        <ele>1766.2</ele>
        <time>2026-07-12T12:04:03Z</time>
      </trkpt>
      <trkpt lat="45.74675" lon="6.51498">
        <ele>1765.6</ele>
        <time>2026-07-12T12:04:04Z</time>
      </trkpt>
      <trkpt lat="45.74675" lon="6.51501">
        <ele>1765.6</ele>
        <time>2026-07-12T12:04:05Z</time>
      </trkpt>
      <trkpt lat="45.74676" lon="6.51503">
        <ele>1765.6</ele>
        <time>2026-07-12T12:04:06Z</time>
      </trkpt>
      <trkpt lat="45.74677" lon="6.51505">
        <ele>1766.2</ele>
        <time>2026-07-12T12:04:07Z</time>
      </trkpt>
      <trkpt lat="45.74679" lon="6.51507">
        <ele>1767.2</ele>
        <time>2026-07-12T12:04:08Z</time>
      </trkpt>
      <trkpt lat="45.7468" lon="6.51509">
        <ele>1767.2</ele>
        <time>2026-07-12T12:04:09Z</time>
      </trkpt>
      <trkpt lat="45.74681" lon="6.51511">
        <ele>1767.2</ele>
        <time>2026-07-12T12:04:10Z</time>
      </trkpt>
      <trkpt lat="45.74683" lon="6.51513">
        <ele>1767.2</ele>
        <time>2026-07-12T12:04:11Z</time>
      </trkpt>
      <trkpt lat="45.74684" lon="6.51516">
        <ele>1767.8</ele>
        <time>2026-07-12T12:04:12Z</time>
      </trkpt>
      <trkpt lat="45.74685" lon="6.51518">
        <ele>1768.8</ele>
        <time>2026-07-12T12:04:13Z</time>
      </trkpt>
      <trkpt lat="45.74687" lon="6.5152">
        <ele>1768.8</ele>
        <time>2026-07-12T12:04:14Z</time>
      </trkpt>
      <trkpt lat="45.74688" lon="6.51522">
        <ele>1768.8</ele>
        <time>2026-07-12T12:04:15Z</time>
      </trkpt>
      <trkpt lat="45.74689" lon="6.51524">
        <ele>1768.8</ele>
        <time>2026-07-12T12:04:16Z</time>
      </trkpt>
      <trkpt lat="45.7469" lon="6.51527">
        <ele>1769.8</ele>
        <time>2026-07-12T12:04:17Z</time>
      </trkpt>
      <trkpt lat="45.74691" lon="6.51529">
        <ele>1770.2</ele>
        <time>2026-07-12T12:04:18Z</time>
      </trkpt>
      <trkpt lat="45.74693" lon="6.51531">
        <ele>1770.2</ele>
        <time>2026-07-12T12:04:19Z</time>
      </trkpt>
      <trkpt lat="45.74694" lon="6.51534">
        <ele>1770.2</ele>
        <time>2026-07-12T12:04:20Z</time>
      </trkpt>
      <trkpt lat="45.74695" lon="6.51536">
        <ele>1769.6</ele>
        <time>2026-07-12T12:04:21Z</time>
      </trkpt>
      <trkpt lat="45.74696" lon="6.51539">
        <ele>1769.6</ele>
        <time>2026-07-12T12:04:22Z</time>
      </trkpt>
      <trkpt lat="45.74697" lon="6.51541">
        <ele>1769.6</ele>
        <time>2026-07-12T12:04:23Z</time>
      </trkpt>
      <trkpt lat="45.74698" lon="6.51543">
        <ele>1770.6</ele>
        <time>2026-07-12T12:04:24Z</time>
      </trkpt>
      <trkpt lat="45.74699" lon="6.51545">
        <ele>1770.6</ele>
        <time>2026-07-12T12:04:25Z</time>
      </trkpt>
      <trkpt lat="45.747" lon="6.51547">
        <ele>1770.6</ele>
        <time>2026-07-12T12:04:26Z</time>
      </trkpt>
      <trkpt lat="45.74701" lon="6.5155">
        <ele>1770.6</ele>
        <time>2026-07-12T12:04:27Z</time>
      </trkpt>
      <trkpt lat="45.74702" lon="6.51552">
        <ele>1771</ele>
        <time>2026-07-12T12:04:28Z</time>
      </trkpt>
      <trkpt lat="45.74703" lon="6.51555">
        <ele>1771.8</ele>
        <time>2026-07-12T12:04:29Z</time>
      </trkpt>
      <trkpt lat="45.74703" lon="6.51558">
        <ele>1772.8</ele>
        <time>2026-07-12T12:04:30Z</time>
      </trkpt>
      <trkpt lat="45.74704" lon="6.51561">
        <ele>1772.8</ele>
        <time>2026-07-12T12:04:31Z</time>
      </trkpt>
      <trkpt lat="45.74704" lon="6.51564">
        <ele>1772.8</ele>
        <time>2026-07-12T12:04:32Z</time>
      </trkpt>
      <trkpt lat="45.74705" lon="6.51567">
        <ele>1770.6</ele>
        <time>2026-07-12T12:04:33Z</time>
      </trkpt>
      <trkpt lat="45.74706" lon="6.51569">
        <ele>1770.6</ele>
        <time>2026-07-12T12:04:34Z</time>
      </trkpt>
      <trkpt lat="45.74707" lon="6.51572">
        <ele>1770.6</ele>
        <time>2026-07-12T12:04:35Z</time>
      </trkpt>
      <trkpt lat="45.74708" lon="6.51575">
        <ele>1771.6</ele>
        <time>2026-07-12T12:04:36Z</time>
      </trkpt>
      <trkpt lat="45.74709" lon="6.51577">
        <ele>1772.4</ele>
        <time>2026-07-12T12:04:37Z</time>
      </trkpt>
      <trkpt lat="45.7471" lon="6.5158">
        <ele>1772.4</ele>
        <time>2026-07-12T12:04:38Z</time>
      </trkpt>
      <trkpt lat="45.74711" lon="6.51583">
        <ele>1772.4</ele>
        <time>2026-07-12T12:04:39Z</time>
      </trkpt>
      <trkpt lat="45.74711" lon="6.51586">
        <ele>1772.4</ele>
        <time>2026-07-12T12:04:40Z</time>
      </trkpt>
      <trkpt lat="45.74712" lon="6.51589">
        <ele>1772.6</ele>
        <time>2026-07-12T12:04:41Z</time>
      </trkpt>
      <trkpt lat="45.74713" lon="6.51592">
        <ele>1773.6</ele>
        <time>2026-07-12T12:04:42Z</time>
      </trkpt>
      <trkpt lat="45.74714" lon="6.51595">
        <ele>1773.6</ele>
        <time>2026-07-12T12:04:43Z</time>
      </trkpt>
      <trkpt lat="45.74715" lon="6.51599">
        <ele>1773.6</ele>
        <time>2026-07-12T12:04:44Z</time>
      </trkpt>
      <trkpt lat="45.74716" lon="6.51603">
        <ele>1773.6</ele>
        <time>2026-07-12T12:04:45Z</time>
      </trkpt>
      <trkpt lat="45.74717" lon="6.51606">
        <ele>1774</ele>
        <time>2026-07-12T12:04:46Z</time>
      </trkpt>
      <trkpt lat="45.74718" lon="6.5161">
        <ele>1772.6</ele>
        <time>2026-07-12T12:04:47Z</time>
      </trkpt>
      <trkpt lat="45.74719" lon="6.51614">
        <ele>1772.6</ele>
        <time>2026-07-12T12:04:48Z</time>
      </trkpt>
      <trkpt lat="45.7472" lon="6.51618">
        <ele>1772.6</ele>
        <time>2026-07-12T12:04:49Z</time>
      </trkpt>
      <trkpt lat="45.74722" lon="6.51622">
        <ele>1774.2</ele>
        <time>2026-07-12T12:04:50Z</time>
      </trkpt>
      <trkpt lat="45.74723" lon="6.51625">
        <ele>1774.2</ele>
        <time>2026-07-12T12:04:51Z</time>
      </trkpt>
      <trkpt lat="45.74723" lon="6.51628">
        <ele>1774.2</ele>
        <time>2026-07-12T12:04:52Z</time>
      </trkpt>
      <trkpt lat="45.74725" lon="6.51632">
        <ele>1774.2</ele>
        <time>2026-07-12T12:04:53Z</time>
      </trkpt>
      <trkpt lat="45.74726" lon="6.51637">
        <ele>1774.6</ele>
        <time>2026-07-12T12:04:54Z</time>
      </trkpt>
      <trkpt lat="45.74727" lon="6.51641">
        <ele>1774.6</ele>
        <time>2026-07-12T12:04:55Z</time>
      </trkpt>
      <trkpt lat="45.74728" lon="6.51646">
        <ele>1774.6</ele>
        <time>2026-07-12T12:04:56Z</time>
      </trkpt>
      <trkpt lat="45.7473" lon="6.5165">
        <ele>1774.6</ele>
        <time>2026-07-12T12:04:57Z</time>
      </trkpt>
      <trkpt lat="45.74731" lon="6.51654">
        <ele>1774.6</ele>
        <time>2026-07-12T12:04:58Z</time>
      </trkpt>
      <trkpt lat="45.74733" lon="6.51659">
        <ele>1775.2</ele>
        <time>2026-07-12T12:04:59Z</time>
      </trkpt>
      <trkpt lat="45.74735" lon="6.51663">
        <ele>1775.2</ele>
        <time>2026-07-12T12:05:00Z</time>
      </trkpt>
      <trkpt lat="45.74737" lon="6.51667">
        <ele>1775.2</ele>
        <time>2026-07-12T12:05:01Z</time>
      </trkpt>
      <trkpt lat="45.74739" lon="6.51671">
        <ele>1775.2</ele>
        <time>2026-07-12T12:05:02Z</time>
      </trkpt>
      <trkpt lat="45.74742" lon="6.51675">
        <ele>1775.2</ele>
        <time>2026-07-12T12:05:03Z</time>
      </trkpt>
      <trkpt lat="45.74744" lon="6.51679">
        <ele>1775.2</ele>
        <time>2026-07-12T12:05:04Z</time>
      </trkpt>
      <trkpt lat="45.74746" lon="6.51683">
        <ele>1775.2</ele>
        <time>2026-07-12T12:05:05Z</time>
      </trkpt>
      <trkpt lat="45.74749" lon="6.51687">
        <ele>1776.2</ele>
        <time>2026-07-12T12:05:06Z</time>
      </trkpt>
      <trkpt lat="45.74751" lon="6.51691">
        <ele>1777.2</ele>
        <time>2026-07-12T12:05:07Z</time>
      </trkpt>
      <trkpt lat="45.74753" lon="6.51695">
        <ele>1779</ele>
        <time>2026-07-12T12:05:08Z</time>
      </trkpt>
      <trkpt lat="45.74755" lon="6.517">
        <ele>1779</ele>
        <time>2026-07-12T12:05:09Z</time>
      </trkpt>
      <trkpt lat="45.74756" lon="6.51704">
        <ele>1779</ele>
        <time>2026-07-12T12:05:10Z</time>
      </trkpt>
      <trkpt lat="45.74758" lon="6.51709">
        <ele>1779</ele>
        <time>2026-07-12T12:05:11Z</time>
      </trkpt>
      <trkpt lat="45.74759" lon="6.51713">
        <ele>1779</ele>
        <time>2026-07-12T12:05:12Z</time>
      </trkpt>
      <trkpt lat="45.7476" lon="6.51718">
        <ele>1778.8</ele>
        <time>2026-07-12T12:05:13Z</time>
      </trkpt>
      <trkpt lat="45.74761" lon="6.51722">
        <ele>1778.8</ele>
        <time>2026-07-12T12:05:14Z</time>
      </trkpt>
      <trkpt lat="45.74762" lon="6.51726">
        <ele>1778.8</ele>
        <time>2026-07-12T12:05:15Z</time>
      </trkpt>
      <trkpt lat="45.74764" lon="6.51731">
        <ele>1778.8</ele>
        <time>2026-07-12T12:05:16Z</time>
      </trkpt>
      <trkpt lat="45.74765" lon="6.51735">
        <ele>1779.8</ele>
        <time>2026-07-12T12:05:17Z</time>
      </trkpt>
      <trkpt lat="45.74766" lon="6.5174">
        <ele>1779.8</ele>
        <time>2026-07-12T12:05:18Z</time>
      </trkpt>
      <trkpt lat="45.74767" lon="6.51744">
        <ele>1779.8</ele>
        <time>2026-07-12T12:05:19Z</time>
      </trkpt>
      <trkpt lat="45.74767" lon="6.51748">
        <ele>1779.8</ele>
        <time>2026-07-12T12:05:20Z</time>
      </trkpt>
      <trkpt lat="45.74768" lon="6.51752">
        <ele>1780.8</ele>
        <time>2026-07-12T12:05:21Z</time>
      </trkpt>
      <trkpt lat="45.74768" lon="6.51757">
        <ele>1781</ele>
        <time>2026-07-12T12:05:22Z</time>
      </trkpt>
      <trkpt lat="45.74769" lon="6.5176">
        <ele>1781</ele>
        <time>2026-07-12T12:05:23Z</time>
      </trkpt>
      <trkpt lat="45.7477" lon="6.51764">
        <ele>1781</ele>
        <time>2026-07-12T12:05:24Z</time>
      </trkpt>
      <trkpt lat="45.74772" lon="6.51767">
        <ele>1781</ele>
        <time>2026-07-12T12:05:25Z</time>
      </trkpt>
      <trkpt lat="45.74773" lon="6.51769">
        <ele>1783.4</ele>
        <time>2026-07-12T12:05:26Z</time>
      </trkpt>
      <trkpt lat="45.74774" lon="6.51773">
        <ele>1783.4</ele>
        <time>2026-07-12T12:05:27Z</time>
      </trkpt>
      <trkpt lat="45.74775" lon="6.51776">
        <ele>1783.4</ele>
        <time>2026-07-12T12:05:28Z</time>
      </trkpt>
      <trkpt lat="45.74777" lon="6.51779">
        <ele>1783.4</ele>
        <time>2026-07-12T12:05:29Z</time>
      </trkpt>
      <trkpt lat="45.74779" lon="6.51782">
        <ele>1784.4</ele>
        <time>2026-07-12T12:05:30Z</time>
      </trkpt>
      <trkpt lat="45.74782" lon="6.51785">
        <ele>1785.4</ele>
        <time>2026-07-12T12:05:31Z</time>
      </trkpt>
      <trkpt lat="45.74784" lon="6.51788">
        <ele>1785.6</ele>
        <time>2026-07-12T12:05:32Z</time>
      </trkpt>
      <trkpt lat="45.74786" lon="6.51792">
        <ele>1786</ele>
        <time>2026-07-12T12:05:33Z</time>
      </trkpt>
      <trkpt lat="45.74788" lon="6.51796">
        <ele>1787</ele>
        <time>2026-07-12T12:05:34Z</time>
      </trkpt>
      <trkpt lat="45.7479" lon="6.518">
        <ele>1787</ele>
        <time>2026-07-12T12:05:35Z</time>
      </trkpt>
      <trkpt lat="45.74791" lon="6.51804">
        <ele>1787.2</ele>
        <time>2026-07-12T12:05:36Z</time>
      </trkpt>
      <trkpt lat="45.74793" lon="6.51808">
        <ele>1787.2</ele>
        <time>2026-07-12T12:05:37Z</time>
      </trkpt>
      <trkpt lat="45.74795" lon="6.51811">
        <ele>1787.2</ele>
        <time>2026-07-12T12:05:38Z</time>
      </trkpt>
      <trkpt lat="45.74798" lon="6.51814">
        <ele>1787.2</ele>
        <time>2026-07-12T12:05:39Z</time>
      </trkpt>
      <trkpt lat="45.748" lon="6.51817">
        <ele>1787.2</ele>
        <time>2026-07-12T12:05:40Z</time>
      </trkpt>
      <trkpt lat="45.74802" lon="6.5182">
        <ele>1787.2</ele>
        <time>2026-07-12T12:05:41Z</time>
      </trkpt>
      <trkpt lat="45.74804" lon="6.51823">
        <ele>1787.2</ele>
        <time>2026-07-12T12:05:42Z</time>
      </trkpt>
      <trkpt lat="45.74807" lon="6.51825">
        <ele>1787.2</ele>
        <time>2026-07-12T12:05:43Z</time>
      </trkpt>
      <trkpt lat="45.74809" lon="6.51828">
        <ele>1787.2</ele>
        <time>2026-07-12T12:05:44Z</time>
      </trkpt>
      <trkpt lat="45.74811" lon="6.51831">
        <ele>1788.2</ele>
        <time>2026-07-12T12:05:45Z</time>
      </trkpt>
      <trkpt lat="45.74814" lon="6.51834">
        <ele>1788.6</ele>
        <time>2026-07-12T12:05:46Z</time>
      </trkpt>
      <trkpt lat="45.74816" lon="6.51837">
        <ele>1789</ele>
        <time>2026-07-12T12:05:47Z</time>
      </trkpt>
      <trkpt lat="45.74818" lon="6.5184">
        <ele>1790.4</ele>
        <time>2026-07-12T12:05:48Z</time>
      </trkpt>
      <trkpt lat="45.7482" lon="6.51844">
        <ele>1790.4</ele>
        <time>2026-07-12T12:05:49Z</time>
      </trkpt>
      <trkpt lat="45.74822" lon="6.51848">
        <ele>1790.4</ele>
        <time>2026-07-12T12:05:50Z</time>
      </trkpt>
      <trkpt lat="45.74824" lon="6.51852">
        <ele>1790.4</ele>
        <time>2026-07-12T12:05:51Z</time>
      </trkpt>
      <trkpt lat="45.74825" lon="6.51856">
        <ele>1790.4</ele>
        <time>2026-07-12T12:05:52Z</time>
      </trkpt>
      <trkpt lat="45.74826" lon="6.51861">
        <ele>1790.4</ele>
        <time>2026-07-12T12:05:53Z</time>
      </trkpt>
      <trkpt lat="45.74826" lon="6.51865">
        <ele>1790.8</ele>
        <time>2026-07-12T12:05:54Z</time>
      </trkpt>
      <trkpt lat="45.74827" lon="6.51868">
        <ele>1790.8</ele>
        <time>2026-07-12T12:05:55Z</time>
      </trkpt>
      <trkpt lat="45.74828" lon="6.51871">
        <ele>1789.8</ele>
        <time>2026-07-12T12:05:56Z</time>
      </trkpt>
      <trkpt lat="45.74829" lon="6.51873">
        <ele>1789.8</ele>
        <time>2026-07-12T12:05:57Z</time>
      </trkpt>
      <trkpt lat="45.74831" lon="6.51876">
        <ele>1789.8</ele>
        <time>2026-07-12T12:05:58Z</time>
      </trkpt>
      <trkpt lat="45.74832" lon="6.51879">
        <ele>1789.8</ele>
        <time>2026-07-12T12:05:59Z</time>
      </trkpt>
      <trkpt lat="45.74833" lon="6.51881">
        <ele>1789.4</ele>
        <time>2026-07-12T12:06:00Z</time>
      </trkpt>
      <trkpt lat="45.74835" lon="6.51884">
        <ele>1789.4</ele>
        <time>2026-07-12T12:06:01Z</time>
      </trkpt>
      <trkpt lat="45.74836" lon="6.51886">
        <ele>1789.4</ele>
        <time>2026-07-12T12:06:02Z</time>
      </trkpt>
      <trkpt lat="45.74838" lon="6.51888">
        <ele>1789.8</ele>
        <time>2026-07-12T12:06:03Z</time>
      </trkpt>
      <trkpt lat="45.7484" lon="6.5189">
        <ele>1789.8</ele>
        <time>2026-07-12T12:06:04Z</time>
      </trkpt>
      <trkpt lat="45.74841" lon="6.51892">
        <ele>1789.8</ele>
        <time>2026-07-12T12:06:05Z</time>
      </trkpt>
      <trkpt lat="45.74843" lon="6.51893">
        <ele>1789.8</ele>
        <time>2026-07-12T12:06:06Z</time>
      </trkpt>
      <trkpt lat="45.74845" lon="6.51894">
        <ele>1790.8</ele>
        <time>2026-07-12T12:06:07Z</time>
      </trkpt>
      <trkpt lat="45.74847" lon="6.51896">
        <ele>1791.2</ele>
        <time>2026-07-12T12:06:08Z</time>
      </trkpt>
      <trkpt lat="45.74848" lon="6.51898">
        <ele>1791.2</ele>
        <time>2026-07-12T12:06:09Z</time>
      </trkpt>
      <trkpt lat="45.7485" lon="6.51899">
        <ele>1791.2</ele>
        <time>2026-07-12T12:06:10Z</time>
      </trkpt>
      <trkpt lat="45.74852" lon="6.51901">
        <ele>1791.2</ele>
        <time>2026-07-12T12:06:11Z</time>
      </trkpt>
      <trkpt lat="45.74853" lon="6.51903">
        <ele>1792.2</ele>
        <time>2026-07-12T12:06:12Z</time>
      </trkpt>
      <trkpt lat="45.74855" lon="6.51906">
        <ele>1792.4</ele>
        <time>2026-07-12T12:06:13Z</time>
      </trkpt>
      <trkpt lat="45.74856" lon="6.51908">
        <ele>1792.4</ele>
        <time>2026-07-12T12:06:14Z</time>
      </trkpt>
      <trkpt lat="45.74857" lon="6.51911">
        <ele>1792.4</ele>
        <time>2026-07-12T12:06:15Z</time>
      </trkpt>
      <trkpt lat="45.74858" lon="6.51913">
        <ele>1792.4</ele>
        <time>2026-07-12T12:06:16Z</time>
      </trkpt>
      <trkpt lat="45.7486" lon="6.51915">
        <ele>1792.4</ele>
        <time>2026-07-12T12:06:17Z</time>
      </trkpt>
      <trkpt lat="45.74861" lon="6.51915">
        <ele>1792.4</ele>
        <time>2026-07-12T12:06:18Z</time>
      </trkpt>
      <trkpt lat="45.74863" lon="6.51915">
        <ele>1792.4</ele>
        <time>2026-07-12T12:06:19Z</time>
      </trkpt>
      <trkpt lat="45.74864" lon="6.51913">
        <ele>1791.8</ele>
        <time>2026-07-12T12:06:20Z</time>
      </trkpt>
      <trkpt lat="45.74864" lon="6.5191">
        <ele>1791.6</ele>
        <time>2026-07-12T12:06:21Z</time>
      </trkpt>
      <trkpt lat="45.74865" lon="6.51908">
        <ele>1791.6</ele>
        <time>2026-07-12T12:06:22Z</time>
      </trkpt>
      <trkpt lat="45.74865" lon="6.51906">
        <ele>1791.6</ele>
        <time>2026-07-12T12:06:23Z</time>
      </trkpt>
      <trkpt lat="45.74865" lon="6.51904">
        <ele>1791.6</ele>
        <time>2026-07-12T12:06:24Z</time>
      </trkpt>
      <trkpt lat="45.74866" lon="6.51903">
        <ele>1791.6</ele>
        <time>2026-07-12T12:06:25Z</time>
      </trkpt>
      <trkpt lat="45.74866" lon="6.51902">
        <ele>1791.6</ele>
        <time>2026-07-12T12:06:26Z</time>
      </trkpt>
      <trkpt lat="45.74867" lon="6.51902">
        <ele>1792</ele>
        <time>2026-07-12T12:06:27Z</time>
      </trkpt>
      <trkpt lat="45.74867" lon="6.51902">
        <ele>1793</ele>
        <time>2026-07-12T12:06:28Z</time>
      </trkpt>
      <trkpt lat="45.74869" lon="6.51902">
        <ele>1793.6</ele>
        <time>2026-07-12T12:06:29Z</time>
      </trkpt>
      <trkpt lat="45.7487" lon="6.51903">
        <ele>1793.6</ele>
        <time>2026-07-12T12:06:30Z</time>
      </trkpt>
      <trkpt lat="45.74871" lon="6.51904">
        <ele>1793.6</ele>
        <time>2026-07-12T12:06:31Z</time>
      </trkpt>
      <trkpt lat="45.74872" lon="6.51906">
        <ele>1793.6</ele>
        <time>2026-07-12T12:06:32Z</time>
      </trkpt>
      <trkpt lat="45.74873" lon="6.51908">
        <ele>1793.6</ele>
        <time>2026-07-12T12:06:33Z</time>
      </trkpt>
      <trkpt lat="45.74876" lon="6.51909">
        <ele>1793.6</ele>
        <time>2026-07-12T12:06:34Z</time>
      </trkpt>
      <trkpt lat="45.74878" lon="6.51909">
        <ele>1793.6</ele>
        <time>2026-07-12T12:06:35Z</time>
      </trkpt>
      <trkpt lat="45.74881" lon="6.51907">
        <ele>1794.6</ele>
        <time>2026-07-12T12:06:36Z</time>
      </trkpt>
      <trkpt lat="45.74883" lon="6.51905">
        <ele>1794.6</ele>
        <time>2026-07-12T12:06:37Z</time>
      </trkpt>
      <trkpt lat="45.74886" lon="6.51903">
        <ele>1794.6</ele>
        <time>2026-07-12T12:06:38Z</time>
      </trkpt>
      <trkpt lat="45.74889" lon="6.51902">
        <ele>1794.6</ele>
        <time>2026-07-12T12:06:39Z</time>
      </trkpt>
      <trkpt lat="45.74892" lon="6.519">
        <ele>1794.6</ele>
        <time>2026-07-12T12:06:40Z</time>
      </trkpt>
      <trkpt lat="45.74895" lon="6.51899">
        <ele>1794.6</ele>
        <time>2026-07-12T12:06:41Z</time>
      </trkpt>
      <trkpt lat="45.74898" lon="6.51898">
        <ele>1794.6</ele>
        <time>2026-07-12T12:06:42Z</time>
      </trkpt>
      <trkpt lat="45.74901" lon="6.51897">
        <ele>1795.4</ele>
        <time>2026-07-12T12:06:43Z</time>
      </trkpt>
      <trkpt lat="45.74904" lon="6.51897">
        <ele>1795.4</ele>
        <time>2026-07-12T12:06:44Z</time>
      </trkpt>
      <trkpt lat="45.74908" lon="6.51896">
        <ele>1795.4</ele>
        <time>2026-07-12T12:06:45Z</time>
      </trkpt>
      <trkpt lat="45.74911" lon="6.51895">
        <ele>1795</ele>
        <time>2026-07-12T12:06:46Z</time>
      </trkpt>
      <trkpt lat="45.74914" lon="6.51895">
        <ele>1794.6</ele>
        <time>2026-07-12T12:06:47Z</time>
      </trkpt>
      <trkpt lat="45.74917" lon="6.51895">
        <ele>1794.6</ele>
        <time>2026-07-12T12:06:48Z</time>
      </trkpt>
      <trkpt lat="45.7492" lon="6.51894">
        <ele>1794.6</ele>
        <time>2026-07-12T12:06:49Z</time>
      </trkpt>
      <trkpt lat="45.74923" lon="6.51893">
        <ele>1794.6</ele>
        <time>2026-07-12T12:06:50Z</time>
      </trkpt>
      <trkpt lat="45.74926" lon="6.51893">
        <ele>1794.6</ele>
        <time>2026-07-12T12:06:51Z</time>
      </trkpt>
      <trkpt lat="45.74929" lon="6.51891">
        <ele>1794.6</ele>
        <time>2026-07-12T12:06:52Z</time>
      </trkpt>
      <trkpt lat="45.74932" lon="6.51889">
        <ele>1794.8</ele>
        <time>2026-07-12T12:06:53Z</time>
      </trkpt>
      <trkpt lat="45.74934" lon="6.51885">
        <ele>1795.4</ele>
        <time>2026-07-12T12:06:54Z</time>
      </trkpt>
      <trkpt lat="45.74934" lon="6.51881">
        <ele>1795.4</ele>
        <time>2026-07-12T12:06:55Z</time>
      </trkpt>
      <trkpt lat="45.74935" lon="6.51876">
        <ele>1795.4</ele>
        <time>2026-07-12T12:06:56Z</time>
      </trkpt>
      <trkpt lat="45.74936" lon="6.51871">
        <ele>1795.4</ele>
        <time>2026-07-12T12:06:57Z</time>
      </trkpt>
      <trkpt lat="45.74937" lon="6.51866">
        <ele>1795.4</ele>
        <time>2026-07-12T12:06:58Z</time>
      </trkpt>
      <trkpt lat="45.74939" lon="6.51861">
        <ele>1795.4</ele>
        <time>2026-07-12T12:06:59Z</time>
      </trkpt>
      <trkpt lat="45.74942" lon="6.51855">
        <ele>1795.6</ele>
        <time>2026-07-12T12:07:00Z</time>
      </trkpt>
      <trkpt lat="45.74946" lon="6.51852">
        <ele>1795</ele>
        <time>2026-07-12T12:07:01Z</time>
      </trkpt>
      <trkpt lat="45.7495" lon="6.51851">
        <ele>1795</ele>
        <time>2026-07-12T12:07:02Z</time>
      </trkpt>
      <trkpt lat="45.74954" lon="6.5185">
        <ele>1795</ele>
        <time>2026-07-12T12:07:03Z</time>
      </trkpt>
      <trkpt lat="45.74959" lon="6.51849">
        <ele>1795.4</ele>
        <time>2026-07-12T12:07:04Z</time>
      </trkpt>
      <trkpt lat="45.74964" lon="6.51847">
        <ele>1795.4</ele>
        <time>2026-07-12T12:07:05Z</time>
      </trkpt>
      <trkpt lat="45.74968" lon="6.51845">
        <ele>1793.8</ele>
        <time>2026-07-12T12:07:06Z</time>
      </trkpt>
      <trkpt lat="45.74972" lon="6.51842">
        <ele>1793.8</ele>
        <time>2026-07-12T12:07:07Z</time>
      </trkpt>
      <trkpt lat="45.74976" lon="6.5184">
        <ele>1793.8</ele>
        <time>2026-07-12T12:07:08Z</time>
      </trkpt>
      <trkpt lat="45.7498" lon="6.51838">
        <ele>1793.8</ele>
        <time>2026-07-12T12:07:09Z</time>
      </trkpt>
      <trkpt lat="45.74984" lon="6.51835">
        <ele>1793.8</ele>
        <time>2026-07-12T12:07:10Z</time>
      </trkpt>
      <trkpt lat="45.74988" lon="6.51832">
        <ele>1793.8</ele>
        <time>2026-07-12T12:07:11Z</time>
      </trkpt>
      <trkpt lat="45.74991" lon="6.51829">
        <ele>1793.4</ele>
        <time>2026-07-12T12:07:12Z</time>
      </trkpt>
      <trkpt lat="45.74994" lon="6.51826">
        <ele>1793.4</ele>
        <time>2026-07-12T12:07:13Z</time>
      </trkpt>
      <trkpt lat="45.74997" lon="6.51822">
        <ele>1793.4</ele>
        <time>2026-07-12T12:07:14Z</time>
      </trkpt>
      <trkpt lat="45.75" lon="6.51818">
        <ele>1793.4</ele>
        <time>2026-07-12T12:07:15Z</time>
      </trkpt>
      <trkpt lat="45.75002" lon="6.51813">
        <ele>1793.4</ele>
        <time>2026-07-12T12:07:16Z</time>
      </trkpt>
      <trkpt lat="45.75005" lon="6.51809">
        <ele>1793.4</ele>
        <time>2026-07-12T12:07:17Z</time>
      </trkpt>
      <trkpt lat="45.75007" lon="6.51803">
        <ele>1794.4</ele>
        <time>2026-07-12T12:07:18Z</time>
      </trkpt>
      <trkpt lat="45.75009" lon="6.51798">
        <ele>1794.4</ele>
        <time>2026-07-12T12:07:19Z</time>
      </trkpt>
      <trkpt lat="45.75012" lon="6.51792">
        <ele>1793.8</ele>
        <time>2026-07-12T12:07:20Z</time>
      </trkpt>
      <trkpt lat="45.75014" lon="6.51787">
        <ele>1793.8</ele>
        <time>2026-07-12T12:07:21Z</time>
      </trkpt>
      <trkpt lat="45.75016" lon="6.51783">
        <ele>1793.8</ele>
        <time>2026-07-12T12:07:22Z</time>
      </trkpt>
      <trkpt lat="45.75018" lon="6.51779">
        <ele>1794.8</ele>
        <time>2026-07-12T12:07:23Z</time>
      </trkpt>
      <trkpt lat="45.75021" lon="6.51775">
        <ele>1795.8</ele>
        <time>2026-07-12T12:07:24Z</time>
      </trkpt>
      <trkpt lat="45.75023" lon="6.5177">
        <ele>1795.8</ele>
        <time>2026-07-12T12:07:25Z</time>
      </trkpt>
      <trkpt lat="45.75026" lon="6.51766">
        <ele>1795.8</ele>
        <time>2026-07-12T12:07:26Z</time>
      </trkpt>
      <trkpt lat="45.75029" lon="6.5176">
        <ele>1795.8</ele>
        <time>2026-07-12T12:07:27Z</time>
      </trkpt>
      <trkpt lat="45.75032" lon="6.51755">
        <ele>1795.8</ele>
        <time>2026-07-12T12:07:28Z</time>
      </trkpt>
      <trkpt lat="45.75035" lon="6.51749">
        <ele>1795.2</ele>
        <time>2026-07-12T12:07:29Z</time>
      </trkpt>
      <trkpt lat="45.75038" lon="6.51744">
        <ele>1794.6</ele>
        <time>2026-07-12T12:07:30Z</time>
      </trkpt>
      <trkpt lat="45.75041" lon="6.51738">
        <ele>1794.6</ele>
        <time>2026-07-12T12:07:31Z</time>
      </trkpt>
      <trkpt lat="45.75044" lon="6.51733">
        <ele>1794.6</ele>
        <time>2026-07-12T12:07:32Z</time>
      </trkpt>
      <trkpt lat="45.75048" lon="6.51727">
        <ele>1794.6</ele>
        <time>2026-07-12T12:07:33Z</time>
      </trkpt>
      <trkpt lat="45.7505" lon="6.51722">
        <ele>1794.6</ele>
        <time>2026-07-12T12:07:34Z</time>
      </trkpt>
      <trkpt lat="45.75053" lon="6.51716">
        <ele>1795.6</ele>
        <time>2026-07-12T12:07:35Z</time>
      </trkpt>
      <trkpt lat="45.75055" lon="6.5171">
        <ele>1795.6</ele>
        <time>2026-07-12T12:07:36Z</time>
      </trkpt>
      <trkpt lat="45.75057" lon="6.51705">
        <ele>1795.6</ele>
        <time>2026-07-12T12:07:37Z</time>
      </trkpt>
      <trkpt lat="45.75059" lon="6.51698">
        <ele>1795.4</ele>
        <time>2026-07-12T12:07:38Z</time>
      </trkpt>
      <trkpt lat="45.7506" lon="6.51691">
        <ele>1794.4</ele>
        <time>2026-07-12T12:07:39Z</time>
      </trkpt>
      <trkpt lat="45.75062" lon="6.51684">
        <ele>1794.4</ele>
        <time>2026-07-12T12:07:40Z</time>
      </trkpt>
      <trkpt lat="45.75063" lon="6.51676">
        <ele>1794.4</ele>
        <time>2026-07-12T12:07:41Z</time>
      </trkpt>
      <trkpt lat="45.75065" lon="6.51669">
        <ele>1795</ele>
        <time>2026-07-12T12:07:42Z</time>
      </trkpt>
      <trkpt lat="45.75067" lon="6.51661">
        <ele>1795.4</ele>
        <time>2026-07-12T12:07:43Z</time>
      </trkpt>
      <trkpt lat="45.7507" lon="6.51654">
        <ele>1795.4</ele>
        <time>2026-07-12T12:07:44Z</time>
      </trkpt>
      <trkpt lat="45.75072" lon="6.51647">
        <ele>1795.4</ele>
        <time>2026-07-12T12:07:45Z</time>
      </trkpt>
      <trkpt lat="45.75074" lon="6.51641">
        <ele>1795.4</ele>
        <time>2026-07-12T12:07:46Z</time>
      </trkpt>
      <trkpt lat="45.75076" lon="6.51634">
        <ele>1795.4</ele>
        <time>2026-07-12T12:07:47Z</time>
      </trkpt>
      <trkpt lat="45.75077" lon="6.51627">
        <ele>1795.8</ele>
        <time>2026-07-12T12:07:48Z</time>
      </trkpt>
      <trkpt lat="45.75077" lon="6.51619">
        <ele>1796.2</ele>
        <time>2026-07-12T12:07:49Z</time>
      </trkpt>
      <trkpt lat="45.75079" lon="6.51611">
        <ele>1796.4</ele>
        <time>2026-07-12T12:07:50Z</time>
      </trkpt>
      <trkpt lat="45.75081" lon="6.51604">
        <ele>1796.4</ele>
        <time>2026-07-12T12:07:51Z</time>
      </trkpt>
      <trkpt lat="45.75083" lon="6.51597">
        <ele>1797.2</ele>
        <time>2026-07-12T12:07:52Z</time>
      </trkpt>
      <trkpt lat="45.75086" lon="6.51591">
        <ele>1799.8</ele>
        <time>2026-07-12T12:07:53Z</time>
      </trkpt>
      <trkpt lat="45.75089" lon="6.51585">
        <ele>1799.8</ele>
        <time>2026-07-12T12:07:54Z</time>
      </trkpt>
      <trkpt lat="45.75093" lon="6.51579">
        <ele>1799.8</ele>
        <time>2026-07-12T12:07:55Z</time>
      </trkpt>
      <trkpt lat="45.75097" lon="6.51575">
        <ele>1798.8</ele>
        <time>2026-07-12T12:07:56Z</time>
      </trkpt>
      <trkpt lat="45.75102" lon="6.51572">
        <ele>1798.8</ele>
        <time>2026-07-12T12:07:57Z</time>
      </trkpt>
      <trkpt lat="45.75107" lon="6.5157">
        <ele>1798.8</ele>
        <time>2026-07-12T12:07:58Z</time>
      </trkpt>
      <trkpt lat="45.75112" lon="6.5157">
        <ele>1799.8</ele>
        <time>2026-07-12T12:07:59Z</time>
      </trkpt>
      <trkpt lat="45.75117" lon="6.5157">
        <ele>1800.6</ele>
        <time>2026-07-12T12:08:00Z</time>
      </trkpt>
      <trkpt lat="45.75122" lon="6.51572">
        <ele>1800.6</ele>
        <time>2026-07-12T12:08:01Z</time>
      </trkpt>
      <trkpt lat="45.75128" lon="6.51574">
        <ele>1800.6</ele>
        <time>2026-07-12T12:08:02Z</time>
      </trkpt>
      <trkpt lat="45.75133" lon="6.51577">
        <ele>1800.6</ele>
        <time>2026-07-12T12:08:03Z</time>
      </trkpt>
      <trkpt lat="45.75138" lon="6.5158">
        <ele>1801.6</ele>
        <time>2026-07-12T12:08:04Z</time>
      </trkpt>
      <trkpt lat="45.75143" lon="6.51584">
        <ele>1802</ele>
        <time>2026-07-12T12:08:05Z</time>
      </trkpt>
      <trkpt lat="45.75147" lon="6.51588">
        <ele>1802</ele>
        <time>2026-07-12T12:08:06Z</time>
      </trkpt>
      <trkpt lat="45.75151" lon="6.51591">
        <ele>1803.4</ele>
        <time>2026-07-12T12:08:07Z</time>
      </trkpt>
      <trkpt lat="45.75155" lon="6.51595">
        <ele>1803.4</ele>
        <time>2026-07-12T12:08:08Z</time>
      </trkpt>
      <trkpt lat="45.75159" lon="6.51598">
        <ele>1803.4</ele>
        <time>2026-07-12T12:08:09Z</time>
      </trkpt>
      <trkpt lat="45.75162" lon="6.51601">
        <ele>1803</ele>
        <time>2026-07-12T12:08:10Z</time>
      </trkpt>
      <trkpt lat="45.75166" lon="6.51604">
        <ele>1803</ele>
        <time>2026-07-12T12:08:11Z</time>
      </trkpt>
      <trkpt lat="45.75169" lon="6.51608">
        <ele>1803</ele>
        <time>2026-07-12T12:08:12Z</time>
      </trkpt>
      <trkpt lat="45.75172" lon="6.51611">
        <ele>1803</ele>
        <time>2026-07-12T12:08:13Z</time>
      </trkpt>
      <trkpt lat="45.75175" lon="6.51613">
        <ele>1802.4</ele>
        <time>2026-07-12T12:08:14Z</time>
      </trkpt>
      <trkpt lat="45.75178" lon="6.51615">
        <ele>1801.8</ele>
        <time>2026-07-12T12:08:15Z</time>
      </trkpt>
      <trkpt lat="45.75181" lon="6.51616">
        <ele>1801.4</ele>
        <time>2026-07-12T12:08:16Z</time>
      </trkpt>
      <trkpt lat="45.75183" lon="6.51616">
        <ele>1800.8</ele>
        <time>2026-07-12T12:08:17Z</time>
      </trkpt>
      <trkpt lat="45.75185" lon="6.51615">
        <ele>1800.8</ele>
        <time>2026-07-12T12:08:18Z</time>
      </trkpt>
      <trkpt lat="45.75186" lon="6.51613">
        <ele>1800.8</ele>
        <time>2026-07-12T12:08:19Z</time>
      </trkpt>
      <trkpt lat="45.75187" lon="6.51612">
        <ele>1801.8</ele>
        <time>2026-07-12T12:08:20Z</time>
      </trkpt>
      <trkpt lat="45.75188" lon="6.51611">
        <ele>1801.8</ele>
        <time>2026-07-12T12:08:21Z</time>
      </trkpt>
      <trkpt lat="45.75189" lon="6.51611">
        <ele>1801.8</ele>
        <time>2026-07-12T12:08:22Z</time>
      </trkpt>
      <trkpt lat="45.75191" lon="6.51612">
        <ele>1799.8</ele>
        <time>2026-07-12T12:08:23Z</time>
      </trkpt>
      <trkpt lat="45.75191" lon="6.51614">
        <ele>1799.8</ele>
        <time>2026-07-12T12:08:24Z</time>
      </trkpt>
      <trkpt lat="45.75191" lon="6.51618">
        <ele>1799.8</ele>
        <time>2026-07-12T12:08:25Z</time>
      </trkpt>
      <trkpt lat="45.75192" lon="6.51622">
        <ele>1799.8</ele>
        <time>2026-07-12T12:08:26Z</time>
      </trkpt>
      <trkpt lat="45.75193" lon="6.51627">
        <ele>1800.2</ele>
        <time>2026-07-12T12:08:27Z</time>
      </trkpt>
      <trkpt lat="45.75194" lon="6.51633">
        <ele>1800.2</ele>
        <time>2026-07-12T12:08:28Z</time>
      </trkpt>
      <trkpt lat="45.75195" lon="6.51639">
        <ele>1800.2</ele>
        <time>2026-07-12T12:08:29Z</time>
      </trkpt>
      <trkpt lat="45.75197" lon="6.51644">
        <ele>1800.2</ele>
        <time>2026-07-12T12:08:30Z</time>
      </trkpt>
      <trkpt lat="45.75199" lon="6.5165">
        <ele>1799.4</ele>
        <time>2026-07-12T12:08:31Z</time>
      </trkpt>
      <trkpt lat="45.75201" lon="6.51657">
        <ele>1799.4</ele>
        <time>2026-07-12T12:08:32Z</time>
      </trkpt>
      <trkpt lat="45.75204" lon="6.51663">
        <ele>1799.4</ele>
        <time>2026-07-12T12:08:33Z</time>
      </trkpt>
      <trkpt lat="45.75206" lon="6.51669">
        <ele>1799.4</ele>
        <time>2026-07-12T12:08:34Z</time>
      </trkpt>
      <trkpt lat="45.75214" lon="6.51697">
        <ele>1798.4</ele>
        <time>2026-07-12T12:08:39Z</time>
      </trkpt>
      <trkpt lat="45.75216" lon="6.51701">
        <ele>1798.4</ele>
        <time>2026-07-12T12:08:40Z</time>
      </trkpt>
      <trkpt lat="45.75217" lon="6.51705">
        <ele>1798.4</ele>
        <time>2026-07-12T12:08:41Z</time>
      </trkpt>
      <trkpt lat="45.75217" lon="6.51706">
        <ele>1798.4</ele>
        <time>2026-07-12T12:08:42Z</time>
      </trkpt>
      <trkpt lat="45.75218" lon="6.51706">
        <ele>1797.4</ele>
        <time>2026-07-12T12:08:43Z</time>
      </trkpt>
      <trkpt lat="45.75218" lon="6.51706">
        <ele>1796.4</ele>
        <time>2026-07-12T12:08:44Z</time>
      </trkpt>
      <trkpt lat="45.75218" lon="6.51706">
        <ele>1795.4</ele>
        <time>2026-07-12T12:08:45Z</time>
      </trkpt>
      <trkpt lat="45.75218" lon="6.51706">
        <ele>1789</ele>
        <time>2026-07-12T12:08:46Z</time>
      </trkpt>
      <trkpt lat="45.75219" lon="6.51707">
        <ele>1789</ele>
        <time>2026-07-12T12:08:47Z</time>
      </trkpt>
      <trkpt lat="45.75219" lon="6.51711">
        <ele>1789</ele>
        <time>2026-07-12T12:08:48Z</time>
      </trkpt>
      <trkpt lat="45.7522" lon="6.51715">
        <ele>1789</ele>
        <time>2026-07-12T12:08:49Z</time>
      </trkpt>
      <trkpt lat="45.75222" lon="6.5172">
        <ele>1789</ele>
        <time>2026-07-12T12:08:50Z</time>
      </trkpt>
      <trkpt lat="45.75223" lon="6.51727">
        <ele>1788</ele>
        <time>2026-07-12T12:08:51Z</time>
      </trkpt>
      <trkpt lat="45.75225" lon="6.51733">
        <ele>1787</ele>
        <time>2026-07-12T12:08:52Z</time>
      </trkpt>
      <trkpt lat="45.75227" lon="6.51739">
        <ele>1786</ele>
        <time>2026-07-12T12:08:53Z</time>
      </trkpt>
      <trkpt lat="45.75229" lon="6.51746">
        <ele>1779.4</ele>
        <time>2026-07-12T12:08:54Z</time>
      </trkpt>
      <trkpt lat="45.75231" lon="6.51753">
        <ele>1779.2</ele>
        <time>2026-07-12T12:08:55Z</time>
      </trkpt>
      <trkpt lat="45.75234" lon="6.5176">
        <ele>1778.2</ele>
        <time>2026-07-12T12:08:56Z</time>
      </trkpt>
      <trkpt lat="45.75236" lon="6.51768">
        <ele>1775.8</ele>
        <time>2026-07-12T12:08:57Z</time>
      </trkpt>
      <trkpt lat="45.75239" lon="6.51776">
        <ele>1775.4</ele>
        <time>2026-07-12T12:08:58Z</time>
      </trkpt>
      <trkpt lat="45.75242" lon="6.51785">
        <ele>1775.4</ele>
        <time>2026-07-12T12:08:59Z</time>
      </trkpt>
      <trkpt lat="45.75246" lon="6.51795">
        <ele>1775.4</ele>
        <time>2026-07-12T12:09:00Z</time>
      </trkpt>
      <trkpt lat="45.75249" lon="6.51804">
        <ele>1775.4</ele>
        <time>2026-07-12T12:09:01Z</time>
      </trkpt>
      <trkpt lat="45.75252" lon="6.51813">
        <ele>1774.4</ele>
        <time>2026-07-12T12:09:02Z</time>
      </trkpt>
      <trkpt lat="45.75255" lon="6.51823">
        <ele>1773.4</ele>
        <time>2026-07-12T12:09:03Z</time>
      </trkpt>
      <trkpt lat="45.75258" lon="6.51831">
        <ele>1772.4</ele>
        <time>2026-07-12T12:09:04Z</time>
      </trkpt>
      <trkpt lat="45.7526" lon="6.51839">
        <ele>1771.4</ele>
        <time>2026-07-12T12:09:05Z</time>
      </trkpt>
      <trkpt lat="45.75262" lon="6.51846">
        <ele>1768.6</ele>
        <time>2026-07-12T12:09:06Z</time>
      </trkpt>
      <trkpt lat="45.75264" lon="6.51853">
        <ele>1766.6</ele>
        <time>2026-07-12T12:09:07Z</time>
      </trkpt>
      <trkpt lat="45.75266" lon="6.51858">
        <ele>1766.6</ele>
        <time>2026-07-12T12:09:08Z</time>
      </trkpt>
      <trkpt lat="45.75268" lon="6.51864">
        <ele>1766.6</ele>
        <time>2026-07-12T12:09:09Z</time>
      </trkpt>
      <trkpt lat="45.75269" lon="6.5187">
        <ele>1766.6</ele>
        <time>2026-07-12T12:09:10Z</time>
      </trkpt>
      <trkpt lat="45.75271" lon="6.51874">
        <ele>1765.6</ele>
        <time>2026-07-12T12:09:11Z</time>
      </trkpt>
      <trkpt lat="45.75272" lon="6.51878">
        <ele>1764.6</ele>
        <time>2026-07-12T12:09:12Z</time>
      </trkpt>
      <trkpt lat="45.75273" lon="6.51883">
        <ele>1759.4</ele>
        <time>2026-07-12T12:09:13Z</time>
      </trkpt>
      <trkpt lat="45.75275" lon="6.51888">
        <ele>1759.4</ele>
        <time>2026-07-12T12:09:14Z</time>
      </trkpt>
      <trkpt lat="45.75277" lon="6.51893">
        <ele>1759.4</ele>
        <time>2026-07-12T12:09:15Z</time>
      </trkpt>
      <trkpt lat="45.75279" lon="6.51899">
        <ele>1759.4</ele>
        <time>2026-07-12T12:09:16Z</time>
      </trkpt>
      <trkpt lat="45.75281" lon="6.51906">
        <ele>1756.4</ele>
        <time>2026-07-12T12:09:17Z</time>
      </trkpt>
      <trkpt lat="45.75283" lon="6.51914">
        <ele>1756.4</ele>
        <time>2026-07-12T12:09:18Z</time>
      </trkpt>
      <trkpt lat="45.75286" lon="6.51922">
        <ele>1756.4</ele>
        <time>2026-07-12T12:09:19Z</time>
      </trkpt>
      <trkpt lat="45.75289" lon="6.51932">
        <ele>1756.4</ele>
        <time>2026-07-12T12:09:20Z</time>
      </trkpt>
      <trkpt lat="45.75293" lon="6.51943">
        <ele>1755.4</ele>
        <time>2026-07-12T12:09:21Z</time>
      </trkpt>
      <trkpt lat="45.75297" lon="6.51955">
        <ele>1754.4</ele>
        <time>2026-07-12T12:09:22Z</time>
      </trkpt>
      <trkpt lat="45.75299" lon="6.51965">
        <ele>1753.4</ele>
        <time>2026-07-12T12:09:23Z</time>
      </trkpt>
      <trkpt lat="45.75302" lon="6.51974">
        <ele>1752.4</ele>
        <time>2026-07-12T12:09:24Z</time>
      </trkpt>
      <trkpt lat="45.75304" lon="6.5198">
        <ele>1751.4</ele>
        <time>2026-07-12T12:09:25Z</time>
      </trkpt>
      <trkpt lat="45.75306" lon="6.51987">
        <ele>1750.4</ele>
        <time>2026-07-12T12:09:26Z</time>
      </trkpt>
      <trkpt lat="45.75307" lon="6.51992">
        <ele>1749.4</ele>
        <time>2026-07-12T12:09:27Z</time>
      </trkpt>
      <trkpt lat="45.75308" lon="6.51996">
        <ele>1748.4</ele>
        <time>2026-07-12T12:09:28Z</time>
      </trkpt>
      <trkpt lat="45.75309" lon="6.52">
        <ele>1743.6</ele>
        <time>2026-07-12T12:09:29Z</time>
      </trkpt>
      <trkpt lat="45.75311" lon="6.52005">
        <ele>1743.6</ele>
        <time>2026-07-12T12:09:30Z</time>
      </trkpt>
      <trkpt lat="45.75313" lon="6.5201">
        <ele>1743.6</ele>
        <time>2026-07-12T12:09:31Z</time>
      </trkpt>
      <trkpt lat="45.75314" lon="6.52014">
        <ele>1743.6</ele>
        <time>2026-07-12T12:09:32Z</time>
      </trkpt>
      <trkpt lat="45.75317" lon="6.52021">
        <ele>1742.6</ele>
        <time>2026-07-12T12:09:33Z</time>
      </trkpt>
      <trkpt lat="45.75319" lon="6.52028">
        <ele>1741.6</ele>
        <time>2026-07-12T12:09:34Z</time>
      </trkpt>
      <trkpt lat="45.75321" lon="6.52035">
        <ele>1740</ele>
        <time>2026-07-12T12:09:35Z</time>
      </trkpt>
      <trkpt lat="45.75324" lon="6.52042">
        <ele>1739.8</ele>
        <time>2026-07-12T12:09:36Z</time>
      </trkpt>
      <trkpt lat="45.75326" lon="6.52049">
        <ele>1739.8</ele>
        <time>2026-07-12T12:09:37Z</time>
      </trkpt>
      <trkpt lat="45.75328" lon="6.52053">
        <ele>1739.8</ele>
        <time>2026-07-12T12:09:38Z</time>
      </trkpt>
      <trkpt lat="45.75329" lon="6.52057">
        <ele>1739.8</ele>
        <time>2026-07-12T12:09:39Z</time>
      </trkpt>
      <trkpt lat="45.7533" lon="6.5206">
        <ele>1735.2</ele>
        <time>2026-07-12T12:09:40Z</time>
      </trkpt>
      <trkpt lat="45.75331" lon="6.52063">
        <ele>1735.2</ele>
        <time>2026-07-12T12:09:41Z</time>
      </trkpt>
      <trkpt lat="45.75332" lon="6.52066">
        <ele>1733.8</ele>
        <time>2026-07-12T12:09:42Z</time>
      </trkpt>
      <trkpt lat="45.75333" lon="6.52068">
        <ele>1733.8</ele>
        <time>2026-07-12T12:09:43Z</time>
      </trkpt>
      <trkpt lat="45.75333" lon="6.52071">
        <ele>1733.8</ele>
        <time>2026-07-12T12:09:44Z</time>
      </trkpt>
      <trkpt lat="45.75334" lon="6.52074">
        <ele>1733.8</ele>
        <time>2026-07-12T12:09:45Z</time>
      </trkpt>
      <trkpt lat="45.75335" lon="6.52078">
        <ele>1732.2</ele>
        <time>2026-07-12T12:09:46Z</time>
      </trkpt>
      <trkpt lat="45.75336" lon="6.52082">
        <ele>1730.4</ele>
        <time>2026-07-12T12:09:47Z</time>
      </trkpt>
      <trkpt lat="45.75338" lon="6.52085">
        <ele>1728.8</ele>
        <time>2026-07-12T12:09:48Z</time>
      </trkpt>
      <trkpt lat="45.75339" lon="6.52089">
        <ele>1728.8</ele>
        <time>2026-07-12T12:09:49Z</time>
      </trkpt>
      <trkpt lat="45.7534" lon="6.52093">
        <ele>1728.8</ele>
        <time>2026-07-12T12:09:50Z</time>
      </trkpt>
      <trkpt lat="45.75341" lon="6.52098">
        <ele>1728.8</ele>
        <time>2026-07-12T12:09:51Z</time>
      </trkpt>
      <trkpt lat="45.75342" lon="6.52102">
        <ele>1728.8</ele>
        <time>2026-07-12T12:09:52Z</time>
      </trkpt>
      <trkpt lat="45.75343" lon="6.52108">
        <ele>1728.8</ele>
        <time>2026-07-12T12:09:53Z</time>
      </trkpt>
      <trkpt lat="45.75345" lon="6.52114">
        <ele>1727.8</ele>
        <time>2026-07-12T12:09:54Z</time>
      </trkpt>
      <trkpt lat="45.75347" lon="6.52121">
        <ele>1726.8</ele>
        <time>2026-07-12T12:09:55Z</time>
      </trkpt>
      <trkpt lat="45.7535" lon="6.5213">
        <ele>1726.8</ele>
        <time>2026-07-12T12:09:56Z</time>
      </trkpt>
      <trkpt lat="45.75354" lon="6.52139">
        <ele>1726.8</ele>
        <time>2026-07-12T12:09:57Z</time>
      </trkpt>
      <trkpt lat="45.75357" lon="6.52149">
        <ele>1726.8</ele>
        <time>2026-07-12T12:09:58Z</time>
      </trkpt>
      <trkpt lat="45.75361" lon="6.52159">
        <ele>1725.8</ele>
        <time>2026-07-12T12:09:59Z</time>
      </trkpt>
      <trkpt lat="45.75364" lon="6.52168">
        <ele>1724.8</ele>
        <time>2026-07-12T12:10:00Z</time>
      </trkpt>
      <trkpt lat="45.75367" lon="6.52176">
        <ele>1723.8</ele>
        <time>2026-07-12T12:10:01Z</time>
      </trkpt>
      <trkpt lat="45.75369" lon="6.52185">
        <ele>1722.8</ele>
        <time>2026-07-12T12:10:02Z</time>
      </trkpt>
      <trkpt lat="45.75372" lon="6.52193">
        <ele>1721.8</ele>
        <time>2026-07-12T12:10:03Z</time>
      </trkpt>
      <trkpt lat="45.75373" lon="6.52201">
        <ele>1720.8</ele>
        <time>2026-07-12T12:10:04Z</time>
      </trkpt>
      <trkpt lat="45.75375" lon="6.52209">
        <ele>1720.4</ele>
        <time>2026-07-12T12:10:05Z</time>
      </trkpt>
      <trkpt lat="45.75376" lon="6.52215">
        <ele>1719.4</ele>
        <time>2026-07-12T12:10:06Z</time>
      </trkpt>
      <trkpt lat="45.75378" lon="6.52219">
        <ele>1718.4</ele>
        <time>2026-07-12T12:10:07Z</time>
      </trkpt>
      <trkpt lat="45.7538" lon="6.52223">
        <ele>1717.4</ele>
        <time>2026-07-12T12:10:08Z</time>
      </trkpt>
      <trkpt lat="45.75383" lon="6.52229">
        <ele>1716.4</ele>
        <time>2026-07-12T12:10:09Z</time>
      </trkpt>
      <trkpt lat="45.75385" lon="6.52235">
        <ele>1715.4</ele>
        <time>2026-07-12T12:10:10Z</time>
      </trkpt>
      <trkpt lat="45.75388" lon="6.52244">
        <ele>1714.4</ele>
        <time>2026-07-12T12:10:11Z</time>
      </trkpt>
      <trkpt lat="45.7539" lon="6.52251">
        <ele>1713.4</ele>
        <time>2026-07-12T12:10:12Z</time>
      </trkpt>
      <trkpt lat="45.75394" lon="6.5226">
        <ele>1712.4</ele>
        <time>2026-07-12T12:10:13Z</time>
      </trkpt>
      <trkpt lat="45.75397" lon="6.52269">
        <ele>1711.4</ele>
        <time>2026-07-12T12:10:14Z</time>
      </trkpt>
      <trkpt lat="45.75401" lon="6.52278">
        <ele>1706.6</ele>
        <time>2026-07-12T12:10:15Z</time>
      </trkpt>
      <trkpt lat="45.75403" lon="6.52286">
        <ele>1706.6</ele>
        <time>2026-07-12T12:10:16Z</time>
      </trkpt>
      <trkpt lat="45.75406" lon="6.52295">
        <ele>1706.6</ele>
        <time>2026-07-12T12:10:17Z</time>
      </trkpt>
      <trkpt lat="45.75408" lon="6.52303">
        <ele>1706.6</ele>
        <time>2026-07-12T12:10:18Z</time>
      </trkpt>
      <trkpt lat="45.7541" lon="6.5231">
        <ele>1705.6</ele>
        <time>2026-07-12T12:10:19Z</time>
      </trkpt>
      <trkpt lat="45.75412" lon="6.52318">
        <ele>1704.6</ele>
        <time>2026-07-12T12:10:20Z</time>
      </trkpt>
      <trkpt lat="45.75414" lon="6.52325">
        <ele>1703.6</ele>
        <time>2026-07-12T12:10:21Z</time>
      </trkpt>
      <trkpt lat="45.75416" lon="6.52332">
        <ele>1702.6</ele>
        <time>2026-07-12T12:10:22Z</time>
      </trkpt>
      <trkpt lat="45.75418" lon="6.52339">
        <ele>1702.6</ele>
        <time>2026-07-12T12:10:23Z</time>
      </trkpt>
      <trkpt lat="45.7542" lon="6.52346">
        <ele>1702.6</ele>
        <time>2026-07-12T12:10:24Z</time>
      </trkpt>
      <trkpt lat="45.75422" lon="6.52353">
        <ele>1702.6</ele>
        <time>2026-07-12T12:10:25Z</time>
      </trkpt>
      <trkpt lat="45.75424" lon="6.5236">
        <ele>1701.8</ele>
        <time>2026-07-12T12:10:26Z</time>
      </trkpt>
      <trkpt lat="45.75425" lon="6.52368">
        <ele>1700.8</ele>
        <time>2026-07-12T12:10:27Z</time>
      </trkpt>
      <trkpt lat="45.75428" lon="6.52375">
        <ele>1699.8</ele>
        <time>2026-07-12T12:10:28Z</time>
      </trkpt>
      <trkpt lat="45.75431" lon="6.52383">
        <ele>1699.8</ele>
        <time>2026-07-12T12:10:29Z</time>
      </trkpt>
      <trkpt lat="45.75433" lon="6.5239">
        <ele>1699.8</ele>
        <time>2026-07-12T12:10:30Z</time>
      </trkpt>
      <trkpt lat="45.75435" lon="6.52396">
        <ele>1699.8</ele>
        <time>2026-07-12T12:10:31Z</time>
      </trkpt>
      <trkpt lat="45.75438" lon="6.52401">
        <ele>1698.8</ele>
        <time>2026-07-12T12:10:32Z</time>
      </trkpt>
      <trkpt lat="45.7544" lon="6.52407">
        <ele>1697.8</ele>
        <time>2026-07-12T12:10:33Z</time>
      </trkpt>
      <trkpt lat="45.75441" lon="6.52413">
        <ele>1696.8</ele>
        <time>2026-07-12T12:10:34Z</time>
      </trkpt>
      <trkpt lat="45.75443" lon="6.52421">
        <ele>1695.8</ele>
        <time>2026-07-12T12:10:35Z</time>
      </trkpt>
      <trkpt lat="45.75445" lon="6.52427">
        <ele>1695</ele>
        <time>2026-07-12T12:10:36Z</time>
      </trkpt>
      <trkpt lat="45.75447" lon="6.52433">
        <ele>1692.2</ele>
        <time>2026-07-12T12:10:37Z</time>
      </trkpt>
      <trkpt lat="45.75449" lon="6.52438">
        <ele>1692</ele>
        <time>2026-07-12T12:10:38Z</time>
      </trkpt>
      <trkpt lat="45.75452" lon="6.52445">
        <ele>1692</ele>
        <time>2026-07-12T12:10:39Z</time>
      </trkpt>
      <trkpt lat="45.75454" lon="6.52452">
        <ele>1692</ele>
        <time>2026-07-12T12:10:40Z</time>
      </trkpt>
      <trkpt lat="45.75456" lon="6.52458">
        <ele>1693</ele>
        <time>2026-07-12T12:10:41Z</time>
      </trkpt>
      <trkpt lat="45.75457" lon="6.52465">
        <ele>1693</ele>
        <time>2026-07-12T12:10:42Z</time>
      </trkpt>
      <trkpt lat="45.75458" lon="6.5247">
        <ele>1693</ele>
        <time>2026-07-12T12:10:43Z</time>
      </trkpt>
      <trkpt lat="45.75459" lon="6.52475">
        <ele>1692</ele>
        <time>2026-07-12T12:10:44Z</time>
      </trkpt>
      <trkpt lat="45.7546" lon="6.52479">
        <ele>1691</ele>
        <time>2026-07-12T12:10:45Z</time>
      </trkpt>
      <trkpt lat="45.7546" lon="6.52481">
        <ele>1688</ele>
        <time>2026-07-12T12:10:46Z</time>
      </trkpt>
      <trkpt lat="45.75461" lon="6.52483">
        <ele>1687.6</ele>
        <time>2026-07-12T12:10:47Z</time>
      </trkpt>
      <trkpt lat="45.75461" lon="6.52486">
        <ele>1686.8</ele>
        <time>2026-07-12T12:10:48Z</time>
      </trkpt>
      <trkpt lat="45.75462" lon="6.52488">
        <ele>1686.8</ele>
        <time>2026-07-12T12:10:49Z</time>
      </trkpt>
      <trkpt lat="45.75464" lon="6.52491">
        <ele>1686.8</ele>
        <time>2026-07-12T12:10:50Z</time>
      </trkpt>
      <trkpt lat="45.75465" lon="6.52495">
        <ele>1686.8</ele>
        <time>2026-07-12T12:10:51Z</time>
      </trkpt>
      <trkpt lat="45.75467" lon="6.525">
        <ele>1686.8</ele>
        <time>2026-07-12T12:10:52Z</time>
      </trkpt>
      <trkpt lat="45.75469" lon="6.52504">
        <ele>1686.8</ele>
        <time>2026-07-12T12:10:53Z</time>
      </trkpt>
      <trkpt lat="45.75471" lon="6.52508">
        <ele>1685.8</ele>
        <time>2026-07-12T12:10:54Z</time>
      </trkpt>
      <trkpt lat="45.75473" lon="6.52513">
        <ele>1685.2</ele>
        <time>2026-07-12T12:10:55Z</time>
      </trkpt>
      <trkpt lat="45.75474" lon="6.52517">
        <ele>1684.2</ele>
        <time>2026-07-12T12:10:56Z</time>
      </trkpt>
      <trkpt lat="45.75476" lon="6.52521">
        <ele>1682</ele>
        <time>2026-07-12T12:10:57Z</time>
      </trkpt>
      <trkpt lat="45.75477" lon="6.52524">
        <ele>1680.8</ele>
        <time>2026-07-12T12:10:58Z</time>
      </trkpt>
      <trkpt lat="45.75478" lon="6.52525">
        <ele>1678.2</ele>
        <time>2026-07-12T12:10:59Z</time>
      </trkpt>
      <trkpt lat="45.75478" lon="6.52527">
        <ele>1678.2</ele>
        <time>2026-07-12T12:11:00Z</time>
      </trkpt>
      <trkpt lat="45.75478" lon="6.52528">
        <ele>1678.2</ele>
        <time>2026-07-12T12:11:01Z</time>
      </trkpt>
      <trkpt lat="45.75479" lon="6.52531">
        <ele>1678.2</ele>
        <time>2026-07-12T12:11:02Z</time>
      </trkpt>
      <trkpt lat="45.7548" lon="6.52533">
        <ele>1675.6</ele>
        <time>2026-07-12T12:11:03Z</time>
      </trkpt>
      <trkpt lat="45.75481" lon="6.52538">
        <ele>1675.4</ele>
        <time>2026-07-12T12:11:04Z</time>
      </trkpt>
      <trkpt lat="45.75483" lon="6.52542">
        <ele>1675</ele>
        <time>2026-07-12T12:11:05Z</time>
      </trkpt>
      <trkpt lat="45.75484" lon="6.52548">
        <ele>1674.4</ele>
        <time>2026-07-12T12:11:06Z</time>
      </trkpt>
      <trkpt lat="45.75485" lon="6.52552">
        <ele>1674.4</ele>
        <time>2026-07-12T12:11:07Z</time>
      </trkpt>
      <trkpt lat="45.75487" lon="6.52557">
        <ele>1674.4</ele>
        <time>2026-07-12T12:11:08Z</time>
      </trkpt>
      <trkpt lat="45.75488" lon="6.52563">
        <ele>1674.4</ele>
        <time>2026-07-12T12:11:09Z</time>
      </trkpt>
      <trkpt lat="45.7549" lon="6.52568">
        <ele>1673.8</ele>
        <time>2026-07-12T12:11:10Z</time>
      </trkpt>
      <trkpt lat="45.75491" lon="6.52573">
        <ele>1673.2</ele>
        <time>2026-07-12T12:11:11Z</time>
      </trkpt>
      <trkpt lat="45.75493" lon="6.5258">
        <ele>1672.2</ele>
        <time>2026-07-12T12:11:12Z</time>
      </trkpt>
      <trkpt lat="45.75494" lon="6.52585">
        <ele>1672</ele>
        <time>2026-07-12T12:11:13Z</time>
      </trkpt>
      <trkpt lat="45.75496" lon="6.52589">
        <ele>1671.6</ele>
        <time>2026-07-12T12:11:14Z</time>
      </trkpt>
      <trkpt lat="45.75497" lon="6.52592">
        <ele>1671.6</ele>
        <time>2026-07-12T12:11:15Z</time>
      </trkpt>
      <trkpt lat="45.75498" lon="6.52595">
        <ele>1671.6</ele>
        <time>2026-07-12T12:11:16Z</time>
      </trkpt>
      <trkpt lat="45.75499" lon="6.52598">
        <ele>1671.6</ele>
        <time>2026-07-12T12:11:17Z</time>
      </trkpt>
      <trkpt lat="45.755" lon="6.52599">
        <ele>1670.6</ele>
        <time>2026-07-12T12:11:18Z</time>
      </trkpt>
      <trkpt lat="45.75501" lon="6.52601">
        <ele>1669.8</ele>
        <time>2026-07-12T12:11:19Z</time>
      </trkpt>
      <trkpt lat="45.75501" lon="6.52602">
        <ele>1669.6</ele>
        <time>2026-07-12T12:11:20Z</time>
      </trkpt>
      <trkpt lat="45.75501" lon="6.52604">
        <ele>1669.6</ele>
        <time>2026-07-12T12:11:21Z</time>
      </trkpt>
      <trkpt lat="45.75501" lon="6.52607">
        <ele>1669.6</ele>
        <time>2026-07-12T12:11:22Z</time>
      </trkpt>
      <trkpt lat="45.75501" lon="6.5261">
        <ele>1669.6</ele>
        <time>2026-07-12T12:11:23Z</time>
      </trkpt>
      <trkpt lat="45.75501" lon="6.52613">
        <ele>1668.6</ele>
        <time>2026-07-12T12:11:24Z</time>
      </trkpt>
      <trkpt lat="45.75502" lon="6.52615">
        <ele>1667.8</ele>
        <time>2026-07-12T12:11:25Z</time>
      </trkpt>
      <trkpt lat="45.75503" lon="6.52617">
        <ele>1666.8</ele>
        <time>2026-07-12T12:11:26Z</time>
      </trkpt>
      <trkpt lat="45.75504" lon="6.5262">
        <ele>1665.8</ele>
        <time>2026-07-12T12:11:27Z</time>
      </trkpt>
      <trkpt lat="45.75504" lon="6.52623">
        <ele>1662</ele>
        <time>2026-07-12T12:11:28Z</time>
      </trkpt>
      <trkpt lat="45.75505" lon="6.52626">
        <ele>1662</ele>
        <time>2026-07-12T12:11:29Z</time>
      </trkpt>
      <trkpt lat="45.75505" lon="6.52629">
        <ele>1662</ele>
        <time>2026-07-12T12:11:30Z</time>
      </trkpt>
      <trkpt lat="45.75506" lon="6.52632">
        <ele>1662</ele>
        <time>2026-07-12T12:11:31Z</time>
      </trkpt>
      <trkpt lat="45.75507" lon="6.52635">
        <ele>1661</ele>
        <time>2026-07-12T12:11:32Z</time>
      </trkpt>
      <trkpt lat="45.75508" lon="6.52639">
        <ele>1660</ele>
        <time>2026-07-12T12:11:33Z</time>
      </trkpt>
      <trkpt lat="45.75509" lon="6.52645">
        <ele>1659</ele>
        <time>2026-07-12T12:11:34Z</time>
      </trkpt>
      <trkpt lat="45.75511" lon="6.52652">
        <ele>1658</ele>
        <time>2026-07-12T12:11:35Z</time>
      </trkpt>
      <trkpt lat="45.75513" lon="6.52659">
        <ele>1654</ele>
        <time>2026-07-12T12:11:36Z</time>
      </trkpt>
      <trkpt lat="45.75515" lon="6.52666">
        <ele>1653</ele>
        <time>2026-07-12T12:11:37Z</time>
      </trkpt>
      <trkpt lat="45.75516" lon="6.52672">
        <ele>1652.2</ele>
        <time>2026-07-12T12:11:38Z</time>
      </trkpt>
      <trkpt lat="45.75518" lon="6.52678">
        <ele>1650.2</ele>
        <time>2026-07-12T12:11:39Z</time>
      </trkpt>
      <trkpt lat="45.7552" lon="6.52684">
        <ele>1649.6</ele>
        <time>2026-07-12T12:11:40Z</time>
      </trkpt>
      <trkpt lat="45.75522" lon="6.52689">
        <ele>1648.6</ele>
        <time>2026-07-12T12:11:41Z</time>
      </trkpt>
      <trkpt lat="45.75524" lon="6.52694">
        <ele>1647.6</ele>
        <time>2026-07-12T12:11:42Z</time>
      </trkpt>
      <trkpt lat="45.75527" lon="6.52701">
        <ele>1647.2</ele>
        <time>2026-07-12T12:11:43Z</time>
      </trkpt>
      <trkpt lat="45.75529" lon="6.52707">
        <ele>1646.8</ele>
        <time>2026-07-12T12:11:44Z</time>
      </trkpt>
      <trkpt lat="45.75531" lon="6.52713">
        <ele>1646</ele>
        <time>2026-07-12T12:11:45Z</time>
      </trkpt>
      <trkpt lat="45.75532" lon="6.52718">
        <ele>1645.6</ele>
        <time>2026-07-12T12:11:46Z</time>
      </trkpt>
      <trkpt lat="45.75534" lon="6.52723">
        <ele>1645.4</ele>
        <time>2026-07-12T12:11:47Z</time>
      </trkpt>
      <trkpt lat="45.75537" lon="6.52728">
        <ele>1645.4</ele>
        <time>2026-07-12T12:11:48Z</time>
      </trkpt>
      <trkpt lat="45.75539" lon="6.52733">
        <ele>1645.4</ele>
        <time>2026-07-12T12:11:49Z</time>
      </trkpt>
      <trkpt lat="45.75549" lon="6.52756">
        <ele>1645</ele>
        <time>2026-07-12T12:12:01Z</time>
      </trkpt>
      <trkpt lat="45.75549" lon="6.52756">
        <ele>1642.8</ele>
        <time>2026-07-12T12:12:02Z</time>
      </trkpt>
      <trkpt lat="45.75549" lon="6.52756">
        <ele>1641.8</ele>
        <time>2026-07-12T12:12:03Z</time>
      </trkpt>
      <trkpt lat="45.75549" lon="6.52756">
        <ele>1641.6</ele>
        <time>2026-07-12T12:12:04Z</time>
      </trkpt>
      <trkpt lat="45.75549" lon="6.52756">
        <ele>1641.2</ele>
        <time>2026-07-12T12:12:05Z</time>
      </trkpt>
      <trkpt lat="45.75549" lon="6.52756">
        <ele>1639.8</ele>
        <time>2026-07-12T12:12:06Z</time>
      </trkpt>
      <trkpt lat="45.75549" lon="6.52756">
        <ele>1638.8</ele>
        <time>2026-07-12T12:12:07Z</time>
      </trkpt>
      <trkpt lat="45.75549" lon="6.52756">
        <ele>1636.8</ele>
        <time>2026-07-12T12:12:08Z</time>
      </trkpt>
      <trkpt lat="45.75549" lon="6.52756">
        <ele>1636.6</ele>
        <time>2026-07-12T12:12:09Z</time>
      </trkpt>
      <trkpt lat="45.75549" lon="6.52757">
        <ele>1635.6</ele>
        <time>2026-07-12T12:12:10Z</time>
      </trkpt>
      <trkpt lat="45.7555" lon="6.5276">
        <ele>1633.8</ele>
        <time>2026-07-12T12:12:11Z</time>
      </trkpt>
      <trkpt lat="45.75551" lon="6.52762">
        <ele>1633</ele>
        <time>2026-07-12T12:12:12Z</time>
      </trkpt>
      <trkpt lat="45.75551" lon="6.52765">
        <ele>1633</ele>
        <time>2026-07-12T12:12:13Z</time>
      </trkpt>
      <trkpt lat="45.75552" lon="6.52767">
        <ele>1632.4</ele>
        <time>2026-07-12T12:12:14Z</time>
      </trkpt>
      <trkpt lat="45.75553" lon="6.5277">
        <ele>1631.4</ele>
        <time>2026-07-12T12:12:15Z</time>
      </trkpt>
      <trkpt lat="45.75554" lon="6.52773">
        <ele>1629.8</ele>
        <time>2026-07-12T12:12:16Z</time>
      </trkpt>
      <trkpt lat="45.75555" lon="6.52776">
        <ele>1629.8</ele>
        <time>2026-07-12T12:12:17Z</time>
      </trkpt>
      <trkpt lat="45.75557" lon="6.52779">
        <ele>1629.8</ele>
        <time>2026-07-12T12:12:18Z</time>
      </trkpt>
      <trkpt lat="45.75558" lon="6.52782">
        <ele>1629.8</ele>
        <time>2026-07-12T12:12:19Z</time>
      </trkpt>
      <trkpt lat="45.7556" lon="6.52785">
        <ele>1629.2</ele>
        <time>2026-07-12T12:12:20Z</time>
      </trkpt>
      <trkpt lat="45.7556" lon="6.52789">
        <ele>1629</ele>
        <time>2026-07-12T12:12:21Z</time>
      </trkpt>
      <trkpt lat="45.75561" lon="6.52793">
        <ele>1628</ele>
        <time>2026-07-12T12:12:22Z</time>
      </trkpt>
      <trkpt lat="45.75561" lon="6.52797">
        <ele>1619.8</ele>
        <time>2026-07-12T12:12:23Z</time>
      </trkpt>
      <trkpt lat="45.75562" lon="6.528">
        <ele>1619.8</ele>
        <time>2026-07-12T12:12:24Z</time>
      </trkpt>
      <trkpt lat="45.75563" lon="6.52804">
        <ele>1619.8</ele>
        <time>2026-07-12T12:12:25Z</time>
      </trkpt>
      <trkpt lat="45.75564" lon="6.52809">
        <ele>1620.6</ele>
        <time>2026-07-12T12:12:26Z</time>
      </trkpt>
      <trkpt lat="45.75566" lon="6.52814">
        <ele>1621.6</ele>
        <time>2026-07-12T12:12:27Z</time>
      </trkpt>
      <trkpt lat="45.75567" lon="6.52818">
        <ele>1621.6</ele>
        <time>2026-07-12T12:12:28Z</time>
      </trkpt>
      <trkpt lat="45.75568" lon="6.52822">
        <ele>1621.6</ele>
        <time>2026-07-12T12:12:29Z</time>
      </trkpt>
      <trkpt lat="45.75569" lon="6.52825">
        <ele>1617.2</ele>
        <time>2026-07-12T12:12:30Z</time>
      </trkpt>
      <trkpt lat="45.7557" lon="6.52829">
        <ele>1617.2</ele>
        <time>2026-07-12T12:12:31Z</time>
      </trkpt>
      <trkpt lat="45.75571" lon="6.52835">
        <ele>1617.2</ele>
        <time>2026-07-12T12:12:32Z</time>
      </trkpt>
      <trkpt lat="45.75573" lon="6.52841">
        <ele>1617.2</ele>
        <time>2026-07-12T12:12:33Z</time>
      </trkpt>
      <trkpt lat="45.75575" lon="6.52845">
        <ele>1617.2</ele>
        <time>2026-07-12T12:12:34Z</time>
      </trkpt>
      <trkpt lat="45.75576" lon="6.5285">
        <ele>1617.2</ele>
        <time>2026-07-12T12:12:35Z</time>
      </trkpt>
      <trkpt lat="45.75578" lon="6.52854">
        <ele>1617.2</ele>
        <time>2026-07-12T12:12:36Z</time>
      </trkpt>
      <trkpt lat="45.7558" lon="6.5286">
        <ele>1617.2</ele>
        <time>2026-07-12T12:12:37Z</time>
      </trkpt>
      <trkpt lat="45.75582" lon="6.52866">
        <ele>1617.2</ele>
        <time>2026-07-12T12:12:38Z</time>
      </trkpt>
      <trkpt lat="45.75584" lon="6.52874">
        <ele>1617.2</ele>
        <time>2026-07-12T12:12:39Z</time>
      </trkpt>
      <trkpt lat="45.75586" lon="6.52882">
        <ele>1614.2</ele>
        <time>2026-07-12T12:12:40Z</time>
      </trkpt>
      <trkpt lat="45.75589" lon="6.52891">
        <ele>1613.6</ele>
        <time>2026-07-12T12:12:41Z</time>
      </trkpt>
      <trkpt lat="45.75592" lon="6.52901">
        <ele>1613.2</ele>
        <time>2026-07-12T12:12:42Z</time>
      </trkpt>
      <trkpt lat="45.75595" lon="6.52909">
        <ele>1613.2</ele>
        <time>2026-07-12T12:12:43Z</time>
      </trkpt>
      <trkpt lat="45.75597" lon="6.52918">
        <ele>1614.2</ele>
        <time>2026-07-12T12:12:44Z</time>
      </trkpt>
      <trkpt lat="45.75598" lon="6.52926">
        <ele>1614.2</ele>
        <time>2026-07-12T12:12:45Z</time>
      </trkpt>
      <trkpt lat="45.756" lon="6.52934">
        <ele>1614.2</ele>
        <time>2026-07-12T12:12:46Z</time>
      </trkpt>
      <trkpt lat="45.75602" lon="6.52941">
        <ele>1613.2</ele>
        <time>2026-07-12T12:12:47Z</time>
      </trkpt>
      <trkpt lat="45.75603" lon="6.52948">
        <ele>1613.2</ele>
        <time>2026-07-12T12:12:48Z</time>
      </trkpt>
      <trkpt lat="45.75604" lon="6.52955">
        <ele>1613.2</ele>
        <time>2026-07-12T12:12:49Z</time>
      </trkpt>
      <trkpt lat="45.75606" lon="6.52962">
        <ele>1613.4</ele>
        <time>2026-07-12T12:12:50Z</time>
      </trkpt>
      <trkpt lat="45.75607" lon="6.52969">
        <ele>1613.4</ele>
        <time>2026-07-12T12:12:51Z</time>
      </trkpt>
      <trkpt lat="45.75608" lon="6.52977">
        <ele>1612.6</ele>
        <time>2026-07-12T12:12:52Z</time>
      </trkpt>
      <trkpt lat="45.75608" lon="6.52984">
        <ele>1612.6</ele>
        <time>2026-07-12T12:12:53Z</time>
      </trkpt>
      <trkpt lat="45.75609" lon="6.52991">
        <ele>1612.6</ele>
        <time>2026-07-12T12:12:54Z</time>
      </trkpt>
      <trkpt lat="45.75608" lon="6.52996">
        <ele>1612.6</ele>
        <time>2026-07-12T12:12:55Z</time>
      </trkpt>
      <trkpt lat="45.75607" lon="6.53">
        <ele>1612.6</ele>
        <time>2026-07-12T12:12:56Z</time>
      </trkpt>
      <trkpt lat="45.75606" lon="6.53003">
        <ele>1612.6</ele>
        <time>2026-07-12T12:12:57Z</time>
      </trkpt>
      <trkpt lat="45.75605" lon="6.53005">
        <ele>1613</ele>
        <time>2026-07-12T12:12:58Z</time>
      </trkpt>
      <trkpt lat="45.75603" lon="6.53007">
        <ele>1613</ele>
        <time>2026-07-12T12:12:59Z</time>
      </trkpt>
      <trkpt lat="45.75601" lon="6.53009">
        <ele>1613</ele>
        <time>2026-07-12T12:13:00Z</time>
      </trkpt>
      <trkpt lat="45.75599" lon="6.53011">
        <ele>1612.4</ele>
        <time>2026-07-12T12:13:01Z</time>
      </trkpt>
      <trkpt lat="45.75597" lon="6.53014">
        <ele>1612.4</ele>
        <time>2026-07-12T12:13:02Z</time>
      </trkpt>
      <trkpt lat="45.75596" lon="6.53017">
        <ele>1612.2</ele>
        <time>2026-07-12T12:13:03Z</time>
      </trkpt>
      <trkpt lat="45.75595" lon="6.53019">
        <ele>1612</ele>
        <time>2026-07-12T12:13:04Z</time>
      </trkpt>
      <trkpt lat="45.75594" lon="6.5302">
        <ele>1612</ele>
        <time>2026-07-12T12:13:05Z</time>
      </trkpt>
      <trkpt lat="45.75593" lon="6.53022">
        <ele>1612</ele>
        <time>2026-07-12T12:13:06Z</time>
      </trkpt>
      <trkpt lat="45.75592" lon="6.53023">
        <ele>1612</ele>
        <time>2026-07-12T12:13:07Z</time>
      </trkpt>
      <trkpt lat="45.75591" lon="6.53026">
        <ele>1612</ele>
        <time>2026-07-12T12:13:08Z</time>
      </trkpt>
      <trkpt lat="45.75591" lon="6.53029">
        <ele>1612</ele>
        <time>2026-07-12T12:13:09Z</time>
      </trkpt>
      <trkpt lat="45.75592" lon="6.53033">
        <ele>1612</ele>
        <time>2026-07-12T12:13:10Z</time>
      </trkpt>
      <trkpt lat="45.75592" lon="6.53037">
        <ele>1612</ele>
        <time>2026-07-12T12:13:11Z</time>
      </trkpt>
      <trkpt lat="45.75592" lon="6.5304">
        <ele>1612</ele>
        <time>2026-07-12T12:13:12Z</time>
      </trkpt>
      <trkpt lat="45.75598" lon="6.53064">
        <ele>1611.8</ele>
        <time>2026-07-12T12:14:30Z</time>
      </trkpt>
      <trkpt lat="45.75598" lon="6.53064">
        <ele>1610.6</ele>
        <time>2026-07-12T12:14:31Z</time>
      </trkpt>
      <trkpt lat="45.75598" lon="6.53064">
        <ele>1610.6</ele>
        <time>2026-07-12T12:14:32Z</time>
      </trkpt>
      <trkpt lat="45.75598" lon="6.53064">
        <ele>1610.6</ele>
        <time>2026-07-12T12:14:33Z</time>
      </trkpt>
      <trkpt lat="45.75598" lon="6.53064">
        <ele>1611.2</ele>
        <time>2026-07-12T12:14:34Z</time>
      </trkpt>
      <trkpt lat="45.75598" lon="6.53064">
        <ele>1611.2</ele>
        <time>2026-07-12T12:14:35Z</time>
      </trkpt>
      <trkpt lat="45.75598" lon="6.53064">
        <ele>1611.2</ele>
        <time>2026-07-12T12:14:36Z</time>
      </trkpt>
      <trkpt lat="45.75598" lon="6.53064">
        <ele>1611.2</ele>
        <time>2026-07-12T12:14:37Z</time>
      </trkpt>
      <trkpt lat="45.75597" lon="6.53065">
        <ele>1611.2</ele>
        <time>2026-07-12T12:14:38Z</time>
      </trkpt>
      <trkpt lat="45.75597" lon="6.53069">
        <ele>1611.2</ele>
        <time>2026-07-12T12:14:39Z</time>
      </trkpt>
      <trkpt lat="45.75596" lon="6.53073">
        <ele>1611.2</ele>
        <time>2026-07-12T12:14:40Z</time>
      </trkpt>
      <trkpt lat="45.75595" lon="6.53077">
        <ele>1611.2</ele>
        <time>2026-07-12T12:14:41Z</time>
      </trkpt>
      <trkpt lat="45.75594" lon="6.53081">
        <ele>1610.8</ele>
        <time>2026-07-12T12:14:42Z</time>
      </trkpt>
      <trkpt lat="45.75592" lon="6.53085">
        <ele>1610.4</ele>
        <time>2026-07-12T12:14:43Z</time>
      </trkpt>
      <trkpt lat="45.7559" lon="6.53089">
        <ele>1610.4</ele>
        <time>2026-07-12T12:14:44Z</time>
      </trkpt>
      <trkpt lat="45.75587" lon="6.53093">
        <ele>1610.4</ele>
        <time>2026-07-12T12:14:45Z</time>
      </trkpt>
      <trkpt lat="45.75585" lon="6.53096">
        <ele>1610.4</ele>
        <time>2026-07-12T12:14:46Z</time>
      </trkpt>
      <trkpt lat="45.75584" lon="6.531">
        <ele>1610.4</ele>
        <time>2026-07-12T12:14:47Z</time>
      </trkpt>
      <trkpt lat="45.75582" lon="6.53104">
        <ele>1610.4</ele>
        <time>2026-07-12T12:14:48Z</time>
      </trkpt>
      <trkpt lat="45.7558" lon="6.53108">
        <ele>1609.4</ele>
        <time>2026-07-12T12:14:49Z</time>
      </trkpt>
      <trkpt lat="45.75579" lon="6.53113">
        <ele>1609.4</ele>
        <time>2026-07-12T12:14:50Z</time>
      </trkpt>
      <trkpt lat="45.75577" lon="6.53117">
        <ele>1609.4</ele>
        <time>2026-07-12T12:14:51Z</time>
      </trkpt>
      <trkpt lat="45.75575" lon="6.5312">
        <ele>1610</ele>
        <time>2026-07-12T12:14:52Z</time>
      </trkpt>
      <trkpt lat="45.75572" lon="6.53124">
        <ele>1610</ele>
        <time>2026-07-12T12:14:53Z</time>
      </trkpt>
      <trkpt lat="45.7557" lon="6.53128">
        <ele>1610</ele>
        <time>2026-07-12T12:14:54Z</time>
      </trkpt>
      <trkpt lat="45.75567" lon="6.53131">
        <ele>1609</ele>
        <time>2026-07-12T12:14:55Z</time>
      </trkpt>
      <trkpt lat="45.75564" lon="6.53135">
        <ele>1609</ele>
        <time>2026-07-12T12:14:56Z</time>
      </trkpt>
      <trkpt lat="45.7556" lon="6.53138">
        <ele>1609</ele>
        <time>2026-07-12T12:14:57Z</time>
      </trkpt>
      <trkpt lat="45.75557" lon="6.53141">
        <ele>1609.4</ele>
        <time>2026-07-12T12:14:58Z</time>
      </trkpt>
      <trkpt lat="45.75553" lon="6.53144">
        <ele>1609.4</ele>
        <time>2026-07-12T12:14:59Z</time>
      </trkpt>
      <trkpt lat="45.7555" lon="6.53147">
        <ele>1609.4</ele>
        <time>2026-07-12T12:15:00Z</time>
      </trkpt>
      <trkpt lat="45.75547" lon="6.5315">
        <ele>1609</ele>
        <time>2026-07-12T12:15:01Z</time>
      </trkpt>
      <trkpt lat="45.75544" lon="6.53153">
        <ele>1609</ele>
        <time>2026-07-12T12:15:02Z</time>
      </trkpt>
      <trkpt lat="45.75541" lon="6.53155">
        <ele>1609</ele>
        <time>2026-07-12T12:15:03Z</time>
      </trkpt>
      <trkpt lat="45.75538" lon="6.53158">
        <ele>1609</ele>
        <time>2026-07-12T12:15:04Z</time>
      </trkpt>
      <trkpt lat="45.75535" lon="6.53161">
        <ele>1608.6</ele>
        <time>2026-07-12T12:15:05Z</time>
      </trkpt>
      <trkpt lat="45.75532" lon="6.53164">
        <ele>1608.4</ele>
        <time>2026-07-12T12:15:06Z</time>
      </trkpt>
      <trkpt lat="45.75529" lon="6.53167">
        <ele>1608.4</ele>
        <time>2026-07-12T12:15:07Z</time>
      </trkpt>
      <trkpt lat="45.75526" lon="6.5317">
        <ele>1608.4</ele>
        <time>2026-07-12T12:15:08Z</time>
      </trkpt>
      <trkpt lat="45.75523" lon="6.53173">
        <ele>1607.8</ele>
        <time>2026-07-12T12:15:09Z</time>
      </trkpt>
      <trkpt lat="45.75519" lon="6.53176">
        <ele>1607.8</ele>
        <time>2026-07-12T12:15:10Z</time>
      </trkpt>
      <trkpt lat="45.75516" lon="6.53179">
        <ele>1607.8</ele>
        <time>2026-07-12T12:15:11Z</time>
      </trkpt>
      <trkpt lat="45.75513" lon="6.53182">
        <ele>1607.8</ele>
        <time>2026-07-12T12:15:12Z</time>
      </trkpt>
      <trkpt lat="45.7551" lon="6.53185">
        <ele>1607.8</ele>
        <time>2026-07-12T12:15:13Z</time>
      </trkpt>
      <trkpt lat="45.75506" lon="6.53188">
        <ele>1607.8</ele>
        <time>2026-07-12T12:15:14Z</time>
      </trkpt>
      <trkpt lat="45.75503" lon="6.53192">
        <ele>1607.8</ele>
        <time>2026-07-12T12:15:15Z</time>
      </trkpt>
      <trkpt lat="45.755" lon="6.53196">
        <ele>1607.8</ele>
        <time>2026-07-12T12:15:16Z</time>
      </trkpt>
      <trkpt lat="45.75498" lon="6.532">
        <ele>1607.8</ele>
        <time>2026-07-12T12:15:17Z</time>
      </trkpt>
      <trkpt lat="45.75495" lon="6.53204">
        <ele>1607.8</ele>
        <time>2026-07-12T12:15:18Z</time>
      </trkpt>
      <trkpt lat="45.75493" lon="6.53208">
        <ele>1606.6</ele>
        <time>2026-07-12T12:15:19Z</time>
      </trkpt>
      <trkpt lat="45.7549" lon="6.53213">
        <ele>1606.6</ele>
        <time>2026-07-12T12:15:20Z</time>
      </trkpt>
      <trkpt lat="45.75488" lon="6.53217">
        <ele>1606.6</ele>
        <time>2026-07-12T12:15:21Z</time>
      </trkpt>
      <trkpt lat="45.75486" lon="6.53221">
        <ele>1608</ele>
        <time>2026-07-12T12:15:22Z</time>
      </trkpt>
      <trkpt lat="45.75485" lon="6.53227">
        <ele>1608</ele>
        <time>2026-07-12T12:15:23Z</time>
      </trkpt>
      <trkpt lat="45.75483" lon="6.53233">
        <ele>1608</ele>
        <time>2026-07-12T12:15:24Z</time>
      </trkpt>
      <trkpt lat="45.75483" lon="6.53239">
        <ele>1607</ele>
        <time>2026-07-12T12:15:25Z</time>
      </trkpt>
      <trkpt lat="45.75484" lon="6.53246">
        <ele>1606.2</ele>
        <time>2026-07-12T12:15:26Z</time>
      </trkpt>
      <trkpt lat="45.75485" lon="6.53253">
        <ele>1606.2</ele>
        <time>2026-07-12T12:15:27Z</time>
      </trkpt>
      <trkpt lat="45.75485" lon="6.53261">
        <ele>1606.2</ele>
        <time>2026-07-12T12:15:28Z</time>
      </trkpt>
      <trkpt lat="45.75485" lon="6.53268">
        <ele>1607</ele>
        <time>2026-07-12T12:15:29Z</time>
      </trkpt>
      <trkpt lat="45.75484" lon="6.53276">
        <ele>1607</ele>
        <time>2026-07-12T12:15:30Z</time>
      </trkpt>
      <trkpt lat="45.75483" lon="6.53282">
        <ele>1607</ele>
        <time>2026-07-12T12:15:31Z</time>
      </trkpt>
      <trkpt lat="45.75482" lon="6.53289">
        <ele>1606.8</ele>
        <time>2026-07-12T12:15:32Z</time>
      </trkpt>
      <trkpt lat="45.75483" lon="6.53295">
        <ele>1606.2</ele>
        <time>2026-07-12T12:15:33Z</time>
      </trkpt>
      <trkpt lat="45.75483" lon="6.533">
        <ele>1606.2</ele>
        <time>2026-07-12T12:15:34Z</time>
      </trkpt>
      <trkpt lat="45.75482" lon="6.53306">
        <ele>1606</ele>
        <time>2026-07-12T12:15:35Z</time>
      </trkpt>
      <trkpt lat="45.75481" lon="6.53312">
        <ele>1606</ele>
        <time>2026-07-12T12:15:36Z</time>
      </trkpt>
      <trkpt lat="45.75478" lon="6.53316">
        <ele>1606</ele>
        <time>2026-07-12T12:15:37Z</time>
      </trkpt>
      <trkpt lat="45.75475" lon="6.53319">
        <ele>1606.2</ele>
        <time>2026-07-12T12:15:38Z</time>
      </trkpt>
      <trkpt lat="45.75473" lon="6.53323">
        <ele>1606.2</ele>
        <time>2026-07-12T12:15:39Z</time>
      </trkpt>
      <trkpt lat="45.7547" lon="6.53326">
        <ele>1605.8</ele>
        <time>2026-07-12T12:15:40Z</time>
      </trkpt>
      <trkpt lat="45.75468" lon="6.5333">
        <ele>1605.6</ele>
        <time>2026-07-12T12:15:41Z</time>
      </trkpt>
      <trkpt lat="45.75467" lon="6.53335">
        <ele>1605</ele>
        <time>2026-07-12T12:15:42Z</time>
      </trkpt>
      <trkpt lat="45.75466" lon="6.53338">
        <ele>1605</ele>
        <time>2026-07-12T12:15:43Z</time>
      </trkpt>
      <trkpt lat="45.75466" lon="6.53341">
        <ele>1605</ele>
        <time>2026-07-12T12:15:44Z</time>
      </trkpt>
      <trkpt lat="45.75465" lon="6.53345">
        <ele>1605</ele>
        <time>2026-07-12T12:15:45Z</time>
      </trkpt>
      <trkpt lat="45.75465" lon="6.53349">
        <ele>1605</ele>
        <time>2026-07-12T12:15:46Z</time>
      </trkpt>
      <trkpt lat="45.75465" lon="6.53353">
        <ele>1605</ele>
        <time>2026-07-12T12:15:47Z</time>
      </trkpt>
      <trkpt lat="45.75464" lon="6.53358">
        <ele>1604.8</ele>
        <time>2026-07-12T12:15:48Z</time>
      </trkpt>
      <trkpt lat="45.75463" lon="6.53364">
        <ele>1604.8</ele>
        <time>2026-07-12T12:15:49Z</time>
      </trkpt>
      <trkpt lat="45.75463" lon="6.53369">
        <ele>1604.8</ele>
        <time>2026-07-12T12:15:50Z</time>
      </trkpt>
      <trkpt lat="45.75463" lon="6.53375">
        <ele>1604.8</ele>
        <time>2026-07-12T12:15:51Z</time>
      </trkpt>
      <trkpt lat="45.75462" lon="6.53381">
        <ele>1604.8</ele>
        <time>2026-07-12T12:15:52Z</time>
      </trkpt>
      <trkpt lat="45.75462" lon="6.53387">
        <ele>1604.6</ele>
        <time>2026-07-12T12:15:53Z</time>
      </trkpt>
      <trkpt lat="45.75462" lon="6.53394">
        <ele>1604.6</ele>
        <time>2026-07-12T12:15:54Z</time>
      </trkpt>
      <trkpt lat="45.75461" lon="6.53401">
        <ele>1604.6</ele>
        <time>2026-07-12T12:15:55Z</time>
      </trkpt>
      <trkpt lat="45.75461" lon="6.53407">
        <ele>1605.4</ele>
        <time>2026-07-12T12:15:56Z</time>
      </trkpt>
      <trkpt lat="45.75461" lon="6.53414">
        <ele>1605.4</ele>
        <time>2026-07-12T12:15:57Z</time>
      </trkpt>
      <trkpt lat="45.75462" lon="6.53421">
        <ele>1606.4</ele>
        <time>2026-07-12T12:15:58Z</time>
      </trkpt>
      <trkpt lat="45.75462" lon="6.53428">
        <ele>1606.8</ele>
        <time>2026-07-12T12:15:59Z</time>
      </trkpt>
      <trkpt lat="45.75463" lon="6.53433">
        <ele>1607.2</ele>
        <time>2026-07-12T12:16:00Z</time>
      </trkpt>
      <trkpt lat="45.75463" lon="6.53439">
        <ele>1607.6</ele>
        <time>2026-07-12T12:16:01Z</time>
      </trkpt>
      <trkpt lat="45.75463" lon="6.53444">
        <ele>1609.4</ele>
        <time>2026-07-12T12:16:02Z</time>
      </trkpt>
      <trkpt lat="45.75464" lon="6.53449">
        <ele>1609.4</ele>
        <time>2026-07-12T12:16:03Z</time>
      </trkpt>
      <trkpt lat="45.75464" lon="6.53453">
        <ele>1609.4</ele>
        <time>2026-07-12T12:16:04Z</time>
      </trkpt>
      <trkpt lat="45.75464" lon="6.53457">
        <ele>1609.4</ele>
        <time>2026-07-12T12:16:05Z</time>
      </trkpt>
      <trkpt lat="45.75465" lon="6.53462">
        <ele>1610.6</ele>
        <time>2026-07-12T12:16:06Z</time>
      </trkpt>
      <trkpt lat="45.75466" lon="6.53467">
        <ele>1610.8</ele>
        <time>2026-07-12T12:16:07Z</time>
      </trkpt>
      <trkpt lat="45.75468" lon="6.53472">
        <ele>1611.4</ele>
        <time>2026-07-12T12:16:08Z</time>
      </trkpt>
      <trkpt lat="45.75471" lon="6.53477">
        <ele>1611.6</ele>
        <time>2026-07-12T12:16:09Z</time>
      </trkpt>
      <trkpt lat="45.75474" lon="6.53481">
        <ele>1612</ele>
        <time>2026-07-12T12:16:10Z</time>
      </trkpt>
      <trkpt lat="45.75478" lon="6.53484">
        <ele>1612.4</ele>
        <time>2026-07-12T12:16:11Z</time>
      </trkpt>
      <trkpt lat="45.75482" lon="6.53487">
        <ele>1612.4</ele>
        <time>2026-07-12T12:16:12Z</time>
      </trkpt>
      <trkpt lat="45.75486" lon="6.53489">
        <ele>1612.4</ele>
        <time>2026-07-12T12:16:13Z</time>
      </trkpt>
      <trkpt lat="45.7549" lon="6.53491">
        <ele>1610.8</ele>
        <time>2026-07-12T12:16:14Z</time>
      </trkpt>
      <trkpt lat="45.75494" lon="6.53492">
        <ele>1610.8</ele>
        <time>2026-07-12T12:16:15Z</time>
      </trkpt>
      <trkpt lat="45.75498" lon="6.53493">
        <ele>1610.8</ele>
        <time>2026-07-12T12:16:16Z</time>
      </trkpt>
      <trkpt lat="45.75502" lon="6.53494">
        <ele>1610.8</ele>
        <time>2026-07-12T12:16:17Z</time>
      </trkpt>
      <trkpt lat="45.75505" lon="6.53495">
        <ele>1610.8</ele>
        <time>2026-07-12T12:16:18Z</time>
      </trkpt>
      <trkpt lat="45.75508" lon="6.53497">
        <ele>1610.8</ele>
        <time>2026-07-12T12:16:19Z</time>
      </trkpt>
      <trkpt lat="45.75511" lon="6.53499">
        <ele>1610.8</ele>
        <time>2026-07-12T12:16:20Z</time>
      </trkpt>
      <trkpt lat="45.75514" lon="6.53502">
        <ele>1610.8</ele>
        <time>2026-07-12T12:16:21Z</time>
      </trkpt>
      <trkpt lat="45.75517" lon="6.53504">
        <ele>1610.8</ele>
        <time>2026-07-12T12:16:22Z</time>
      </trkpt>
      <trkpt lat="45.7552" lon="6.53508">
        <ele>1610.8</ele>
        <time>2026-07-12T12:16:23Z</time>
      </trkpt>
      <trkpt lat="45.75523" lon="6.53512">
        <ele>1610.8</ele>
        <time>2026-07-12T12:16:24Z</time>
      </trkpt>
      <trkpt lat="45.75526" lon="6.53516">
        <ele>1610.8</ele>
        <time>2026-07-12T12:16:25Z</time>
      </trkpt>
      <trkpt lat="45.75528" lon="6.5352">
        <ele>1610.8</ele>
        <time>2026-07-12T12:16:26Z</time>
      </trkpt>
      <trkpt lat="45.75531" lon="6.53525">
        <ele>1610.8</ele>
        <time>2026-07-12T12:16:27Z</time>
      </trkpt>
      <trkpt lat="45.75533" lon="6.53529">
        <ele>1610.8</ele>
        <time>2026-07-12T12:16:28Z</time>
      </trkpt>
      <trkpt lat="45.75536" lon="6.53534">
        <ele>1610.8</ele>
        <time>2026-07-12T12:16:29Z</time>
      </trkpt>
      <trkpt lat="45.75538" lon="6.53538">
        <ele>1610</ele>
        <time>2026-07-12T12:16:30Z</time>
      </trkpt>
      <trkpt lat="45.75541" lon="6.53543">
        <ele>1610</ele>
        <time>2026-07-12T12:16:31Z</time>
      </trkpt>
      <trkpt lat="45.75544" lon="6.53547">
        <ele>1610</ele>
        <time>2026-07-12T12:16:32Z</time>
      </trkpt>
      <trkpt lat="45.75547" lon="6.53552">
        <ele>1612.4</ele>
        <time>2026-07-12T12:16:33Z</time>
      </trkpt>
      <trkpt lat="45.7555" lon="6.53556">
        <ele>1612.4</ele>
        <time>2026-07-12T12:16:34Z</time>
      </trkpt>
      <trkpt lat="45.75553" lon="6.53559">
        <ele>1612.4</ele>
        <time>2026-07-12T12:16:35Z</time>
      </trkpt>
      <trkpt lat="45.75556" lon="6.53563">
        <ele>1612.2</ele>
        <time>2026-07-12T12:16:36Z</time>
      </trkpt>
      <trkpt lat="45.75559" lon="6.53567">
        <ele>1612.2</ele>
        <time>2026-07-12T12:16:37Z</time>
      </trkpt>
      <trkpt lat="45.75562" lon="6.53571">
        <ele>1612.4</ele>
        <time>2026-07-12T12:16:38Z</time>
      </trkpt>
      <trkpt lat="45.75565" lon="6.53575">
        <ele>1612.8</ele>
        <time>2026-07-12T12:16:39Z</time>
      </trkpt>
      <trkpt lat="45.75567" lon="6.5358">
        <ele>1613</ele>
        <time>2026-07-12T12:16:40Z</time>
      </trkpt>
      <trkpt lat="45.7557" lon="6.53584">
        <ele>1613.6</ele>
        <time>2026-07-12T12:16:41Z</time>
      </trkpt>
      <trkpt lat="45.75574" lon="6.53589">
        <ele>1613.6</ele>
        <time>2026-07-12T12:16:42Z</time>
      </trkpt>
      <trkpt lat="45.75577" lon="6.53593">
        <ele>1614</ele>
        <time>2026-07-12T12:16:43Z</time>
      </trkpt>
      <trkpt lat="45.7558" lon="6.53598">
        <ele>1614</ele>
        <time>2026-07-12T12:16:44Z</time>
      </trkpt>
      <trkpt lat="45.75584" lon="6.53602">
        <ele>1614</ele>
        <time>2026-07-12T12:16:45Z</time>
      </trkpt>
      <trkpt lat="45.75587" lon="6.53606">
        <ele>1614</ele>
        <time>2026-07-12T12:16:46Z</time>
      </trkpt>
      <trkpt lat="45.7559" lon="6.53611">
        <ele>1614</ele>
        <time>2026-07-12T12:16:47Z</time>
      </trkpt>
      <trkpt lat="45.75593" lon="6.53616">
        <ele>1614</ele>
        <time>2026-07-12T12:16:48Z</time>
      </trkpt>
      <trkpt lat="45.75595" lon="6.5362">
        <ele>1615</ele>
        <time>2026-07-12T12:16:49Z</time>
      </trkpt>
      <trkpt lat="45.75597" lon="6.53625">
        <ele>1615.2</ele>
        <time>2026-07-12T12:16:50Z</time>
      </trkpt>
      <trkpt lat="45.75599" lon="6.5363">
        <ele>1615.6</ele>
        <time>2026-07-12T12:16:51Z</time>
      </trkpt>
      <trkpt lat="45.75601" lon="6.53634">
        <ele>1615.6</ele>
        <time>2026-07-12T12:16:52Z</time>
      </trkpt>
      <trkpt lat="45.75604" lon="6.53638">
        <ele>1615.6</ele>
        <time>2026-07-12T12:16:53Z</time>
      </trkpt>
      <trkpt lat="45.75606" lon="6.53641">
        <ele>1615.4</ele>
        <time>2026-07-12T12:16:54Z</time>
      </trkpt>
      <trkpt lat="45.75609" lon="6.53644">
        <ele>1615.4</ele>
        <time>2026-07-12T12:16:55Z</time>
      </trkpt>
      <trkpt lat="45.75612" lon="6.53646">
        <ele>1615.4</ele>
        <time>2026-07-12T12:16:56Z</time>
      </trkpt>
      <trkpt lat="45.75616" lon="6.53647">
        <ele>1615.4</ele>
        <time>2026-07-12T12:16:57Z</time>
      </trkpt>
      <trkpt lat="45.75619" lon="6.53648">
        <ele>1614.8</ele>
        <time>2026-07-12T12:16:58Z</time>
      </trkpt>
      <trkpt lat="45.75623" lon="6.5365">
        <ele>1614.4</ele>
        <time>2026-07-12T12:16:59Z</time>
      </trkpt>
      <trkpt lat="45.75626" lon="6.53651">
        <ele>1614</ele>
        <time>2026-07-12T12:17:00Z</time>
      </trkpt>
      <trkpt lat="45.75628" lon="6.53654">
        <ele>1614</ele>
        <time>2026-07-12T12:17:01Z</time>
      </trkpt>
      <trkpt lat="45.75629" lon="6.53657">
        <ele>1614</ele>
        <time>2026-07-12T12:17:02Z</time>
      </trkpt>
      <trkpt lat="45.75631" lon="6.53659">
        <ele>1615.2</ele>
        <time>2026-07-12T12:17:03Z</time>
      </trkpt>
      <trkpt lat="45.75632" lon="6.53661">
        <ele>1615.2</ele>
        <time>2026-07-12T12:17:04Z</time>
      </trkpt>
      <trkpt lat="45.75632" lon="6.53664">
        <ele>1615.2</ele>
        <time>2026-07-12T12:17:05Z</time>
      </trkpt>
      <trkpt lat="45.75633" lon="6.53669">
        <ele>1615.2</ele>
        <time>2026-07-12T12:17:06Z</time>
      </trkpt>
      <trkpt lat="45.75634" lon="6.53673">
        <ele>1616.2</ele>
        <time>2026-07-12T12:17:07Z</time>
      </trkpt>
      <trkpt lat="45.75636" lon="6.53677">
        <ele>1616.2</ele>
        <time>2026-07-12T12:17:08Z</time>
      </trkpt>
      <trkpt lat="45.75637" lon="6.53679">
        <ele>1616.2</ele>
        <time>2026-07-12T12:17:09Z</time>
      </trkpt>
      <trkpt lat="45.75637" lon="6.53683">
        <ele>1616.2</ele>
        <time>2026-07-12T12:17:10Z</time>
      </trkpt>
      <trkpt lat="45.75638" lon="6.53688">
        <ele>1616.2</ele>
        <time>2026-07-12T12:17:11Z</time>
      </trkpt>
      <trkpt lat="45.7564" lon="6.53692">
        <ele>1617</ele>
        <time>2026-07-12T12:17:12Z</time>
      </trkpt>
      <trkpt lat="45.75643" lon="6.53695">
        <ele>1617.2</ele>
        <time>2026-07-12T12:17:13Z</time>
      </trkpt>
      <trkpt lat="45.75647" lon="6.53698">
        <ele>1618.4</ele>
        <time>2026-07-12T12:17:14Z</time>
      </trkpt>
      <trkpt lat="45.7565" lon="6.537">
        <ele>1618.4</ele>
        <time>2026-07-12T12:17:15Z</time>
      </trkpt>
      <trkpt lat="45.75653" lon="6.53704">
        <ele>1618.4</ele>
        <time>2026-07-12T12:17:16Z</time>
      </trkpt>
      <trkpt lat="45.75656" lon="6.53708">
        <ele>1618.4</ele>
        <time>2026-07-12T12:17:17Z</time>
      </trkpt>
      <trkpt lat="45.75659" lon="6.53713">
        <ele>1620</ele>
        <time>2026-07-12T12:17:18Z</time>
      </trkpt>
      <trkpt lat="45.75662" lon="6.53718">
        <ele>1620</ele>
        <time>2026-07-12T12:17:19Z</time>
      </trkpt>
      <trkpt lat="45.75664" lon="6.53723">
        <ele>1620</ele>
        <time>2026-07-12T12:17:20Z</time>
      </trkpt>
      <trkpt lat="45.75665" lon="6.53729">
        <ele>1620</ele>
        <time>2026-07-12T12:17:21Z</time>
      </trkpt>
      <trkpt lat="45.75666" lon="6.53735">
        <ele>1621</ele>
        <time>2026-07-12T12:17:22Z</time>
      </trkpt>
      <trkpt lat="45.75667" lon="6.53741">
        <ele>1621.4</ele>
        <time>2026-07-12T12:17:23Z</time>
      </trkpt>
      <trkpt lat="45.75668" lon="6.53747">
        <ele>1621.8</ele>
        <time>2026-07-12T12:17:24Z</time>
      </trkpt>
      <trkpt lat="45.75668" lon="6.53753">
        <ele>1621.8</ele>
        <time>2026-07-12T12:17:25Z</time>
      </trkpt>
      <trkpt lat="45.75669" lon="6.53759">
        <ele>1622</ele>
        <time>2026-07-12T12:17:26Z</time>
      </trkpt>
      <trkpt lat="45.75669" lon="6.53765">
        <ele>1622.6</ele>
        <time>2026-07-12T12:17:27Z</time>
      </trkpt>
      <trkpt lat="45.75669" lon="6.53772">
        <ele>1622.6</ele>
        <time>2026-07-12T12:17:28Z</time>
      </trkpt>
      <trkpt lat="45.7567" lon="6.53777">
        <ele>1622.8</ele>
        <time>2026-07-12T12:17:29Z</time>
      </trkpt>
      <trkpt lat="45.75671" lon="6.53783">
        <ele>1623.4</ele>
        <time>2026-07-12T12:17:30Z</time>
      </trkpt>
      <trkpt lat="45.75672" lon="6.53788">
        <ele>1623.4</ele>
        <time>2026-07-12T12:17:31Z</time>
      </trkpt>
      <trkpt lat="45.75673" lon="6.53794">
        <ele>1623.4</ele>
        <time>2026-07-12T12:17:32Z</time>
      </trkpt>
      <trkpt lat="45.75674" lon="6.53799">
        <ele>1623.4</ele>
        <time>2026-07-12T12:17:33Z</time>
      </trkpt>
      <trkpt lat="45.75675" lon="6.53805">
        <ele>1623.4</ele>
        <time>2026-07-12T12:17:34Z</time>
      </trkpt>
      <trkpt lat="45.75677" lon="6.53811">
        <ele>1623.4</ele>
        <time>2026-07-12T12:17:35Z</time>
      </trkpt>
      <trkpt lat="45.75678" lon="6.53816">
        <ele>1624.6</ele>
        <time>2026-07-12T12:17:36Z</time>
      </trkpt>
      <trkpt lat="45.75679" lon="6.53821">
        <ele>1625.4</ele>
        <time>2026-07-12T12:17:37Z</time>
      </trkpt>
      <trkpt lat="45.75681" lon="6.53825">
        <ele>1625.8</ele>
        <time>2026-07-12T12:17:38Z</time>
      </trkpt>
      <trkpt lat="45.75683" lon="6.53829">
        <ele>1626.2</ele>
        <time>2026-07-12T12:17:39Z</time>
      </trkpt>
      <trkpt lat="45.75685" lon="6.53833">
        <ele>1626.4</ele>
        <time>2026-07-12T12:17:40Z</time>
      </trkpt>
      <trkpt lat="45.75688" lon="6.53837">
        <ele>1626.6</ele>
        <time>2026-07-12T12:17:41Z</time>
      </trkpt>
      <trkpt lat="45.7569" lon="6.5384">
        <ele>1626.8</ele>
        <time>2026-07-12T12:17:42Z</time>
      </trkpt>
      <trkpt lat="45.75693" lon="6.53845">
        <ele>1627.2</ele>
        <time>2026-07-12T12:17:43Z</time>
      </trkpt>
      <trkpt lat="45.75695" lon="6.53849">
        <ele>1627.2</ele>
        <time>2026-07-12T12:17:44Z</time>
      </trkpt>
      <trkpt lat="45.75697" lon="6.53854">
        <ele>1627.2</ele>
        <time>2026-07-12T12:17:45Z</time>
      </trkpt>
      <trkpt lat="45.75698" lon="6.53859">
        <ele>1627.2</ele>
        <time>2026-07-12T12:17:46Z</time>
      </trkpt>
      <trkpt lat="45.75699" lon="6.53865">
        <ele>1627</ele>
        <time>2026-07-12T12:17:47Z</time>
      </trkpt>
      <trkpt lat="45.75699" lon="6.5387">
        <ele>1627</ele>
        <time>2026-07-12T12:17:48Z</time>
      </trkpt>
      <trkpt lat="45.75699" lon="6.53875">
        <ele>1627</ele>
        <time>2026-07-12T12:17:49Z</time>
      </trkpt>
      <trkpt lat="45.757" lon="6.53879">
        <ele>1627.4</ele>
        <time>2026-07-12T12:17:50Z</time>
      </trkpt>
      <trkpt lat="45.757" lon="6.53884">
        <ele>1627.4</ele>
        <time>2026-07-12T12:17:51Z</time>
      </trkpt>
      <trkpt lat="45.75701" lon="6.53888">
        <ele>1627.4</ele>
        <time>2026-07-12T12:17:52Z</time>
      </trkpt>
      <trkpt lat="45.75701" lon="6.53893">
        <ele>1627.4</ele>
        <time>2026-07-12T12:17:53Z</time>
      </trkpt>
      <trkpt lat="45.75702" lon="6.53897">
        <ele>1627.4</ele>
        <time>2026-07-12T12:17:54Z</time>
      </trkpt>
      <trkpt lat="45.75703" lon="6.53902">
        <ele>1627.4</ele>
        <time>2026-07-12T12:17:55Z</time>
      </trkpt>
      <trkpt lat="45.75704" lon="6.53906">
        <ele>1627.4</ele>
        <time>2026-07-12T12:17:56Z</time>
      </trkpt>
      <trkpt lat="45.75705" lon="6.5391">
        <ele>1627.4</ele>
        <time>2026-07-12T12:17:57Z</time>
      </trkpt>
      <trkpt lat="45.75707" lon="6.53915">
        <ele>1628.2</ele>
        <time>2026-07-12T12:17:58Z</time>
      </trkpt>
      <trkpt lat="45.75709" lon="6.53919">
        <ele>1629</ele>
        <time>2026-07-12T12:17:59Z</time>
      </trkpt>
      <trkpt lat="45.7571" lon="6.53923">
        <ele>1629.6</ele>
        <time>2026-07-12T12:18:00Z</time>
      </trkpt>
      <trkpt lat="45.75711" lon="6.53928">
        <ele>1629.6</ele>
        <time>2026-07-12T12:18:01Z</time>
      </trkpt>
      <trkpt lat="45.75712" lon="6.53934">
        <ele>1629.6</ele>
        <time>2026-07-12T12:18:02Z</time>
      </trkpt>
      <trkpt lat="45.75714" lon="6.53939">
        <ele>1629.6</ele>
        <time>2026-07-12T12:18:03Z</time>
      </trkpt>
      <trkpt lat="45.75717" lon="6.53943">
        <ele>1631.2</ele>
        <time>2026-07-12T12:18:04Z</time>
      </trkpt>
      <trkpt lat="45.75721" lon="6.53943">
        <ele>1631.4</ele>
        <time>2026-07-12T12:18:05Z</time>
      </trkpt>
      <trkpt lat="45.75724" lon="6.5394">
        <ele>1631.8</ele>
        <time>2026-07-12T12:18:06Z</time>
      </trkpt>
      <trkpt lat="45.75726" lon="6.53935">
        <ele>1631.8</ele>
        <time>2026-07-12T12:18:07Z</time>
      </trkpt>
      <trkpt lat="45.75728" lon="6.5393">
        <ele>1631.8</ele>
        <time>2026-07-12T12:18:08Z</time>
      </trkpt>
      <trkpt lat="45.75731" lon="6.53926">
        <ele>1631.8</ele>
        <time>2026-07-12T12:18:09Z</time>
      </trkpt>
      <trkpt lat="45.75733" lon="6.53921">
        <ele>1631.8</ele>
        <time>2026-07-12T12:18:10Z</time>
      </trkpt>
      <trkpt lat="45.75735" lon="6.53916">
        <ele>1633</ele>
        <time>2026-07-12T12:18:11Z</time>
      </trkpt>
      <trkpt lat="45.75737" lon="6.53911">
        <ele>1633.4</ele>
        <time>2026-07-12T12:18:12Z</time>
      </trkpt>
      <trkpt lat="45.75739" lon="6.53905">
        <ele>1635</ele>
        <time>2026-07-12T12:18:13Z</time>
      </trkpt>
      <trkpt lat="45.75741" lon="6.539">
        <ele>1635</ele>
        <time>2026-07-12T12:18:14Z</time>
      </trkpt>
      <trkpt lat="45.75743" lon="6.53893">
        <ele>1635</ele>
        <time>2026-07-12T12:18:15Z</time>
      </trkpt>
      <trkpt lat="45.75745" lon="6.53887">
        <ele>1634.6</ele>
        <time>2026-07-12T12:18:16Z</time>
      </trkpt>
      <trkpt lat="45.75747" lon="6.53881">
        <ele>1634.2</ele>
        <time>2026-07-12T12:18:17Z</time>
      </trkpt>
      <trkpt lat="45.75748" lon="6.53875">
        <ele>1634.2</ele>
        <time>2026-07-12T12:18:18Z</time>
      </trkpt>
      <trkpt lat="45.7575" lon="6.53869">
        <ele>1634.2</ele>
        <time>2026-07-12T12:18:19Z</time>
      </trkpt>
      <trkpt lat="45.75751" lon="6.53863">
        <ele>1634.2</ele>
        <time>2026-07-12T12:18:20Z</time>
      </trkpt>
      <trkpt lat="45.75753" lon="6.53857">
        <ele>1634.2</ele>
        <time>2026-07-12T12:18:21Z</time>
      </trkpt>
      <trkpt lat="45.75755" lon="6.53851">
        <ele>1635.2</ele>
        <time>2026-07-12T12:18:22Z</time>
      </trkpt>
      <trkpt lat="45.75756" lon="6.53845">
        <ele>1636.2</ele>
        <time>2026-07-12T12:18:23Z</time>
      </trkpt>
      <trkpt lat="45.75758" lon="6.53839">
        <ele>1636.8</ele>
        <time>2026-07-12T12:18:24Z</time>
      </trkpt>
      <trkpt lat="45.75761" lon="6.53833">
        <ele>1637.6</ele>
        <time>2026-07-12T12:18:25Z</time>
      </trkpt>
      <trkpt lat="45.75763" lon="6.53828">
        <ele>1637.6</ele>
        <time>2026-07-12T12:18:26Z</time>
      </trkpt>
      <trkpt lat="45.75765" lon="6.53822">
        <ele>1637.6</ele>
        <time>2026-07-12T12:18:27Z</time>
      </trkpt>
      <trkpt lat="45.75768" lon="6.53816">
        <ele>1637.6</ele>
        <time>2026-07-12T12:18:28Z</time>
      </trkpt>
      <trkpt lat="45.7577" lon="6.5381">
        <ele>1637.6</ele>
        <time>2026-07-12T12:18:29Z</time>
      </trkpt>
      <trkpt lat="45.75772" lon="6.53804">
        <ele>1638.4</ele>
        <time>2026-07-12T12:18:30Z</time>
      </trkpt>
      <trkpt lat="45.75774" lon="6.53798">
        <ele>1638.4</ele>
        <time>2026-07-12T12:18:31Z</time>
      </trkpt>
      <trkpt lat="45.75777" lon="6.53792">
        <ele>1639.4</ele>
        <time>2026-07-12T12:18:32Z</time>
      </trkpt>
      <trkpt lat="45.75779" lon="6.53786">
        <ele>1639.4</ele>
        <time>2026-07-12T12:18:33Z</time>
      </trkpt>
      <trkpt lat="45.75782" lon="6.5378">
        <ele>1639.4</ele>
        <time>2026-07-12T12:18:34Z</time>
      </trkpt>
      <trkpt lat="45.75784" lon="6.53775">
        <ele>1639.4</ele>
        <time>2026-07-12T12:18:35Z</time>
      </trkpt>
      <trkpt lat="45.75787" lon="6.53769">
        <ele>1639.4</ele>
        <time>2026-07-12T12:18:36Z</time>
      </trkpt>
      <trkpt lat="45.75789" lon="6.53764">
        <ele>1640</ele>
        <time>2026-07-12T12:18:37Z</time>
      </trkpt>
      <trkpt lat="45.75791" lon="6.53758">
        <ele>1640.8</ele>
        <time>2026-07-12T12:18:38Z</time>
      </trkpt>
      <trkpt lat="45.75793" lon="6.53752">
        <ele>1640.8</ele>
        <time>2026-07-12T12:18:39Z</time>
      </trkpt>
      <trkpt lat="45.75794" lon="6.53746">
        <ele>1640.8</ele>
        <time>2026-07-12T12:18:40Z</time>
      </trkpt>
      <trkpt lat="45.75796" lon="6.5374">
        <ele>1640.8</ele>
        <time>2026-07-12T12:18:41Z</time>
      </trkpt>
      <trkpt lat="45.75797" lon="6.53733">
        <ele>1640.8</ele>
        <time>2026-07-12T12:18:42Z</time>
      </trkpt>
      <trkpt lat="45.75799" lon="6.53727">
        <ele>1641.8</ele>
        <time>2026-07-12T12:18:43Z</time>
      </trkpt>
      <trkpt lat="45.758" lon="6.5372">
        <ele>1641.8</ele>
        <time>2026-07-12T12:18:44Z</time>
      </trkpt>
      <trkpt lat="45.75801" lon="6.53714">
        <ele>1641.8</ele>
        <time>2026-07-12T12:18:45Z</time>
      </trkpt>
      <trkpt lat="45.75802" lon="6.53707">
        <ele>1641.8</ele>
        <time>2026-07-12T12:18:46Z</time>
      </trkpt>
      <trkpt lat="45.75804" lon="6.53701">
        <ele>1642.8</ele>
        <time>2026-07-12T12:18:47Z</time>
      </trkpt>
      <trkpt lat="45.75806" lon="6.53695">
        <ele>1643.4</ele>
        <time>2026-07-12T12:18:48Z</time>
      </trkpt>
      <trkpt lat="45.75809" lon="6.53689">
        <ele>1643.4</ele>
        <time>2026-07-12T12:18:49Z</time>
      </trkpt>
      <trkpt lat="45.75811" lon="6.53684">
        <ele>1643.4</ele>
        <time>2026-07-12T12:18:50Z</time>
      </trkpt>
      <trkpt lat="45.75814" lon="6.53678">
        <ele>1643.4</ele>
        <time>2026-07-12T12:18:51Z</time>
      </trkpt>
      <trkpt lat="45.75816" lon="6.53672">
        <ele>1644.4</ele>
        <time>2026-07-12T12:18:52Z</time>
      </trkpt>
      <trkpt lat="45.75819" lon="6.53666">
        <ele>1645</ele>
        <time>2026-07-12T12:18:53Z</time>
      </trkpt>
      <trkpt lat="45.75821" lon="6.5366">
        <ele>1645</ele>
        <time>2026-07-12T12:18:54Z</time>
      </trkpt>
      <trkpt lat="45.75823" lon="6.53655">
        <ele>1645</ele>
        <time>2026-07-12T12:18:55Z</time>
      </trkpt>
      <trkpt lat="45.75825" lon="6.53649">
        <ele>1645</ele>
        <time>2026-07-12T12:18:56Z</time>
      </trkpt>
      <trkpt lat="45.75827" lon="6.53643">
        <ele>1645.4</ele>
        <time>2026-07-12T12:18:57Z</time>
      </trkpt>
      <trkpt lat="45.75829" lon="6.53637">
        <ele>1646.4</ele>
        <time>2026-07-12T12:18:58Z</time>
      </trkpt>
      <trkpt lat="45.75831" lon="6.53632">
        <ele>1646.4</ele>
        <time>2026-07-12T12:18:59Z</time>
      </trkpt>
      <trkpt lat="45.75834" lon="6.53626">
        <ele>1646.4</ele>
        <time>2026-07-12T12:19:00Z</time>
      </trkpt>
      <trkpt lat="45.75836" lon="6.5362">
        <ele>1646.4</ele>
        <time>2026-07-12T12:19:01Z</time>
      </trkpt>
      <trkpt lat="45.75839" lon="6.53614">
        <ele>1646.4</ele>
        <time>2026-07-12T12:19:02Z</time>
      </trkpt>
      <trkpt lat="45.75841" lon="6.53609">
        <ele>1646.4</ele>
        <time>2026-07-12T12:19:03Z</time>
      </trkpt>
      <trkpt lat="45.75844" lon="6.53603">
        <ele>1646.4</ele>
        <time>2026-07-12T12:19:04Z</time>
      </trkpt>
      <trkpt lat="45.75848" lon="6.53598">
        <ele>1646.6</ele>
        <time>2026-07-12T12:19:05Z</time>
      </trkpt>
      <trkpt lat="45.75851" lon="6.53593">
        <ele>1647.4</ele>
        <time>2026-07-12T12:19:06Z</time>
      </trkpt>
      <trkpt lat="45.75855" lon="6.53588">
        <ele>1647.4</ele>
        <time>2026-07-12T12:19:07Z</time>
      </trkpt>
      <trkpt lat="45.75858" lon="6.53584">
        <ele>1647.4</ele>
        <time>2026-07-12T12:19:08Z</time>
      </trkpt>
      <trkpt lat="45.75862" lon="6.53579">
        <ele>1647.4</ele>
        <time>2026-07-12T12:19:09Z</time>
      </trkpt>
      <trkpt lat="45.75866" lon="6.53575">
        <ele>1648.6</ele>
        <time>2026-07-12T12:19:10Z</time>
      </trkpt>
      <trkpt lat="45.75869" lon="6.5357">
        <ele>1648.6</ele>
        <time>2026-07-12T12:19:11Z</time>
      </trkpt>
      <trkpt lat="45.75873" lon="6.53566">
        <ele>1648.6</ele>
        <time>2026-07-12T12:19:12Z</time>
      </trkpt>
      <trkpt lat="45.75877" lon="6.53561">
        <ele>1648.6</ele>
        <time>2026-07-12T12:19:13Z</time>
      </trkpt>
      <trkpt lat="45.75881" lon="6.53557">
        <ele>1648.6</ele>
        <time>2026-07-12T12:19:14Z</time>
      </trkpt>
      <trkpt lat="45.75885" lon="6.53553">
        <ele>1648.6</ele>
        <time>2026-07-12T12:19:15Z</time>
      </trkpt>
      <trkpt lat="45.75889" lon="6.53548">
        <ele>1648.6</ele>
        <time>2026-07-12T12:19:16Z</time>
      </trkpt>
      <trkpt lat="45.75892" lon="6.53543">
        <ele>1648.8</ele>
        <time>2026-07-12T12:19:17Z</time>
      </trkpt>
      <trkpt lat="45.75896" lon="6.53538">
        <ele>1648.6</ele>
        <time>2026-07-12T12:19:18Z</time>
      </trkpt>
      <trkpt lat="45.75899" lon="6.53532">
        <ele>1648.6</ele>
        <time>2026-07-12T12:19:19Z</time>
      </trkpt>
      <trkpt lat="45.75902" lon="6.53526">
        <ele>1648.6</ele>
        <time>2026-07-12T12:19:20Z</time>
      </trkpt>
      <trkpt lat="45.75906" lon="6.53521">
        <ele>1648.8</ele>
        <time>2026-07-12T12:19:21Z</time>
      </trkpt>
      <trkpt lat="45.75909" lon="6.53515">
        <ele>1648.8</ele>
        <time>2026-07-12T12:19:22Z</time>
      </trkpt>
      <trkpt lat="45.75911" lon="6.53509">
        <ele>1648.8</ele>
        <time>2026-07-12T12:19:23Z</time>
      </trkpt>
      <trkpt lat="45.75914" lon="6.53503">
        <ele>1648.8</ele>
        <time>2026-07-12T12:19:24Z</time>
      </trkpt>
      <trkpt lat="45.75916" lon="6.53497">
        <ele>1648.8</ele>
        <time>2026-07-12T12:19:25Z</time>
      </trkpt>
      <trkpt lat="45.75918" lon="6.53492">
        <ele>1648.8</ele>
        <time>2026-07-12T12:19:26Z</time>
      </trkpt>
      <trkpt lat="45.7592" lon="6.53488">
        <ele>1648.8</ele>
        <time>2026-07-12T12:19:27Z</time>
      </trkpt>
      <trkpt lat="45.75923" lon="6.53483">
        <ele>1649.4</ele>
        <time>2026-07-12T12:19:28Z</time>
      </trkpt>
      <trkpt lat="45.75926" lon="6.53477">
        <ele>1650.4</ele>
        <time>2026-07-12T12:19:29Z</time>
      </trkpt>
      <trkpt lat="45.75929" lon="6.53471">
        <ele>1650.4</ele>
        <time>2026-07-12T12:19:30Z</time>
      </trkpt>
      <trkpt lat="45.75932" lon="6.53465">
        <ele>1650.4</ele>
        <time>2026-07-12T12:19:31Z</time>
      </trkpt>
      <trkpt lat="45.75936" lon="6.53459">
        <ele>1650.4</ele>
        <time>2026-07-12T12:19:32Z</time>
      </trkpt>
      <trkpt lat="45.75939" lon="6.53454">
        <ele>1650.4</ele>
        <time>2026-07-12T12:19:33Z</time>
      </trkpt>
      <trkpt lat="45.75943" lon="6.53449">
        <ele>1650.4</ele>
        <time>2026-07-12T12:19:34Z</time>
      </trkpt>
      <trkpt lat="45.75947" lon="6.53446">
        <ele>1650.8</ele>
        <time>2026-07-12T12:19:35Z</time>
      </trkpt>
      <trkpt lat="45.75951" lon="6.53442">
        <ele>1650.8</ele>
        <time>2026-07-12T12:19:36Z</time>
      </trkpt>
      <trkpt lat="45.75954" lon="6.53437">
        <ele>1650.8</ele>
        <time>2026-07-12T12:19:37Z</time>
      </trkpt>
      <trkpt lat="45.75957" lon="6.53431">
        <ele>1650</ele>
        <time>2026-07-12T12:19:38Z</time>
      </trkpt>
      <trkpt lat="45.7596" lon="6.53425">
        <ele>1650</ele>
        <time>2026-07-12T12:19:39Z</time>
      </trkpt>
      <trkpt lat="45.75963" lon="6.5342">
        <ele>1650</ele>
        <time>2026-07-12T12:19:40Z</time>
      </trkpt>
      <trkpt lat="45.75966" lon="6.53415">
        <ele>1650</ele>
        <time>2026-07-12T12:19:41Z</time>
      </trkpt>
      <trkpt lat="45.7597" lon="6.5341">
        <ele>1650.2</ele>
        <time>2026-07-12T12:19:42Z</time>
      </trkpt>
      <trkpt lat="45.75974" lon="6.53406">
        <ele>1650.2</ele>
        <time>2026-07-12T12:19:43Z</time>
      </trkpt>
      <trkpt lat="45.75978" lon="6.53401">
        <ele>1650.2</ele>
        <time>2026-07-12T12:19:44Z</time>
      </trkpt>
      <trkpt lat="45.75982" lon="6.53397">
        <ele>1650.2</ele>
        <time>2026-07-12T12:19:45Z</time>
      </trkpt>
      <trkpt lat="45.75987" lon="6.53394">
        <ele>1651</ele>
        <time>2026-07-12T12:19:46Z</time>
      </trkpt>
      <trkpt lat="45.75991" lon="6.5339">
        <ele>1651</ele>
        <time>2026-07-12T12:19:47Z</time>
      </trkpt>
      <trkpt lat="45.75996" lon="6.53386">
        <ele>1651.8</ele>
        <time>2026-07-12T12:19:48Z</time>
      </trkpt>
      <trkpt lat="45.76001" lon="6.53383">
        <ele>1651.8</ele>
        <time>2026-07-12T12:19:49Z</time>
      </trkpt>
      <trkpt lat="45.76005" lon="6.5338">
        <ele>1651.8</ele>
        <time>2026-07-12T12:19:50Z</time>
      </trkpt>
      <trkpt lat="45.7601" lon="6.53377">
        <ele>1651</ele>
        <time>2026-07-12T12:19:51Z</time>
      </trkpt>
      <trkpt lat="45.76014" lon="6.53374">
        <ele>1651.2</ele>
        <time>2026-07-12T12:19:52Z</time>
      </trkpt>
      <trkpt lat="45.76018" lon="6.53372">
        <ele>1651.6</ele>
        <time>2026-07-12T12:19:53Z</time>
      </trkpt>
      <trkpt lat="45.76022" lon="6.53369">
        <ele>1651.6</ele>
        <time>2026-07-12T12:19:54Z</time>
      </trkpt>
      <trkpt lat="45.76026" lon="6.53368">
        <ele>1651.6</ele>
        <time>2026-07-12T12:19:55Z</time>
      </trkpt>
      <trkpt lat="45.76031" lon="6.53366">
        <ele>1651.4</ele>
        <time>2026-07-12T12:19:56Z</time>
      </trkpt>
      <trkpt lat="45.76035" lon="6.53364">
        <ele>1651.2</ele>
        <time>2026-07-12T12:19:57Z</time>
      </trkpt>
      <trkpt lat="45.76039" lon="6.53362">
        <ele>1651.2</ele>
        <time>2026-07-12T12:19:58Z</time>
      </trkpt>
      <trkpt lat="45.76044" lon="6.5336">
        <ele>1651.2</ele>
        <time>2026-07-12T12:19:59Z</time>
      </trkpt>
      <trkpt lat="45.76049" lon="6.53358">
        <ele>1651.2</ele>
        <time>2026-07-12T12:20:00Z</time>
      </trkpt>
      <trkpt lat="45.76053" lon="6.53357">
        <ele>1651.2</ele>
        <time>2026-07-12T12:20:01Z</time>
      </trkpt>
      <trkpt lat="45.76058" lon="6.53356">
        <ele>1651.2</ele>
        <time>2026-07-12T12:20:02Z</time>
      </trkpt>
      <trkpt lat="45.76063" lon="6.53355">
        <ele>1650.8</ele>
        <time>2026-07-12T12:20:03Z</time>
      </trkpt>
      <trkpt lat="45.76068" lon="6.53353">
        <ele>1650.4</ele>
        <time>2026-07-12T12:20:04Z</time>
      </trkpt>
      <trkpt lat="45.76073" lon="6.53353">
        <ele>1650.4</ele>
        <time>2026-07-12T12:20:05Z</time>
      </trkpt>
      <trkpt lat="45.76078" lon="6.53351">
        <ele>1650.4</ele>
        <time>2026-07-12T12:20:06Z</time>
      </trkpt>
      <trkpt lat="45.76083" lon="6.5335">
        <ele>1650.4</ele>
        <time>2026-07-12T12:20:07Z</time>
      </trkpt>
      <trkpt lat="45.76087" lon="6.5335">
        <ele>1650.6</ele>
        <time>2026-07-12T12:20:08Z</time>
      </trkpt>
      <trkpt lat="45.76092" lon="6.53349">
        <ele>1650.8</ele>
        <time>2026-07-12T12:20:09Z</time>
      </trkpt>
      <trkpt lat="45.76097" lon="6.53348">
        <ele>1650.8</ele>
        <time>2026-07-12T12:20:10Z</time>
      </trkpt>
      <trkpt lat="45.76102" lon="6.53347">
        <ele>1650.8</ele>
        <time>2026-07-12T12:20:11Z</time>
      </trkpt>
      <trkpt lat="45.76107" lon="6.53346">
        <ele>1650.8</ele>
        <time>2026-07-12T12:20:12Z</time>
      </trkpt>
      <trkpt lat="45.76111" lon="6.53345">
        <ele>1650.8</ele>
        <time>2026-07-12T12:20:13Z</time>
      </trkpt>
      <trkpt lat="45.76116" lon="6.53345">
        <ele>1650</ele>
        <time>2026-07-12T12:20:14Z</time>
      </trkpt>
      <trkpt lat="45.76121" lon="6.53344">
        <ele>1650</ele>
        <time>2026-07-12T12:20:15Z</time>
      </trkpt>
      <trkpt lat="45.76126" lon="6.53343">
        <ele>1650</ele>
        <time>2026-07-12T12:20:16Z</time>
      </trkpt>
      <trkpt lat="45.76131" lon="6.53343">
        <ele>1650</ele>
        <time>2026-07-12T12:20:17Z</time>
      </trkpt>
      <trkpt lat="45.76136" lon="6.53342">
        <ele>1650</ele>
        <time>2026-07-12T12:20:18Z</time>
      </trkpt>
      <trkpt lat="45.76141" lon="6.53342">
        <ele>1650</ele>
        <time>2026-07-12T12:20:19Z</time>
      </trkpt>
      <trkpt lat="45.76146" lon="6.53342">
        <ele>1650</ele>
        <time>2026-07-12T12:20:20Z</time>
      </trkpt>
      <trkpt lat="45.76151" lon="6.53341">
        <ele>1650</ele>
        <time>2026-07-12T12:20:21Z</time>
      </trkpt>
      <trkpt lat="45.76156" lon="6.53341">
        <ele>1650</ele>
        <time>2026-07-12T12:20:22Z</time>
      </trkpt>
      <trkpt lat="45.76162" lon="6.5334">
        <ele>1650</ele>
        <time>2026-07-12T12:20:23Z</time>
      </trkpt>
      <trkpt lat="45.76167" lon="6.5334">
        <ele>1650</ele>
        <time>2026-07-12T12:20:24Z</time>
      </trkpt>
      <trkpt lat="45.76172" lon="6.5334">
        <ele>1650.2</ele>
        <time>2026-07-12T12:20:25Z</time>
      </trkpt>
      <trkpt lat="45.76176" lon="6.5334">
        <ele>1650.6</ele>
        <time>2026-07-12T12:20:26Z</time>
      </trkpt>
      <trkpt lat="45.76181" lon="6.5334">
        <ele>1650.6</ele>
        <time>2026-07-12T12:20:27Z</time>
      </trkpt>
      <trkpt lat="45.76185" lon="6.53341">
        <ele>1650.6</ele>
        <time>2026-07-12T12:20:28Z</time>
      </trkpt>
      <trkpt lat="45.76188" lon="6.53341">
        <ele>1650.4</ele>
        <time>2026-07-12T12:20:29Z</time>
      </trkpt>
      <trkpt lat="45.76191" lon="6.53338">
        <ele>1650.4</ele>
        <time>2026-07-12T12:20:30Z</time>
      </trkpt>
      <trkpt lat="45.76192" lon="6.53334">
        <ele>1650.8</ele>
        <time>2026-07-12T12:20:31Z</time>
      </trkpt>
      <trkpt lat="45.76192" lon="6.5333">
        <ele>1650.8</ele>
        <time>2026-07-12T12:20:32Z</time>
      </trkpt>
      <trkpt lat="45.76192" lon="6.53326">
        <ele>1650.8</ele>
        <time>2026-07-12T12:20:33Z</time>
      </trkpt>
      <trkpt lat="45.76192" lon="6.53322">
        <ele>1650</ele>
        <time>2026-07-12T12:20:34Z</time>
      </trkpt>
      <trkpt lat="45.76193" lon="6.53319">
        <ele>1650</ele>
        <time>2026-07-12T12:20:35Z</time>
      </trkpt>
      <trkpt lat="45.76195" lon="6.53317">
        <ele>1650.2</ele>
        <time>2026-07-12T12:20:36Z</time>
      </trkpt>
      <trkpt lat="45.76198" lon="6.53314">
        <ele>1650.2</ele>
        <time>2026-07-12T12:20:37Z</time>
      </trkpt>
      <trkpt lat="45.76201" lon="6.53313">
        <ele>1650.2</ele>
        <time>2026-07-12T12:20:38Z</time>
      </trkpt>
      <trkpt lat="45.76204" lon="6.53313">
        <ele>1650.2</ele>
        <time>2026-07-12T12:20:39Z</time>
      </trkpt>
      <trkpt lat="45.76208" lon="6.53314">
        <ele>1650.2</ele>
        <time>2026-07-12T12:20:40Z</time>
      </trkpt>
      <trkpt lat="45.76213" lon="6.53314">
        <ele>1650.2</ele>
        <time>2026-07-12T12:20:41Z</time>
      </trkpt>
      <trkpt lat="45.76217" lon="6.53314">
        <ele>1650.2</ele>
        <time>2026-07-12T12:20:42Z</time>
      </trkpt>
      <trkpt lat="45.76221" lon="6.53315">
        <ele>1650.2</ele>
        <time>2026-07-12T12:20:43Z</time>
      </trkpt>
      <trkpt lat="45.76226" lon="6.53315">
        <ele>1650.2</ele>
        <time>2026-07-12T12:20:44Z</time>
      </trkpt>
      <trkpt lat="45.7623" lon="6.53315">
        <ele>1650.2</ele>
        <time>2026-07-12T12:20:45Z</time>
      </trkpt>
      <trkpt lat="45.76235" lon="6.53315">
        <ele>1650.2</ele>
        <time>2026-07-12T12:20:46Z</time>
      </trkpt>
      <trkpt lat="45.76239" lon="6.53316">
        <ele>1650.2</ele>
        <time>2026-07-12T12:20:47Z</time>
      </trkpt>
      <trkpt lat="45.76244" lon="6.53316">
        <ele>1649.6</ele>
        <time>2026-07-12T12:20:48Z</time>
      </trkpt>
      <trkpt lat="45.76249" lon="6.53317">
        <ele>1649.6</ele>
        <time>2026-07-12T12:20:49Z</time>
      </trkpt>
      <trkpt lat="45.76253" lon="6.53318">
        <ele>1649.2</ele>
        <time>2026-07-12T12:20:50Z</time>
      </trkpt>
      <trkpt lat="45.76257" lon="6.53319">
        <ele>1648.6</ele>
        <time>2026-07-12T12:20:51Z</time>
      </trkpt>
      <trkpt lat="45.76262" lon="6.5332">
        <ele>1648.6</ele>
        <time>2026-07-12T12:20:52Z</time>
      </trkpt>
      <trkpt lat="45.76266" lon="6.53321">
        <ele>1648.6</ele>
        <time>2026-07-12T12:20:53Z</time>
      </trkpt>
      <trkpt lat="45.76269" lon="6.53322">
        <ele>1648.6</ele>
        <time>2026-07-12T12:20:54Z</time>
      </trkpt>
      <trkpt lat="45.76273" lon="6.53324">
        <ele>1648.4</ele>
        <time>2026-07-12T12:20:55Z</time>
      </trkpt>
      <trkpt lat="45.76277" lon="6.53325">
        <ele>1648.4</ele>
        <time>2026-07-12T12:20:56Z</time>
      </trkpt>
      <trkpt lat="45.7628" lon="6.53327">
        <ele>1648.6</ele>
        <time>2026-07-12T12:20:57Z</time>
      </trkpt>
      <trkpt lat="45.76284" lon="6.53329">
        <ele>1648.6</ele>
        <time>2026-07-12T12:20:58Z</time>
      </trkpt>
      <trkpt lat="45.76287" lon="6.53331">
        <ele>1648.6</ele>
        <time>2026-07-12T12:20:59Z</time>
      </trkpt>
      <trkpt lat="45.76291" lon="6.53333">
        <ele>1648.2</ele>
        <time>2026-07-12T12:21:00Z</time>
      </trkpt>
      <trkpt lat="45.76294" lon="6.53335">
        <ele>1648.2</ele>
        <time>2026-07-12T12:21:01Z</time>
      </trkpt>
      <trkpt lat="45.76306" lon="6.53346">
        <ele>1647</ele>
        <time>2026-07-12T12:21:06Z</time>
      </trkpt>
    </trkseg>
  </trk>
</gpx>